
Distance (Route):
Temperature : 13.9°C
Humidity : 76.4%
Pressure : 873.0hPa| Receiver | Frames | First received | Last received |
|---|---|---|---|
| DO3MHA-11 | 608 | 2026-08-31 10:46:00 | 2026-08-31 12:59:40 |
| OE5MMP-10 | 469 | 2026-08-31 11:10:11 | 2026-08-31 12:57:51 |
| BAUMI2-15 | 286 | 2026-08-31 11:30:57 | 2026-08-31 12:43:02 |
| OE5WHR-10 | 232 | 2026-08-31 10:59:24 | 2026-08-31 12:52:39 |
| OE5REO-15 | 179 | 2026-08-31 11:19:28 | 2026-08-31 12:50:11 |
| OE5DXL-15 | 178 | 2026-08-31 10:51:05 | 2026-08-31 12:57:36 |
| DL6DJ-15 | 168 | 2026-08-31 10:51:09 | 2026-08-31 12:54:54 |
| OE5DRO-10 | 162 | 2026-08-31 10:58:14 | 2026-08-31 12:57:39 |
| OE5FHM-15 | 145 | 2026-08-31 11:12:50 | 2026-08-31 12:55:50 |
| OE5HKT-10 | 133 | 2026-08-31 11:22:51 | 2026-08-31 12:55:58 |
| PG1ADW-2 | 132 | 2026-08-31 11:02:55 | 2026-08-31 12:52:06 |
| DG1MFX-10 | 115 | 2026-08-31 11:20:54 | 2026-08-31 12:42:29 |
| PETON7-10 | 110 | 2026-08-31 11:25:30 | 2026-08-31 12:36:36 |
| DK5PH-5 | 96 | 2026-08-31 11:13:36 | 2026-08-31 12:38:27 |
| OE3JTB-15 | 39 | 2026-08-31 10:55:13 | 2026-08-31 11:30:11 |
| OE8JPQ-2 | 37 | 2026-08-31 12:12:11 | 2026-08-31 12:34:58 |
| OM5KV | 35 | 2026-08-31 11:34:52 | 2026-08-31 11:39:19 |
| DF3TZ-5 | 19 | 2026-08-31 11:02:00 | 2026-08-31 11:18:34 |
| OE5GOL-10 | 6 | 2026-08-31 12:38:29 | 2026-08-31 12:42:41 |
| DB0UT-7 | 4 | 2026-08-31 11:12:12 | 2026-08-31 11:18:59 |
| S52SK | 4 | 2026-08-31 11:24:10 | 2026-08-31 11:27:41 |
| DH7VM-15 | 3 | 2026-08-31 11:14:13 | 2026-08-31 11:33:34 |
| NBG1-10 | 1 | 2026-08-31 10:58:54 | 2026-08-31 10:58:54 |
| DF7PN | 1 | 2026-08-31 12:09:19 | 2026-08-31 12:09:19 |
| Receiver | Date | Latitude | Longitude | Direction | Speed | Altitude | Climb | Temperature | Humidity | Pressure | Voltage | Killtimer | Uptime | BKT | XDATA |
|---|---|---|---|---|---|---|---|---|---|---|---|---|---|---|---|
| DO3MHA-11 | 2026-08-31 12:59:40 | 48.75482 | 13.18878 | 81° | 29km/h | 1338m | -6.5m/s | 13.9°C | 76.4% | 873.0hPa | 2.6V | 00:00:00 | 02:30:18 | 00:00:00 | |
| DO3MHA-11 | 2026-08-31 12:59:38 | 48.75479 | 13.18856 | 80° | 29km/h | 1350m | -6.2m/s | 13.8°C | 76.6% | 871.8hPa | 2.6V | 00:00:00 | 02:30:16 | 00:00:00 | |
| DO3MHA-11 | 2026-08-31 12:59:36 | 48.75476 | 13.18834 | 79° | 29km/h | 1363m | -6.3m/s | 13.8°C | 76.4% | 870.5hPa | 2.7V | 00:00:00 | 02:30:14 | 00:00:00 | |
| DO3MHA-11 | 2026-08-31 12:59:34 | 48.75473 | 13.18812 | 79° | 29km/h | 1376m | -6.6m/s | 13.7°C | 76.6% | 869.1hPa | 2.7V | 00:00:00 | 02:30:12 | 00:00:00 | |
| DO3MHA-11 | 2026-08-31 12:59:32 | 48.75470 | 13.18789 | 80° | 31km/h | 1390m | -6.6m/s | 13.6°C | 77.5% | 867.7hPa | 2.7V | 00:00:00 | 02:30:10 | 00:00:00 | |
| DO3MHA-11 | 2026-08-31 12:59:30 | 48.75467 | 13.18765 | 79° | 31km/h | 1403m | -6.3m/s | 13.5°C | 77.6% | 866.3hPa | 2.7V | 00:00:00 | 02:30:08 | 00:00:00 | |
| DO3MHA-11 | 2026-08-31 12:59:28 | 48.75464 | 13.18742 | 78° | 31km/h | 1415m | -6.1m/s | 13.4°C | 77.9% | 865.1hPa | 2.7V | 00:00:00 | 02:30:06 | 00:00:00 | |
| DO3MHA-11 | 2026-08-31 12:59:26 | 48.75460 | 13.18719 | 76° | 31km/h | 1428m | -6.4m/s | 13.3°C | 78.0% | 863.8hPa | 2.7V | 00:00:00 | 02:30:04 | 00:00:00 | |
| DO3MHA-11 | 2026-08-31 12:59:24 | 48.75457 | 13.18697 | 77° | 29km/h | 1441m | -6.3m/s | 13.1°C | 78.1% | 862.4hPa | 2.7V | 00:00:00 | 02:30:02 | 00:00:00 | |
| DO3MHA-11 | 2026-08-31 12:59:22 | 48.75453 | 13.18674 | 77° | 29km/h | 1454m | -6.9m/s | 13.0°C | 78.6% | 861.0hPa | 2.7V | 00:00:00 | 02:30:00 | 00:00:00 | |
| DO3MHA-11 | 2026-08-31 12:59:20 | 48.75450 | 13.18652 | 80° | 29km/h | 1468m | -6.7m/s | 12.9°C | 78.7% | 859.7hPa | 2.7V | 08:00:00 | 02:29:58 | 00:00:00 | |
| DO3MHA-11 | 2026-08-31 12:59:18 | 48.75447 | 13.18629 | 79° | 31km/h | 1482m | -7.1m/s | 12.8°C | 79.2% | 858.2hPa | 2.6V | 00:00:00 | 02:29:56 | 00:00:00 | |
| DO3MHA-11 | 2026-08-31 12:59:16 | 48.75444 | 13.18606 | 79° | 31km/h | 1495m | -6.7m/s | 12.7°C | 79.7% | 856.9hPa | 2.6V | 00:00:00 | 02:29:54 | 00:00:00 | |
| DO3MHA-11 | 2026-08-31 12:59:13 | 48.75439 | 13.18570 | 76° | 31km/h | 1515m | -6.5m/s | 12.5°C | 80.0% | 855.0hPa | 2.6V | 00:00:00 | 02:29:51 | 00:00:00 | |
| DO3MHA-11 | 2026-08-31 12:59:08 | 48.75430 | 13.18512 | 79° | 33km/h | 1549m | -6.9m/s | 12.2°C | 81.2% | 851.6hPa | 2.6V | 00:00:00 | 02:29:46 | 00:00:00 | |
| DO3MHA-11 | 2026-08-31 12:59:03 | 48.75421 | 13.18451 | 77° | 33km/h | 1586m | -6.9m/s | 11.8°C | 82.6% | 847.8hPa | 2.6V | 00:00:00 | 02:29:41 | 00:00:00 | |
| DO3MHA-11 | 2026-08-31 12:58:58 | 48.75413 | 13.18389 | 81° | 37km/h | 1621m | -7.1m/s | 11.5°C | 83.8% | 844.2hPa | 2.6V | 00:00:00 | 02:29:36 | 00:00:00 | |
| DO3MHA-11 | 2026-08-31 12:58:53 | 48.75406 | 13.18322 | 81° | 37km/h | 1658m | -8.3m/s | 11.1°C | 85.6% | 840.8hPa | 2.7V | 00:00:00 | 02:29:31 | 00:00:00 | |
| DO3MHA-11 | 2026-08-31 12:58:48 | 48.75398 | 13.18253 | 83° | 40km/h | 1706m | -9.7m/s | 10.7°C | 86.5% | 836.1hPa | 2.7V | 00:00:00 | 02:29:26 | 00:00:00 | |
| DO3MHA-11 | 2026-08-31 12:58:43 | 48.75392 | 13.18177 | 84° | 44km/h | 1755m | -11.0m/s | 10.2°C | 88.6% | 831.1hPa | 2.7V | 08:00:00 | 02:29:21 | 00:00:00 | |
| DO3MHA-11 | 2026-08-31 12:58:38 | 48.75383 | 13.18093 | 79° | 44km/h | 1802m | -6.4m/s | 9.8°C | 89.4% | 826.0hPa | 2.6V | 00:00:00 | 02:29:16 | 00:00:00 | |
| DO3MHA-11 | 2026-08-31 12:58:33 | 48.75373 | 13.18010 | 81° | 46km/h | 1834m | -6.5m/s | 9.6°C | 89.3% | 823.0hPa | 2.6V | 00:00:00 | 02:29:11 | 00:00:00 | |
| DO3MHA-11 | 2026-08-31 12:58:28 | 48.75364 | 13.17925 | 80° | 46km/h | 1866m | -6.7m/s | 9.3°C | 90.9% | 819.7hPa | 2.6V | 00:00:00 | 02:29:06 | 00:00:00 | |
| DO3MHA-11 | 2026-08-31 12:58:23 | 48.75355 | 13.17839 | 81° | 46km/h | 1899m | -6.7m/s | 8.9°C | 93.8% | 816.3hPa | 2.6V | 00:00:00 | 02:29:01 | 00:00:00 | |
| DO3MHA-11 | 2026-08-31 12:58:18 | 48.75344 | 13.17753 | 79° | 46km/h | 1931m | -6.2m/s | 8.7°C | 93.7% | 813.3hPa | 2.6V | 00:00:00 | 02:28:56 | 00:00:00 | |
| DO3MHA-11 | 2026-08-31 12:58:13 | 48.75333 | 13.17667 | 78° | 46km/h | 1963m | -6.3m/s | 8.8°C | 82.1% | 810.2hPa | 2.6V | 00:00:00 | 02:28:51 | 00:00:00 | |
| DO3MHA-11 | 2026-08-31 12:58:08 | 48.75322 | 13.17581 | 81° | 46km/h | 1995m | -6.4m/s | 8.5°C | 84.1% | 807.2hPa | 2.7V | 00:00:00 | 02:28:46 | 00:00:00 | |
| DO3MHA-11 | 2026-08-31 12:58:03 | 48.75311 | 13.17496 | 77° | 44km/h | 2024m | -5.7m/s | 8.1°C | 86.8% | 804.1hPa | 2.7V | 00:00:00 | 02:28:41 | 00:00:00 | |
| DO3MHA-11 | 2026-08-31 12:57:58 | 48.75298 | 13.17413 | 77° | 46km/h | 2053m | -5.7m/s | 7.9°C | 86.9% | 801.5hPa | 2.7V | 08:01:00 | 02:28:36 | 00:00:00 | |
| DO3MHA-11 | 2026-08-31 12:57:53 | 48.75286 | 13.17328 | 78° | 46km/h | 2083m | -6.2m/s | 7.7°C | 87.3% | 798.5hPa | 2.7V | 00:00:00 | 02:28:31 | 00:00:00 | |
| OE5MMP-10 | 2026-08-31 12:57:51 | 48.75281 | 13.17294 | 78° | 46km/h | 2095m | -5.7m/s | 7.6°C | 87.3% | 797.4hPa | 2.7V | 00:00:00 | 02:28:29 | 00:00:00 | |
| DO3MHA-11 | 2026-08-31 12:57:48 | 48.75274 | 13.17243 | 78° | 46km/h | 2112m | -5.6m/s | 7.6°C | 85.9% | 795.8hPa | 2.7V | 00:00:00 | 02:28:26 | 00:00:00 | |
| DO3MHA-11 | 2026-08-31 12:57:43 | 48.75262 | 13.17157 | 79° | 46km/h | 2139m | -5.4m/s | 7.4°C | 84.6% | 793.2hPa | 2.7V | 00:00:00 | 02:28:21 | 00:00:00 | |
| OE5MMP-10 | 2026-08-31 12:57:41 | 48.75258 | 13.17122 | 78° | 47km/h | 2151m | -5.9m/s | 7.4°C | 84.2% | 792.0hPa | 2.7V | 00:00:00 | 02:28:19 | 00:00:00 | |
| OE5DRO-10 | 2026-08-31 12:57:39 | 48.75252 | 13.17088 | 77° | 47km/h | 2163m | -5.9m/s | 7.4°C | 81.8% | 791.0hPa | 2.7V | 00:00:00 | 00:00:00 | 00:00:00 | |
| DO3MHA-11 | 2026-08-31 12:57:38 | 48.75249 | 13.17070 | 77° | 47km/h | 2168m | -5.5m/s | 7.4°C | 80.4% | 790.4hPa | 2.7V | 00:00:00 | 02:28:16 | 00:00:00 | |
| OE5DXL-15 | 2026-08-31 12:57:36 | 48.75244 | 13.17035 | 77° | 51km/h | 2180m | -5.3m/s | 7.4°C | 78.6% | 789.3hPa | 2.7V | 00:00:00 | 00:00:00 | 00:00:00 | |
| DO3MHA-11 | 2026-08-31 12:57:33 | 48.75235 | 13.16981 | 76° | 49km/h | 2196m | -5.5m/s | 7.0°C | 82.5% | 787.8hPa | 2.7V | 00:00:00 | 02:28:11 | 00:00:00 | |
| OE5MMP-10 | 2026-08-31 12:57:31 | 48.75229 | 13.16944 | 76° | 51km/h | 2206m | -5.2m/s | 7.0°C | 83.4% | 786.7hPa | 2.7V | 00:00:00 | 02:28:09 | 00:00:00 | |
| OE5DRO-10 | 2026-08-31 12:57:30 | 48.75225 | 13.16925 | 76° | 51km/h | 2211m | -5.0m/s | 7.0°C | 82.4% | 786.4hPa | 2.7V | 00:00:00 | 00:00:00 | 00:00:00 | |
| DO3MHA-11 | 2026-08-31 12:57:23 | 48.75202 | 13.16794 | 73° | 51km/h | 2249m | -5.6m/s | 6.8°C | 79.7% | 782.8hPa | 2.7V | 00:00:00 | 02:28:01 | 00:00:00 | |
| DO3MHA-11 | 2026-08-31 12:57:18 | 48.75182 | 13.16699 | 75° | 55km/h | 2277m | -5.7m/s | 6.7°C | 76.5% | 780.0hPa | 2.7V | 00:00:00 | 02:27:56 | 00:00:00 | |
| OE5DRO-10 | 2026-08-31 12:57:16 | 48.75175 | 13.16660 | 75° | 55km/h | 2288m | -5.5m/s | 6.8°C | 73.8% | 779.1hPa | 2.7V | 00:00:00 | 00:00:00 | 00:00:00 | |
| DO3MHA-11 | 2026-08-31 12:57:13 | 48.75164 | 13.16599 | 75° | 57km/h | 2305m | -5.1m/s | 6.6°C | 75.0% | 777.4hPa | 2.7V | 08:02:00 | 02:27:51 | 00:00:00 | |
| OE5DRO-10 | 2026-08-31 12:57:09 | 48.75148 | 13.16517 | 74° | 58km/h | 2329m | -5.5m/s | 6.4°C | 74.7% | 775.1hPa | 2.7V | 00:00:00 | 00:00:00 | 00:00:00 | |
| DO3MHA-11 | 2026-08-31 12:57:05 | 48.75132 | 13.16431 | 75° | 58km/h | 2352m | -5.8m/s | 6.4°C | 71.2% | 773.0hPa | 2.7V | 00:00:00 | 02:27:43 | 00:00:00 | |
| OE5DRO-10 | 2026-08-31 12:57:02 | 48.75121 | 13.16365 | 78° | 60km/h | 2369m | -5.4m/s | 6.5°C | 66.3% | 771.5hPa | 2.7V | 00:00:00 | 00:00:00 | 00:00:00 | |
| DO3MHA-11 | 2026-08-31 12:57:00 | 48.75114 | 13.16321 | 77° | 60km/h | 2380m | -5.3m/s | 6.3°C | 68.8% | 770.3hPa | 2.7V | 00:00:00 | 02:27:38 | 00:00:00 | |
| OE5MMP-10 | 2026-08-31 12:56:57 | 48.75103 | 13.16254 | 76° | 62km/h | 2396m | -5.6m/s | 6.6°C | 59.1% | 768.8hPa | 2.7V | 00:00:00 | 02:27:35 | 00:00:00 | |
| OE5DXL-15 | 2026-08-31 12:56:56 | 48.75099 | 13.16231 | 77° | 62km/h | 2402m | -5.6m/s | 6.9°C | 51.6% | 768.3hPa | 2.7V | 00:00:00 | 00:00:00 | 00:00:00 | |
| DO3MHA-11 | 2026-08-31 12:56:55 | 48.75095 | 13.16208 | 77° | 62km/h | 2407m | -5.6m/s | 7.0°C | 47.5% | 767.8hPa | 2.7V | 00:00:00 | 02:27:33 | 00:00:00 | |
| DO3MHA-11 | 2026-08-31 12:56:50 | 48.75078 | 13.16092 | 78° | 66km/h | 2435m | -5.8m/s | 7.4°C | 38.8% | 765.2hPa | 2.7V | 00:00:00 | 02:27:28 | 00:00:00 | |
| OE5MMP-10 | 2026-08-31 12:56:47 | 48.75069 | 13.16023 | 79° | 60km/h | 2452m | -5.9m/s | 7.5°C | 33.7% | 763.6hPa | 2.7V | 00:00:00 | 02:27:25 | 00:00:00 | |
| OE5DRO-10 | 2026-08-31 12:56:39 | 48.75041 | 13.15814 | 78° | 60km/h | 2505m | -5.8m/s | 7.1°C | 31.6% | 758.5hPa | 2.7V | 00:00:00 | 00:00:00 | 00:00:00 | |
| OE5DXL-15 | 2026-08-31 12:56:32 | 48.75021 | 13.15677 | 79° | 62km/h | 2542m | -6.1m/s | 7.2°C | 21.7% | 755.1hPa | 2.7V | 00:00:00 | 00:00:00 | 00:00:00 | |
| OE5MMP-10 | 2026-08-31 12:56:27 | 48.75005 | 13.15563 | 78° | 62km/h | 2574m | -6.2m/s | 7.1°C | 19.3% | 752.3hPa | 2.7V | 00:00:00 | 02:27:05 | 00:00:00 | |
| OE5DRO-10 | 2026-08-31 12:56:23 | 48.74991 | 13.15473 | 77° | 62km/h | 2600m | -6.4m/s | 7.0°C | 17.1% | 749.8hPa | 2.6V | 08:03:00 | 00:00:00 | 00:00:00 | |
| OE5DRO-10 | 2026-08-31 12:56:07 | 48.74931 | 13.15101 | 76° | 66km/h | 2705m | -6.4m/s | 6.2°C | 15.8% | 740.3hPa | 2.7V | 00:00:00 | 00:00:00 | 00:00:00 | |
| OE5MMP-10 | 2026-08-31 12:56:05 | 48.74923 | 13.15053 | 76° | 66km/h | 2718m | -6.7m/s | 6.1°C | 15.1% | 739.1hPa | 2.7V | 00:00:00 | 02:26:43 | 00:00:00 | |
| OE5DXL-15 | 2026-08-31 12:56:02 | 48.74910 | 13.14980 | 76° | 68km/h | 2738m | -6.6m/s | 6.0°C | 15.2% | 737.5hPa | 2.7V | 00:00:00 | 00:00:00 | 00:00:00 | |
| OE5HKT-10 | 2026-08-31 12:55:58 | 48.74893 | 13.14884 | 75° | 68km/h | 2765m | -6.9m/s | 5.7°C | 15.4% | 734.9hPa | 2.7V | 00:00:00 | 02:26:36 | 00:00:00 | |
| OE5MMP-10 | 2026-08-31 12:55:52 | 48.74867 | 13.14738 | 76° | 68km/h | 2806m | -7.0m/s | 5.5°C | 16.0% | 731.1hPa | 2.7V | 00:00:00 | 02:26:30 | 00:00:00 | |
| OE5DRO-10 | 2026-08-31 12:55:51 | 48.74862 | 13.14714 | 77° | 69km/h | 2814m | -7.2m/s | 5.5°C | 16.0% | 730.7hPa | 2.7V | 00:00:00 | 00:00:00 | 00:00:00 | |
| OE5FHM-15 | 2026-08-31 12:55:50 | 48.74858 | 13.14689 | 77° | 69km/h | 2821m | -7.0m/s | 5.4°C | 16.1% | 729.9hPa | 2.7V | 00:00:00 | 02:26:28 | 00:00:00 | |
| OE5MMP-10 | 2026-08-31 12:55:42 | 48.74821 | 13.14488 | 72° | 71km/h | 2879m | -7.0m/s | 5.0°C | 16.4% | 724.7hPa | 2.7V | 00:00:00 | 02:26:20 | 00:00:00 | |
| OE5HKT-10 | 2026-08-31 12:55:41 | 48.74815 | 13.14462 | 73° | 71km/h | 2887m | -7.2m/s | 4.9°C | 16.5% | 724.1hPa | 2.7V | 00:00:00 | 00:00:00 | 00:00:00 | |
| OE5DRO-10 | 2026-08-31 12:55:35 | 48.74782 | 13.14310 | 72° | 71km/h | 2930m | -7.8m/s | 4.8°C | 15.7% | 720.1hPa | 2.7V | 00:00:00 | 00:00:00 | 00:00:00 | |
| OE5DXL-15 | 2026-08-31 12:55:32 | 48.74764 | 13.14233 | 71° | 71km/h | 2952m | -7.1m/s | 4.6°C | 15.9% | 718.3hPa | 2.6V | 08:04:00 | 00:00:00 | 00:00:00 | |
| OE5FHM-15 | 2026-08-31 12:55:30 | 48.74752 | 13.14181 | 71° | 71km/h | 2966m | -7.0m/s | 4.5°C | 16.5% | 717.0hPa | 2.6V | 00:00:00 | 02:26:08 | 00:00:00 | |
| OE5MMP-10 | 2026-08-31 12:55:27 | 48.74733 | 13.14104 | 70° | 71km/h | 2988m | -7.5m/s | 4.4°C | 17.0% | 715.0hPa | 2.6V | 00:00:00 | 02:26:05 | 00:00:00 | |
| OE5HKT-10 | 2026-08-31 12:55:24 | 48.74715 | 13.14026 | 70° | 71km/h | 3011m | -7.3m/s | 4.2°C | 17.8% | 713.2hPa | 2.6V | 00:00:00 | 00:00:00 | 00:00:00 | |
| OE5DRO-10 | 2026-08-31 12:55:19 | 48.74684 | 13.13896 | 71° | 71km/h | 3047m | -7.6m/s | 4.0°C | 18.5% | 710.0hPa | 2.6V | 00:00:00 | 00:00:00 | 00:00:00 | |
| OE5MMP-10 | 2026-08-31 12:55:13 | 48.74649 | 13.13741 | 72° | 71km/h | 3091m | -7.5m/s | 3.5°C | 18.5% | 706.0hPa | 2.6V | 08:04:00 | 02:25:51 | 00:00:00 | |
| OE5FHM-15 | 2026-08-31 12:55:10 | 48.74632 | 13.13662 | 74° | 77km/h | 3114m | -7.4m/s | 3.3°C | 17.8% | 704.0hPa | 2.7V | 00:00:00 | 02:25:48 | 00:00:00 | |
| OE5HKT-10 | 2026-08-31 12:55:07 | 48.74617 | 13.13584 | 73° | 71km/h | 3137m | -7.7m/s | 3.1°C | 17.7% | 702.0hPa | 2.7V | 00:00:00 | 02:25:45 | 00:00:00 | |
| OE5DRO-10 | 2026-08-31 12:55:03 | 48.74596 | 13.13480 | 73° | 73km/h | 3167m | -7.5m/s | 2.9°C | 17.1% | 699.4hPa | 2.7V | 00:00:00 | 00:00:00 | 00:00:00 | |
| DL6DJ-15 | 2026-08-31 12:54:54 | 48.74544 | 13.13218 | 74° | 73km/h | 3243m | -7.8m/s | 2.7°C | 14.0% | 692.9hPa | 2.7V | 00:00:00 | 00:00:00 | 00:00:00 | |
| OE5HKT-10 | 2026-08-31 12:54:50 | 48.74529 | 13.13137 | 75° | 77km/h | 3267m | -7.7m/s | 2.5°C | 14.4% | 690.9hPa | 2.7V | 08:04:00 | 00:00:00 | 00:00:00 | |
| OE5DRO-10 | 2026-08-31 12:54:47 | 48.74514 | 13.13055 | 75° | 77km/h | 3290m | -7.5m/s | 2.4°C | 14.0% | 689.0hPa | 2.7V | 00:00:00 | 00:00:00 | 00:00:00 | |
| OE5MMP-10 | 2026-08-31 12:54:40 | 48.74480 | 13.12859 | 76° | 78km/h | 3345m | -7.9m/s | 2.2°C | 13.8% | 684.2hPa | 2.7V | 00:00:00 | 02:25:18 | 00:00:00 | |
| DO3MHA-11 | 2026-08-31 12:54:35 | 48.74457 | 13.12716 | 77° | 80km/h | 3385m | -7.7m/s | 1.9°C | 13.6% | 680.9hPa | 2.6V | 00:00:00 | 02:25:13 | 00:00:00 | |
| OE5HKT-10 | 2026-08-31 12:54:33 | 48.74447 | 13.12657 | 77° | 82km/h | 3401m | -8.0m/s | 1.7°C | 13.5% | 679.5hPa | 2.6V | 00:00:00 | 00:00:00 | 00:00:00 | |
| OE5DXL-15 | 2026-08-31 12:54:32 | 48.74443 | 13.12627 | 77° | 82km/h | 3409m | -7.9m/s | 1.7°C | 13.7% | 678.8hPa | 2.6V | 00:00:00 | 00:00:00 | 00:00:00 | |
| OE5DRO-10 | 2026-08-31 12:54:31 | 48.74438 | 13.12597 | 77° | 82km/h | 3417m | -7.9m/s | 1.6°C | 13.9% | 678.2hPa | 2.6V | 00:00:00 | 00:00:00 | 00:00:00 | |
| OE5MMP-10 | 2026-08-31 12:54:30 | 48.74433 | 13.12568 | 77° | 82km/h | 3425m | -8.1m/s | 1.5°C | 13.9% | 677.5hPa | 2.6V | 00:00:00 | 02:25:08 | 00:00:00 | |
| OE5FHM-15 | 2026-08-31 12:54:26 | 48.74415 | 13.12447 | 78° | 82km/h | 3457m | -7.8m/s | 1.3°C | 15.1% | 674.8hPa | 2.6V | 00:00:00 | 02:25:04 | 00:00:00 | |
| DL6DJ-15 | 2026-08-31 12:54:23 | 48.74397 | 13.12324 | 77° | 82km/h | 3490m | -8.4m/s | 1.3°C | 15.0% | 672.1hPa | 2.6V | 00:00:00 | 00:00:00 | 00:00:00 | |
| OE5MMP-10 | 2026-08-31 12:54:18 | 48.74380 | 13.12199 | 79° | 82km/h | 3523m | -8.4m/s | 1.1°C | 21.5% | 669.2hPa | 2.6V | 00:00:00 | 02:24:56 | 00:00:00 | |
| OE5DRO-10 | 2026-08-31 12:54:15 | 48.74366 | 13.12107 | 78° | 82km/h | 3548m | -8.2m/s | 0.8°C | 27.9% | 667.2hPa | 2.6V | 00:00:00 | 00:00:00 | 00:00:00 | |
| OE5MMP-10 | 2026-08-31 12:54:03 | 48.74311 | 13.11741 | 78° | 82km/h | 3648m | -8.2m/s | 0.4°C | 13.5% | 658.9hPa | 2.6V | 00:00:00 | 02:24:41 | 00:00:00 | |
| OE5DXL-15 | 2026-08-31 12:54:02 | 48.74306 | 13.11711 | 77° | 80km/h | 3656m | -8.3m/s | 0.4°C | 13.4% | 658.3hPa | 2.7V | 00:00:00 | 00:00:00 | 00:00:00 | |
| DL6DJ-15 | 2026-08-31 12:53:52 | 48.74253 | 13.11371 | 77° | 82km/h | 3749m | -8.2m/s | -0.3°C | 13.3% | 650.8hPa | 2.6V | 00:00:00 | 00:00:00 | 00:00:00 | |
| OE5MMP-10 | 2026-08-31 12:53:49 | 48.74243 | 13.11310 | 77° | 80km/h | 3766m | -8.5m/s | -0.3°C | 13.3% | 649.3hPa | 2.6V | 00:00:00 | 02:24:27 | 00:00:00 | |
| OE5DRO-10 | 2026-08-31 12:53:43 | 48.74215 | 13.11127 | 78° | 77km/h | 3816m | -8.2m/s | -0.7°C | 12.3% | 645.2hPa | 2.6V | 00:00:00 | 00:00:00 | 00:00:00 | |
| OE5FHM-15 | 2026-08-31 12:53:42 | 48.74211 | 13.11097 | 78° | 75km/h | 3825m | -8.1m/s | -0.7°C | 12.4% | 644.6hPa | 2.6V | 00:00:00 | 02:24:20 | 00:00:00 | |
| OE5MMP-10 | 2026-08-31 12:53:39 | 48.74198 | 13.11009 | 79° | 77km/h | 3850m | -8.3m/s | -0.8°C | 15.1% | 642.6hPa | 2.6V | 00:00:00 | 02:24:17 | 00:00:00 | |
| OE5DXL-15 | 2026-08-31 12:53:32 | 48.74171 | 13.10807 | 79° | 75km/h | 3909m | -8.1m/s | -1.1°C | 10.5% | 637.9hPa | 2.6V | 00:00:00 | 00:00:00 | 00:00:00 | |
| OE5DRO-10 | 2026-08-31 12:53:27 | 48.74151 | 13.10667 | 78° | 75km/h | 3950m | -8.0m/s | -1.3°C | 9.4% | 634.5hPa | 2.6V | 00:00:00 | 00:00:00 | 00:00:00 | |
| OE5MMP-10 | 2026-08-31 12:53:26 | 48.74147 | 13.10639 | 78° | 73km/h | 3958m | -8.3m/s | -1.2°C | 9.2% | 633.9hPa | 2.6V | 08:06:00 | 02:24:04 | 00:00:00 | |
| OE5HKT-10 | 2026-08-31 12:53:25 | 48.74143 | 13.10611 | 78° | 73km/h | 3966m | -7.9m/s | -1.3°C | 8.9% | 633.3hPa | 2.6V | 00:00:00 | 02:24:03 | 00:00:00 | |
| DL6DJ-15 | 2026-08-31 12:53:21 | 48.74122 | 13.10472 | 76° | 73km/h | 4008m | -8.1m/s | -1.3°C | 6.8% | 630.0hPa | 2.6V | 00:00:00 | 00:00:00 | 00:00:00 | |
| OE5MMP-10 | 2026-08-31 12:53:15 | 48.74100 | 13.10336 | 77° | 73km/h | 4050m | -8.3m/s | -1.4°C | 5.7% | 626.8hPa | 2.6V | 00:00:00 | 02:23:53 | 00:00:00 | |
| OE5FHM-15 | 2026-08-31 12:53:11 | 48.74083 | 13.10227 | 77° | 73km/h | 4082m | -8.1m/s | -1.4°C | 5.4% | 624.1hPa | 2.6V | 08:06:00 | 02:23:49 | 00:00:00 | |
| OE5HKT-10 | 2026-08-31 12:53:08 | 48.74069 | 13.10144 | 77° | 73km/h | 4107m | -8.0m/s | -1.6°C | 4.5% | 622.3hPa | 2.6V | 00:00:00 | 00:00:00 | 00:00:00 | |
| OE5MMP-10 | 2026-08-31 12:53:05 | 48.74056 | 13.10062 | 76° | 73km/h | 4132m | -8.1m/s | -1.6°C | 4.4% | 620.3hPa | 2.5V | 00:00:00 | 02:23:43 | 00:00:00 | |
| OE5DXL-15 | 2026-08-31 12:53:02 | 48.74042 | 13.09981 | 76° | 73km/h | 4157m | -8.5m/s | -1.6°C | 6.1% | 618.4hPa | 2.5V | 00:00:00 | 00:00:00 | 00:00:00 | |
| DL6DJ-15 | 2026-08-31 12:52:51 | 48.73992 | 13.09631 | 79° | 71km/h | 4266m | -8.2m/s | -2.3°C | 9.1% | 609.8hPa | 2.5V | 00:00:00 | 00:00:00 | 00:00:00 | |
| DO3MHA-11 | 2026-08-31 12:52:43 | 48.73972 | 13.09468 | 81° | 73km/h | 4316m | -8.4m/s | -2.5°C | 9.7% | 606.0hPa | 2.5V | 00:00:00 | 02:23:21 | 00:00:00 | |
| OE5FHM-15 | 2026-08-31 12:52:41 | 48.73966 | 13.09413 | 82° | 73km/h | 4333m | -8.2m/s | -2.6°C | 9.7% | 604.7hPa | 2.5V | 00:00:00 | 02:23:19 | 00:00:00 | |
| OE5WHR-10 | 2026-08-31 12:52:39 | 48.73960 | 13.09358 | 82° | 73km/h | 4349m | -7.6m/s | -2.7°C | 9.7% | 603.5hPa | 2.5V | 00:00:00 | 02:23:17 | 00:00:00 | |
| OE5HKT-10 | 2026-08-31 12:52:34 | 48.73946 | 13.09220 | 81° | 73km/h | 4389m | -8.1m/s | -2.9°C | 9.8% | 600.3hPa | 2.5V | 00:00:00 | 02:23:12 | 00:00:00 | |
| DO3MHA-11 | 2026-08-31 12:52:32 | 48.73940 | 13.09164 | 81° | 73km/h | 4406m | -8.4m/s | -3.1°C | 9.9% | 599.2hPa | 2.5V | 00:00:00 | 02:23:10 | 00:00:00 | |
| OE5MMP-10 | 2026-08-31 12:52:27 | 48.73924 | 13.09024 | 80° | 73km/h | 4448m | -9.3m/s | -3.4°C | 10.0% | 596.0hPa | 2.5V | 00:00:00 | 02:23:05 | 00:00:00 | |
| DO3MHA-11 | 2026-08-31 12:52:25 | 48.73918 | 13.08969 | 81° | 73km/h | 4467m | -9.5m/s | -3.5°C | 10.0% | 594.6hPa | 2.6V | 00:00:00 | 02:23:03 | 00:00:00 | |
| OE5DRO-10 | 2026-08-31 12:52:23 | 48.73911 | 13.08913 | 81° | 73km/h | 4486m | -8.8m/s | -3.7°C | 10.0% | 593.2hPa | 2.6V | 00:00:00 | 00:00:00 | 00:00:00 | |
| OE5WHR-10 | 2026-08-31 12:52:22 | 48.73908 | 13.08885 | 79° | 69km/h | 4495m | -8.9m/s | -3.7°C | 10.0% | 592.5hPa | 2.5V | 00:00:00 | 00:00:00 | 00:00:00 | |
| DO3MHA-11 | 2026-08-31 12:52:20 | 48.73900 | 13.08830 | 78° | 71km/h | 4513m | -10.1m/s | -3.6°C | 9.2% | 591.2hPa | 2.5V | 08:07:00 | 02:22:58 | 00:00:00 | |
| OE5HKT-10 | 2026-08-31 12:52:18 | 48.73889 | 13.08750 | 79° | 71km/h | 4550m | -13.4m/s | -3.8°C | 8.4% | 588.5hPa | 2.6V | 08:07:00 | 00:00:00 | 00:00:00 | |
| DO3MHA-11 | 2026-08-31 12:52:15 | 48.73881 | 13.08696 | 77° | 73km/h | 4577m | -13.6m/s | -3.9°C | 11.5% | 586.6hPa | 2.6V | 00:00:00 | 02:22:53 | 00:00:00 | |
| OE5FHM-15 | 2026-08-31 12:52:11 | 48.73863 | 13.08589 | 76° | 69km/h | 4628m | -13.8m/s | -4.3°C | 13.0% | 582.8hPa | 2.6V | 00:00:00 | 02:22:49 | 00:00:00 | |
| DO3MHA-11 | 2026-08-31 12:52:10 | 48.73859 | 13.08563 | 75° | 71km/h | 4642m | -13.9m/s | -4.3°C | 12.1% | 581.8hPa | 2.6V | 00:00:00 | 02:22:48 | 00:00:00 | |
| OE5MMP-10 | 2026-08-31 12:52:07 | 48.73844 | 13.08484 | 74° | 69km/h | 4684m | -14.4m/s | -4.6°C | 11.3% | 578.7hPa | 2.6V | 00:00:00 | 02:22:45 | 00:00:00 | |
| PG1ADW-2 | 2026-08-31 12:52:06 | 48.73838 | 13.08459 | 73° | 69km/h | 4698m | -14.4m/s | -4.6°C | 10.8% | 577.6hPa | 2.6V | 00:00:00 | 02:22:44 | 00:00:00 | |
| DO3MHA-11 | 2026-08-31 12:52:05 | 48.73833 | 13.08434 | 73° | 69km/h | 4712m | -13.1m/s | -4.6°C | 10.6% | 576.7hPa | 2.6V | 00:00:00 | 02:22:43 | 00:00:00 | |
| OE5DXL-15 | 2026-08-31 12:52:02 | 48.73816 | 13.08358 | 70° | 69km/h | 4752m | -13.8m/s | -4.8°C | 9.9% | 573.7hPa | 2.5V | 00:00:00 | 00:00:00 | 00:00:00 | |
| DO3MHA-11 | 2026-08-31 12:52:00 | 48.73804 | 13.08308 | 70° | 69km/h | 4780m | -13.2m/s | -4.9°C | 10.9% | 571.8hPa | 2.5V | 00:00:00 | 02:22:38 | 00:00:00 | |
| OE5HKT-10 | 2026-08-31 12:51:59 | 48.73798 | 13.08284 | 70° | 69km/h | 4793m | -13.9m/s | -4.9°C | 10.5% | 570.8hPa | 2.5V | 00:00:00 | 00:00:00 | 00:00:00 | |
| DO3MHA-11 | 2026-08-31 12:51:55 | 48.73772 | 13.08184 | 68° | 69km/h | 4850m | -15.0m/s | -5.4°C | 10.8% | 566.7hPa | 2.5V | 00:00:00 | 02:22:33 | 00:00:00 | |
| OE5MMP-10 | 2026-08-31 12:51:53 | 48.73758 | 13.08136 | 66° | 69km/h | 4879m | -14.4m/s | -5.7°C | 11.0% | 564.5hPa | 2.5V | 00:00:00 | 02:22:31 | 00:00:00 | |
| OE5DRO-10 | 2026-08-31 12:51:51 | 48.73744 | 13.08087 | 68° | 69km/h | 4908m | -15.2m/s | -5.9°C | 11.0% | 562.6hPa | 2.5V | 00:00:00 | 00:00:00 | 00:00:00 | |
| DO3MHA-11 | 2026-08-31 12:51:50 | 48.73737 | 13.08062 | 68° | 69km/h | 4923m | -14.8m/s | -5.9°C | 11.2% | 561.4hPa | 2.5V | 00:00:00 | 02:22:28 | 00:00:00 | |
| OE5WHR-10 | 2026-08-31 12:51:49 | 48.73730 | 13.08037 | 68° | 69km/h | 4938m | -14.4m/s | -6.1°C | 11.5% | 560.4hPa | 2.6V | 00:00:00 | 00:00:00 | 00:00:00 | |
| DO3MHA-11 | 2026-08-31 12:51:46 | 48.73703 | 13.07939 | 68° | 68km/h | 4992m | -12.1m/s | -6.6°C | 12.1% | 556.4hPa | 2.6V | 00:00:00 | 02:22:23 | 00:00:00 | |
| OE5HKT-10 | 2026-08-31 12:51:42 | 48.73682 | 13.07867 | 66° | 73km/h | 5033m | -13.6m/s | -6.9°C | 12.1% | 553.7hPa | 2.6V | 00:00:00 | 02:22:20 | 00:00:00 | |
| OE5FHM-15 | 2026-08-31 12:51:41 | 48.73675 | 13.07844 | 65° | 71km/h | 5047m | -13.0m/s | -7.0°C | 11.7% | 552.8hPa | 2.6V | 00:00:00 | 02:22:19 | 00:00:00 | |
| DO3MHA-11 | 2026-08-31 12:51:35 | 48.73629 | 13.07703 | 65° | 71km/h | 5127m | -14.7m/s | -7.6°C | 11.6% | 547.0hPa | 2.6V | 00:00:00 | 02:22:13 | 00:00:00 | |
| OE5MMP-10 | 2026-08-31 12:51:34 | 48.73621 | 13.07679 | 64° | 69km/h | 5141m | -14.4m/s | -7.8°C | 11.6% | 546.0hPa | 2.6V | 00:00:00 | 02:22:12 | 00:00:00 | |
| OE5WHR-10 | 2026-08-31 12:51:32 | 48.73605 | 13.07631 | 62° | 71km/h | 5168m | -12.1m/s | -8.0°C | 11.6% | 544.0hPa | 2.6V | 00:00:00 | 02:22:10 | 00:00:00 | |
| OE5DXL-15 | 2026-08-31 12:51:31 | 48.73588 | 13.07584 | 63° | 71km/h | 5194m | -13.6m/s | -8.2°C | 11.5% | 542.2hPa | 2.6V | 00:00:00 | 00:00:00 | 00:00:00 | |
| PG1ADW-2 | 2026-08-31 12:51:26 | 48.73555 | 13.07490 | 63° | 71km/h | 5246m | -13.2m/s | -8.7°C | 11.7% | 538.5hPa | 2.6V | 08:08:00 | 00:00:00 | 00:00:00 | |
| OE5MMP-10 | 2026-08-31 12:51:23 | 48.73529 | 13.07419 | 62° | 71km/h | 5285m | -13.0m/s | -9.0°C | 11.2% | 535.8hPa | 2.5V | 00:00:00 | 02:22:01 | 00:00:00 | |
| DO3MHA-11 | 2026-08-31 12:51:22 | 48.73521 | 13.07395 | 62° | 71km/h | 5298m | -13.3m/s | -9.1°C | 10.8% | 534.9hPa | 2.5V | 08:08:00 | 02:22:00 | 00:00:00 | |
| OE5DRO-10 | 2026-08-31 12:51:19 | 48.73495 | 13.07324 | 63° | 73km/h | 5338m | -13.0m/s | -9.5°C | 10.8% | 532.1hPa | 2.6V | 00:00:00 | 00:00:00 | 00:00:00 | |
| DL6DJ-15 | 2026-08-31 12:51:16 | 48.73469 | 13.07250 | 62° | 73km/h | 5379m | -12.7m/s | -9.9°C | 10.9% | 529.2hPa | 2.6V | 00:00:00 | 00:00:00 | 00:00:00 | |
| OE5WHR-10 | 2026-08-31 12:51:15 | 48.73461 | 13.07225 | 63° | 73km/h | 5392m | -12.8m/s | -10.0°C | 11.2% | 528.4hPa | 2.6V | 00:00:00 | 00:00:00 | 00:00:00 | |
| OE5MMP-10 | 2026-08-31 12:51:13 | 48.73443 | 13.07178 | 62° | 73km/h | 5419m | -13.9m/s | -10.2°C | 11.0% | 526.6hPa | 2.5V | 00:00:00 | 02:21:51 | 00:00:00 | |
| DO3MHA-11 | 2026-08-31 12:51:11 | 48.73427 | 13.07130 | 62° | 73km/h | 5446m | -14.4m/s | -10.5°C | 10.9% | 524.7hPa | 2.5V | 00:00:00 | 02:21:49 | 00:00:00 | |
| PG1ADW-2 | 2026-08-31 12:51:06 | 48.73382 | 13.07007 | 61° | 77km/h | 5516m | -14.7m/s | -10.9°C | 10.4% | 520.1hPa | 2.5V | 00:00:00 | 00:00:00 | 00:00:00 | |
| OE5DRO-10 | 2026-08-31 12:51:04 | 48.73355 | 13.06933 | 59° | 77km/h | 5557m | -12.8m/s | -11.3°C | 10.8% | 517.4hPa | 2.5V | 00:00:00 | 00:00:00 | 00:00:00 | |
| OE5MMP-10 | 2026-08-31 12:51:03 | 48.73355 | 13.06933 | 59° | 75km/h | 5557m | -12.8m/s | -11.3°C | 10.8% | 517.4hPa | 2.5V | 08:08:00 | 02:21:41 | 00:00:00 | |
| OE5DXL-15 | 2026-08-31 12:51:02 | 48.73345 | 13.06909 | 60° | 77km/h | 5569m | -12.2m/s | -11.4°C | 11.0% | 516.4hPa | 2.5V | 08:08:00 | 00:00:00 | 00:00:00 | |
| DO3MHA-11 | 2026-08-31 12:51:01 | 48.73336 | 13.06885 | 61° | 75km/h | 5581m | -12.4m/s | -11.5°C | 11.0% | 515.6hPa | 2.6V | 00:00:00 | 02:21:39 | 00:00:00 | |
| OE5WHR-10 | 2026-08-31 12:50:54 | 48.73267 | 13.06711 | 58° | 77km/h | 5672m | -12.0m/s | -12.4°C | 11.5% | 509.5hPa | 2.6V | 00:00:00 | 00:00:00 | 00:00:00 | |
| OE5MMP-10 | 2026-08-31 12:50:53 | 48.73257 | 13.06686 | 59° | 77km/h | 5684m | -12.6m/s | -12.5°C | 11.6% | 508.7hPa | 2.6V | 00:00:00 | 02:21:31 | 00:00:00 | |
| DO3MHA-11 | 2026-08-31 12:50:51 | 48.73237 | 13.06636 | 59° | 77km/h | 5709m | -13.1m/s | -12.8°C | 11.9% | 507.0hPa | 2.6V | 00:00:00 | 02:21:29 | 00:00:00 | |
| OE5MMP-10 | 2026-08-31 12:50:43 | 48.73155 | 13.06436 | 58° | 77km/h | 5810m | -12.2m/s | -13.7°C | 14.0% | 500.1hPa | 2.5V | 00:00:00 | 02:21:21 | 00:00:00 | |
| DO3MHA-11 | 2026-08-31 12:50:41 | 48.73134 | 13.06386 | 60° | 77km/h | 5835m | -12.3m/s | -13.9°C | 14.9% | 498.4hPa | 2.5V | 00:00:00 | 02:21:19 | 00:00:00 | |
| OE5WHR-10 | 2026-08-31 12:50:33 | 48.73054 | 13.06182 | 61° | 75km/h | 5936m | -12.9m/s | -14.8°C | 17.5% | 492.0hPa | 2.5V | 00:00:00 | 02:21:11 | 00:00:00 | |
| OE5DXL-15 | 2026-08-31 12:50:32 | 48.73045 | 13.06157 | 62° | 75km/h | 5949m | -14.5m/s | -15.0°C | 17.6% | 491.2hPa | 2.5V | 00:00:00 | 00:00:00 | 00:00:00 | |
| DO3MHA-11 | 2026-08-31 12:50:31 | 48.73035 | 13.06131 | 62° | 75km/h | 5963m | -13.8m/s | -15.1°C | 18.1% | 490.3hPa | 2.5V | 00:00:00 | 02:21:09 | 00:00:00 | |
| PG1ADW-2 | 2026-08-31 12:50:26 | 48.72990 | 13.06004 | 64° | 75km/h | 6028m | -12.5m/s | -15.7°C | 20.0% | 486.1hPa | 2.5V | 00:00:00 | 00:00:00 | 00:00:00 | |
| OE5DRO-10 | 2026-08-31 12:50:25 | 48.72981 | 13.05979 | 63° | 75km/h | 6041m | -12.6m/s | -15.9°C | 20.4% | 485.2hPa | 2.5V | 00:00:00 | 00:00:00 | 00:00:00 | |
| OE5HKT-10 | 2026-08-31 12:50:24 | 48.72972 | 13.05954 | 63° | 89km/h | 6053m | -11.8m/s | -16.0°C | 20.8% | 484.3hPa | 2.5V | 00:00:00 | 00:00:00 | 00:00:00 | |
| OE5MMP-10 | 2026-08-31 12:50:23 | 48.72964 | 13.05929 | 63° | 75km/h | 6065m | -12.5m/s | -16.1°C | 21.1% | 483.6hPa | 2.6V | 00:00:00 | 02:21:01 | 00:00:00 | |
| DO3MHA-11 | 2026-08-31 12:50:21 | 48.72946 | 13.05877 | 64° | 75km/h | 6089m | -12.7m/s | -16.3°C | 21.5% | 482.0hPa | 2.6V | 00:00:00 | 02:20:59 | 00:00:00 | |
| DL6DJ-15 | 2026-08-31 12:50:14 | 48.72889 | 13.05694 | 65° | 73km/h | 6176m | -12.3m/s | -17.0°C | 20.5% | 476.5hPa | 2.5V | 00:00:00 | 00:00:00 | 00:00:00 | |
| OE5MMP-10 | 2026-08-31 12:50:13 | 48.72881 | 13.05669 | 66° | 75km/h | 6188m | -11.7m/s | -17.1°C | 21.3% | 475.6hPa | 2.5V | 00:00:00 | 02:20:51 | 00:00:00 | |
| OE5WHR-10 | 2026-08-31 12:50:12 | 48.72873 | 13.05642 | 66° | 77km/h | 6201m | -14.1m/s | -17.2°C | 21.2% | 474.9hPa | 2.5V | 08:09:00 | 00:00:00 | 00:00:00 | |
| OE5REO-15 | 2026-08-31 12:50:11 | 48.72865 | 13.05616 | 67° | 77km/h | 6215m | -14.3m/s | -17.3°C | 20.3% | 474.1hPa | 2.5V | 08:09:00 | 00:00:00 | 00:00:00 | |
| PG1ADW-2 | 2026-08-31 12:50:06 | 48.72825 | 13.05485 | 66° | 78km/h | 6281m | -13.7m/s | -17.6°C | 18.3% | 469.8hPa | 2.5V | 00:00:00 | 00:00:00 | 00:00:00 | |
| OE5MMP-10 | 2026-08-31 12:50:03 | 48.72800 | 13.05406 | 65° | 78km/h | 6321m | -12.0m/s | -17.9°C | 17.9% | 467.4hPa | 2.5V | 00:00:00 | 02:20:41 | 00:00:00 | |
| OE5DXL-15 | 2026-08-31 12:50:02 | 48.72792 | 13.05380 | 64° | 82km/h | 6334m | -13.0m/s | -18.0°C | 18.1% | 466.6hPa | 2.5V | 00:00:00 | 00:00:00 | 00:00:00 | |
| DO3MHA-11 | 2026-08-31 12:50:01 | 48.72783 | 13.05354 | 63° | 80km/h | 6347m | -13.2m/s | -18.1°C | 18.5% | 465.7hPa | 2.5V | 00:00:00 | 02:20:39 | 00:00:00 | |
| OE5FHM-15 | 2026-08-31 12:49:55 | 48.72728 | 13.05195 | 63° | 84km/h | 6429m | -13.0m/s | -18.6°C | 19.0% | 460.6hPa | 2.5V | 00:00:00 | 02:20:33 | 00:00:00 | |
| OE5MMP-10 | 2026-08-31 12:49:53 | 48.72709 | 13.05140 | 64° | 82km/h | 6456m | -14.2m/s | -18.7°C | 17.9% | 459.0hPa | 2.5V | 00:00:00 | 02:20:31 | 00:00:00 | |
| OE5WHR-10 | 2026-08-31 12:49:51 | 48.72690 | 13.05084 | 64° | 84km/h | 6483m | -12.6m/s | -18.8°C | 17.1% | 457.3hPa | 2.5V | 00:00:00 | 00:00:00 | 00:00:00 | |
| DO3MHA-11 | 2026-08-31 12:49:50 | 48.72681 | 13.05056 | 64° | 84km/h | 6496m | -13.0m/s | -18.9°C | 16.4% | 456.6hPa | 2.5V | 08:09:00 | 02:20:28 | 00:00:00 | |
| OE5DRO-10 | 2026-08-31 12:49:47 | 48.72653 | 13.04971 | 65° | 88km/h | 6535m | -11.8m/s | -19.0°C | 12.6% | 454.0hPa | 2.6V | 00:00:00 | 00:00:00 | 00:00:00 | |
| PG1ADW-2 | 2026-08-31 12:49:46 | 48.72644 | 13.04942 | 65° | 86km/h | 6547m | -12.4m/s | -19.1°C | 12.4% | 453.3hPa | 2.5V | 00:00:00 | 00:00:00 | 00:00:00 | |
| OE5MMP-10 | 2026-08-31 12:49:43 | 48.72615 | 13.04856 | 64° | 86km/h | 6586m | -13.9m/s | -19.3°C | 13.8% | 450.9hPa | 2.5V | 00:00:00 | 02:20:21 | 00:00:00 | |
| DO3MHA-11 | 2026-08-31 12:49:40 | 48.72587 | 13.04769 | 65° | 86km/h | 6626m | -12.9m/s | -19.6°C | 17.9% | 448.6hPa | 2.5V | 00:00:00 | 02:20:18 | 00:00:00 | |
| OE5REO-15 | 2026-08-31 12:49:37 | 48.72568 | 13.04711 | 65° | 84km/h | 6652m | -12.4m/s | -19.9°C | 15.4% | 447.1hPa | 2.5V | 08:09:00 | 00:00:00 | 00:00:00 | |
| OE5MMP-10 | 2026-08-31 12:49:33 | 48.72520 | 13.04564 | 64° | 88km/h | 6716m | -13.1m/s | -20.2°C | 18.1% | 443.3hPa | 2.5V | 08:10:00 | 02:20:11 | 00:00:00 | |
| OE5DXL-15 | 2026-08-31 12:49:32 | 48.72510 | 13.04534 | 64° | 88km/h | 6730m | -13.7m/s | -20.3°C | 18.1% | 442.5hPa | 2.5V | 00:00:00 | 00:00:00 | 00:00:00 | |
| OE5WHR-10 | 2026-08-31 12:49:30 | 48.72490 | 13.04476 | 63° | 88km/h | 6758m | -13.9m/s | -20.4°C | 17.6% | 440.9hPa | 2.6V | 00:00:00 | 02:20:08 | 00:00:00 | |
| PG1ADW-2 | 2026-08-31 12:49:26 | 48.72451 | 13.04359 | 64° | 89km/h | 6810m | -13.8m/s | -20.7°C | 15.9% | 437.7hPa | 2.6V | 00:00:00 | 02:20:04 | 00:00:00 | |
| OE5FHM-15 | 2026-08-31 12:49:25 | 48.72441 | 13.04329 | 64° | 89km/h | 6824m | -13.8m/s | -20.7°C | 15.4% | 436.8hPa | 2.5V | 00:00:00 | 02:20:03 | 00:00:00 | |
| OE5MMP-10 | 2026-08-31 12:49:23 | 48.72421 | 13.04268 | 64° | 88km/h | 6851m | -13.1m/s | -20.9°C | 14.9% | 435.2hPa | 2.5V | 00:00:00 | 02:20:01 | 00:00:00 | |
| OE5REO-15 | 2026-08-31 12:49:21 | 48.72411 | 13.04238 | 63° | 88km/h | 6864m | -12.9m/s | -21.0°C | 13.7% | 434.5hPa | 2.5V | 00:00:00 | 00:00:00 | 00:00:00 | |
| OE5DRO-10 | 2026-08-31 12:49:18 | 48.72371 | 13.04118 | 63° | 95km/h | 6919m | -13.6m/s | -21.2°C | 10.9% | 431.3hPa | 2.5V | 00:00:00 | 00:00:00 | 00:00:00 | |
| OE5MMP-10 | 2026-08-31 12:49:13 | 48.72318 | 13.03970 | 62° | 89km/h | 6985m | -11.8m/s | -21.8°C | 11.0% | 427.3hPa | 2.5V | 00:00:00 | 02:19:51 | 00:00:00 | |
| DO3MHA-11 | 2026-08-31 12:49:12 | 48.72308 | 13.03940 | 64° | 89km/h | 6998m | -13.8m/s | -21.9°C | 11.3% | 426.5hPa | 2.5V | 00:00:00 | 02:19:50 | 00:00:00 | |
| OE5WHR-10 | 2026-08-31 12:49:09 | 48.72277 | 13.03848 | 64° | 91km/h | 7040m | -14.4m/s | -22.2°C | 10.4% | 424.2hPa | 2.5V | 00:00:00 | 00:00:00 | 00:00:00 | |
| PG1ADW-2 | 2026-08-31 12:49:06 | 48.72246 | 13.03755 | 63° | 91km/h | 7081m | -12.9m/s | -22.5°C | 10.6% | 421.8hPa | 2.5V | 00:00:00 | 00:00:00 | 00:00:00 | |
| OE5MMP-10 | 2026-08-31 12:49:03 | 48.72215 | 13.03664 | 64° | 91km/h | 7120m | -13.4m/s | -22.8°C | 12.2% | 419.5hPa | 2.5V | 00:00:00 | 02:19:41 | 00:00:00 | |
| DO3MHA-11 | 2026-08-31 12:49:02 | 48.72205 | 13.03634 | 65° | 91km/h | 7134m | -13.9m/s | -23.0°C | 12.2% | 418.7hPa | 2.5V | 00:00:00 | 02:19:40 | 00:00:00 | |
| OE5FHM-15 | 2026-08-31 12:48:55 | 48.72135 | 13.03417 | 65° | 93km/h | 7227m | -14.3m/s | -23.8°C | 11.7% | 413.4hPa | 2.6V | 00:00:00 | 02:19:33 | 00:00:00 | |
| OE5MMP-10 | 2026-08-31 12:48:53 | 48.72115 | 13.03353 | 65° | 91km/h | 7254m | -13.7m/s | -24.0°C | 12.0% | 411.9hPa | 2.6V | 00:00:00 | 02:19:31 | 00:00:00 | |
| DO3MHA-11 | 2026-08-31 12:48:52 | 48.72104 | 13.03321 | 65° | 91km/h | 7268m | -13.9m/s | -24.1°C | 12.1% | 411.1hPa | 2.6V | 00:00:00 | 02:19:30 | 00:00:00 | |
| OE5REO-15 | 2026-08-31 12:48:50 | 48.72094 | 13.03289 | 65° | 93km/h | 7282m | -13.4m/s | -24.3°C | 11.3% | 410.3hPa | 2.6V | 00:00:00 | 00:00:00 | 00:00:00 | |
| OE5WHR-10 | 2026-08-31 12:48:48 | 48.72064 | 13.03195 | 65° | 93km/h | 7321m | -13.2m/s | -24.5°C | 12.0% | 408.1hPa | 2.6V | 00:00:00 | 00:00:00 | 00:00:00 | |
| PG1ADW-2 | 2026-08-31 12:48:46 | 48.72043 | 13.03132 | 64° | 95km/h | 7348m | -13.5m/s | -24.7°C | 11.3% | 406.6hPa | 2.6V | 00:00:00 | 00:00:00 | 00:00:00 | |
| DO3MHA-11 | 2026-08-31 12:48:42 | 48.72002 | 13.03006 | 64° | 95km/h | 7403m | -14.0m/s | -25.1°C | 10.1% | 403.4hPa | 2.6V | 00:00:00 | 02:19:20 | 00:00:00 | |
| DL6DJ-15 | 2026-08-31 12:48:41 | 48.71991 | 13.02975 | 63° | 93km/h | 7417m | -14.6m/s | -25.3°C | 9.0% | 402.8hPa | 2.6V | 00:00:00 | 00:00:00 | 00:00:00 | |
| OE5MMP-10 | 2026-08-31 12:48:33 | 48.71905 | 13.02716 | 64° | 97km/h | 7527m | -13.2m/s | -26.0°C | 9.8% | 396.6hPa | 2.6V | 00:00:00 | 02:19:11 | 00:00:00 | |
| OE5DXL-15 | 2026-08-31 12:48:32 | 48.71894 | 13.02684 | 65° | 99km/h | 7540m | -13.6m/s | -26.1°C | 9.7% | 395.9hPa | 2.5V | 00:00:00 | 00:00:00 | 00:00:00 | |
| DO3MHA-11 | 2026-08-31 12:48:30 | 48.71872 | 13.02618 | 63° | 97km/h | 7568m | -14.0m/s | -26.2°C | 9.6% | 394.3hPa | 2.5V | 00:00:00 | 02:19:08 | 00:00:00 | |
| OE5REO-15 | 2026-08-31 12:48:29 | 48.71872 | 13.02618 | 64° | 95km/h | 7568m | -14.1m/s | -26.3°C | 8.7% | 394.4hPa | 2.6V | 00:00:00 | 00:00:00 | 00:00:00 | |
| OE5WHR-10 | 2026-08-31 12:48:27 | 48.71840 | 13.02519 | 65° | 99km/h | 7611m | -14.1m/s | -26.4°C | 8.9% | 392.0hPa | 2.6V | 00:00:00 | 02:19:05 | 00:00:00 | |
| PG1ADW-2 | 2026-08-31 12:48:26 | 48.71829 | 13.02486 | 65° | 99km/h | 7625m | -14.1m/s | -26.5°C | 8.8% | 391.2hPa | 2.6V | 08:11:00 | 00:00:00 | 00:00:00 | |
| OE5FHM-15 | 2026-08-31 12:48:25 | 48.71819 | 13.02452 | 65° | 99km/h | 7639m | -14.5m/s | -26.6°C | 8.8% | 390.5hPa | 2.5V | 08:11:00 | 02:19:03 | 00:00:00 | |
| OE5MMP-10 | 2026-08-31 12:48:23 | 48.71797 | 13.02384 | 66° | 99km/h | 7667m | -13.6m/s | -26.8°C | 8.7% | 389.0hPa | 2.5V | 00:00:00 | 02:19:01 | 00:00:00 | |
| DO3MHA-11 | 2026-08-31 12:48:20 | 48.71767 | 13.02282 | 67° | 99km/h | 7708m | -12.1m/s | -27.1°C | 8.5% | 386.8hPa | 2.5V | 00:00:00 | 02:18:58 | 00:00:00 | |
| OE5DRO-10 | 2026-08-31 12:48:16 | 48.71727 | 13.02144 | 67° | 99km/h | 7761m | -13.7m/s | -27.5°C | 8.7% | 384.0hPa | 2.5V | 00:00:00 | 00:00:00 | 00:00:00 | |
| OE5MMP-10 | 2026-08-31 12:48:13 | 48.71696 | 13.02039 | 67° | 99km/h | 7803m | -13.8m/s | -27.8°C | 8.7% | 381.8hPa | 2.5V | 00:00:00 | 02:18:51 | 00:00:00 | |
| OE5HKT-10 | 2026-08-31 12:48:11 | 48.71675 | 13.01970 | 67° | 99km/h | 7832m | -14.0m/s | -28.0°C | 8.5% | 380.4hPa | 2.5V | 00:00:00 | 00:00:00 | 00:00:00 | |
| DO3MHA-11 | 2026-08-31 12:48:10 | 48.71665 | 13.01935 | 67° | 99km/h | 7845m | -13.7m/s | -28.1°C | 8.4% | 379.5hPa | 2.5V | 00:00:00 | 02:18:48 | 00:00:00 | |
| OE5WHR-10 | 2026-08-31 12:48:06 | 48.71625 | 13.01797 | 67° | 99km/h | 7901m | -13.5m/s | -28.6°C | 8.5% | 376.5hPa | 2.5V | 00:00:00 | 00:00:00 | 00:00:00 | |
| OE5MMP-10 | 2026-08-31 12:48:03 | 48.71594 | 13.01693 | 66° | 99km/h | 7940m | -14.2m/s | -28.9°C | 8.3% | 374.6hPa | 2.6V | 08:11:00 | 02:18:41 | 00:00:00 | |
| OE5DXL-15 | 2026-08-31 12:48:02 | 48.71584 | 13.01659 | 67° | 99km/h | 7954m | -13.8m/s | -28.9°C | 8.2% | 373.8hPa | 2.6V | 00:00:00 | 00:00:00 | 00:00:00 | |
| DO3MHA-11 | 2026-08-31 12:48:00 | 48.71564 | 13.01591 | 65° | 99km/h | 7981m | -12.9m/s | -29.0°C | 8.3% | 372.3hPa | 2.5V | 08:11:00 | 02:18:38 | 00:00:00 | |
| OE5DRO-10 | 2026-08-31 12:47:57 | 48.71532 | 13.01487 | 66° | 99km/h | 8019m | -12.4m/s | -29.2°C | 8.4% | 370.3hPa | 2.6V | 08:11:00 | 00:00:00 | 00:00:00 | |
| OE5FHM-15 | 2026-08-31 12:47:55 | 48.71511 | 13.01418 | 65° | 99km/h | 8045m | -12.9m/s | -29.5°C | 8.7% | 368.9hPa | 2.5V | 00:00:00 | 02:18:33 | 00:00:00 | |
| OE5MMP-10 | 2026-08-31 12:47:53 | 48.71490 | 13.01349 | 67° | 99km/h | 8071m | -13.0m/s | -29.7°C | 8.9% | 367.6hPa | 2.5V | 00:00:00 | 02:18:31 | 00:00:00 | |
| DO3MHA-11 | 2026-08-31 12:47:50 | 48.71459 | 13.01247 | 65° | 99km/h | 8109m | -13.1m/s | -30.0°C | 9.0% | 365.5hPa | 2.5V | 00:00:00 | 02:18:28 | 00:00:00 | |
| PG1ADW-2 | 2026-08-31 12:47:46 | 48.71418 | 13.01111 | 66° | 99km/h | 8164m | -14.0m/s | -30.5°C | 9.2% | 362.8hPa | 2.5V | 00:00:00 | 00:00:00 | 00:00:00 | |
| OE5WHR-10 | 2026-08-31 12:47:45 | 48.71408 | 13.01078 | 67° | 99km/h | 8178m | -15.3m/s | -30.6°C | 9.3% | 362.0hPa | 2.5V | 00:00:00 | 00:00:00 | 00:00:00 | |
| OE5MMP-10 | 2026-08-31 12:47:43 | 48.71388 | 13.01010 | 66° | 99km/h | 8209m | -15.6m/s | -30.9°C | 9.8% | 360.6hPa | 2.5V | 00:00:00 | 02:18:21 | 00:00:00 | |
| DO3MHA-11 | 2026-08-31 12:47:40 | 48.71357 | 13.00906 | 66° | 99km/h | 8253m | -13.5m/s | -31.3°C | 10.7% | 358.2hPa | 2.5V | 00:00:00 | 02:18:18 | 00:00:00 | |
| DL6DJ-15 | 2026-08-31 12:47:39 | 48.71346 | 13.00871 | 65° | 99km/h | 8267m | -14.6m/s | -31.5°C | 9.7% | 357.7hPa | 2.5V | 00:00:00 | 00:00:00 | 00:00:00 | |
| OE5DRO-10 | 2026-08-31 12:47:38 | 48.71336 | 13.00837 | 65° | 99km/h | 8282m | -14.9m/s | -31.5°C | 11.1% | 356.8hPa | 2.5V | 00:00:00 | 00:00:00 | 00:00:00 | |
| OE5MMP-10 | 2026-08-31 12:47:34 | 48.71282 | 13.00670 | 64° | 99km/h | 8352m | -14.4m/s | -32.2°C | 12.1% | 353.2hPa | 2.5V | 00:00:00 | 02:18:11 | 00:00:00 | |
| OE5DXL-15 | 2026-08-31 12:47:31 | 48.71262 | 13.00603 | 66° | 102km/h | 8380m | -14.0m/s | -32.5°C | 12.4% | 351.7hPa | 2.6V | 00:00:00 | 00:00:00 | 00:00:00 | |
| DO3MHA-11 | 2026-08-31 12:47:30 | 48.71251 | 13.00569 | 65° | 100km/h | 8395m | -15.5m/s | -32.6°C | 12.5% | 351.1hPa | 2.6V | 00:00:00 | 02:18:08 | 00:00:00 | |
| PG1ADW-2 | 2026-08-31 12:47:26 | 48.71207 | 13.00432 | 65° | 100km/h | 8456m | -14.6m/s | -33.1°C | 12.4% | 348.1hPa | 2.5V | 00:00:00 | 00:00:00 | 00:00:00 | |
| OE5FHM-15 | 2026-08-31 12:47:25 | 48.71197 | 13.00397 | 65° | 104km/h | 8471m | -15.0m/s | -33.3°C | 12.0% | 347.3hPa | 2.6V | 00:00:00 | 02:18:03 | 00:00:00 | |
| OE5WHR-10 | 2026-08-31 12:47:24 | 48.71186 | 13.00362 | 65° | 104km/h | 8486m | -14.7m/s | -33.4°C | 11.7% | 346.6hPa | 2.6V | 00:00:00 | 02:18:02 | 00:00:00 | |
| OE5MMP-10 | 2026-08-31 12:47:23 | 48.71175 | 13.00327 | 65° | 102km/h | 8500m | -14.5m/s | -33.5°C | 11.1% | 345.8hPa | 2.6V | 00:00:00 | 02:18:01 | 00:00:00 | |
| DO3MHA-11 | 2026-08-31 12:47:20 | 48.71142 | 13.00221 | 65° | 102km/h | 8542m | -13.8m/s | -33.8°C | 9.8% | 343.7hPa | 2.6V | 00:00:00 | 02:17:58 | 00:00:00 | |
| OE5DRO-10 | 2026-08-31 12:47:19 | 48.71131 | 13.00186 | 66° | 106km/h | 8555m | -13.2m/s | -33.9°C | 9.5% | 343.0hPa | 2.6V | 00:00:00 | 00:00:00 | 00:00:00 | |
| OE5HKT-10 | 2026-08-31 12:47:18 | 48.71121 | 13.00151 | 66° | 104km/h | 8569m | -13.7m/s | -34.1°C | 9.2% | 342.3hPa | 2.6V | 00:00:00 | 00:00:00 | 00:00:00 | |
| OE5MMP-10 | 2026-08-31 12:47:13 | 48.71067 | 12.99973 | 67° | 106km/h | 8639m | -14.6m/s | -34.5°C | 8.0% | 339.0hPa | 2.6V | 00:00:00 | 02:17:51 | 00:00:00 | |
| DO3MHA-11 | 2026-08-31 12:47:10 | 48.71035 | 12.99864 | 66° | 106km/h | 8683m | -14.4m/s | -34.8°C | 7.5% | 336.9hPa | 2.6V | 00:00:00 | 02:17:48 | 00:00:00 | |
| DL6DJ-15 | 2026-08-31 12:47:08 | 48.71003 | 12.99753 | 66° | 106km/h | 8725m | -14.3m/s | -35.0°C | 6.1% | 334.8hPa | 2.6V | 00:00:00 | 00:00:00 | 00:00:00 | |
| OE5MMP-10 | 2026-08-31 12:47:03 | 48.70959 | 12.99604 | 67° | 110km/h | 8783m | -13.9m/s | -35.2°C | 7.5% | 332.0hPa | 2.6V | 00:00:00 | 02:17:41 | 00:00:00 | |
| OE5DXL-15 | 2026-08-31 12:47:02 | 48.70948 | 12.99566 | 67° | 113km/h | 8797m | -14.3m/s | -35.3°C | 7.7% | 331.3hPa | 2.5V | 00:00:00 | 00:00:00 | 00:00:00 | |
| DO3MHA-11 | 2026-08-31 12:47:00 | 48.70926 | 12.99491 | 66° | 110km/h | 8824m | -13.8m/s | -35.5°C | 8.0% | 330.0hPa | 2.5V | 00:00:00 | 02:17:38 | 00:00:00 | |
| OE5HKT-10 | 2026-08-31 12:46:57 | 48.70891 | 12.99377 | 65° | 141km/h | 8866m | -14.6m/s | -35.7°C | 8.4% | 328.0hPa | 2.6V | 00:00:00 | 00:00:00 | 00:00:00 | |
| OE5FHM-15 | 2026-08-31 12:46:55 | 48.70867 | 12.99301 | 65° | 115km/h | 8896m | -14.8m/s | -35.8°C | 8.5% | 326.6hPa | 2.6V | 00:00:00 | 02:17:33 | 00:00:00 | |
| OE5REO-15 | 2026-08-31 12:46:54 | 48.70867 | 12.99301 | 66° | 110km/h | 8896m | -14.9m/s | -35.9°C | 7.1% | 326.6hPa | 2.5V | 08:13:00 | 00:00:00 | 00:00:00 | |
| OE5MMP-10 | 2026-08-31 12:46:53 | 48.70843 | 12.99226 | 65° | 113km/h | 8925m | -14.1m/s | -36.1°C | 8.7% | 325.3hPa | 2.5V | 00:00:00 | 02:17:31 | 00:00:00 | |
| DO3MHA-11 | 2026-08-31 12:46:51 | 48.70805 | 12.99112 | 63° | 124km/h | 8965m | -13.5m/s | -36.3°C | 9.3% | 323.4hPa | 2.5V | 00:00:00 | 02:17:28 | 00:00:00 | |
| OE5MMP-10 | 2026-08-31 12:46:43 | 48.70712 | 12.98843 | 63° | 117km/h | 9064m | -14.1m/s | -36.9°C | 11.4% | 318.7hPa | 2.5V | 00:00:00 | 02:17:21 | 00:00:00 | |
| OE5WHR-10 | 2026-08-31 12:46:42 | 48.70699 | 12.98805 | 63° | 119km/h | 9078m | -13.9m/s | -37.0°C | 11.7% | 318.0hPa | 2.5V | 00:00:00 | 00:00:00 | 00:00:00 | |
| OE5DRO-10 | 2026-08-31 12:46:41 | 48.70657 | 12.98688 | 63° | 119km/h | 9121m | -14.5m/s | -37.3°C | 12.1% | 316.1hPa | 2.5V | 00:00:00 | 00:00:00 | 00:00:00 | |
| OE5REO-15 | 2026-08-31 12:46:38 | 48.70657 | 12.98688 | 63° | 117km/h | 9121m | -14.6m/s | -37.4°C | 10.4% | 316.1hPa | 2.5V | 08:13:00 | 00:00:00 | 00:00:00 | |
| DL6DJ-15 | 2026-08-31 12:46:37 | 48.70616 | 12.98568 | 63° | 115km/h | 9164m | -14.3m/s | -37.7°C | 10.8% | 314.2hPa | 2.5V | 00:00:00 | 00:00:00 | 00:00:00 | |
| OE5MMP-10 | 2026-08-31 12:46:33 | 48.70575 | 12.98448 | 63° | 119km/h | 9202m | -11.3m/s | -37.9°C | 13.2% | 312.2hPa | 2.5V | 08:13:00 | 02:17:11 | 00:00:00 | |
| OE5DXL-15 | 2026-08-31 12:46:32 | 48.70562 | 12.98408 | 63° | 124km/h | 9213m | -11.2m/s | -38.0°C | 13.5% | 311.7hPa | 2.5V | 08:13:00 | 00:00:00 | 00:00:00 | |
| OE5FHM-15 | 2026-08-31 12:46:25 | 48.70469 | 12.98125 | 65° | 128km/h | 9305m | -14.4m/s | -38.7°C | 17.5% | 307.8hPa | 2.5V | 00:00:00 | 02:17:03 | 00:00:00 | |
| OE5MMP-10 | 2026-08-31 12:46:23 | 48.70442 | 12.98044 | 64° | 122km/h | 9335m | -14.9m/s | -38.9°C | 18.2% | 306.6hPa | 2.5V | 00:00:00 | 02:17:01 | 00:00:00 | |
| OE5WHR-10 | 2026-08-31 12:46:21 | 48.70414 | 12.97962 | 64° | 128km/h | 9363m | -14.5m/s | -39.2°C | 18.7% | 305.2hPa | 2.5V | 00:00:00 | 02:16:59 | 00:00:00 | |
| OE5DRO-10 | 2026-08-31 12:46:17 | 48.70333 | 12.97713 | 65° | 131km/h | 9452m | -14.6m/s | -40.0°C | 18.9% | 301.3hPa | 2.5V | 00:00:00 | 00:00:00 | 00:00:00 | |
| OE5MMP-10 | 2026-08-31 12:46:13 | 48.70306 | 12.97627 | 65° | 131km/h | 9482m | -15.1m/s | -40.2°C | 18.8% | 300.0hPa | 2.5V | 00:00:00 | 02:16:51 | 00:00:00 | |
| OE5REO-15 | 2026-08-31 12:46:08 | 48.70249 | 12.97453 | 64° | 131km/h | 9543m | -15.3m/s | -40.5°C | 17.0% | 297.3hPa | 2.5V | 08:14:00 | 00:00:00 | 00:00:00 | |
| DL6DJ-15 | 2026-08-31 12:46:06 | 48.70192 | 12.97270 | 64° | 131km/h | 9605m | -15.1m/s | -40.9°C | 19.3% | 294.6hPa | 2.5V | 00:00:00 | 00:00:00 | 00:00:00 | |
| OE5MMP-10 | 2026-08-31 12:46:03 | 48.70164 | 12.97177 | 66° | 137km/h | 9636m | -15.2m/s | -41.1°C | 22.8% | 293.2hPa | 2.5V | 00:00:00 | 02:16:41 | 00:00:00 | |
| OE5DXL-15 | 2026-08-31 12:46:02 | 48.70149 | 12.97130 | 65° | 139km/h | 9651m | -16.1m/s | -41.2°C | 23.2% | 292.6hPa | 2.6V | 00:00:00 | 00:00:00 | 00:00:00 | |
| OE5WHR-10 | 2026-08-31 12:46:00 | 48.70121 | 12.97036 | 67° | 137km/h | 9684m | -16.3m/s | -41.4°C | 24.0% | 291.1hPa | 2.6V | 00:00:00 | 00:00:00 | 00:00:00 | |
| OE5DRO-10 | 2026-08-31 12:45:58 | 48.70094 | 12.96940 | 67° | 148km/h | 9717m | -16.7m/s | -41.7°C | 24.5% | 289.8hPa | 2.6V | 00:00:00 | 00:00:00 | 00:00:00 | |
| OE5FHM-15 | 2026-08-31 12:45:55 | 48.70053 | 12.96795 | 68° | 141km/h | 9767m | -16.4m/s | -42.1°C | 24.8% | 287.7hPa | 2.5V | 00:00:00 | 02:16:33 | 00:00:00 | |
| OE5MMP-10 | 2026-08-31 12:45:53 | 48.70027 | 12.96698 | 68° | 137km/h | 9800m | -16.7m/s | -42.4°C | 24.5% | 286.4hPa | 2.5V | 00:00:00 | 02:16:31 | 00:00:00 | |
| OE5REO-15 | 2026-08-31 12:45:52 | 48.70026 | 12.96698 | 68° | 137km/h | 9800m | -16.8m/s | -42.4°C | 21.6% | 286.5hPa | 2.5V | 08:14:00 | 00:00:00 | 00:00:00 | |
| OE5MMP-10 | 2026-08-31 12:45:43 | 48.69893 | 12.96217 | 68° | 139km/h | 9961m | -15.6m/s | -43.6°C | 24.2% | 279.7hPa | 2.5V | 00:00:00 | 02:16:21 | 00:00:00 | |
| DO3MHA-11 | 2026-08-31 12:45:39 | 48.69837 | 12.96026 | 67° | 142km/h | 10024m | -16.1m/s | -44.1°C | 25.7% | 277.0hPa | 2.5V | 00:00:00 | 02:16:17 | 00:00:00 | |
| OE5REO-15 | 2026-08-31 12:45:37 | 48.69823 | 12.95978 | 66° | 139km/h | 10040m | -15.8m/s | -44.2°C | 22.8% | 276.4hPa | 2.5V | 08:14:00 | 00:00:00 | 00:00:00 | |
| DL6DJ-15 | 2026-08-31 12:45:35 | 48.69762 | 12.95785 | 63° | 141km/h | 10104m | -16.8m/s | -44.6°C | 24.2% | 273.8hPa | 2.5V | 00:00:00 | 00:00:00 | 00:00:00 | |
| OE5MMP-10 | 2026-08-31 12:45:33 | 48.69746 | 12.95736 | 64° | 146km/h | 10121m | -16.7m/s | -44.6°C | 27.8% | 273.0hPa | 2.5V | 00:00:00 | 02:16:11 | 00:00:00 | |
| OE5DXL-15 | 2026-08-31 12:45:32 | 48.69730 | 12.95687 | 64° | 151km/h | 10138m | -16.2m/s | -44.8°C | 28.4% | 272.4hPa | 2.6V | 00:00:00 | 00:00:00 | 00:00:00 | |
| DO3MHA-11 | 2026-08-31 12:45:29 | 48.69682 | 12.95538 | 65° | 148km/h | 10188m | -16.5m/s | -45.2°C | 30.3% | 270.3hPa | 2.6V | 08:14:00 | 02:16:07 | 00:00:00 | |
| PG1ADW-2 | 2026-08-31 12:45:26 | 48.69634 | 12.95388 | 65° | 153km/h | 10235m | -15.7m/s | -45.6°C | 33.0% | 268.4hPa | 2.5V | 00:00:00 | 00:00:00 | 00:00:00 | |
| OE5FHM-15 | 2026-08-31 12:45:25 | 48.69618 | 12.95337 | 65° | 153km/h | 10250m | -16.2m/s | -45.7°C | 33.8% | 267.8hPa | 2.5V | 00:00:00 | 02:16:03 | 00:00:00 | |
| OE5MMP-10 | 2026-08-31 12:45:23 | 48.69585 | 12.95235 | 64° | 151km/h | 10284m | -17.2m/s | -45.9°C | 35.1% | 266.4hPa | 2.6V | 00:00:00 | 02:16:01 | 00:00:00 | |
| OE5REO-15 | 2026-08-31 12:45:21 | 48.69568 | 12.95184 | 65° | 150km/h | 10301m | -17.1m/s | -46.1°C | 31.4% | 265.8hPa | 2.6V | 08:14:00 | 00:00:00 | 00:00:00 | |
| OE5WHR-10 | 2026-08-31 12:45:19 | 48.69500 | 12.94978 | 64° | 153km/h | 10368m | -17.8m/s | -46.4°C | 37.2% | 263.2hPa | 2.6V | 00:00:00 | 02:15:56 | 00:00:00 | |
| OE5MMP-10 | 2026-08-31 12:45:13 | 48.69412 | 12.94721 | 62° | 153km/h | 10453m | -16.3m/s | -46.9°C | 36.9% | 259.8hPa | 2.6V | 00:00:00 | 02:15:51 | 00:00:00 | |
| DO3MHA-11 | 2026-08-31 12:45:09 | 48.69339 | 12.94514 | 63° | 155km/h | 10520m | -16.0m/s | -47.2°C | 37.1% | 257.2hPa | 2.6V | 00:00:00 | 02:15:47 | 00:00:00 | |
| OE5REO-15 | 2026-08-31 12:45:05 | 48.69285 | 12.94356 | 64° | 153km/h | 10570m | -16.6m/s | -47.6°C | 32.5% | 255.3hPa | 2.6V | 08:15:00 | 00:00:00 | 00:00:00 | |
| PG1ADW-2 | 2026-08-31 12:45:02 | 48.69214 | 12.94143 | 64° | 157km/h | 10639m | -17.6m/s | -47.9°C | 36.5% | 252.6hPa | 2.6V | 00:00:00 | 02:15:40 | 00:00:00 | |
| DO3MHA-11 | 2026-08-31 12:44:59 | 48.69162 | 12.93984 | 64° | 155km/h | 10691m | -17.0m/s | -48.1°C | 36.5% | 250.7hPa | 2.6V | 00:00:00 | 02:15:37 | 00:00:00 | |
| OE5WHR-10 | 2026-08-31 12:44:57 | 48.69127 | 12.93878 | 64° | 159km/h | 10723m | -15.5m/s | -48.4°C | 37.4% | 249.4hPa | 2.5V | 00:00:00 | 00:00:00 | 00:00:00 | |
| OE5FHM-15 | 2026-08-31 12:44:55 | 48.69093 | 12.93771 | 65° | 164km/h | 10754m | -15.6m/s | -48.6°C | 37.6% | 248.2hPa | 2.6V | 00:00:00 | 02:15:33 | 00:00:00 | |
| OE5MMP-10 | 2026-08-31 12:44:53 | 48.69060 | 12.93664 | 65° | 157km/h | 10785m | -15.5m/s | -48.9°C | 37.8% | 247.0hPa | 2.6V | 00:00:00 | 02:15:31 | 00:00:00 | |
| DO3MHA-11 | 2026-08-31 12:44:49 | 48.68992 | 12.93449 | 64° | 159km/h | 10849m | -15.9m/s | -49.3°C | 37.2% | 244.6hPa | 2.6V | 00:00:00 | 02:15:27 | 00:00:00 | |
| OE5HKT-10 | 2026-08-31 12:44:48 | 48.68975 | 12.93396 | 64° | 166km/h | 10866m | -17.6m/s | -49.4°C | 37.1% | 244.1hPa | 2.6V | 00:00:00 | 02:15:26 | 00:00:00 | |
| OE5MMP-10 | 2026-08-31 12:44:43 | 48.68885 | 12.93127 | 63° | 166km/h | 10951m | -17.1m/s | -49.8°C | 34.5% | 241.0hPa | 2.6V | 00:00:00 | 02:15:21 | 00:00:00 | |
| PG1ADW-2 | 2026-08-31 12:44:42 | 48.68866 | 12.93072 | 64° | 170km/h | 10968m | -16.7m/s | -49.8°C | 34.1% | 240.3hPa | 2.6V | 00:00:00 | 00:00:00 | 00:00:00 | |
| OE5DRO-10 | 2026-08-31 12:44:41 | 48.68847 | 12.93017 | 63° | 173km/h | 10985m | -16.9m/s | -49.9°C | 33.8% | 239.7hPa | 2.6V | 00:00:00 | 00:00:00 | 00:00:00 | |
| DO3MHA-11 | 2026-08-31 12:44:39 | 48.68809 | 12.92906 | 63° | 170km/h | 11019m | -17.1m/s | -50.1°C | 33.7% | 238.4hPa | 2.6V | 00:00:00 | 02:15:17 | 00:00:00 | |
| OE5WHR-10 | 2026-08-31 12:44:36 | 48.68750 | 12.92737 | 62° | 173km/h | 11069m | -15.1m/s | -50.2°C | 34.8% | 236.6hPa | 2.6V | 00:00:00 | 00:00:00 | 00:00:00 | |
| OE5REO-15 | 2026-08-31 12:44:34 | 48.68710 | 12.92623 | 63° | 172km/h | 11100m | -15.0m/s | -50.4°C | 30.8% | 235.5hPa | 2.6V | 08:15:00 | 00:00:00 | 00:00:00 | |
| DL6DJ-15 | 2026-08-31 12:44:33 | 48.68669 | 12.92507 | 62° | 172km/h | 11129m | -14.0m/s | -50.6°C | 30.9% | 234.4hPa | 2.6V | 00:00:00 | 00:00:00 | 00:00:00 | |
| OE5DXL-15 | 2026-08-31 12:44:32 | 48.68669 | 12.92507 | 63° | 175km/h | 11129m | -14.0m/s | -50.6°C | 35.7% | 234.4hPa | 2.6V | 00:00:00 | 02:15:10 | 00:00:00 | |
| DO3MHA-11 | 2026-08-31 12:44:29 | 48.68608 | 12.92333 | 62° | 175km/h | 11176m | -17.0m/s | -50.9°C | 35.6% | 232.8hPa | 2.6V | 00:00:00 | 02:15:07 | 00:00:00 | |
| OE5HKT-10 | 2026-08-31 12:44:26 | 48.68546 | 12.92157 | 62° | 177km/h | 11226m | -15.9m/s | -51.1°C | 35.4% | 231.0hPa | 2.5V | 08:15:00 | 00:00:00 | 00:00:00 | |
| OE5FHM-15 | 2026-08-31 12:44:25 | 48.68525 | 12.92098 | 63° | 177km/h | 11243m | -16.6m/s | -51.2°C | 35.2% | 230.4hPa | 2.6V | 00:00:00 | 02:15:03 | 00:00:00 | |
| OE5MMP-10 | 2026-08-31 12:44:23 | 48.68485 | 12.91979 | 63° | 175km/h | 11275m | -15.6m/s | -51.4°C | 34.7% | 229.3hPa | 2.6V | 00:00:00 | 02:15:01 | 00:00:00 | |
| PG1ADW-2 | 2026-08-31 12:44:22 | 48.68464 | 12.91920 | 63° | 177km/h | 11291m | -15.7m/s | -51.5°C | 34.5% | 228.7hPa | 2.6V | 00:00:00 | 00:00:00 | 00:00:00 | |
| OE5REO-15 | 2026-08-31 12:44:18 | 48.68403 | 12.91742 | 64° | 175km/h | 11342m | -17.4m/s | -51.8°C | 28.4% | 227.0hPa | 2.6V | 08:15:00 | 00:00:00 | 00:00:00 | |
| DO3MHA-11 | 2026-08-31 12:44:16 | 48.68343 | 12.91562 | 64° | 173km/h | 11395m | -17.3m/s | -52.0°C | 32.0% | 225.1hPa | 2.6V | 00:00:00 | 02:14:54 | 00:00:00 | |
| OE5WHR-10 | 2026-08-31 12:44:15 | 48.68323 | 12.91501 | 65° | 179km/h | 11412m | -17.0m/s | -52.0°C | 31.4% | 224.5hPa | 2.6V | 00:00:00 | 02:14:53 | 00:00:00 | |
| OE5DRO-10 | 2026-08-31 12:44:14 | 48.68304 | 12.91440 | 65° | 179km/h | 11430m | -18.6m/s | -52.1°C | 30.9% | 223.9hPa | 2.6V | 00:00:00 | 00:00:00 | 00:00:00 | |
| OE5MMP-10 | 2026-08-31 12:44:13 | 48.68284 | 12.91379 | 64° | 179km/h | 11448m | -17.6m/s | -52.2°C | 30.6% | 223.2hPa | 2.6V | 00:00:00 | 02:14:51 | 00:00:00 | |
| OE5HKT-10 | 2026-08-31 12:44:05 | 48.68133 | 12.90881 | 67° | 179km/h | 11586m | -18.3m/s | -52.7°C | 27.1% | 218.5hPa | 2.6V | 00:00:00 | 00:00:00 | 00:00:00 | |
| OE5MMP-10 | 2026-08-31 12:44:03 | 48.68097 | 12.90756 | 67° | 177km/h | 11623m | -18.0m/s | -52.9°C | 26.3% | 217.3hPa | 2.6V | 00:00:00 | 02:14:41 | 00:00:00 | |
| PG1ADW-2 | 2026-08-31 12:44:02 | 48.68079 | 12.90694 | 66° | 177km/h | 11641m | -17.5m/s | -52.9°C | 25.7% | 216.6hPa | 2.5V | 00:00:00 | 00:00:00 | 00:00:00 | |
| DL6DJ-15 | 2026-08-31 12:44:01 | 48.68060 | 12.90632 | 66° | 179km/h | 11658m | -17.7m/s | -53.0°C | 20.4% | 216.1hPa | 2.5V | 00:00:00 | 00:00:00 | 00:00:00 | |
| OE5FHM-15 | 2026-08-31 12:43:55 | 48.67950 | 12.90260 | 66° | 177km/h | 11763m | -16.9m/s | -52.9°C | 22.1% | 212.5hPa | 2.5V | 08:15:00 | 02:14:33 | 00:00:00 | |
| OE5WHR-10 | 2026-08-31 12:43:54 | 48.67931 | 12.90199 | 66° | 177km/h | 11780m | -17.3m/s | -52.9°C | 21.7% | 211.9hPa | 2.5V | 08:15:00 | 00:00:00 | 00:00:00 | |
| OE5MMP-10 | 2026-08-31 12:43:53 | 48.67912 | 12.90136 | 67° | 177km/h | 11798m | -18.2m/s | -52.9°C | 21.3% | 211.4hPa | 2.5V | 00:00:00 | 02:14:31 | 00:00:00 | |
| OE5REO-15 | 2026-08-31 12:43:47 | 48.67823 | 12.89823 | 68° | 177km/h | 11889m | -18.0m/s | -53.1°C | 15.5% | 208.6hPa | 2.5V | 08:15:00 | 00:00:00 | 00:00:00 | |
| OE5MMP-10 | 2026-08-31 12:43:43 | 48.67737 | 12.89510 | 68° | 177km/h | 11983m | -19.2m/s | -53.5°C | 18.0% | 205.6hPa | 2.5V | 00:00:00 | 02:14:21 | 00:00:00 | |
| PG1ADW-2 | 2026-08-31 12:43:42 | 48.67720 | 12.89448 | 69° | 175km/h | 12002m | -18.9m/s | -53.6°C | 17.8% | 204.9hPa | 2.5V | 08:15:00 | 02:14:20 | 00:00:00 | |
| OE5DRO-10 | 2026-08-31 12:43:36 | 48.67581 | 12.88949 | 67° | 173km/h | 12151m | -18.1m/s | -54.0°C | 15.4% | 200.1hPa | 2.6V | 00:00:00 | 00:00:00 | 00:00:00 | |
| OE5WHR-10 | 2026-08-31 12:43:33 | 48.67563 | 12.88888 | 66° | 172km/h | 12169m | -18.2m/s | -54.1°C | 15.3% | 199.6hPa | 2.6V | 00:00:00 | 00:00:00 | 00:00:00 | |
| OE5DXL-15 | 2026-08-31 12:43:32 | 48.67509 | 12.88703 | 67° | 166km/h | 12222m | -17.5m/s | -54.1°C | 14.5% | 197.9hPa | 2.6V | 00:00:00 | 00:00:00 | 00:00:00 | |
| DL6DJ-15 | 2026-08-31 12:43:30 | 48.67509 | 12.88703 | 66° | 177km/h | 12221m | -17.5m/s | -54.2°C | 10.8% | 198.0hPa | 2.5V | 00:00:00 | 00:00:00 | 00:00:00 | |
| OE5FHM-15 | 2026-08-31 12:43:25 | 48.67421 | 12.88395 | 67° | 161km/h | 12309m | -17.8m/s | -54.2°C | 12.9% | 195.2hPa | 2.5V | 00:00:00 | 02:14:03 | 00:00:00 | |
| OE5MMP-10 | 2026-08-31 12:43:23 | 48.67387 | 12.88273 | 68° | 168km/h | 12345m | -17.4m/s | -54.5°C | 12.4% | 194.1hPa | 2.5V | 00:00:00 | 02:14:01 | 00:00:00 | |
| OE5HKT-10 | 2026-08-31 12:43:22 | 48.67370 | 12.88212 | 68° | 162km/h | 12363m | -18.8m/s | -54.5°C | 12.0% | 193.5hPa | 2.5V | 00:00:00 | 00:00:00 | 00:00:00 | |
| DO3MHA-11 | 2026-08-31 12:43:17 | 48.67291 | 12.87911 | 70° | 162km/h | 12456m | -18.7m/s | -54.7°C | 9.9% | 190.7hPa | 2.5V | 00:00:00 | 02:13:55 | 00:00:00 | |
| OE5REO-15 | 2026-08-31 12:43:16 | 48.67291 | 12.87911 | 71° | 166km/h | 12456m | -18.8m/s | -54.7°C | 6.5% | 190.8hPa | 2.5V | 08:16:00 | 00:00:00 | 00:00:00 | |
| OE5DRO-10 | 2026-08-31 12:43:15 | 48.67262 | 12.87792 | 70° | 157km/h | 12493m | -18.6m/s | -54.7°C | 9.2% | 189.6hPa | 2.5V | 00:00:00 | 00:00:00 | 00:00:00 | |
| OE5MMP-10 | 2026-08-31 12:43:13 | 48.67232 | 12.87673 | 70° | 159km/h | 12532m | -19.2m/s | -54.6°C | 8.6% | 188.5hPa | 2.5V | 00:00:00 | 02:13:51 | 00:00:00 | |
| OE5WHR-10 | 2026-08-31 12:43:12 | 48.67218 | 12.87615 | 70° | 155km/h | 12551m | -19.5m/s | -54.7°C | 8.3% | 187.9hPa | 2.5V | 00:00:00 | 02:13:50 | 00:00:00 | |
| DO3MHA-11 | 2026-08-31 12:43:07 | 48.67147 | 12.87331 | 69° | 153km/h | 12646m | -19.0m/s | -54.1°C | 6.8% | 185.1hPa | 2.5V | 08:16:00 | 02:13:45 | 00:00:00 | |
| OE5MMP-10 | 2026-08-31 12:43:03 | 48.67089 | 12.87111 | 69° | 153km/h | 12719m | -17.0m/s | -54.0°C | 6.5% | 183.0hPa | 2.6V | 00:00:00 | 02:13:41 | 00:00:00 | |
| BAUMI2-15 | 2026-08-31 12:43:02 | 48.67075 | 12.87057 | 69° | 151km/h | 12736m | -16.7m/s | -53.8°C | 6.4% | 182.5hPa | 2.6V | 00:00:00 | 02:13:40 | 00:00:00 | |
| OE5REO-15 | 2026-08-31 12:43:01 | 48.67075 | 12.87057 | 69° | 153km/h | 12736m | -16.7m/s | -53.9°C | 3.6% | 182.5hPa | 2.6V | 08:16:00 | 00:00:00 | 00:00:00 | |
| DL6DJ-15 | 2026-08-31 12:42:59 | 48.67032 | 12.86895 | 68° | 151km/h | 12785m | -15.5m/s | -54.1°C | 3.5% | 181.1hPa | 2.6V | 00:00:00 | 00:00:00 | 00:00:00 | |
| BAUMI2-15 | 2026-08-31 12:42:57 | 48.67003 | 12.86787 | 68° | 153km/h | 12817m | -16.7m/s | -54.2°C | 6.2% | 180.2hPa | 2.6V | 08:16:00 | 02:13:35 | 00:00:00 | |
| DO3MHA-11 | 2026-08-31 12:42:56 | 48.66988 | 12.86733 | 68° | 151km/h | 12834m | -17.1m/s | -54.3°C | 6.3% | 179.7hPa | 2.5V | 00:00:00 | 02:13:34 | 00:00:00 | |
| OE5FHM-15 | 2026-08-31 12:42:55 | 48.66974 | 12.86679 | 67° | 146km/h | 12851m | -17.4m/s | -54.3°C | 6.2% | 179.3hPa | 2.5V | 00:00:00 | 02:13:33 | 00:00:00 | |
| OE5MMP-10 | 2026-08-31 12:42:53 | 48.66943 | 12.86571 | 67° | 151km/h | 12886m | -17.4m/s | -54.2°C | 6.1% | 178.3hPa | 2.5V | 00:00:00 | 02:13:31 | 00:00:00 | |
| BAUMI2-15 | 2026-08-31 12:42:52 | 48.66928 | 12.86519 | 66° | 151km/h | 12903m | -17.6m/s | -54.1°C | 6.0% | 177.8hPa | 2.5V | 00:00:00 | 02:13:30 | 00:00:00 | |
| OE5WHR-10 | 2026-08-31 12:42:51 | 48.66912 | 12.86466 | 66° | 148km/h | 12922m | -18.5m/s | -53.7°C | 5.7% | 177.2hPa | 2.5V | 00:00:00 | 00:00:00 | 00:00:00 | |
| BAUMI2-15 | 2026-08-31 12:42:47 | 48.66849 | 12.86256 | 66° | 151km/h | 12999m | -19.6m/s | -53.9°C | 5.6% | 175.3hPa | 2.6V | 00:00:00 | 02:13:25 | 00:00:00 | |
| DO3MHA-11 | 2026-08-31 12:42:46 | 48.66833 | 12.86203 | 67° | 151km/h | 13018m | -19.2m/s | -53.9°C | 5.6% | 174.7hPa | 2.6V | 00:00:00 | 02:13:24 | 00:00:00 | |
| OE5REO-15 | 2026-08-31 12:42:45 | 48.66833 | 12.86203 | 67° | 151km/h | 13018m | -19.3m/s | -53.9°C | 2.9% | 174.7hPa | 2.6V | 08:17:00 | 00:00:00 | 00:00:00 | |
| OE5MMP-10 | 2026-08-31 12:42:43 | 48.66788 | 12.86042 | 68° | 150km/h | 13075m | -17.2m/s | -54.0°C | 5.5% | 173.1hPa | 2.6V | 00:00:00 | 02:13:21 | 00:00:00 | |
| PG1ADW-2 | 2026-08-31 12:42:42 | 48.66774 | 12.85988 | 69° | 141km/h | 13093m | -18.0m/s | -53.9°C | 5.5% | 172.7hPa | 2.6V | 00:00:00 | 00:00:00 | 00:00:00 | |
| OE5GOL-10 | 2026-08-31 12:42:41 | 48.66760 | 12.85935 | 69° | 135km/h | 13111m | -18.1m/s | -53.9°C | 5.4% | 172.2hPa | 2.6V | 00:00:00 | 02:13:19 | 00:00:00 | |
| OE5HKT-10 | 2026-08-31 12:42:40 | 48.66746 | 12.85882 | 69° | 137km/h | 13130m | -19.4m/s | -54.0°C | 5.5% | 171.7hPa | 2.6V | 00:00:00 | 02:13:18 | 00:00:00 | |
| BAUMI2-15 | 2026-08-31 12:42:37 | 48.66707 | 12.85721 | 72° | 146km/h | 13188m | -19.3m/s | -54.0°C | 5.5% | 170.1hPa | 2.6V | 00:00:00 | 02:13:15 | 00:00:00 | |
| DO3MHA-11 | 2026-08-31 12:42:36 | 48.66695 | 12.85668 | 72° | 141km/h | 13207m | -18.3m/s | -54.1°C | 5.6% | 169.6hPa | 2.6V | 00:00:00 | 02:13:14 | 00:00:00 | |
| OE5DRO-10 | 2026-08-31 12:42:34 | 48.66671 | 12.85562 | 72° | 124km/h | 13244m | -18.6m/s | -54.3°C | 5.7% | 168.7hPa | 2.5V | 00:00:00 | 00:00:00 | 00:00:00 | |
| OE5MMP-10 | 2026-08-31 12:42:33 | 48.66660 | 12.85510 | 72° | 135km/h | 13263m | -19.0m/s | -54.3°C | 5.7% | 168.2hPa | 2.5V | 00:00:00 | 02:13:11 | 00:00:00 | |
| BAUMI2-15 | 2026-08-31 12:42:32 | 48.66649 | 12.85458 | 72° | 137km/h | 13282m | -18.5m/s | -54.2°C | 5.6% | 167.6hPa | 2.5V | 00:00:00 | 02:13:10 | 00:00:00 | |
| OE5WHR-10 | 2026-08-31 12:42:30 | 48.66627 | 12.85357 | 73° | 122km/h | 13320m | -19.6m/s | -54.2°C | 5.5% | 166.7hPa | 2.5V | 00:00:00 | 00:00:00 | 00:00:00 | |
| DG1MFX-10 | 2026-08-31 12:42:29 | 48.66627 | 12.85357 | 73° | 137km/h | 13320m | -19.6m/s | -54.3°C | 2.7% | 166.7hPa | 2.5V | 08:17:00 | 00:00:00 | 00:00:00 | |
| DL6DJ-15 | 2026-08-31 12:42:28 | 48.66606 | 12.85259 | 72° | 131km/h | 13358m | -19.3m/s | -54.5°C | 2.7% | 165.7hPa | 2.5V | 00:00:00 | 00:00:00 | 00:00:00 | |
| DO3MHA-11 | 2026-08-31 12:42:27 | 48.66586 | 12.85164 | 72° | 124km/h | 13397m | -19.6m/s | -54.5°C | 5.5% | 164.7hPa | 2.5V | 00:00:00 | 02:13:04 | 00:00:00 | |
| OE5FHM-15 | 2026-08-31 12:42:25 | 48.66576 | 12.85117 | 72° | 111km/h | 13417m | -19.7m/s | -54.4°C | 5.4% | 164.2hPa | 2.5V | 00:00:00 | 02:13:03 | 00:00:00 | |
| OE5MMP-10 | 2026-08-31 12:42:23 | 48.66555 | 12.85025 | 71° | 120km/h | 13456m | -19.9m/s | -54.1°C | 5.3% | 163.1hPa | 2.5V | 00:00:00 | 02:13:01 | 00:00:00 | |
| BAUMI2-15 | 2026-08-31 12:42:22 | 48.66544 | 12.84979 | 72° | 122km/h | 13476m | -19.7m/s | -53.8°C | 5.1% | 162.6hPa | 2.5V | 00:00:00 | 02:13:00 | 00:00:00 | |
| OE5HKT-10 | 2026-08-31 12:42:19 | 48.66514 | 12.84845 | 73° | 110km/h | 13536m | -20.4m/s | -53.0°C | 4.9% | 161.1hPa | 2.5V | 00:00:00 | 00:00:00 | 00:00:00 | |
| BAUMI2-15 | 2026-08-31 12:42:17 | 48.66495 | 12.84758 | 72° | 117km/h | 13578m | -21.2m/s | -52.7°C | 4.7% | 160.1hPa | 2.5V | 00:00:00 | 02:12:55 | 00:00:00 | |
| DO3MHA-11 | 2026-08-31 12:42:15 | 48.66477 | 12.84672 | 74° | 104km/h | 13619m | -19.8m/s | -52.5°C | 4.7% | 159.1hPa | 2.5V | 00:00:00 | 02:12:53 | 00:00:00 | |
| OE5REO-15 | 2026-08-31 12:42:14 | 48.66477 | 12.84672 | 74° | 117km/h | 13619m | -19.8m/s | -52.6°C | 2.2% | 159.1hPa | 2.5V | 08:17:00 | 00:00:00 | 00:00:00 | |
| OE5MMP-10 | 2026-08-31 12:42:13 | 48.66461 | 12.84587 | 75° | 108km/h | 13656m | -17.8m/s | -52.4°C | 4.6% | 158.1hPa | 2.5V | 00:00:00 | 02:12:51 | 00:00:00 | |
| BAUMI2-15 | 2026-08-31 12:42:12 | 48.66453 | 12.84545 | 75° | 108km/h | 13674m | -18.1m/s | -52.4°C | 4.5% | 157.6hPa | 2.5V | 08:17:00 | 02:12:50 | 00:00:00 | |
| OE5GOL-10 | 2026-08-31 12:42:11 | 48.66439 | 12.84463 | 76° | 93km/h | 13713m | -20.4m/s | -52.6°C | 4.6% | 156.8hPa | 2.5V | 00:00:00 | 02:12:48 | 00:00:00 | |
| OE5WHR-10 | 2026-08-31 12:42:09 | 48.66432 | 12.84423 | 76° | 102km/h | 13733m | -19.7m/s | -52.6°C | 4.6% | 156.3hPa | 2.5V | 00:00:00 | 02:12:47 | 00:00:00 | |
| DG1MFX-10 | 2026-08-31 12:42:08 | 48.66432 | 12.84423 | 77° | 108km/h | 13733m | -19.8m/s | -52.7°C | 2.2% | 156.3hPa | 2.5V | 08:17:00 | 00:00:00 | 00:00:00 | |
| BAUMI2-15 | 2026-08-31 12:42:06 | 48.66411 | 12.84306 | 75° | 102km/h | 13787m | -17.4m/s | -52.8°C | 4.7% | 154.9hPa | 2.5V | 00:00:00 | 02:12:44 | 00:00:00 | |
| OE5MMP-10 | 2026-08-31 12:42:03 | 48.66391 | 12.84193 | 75° | 102km/h | 13839m | -18.1m/s | -53.1°C | 4.8% | 153.7hPa | 2.5V | 08:17:00 | 02:12:41 | 00:00:00 | |
| OE5DXL-15 | 2026-08-31 12:42:02 | 48.66384 | 12.84156 | 75° | 93km/h | 13858m | -19.9m/s | -53.1°C | 4.7% | 153.3hPa | 2.5V | 08:17:00 | 00:00:00 | 00:00:00 | |
| DL6DJ-15 | 2026-08-31 12:41:57 | 48.66350 | 12.83968 | 75° | 100km/h | 13955m | -17.2m/s | -53.5°C | 2.2% | 150.9hPa | 2.5V | 00:00:00 | 00:00:00 | 00:00:00 | |
| BAUMI2-15 | 2026-08-31 12:41:56 | 48.66343 | 12.83930 | 76° | 100km/h | 13973m | -16.9m/s | -53.5°C | 4.8% | 150.4hPa | 2.5V | 00:00:00 | 02:12:34 | 00:00:00 | |
| OE5FHM-15 | 2026-08-31 12:41:55 | 48.66336 | 12.83893 | 76° | 86km/h | 13989m | -16.8m/s | -53.7°C | 4.9% | 150.0hPa | 2.5V | 00:00:00 | 02:12:33 | 00:00:00 | |
| OE5MMP-10 | 2026-08-31 12:41:53 | 48.66324 | 12.83818 | 77° | 99km/h | 14023m | -17.2m/s | -53.9°C | 5.0% | 149.3hPa | 2.5V | 00:00:00 | 02:12:31 | 00:00:00 | |
| BAUMI2-15 | 2026-08-31 12:41:51 | 48.66312 | 12.83744 | 78° | 99km/h | 14056m | -15.9m/s | -53.9°C | 5.1% | 148.4hPa | 2.5V | 00:00:00 | 02:12:29 | 00:00:00 | |
| DO3MHA-11 | 2026-08-31 12:41:49 | 48.66301 | 12.83670 | 78° | 86km/h | 14087m | -14.3m/s | -53.7°C | 4.9% | 147.7hPa | 2.5V | 00:00:00 | 02:12:27 | 00:00:00 | |
| OE5WHR-10 | 2026-08-31 12:41:48 | 48.66296 | 12.83634 | 78° | 84km/h | 14101m | -15.2m/s | -53.8°C | 4.9% | 147.4hPa | 2.5V | 00:00:00 | 00:00:00 | 00:00:00 | |
| DG1MFX-10 | 2026-08-31 12:41:47 | 48.66296 | 12.83634 | 79° | 99km/h | 14101m | -15.2m/s | -53.8°C | 2.3% | 147.5hPa | 2.5V | 08:18:00 | 00:00:00 | 00:00:00 | |
| BAUMI2-15 | 2026-08-31 12:41:46 | 48.66286 | 12.83561 | 79° | 93km/h | 14137m | -19.5m/s | -53.9°C | 4.9% | 146.7hPa | 2.5V | 00:00:00 | 02:12:24 | 00:00:00 | |
| OE5MMP-10 | 2026-08-31 12:41:43 | 48.66271 | 12.83455 | 78° | 84km/h | 14196m | -20.0m/s | -53.6°C | 4.8% | 145.4hPa | 2.5V | 00:00:00 | 02:12:21 | 00:00:00 | |
| OE5HKT-10 | 2026-08-31 12:41:37 | 48.66239 | 12.83263 | 73° | 71km/h | 14313m | -20.8m/s | -53.7°C | 4.8% | 142.8hPa | 2.5V | 00:00:00 | 02:12:15 | 00:00:00 | |
| BAUMI2-15 | 2026-08-31 12:41:36 | 48.66233 | 12.83234 | 70° | 75km/h | 14333m | -19.9m/s | -53.7°C | 4.7% | 142.2hPa | 2.5V | 00:00:00 | 02:12:14 | 00:00:00 | |
| DO3MHA-11 | 2026-08-31 12:41:34 | 48.66218 | 12.83179 | 68° | 71km/h | 14373m | -19.2m/s | -53.8°C | 4.8% | 141.3hPa | 2.5V | 00:00:00 | 02:12:12 | 00:00:00 | |
| OE5MMP-10 | 2026-08-31 12:41:33 | 48.66210 | 12.83153 | 65° | 71km/h | 14391m | -18.1m/s | -53.8°C | 4.7% | 140.9hPa | 2.5V | 00:00:00 | 02:12:11 | 00:00:00 | |
| OE5DXL-15 | 2026-08-31 12:41:32 | 48.66202 | 12.83128 | 65° | 68km/h | 14410m | -19.0m/s | -53.8°C | 4.7% | 140.6hPa | 2.6V | 00:00:00 | 00:00:00 | 00:00:00 | |
| BAUMI2-15 | 2026-08-31 12:41:30 | 48.66185 | 12.83079 | 62° | 71km/h | 14449m | -20.4m/s | -53.9°C | 4.7% | 139.7hPa | 2.6V | 00:00:00 | 02:12:08 | 00:00:00 | |
| DG1MFX-10 | 2026-08-31 12:41:27 | 48.66158 | 12.83007 | 61° | 71km/h | 14508m | -19.9m/s | -53.9°C | 2.1% | 138.5hPa | 2.6V | 08:18:00 | 00:00:00 | 00:00:00 | |
| DL6DJ-15 | 2026-08-31 12:41:26 | 48.66149 | 12.82984 | 60° | 69km/h | 14528m | -20.5m/s | -53.8°C | 2.0% | 138.1hPa | 2.6V | 00:00:00 | 00:00:00 | 00:00:00 | |
| OE5FHM-15 | 2026-08-31 12:41:25 | 48.66140 | 12.82960 | 61° | 64km/h | 14549m | -21.4m/s | -53.6°C | 4.5% | 137.6hPa | 2.6V | 00:00:00 | 02:12:03 | 00:00:00 | |
| OE5MMP-10 | 2026-08-31 12:41:23 | 48.66124 | 12.82914 | 63° | 68km/h | 14589m | -19.5m/s | -53.7°C | 4.6% | 136.7hPa | 2.6V | 00:00:00 | 02:12:01 | 00:00:00 | |
| DO3MHA-11 | 2026-08-31 12:41:21 | 48.66108 | 12.82868 | 64° | 68km/h | 14629m | -20.9m/s | -53.7°C | 4.6% | 135.8hPa | 2.6V | 08:18:00 | 02:11:59 | 00:00:00 | |
| BAUMI2-15 | 2026-08-31 12:41:20 | 48.66100 | 12.82845 | 64° | 68km/h | 14651m | -20.6m/s | -53.8°C | 4.6% | 135.4hPa | 2.5V | 00:00:00 | 02:11:58 | 00:00:00 | |
| OE5HKT-10 | 2026-08-31 12:41:16 | 48.66069 | 12.82754 | 64° | 62km/h | 14732m | -19.4m/s | -54.0°C | 4.7% | 133.6hPa | 2.5V | 08:18:00 | 00:00:00 | 00:00:00 | |
| BAUMI2-15 | 2026-08-31 12:41:15 | 48.66062 | 12.82730 | 66° | 69km/h | 14751m | -21.0m/s | -54.1°C | 4.7% | 133.3hPa | 2.5V | 00:00:00 | 02:11:53 | 00:00:00 | |
| OE5MMP-10 | 2026-08-31 12:41:14 | 48.66048 | 12.82682 | 67° | 66km/h | 14796m | -22.8m/s | -54.3°C | 4.7% | 132.5hPa | 2.5V | 00:00:00 | 02:11:51 | 00:00:00 | |
| OE5REO-15 | 2026-08-31 12:41:13 | 48.66048 | 12.82682 | 67° | 69km/h | 14796m | -22.8m/s | -54.4°C | 2.1% | 132.5hPa | 2.5V | 08:18:00 | 00:00:00 | 00:00:00 | |
| DO3MHA-11 | 2026-08-31 12:41:11 | 48.66034 | 12.82634 | 65° | 64km/h | 14839m | -21.6m/s | -54.7°C | 4.8% | 131.5hPa | 2.5V | 00:00:00 | 02:11:49 | 00:00:00 | |
| BAUMI2-15 | 2026-08-31 12:41:10 | 48.66027 | 12.82611 | 66° | 55km/h | 14861m | -22.0m/s | -54.8°C | 4.8% | 131.1hPa | 2.5V | 00:00:00 | 02:11:48 | 00:00:00 | |
| OE5WHR-10 | 2026-08-31 12:41:06 | 48.65999 | 12.82521 | 66° | 57km/h | 14946m | -21.5m/s | -55.3°C | 4.9% | 129.3hPa | 2.6V | 00:00:00 | 02:11:44 | 00:00:00 | |
| OE5MMP-10 | 2026-08-31 12:41:03 | 48.65979 | 12.82458 | 62° | 55km/h | 15010m | -19.0m/s | -55.7°C | 5.1% | 128.0hPa | 2.6V | 00:00:00 | 02:11:41 | 00:00:00 | |
| OE5DXL-15 | 2026-08-31 12:41:02 | 48.65971 | 12.82439 | 61° | 55km/h | 15030m | -20.0m/s | -55.7°C | 5.1% | 127.6hPa | 2.5V | 00:00:00 | 00:00:00 | 00:00:00 | |
| DL6DJ-15 | 2026-08-31 12:40:55 | 48.65916 | 12.82321 | 51° | 53km/h | 15178m | -21.3m/s | -56.4°C | 2.2% | 124.7hPa | 2.5V | 00:00:00 | 00:00:00 | 00:00:00 | |
| OE5MMP-10 | 2026-08-31 12:40:53 | 48.65899 | 12.82290 | 49° | 57km/h | 15219m | -21.4m/s | -56.6°C | 5.4% | 123.9hPa | 2.5V | 00:00:00 | 02:11:31 | 00:00:00 | |
| DO3MHA-11 | 2026-08-31 12:40:51 | 48.65880 | 12.82258 | 50° | 55km/h | 15262m | -22.2m/s | -57.0°C | 5.5% | 123.0hPa | 2.5V | 00:00:00 | 02:11:29 | 00:00:00 | |
| OE5GOL-10 | 2026-08-31 12:40:49 | 48.65861 | 12.82225 | 48° | 64km/h | 15306m | -21.6m/s | -57.2°C | 5.5% | 122.2hPa | 2.6V | 00:00:00 | 02:11:27 | 00:00:00 | |
| OE5WHR-10 | 2026-08-31 12:40:45 | 48.65821 | 12.82164 | 44° | 60km/h | 15394m | -21.5m/s | -57.0°C | 5.4% | 120.5hPa | 2.6V | 08:18:00 | 00:00:00 | 00:00:00 | |
| OE5MMP-10 | 2026-08-31 12:40:43 | 48.65801 | 12.82136 | 43° | 55km/h | 15436m | -21.7m/s | -57.0°C | 5.4% | 119.7hPa | 2.6V | 00:00:00 | 02:11:21 | 00:00:00 | |
| OE5REO-15 | 2026-08-31 12:40:42 | 48.65791 | 12.82123 | 43° | 51km/h | 15458m | -21.7m/s | -57.0°C | 2.1% | 119.4hPa | 2.6V | 08:19:00 | 00:00:00 | 00:00:00 | |
| DO3MHA-11 | 2026-08-31 12:40:41 | 48.65782 | 12.82110 | 41° | 55km/h | 15480m | -22.9m/s | -56.7°C | 5.3% | 119.0hPa | 2.6V | 00:00:00 | 02:11:19 | 00:00:00 | |
| OE5HKT-10 | 2026-08-31 12:40:34 | 48.65707 | 12.82016 | 43° | 71km/h | 15633m | -20.2m/s | -56.5°C | 5.1% | 116.0hPa | 2.6V | 00:00:00 | 02:11:12 | 00:00:00 | |
| OE5MMP-10 | 2026-08-31 12:40:33 | 48.65696 | 12.82000 | 44° | 68km/h | 15654m | -20.5m/s | -56.5°C | 5.1% | 115.6hPa | 2.6V | 08:19:00 | 02:11:11 | 00:00:00 | |
| OE5DXL-15 | 2026-08-31 12:40:32 | 48.65685 | 12.81984 | 45° | 77km/h | 15675m | -20.9m/s | -56.2°C | 4.9% | 115.2hPa | 2.6V | 00:00:00 | 00:00:00 | 00:00:00 | |
| DO3MHA-11 | 2026-08-31 12:40:31 | 48.65673 | 12.81967 | 44° | 71km/h | 15695m | -20.5m/s | -56.1°C | 4.9% | 114.8hPa | 2.5V | 00:00:00 | 02:11:09 | 00:00:00 | |
| OE5REO-15 | 2026-08-31 12:40:26 | 48.65622 | 12.81898 | 41° | 71km/h | 15775m | -20.7m/s | -55.6°C | 1.7% | 113.5hPa | 2.5V | 08:19:00 | 00:00:00 | 00:00:00 | |
| OE5FHM-15 | 2026-08-31 12:40:25 | 48.65594 | 12.81863 | 39° | 80km/h | 15816m | -20.6m/s | -54.8°C | 4.3% | 112.7hPa | 2.5V | 00:00:00 | 02:11:03 | 00:00:00 | |
| OE5WHR-10 | 2026-08-31 12:40:24 | 48.65579 | 12.81845 | 40° | 78km/h | 15837m | -21.7m/s | -54.8°C | 4.3% | 112.3hPa | 2.5V | 00:00:00 | 00:00:00 | 00:00:00 | |
| OE5MMP-10 | 2026-08-31 12:40:23 | 48.65564 | 12.81827 | 38° | 77km/h | 15858m | -20.5m/s | -54.8°C | 4.3% | 112.0hPa | 2.5V | 00:00:00 | 02:11:01 | 00:00:00 | |
| OE5DRO-10 | 2026-08-31 12:40:22 | 48.65549 | 12.81810 | 39° | 80km/h | 15879m | -20.9m/s | -54.9°C | 4.3% | 111.5hPa | 2.5V | 00:00:00 | 00:00:00 | 00:00:00 | |
| DO3MHA-11 | 2026-08-31 12:40:21 | 48.65534 | 12.81792 | 41° | 78km/h | 15899m | -21.6m/s | -55.1°C | 4.4% | 111.2hPa | 2.6V | 00:00:00 | 02:10:59 | 00:00:00 | |
| OE5GOL-10 | 2026-08-31 12:40:19 | 48.65505 | 12.81753 | 41° | 80km/h | 15944m | -23.9m/s | 0°C | 0% | 0hPa | 2.6V | 00:00:00 | 02:10:57 | 00:00:00 | |
| OE5MMP-10 | 2026-08-31 12:40:13 | 48.65418 | 12.81632 | 46° | 82km/h | 16078m | -22.2m/s | -55.5°C | 4.4% | 108.2hPa | 2.6V | 00:00:00 | 02:10:51 | 00:00:00 | |
| OE5REO-15 | 2026-08-31 12:40:11 | 48.65392 | 12.81586 | 52° | 80km/h | 16122m | -22.6m/s | -55.9°C | 1.6% | 107.5hPa | 2.6V | 08:20:00 | 00:00:00 | 00:00:00 | |
| DG1MFX-10 | 2026-08-31 12:40:04 | 48.65321 | 12.81430 | 61° | 84km/h | 16249m | -20.0m/s | -55.9°C | 1.6% | 105.3hPa | 2.6V | 08:20:00 | 00:00:00 | 00:00:00 | |
| DO3MHA-11 | 2026-08-31 12:40:01 | 48.65283 | 12.81314 | 68° | 80km/h | 16335m | -22.3m/s | -56.3°C | 4.7% | 104.0hPa | 2.6V | 00:00:00 | 02:10:39 | 00:00:00 | |
| OE5FHM-15 | 2026-08-31 12:39:55 | 48.65247 | 12.81134 | 78° | 49km/h | 16463m | -19.7m/s | -55.9°C | 4.8% | 101.8hPa | 2.6V | 00:00:00 | 02:10:33 | 00:00:00 | |
| OE5MMP-10 | 2026-08-31 12:39:53 | 48.65239 | 12.81076 | 81° | 68km/h | 16504m | -20.3m/s | -55.4°C | 4.6% | 101.2hPa | 2.6V | 00:00:00 | 02:10:31 | 00:00:00 | |
| OE5HKT-10 | 2026-08-31 12:39:52 | 48.65236 | 12.81047 | 82° | 58km/h | 16525m | -21.5m/s | -55.3°C | 4.5% | 100.8hPa | 2.6V | 00:00:00 | 00:00:00 | 00:00:00 | |
| DO3MHA-11 | 2026-08-31 12:39:51 | 48.65233 | 12.81019 | 82° | 62km/h | 16547m | -21.8m/s | -55.3°C | 4.5% | 100.5hPa | 2.6V | 08:19:00 | 02:10:29 | 00:00:00 | |
| OE5GOL-10 | 2026-08-31 12:39:49 | 48.65228 | 12.80966 | 84° | 47km/h | 16590m | -20.7m/s | 0°C | 0% | 0hPa | 2.6V | 00:00:00 | 02:10:27 | 00:00:00 | |
| OE5MMP-10 | 2026-08-31 12:39:43 | 48.65219 | 12.80824 | 85° | 40km/h | 16715m | -21.9m/s | -55.4°C | 4.6% | 97.8hPa | 2.6V | 00:00:00 | 02:10:21 | 00:00:00 | |
| OE5WHR-10 | 2026-08-31 12:39:42 | 48.65218 | 12.80804 | 87° | 37km/h | 16737m | -21.2m/s | -55.3°C | 4.5% | 97.5hPa | 2.6V | 00:00:00 | 00:00:00 | 00:00:00 | |
| DO3MHA-11 | 2026-08-31 12:39:41 | 48.65217 | 12.80786 | 86° | 37km/h | 16759m | -22.1m/s | -55.1°C | 4.4% | 97.2hPa | 2.6V | 00:00:00 | 02:10:19 | 00:00:00 | |
| OE5REO-15 | 2026-08-31 12:39:39 | 48.65216 | 12.80768 | 86° | 44km/h | 16781m | -22.9m/s | -55.0°C | 1.4% | 96.9hPa | 2.6V | 08:20:00 | 00:00:00 | 00:00:00 | |
| OE5MMP-10 | 2026-08-31 12:39:33 | 48.65200 | 12.80680 | 59° | 35km/h | 16933m | -21.1m/s | -53.1°C | 3.8% | 94.5hPa | 2.6V | 00:00:00 | 02:10:11 | 00:00:00 | |
| DO3MHA-11 | 2026-08-31 12:39:31 | 48.65192 | 12.80662 | 50° | 38km/h | 16976m | -22.4m/s | -53.2°C | 3.9% | 93.8hPa | 2.7V | 00:00:00 | 02:10:09 | 00:00:00 | |
| OE5FHM-15 | 2026-08-31 12:39:25 | 48.65155 | 12.80608 | 45° | 31km/h | 17110m | -23.3m/s | -53.9°C | 4.1% | 91.9hPa | 2.7V | 08:20:00 | 02:10:03 | 00:00:00 | |
| OE5MMP-10 | 2026-08-31 12:39:23 | 48.65140 | 12.80586 | 46° | 42km/h | 17154m | -21.7m/s | -54.2°C | 4.2% | 91.2hPa | 2.7V | 00:00:00 | 02:10:01 | 00:00:00 | |
| DL6DJ-15 | 2026-08-31 12:39:22 | 48.65133 | 12.80575 | 46° | 42km/h | 17174m | -20.4m/s | -54.4°C | 1.3% | 91.0hPa | 2.7V | 00:00:00 | 00:00:00 | 00:00:00 | |
| OE5WHR-10 | 2026-08-31 12:39:21 | 48.65125 | 12.80563 | 47° | 44km/h | 17195m | -21.3m/s | -54.5°C | 4.2% | 90.7hPa | 2.7V | 00:00:00 | 00:00:00 | 00:00:00 | |
| OE5MMP-10 | 2026-08-31 12:39:13 | 48.65066 | 12.80468 | 47° | 42km/h | 17381m | -25.3m/s | -52.3°C | 3.6% | 88.1hPa | 2.7V | 00:00:00 | 02:09:51 | 00:00:00 | |
| OE5HKT-10 | 2026-08-31 12:39:10 | 48.65045 | 12.80433 | 49° | 47km/h | 17453m | -23.5m/s | -52.2°C | 3.5% | 87.1hPa | 2.7V | 00:00:00 | 00:00:00 | 00:00:00 | |
| OE5REO-15 | 2026-08-31 12:39:08 | 48.65038 | 12.80422 | 48° | 42km/h | 17475m | -21.9m/s | -52.3°C | 1.1% | 86.8hPa | 2.7V | 08:20:00 | 00:00:00 | 00:00:00 | |
| OE5MMP-10 | 2026-08-31 12:39:03 | 48.64995 | 12.80345 | 57° | 53km/h | 17608m | -23.0m/s | -52.9°C | 3.7% | 85.0hPa | 2.7V | 08:20:00 | 02:09:41 | 00:00:00 | |
| BAUMI2-15 | 2026-08-31 12:39:02 | 48.64988 | 12.80330 | 57° | 51km/h | 17631m | -22.7m/s | -53.0°C | 3.7% | 84.6hPa | 2.7V | 00:00:00 | 02:09:40 | 00:00:00 | |
| DG1MFX-10 | 2026-08-31 12:39:01 | 48.64989 | 12.80330 | 58° | 47km/h | 17631m | -22.8m/s | -53.0°C | 1.2% | 84.7hPa | 2.7V | 08:20:00 | 00:00:00 | 00:00:00 | |
| DL6DJ-15 | 2026-08-31 12:38:51 | 48.64917 | 12.80142 | 66° | 46km/h | 17886m | -24.8m/s | -54.2°C | 1.2% | 81.5hPa | 2.7V | 00:00:00 | 00:00:00 | 00:00:00 | |
| DO3MHA-11 | 2026-08-31 12:38:49 | 48.64908 | 12.80111 | 70° | 35km/h | 17936m | -25.7m/s | -54.2°C | 4.0% | 80.9hPa | 2.7V | 00:00:00 | 02:09:27 | 00:00:00 | |
| BAUMI2-15 | 2026-08-31 12:38:47 | 48.64901 | 12.80083 | 69° | 35km/h | 17987m | -24.1m/s | -54.2°C | 4.1% | 80.2hPa | 2.7V | 00:00:00 | 02:09:25 | 00:00:00 | |
| OE5MMP-10 | 2026-08-31 12:38:43 | 48.64887 | 12.80035 | 61° | 29km/h | 18083m | -23.1m/s | -54.8°C | 4.3% | 79.0hPa | 2.7V | 00:00:00 | 02:09:21 | 00:00:00 | |
| BAUMI2-15 | 2026-08-31 12:38:42 | 48.64883 | 12.80026 | 53° | 31km/h | 18105m | -23.4m/s | -54.8°C | 4.4% | 78.7hPa | 2.7V | 00:00:00 | 02:09:20 | 00:00:00 | |
| DG1MFX-10 | 2026-08-31 12:38:40 | 48.64878 | 12.80017 | 50° | 31km/h | 18130m | -26.1m/s | -54.9°C | 1.4% | 78.5hPa | 2.7V | 08:20:00 | 00:00:00 | 00:00:00 | |
| OE5WHR-10 | 2026-08-31 12:38:39 | 48.64867 | 12.80000 | 44° | 22km/h | 18178m | -22.2m/s | -54.5°C | 4.3% | 77.7hPa | 2.7V | 00:00:00 | 00:00:00 | 00:00:00 | |
| OE5REO-15 | 2026-08-31 12:38:37 | 48.64862 | 12.79992 | 42° | 29km/h | 18201m | -22.3m/s | -54.4°C | 1.3% | 77.5hPa | 2.6V | 08:20:00 | 00:00:00 | 00:00:00 | |
| BAUMI2-15 | 2026-08-31 12:38:36 | 48.64851 | 12.79978 | 44° | 24km/h | 18246m | -22.7m/s | -54.5°C | 4.2% | 77.0hPa | 2.6V | 08:20:00 | 02:09:14 | 00:00:00 | |
| OE5MMP-10 | 2026-08-31 12:38:33 | 48.64837 | 12.79958 | 47° | 18km/h | 18316m | -22.5m/s | -54.8°C | 4.3% | 76.1hPa | 2.7V | 00:00:00 | 02:09:11 | 00:00:00 | |
| OE5DXL-15 | 2026-08-31 12:38:32 | 48.64833 | 12.79952 | 49° | 20km/h | 18339m | -22.7m/s | -54.9°C | 4.4% | 75.8hPa | 2.6V | 00:00:00 | 00:00:00 | 00:00:00 | |
| BAUMI2-15 | 2026-08-31 12:38:31 | 48.64830 | 12.79946 | 49° | 18km/h | 18361m | -22.7m/s | -54.8°C | 4.4% | 75.6hPa | 2.6V | 00:00:00 | 02:09:09 | 00:00:00 | |
| OE5GOL-10 | 2026-08-31 12:38:29 | 48.64823 | 12.79935 | 53° | 16km/h | 18406m | -22.9m/s | 0°C | 0% | 0hPa | 2.6V | 00:00:00 | 02:09:07 | 00:00:00 | |
| OE5HKT-10 | 2026-08-31 12:38:28 | 48.64821 | 12.79930 | 54° | 13km/h | 18429m | -23.1m/s | -54.2°C | 4.2% | 74.7hPa | 2.6V | 00:00:00 | 02:09:06 | 00:00:00 | |
| DK5PH-5 | 2026-08-31 12:38:27 | 48.64818 | 12.79925 | 47° | 20km/h | 18452m | -23.0m/s | -53.8°C | 4.1% | 74.5hPa | 2.6V | 00:00:00 | 02:09:05 | 00:00:00 | |
| BAUMI2-15 | 2026-08-31 12:38:26 | 48.64815 | 12.79921 | 46° | 16km/h | 18475m | -22.4m/s | -53.6°C | 4.0% | 74.2hPa | 2.6V | 00:00:00 | 02:09:04 | 00:00:00 | |
| OE5MMP-10 | 2026-08-31 12:38:23 | 48.64805 | 12.79910 | 32° | 20km/h | 18539m | -20.4m/s | -53.7°C | 4.0% | 73.4hPa | 2.6V | 00:00:00 | 02:09:01 | 00:00:00 | |
| BAUMI2-15 | 2026-08-31 12:38:21 | 48.64797 | 12.79901 | 36° | 22km/h | 18584m | -23.3m/s | -53.9°C | 4.0% | 73.0hPa | 2.6V | 00:00:00 | 02:08:59 | 00:00:00 | |
| DL6DJ-15 | 2026-08-31 12:38:20 | 48.64789 | 12.79891 | 37° | 22km/h | 18629m | -22.6m/s | -54.0°C | 1.2% | 72.5hPa | 2.7V | 00:00:00 | 00:00:00 | 00:00:00 | |
| DO3MHA-11 | 2026-08-31 12:38:19 | 48.64788 | 12.79891 | 38° | 20km/h | 18629m | -22.6m/s | -53.9°C | 4.0% | 72.4hPa | 2.7V | 00:00:00 | 02:08:57 | 00:00:00 | |
| OE5WHR-10 | 2026-08-31 12:38:18 | 48.64784 | 12.79886 | 42° | 20km/h | 18652m | -23.0m/s | -53.9°C | 4.1% | 72.2hPa | 2.7V | 00:00:00 | 00:00:00 | 00:00:00 | |
| BAUMI2-15 | 2026-08-31 12:38:16 | 48.64776 | 12.79874 | 51° | 20km/h | 18696m | -21.7m/s | -53.5°C | 3.9% | 71.7hPa | 2.7V | 00:00:00 | 02:08:54 | 00:00:00 | |
| OE5MMP-10 | 2026-08-31 12:38:13 | 48.64766 | 12.79856 | 50° | 18km/h | 18763m | -21.6m/s | -53.0°C | 3.7% | 70.9hPa | 2.7V | 00:00:00 | 02:08:51 | 00:00:00 | |
| BAUMI2-15 | 2026-08-31 12:38:11 | 48.64760 | 12.79847 | 41° | 18km/h | 18805m | -20.9m/s | -53.0°C | 3.7% | 70.5hPa | 2.7V | 00:00:00 | 02:08:49 | 00:00:00 | |
| DO3MHA-11 | 2026-08-31 12:38:09 | 48.64752 | 12.79839 | 34° | 24km/h | 18847m | -21.9m/s | -53.0°C | 3.7% | 70.0hPa | 2.7V | 08:21:00 | 02:08:47 | 00:00:00 | |
| BAUMI2-15 | 2026-08-31 12:38:06 | 48.64740 | 12.79830 | 22° | 20km/h | 18911m | -21.4m/s | -53.4°C | 3.8% | 69.4hPa | 2.6V | 00:00:00 | 02:08:44 | 00:00:00 | |
| OE5REO-15 | 2026-08-31 12:38:05 | 48.64740 | 12.79830 | 22° | 20km/h | 18911m | -21.5m/s | -53.4°C | 1.1% | 69.4hPa | 2.7V | 08:21:00 | 00:00:00 | 00:00:00 | |
| OE5MMP-10 | 2026-08-31 12:38:03 | 48.64726 | 12.79823 | 14° | 27km/h | 18977m | -22.8m/s | -53.3°C | 3.7% | 68.6hPa | 2.7V | 00:00:00 | 02:08:41 | 00:00:00 | |
| DL6DJ-15 | 2026-08-31 12:37:49 | 48.64621 | 12.79784 | 18° | 31km/h | 19303m | -24.3m/s | -54.5°C | 0% | 65.3hPa | 2.7V | 00:00:00 | 00:00:00 | 00:00:00 | |
| BAUMI2-15 | 2026-08-31 12:37:46 | 48.64606 | 12.79775 | 24° | 29km/h | 19351m | -24.3m/s | -54.7°C | 4.2% | 64.8hPa | 2.7V | 00:00:00 | 02:08:24 | 00:00:00 | |
| OE5MMP-10 | 2026-08-31 12:37:43 | 48.64586 | 12.79759 | 36° | 29km/h | 19420m | -23.3m/s | -54.9°C | 4.4% | 64.0hPa | 2.7V | 00:00:00 | 02:08:21 | 00:00:00 | |
| DO3MHA-11 | 2026-08-31 12:37:41 | 48.64575 | 12.79745 | 43° | 27km/h | 19468m | -24.0m/s | -54.4°C | 4.1% | 63.5hPa | 2.7V | 00:00:00 | 02:08:19 | 00:00:00 | |
| OE5REO-15 | 2026-08-31 12:37:36 | 48.64552 | 12.79701 | 59° | 29km/h | 19587m | -22.3m/s | -54.7°C | 1.2% | 62.4hPa | 2.7V | 08:22:00 | 00:00:00 | 00:00:00 | |
| OE5MMP-10 | 2026-08-31 12:37:33 | 48.64542 | 12.79673 | 58° | 24km/h | 19653m | -24.0m/s | -54.1°C | 4.1% | 61.7hPa | 2.7V | 08:22:00 | 02:08:11 | 00:00:00 | |
| DO3MHA-11 | 2026-08-31 12:37:31 | 48.64534 | 12.79658 | 53° | 22km/h | 19701m | -23.3m/s | -54.3°C | 4.1% | 61.2hPa | 2.6V | 00:00:00 | 02:08:09 | 00:00:00 | |
| OE5DXL-15 | 2026-08-31 12:37:30 | 48.64531 | 12.79651 | 49° | 18km/h | 19724m | -23.6m/s | -54.3°C | 4.2% | 61.0hPa | 2.6V | 08:22:00 | 00:00:00 | 00:00:00 | |
| DK5PH-5 | 2026-08-31 12:37:27 | 48.64518 | 12.79635 | 29° | 16km/h | 19797m | -24.9m/s | -54.0°C | 4.1% | 60.4hPa | 2.7V | 00:00:00 | 02:08:05 | 00:00:00 | |
| BAUMI2-15 | 2026-08-31 12:37:26 | 48.64513 | 12.79632 | 27° | 24km/h | 19821m | -23.2m/s | -54.0°C | 4.1% | 60.1hPa | 2.7V | 00:00:00 | 02:08:04 | 00:00:00 | |
| OE5MMP-10 | 2026-08-31 12:37:23 | 48.64497 | 12.79619 | 31° | 22km/h | 19890m | -23.1m/s | -54.2°C | 4.2% | 59.5hPa | 2.7V | 00:00:00 | 02:08:01 | 00:00:00 | |
| OE5FHM-15 | 2026-08-31 12:37:21 | 48.64486 | 12.79608 | 39° | 16km/h | 19939m | -24.2m/s | -54.3°C | 4.3% | 59.0hPa | 2.7V | 00:00:00 | 02:07:59 | 00:00:00 | |
| OE5REO-15 | 2026-08-31 12:37:19 | 48.64482 | 12.79602 | 47° | 24km/h | 19962m | -22.2m/s | -54.3°C | 1.3% | 58.8hPa | 2.6V | 08:22:00 | 00:00:00 | 00:00:00 | |
| DL6DJ-15 | 2026-08-31 12:37:18 | 48.64472 | 12.79584 | 53° | 18km/h | 20027m | -23.2m/s | -54.1°C | 1.2% | 58.2hPa | 2.6V | 00:00:00 | 00:00:00 | 00:00:00 | |
| BAUMI2-15 | 2026-08-31 12:37:16 | 48.64469 | 12.79578 | 58° | 16km/h | 20049m | -21.6m/s | -54.0°C | 4.2% | 58.0hPa | 2.6V | 00:00:00 | 02:07:54 | 00:00:00 | |
| OE5WHR-10 | 2026-08-31 12:37:15 | 48.64467 | 12.79572 | 62° | 15km/h | 20071m | -21.7m/s | -53.9°C | 4.2% | 57.8hPa | 2.6V | 00:00:00 | 00:00:00 | 00:00:00 | |
| OE5MMP-10 | 2026-08-31 12:37:13 | 48.64462 | 12.79561 | 59° | 11km/h | 20116m | -22.8m/s | -53.8°C | 4.2% | 57.4hPa | 2.6V | 00:00:00 | 02:07:51 | 00:00:00 | |
| BAUMI2-15 | 2026-08-31 12:37:11 | 48.64458 | 12.79553 | 49° | 11km/h | 20161m | -22.3m/s | -53.6°C | 4.1% | 57.0hPa | 2.6V | 00:00:00 | 02:07:49 | 00:00:00 | |
| OE5MMP-10 | 2026-08-31 12:37:03 | 48.64441 | 12.79537 | 13° | 16km/h | 20345m | -20.3m/s | -53.4°C | 4.1% | 55.3hPa | 2.6V | 00:00:00 | 02:07:41 | 00:00:00 | |
| DL6DJ-15 | 2026-08-31 12:36:47 | 48.64379 | 12.79497 | 33° | 13km/h | 20708m | -17.4m/s | -52.1°C | 1.1% | 52.3hPa | 2.7V | 00:00:00 | 00:00:00 | 00:00:00 | |
| OE5MMP-10 | 2026-08-31 12:36:43 | 48.64370 | 12.79486 | 44° | 15km/h | 20766m | -19.4m/s | -52.1°C | 3.7% | 51.8hPa | 2.7V | 00:00:00 | 02:07:21 | 00:00:00 | |
| DO3MHA-11 | 2026-08-31 12:36:40 | 48.64361 | 12.79473 | 39° | 15km/h | 20822m | -20.1m/s | -52.3°C | 3.7% | 51.3hPa | 2.7V | 00:00:00 | 02:07:18 | 00:00:00 | |
| PETON7-10 | 2026-08-31 12:36:36 | 48.64349 | 12.79464 | 17° | 15km/h | 20904m | -22.5m/s | -52.1°C | 3.7% | 50.7hPa | 2.7V | 00:00:00 | 02:07:14 | 00:00:00 | |
| OE5REO-15 | 2026-08-31 12:36:33 | 48.64339 | 12.79462 | 2° | 15km/h | 20969m | -21.3m/s | -52.3°C | 1.1% | 50.2hPa | 2.7V | 08:23:00 | 00:00:00 | 00:00:00 | |
| DO3MHA-11 | 2026-08-31 12:36:30 | 48.64327 | 12.79463 | 358° | 16km/h | 21033m | -21.0m/s | -52.5°C | 3.8% | 49.7hPa | 2.7V | 00:00:00 | 02:07:08 | 00:00:00 | |
| DK5PH-5 | 2026-08-31 12:36:27 | 48.64316 | 12.79463 | 13° | 16km/h | 21093m | -20.8m/s | -52.6°C | 3.9% | 49.2hPa | 2.6V | 00:00:00 | 02:07:05 | 00:00:00 | |
| OE5MMP-10 | 2026-08-31 12:36:23 | 48.64303 | 12.79451 | 51° | 18km/h | 21173m | -19.7m/s | -52.2°C | 3.8% | 48.6hPa | 2.6V | 00:00:00 | 02:07:01 | 00:00:00 | |
| PETON7-10 | 2026-08-31 12:36:21 | 48.64298 | 12.79440 | 61° | 18km/h | 21212m | -20.9m/s | -52.0°C | 3.7% | 48.3hPa | 2.6V | 00:00:00 | 00:00:00 | 00:00:00 | |
| DO3MHA-11 | 2026-08-31 12:36:20 | 48.64296 | 12.79433 | 65° | 20km/h | 21233m | -21.0m/s | -52.0°C | 3.7% | 48.1hPa | 2.6V | 00:00:00 | 02:06:58 | 00:00:00 | |
| OE5REO-15 | 2026-08-31 12:36:17 | 48.64292 | 12.79419 | 72° | 20km/h | 21273m | -18.7m/s | -52.2°C | 1.1% | 47.9hPa | 2.6V | 08:23:00 | 00:00:00 | 00:00:00 | |
| DG1MFX-10 | 2026-08-31 12:36:14 | 48.64288 | 12.79398 | 73° | 18km/h | 21330m | -20.5m/s | -52.3°C | 1.1% | 47.5hPa | 2.6V | 00:00:00 | 00:00:00 | 00:00:00 | |
| OE5MMP-10 | 2026-08-31 12:36:13 | 48.64285 | 12.79384 | 78° | 16km/h | 21373m | -22.7m/s | -52.0°C | 3.7% | 47.1hPa | 2.6V | 00:00:00 | 02:06:51 | 00:00:00 | |
| OE5WHR-10 | 2026-08-31 12:36:12 | 48.64284 | 12.79377 | 78° | 13km/h | 21396m | -21.8m/s | -51.9°C | 3.6% | 47.0hPa | 2.6V | 00:00:00 | 00:00:00 | 00:00:00 | |
| DO3MHA-11 | 2026-08-31 12:36:10 | 48.64282 | 12.79363 | 76° | 15km/h | 21443m | -25.3m/s | -51.7°C | 3.6% | 46.7hPa | 2.6V | 00:00:00 | 02:06:48 | 00:00:00 | |
| PETON7-10 | 2026-08-31 12:36:06 | 48.64280 | 12.79339 | 94° | 11km/h | 21541m | -22.9m/s | -51.9°C | 3.6% | 45.9hPa | 2.6V | 00:00:00 | 00:00:00 | 00:00:00 | |
| OE5MMP-10 | 2026-08-31 12:36:03 | 48.64282 | 12.79324 | 107° | 11km/h | 21608m | -22.4m/s | -52.1°C | 3.7% | 45.4hPa | 2.6V | 08:23:00 | 02:06:41 | 00:00:00 | |
| OE5REO-15 | 2026-08-31 12:36:02 | 48.64282 | 12.79324 | 107° | 13km/h | 21608m | -22.5m/s | -52.2°C | 1.0% | 45.5hPa | 2.6V | 08:23:00 | 00:00:00 | 00:00:00 | |
| DL6DJ-15 | 2026-08-31 12:35:44 | 48.64283 | 12.79271 | 58° | 5km/h | 22050m | -21.2m/s | -52.5°C | 1.1% | 42.4hPa | 2.6V | 00:00:00 | 00:00:00 | 00:00:00 | |
| OE5MMP-10 | 2026-08-31 12:35:43 | 48.64282 | 12.79268 | 60° | 11km/h | 22071m | -21.2m/s | -52.5°C | 3.8% | 42.3hPa | 2.6V | 00:00:00 | 02:06:21 | 00:00:00 | |
| PETON7-10 | 2026-08-31 12:35:36 | 48.64277 | 12.79245 | 104° | 13km/h | 22224m | -25.1m/s | -52.8°C | 3.9% | 41.3hPa | 2.6V | 00:00:00 | 00:00:00 | 00:00:00 | |
| OE5MMP-10 | 2026-08-31 12:35:33 | 48.64282 | 12.79227 | 119° | 13km/h | 22298m | -21.9m/s | -52.8°C | 3.9% | 40.8hPa | 2.7V | 00:00:00 | 02:06:11 | 00:00:00 | |
| OE5WHR-10 | 2026-08-31 12:35:30 | 48.64288 | 12.79211 | 121° | 13km/h | 22365m | -22.6m/s | -52.7°C | 3.8% | 40.4hPa | 2.6V | 00:00:00 | 00:00:00 | 00:00:00 | |
| DG1MFX-10 | 2026-08-31 12:35:29 | 48.64288 | 12.79211 | 122° | 15km/h | 22365m | -22.6m/s | -52.8°C | 1.1% | 40.4hPa | 2.6V | 08:24:00 | 00:00:00 | 00:00:00 | |
| DK5PH-5 | 2026-08-31 12:35:27 | 48.64293 | 12.79198 | 122° | 13km/h | 22435m | -22.1m/s | -52.9°C | 3.8% | 39.9hPa | 2.6V | 00:00:00 | 02:06:05 | 00:00:00 | |
| OE5MMP-10 | 2026-08-31 12:35:23 | 48.64299 | 12.79184 | 132° | 11km/h | 22527m | -21.2m/s | -53.4°C | 4.1% | 39.4hPa | 2.6V | 00:00:00 | 02:06:01 | 00:00:00 | |
| OE5FHM-15 | 2026-08-31 12:35:21 | 48.64303 | 12.79180 | 144° | 15km/h | 22572m | -21.7m/s | -53.4°C | 4.0% | 39.1hPa | 2.6V | 00:00:00 | 02:05:59 | 00:00:00 | |
| PETON7-10 | 2026-08-31 12:35:20 | 48.64305 | 12.79177 | 153° | 11km/h | 22595m | -24.1m/s | -53.2°C | 4.0% | 38.9hPa | 2.6V | 00:00:00 | 00:00:00 | 00:00:00 | |
| OE5MMP-10 | 2026-08-31 12:35:13 | 48.64327 | 12.79173 | 205° | 13km/h | 22759m | -20.8m/s | -53.4°C | 4.1% | 37.9hPa | 2.6V | 00:00:00 | 02:05:51 | 00:00:00 | |
| OE5WHR-10 | 2026-08-31 12:35:09 | 48.64337 | 12.79185 | 225° | 15km/h | 22840m | -21.0m/s | -53.4°C | 4.2% | 37.4hPa | 2.6V | 00:00:00 | 00:00:00 | 00:00:00 | |
| BAUMI2-15 | 2026-08-31 12:35:01 | 48.64347 | 12.79214 | 298° | 15km/h | 23019m | -23.1m/s | -52.9°C | 4.1% | 36.4hPa | 2.6V | 08:24:00 | 02:05:39 | 00:00:00 | |
| OE5DXL-15 | 2026-08-31 12:35:00 | 48.64345 | 12.79218 | 312° | 20km/h | 23042m | -22.3m/s | -52.8°C | 4.0% | 36.3hPa | 2.7V | 00:00:00 | 00:00:00 | 00:00:00 | |
| OE5REO-15 | 2026-08-31 12:34:59 | 48.64345 | 12.79218 | 312° | 13km/h | 23042m | -22.3m/s | -52.9°C | 1.1% | 36.3hPa | 2.7V | 08:25:00 | 00:00:00 | 00:00:00 | |
| OE8JPQ-2 | 2026-08-31 12:34:58 | 48.64340 | 12.79227 | 316° | 18km/h | 23086m | -23.1m/s | -52.6°C | 3.9% | 36.0hPa | 2.7V | 00:00:00 | 00:00:00 | 00:00:00 | |
| DK5PH-5 | 2026-08-31 12:34:57 | 48.64337 | 12.79231 | 315° | 22km/h | 23107m | -20.4m/s | -52.6°C | 4.0% | 35.9hPa | 2.7V | 00:00:00 | 02:05:35 | 00:00:00 | |
| BAUMI2-15 | 2026-08-31 12:34:56 | 48.64334 | 12.79237 | 312° | 18km/h | 23129m | -21.4m/s | -52.5°C | 3.9% | 35.8hPa | 2.7V | 00:00:00 | 02:05:34 | 00:00:00 | |
| OE5MMP-10 | 2026-08-31 12:34:53 | 48.64325 | 12.79254 | 300° | 15km/h | 23193m | -21.7m/s | -52.2°C | 3.8% | 35.4hPa | 2.7V | 00:00:00 | 02:05:31 | 00:00:00 | |
| OE5FHM-15 | 2026-08-31 12:34:51 | 48.64321 | 12.79266 | 298° | 24km/h | 23235m | -21.0m/s | -52.1°C | 3.8% | 35.2hPa | 2.7V | 00:00:00 | 02:05:29 | 00:00:00 | |
| OE5WHR-10 | 2026-08-31 12:34:48 | 48.64315 | 12.79279 | 316° | 24km/h | 23301m | -22.2m/s | -52.0°C | 3.8% | 34.8hPa | 2.7V | 00:00:00 | 02:05:26 | 00:00:00 | |
| BAUMI2-15 | 2026-08-31 12:34:46 | 48.64310 | 12.79286 | 326° | 16km/h | 23343m | -20.8m/s | -52.0°C | 3.7% | 34.5hPa | 2.7V | 00:00:00 | 02:05:24 | 00:00:00 | |
| OE5MMP-10 | 2026-08-31 12:34:43 | 48.64300 | 12.79299 | 312° | 24km/h | 23411m | -23.0m/s | -52.1°C | 3.8% | 34.2hPa | 2.6V | 00:00:00 | 02:05:21 | 00:00:00 | |
| DL6DJ-15 | 2026-08-31 12:34:42 | 48.64298 | 12.79304 | 304° | 18km/h | 23434m | -22.5m/s | -52.1°C | 1.0% | 34.1hPa | 2.6V | 00:00:00 | 00:00:00 | 00:00:00 | |
| BAUMI2-15 | 2026-08-31 12:34:41 | 48.64295 | 12.79311 | 304° | 22km/h | 23456m | -21.8m/s | -52.1°C | 3.8% | 34.0hPa | 2.6V | 00:00:00 | 02:05:19 | 00:00:00 | |
| OE8JPQ-2 | 2026-08-31 12:34:38 | 48.64286 | 12.79332 | 303° | 31km/h | 23519m | -20.6m/s | -51.9°C | 3.7% | 33.6hPa | 2.6V | 00:00:00 | 00:00:00 | 00:00:00 | |
| BAUMI2-15 | 2026-08-31 12:34:36 | 48.64278 | 12.79348 | 310° | 31km/h | 23563m | -22.2m/s | -51.8°C | 3.7% | 33.4hPa | 2.6V | 00:00:00 | 02:05:14 | 00:00:00 | |
| OE5DXL-15 | 2026-08-31 12:34:30 | 48.64241 | 12.79392 | 328° | 29km/h | 23697m | -23.7m/s | -52.0°C | 3.8% | 32.7hPa | 2.6V | 00:00:00 | 00:00:00 | 00:00:00 | |
| OE5REO-15 | 2026-08-31 12:34:28 | 48.64234 | 12.79399 | 333° | 35km/h | 23720m | -22.8m/s | -52.2°C | 1.1% | 32.6hPa | 2.7V | 08:25:00 | 00:00:00 | 00:00:00 | |
| OE5WHR-10 | 2026-08-31 12:34:27 | 48.64219 | 12.79410 | 334° | 31km/h | 23763m | -19.6m/s | -52.1°C | 3.9% | 32.4hPa | 2.7V | 08:25:00 | 00:00:00 | 00:00:00 | |
| BAUMI2-15 | 2026-08-31 12:34:25 | 48.64205 | 12.79420 | 341° | 29km/h | 23799m | -22.5m/s | -52.0°C | 3.8% | 32.2hPa | 2.6V | 00:00:00 | 02:05:03 | 00:00:00 | |
| OE5MMP-10 | 2026-08-31 12:34:23 | 48.64190 | 12.79427 | 341° | 31km/h | 23845m | -23.2m/s | -51.9°C | 3.7% | 31.9hPa | 2.7V | 00:00:00 | 02:05:01 | 00:00:00 | |
| OE5FHM-15 | 2026-08-31 12:34:21 | 48.64176 | 12.79434 | 342° | 26km/h | 23890m | -23.2m/s | -51.9°C | 3.7% | 31.8hPa | 2.7V | 08:25:00 | 02:04:59 | 00:00:00 | |
| BAUMI2-15 | 2026-08-31 12:34:20 | 48.64169 | 12.79438 | 339° | 31km/h | 23912m | -22.2m/s | -51.9°C | 3.7% | 31.6hPa | 2.7V | 00:00:00 | 02:04:58 | 00:00:00 | |
| OE8JPQ-2 | 2026-08-31 12:34:18 | 48.64154 | 12.79449 | 332° | 26km/h | 23964m | -26.9m/s | -52.0°C | 3.8% | 31.4hPa | 2.7V | 00:00:00 | 02:04:56 | 00:00:00 | |
| DO3MHA-11 | 2026-08-31 12:34:15 | 48.64134 | 12.79468 | 328° | 27km/h | 24043m | -24.3m/s | -51.9°C | 3.8% | 31.0hPa | 2.7V | 00:00:00 | 02:04:53 | 00:00:00 | |
| OE5MMP-10 | 2026-08-31 12:34:13 | 48.64120 | 12.79481 | 329° | 27km/h | 24090m | -22.8m/s | -51.9°C | 3.7% | 30.7hPa | 2.7V | 00:00:00 | 02:04:51 | 00:00:00 | |
| BAUMI2-15 | 2026-08-31 12:34:10 | 48.64099 | 12.79498 | 336° | 26km/h | 24161m | -22.9m/s | -51.9°C | 3.7% | 30.4hPa | 2.7V | 08:25:00 | 02:04:48 | 00:00:00 | |
| DG1MFX-10 | 2026-08-31 12:34:07 | 48.64086 | 12.79506 | 341° | 27km/h | 24206m | -23.5m/s | -51.9°C | 1.1% | 30.3hPa | 2.7V | 08:26:00 | 00:00:00 | 00:00:00 | |
| OE5WHR-10 | 2026-08-31 12:34:06 | 48.64075 | 12.79512 | 341° | 18km/h | 24256m | -26.5m/s | -51.9°C | 3.7% | 30.0hPa | 2.7V | 00:00:00 | 00:00:00 | 00:00:00 | |
| BAUMI2-15 | 2026-08-31 12:34:05 | 48.64069 | 12.79515 | 344° | 20km/h | 24282m | -24.5m/s | -52.1°C | 3.8% | 29.9hPa | 2.7V | 00:00:00 | 02:04:43 | 00:00:00 | |
| OE5MMP-10 | 2026-08-31 12:34:03 | 48.64059 | 12.79520 | 344° | 20km/h | 24327m | -21.8m/s | -52.2°C | 3.8% | 29.6hPa | 2.7V | 00:00:00 | 02:04:41 | 00:00:00 | |
| BAUMI2-15 | 2026-08-31 12:34:00 | 48.64044 | 12.79526 | 349° | 20km/h | 24395m | -23.7m/s | -52.3°C | 3.9% | 29.3hPa | 2.6V | 00:00:00 | 02:04:38 | 00:00:00 | |
| OE5REO-15 | 2026-08-31 12:33:58 | 48.64038 | 12.79527 | 355° | 20km/h | 24420m | -27.1m/s | -52.4°C | 1.1% | 29.3hPa | 2.6V | 08:26:00 | 00:00:00 | 00:00:00 | |
| DK5PH-5 | 2026-08-31 12:33:57 | 48.64028 | 12.79528 | 360° | 11km/h | 24474m | -26.0m/s | -52.3°C | 3.9% | 29.0hPa | 2.6V | 00:00:00 | 02:04:35 | 00:00:00 | |
| BAUMI2-15 | 2026-08-31 12:33:55 | 48.64018 | 12.79528 | 4° | 16km/h | 24522m | -22.2m/s | -52.1°C | 4.0% | 28.7hPa | 2.6V | 00:00:00 | 02:04:33 | 00:00:00 | |
| DO3MHA-11 | 2026-08-31 12:33:53 | 48.64008 | 12.79526 | 10° | 13km/h | 24568m | -22.0m/s | -52.1°C | 3.9% | 28.5hPa | 2.7V | 00:00:00 | 02:04:31 | 00:00:00 | |
| OE5FHM-15 | 2026-08-31 12:33:51 | 48.64001 | 12.79523 | 19° | 9km/h | 24612m | -20.6m/s | -52.1°C | 4.0% | 28.3hPa | 2.7V | 00:00:00 | 02:04:29 | 00:00:00 | |
| BAUMI2-15 | 2026-08-31 12:33:50 | 48.63997 | 12.79522 | 21° | 11km/h | 24632m | -19.8m/s | -52.0°C | 3.9% | 28.3hPa | 2.7V | 00:00:00 | 02:04:28 | 00:00:00 | |
| DG1MFX-10 | 2026-08-31 12:33:46 | 48.63991 | 12.79516 | 43° | 9km/h | 24699m | -23.8m/s | -51.9°C | 1.1% | 28.0hPa | 2.7V | 08:26:00 | 00:00:00 | 00:00:00 | |
| BAUMI2-15 | 2026-08-31 12:33:45 | 48.63987 | 12.79512 | 34° | 4km/h | 24745m | -22.3m/s | -51.7°C | 3.9% | 27.7hPa | 2.7V | 00:00:00 | 02:04:23 | 00:00:00 | |
| OE5MMP-10 | 2026-08-31 12:33:43 | 48.63984 | 12.79510 | 29° | 4km/h | 24791m | -22.9m/s | -51.3°C | 3.7% | 27.5hPa | 2.7V | 00:00:00 | 02:04:21 | 00:00:00 | |
| OE5REO-15 | 2026-08-31 12:33:42 | 48.63984 | 12.79510 | 29° | 5km/h | 24791m | -22.9m/s | -51.4°C | 1.0% | 27.6hPa | 2.7V | 08:26:00 | 00:00:00 | 00:00:00 | |
| BAUMI2-15 | 2026-08-31 12:33:40 | 48.63983 | 12.79509 | 330° | 2km/h | 24861m | -23.1m/s | -51.0°C | 3.6% | 27.2hPa | 2.7V | 00:00:00 | 02:04:18 | 00:00:00 | |
| OE8JPQ-2 | 2026-08-31 12:33:37 | 48.63982 | 12.79511 | 326° | 11km/h | 24930m | -21.6m/s | -50.7°C | 3.5% | 26.9hPa | 2.7V | 00:00:00 | 00:00:00 | 00:00:00 | |
| BAUMI2-15 | 2026-08-31 12:33:35 | 48.63981 | 12.79509 | 72° | 11km/h | 24977m | -26.9m/s | -50.7°C | 3.5% | 26.8hPa | 2.7V | 00:00:00 | 02:04:13 | 00:00:00 | |
| OE5MMP-10 | 2026-08-31 12:33:33 | 48.63980 | 12.79503 | 68° | 15km/h | 25029m | -25.9m/s | -50.6°C | 3.5% | 26.6hPa | 2.7V | 00:00:00 | 02:04:11 | 00:00:00 | |
| BAUMI2-15 | 2026-08-31 12:33:30 | 48.63976 | 12.79489 | 74° | 18km/h | 25105m | -24.8m/s | -50.6°C | 3.5% | 26.2hPa | 2.6V | 00:00:00 | 02:04:08 | 00:00:00 | |
| DK5PH-5 | 2026-08-31 12:33:27 | 48.63974 | 12.79469 | 85° | 9km/h | 25178m | -21.8m/s | -50.6°C | 3.5% | 25.9hPa | 2.6V | 00:00:00 | 02:04:05 | 00:00:00 | |
| DG1MFX-10 | 2026-08-31 12:33:26 | 48.63973 | 12.79469 | 86° | 18km/h | 25178m | -21.9m/s | -50.7°C | 1.0% | 25.9hPa | 2.6V | 08:26:00 | 00:00:00 | 00:00:00 | |
| BAUMI2-15 | 2026-08-31 12:33:25 | 48.63973 | 12.79457 | 90° | 11km/h | 25222m | -22.8m/s | -50.7°C | 3.5% | 25.7hPa | 2.6V | 08:26:00 | 02:04:03 | 00:00:00 | |
| OE5WHR-10 | 2026-08-31 12:33:24 | 48.63973 | 12.79452 | 89° | 9km/h | 25244m | -22.6m/s | -50.7°C | 3.5% | 25.6hPa | 2.6V | 00:00:00 | 00:00:00 | 00:00:00 | |
| OE5MMP-10 | 2026-08-31 12:33:23 | 48.63973 | 12.79448 | 97° | 7km/h | 25266m | -21.8m/s | -50.8°C | 3.5% | 25.6hPa | 2.6V | 00:00:00 | 02:04:01 | 00:00:00 | |
| OE5FHM-15 | 2026-08-31 12:33:21 | 48.63973 | 12.79442 | 94° | 9km/h | 25314m | -24.5m/s | -50.9°C | 3.6% | 25.4hPa | 2.6V | 00:00:00 | 02:03:59 | 00:00:00 | |
| BAUMI2-15 | 2026-08-31 12:33:20 | 48.63973 | 12.79439 | 101° | 5km/h | 25339m | -25.3m/s | -51.0°C | 3.6% | 25.3hPa | 2.6V | 00:00:00 | 02:03:58 | 00:00:00 | |
| OE8JPQ-2 | 2026-08-31 12:33:17 | 48.63975 | 12.79432 | 118° | 9km/h | 25410m | -23.6m/s | -51.1°C | 3.6% | 25.0hPa | 2.6V | 00:00:00 | 02:03:55 | 00:00:00 | |
| BAUMI2-15 | 2026-08-31 12:33:15 | 48.63976 | 12.79429 | 119° | 7km/h | 25456m | -23.5m/s | -51.2°C | 3.7% | 24.8hPa | 2.6V | 00:00:00 | 02:03:53 | 00:00:00 | |
| OE5MMP-10 | 2026-08-31 12:33:13 | 48.63977 | 12.79428 | 235° | 13km/h | 25501m | -21.2m/s | -51.3°C | 3.7% | 24.6hPa | 2.6V | 00:00:00 | 02:03:51 | 00:00:00 | |
| OE5REO-15 | 2026-08-31 12:33:11 | 48.63977 | 12.79429 | 258° | 4km/h | 25523m | -22.8m/s | -51.3°C | 1.0% | 24.6hPa | 2.6V | 08:26:00 | 00:00:00 | 00:00:00 | |
| DG1MFX-10 | 2026-08-31 12:33:05 | 48.63969 | 12.79453 | 316° | 18km/h | 25661m | -25.1m/s | -51.6°C | 1.1% | 24.1hPa | 2.6V | 08:26:00 | 00:00:00 | 00:00:00 | |
| OE5WHR-10 | 2026-08-31 12:33:03 | 48.63960 | 12.79466 | 333° | 9km/h | 25726m | -20.0m/s | -51.2°C | 3.8% | 23.8hPa | 2.6V | 00:00:00 | 00:00:00 | 00:00:00 | |
| OE5DXL-15 | 2026-08-31 12:33:00 | 48.63953 | 12.79467 | 49° | 15km/h | 25796m | -25.0m/s | -50.8°C | 3.7% | 23.5hPa | 2.6V | 08:26:00 | 00:00:00 | 00:00:00 | |
| OE8JPQ-2 | 2026-08-31 12:32:57 | 48.63953 | 12.79456 | 103° | 11km/h | 25867m | -23.8m/s | -50.8°C | 3.7% | 23.3hPa | 2.7V | 00:00:00 | 00:00:00 | 00:00:00 | |
| OE5REO-15 | 2026-08-31 12:32:55 | 48.63954 | 12.79451 | 108° | 15km/h | 25891m | -24.2m/s | -50.9°C | 1.0% | 23.2hPa | 2.7V | 08:26:00 | 00:00:00 | 00:00:00 | |
| DO3MHA-11 | 2026-08-31 12:32:54 | 48.63955 | 12.79442 | 92° | 9km/h | 25942m | -29.1m/s | -50.9°C | 3.7% | 23.0hPa | 2.7V | 00:00:00 | 02:03:32 | 00:00:00 | |
| OE5MMP-10 | 2026-08-31 12:32:53 | 48.63955 | 12.79437 | 90° | 9km/h | 25970m | -26.6m/s | -50.9°C | 3.7% | 22.9hPa | 2.7V | 00:00:00 | 02:03:31 | 00:00:00 | |
| OE5FHM-15 | 2026-08-31 12:32:51 | 48.63954 | 12.79429 | 62° | 15km/h | 26025m | -28.0m/s | -50.9°C | 3.7% | 22.7hPa | 2.7V | 00:00:00 | 02:03:29 | 00:00:00 | |
| DG1MFX-10 | 2026-08-31 12:32:46 | 48.63945 | 12.79423 | 346° | 9km/h | 26150m | -25.1m/s | -50.6°C | 1.0% | 22.3hPa | 2.6V | 08:26:00 | 00:00:00 | 00:00:00 | |
| DO3MHA-11 | 2026-08-31 12:32:44 | 48.63941 | 12.79425 | 333° | 15km/h | 26202m | -25.5m/s | -50.4°C | 3.6% | 22.1hPa | 2.6V | 00:00:00 | 02:03:22 | 00:00:00 | |
| OE5MMP-10 | 2026-08-31 12:32:43 | 48.63939 | 12.79427 | 325° | 20km/h | 26226m | -23.3m/s | -50.4°C | 3.7% | 22.0hPa | 2.6V | 00:00:00 | 02:03:21 | 00:00:00 | |
| OE5WHR-10 | 2026-08-31 12:32:42 | 48.63938 | 12.79429 | 328° | 16km/h | 26250m | -24.5m/s | -50.4°C | 3.7% | 21.9hPa | 2.6V | 00:00:00 | 02:03:20 | 00:00:00 | |
| OE5REO-15 | 2026-08-31 12:32:40 | 48.63936 | 12.79430 | 345° | 9km/h | 26273m | -23.1m/s | -50.3°C | 1.0% | 21.9hPa | 2.6V | 08:26:00 | 00:00:00 | 00:00:00 | |
| DL6DJ-15 | 2026-08-31 12:32:38 | 48.63927 | 12.79428 | 16° | 16km/h | 26343m | -23.5m/s | -50.0°C | 1.0% | 21.6hPa | 2.6V | 00:00:00 | 00:00:00 | 00:00:00 | |
| OE8JPQ-2 | 2026-08-31 12:32:37 | 48.63923 | 12.79426 | 19° | 11km/h | 26365m | -21.3m/s | -49.9°C | 3.6% | 21.5hPa | 2.6V | 00:00:00 | 00:00:00 | 00:00:00 | |
| DO3MHA-11 | 2026-08-31 12:32:34 | 48.63907 | 12.79414 | 34° | 22km/h | 26430m | -22.0m/s | -49.8°C | 3.5% | 21.3hPa | 2.6V | 00:00:00 | 02:03:12 | 00:00:00 | |
| OE5MMP-10 | 2026-08-31 12:32:31 | 48.63890 | 12.79395 | 37° | 15km/h | 26501m | -24.0m/s | -49.7°C | 3.5% | 21.1hPa | 2.6V | 00:00:00 | 02:03:09 | 00:00:00 | |
| OE5DXL-15 | 2026-08-31 12:32:29 | 48.63880 | 12.79382 | 43° | 9km/h | 26548m | -23.9m/s | -49.6°C | 3.4% | 20.9hPa | 2.7V | 00:00:00 | 00:00:00 | 00:00:00 | |
| DK5PH-5 | 2026-08-31 12:32:27 | 48.63872 | 12.79373 | 36° | 7km/h | 26596m | -24.9m/s | -49.5°C | 3.4% | 20.8hPa | 2.7V | 00:00:00 | 02:03:05 | 00:00:00 | |
| OE5REO-15 | 2026-08-31 12:32:26 | 48.63869 | 12.79371 | 16° | 11km/h | 26621m | -25.6m/s | -49.6°C | 0.9% | 20.7hPa | 2.7V | 08:27:00 | 00:00:00 | 00:00:00 | |
| DO3MHA-11 | 2026-08-31 12:32:24 | 48.63864 | 12.79370 | 346° | 5km/h | 26668m | -22.7m/s | -49.5°C | 3.4% | 20.5hPa | 2.7V | 00:00:00 | 02:03:02 | 00:00:00 | |
| PG1ADW-2 | 2026-08-31 12:32:22 | 48.63861 | 12.79372 | 331° | 5km/h | 26713m | -24.5m/s | -49.3°C | 3.4% | 20.3hPa | 2.7V | 00:00:00 | 00:00:00 | 00:00:00 | |
| OE5WHR-10 | 2026-08-31 12:32:21 | 48.63860 | 12.79373 | 336° | 7km/h | 26737m | -24.6m/s | -49.2°C | 3.4% | 20.3hPa | 2.7V | 00:00:00 | 00:00:00 | 00:00:00 | |
| DO3MHA-11 | 2026-08-31 12:32:14 | 48.63856 | 12.79362 | 80° | 7km/h | 26897m | -23.8m/s | -49.3°C | 3.5% | 19.8hPa | 2.7V | 08:27:00 | 02:02:52 | 00:00:00 | |
| OE5MMP-10 | 2026-08-31 12:32:11 | 48.63857 | 12.79354 | 128° | 7km/h | 26970m | -25.5m/s | -49.3°C | 3.4% | 19.6hPa | 2.7V | 00:00:00 | 02:02:49 | 00:00:00 | |
| OE5REO-15 | 2026-08-31 12:32:08 | 48.63860 | 12.79351 | 160° | 7km/h | 27019m | -23.0m/s | -49.5°C | 0.9% | 19.4hPa | 2.7V | 08:27:00 | 00:00:00 | 00:00:00 | |
| DO3MHA-11 | 2026-08-31 12:32:04 | 48.63865 | 12.79359 | 272° | 13km/h | 27152m | -27.7m/s | -49.4°C | 3.5% | 19.0hPa | 2.7V | 00:00:00 | 02:02:42 | 00:00:00 | |
| PG1ADW-2 | 2026-08-31 12:32:02 | 48.63864 | 12.79365 | 309° | 16km/h | 27206m | -26.6m/s | -49.2°C | 3.5% | 18.9hPa | 2.7V | 00:00:00 | 00:00:00 | 00:00:00 | |
| OE5MMP-10 | 2026-08-31 12:32:01 | 48.63862 | 12.79368 | 323° | 15km/h | 27233m | -28.3m/s | -49.1°C | 3.5% | 18.8hPa | 2.7V | 00:00:00 | 02:02:39 | 00:00:00 | |
| OE5WHR-10 | 2026-08-31 12:32:00 | 48.63860 | 12.79370 | 337° | 18km/h | 27261m | -28.8m/s | -49.0°C | 3.4% | 18.7hPa | 2.7V | 00:00:00 | 00:00:00 | 00:00:00 | |
| OE5DXL-15 | 2026-08-31 12:31:59 | 48.63857 | 12.79372 | 339° | 16km/h | 27290m | -27.7m/s | -48.9°C | 3.4% | 18.6hPa | 2.7V | 00:00:00 | 00:00:00 | 00:00:00 | |
| DK5PH-5 | 2026-08-31 12:31:57 | 48.63850 | 12.79374 | 1° | 16km/h | 27343m | -26.8m/s | -48.9°C | 3.4% | 18.5hPa | 2.7V | 00:00:00 | 02:02:35 | 00:00:00 | |
| DO3MHA-11 | 2026-08-31 12:31:54 | 48.63838 | 12.79374 | 6° | 22km/h | 27422m | -23.3m/s | -48.8°C | 3.5% | 18.2hPa | 2.7V | 00:00:00 | 02:02:32 | 00:00:00 | |
| OE5REO-15 | 2026-08-31 12:31:52 | 48.63834 | 12.79373 | 11° | 18km/h | 27444m | -21.7m/s | -48.8°C | 1.0% | 18.2hPa | 2.7V | 08:27:00 | 00:00:00 | 00:00:00 | |
| OE5MMP-10 | 2026-08-31 12:31:51 | 48.63824 | 12.79370 | 15° | 22km/h | 27490m | -28.3m/s | -48.6°C | 3.5% | 18.0hPa | 2.7V | 00:00:00 | 02:02:29 | 00:00:00 | |
| DO3MHA-11 | 2026-08-31 12:31:44 | 48.63785 | 12.79347 | 34° | 11km/h | 27669m | -25.4m/s | -48.0°C | 3.3% | 17.5hPa | 2.7V | 00:00:00 | 02:02:22 | 00:00:00 | |
| DG1MFX-10 | 2026-08-31 12:31:43 | 48.63780 | 12.79342 | 42° | 20km/h | 27694m | -25.3m/s | -48.0°C | 0.9% | 17.5hPa | 2.6V | 08:28:00 | 00:00:00 | 00:00:00 | |
| OE5MMP-10 | 2026-08-31 12:31:41 | 48.63775 | 12.79332 | 66° | 7km/h | 27747m | -27.4m/s | -47.8°C | 3.2% | 17.3hPa | 2.6V | 00:00:00 | 02:02:19 | 00:00:00 | |
| OE5WHR-10 | 2026-08-31 12:31:39 | 48.63774 | 12.79324 | 92° | 9km/h | 27804m | -28.5m/s | -47.7°C | 3.3% | 17.2hPa | 2.6V | 00:00:00 | 02:02:17 | 00:00:00 | |
| OE5REO-15 | 2026-08-31 12:31:37 | 48.63774 | 12.79322 | 93° | 5km/h | 27831m | -26.5m/s | -47.8°C | 0.9% | 17.2hPa | 2.6V | 08:28:00 | 00:00:00 | 00:00:00 | |
| DL6DJ-15 | 2026-08-31 12:31:36 | 48.63773 | 12.79317 | 43° | 4km/h | 27905m | -24.1m/s | -47.5°C | 0.9% | 16.9hPa | 2.6V | 00:00:00 | 00:00:00 | 00:00:00 | |
| DO3MHA-11 | 2026-08-31 12:31:34 | 48.63771 | 12.79316 | 34° | 13km/h | 27929m | -24.6m/s | -47.3°C | 3.2% | 16.8hPa | 2.6V | 00:00:00 | 02:02:12 | 00:00:00 | |
| OE5MMP-10 | 2026-08-31 12:31:31 | 48.63764 | 12.79308 | 40° | 11km/h | 28004m | -26.9m/s | -47.3°C | 3.2% | 16.6hPa | 2.6V | 08:28:00 | 02:02:09 | 00:00:00 | |
| OE5DXL-15 | 2026-08-31 12:31:29 | 48.63759 | 12.79299 | 54° | 11km/h | 28061m | -28.3m/s | -47.1°C | 3.2% | 16.5hPa | 2.7V | 00:00:00 | 00:00:00 | 00:00:00 | |
| DK5PH-5 | 2026-08-31 12:31:27 | 48.63756 | 12.79290 | 80° | 13km/h | 28118m | -30.1m/s | -47.0°C | 3.2% | 16.4hPa | 2.6V | 00:00:00 | 02:02:05 | 00:00:00 | |
| OE8JPQ-2 | 2026-08-31 12:31:25 | 48.63755 | 12.79282 | 91° | 11km/h | 28176m | -26.7m/s | -46.9°C | 3.2% | 16.2hPa | 2.6V | 00:00:00 | 00:00:00 | 00:00:00 | |
| DO3MHA-11 | 2026-08-31 12:31:24 | 48.63756 | 12.79279 | 110° | 9km/h | 28201m | -24.5m/s | -46.9°C | 3.2% | 16.1hPa | 2.6V | 00:00:00 | 02:02:02 | 00:00:00 | |
| OE5REO-15 | 2026-08-31 12:31:22 | 48.63756 | 12.79277 | 102° | 4km/h | 28229m | -31.1m/s | -46.8°C | 0.8% | 16.2hPa | 2.6V | 08:28:00 | 00:00:00 | 00:00:00 | |
| OE5FHM-15 | 2026-08-31 12:31:21 | 48.63756 | 12.79275 | 47° | 15km/h | 28290m | -29.1m/s | -46.9°C | 3.2% | 15.9hPa | 2.6V | 00:00:00 | 02:01:59 | 00:00:00 | |
| OE5WHR-10 | 2026-08-31 12:31:18 | 48.63751 | 12.79270 | 42° | 15km/h | 28371m | -26.6m/s | -47.0°C | 3.2% | 15.7hPa | 2.7V | 08:28:00 | 00:00:00 | 00:00:00 | |
| DO3MHA-11 | 2026-08-31 12:31:13 | 48.63742 | 12.79252 | 61° | 15km/h | 28521m | -29.7m/s | -46.1°C | 3.0% | 15.4hPa | 2.7V | 00:00:00 | 02:01:51 | 00:00:00 | |
| OE5MMP-10 | 2026-08-31 12:31:11 | 48.63740 | 12.79247 | 29° | 15km/h | 28576m | -25.6m/s | -46.1°C | 3.1% | 15.2hPa | 2.6V | 00:00:00 | 02:01:49 | 00:00:00 | |
| OE5REO-15 | 2026-08-31 12:31:06 | 48.63730 | 12.79250 | 342° | 16km/h | 28669m | -24.7m/s | -45.9°C | 0.8% | 15.0hPa | 2.6V | 08:28:00 | 00:00:00 | 00:00:00 | |
| DL6DJ-15 | 2026-08-31 12:31:05 | 48.63717 | 12.79253 | 4° | 16km/h | 28748m | -26.5m/s | -45.8°C | -1.0% | 14.9hPa | 2.6V | 00:00:00 | 00:00:00 | 00:00:00 | |
| DO3MHA-11 | 2026-08-31 12:31:02 | 48.63709 | 12.79247 | 43° | 16km/h | 28806m | -26.9m/s | -45.5°C | 3.0% | 14.7hPa | 2.6V | 00:00:00 | 02:01:40 | 00:00:00 | |
| OE5MMP-10 | 2026-08-31 12:31:01 | 48.63706 | 12.79242 | 53° | 20km/h | 28832m | -25.7m/s | -45.3°C | 3.0% | 14.6hPa | 2.6V | 00:00:00 | 02:01:39 | 00:00:00 | |
| OE5DXL-15 | 2026-08-31 12:30:59 | 48.63701 | 12.79229 | 65° | 16km/h | 28885m | -26.6m/s | -45.1°C | 2.9% | 14.5hPa | 2.7V | 00:00:00 | 00:00:00 | 00:00:00 | |
| BAUMI2-15 | 2026-08-31 12:30:58 | 48.63698 | 12.79222 | 63° | 20km/h | 28912m | -27.3m/s | -45.1°C | 2.9% | 14.5hPa | 2.7V | 00:00:00 | 02:01:36 | 00:00:00 | |
| OE5WHR-10 | 2026-08-31 12:30:57 | 48.63695 | 12.79216 | 57° | 16km/h | 28939m | -26.8m/s | -45.2°C | 2.9% | 14.4hPa | 2.7V | 00:00:00 | 00:00:00 | 00:00:00 | |
| BAUMI2-15 | 2026-08-31 12:30:52 | 48.63675 | 12.79197 | 12° | 15km/h | 29068m | -23.6m/s | -45.2°C | 2.9% | 14.1hPa | 2.7V | 00:00:00 | 02:01:30 | 00:00:00 | |
| OE5FHM-15 | 2026-08-31 12:30:51 | 48.63671 | 12.79195 | 10° | 16km/h | 29093m | -25.6m/s | -45.2°C | 2.9% | 14.0hPa | 2.7V | 00:00:00 | 02:01:29 | 00:00:00 | |
| OE5REO-15 | 2026-08-31 12:30:50 | 48.63671 | 12.79196 | 10° | 16km/h | 29093m | -25.6m/s | -45.3°C | 0.8% | 14.1hPa | 2.7V | 08:29:00 | 00:00:00 | 00:00:00 | |
| BAUMI2-15 | 2026-08-31 12:30:47 | 48.63660 | 12.79189 | 57° | 16km/h | 29200m | -26.6m/s | -45.1°C | 2.9% | 13.8hPa | 2.7V | 00:00:00 | 02:01:25 | 00:00:00 | |
| BAUMI2-15 | 2026-08-31 12:30:42 | 48.63656 | 12.79158 | 69° | 20km/h | 29313m | -22.8m/s | -44.7°C | 2.9% | 13.6hPa | 2.7V | 00:00:00 | 02:01:20 | 00:00:00 | |
| OE5MMP-10 | 2026-08-31 12:30:41 | 48.63654 | 12.79151 | 64° | 15km/h | 29336m | -23.4m/s | -44.6°C | 2.9% | 13.5hPa | 2.7V | 00:00:00 | 02:01:19 | 00:00:00 | |
| OE5HKT-10 | 2026-08-31 12:30:39 | 48.63648 | 12.79139 | 46° | 16km/h | 29380m | -21.6m/s | -44.5°C | 2.9% | 13.4hPa | 2.7V | 00:00:00 | 02:01:17 | 00:00:00 | |
| BAUMI2-15 | 2026-08-31 12:30:37 | 48.63641 | 12.79131 | 30° | 11km/h | 29430m | -25.2m/s | -44.2°C | 2.8% | 13.3hPa | 2.7V | 00:00:00 | 02:01:15 | 00:00:00 | |
| OE5WHR-10 | 2026-08-31 12:30:36 | 48.63638 | 12.79129 | 33° | 18km/h | 29454m | -24.2m/s | -44.0°C | 2.8% | 13.3hPa | 2.7V | 00:00:00 | 02:01:14 | 00:00:00 | |
| OE5REO-15 | 2026-08-31 12:30:35 | 48.63638 | 12.79129 | 34° | 13km/h | 29454m | -24.3m/s | -44.0°C | 0.7% | 13.3hPa | 2.7V | 08:29:00 | 00:00:00 | 00:00:00 | |
| DL6DJ-15 | 2026-08-31 12:30:34 | 48.63633 | 12.79121 | 58° | 9km/h | 29541m | -34.0m/s | -44.0°C | -1.0% | 13.2hPa | 2.7V | 00:00:00 | 00:00:00 | 00:00:00 | |
| DO3MHA-11 | 2026-08-31 12:30:32 | 48.63631 | 12.79117 | 74° | 20km/h | 29575m | -34.2m/s | -44.0°C | 2.8% | 13.0hPa | 2.7V | 00:00:00 | 02:01:10 | 00:00:00 | |
| OE5MMP-10 | 2026-08-31 12:30:31 | 48.63630 | 12.79112 | 80° | 18km/h | 29610m | -35.3m/s | -44.1°C | 2.8% | 13.0hPa | 2.7V | 00:00:00 | 02:01:09 | 00:00:00 | |
| OE5DXL-15 | 2026-08-31 12:30:29 | 48.63629 | 12.79101 | 75° | 22km/h | 29680m | -33.8m/s | -44.1°C | 2.8% | 12.8hPa | 2.7V | 00:00:00 | 00:00:00 | 00:00:00 | |
| BAUMI2-15 | 2026-08-31 12:30:27 | 48.63625 | 12.79089 | 63° | 20km/h | 29745m | -31.8m/s | -43.9°C | 2.8% | 12.7hPa | 2.7V | 00:00:00 | 02:01:05 | 00:00:00 | |
| BAUMI2-15 | 2026-08-31 12:30:22 | 48.63610 | 12.79059 | 57° | 22km/h | 29898m | -30.2m/s | -43.5°C | 2.7% | 12.4hPa | 2.7V | 00:00:00 | 02:01:00 | 00:00:00 | |
| OE5MMP-10 | 2026-08-31 12:30:21 | 48.63607 | 12.79052 | 66° | 24km/h | 29927m | -29.1m/s | -43.5°C | 2.7% | 12.3hPa | 2.7V | 00:00:00 | 02:00:59 | 00:00:00 | |
| DG1MFX-10 | 2026-08-31 12:30:20 | 48.63607 | 12.79052 | 66° | 20km/h | 29927m | -29.1m/s | -43.5°C | 0.7% | 12.4hPa | 2.7V | 08:29:00 | 00:00:00 | 00:00:00 | |
| OE5REO-15 | 2026-08-31 12:30:19 | 48.63605 | 12.79045 | 77° | 22km/h | 29956m | -29.3m/s | -43.6°C | 0.7% | 12.3hPa | 2.7V | 08:29:00 | 00:00:00 | 00:00:00 | |
| OE5HKT-10 | 2026-08-31 12:30:18 | 48.63604 | 12.79027 | 91° | 24km/h | 30012m | -27.6m/s | -43.6°C | 2.7% | 12.1hPa | 2.7V | 00:00:00 | 00:00:00 | 00:00:00 | |
| BAUMI2-15 | 2026-08-31 12:30:17 | 48.63605 | 12.79018 | 96° | 24km/h | 30039m | -25.0m/s | -43.6°C | 2.7% | 12.1hPa | 2.6V | 00:00:00 | 02:00:55 | 00:00:00 | |
| OE5WHR-10 | 2026-08-31 12:30:15 | 48.63607 | 12.79001 | 102° | 22km/h | 30089m | -26.2m/s | -43.4°C | 2.7% | 12.0hPa | 2.7V | 00:00:00 | 00:00:00 | 00:00:00 | |
| BAUMI2-15 | 2026-08-31 12:30:12 | 48.63610 | 12.78974 | 98° | 26km/h | 30176m | -31.0m/s | -43.2°C | 2.7% | 11.9hPa | 2.7V | 00:00:00 | 02:00:50 | 00:00:00 | |
| OE5MMP-10 | 2026-08-31 12:30:11 | 48.63610 | 12.78965 | 93° | 27km/h | 30206m | -29.3m/s | -43.2°C | 2.7% | 11.8hPa | 2.7V | 00:00:00 | 02:00:49 | 00:00:00 | |
| BAUMI2-15 | 2026-08-31 12:30:07 | 48.63608 | 12.78925 | 80° | 29km/h | 30312m | -27.0m/s | -43.0°C | 2.7% | 11.6hPa | 2.7V | 00:00:00 | 02:00:45 | 00:00:00 | |
| OE5REO-15 | 2026-08-31 12:30:04 | 48.63605 | 12.78902 | 85° | 31km/h | 30364m | -25.9m/s | -43.0°C | 0.7% | 11.5hPa | 2.7V | 08:29:00 | 00:00:00 | 00:00:00 | |
| OE5MMP-10 | 2026-08-31 12:30:01 | 48.63605 | 12.78864 | 101° | 11km/h | 30470m | -27.8m/s | -42.6°C | 2.6% | 11.3hPa | 2.7V | 00:00:00 | 02:00:39 | 08:30:00 | |
| DG1MFX-10 | 2026-08-31 12:30:00 | 48.63605 | 12.78864 | 101° | 18km/h | 30470m | -27.8m/s | -42.6°C | 0.7% | 11.4hPa | 2.7V | 00:00:00 | 00:00:00 | 00:00:00 | |
| OE5DXL-15 | 2026-08-31 12:29:59 | 48.63607 | 12.78852 | 110° | 13km/h | 30524m | -25.7m/s | -42.4°C | 2.7% | 11.2hPa | 2.7V | 00:00:00 | 00:00:00 | 00:00:00 | |
| DK5PH-5 | 2026-08-31 12:29:57 | 48.63609 | 12.78845 | 92° | 13km/h | 30578m | -31.2m/s | -42.2°C | 2.6% | 11.1hPa | 2.6V | 00:00:00 | 02:00:35 | 08:30:00 | |
| PG1ADW-2 | 2026-08-31 12:29:56 | 48.63608 | 12.78842 | 69° | 11km/h | 30608m | -29.6m/s | -42.2°C | 2.6% | 11.1hPa | 2.7V | 00:00:00 | 02:00:34 | 00:00:00 | |
| OE5WHR-10 | 2026-08-31 12:29:54 | 48.63605 | 12.78837 | 42° | 15km/h | 30668m | -30.9m/s | -42.1°C | 2.5% | 11.0hPa | 2.7V | 00:00:00 | 00:00:00 | 00:00:00 | |
| BAUMI2-15 | 2026-08-31 12:29:52 | 48.63601 | 12.78831 | 52° | 11km/h | 30728m | -28.0m/s | -42.0°C | 2.6% | 10.9hPa | 2.7V | 00:00:00 | 02:00:30 | 00:00:00 | |
| OE5MMP-10 | 2026-08-31 12:29:51 | 48.63600 | 12.78827 | 55° | 13km/h | 30758m | -30.9m/s | -42.0°C | 2.6% | 10.8hPa | 2.7V | 00:00:00 | 02:00:29 | 00:00:00 | |
| OE5REO-15 | 2026-08-31 12:29:48 | 48.63598 | 12.78821 | 87° | 9km/h | 30816m | -27.2m/s | -42.0°C | 0.7% | 10.8hPa | 2.7V | 00:00:00 | 00:00:00 | 00:00:00 | |
| BAUMI2-15 | 2026-08-31 12:29:47 | 48.63597 | 12.78812 | 86° | 16km/h | 30866m | -24.1m/s | -42.1°C | 2.7% | 10.6hPa | 2.7V | 00:00:00 | 02:00:25 | 08:30:00 | |
| BAUMI2-15 | 2026-08-31 12:29:42 | 48.63592 | 12.78783 | 58° | 16km/h | 31016m | -33.0m/s | -41.7°C | 2.6% | 10.4hPa | 2.6V | 00:00:00 | 02:00:20 | 00:00:00 | |
| OE5MMP-10 | 2026-08-31 12:29:41 | 48.63589 | 12.78778 | 55° | 15km/h | 31048m | -31.0m/s | -41.7°C | 2.7% | 10.4hPa | 2.6V | 00:00:00 | 02:00:19 | 00:00:00 | |
| DG1MFX-10 | 2026-08-31 12:29:40 | 48.63589 | 12.78778 | 56° | 18km/h | 31048m | -31.1m/s | -41.7°C | 0.7% | 10.4hPa | 2.6V | 00:00:00 | 00:00:00 | 00:00:00 | |
| BAUMI2-15 | 2026-08-31 12:29:37 | 48.63581 | 12.78756 | 80° | 16km/h | 31168m | -29.0m/s | -41.4°C | 2.6% | 10.1hPa | 2.6V | 00:00:00 | 02:00:15 | 00:00:00 | |
| OE5HKT-10 | 2026-08-31 12:29:36 | 48.63581 | 12.78751 | 93° | 15km/h | 31200m | -33.8m/s | -41.1°C | 2.5% | 10.1hPa | 2.6V | 00:00:00 | 02:00:14 | 00:00:00 | |
| OE5WHR-10 | 2026-08-31 12:29:33 | 48.63584 | 12.78736 | 127° | 16km/h | 31304m | -33.7m/s | -40.8°C | 2.4% | 9.9hPa | 2.6V | 00:00:00 | 02:00:11 | 00:00:00 | |
| OE5REO-15 | 2026-08-31 12:29:32 | 48.63584 | 12.78736 | 127° | 11km/h | 31304m | -33.7m/s | -40.8°C | 0.6% | 10.0hPa | 2.6V | 00:00:00 | 00:00:00 | 00:00:00 | |
| OE5MMP-10 | 2026-08-31 12:29:31 | 48.63586 | 12.78732 | 181° | 13km/h | 31375m | -37.1m/s | -40.5°C | 2.4% | 9.9hPa | 2.6V | 00:00:00 | 02:00:09 | 00:00:00 | |
| DK5PH-5 | 2026-08-31 12:29:27 | 48.63582 | 12.78739 | 329° | 24km/h | 31511m | -32.0m/s | -40.1°C | 2.4% | 9.6hPa | 2.7V | 00:00:00 | 02:00:05 | 00:00:00 | |
| OE5DXL-15 | 2026-08-31 12:29:26 | 48.63579 | 12.78742 | 332° | 24km/h | 31542m | -30.6m/s | -40.0°C | 2.4% | 9.6hPa | 2.7V | 00:00:00 | 00:00:00 | 00:00:00 | |
| PG1ADW-2 | 2026-08-31 12:29:23 | 48.63566 | 12.78749 | 353° | 26km/h | 31627m | -26.9m/s | -39.4°C | 2.2% | 9.5hPa | 2.7V | 00:00:00 | 00:00:00 | 08:30:00 | |
| OE5FHM-15 | 2026-08-31 12:29:21 | 48.63557 | 12.78747 | 24° | 24km/h | 31689m | -33.4m/s | -39.3°C | 2.2% | 9.4hPa | 2.7V | 00:00:00 | 01:59:59 | 00:00:00 | |
| DG1MFX-10 | 2026-08-31 12:29:20 | 48.63557 | 12.78747 | 24° | 18km/h | 31689m | -33.5m/s | -39.4°C | 0.6% | 9.4hPa | 2.7V | 00:00:00 | 00:00:00 | 00:00:00 | |
| OE8JPQ-2 | 2026-08-31 12:29:18 | 48.63545 | 12.78733 | 44° | 26km/h | 31790m | -31.2m/s | -39.5°C | 2.2% | 9.2hPa | 2.7V | 00:00:00 | 00:00:00 | 00:00:00 | |
| BAUMI2-15 | 2026-08-31 12:29:16 | 48.63537 | 12.78721 | 42° | 26km/h | 31851m | -29.1m/s | -39.6°C | 2.2% | 9.1hPa | 2.6V | 00:00:00 | 01:59:54 | 00:00:00 | |
| OE5HKT-10 | 2026-08-31 12:29:15 | 48.63532 | 12.78715 | 38° | 24km/h | 31879m | -27.1m/s | -39.7°C | 2.2% | 9.1hPa | 2.6V | 00:00:00 | 00:00:00 | 00:00:00 | |
| OE5WHR-10 | 2026-08-31 12:29:12 | 48.63516 | 12.78699 | 32° | 24km/h | 31947m | -22.9m/s | -39.6°C | 2.2% | 9.0hPa | 2.7V | 00:00:00 | 00:00:00 | 00:00:00 | |
| OE5MMP-10 | 2026-08-31 12:29:11 | 48.63510 | 12.78693 | 33° | 27km/h | 31972m | -26.9m/s | -39.6°C | 2.3% | 8.9hPa | 2.7V | 00:00:00 | 01:59:49 | 00:00:00 | |
| OE5MMP-10 | 2026-08-31 12:29:01 | 48.63471 | 12.78606 | 67° | 20km/h | 32138m | 6.4m/s | -39.3°C | 2.3% | 8.7hPa | 2.7V | 00:00:00 | 01:59:39 | 00:00:00 | |
| DG1MFX-10 | 2026-08-31 12:29:00 | 48.63471 | 12.78606 | 68° | 27km/h | 32138m | 6.4m/s | -39.3°C | 0.6% | 8.7hPa | 2.7V | 00:00:00 | 00:00:00 | 00:00:00 | |
| DK5PH-5 | 2026-08-31 12:28:57 | 48.63466 | 12.78575 | 72° | 26km/h | 32115m | 5.4m/s | -39.3°C | 2.3% | 8.7hPa | 2.7V | 00:00:00 | 01:59:35 | 00:00:00 | |
| OE5DXL-15 | 2026-08-31 12:28:56 | 48.63464 | 12.78569 | 59° | 26km/h | 32109m | 6.9m/s | -39.4°C | 2.3% | 8.7hPa | 2.7V | 00:00:00 | 00:00:00 | 00:00:00 | |
| OE5HKT-10 | 2026-08-31 12:28:54 | 48.63458 | 12.78559 | 41° | 24km/h | 32097m | 5.0m/s | -39.5°C | 2.4% | 8.7hPa | 2.7V | 00:00:00 | 00:00:00 | 00:00:00 | |
| OE5FHM-15 | 2026-08-31 12:28:51 | 48.63449 | 12.78543 | 70° | 26km/h | 32080m | 5.9m/s | -39.5°C | 2.4% | 8.8hPa | 2.7V | 00:00:00 | 01:59:29 | 00:00:00 | |
| OE5REO-15 | 2026-08-31 12:28:46 | 48.63442 | 12.78512 | 59° | 29km/h | 32058m | 6.8m/s | -39.6°C | 0.6% | 8.9hPa | 2.7V | 00:00:00 | 00:00:00 | 00:00:00 | |
| OE5MMP-10 | 2026-08-31 12:28:41 | 48.63415 | 12.78454 | 65° | 24km/h | 32023m | 5.2m/s | -39.6°C | 2.4% | 8.8hPa | 2.7V | 00:00:00 | 01:59:19 | 00:00:00 | |
| DG1MFX-10 | 2026-08-31 12:28:39 | 48.63413 | 12.78446 | 62° | 20km/h | 32017m | 6.1m/s | -39.6°C | 0.6% | 8.9hPa | 2.7V | 00:00:00 | 00:00:00 | 00:00:00 | |
| OE5HKT-10 | 2026-08-31 12:28:33 | 48.63390 | 12.78398 | 55° | 26km/h | 31976m | 4.4m/s | -39.4°C | 2.3% | 8.9hPa | 2.7V | 00:00:00 | 01:59:11 | 00:00:00 | |
| OE5MMP-10 | 2026-08-31 12:28:31 | 48.63379 | 12.78381 | 40° | 27km/h | 31965m | 7.1m/s | -39.5°C | 2.3% | 8.9hPa | 2.7V | 00:00:00 | 01:59:09 | 08:30:00 | |
| OE8JPQ-2 | 2026-08-31 12:28:30 | 48.63372 | 12.78374 | 31° | 26km/h | 31958m | 6.1m/s | -39.4°C | 2.3% | 8.9hPa | 2.6V | 00:00:00 | 00:00:00 | 00:00:00 | |
| OE5WHR-10 | 2026-08-31 12:28:29 | 48.63364 | 12.78367 | 28° | 26km/h | 31952m | 5.2m/s | -39.4°C | 2.3% | 8.9hPa | 2.6V | 00:00:00 | 01:59:07 | 00:00:00 | |
| OE5DXL-15 | 2026-08-31 12:28:26 | 48.63345 | 12.78348 | 46° | 24km/h | 31936m | 6.7m/s | -39.6°C | 2.4% | 9.0hPa | 2.6V | 00:00:00 | 00:00:00 | 08:30:00 | |
| DK5PH-5 | 2026-08-31 12:28:25 | 48.63342 | 12.78342 | 62° | 24km/h | 31929m | 5.9m/s | -39.5°C | 2.3% | 9.0hPa | 2.7V | 00:00:00 | 01:59:03 | 00:00:00 | |
| OE5MMP-10 | 2026-08-31 12:28:21 | 48.63332 | 12.78316 | 47° | 24km/h | 31906m | 5.3m/s | -39.6°C | 2.4% | 9.0hPa | 2.7V | 00:00:00 | 01:58:59 | 00:00:00 | |
| DG1MFX-10 | 2026-08-31 12:28:18 | 48.63323 | 12.78303 | 42° | 26km/h | 31896m | 4.9m/s | -39.5°C | 0.6% | 9.1hPa | 2.7V | 00:00:00 | 00:00:00 | 00:00:00 | |
| OE5REO-15 | 2026-08-31 12:28:15 | 48.63310 | 12.78284 | 48° | 22km/h | 31878m | 5.3m/s | -39.5°C | 0.6% | 9.1hPa | 2.7V | 00:00:00 | 00:00:00 | 00:00:00 | |
| OE5HKT-10 | 2026-08-31 12:28:12 | 48.63290 | 12.78264 | 23° | 24km/h | 31855m | 5.9m/s | -39.4°C | 2.3% | 9.1hPa | 2.7V | 00:00:00 | 00:00:00 | 08:30:00 | |
| OE5MMP-10 | 2026-08-31 12:28:11 | 48.63284 | 12.78260 | 21° | 22km/h | 31849m | 5.3m/s | -39.4°C | 2.3% | 9.1hPa | 2.7V | 00:00:00 | 01:58:49 | 00:00:00 | |
| OE5WHR-10 | 2026-08-31 12:28:08 | 48.63267 | 12.78248 | 36° | 22km/h | 31833m | 6.5m/s | -39.4°C | 2.3% | 9.1hPa | 2.7V | 00:00:00 | 00:00:00 | 08:30:00 | |
| OE8JPQ-2 | 2026-08-31 12:28:05 | 48.63258 | 12.78237 | 28° | 20km/h | 31816m | 6.1m/s | -39.4°C | 2.3% | 9.1hPa | 2.6V | 00:00:00 | 01:58:43 | 00:00:00 | |
| DL6DJ-15 | 2026-08-31 12:27:58 | 48.63215 | 12.78220 | 23° | 26km/h | 31775m | 5.0m/s | -39.6°C | 0.6% | 9.2hPa | 2.6V | 00:00:00 | 00:00:00 | 00:00:00 | |
| OE5DXL-15 | 2026-08-31 12:27:56 | 48.63187 | 12.78208 | 6° | 15km/h | 31753m | 4.9m/s | -39.4°C | 2.3% | 9.2hPa | 2.6V | 00:00:00 | 00:00:00 | 00:00:00 | |
| PG1ADW-2 | 2026-08-31 12:27:54 | 48.63187 | 12.78208 | 6° | 18km/h | 31753m | 4.9m/s | -39.4°C | 2.3% | 9.2hPa | 2.6V | 00:00:00 | 00:00:00 | 00:00:00 | |
| OE5MMP-10 | 2026-08-31 12:27:51 | 48.63172 | 12.78208 | 344° | 18km/h | 31734m | 6.2m/s | -39.3°C | 2.3% | 9.3hPa | 2.6V | 00:00:00 | 01:58:29 | 00:00:00 | |
| OE5WHR-10 | 2026-08-31 12:27:47 | 48.63162 | 12.78221 | 323° | 16km/h | 31711m | 6.6m/s | -39.3°C | 2.2% | 9.3hPa | 2.6V | 00:00:00 | 00:00:00 | 00:00:00 | |
| OE8JPQ-2 | 2026-08-31 12:27:44 | 48.63145 | 12.78230 | 360° | 13km/h | 31693m | 6.6m/s | -39.2°C | 2.2% | 9.3hPa | 2.6V | 00:00:00 | 00:00:00 | 00:00:00 | |
| DO3MHA-11 | 2026-08-31 12:27:41 | 48.63130 | 12.78222 | 35° | 18km/h | 31676m | 4.9m/s | -39.4°C | 2.3% | 9.3hPa | 2.7V | 00:00:00 | 01:58:19 | 08:30:00 | |
| DG1MFX-10 | 2026-08-31 12:27:39 | 48.63122 | 12.78216 | 20° | 16km/h | 31665m | 6.4m/s | -39.4°C | 0.6% | 9.4hPa | 2.6V | 00:00:00 | 00:00:00 | 00:00:00 | |
| OE5MMP-10 | 2026-08-31 12:27:31 | 48.63105 | 12.78222 | 320° | 7km/h | 31618m | 6.9m/s | -40.0°C | 2.3% | 9.4hPa | 2.6V | 00:00:00 | 01:58:09 | 00:00:00 | |
| DO3MHA-11 | 2026-08-31 12:27:30 | 48.63103 | 12.78224 | 325° | 7km/h | 31611m | 6.1m/s | -40.1°C | 2.3% | 9.4hPa | 2.6V | 00:00:00 | 01:58:08 | 00:00:00 | |
| OE5REO-15 | 2026-08-31 12:27:29 | 48.63103 | 12.78224 | 326° | 11km/h | 31611m | 6.1m/s | -40.1°C | 0.6% | 9.5hPa | 2.6V | 00:00:00 | 00:00:00 | 00:00:00 | |
| DL6DJ-15 | 2026-08-31 12:27:28 | 48.63096 | 12.78228 | 4° | 5km/h | 31593m | 6.8m/s | -40.1°C | 0.6% | 9.5hPa | 2.6V | 00:00:00 | 00:00:00 | 00:00:00 | |
| OE5WHR-10 | 2026-08-31 12:27:26 | 48.63095 | 12.78227 | 37° | 7km/h | 31586m | 6.0m/s | -40.1°C | 2.3% | 9.5hPa | 2.6V | 00:00:00 | 01:58:04 | 00:00:00 | |
| OE5MMP-10 | 2026-08-31 12:27:21 | 48.63092 | 12.78233 | 291° | 5km/h | 31557m | 5.4m/s | -40.2°C | 2.3% | 9.5hPa | 2.6V | 00:00:00 | 01:57:59 | 00:00:00 | |
| OE8JPQ-2 | 2026-08-31 12:27:18 | 48.63091 | 12.78239 | 256° | 15km/h | 31538m | 5.2m/s | -40.4°C | 2.3% | 9.5hPa | 2.6V | 00:00:00 | 00:00:00 | 00:00:00 | |
| DG1MFX-10 | 2026-08-31 12:27:17 | 48.63091 | 12.78239 | 0° | 0km/h | 31538m | 5.3m/s | -40.4°C | 0.6% | 9.6hPa | 2.6V | 00:00:00 | 00:00:00 | 00:00:00 | |
| OE5REO-15 | 2026-08-31 12:27:14 | 48.63089 | 12.78240 | 8° | 5km/h | 31520m | 5.5m/s | -40.3°C | 0.6% | 9.6hPa | 2.6V | 00:00:00 | 00:00:00 | 00:00:00 | |
| OE5MMP-10 | 2026-08-31 12:27:11 | 48.63086 | 12.78230 | 106° | 9km/h | 31496m | 5.8m/s | -40.4°C | 2.4% | 9.6hPa | 2.6V | 00:00:00 | 01:57:49 | 00:00:00 | |
| OE5HKT-10 | 2026-08-31 12:27:09 | 48.63088 | 12.78224 | 130° | 15km/h | 31486m | 4.9m/s | -40.5°C | 2.4% | 9.6hPa | 2.6V | 00:00:00 | 00:00:00 | 00:00:00 | |
| BAUMI2-15 | 2026-08-31 12:27:05 | 48.63087 | 12.78232 | 293° | 7km/h | 31463m | 4.3m/s | -40.6°C | 2.4% | 9.6hPa | 2.7V | 00:00:00 | 01:57:43 | 00:00:00 | |
| OE5WHR-10 | 2026-08-31 12:27:04 | 48.63086 | 12.78236 | 293° | 15km/h | 31458m | 4.2m/s | -40.6°C | 2.4% | 9.6hPa | 2.7V | 00:00:00 | 00:00:00 | 00:00:00 | |
| OE5MMP-10 | 2026-08-31 12:27:01 | 48.63086 | 12.78229 | 102° | 20km/h | 31441m | 6.4m/s | -40.6°C | 2.4% | 9.7hPa | 2.6V | 00:00:00 | 01:57:39 | 08:30:00 | |
| BAUMI2-15 | 2026-08-31 12:27:00 | 48.63088 | 12.78219 | 98° | 27km/h | 31434m | 6.1m/s | -40.7°C | 2.4% | 9.7hPa | 2.7V | 00:00:00 | 01:57:38 | 00:00:00 | |
| DO3MHA-11 | 2026-08-31 12:26:59 | 48.63088 | 12.78207 | 94° | 16km/h | 31428m | 5.9m/s | -40.8°C | 2.4% | 9.7hPa | 2.7V | 00:00:00 | 01:57:37 | 00:00:00 | |
| OE5REO-15 | 2026-08-31 12:26:58 | 48.63088 | 12.78207 | 95° | 35km/h | 31428m | 6.0m/s | -40.8°C | 0.6% | 9.7hPa | 2.6V | 00:00:00 | 00:00:00 | 00:00:00 | |
| OE5DXL-15 | 2026-08-31 12:26:57 | 48.63088 | 12.78176 | 92° | 15km/h | 31413m | 4.6m/s | -40.7°C | 2.4% | 9.7hPa | 2.6V | 00:00:00 | 00:00:00 | 00:00:00 | |
| BAUMI2-15 | 2026-08-31 12:26:55 | 48.63089 | 12.78171 | 118° | 11km/h | 31407m | 5.7m/s | -40.7°C | 2.4% | 9.7hPa | 2.6V | 00:00:00 | 01:57:33 | 00:00:00 | |
| OE5FHM-15 | 2026-08-31 12:26:51 | 48.63100 | 12.78171 | 195° | 13km/h | 31383m | 4.7m/s | -40.8°C | 2.4% | 9.8hPa | 2.6V | 00:00:00 | 01:57:29 | 00:00:00 | |
| OE5HKT-10 | 2026-08-31 12:26:48 | 48.63103 | 12.78170 | 42° | 16km/h | 31366m | 6.3m/s | -40.8°C | 2.4% | 9.8hPa | 2.7V | 00:00:00 | 00:00:00 | 00:00:00 | |
| BAUMI2-15 | 2026-08-31 12:26:44 | 48.63094 | 12.78144 | 83° | 24km/h | 31341m | 6.2m/s | -41.1°C | 2.5% | 9.8hPa | 2.7V | 00:00:00 | 01:57:22 | 00:00:00 | |
| OE5WHR-10 | 2026-08-31 12:26:43 | 48.63093 | 12.78134 | 91° | 13km/h | 31335m | 5.7m/s | -41.1°C | 2.5% | 9.9hPa | 2.7V | 00:00:00 | 00:00:00 | 00:00:00 | |
| OE5REO-15 | 2026-08-31 12:26:42 | 48.63093 | 12.78134 | 92° | 27km/h | 31335m | 5.8m/s | -41.1°C | 0.6% | 9.9hPa | 2.7V | 00:00:00 | 00:00:00 | 00:00:00 | |
| OE5MMP-10 | 2026-08-31 12:26:41 | 48.63094 | 12.78115 | 94° | 11km/h | 31322m | 6.3m/s | -40.9°C | 2.5% | 9.9hPa | 2.7V | 00:00:00 | 01:57:19 | 00:00:00 | |
| DO3MHA-11 | 2026-08-31 12:26:39 | 48.63095 | 12.78103 | 101° | 13km/h | 31311m | 5.3m/s | -41.0°C | 2.5% | 9.9hPa | 2.7V | 00:00:00 | 01:57:17 | 00:00:00 | |
| DG1MFX-10 | 2026-08-31 12:26:35 | 48.63098 | 12.78096 | 156° | 5km/h | 31293m | 5.4m/s | -41.1°C | 0.7% | 10.0hPa | 2.7V | 00:00:00 | 00:00:00 | 00:00:00 | |
| BAUMI2-15 | 2026-08-31 12:26:34 | 48.63099 | 12.78094 | 27° | 15km/h | 31282m | 6.4m/s | -41.1°C | 2.5% | 9.9hPa | 2.7V | 00:00:00 | 01:57:12 | 00:00:00 | |
| OE5MMP-10 | 2026-08-31 12:26:31 | 48.63090 | 12.78088 | 35° | 13km/h | 31263m | 4.8m/s | -41.1°C | 2.5% | 10.0hPa | 2.6V | 00:00:00 | 01:57:09 | 00:00:00 | |
| DO3MHA-11 | 2026-08-31 12:26:28 | 48.63083 | 12.78070 | 87° | 9km/h | 31244m | 5.9m/s | -41.0°C | 2.5% | 10.0hPa | 2.7V | 00:00:00 | 01:57:06 | 00:00:00 | |
| OE5DXL-15 | 2026-08-31 12:26:27 | 48.63084 | 12.78057 | 107° | 16km/h | 31233m | 6.2m/s | -41.1°C | 2.6% | 10.0hPa | 2.7V | 00:00:00 | 00:00:00 | 00:00:00 | |
| DL6DJ-15 | 2026-08-31 12:26:26 | 48.63085 | 12.78052 | 109° | 9km/h | 31226m | 6.8m/s | -41.2°C | 0.6% | 10.1hPa | 2.7V | 00:00:00 | 00:00:00 | 00:00:00 | |
| BAUMI2-15 | 2026-08-31 12:26:23 | 48.63086 | 12.78048 | 143° | 5km/h | 31215m | 5.7m/s | -41.3°C | 2.6% | 10.0hPa | 2.7V | 00:00:00 | 01:57:01 | 00:00:00 | |
| OE5WHR-10 | 2026-08-31 12:26:22 | 48.63087 | 12.78047 | 166° | 18km/h | 31209m | 5.9m/s | -41.4°C | 2.6% | 10.0hPa | 2.7V | 00:00:00 | 01:57:00 | 00:00:00 | |
| OE5MMP-10 | 2026-08-31 12:26:21 | 48.63088 | 12.78047 | 159° | 20km/h | 31202m | 6.5m/s | -41.5°C | 2.6% | 10.0hPa | 2.7V | 00:00:00 | 01:56:59 | 00:00:00 | |
| DO3MHA-11 | 2026-08-31 12:26:18 | 48.63090 | 12.78040 | 78° | 26km/h | 31186m | 5.5m/s | -41.6°C | 2.6% | 10.1hPa | 2.7V | 00:00:00 | 01:56:56 | 00:00:00 | |
| DG1MFX-10 | 2026-08-31 12:26:15 | 48.63086 | 12.78029 | 53° | 24km/h | 31173m | 6.4m/s | -41.7°C | 0.7% | 10.2hPa | 2.7V | 00:00:00 | 00:00:00 | 00:00:00 | |
| OE5MMP-10 | 2026-08-31 12:26:11 | 48.63073 | 12.77977 | 90° | 18km/h | 31142m | 4.8m/s | -41.4°C | 2.6% | 10.1hPa | 2.7V | 00:00:00 | 01:56:49 | 00:00:00 | |
| DO3MHA-11 | 2026-08-31 12:26:08 | 48.63073 | 12.77951 | 76° | 18km/h | 31125m | 6.1m/s | -41.4°C | 2.6% | 10.2hPa | 2.7V | 00:00:00 | 01:56:46 | 00:00:00 | |
| OE5HKT-10 | 2026-08-31 12:26:06 | 48.63070 | 12.77941 | 69° | 15km/h | 31113m | 5.8m/s | -41.4°C | 2.6% | 10.2hPa | 2.7V | 00:00:00 | 00:00:00 | 00:00:00 | |
| OE5MMP-10 | 2026-08-31 12:26:01 | 48.63065 | 12.77908 | 69° | 16km/h | 31083m | 6.9m/s | -41.5°C | 2.5% | 10.3hPa | 2.6V | 00:00:00 | 01:56:39 | 00:00:00 | |
| DO3MHA-11 | 2026-08-31 12:25:58 | 48.63058 | 12.77887 | 67° | 13km/h | 31065m | 5.5m/s | -41.5°C | 2.5% | 10.2hPa | 2.7V | 00:00:00 | 01:56:36 | 08:30:00 | |
| OE5DXL-15 | 2026-08-31 12:25:56 | 48.63056 | 12.77873 | 93° | 13km/h | 31052m | 6.1m/s | -41.5°C | 2.5% | 10.3hPa | 2.7V | 00:00:00 | 00:00:00 | 00:00:00 | |
| DG1MFX-10 | 2026-08-31 12:25:55 | 48.63056 | 12.77873 | 94° | 18km/h | 31052m | 6.1m/s | -41.6°C | 0.7% | 10.3hPa | 2.7V | 00:00:00 | 00:00:00 | 00:00:00 | |
| OE5MMP-10 | 2026-08-31 12:25:51 | 48.63055 | 12.77853 | 18° | 13km/h | 31023m | 5.6m/s | -41.7°C | 2.5% | 10.3hPa | 2.7V | 00:00:00 | 01:56:29 | 00:00:00 | |
| DO3MHA-11 | 2026-08-31 12:25:48 | 48.63050 | 12.77848 | 78° | 13km/h | 31004m | 6.5m/s | -41.7°C | 2.5% | 10.3hPa | 2.7V | 00:00:00 | 01:56:26 | 00:00:00 | |
| OE5HKT-10 | 2026-08-31 12:25:45 | 48.63050 | 12.77832 | 84° | 15km/h | 30986m | 6.1m/s | -41.7°C | 2.5% | 10.4hPa | 2.7V | 00:00:00 | 00:00:00 | 00:00:00 | |
| OE5MMP-10 | 2026-08-31 12:25:41 | 48.63044 | 12.77812 | 67° | 11km/h | 30962m | 6.4m/s | -42.0°C | 2.5% | 10.4hPa | 2.7V | 00:00:00 | 01:56:19 | 00:00:00 | |
| BAUMI2-15 | 2026-08-31 12:25:40 | 48.63043 | 12.77808 | 85° | 5km/h | 30956m | 6.9m/s | -42.1°C | 2.6% | 10.4hPa | 2.7V | 00:00:00 | 01:56:18 | 00:00:00 | |
| OE5REO-15 | 2026-08-31 12:25:39 | 48.63043 | 12.77808 | 85° | 7km/h | 30956m | 6.9m/s | -42.1°C | 0.7% | 10.5hPa | 2.7V | 00:00:00 | 00:00:00 | 00:00:00 | |
| DO3MHA-11 | 2026-08-31 12:25:38 | 48.63045 | 12.77803 | 127° | 15km/h | 30944m | 5.3m/s | -42.1°C | 2.6% | 10.5hPa | 2.7V | 00:00:00 | 01:56:16 | 00:00:00 | |
| BAUMI2-15 | 2026-08-31 12:25:35 | 48.63043 | 12.77799 | 16° | 18km/h | 30927m | 6.9m/s | -42.3°C | 2.6% | 10.5hPa | 2.7V | 00:00:00 | 01:56:13 | 08:30:00 | |
| DG1MFX-10 | 2026-08-31 12:25:34 | 48.63043 | 12.77799 | 17° | 9km/h | 30927m | 7.0m/s | -42.3°C | 0.7% | 10.5hPa | 2.6V | 00:00:00 | 00:00:00 | 00:00:00 | |
| OE5MMP-10 | 2026-08-31 12:25:31 | 48.63029 | 12.77784 | 59° | 18km/h | 30902m | 6.4m/s | -42.1°C | 2.5% | 10.5hPa | 2.6V | 00:00:00 | 01:56:09 | 08:30:00 | |
| BAUMI2-15 | 2026-08-31 12:25:30 | 48.63026 | 12.77775 | 69° | 26km/h | 30897m | 5.1m/s | -42.0°C | 2.5% | 10.5hPa | 2.7V | 00:00:00 | 01:56:08 | 00:00:00 | |
| DO3MHA-11 | 2026-08-31 12:25:28 | 48.63022 | 12.77758 | 69° | 13km/h | 30886m | 6.2m/s | -42.0°C | 2.6% | 10.6hPa | 2.7V | 00:00:00 | 01:56:06 | 00:00:00 | |
| OE5DXL-15 | 2026-08-31 12:25:26 | 48.63017 | 12.77744 | 47° | 11km/h | 30873m | 5.7m/s | -42.0°C | 2.5% | 10.6hPa | 2.6V | 00:00:00 | 00:00:00 | 00:00:00 | |
| BAUMI2-15 | 2026-08-31 12:25:25 | 48.63014 | 12.77740 | 40° | 11km/h | 30868m | 5.3m/s | -41.8°C | 2.5% | 10.6hPa | 2.6V | 00:00:00 | 01:56:03 | 00:00:00 | |
| OE5HKT-10 | 2026-08-31 12:25:24 | 48.63011 | 12.77737 | 43° | 11km/h | 30862m | 5.7m/s | -41.8°C | 2.5% | 10.6hPa | 2.6V | 00:00:00 | 01:56:02 | 00:00:00 | |
| DL6DJ-15 | 2026-08-31 12:25:23 | 48.63010 | 12.77734 | 62° | 7km/h | 30856m | 7.0m/s | -41.8°C | 0.7% | 10.7hPa | 2.6V | 00:00:00 | 00:00:00 | 00:00:00 | |
| OE5FHM-15 | 2026-08-31 12:25:22 | 48.63010 | 12.77728 | 106° | 11km/h | 30844m | 4.9m/s | -41.8°C | 2.5% | 10.6hPa | 2.6V | 00:00:00 | 01:55:59 | 08:30:00 | |
| BAUMI2-15 | 2026-08-31 12:25:20 | 48.63010 | 12.77725 | 95° | 16km/h | 30838m | 5.4m/s | -41.9°C | 2.6% | 10.6hPa | 2.6V | 00:00:00 | 01:55:58 | 00:00:00 | |
| OE5WHR-10 | 2026-08-31 12:25:19 | 48.63010 | 12.77721 | 74° | 13km/h | 30832m | 6.7m/s | -42.0°C | 2.6% | 10.6hPa | 2.6V | 00:00:00 | 01:55:57 | 00:00:00 | |
| DO3MHA-11 | 2026-08-31 12:25:18 | 48.63008 | 12.77717 | 57° | 15km/h | 30826m | 6.0m/s | -42.0°C | 2.5% | 10.6hPa | 2.6V | 00:00:00 | 01:55:56 | 00:00:00 | |
| DG1MFX-10 | 2026-08-31 12:25:13 | 48.63000 | 12.77692 | 81° | 18km/h | 30802m | 6.4m/s | -42.1°C | 0.7% | 10.7hPa | 2.6V | 00:00:00 | 00:00:00 | 00:00:00 | |
| OE5MMP-10 | 2026-08-31 12:25:11 | 48.62999 | 12.77677 | 84° | 9km/h | 30785m | 6.4m/s | -42.1°C | 2.6% | 10.7hPa | 2.6V | 00:00:00 | 01:55:49 | 00:00:00 | |
| DO3MHA-11 | 2026-08-31 12:25:08 | 48.62997 | 12.77679 | 282° | 13km/h | 30768m | 4.7m/s | -41.9°C | 2.6% | 10.7hPa | 2.6V | 00:00:00 | 01:55:46 | 00:00:00 | |
| OE5REO-15 | 2026-08-31 12:25:07 | 48.62997 | 12.77679 | 283° | 9km/h | 30768m | 4.8m/s | -41.9°C | 0.7% | 10.8hPa | 2.6V | 00:00:00 | 00:00:00 | 00:00:00 | |
| OE5HKT-10 | 2026-08-31 12:25:03 | 48.63006 | 12.77684 | 133° | 11km/h | 30739m | 5.4m/s | -41.8°C | 2.6% | 10.8hPa | 2.6V | 00:00:00 | 00:00:00 | 08:30:00 | |
| DL6DJ-15 | 2026-08-31 12:24:52 | 48.63004 | 12.77651 | 51° | 7km/h | 30673m | 5.7m/s | -42.0°C | 0.7% | 10.9hPa | 2.6V | 00:00:00 | 00:00:00 | 00:00:00 | |
| OE5FHM-15 | 2026-08-31 12:24:51 | 48.63003 | 12.77648 | 60° | 16km/h | 30668m | 5.2m/s | -41.9°C | 2.5% | 10.9hPa | 2.6V | 00:00:00 | 01:55:29 | 00:00:00 | |
| DO3MHA-11 | 2026-08-31 12:24:48 | 48.63001 | 12.77633 | 97° | 15km/h | 30650m | 5.8m/s | -42.1°C | 2.6% | 11.0hPa | 2.6V | 00:00:00 | 01:55:26 | 00:00:00 | |
| OE5HKT-10 | 2026-08-31 12:24:42 | 48.62998 | 12.77600 | 76° | 18km/h | 30616m | 5.8m/s | -42.2°C | 2.6% | 11.0hPa | 2.6V | 00:00:00 | 00:00:00 | 00:00:00 | |
| OE5MMP-10 | 2026-08-31 12:24:41 | 48.62998 | 12.77595 | 97° | 16km/h | 30609m | 6.7m/s | -42.2°C | 2.6% | 11.0hPa | 2.6V | 00:00:00 | 01:55:19 | 00:00:00 | |
| DO3MHA-11 | 2026-08-31 12:24:38 | 48.63001 | 12.77581 | 108° | 20km/h | 30593m | 5.8m/s | -42.2°C | 2.6% | 11.1hPa | 2.6V | 00:00:00 | 01:55:16 | 00:00:00 | |
| OE5WHR-10 | 2026-08-31 12:24:37 | 48.63002 | 12.77576 | 93° | 22km/h | 30587m | 6.6m/s | -42.2°C | 2.6% | 11.1hPa | 2.6V | 00:00:00 | 00:00:00 | 00:00:00 | |
| OE8JPQ-2 | 2026-08-31 12:24:33 | 48.62999 | 12.77547 | 88° | 24km/h | 30564m | 6.8m/s | -42.2°C | 2.5% | 11.1hPa | 2.6V | 00:00:00 | 00:00:00 | 00:00:00 | |
| DG1MFX-10 | 2026-08-31 12:24:32 | 48.62999 | 12.77547 | 88° | 22km/h | 30564m | 6.8m/s | -42.2°C | 0.7% | 11.2hPa | 2.6V | 00:00:00 | 00:00:00 | 00:00:00 | |
| OE5MMP-10 | 2026-08-31 12:24:31 | 48.63000 | 12.77530 | 104° | 20km/h | 30552m | 5.3m/s | -42.2°C | 2.5% | 11.1hPa | 2.6V | 00:00:00 | 01:55:09 | 00:00:00 | |
| DO3MHA-11 | 2026-08-31 12:24:28 | 48.63002 | 12.77506 | 82° | 22km/h | 30535m | 6.2m/s | -42.2°C | 2.5% | 11.2hPa | 2.7V | 00:00:00 | 01:55:06 | 08:30:00 | |
| OE5DXL-15 | 2026-08-31 12:24:26 | 48.62999 | 12.77492 | 70° | 27km/h | 30524m | 4.9m/s | -42.4°C | 2.5% | 11.2hPa | 2.6V | 00:00:00 | 00:00:00 | 00:00:00 | |
| DL6DJ-15 | 2026-08-31 12:24:21 | 48.63000 | 12.77446 | 89° | 29km/h | 30488m | 6.0m/s | -43.0°C | 0.7% | 11.3hPa | 2.6V | 00:00:00 | 00:00:00 | 00:00:00 | |
| DO3MHA-11 | 2026-08-31 12:24:18 | 48.63000 | 12.77422 | 90° | 27km/h | 30477m | 5.6m/s | -42.9°C | 2.6% | 11.3hPa | 2.6V | 00:00:00 | 01:54:56 | 00:00:00 | |
| OE5WHR-10 | 2026-08-31 12:24:16 | 48.63001 | 12.77399 | 96° | 27km/h | 30465m | 5.8m/s | -42.9°C | 2.7% | 11.3hPa | 2.6V | 00:00:00 | 01:54:54 | 00:00:00 | |
| OE8JPQ-2 | 2026-08-31 12:24:12 | 48.62999 | 12.77357 | 78° | 29km/h | 30442m | 4.9m/s | -42.9°C | 2.7% | 11.3hPa | 2.6V | 00:00:00 | 01:54:50 | 00:00:00 | |
| OE5MMP-10 | 2026-08-31 12:24:11 | 48.62998 | 12.77347 | 82° | 29km/h | 30436m | 5.5m/s | -42.9°C | 2.7% | 11.3hPa | 2.6V | 00:00:00 | 01:54:49 | 00:00:00 | |
| DO3MHA-11 | 2026-08-31 12:24:08 | 48.62998 | 12.77317 | 99° | 31km/h | 30418m | 4.7m/s | -43.1°C | 2.7% | 11.4hPa | 2.6V | 00:00:00 | 01:54:46 | 00:00:00 | |
| OE5REO-15 | 2026-08-31 12:24:06 | 48.62999 | 12.77306 | 95° | 31km/h | 30413m | 6.2m/s | -43.2°C | 0.7% | 11.4hPa | 2.6V | 00:00:00 | 00:00:00 | 00:00:00 | |
| DL6DJ-15 | 2026-08-31 12:23:50 | 48.62994 | 12.77123 | 73° | 24km/h | 30310m | 5.2m/s | -43.4°C | 0.7% | 11.6hPa | 2.6V | 00:00:00 | 00:00:00 | 00:00:00 | |
| DO3MHA-11 | 2026-08-31 12:23:48 | 48.62992 | 12.77113 | 75° | 26km/h | 30305m | 4.4m/s | -43.3°C | 2.7% | 11.6hPa | 2.6V | 00:00:00 | 01:54:26 | 00:00:00 | |
| OE5MMP-10 | 2026-08-31 12:23:41 | 48.63001 | 12.77053 | 100° | 26km/h | 30264m | 5.6m/s | -43.3°C | 2.7% | 11.6hPa | 2.6V | 00:00:00 | 01:54:19 | 00:00:00 | |
| OE5HKT-10 | 2026-08-31 12:23:39 | 48.63003 | 12.77031 | 94° | 27km/h | 30253m | 6.1m/s | -43.5°C | 2.7% | 11.6hPa | 2.6V | 00:00:00 | 00:00:00 | 00:00:00 | |
| DO3MHA-11 | 2026-08-31 12:23:35 | 48.63002 | 12.76995 | 80° | 22km/h | 30230m | 6.1m/s | -43.4°C | 2.7% | 11.7hPa | 2.6V | 00:00:00 | 01:54:13 | 00:00:00 | |
| OE5WHR-10 | 2026-08-31 12:23:34 | 48.63001 | 12.76986 | 75° | 27km/h | 30224m | 6.3m/s | -43.4°C | 2.7% | 11.7hPa | 2.6V | 00:00:00 | 00:00:00 | 00:00:00 | |
| OE8JPQ-2 | 2026-08-31 12:23:32 | 48.62998 | 12.76968 | 85° | 29km/h | 30214m | 4.4m/s | -43.5°C | 2.7% | 11.7hPa | 2.6V | 00:00:00 | 00:00:00 | 00:00:00 | |
| OE5MMP-10 | 2026-08-31 12:23:31 | 48.62998 | 12.76960 | 100° | 31km/h | 30208m | 5.6m/s | -43.6°C | 2.8% | 11.7hPa | 2.6V | 00:00:00 | 01:54:09 | 00:00:00 | |
| DG1MFX-10 | 2026-08-31 12:23:30 | 48.62998 | 12.76960 | 100° | 22km/h | 30208m | 5.7m/s | -43.6°C | 0.8% | 11.8hPa | 2.6V | 00:00:00 | 00:00:00 | 00:00:00 | |
| DO3MHA-11 | 2026-08-31 12:23:25 | 48.63020 | 12.76904 | 105° | 22km/h | 30173m | 5.2m/s | -43.5°C | 2.7% | 11.8hPa | 2.6V | 00:00:00 | 01:54:03 | 00:00:00 | |
| OE5FHM-15 | 2026-08-31 12:23:21 | 48.63022 | 12.76853 | 81° | 26km/h | 30149m | 5.6m/s | -43.4°C | 2.7% | 11.8hPa | 2.7V | 00:00:00 | 01:53:59 | 00:00:00 | |
| DL6DJ-15 | 2026-08-31 12:23:19 | 48.63016 | 12.76823 | 71° | 29km/h | 30131m | 6.3m/s | -43.5°C | 0.7% | 11.9hPa | 2.7V | 00:00:00 | 00:00:00 | 00:00:00 | |
| OE5HKT-10 | 2026-08-31 12:23:18 | 48.63016 | 12.76823 | 72° | 24km/h | 30132m | 6.2m/s | -43.5°C | 2.7% | 11.9hPa | 2.7V | 00:00:00 | 01:53:56 | 00:00:00 | |
| OE5WHR-10 | 2026-08-31 12:23:13 | 48.63015 | 12.76779 | 119° | 24km/h | 30102m | 5.7m/s | -43.6°C | 2.8% | 11.9hPa | 2.7V | 00:00:00 | 01:53:51 | 00:00:00 | |
| OE8JPQ-2 | 2026-08-31 12:23:12 | 48.63017 | 12.76772 | 115° | 26km/h | 30097m | 5.5m/s | -43.5°C | 2.8% | 11.9hPa | 2.7V | 00:00:00 | 01:53:50 | 00:00:00 | |
| OE5MMP-10 | 2026-08-31 12:23:11 | 48.63019 | 12.76765 | 103° | 27km/h | 30091m | 6.3m/s | -43.5°C | 2.7% | 11.9hPa | 2.7V | 00:00:00 | 01:53:49 | 00:00:00 | |
| DG1MFX-10 | 2026-08-31 12:23:10 | 48.63019 | 12.76765 | 104° | 22km/h | 30091m | 6.3m/s | -43.6°C | 0.7% | 12.0hPa | 2.7V | 00:00:00 | 00:00:00 | 00:00:00 | |
| DK5PH-5 | 2026-08-31 12:23:09 | 48.63018 | 12.76746 | 74° | 24km/h | 30079m | 5.0m/s | -43.5°C | 2.7% | 11.9hPa | 2.7V | 00:00:00 | 01:53:47 | 00:00:00 | |
| BAUMI2-15 | 2026-08-31 12:23:05 | 48.63000 | 12.76713 | 36° | 26km/h | 30054m | 5.5m/s | -43.7°C | 2.7% | 12.0hPa | 2.7V | 00:00:00 | 01:53:43 | 00:00:00 | |
| OE5REO-15 | 2026-08-31 12:23:04 | 48.63000 | 12.76713 | 37° | 31km/h | 30054m | 5.5m/s | -43.7°C | 0.7% | 12.1hPa | 2.7V | 00:00:00 | 00:00:00 | 00:00:00 | |
| DL6DJ-15 | 2026-08-31 12:22:48 | 48.62950 | 12.76567 | 63° | 22km/h | 29950m | 4.8m/s | -43.5°C | 0.7% | 12.3hPa | 2.7V | 00:00:00 | 00:00:00 | 00:00:00 | |
| BAUMI2-15 | 2026-08-31 12:22:47 | 48.62949 | 12.76567 | 64° | 18km/h | 29950m | 4.8m/s | -43.4°C | 2.6% | 12.2hPa | 2.7V | 00:00:00 | 01:53:25 | 00:00:00 | |
| BAUMI2-15 | 2026-08-31 12:22:42 | 48.62946 | 12.76535 | 95° | 31km/h | 29921m | 6.3m/s | -43.5°C | 2.7% | 12.2hPa | 2.7V | 00:00:00 | 01:53:20 | 00:00:00 | |
| OE5MMP-10 | 2026-08-31 12:22:41 | 48.62946 | 12.76525 | 92° | 26km/h | 29914m | 6.4m/s | -43.5°C | 2.6% | 12.3hPa | 2.7V | 00:00:00 | 01:53:19 | 00:00:00 | |
| OE5DXL-15 | 2026-08-31 12:22:39 | 48.62946 | 12.76501 | 88° | 18km/h | 29903m | 5.0m/s | -43.7°C | 2.7% | 12.3hPa | 2.7V | 00:00:00 | 00:00:00 | 00:00:00 | |
| DK5PH-5 | 2026-08-31 12:22:37 | 48.62945 | 12.76477 | 84° | 20km/h | 29891m | 6.0m/s | -43.6°C | 2.7% | 12.3hPa | 2.7V | 00:00:00 | 01:53:15 | 00:00:00 | |
| OE8JPQ-2 | 2026-08-31 12:22:33 | 48.62937 | 12.76442 | 62° | 20km/h | 29862m | 4.8m/s | -43.7°C | 2.7% | 12.4hPa | 2.6V | 00:00:00 | 00:00:00 | 00:00:00 | |
| OE5WHR-10 | 2026-08-31 12:22:31 | 48.62935 | 12.76436 | 58° | 18km/h | 29857m | 5.3m/s | -43.7°C | 2.7% | 12.4hPa | 2.6V | 00:00:00 | 00:00:00 | 00:00:00 | |
| DG1MFX-10 | 2026-08-31 12:22:29 | 48.62933 | 12.76432 | 56° | 13km/h | 29851m | 6.9m/s | -43.7°C | 0.8% | 12.4hPa | 2.6V | 00:00:00 | 00:00:00 | 00:00:00 | |
| BAUMI2-15 | 2026-08-31 12:22:27 | 48.62928 | 12.76420 | 67° | 24km/h | 29834m | 5.1m/s | -43.8°C | 2.6% | 12.4hPa | 2.6V | 00:00:00 | 01:53:05 | 00:00:00 | |
| DO3MHA-11 | 2026-08-31 12:22:24 | 48.62921 | 12.76396 | 64° | 22km/h | 29816m | 4.6m/s | -44.0°C | 2.7% | 12.5hPa | 2.6V | 00:00:00 | 01:53:02 | 00:00:00 | |
| BAUMI2-15 | 2026-08-31 12:22:22 | 48.62914 | 12.76379 | 49° | 22km/h | 29805m | 6.4m/s | -44.1°C | 2.7% | 12.5hPa | 2.6V | 00:00:00 | 01:53:00 | 00:00:00 | |
| OE5MMP-10 | 2026-08-31 12:22:21 | 48.62910 | 12.76373 | 36° | 18km/h | 29798m | 5.6m/s | -44.0°C | 2.7% | 12.5hPa | 2.6V | 00:00:00 | 01:52:59 | 00:00:00 | |
| DL6DJ-15 | 2026-08-31 12:22:17 | 48.62887 | 12.76352 | 47° | 18km/h | 29770m | 5.0m/s | -44.3°C | 0.7% | 12.6hPa | 2.6V | 00:00:00 | 00:00:00 | 00:00:00 | |
| DO3MHA-11 | 2026-08-31 12:22:14 | 48.62883 | 12.76342 | 84° | 15km/h | 29760m | 6.3m/s | -44.2°C | 2.8% | 12.6hPa | 2.6V | 00:00:00 | 01:52:52 | 00:00:00 | |
| BAUMI2-15 | 2026-08-31 12:22:13 | 48.62884 | 12.76333 | 126° | 15km/h | 29747m | 5.7m/s | -44.1°C | 2.8% | 12.6hPa | 2.6V | 00:00:00 | 01:52:50 | 00:00:00 | |
| OE5MMP-10 | 2026-08-31 12:22:11 | 48.62886 | 12.76329 | 120° | 15km/h | 29741m | 4.9m/s | -44.2°C | 2.8% | 12.6hPa | 2.6V | 00:00:00 | 01:52:49 | 00:00:00 | |
| OE5WHR-10 | 2026-08-31 12:22:10 | 48.62887 | 12.76325 | 102° | 15km/h | 29736m | 6.4m/s | -44.2°C | 2.8% | 12.6hPa | 2.6V | 00:00:00 | 01:52:48 | 00:00:00 | |
| OE5DXL-15 | 2026-08-31 12:22:08 | 48.62886 | 12.76312 | 70° | 15km/h | 29723m | 5.1m/s | -44.4°C | 2.8% | 12.7hPa | 2.6V | 00:00:00 | 01:52:46 | 00:00:00 | |
| BAUMI2-15 | 2026-08-31 12:22:07 | 48.62884 | 12.76305 | 63° | 15km/h | 29718m | 5.1m/s | -44.4°C | 2.9% | 12.6hPa | 2.7V | 00:00:00 | 01:52:45 | 00:00:00 | |
| DO3MHA-11 | 2026-08-31 12:22:04 | 48.62877 | 12.76288 | 62° | 11km/h | 29700m | 6.0m/s | -44.4°C | 2.9% | 12.7hPa | 2.6V | 00:00:00 | 01:52:42 | 08:30:00 | |
| BAUMI2-15 | 2026-08-31 12:22:02 | 48.62875 | 12.76280 | 82° | 11km/h | 29688m | 6.7m/s | -44.3°C | 2.8% | 12.7hPa | 2.6V | 00:00:00 | 01:52:40 | 00:00:00 | |
| OE5MMP-10 | 2026-08-31 12:22:01 | 48.62875 | 12.76275 | 91° | 15km/h | 29682m | 5.2m/s | -44.2°C | 2.8% | 12.7hPa | 2.6V | 00:00:00 | 01:52:39 | 00:00:00 | |
| BAUMI2-15 | 2026-08-31 12:21:57 | 48.62878 | 12.76260 | 109° | 13km/h | 29658m | 5.4m/s | -44.1°C | 2.8% | 12.8hPa | 2.7V | 00:00:00 | 01:52:35 | 00:00:00 | |
| DO3MHA-11 | 2026-08-31 12:21:54 | 48.62874 | 12.76251 | 47° | 16km/h | 29641m | 6.4m/s | -44.1°C | 2.8% | 12.8hPa | 2.7V | 00:00:00 | 01:52:32 | 00:00:00 | |
| OE8JPQ-2 | 2026-08-31 12:21:52 | 48.62865 | 12.76239 | 40° | 16km/h | 29629m | 4.9m/s | -44.2°C | 2.9% | 12.8hPa | 2.7V | 00:00:00 | 00:00:00 | 08:30:00 | |
| OE5MMP-10 | 2026-08-31 12:21:51 | 48.62860 | 12.76234 | 36° | 13km/h | 29624m | 6.5m/s | -44.1°C | 2.8% | 12.8hPa | 2.6V | 00:00:00 | 01:52:29 | 00:00:00 | |
| OE5WHR-10 | 2026-08-31 12:21:49 | 48.62853 | 12.76226 | 27° | 16km/h | 29611m | 5.6m/s | -44.0°C | 2.8% | 12.9hPa | 2.6V | 00:00:00 | 00:00:00 | 08:30:00 | |
| DG1MFX-10 | 2026-08-31 12:21:48 | 48.62853 | 12.76226 | 28° | 13km/h | 29611m | 5.7m/s | -44.1°C | 0.8% | 12.9hPa | 2.6V | 00:00:00 | 00:00:00 | 00:00:00 | |
| BAUMI2-15 | 2026-08-31 12:21:47 | 48.62848 | 12.76222 | 38° | 13km/h | 29599m | 7.0m/s | -44.1°C | 2.8% | 12.9hPa | 2.6V | 00:00:00 | 01:52:25 | 00:00:00 | |
| OE5REO-15 | 2026-08-31 12:21:45 | 48.62845 | 12.76219 | 48° | 13km/h | 29592m | 6.1m/s | -44.1°C | 0.8% | 12.9hPa | 2.6V | 00:00:00 | 00:00:00 | 00:00:00 | |
| DO3MHA-11 | 2026-08-31 12:21:44 | 48.62841 | 12.76212 | 47° | 16km/h | 29582m | 5.0m/s | -43.9°C | 2.9% | 12.9hPa | 2.6V | 00:00:00 | 01:52:22 | 00:00:00 | |
| BAUMI2-15 | 2026-08-31 12:21:42 | 48.62837 | 12.76206 | 22° | 16km/h | 29570m | 6.5m/s | -43.8°C | 2.8% | 13.0hPa | 2.6V | 00:00:00 | 01:52:20 | 00:00:00 | |
| OE5MMP-10 | 2026-08-31 12:21:41 | 48.62834 | 12.76205 | 11° | 18km/h | 29563m | 5.6m/s | -43.8°C | 2.7% | 13.0hPa | 2.6V | 00:00:00 | 01:52:19 | 00:00:00 | |
| OE5DXL-15 | 2026-08-31 12:21:38 | 48.62821 | 12.76199 | 28° | 18km/h | 29545m | 5.8m/s | -43.7°C | 2.7% | 13.0hPa | 2.6V | 00:00:00 | 00:00:00 | 00:00:00 | |
| BAUMI2-15 | 2026-08-31 12:21:37 | 48.62815 | 12.76194 | 31° | 18km/h | 29540m | 4.7m/s | -43.7°C | 2.7% | 13.0hPa | 2.6V | 00:00:00 | 01:52:15 | 00:00:00 | |
| DK5PH-5 | 2026-08-31 12:21:35 | 48.62806 | 12.76184 | 40° | 16km/h | 29528m | 6.5m/s | -43.8°C | 2.7% | 13.0hPa | 2.7V | 00:00:00 | 01:52:13 | 00:00:00 | |
| DO3MHA-11 | 2026-08-31 12:21:34 | 48.62803 | 12.76180 | 55° | 15km/h | 29522m | 5.7m/s | -43.8°C | 2.7% | 13.0hPa | 2.7V | 00:00:00 | 01:52:12 | 00:00:00 | |
| OE8JPQ-2 | 2026-08-31 12:21:32 | 48.62801 | 12.76171 | 87° | 18km/h | 29510m | 6.5m/s | -43.8°C | 2.7% | 13.1hPa | 2.6V | 00:00:00 | 00:00:00 | 00:00:00 | |
| OE5MMP-10 | 2026-08-31 12:21:31 | 48.62801 | 12.76164 | 91° | 18km/h | 29504m | 6.6m/s | -43.8°C | 2.7% | 13.1hPa | 2.6V | 00:00:00 | 01:52:09 | 00:00:00 | |
| BAUMI2-15 | 2026-08-31 12:21:30 | 48.62801 | 12.76157 | 88° | 16km/h | 29498m | 5.4m/s | -43.8°C | 2.7% | 13.1hPa | 2.7V | 00:00:00 | 01:52:08 | 00:00:00 | |
| OE5WHR-10 | 2026-08-31 12:21:28 | 48.62800 | 12.76144 | 75° | 18km/h | 29487m | 6.3m/s | -43.9°C | 2.7% | 13.1hPa | 2.7V | 00:00:00 | 00:00:00 | 00:00:00 | |
| BAUMI2-15 | 2026-08-31 12:21:25 | 48.62793 | 12.76135 | 17° | 22km/h | 29468m | 5.2m/s | -44.0°C | 2.7% | 13.2hPa | 2.7V | 00:00:00 | 01:52:03 | 00:00:00 | |
| DO3MHA-11 | 2026-08-31 12:21:24 | 48.62788 | 12.76132 | 21° | 20km/h | 29462m | 6.9m/s | -44.0°C | 2.7% | 13.2hPa | 2.7V | 00:00:00 | 01:52:02 | 00:00:00 | |
| OE5MMP-10 | 2026-08-31 12:21:21 | 48.62773 | 12.76119 | 39° | 18km/h | 29445m | 5.4m/s | -44.3°C | 2.7% | 13.2hPa | 2.7V | 00:00:00 | 01:51:59 | 00:00:00 | |
| BAUMI2-15 | 2026-08-31 12:21:20 | 48.62769 | 12.76114 | 46° | 16km/h | 29439m | 6.4m/s | -44.4°C | 2.8% | 13.2hPa | 2.7V | 00:00:00 | 01:51:58 | 00:00:00 | |
| BAUMI2-15 | 2026-08-31 12:21:15 | 48.62766 | 12.76084 | 97° | 20km/h | 29410m | 6.3m/s | -44.5°C | 2.8% | 13.3hPa | 2.6V | 00:00:00 | 01:51:53 | 00:00:00 | |
| DO3MHA-11 | 2026-08-31 12:21:14 | 48.62767 | 12.76075 | 96° | 18km/h | 29404m | 5.0m/s | -44.5°C | 2.8% | 13.3hPa | 2.6V | 00:00:00 | 01:51:52 | 00:00:00 | |
| OE8JPQ-2 | 2026-08-31 12:21:12 | 48.62767 | 12.76059 | 89° | 16km/h | 29393m | 6.8m/s | -44.5°C | 2.8% | 13.3hPa | 2.6V | 00:00:00 | 01:51:50 | 00:00:00 | |
| OE5MMP-10 | 2026-08-31 12:21:11 | 48.62767 | 12.76054 | 73° | 15km/h | 29387m | 6.3m/s | -44.5°C | 2.8% | 13.3hPa | 2.6V | 00:00:00 | 01:51:49 | 00:00:00 | |
| OE5HKT-10 | 2026-08-31 12:21:10 | 48.62765 | 12.76067 | 47° | 18km/h | 29381m | 5.6m/s | -44.5°C | 2.8% | 13.3hPa | 2.6V | 00:00:00 | 01:51:48 | 00:00:00 | |
| OE5DXL-15 | 2026-08-31 12:21:08 | 48.62759 | 12.76043 | 28° | 16km/h | 29368m | 5.9m/s | -44.5°C | 2.8% | 13.4hPa | 2.6V | 00:00:00 | 00:00:00 | 00:00:00 | |
| OE5WHR-10 | 2026-08-31 12:21:07 | 48.62754 | 12.76040 | 25° | 16km/h | 29363m | 4.5m/s | -44.5°C | 2.8% | 13.4hPa | 2.6V | 00:00:00 | 01:51:45 | 00:00:00 | |
| DO3MHA-11 | 2026-08-31 12:21:04 | 48.62743 | 12.76032 | 38° | 16km/h | 29346m | 5.9m/s | -44.7°C | 2.8% | 13.4hPa | 2.6V | 00:00:00 | 01:51:42 | 00:00:00 | |
| DK5PH-5 | 2026-08-31 12:21:03 | 48.62741 | 12.76029 | 70° | 20km/h | 29340m | 5.3m/s | -44.7°C | 2.8% | 13.4hPa | 2.7V | 00:00:00 | 01:51:41 | 08:30:00 | |
| OE5MMP-10 | 2026-08-31 12:21:01 | 48.62741 | 12.76018 | 94° | 18km/h | 29327m | 6.6m/s | -44.7°C | 2.8% | 13.4hPa | 2.6V | 00:00:00 | 01:51:39 | 08:30:00 | |
| OE5REO-15 | 2026-08-31 12:20:59 | 48.62741 | 12.76009 | 97° | 24km/h | 29321m | 5.3m/s | -44.9°C | 0.8% | 13.5hPa | 2.6V | 00:00:00 | 00:00:00 | 00:00:00 | |
| DO3MHA-11 | 2026-08-31 12:20:54 | 48.62738 | 12.75975 | 24° | 18km/h | 29285m | 6.7m/s | -44.9°C | 2.9% | 13.5hPa | 2.6V | 00:00:00 | 01:51:32 | 00:00:00 | |
| OE8JPQ-2 | 2026-08-31 12:20:52 | 48.62728 | 12.75971 | 10° | 20km/h | 29274m | 5.7m/s | -44.9°C | 2.8% | 13.6hPa | 2.6V | 00:00:00 | 00:00:00 | 00:00:00 | |
| OE5FHM-15 | 2026-08-31 12:20:51 | 48.62723 | 12.75969 | 6° | 20km/h | 29268m | 6.7m/s | -44.9°C | 2.9% | 13.6hPa | 2.6V | 00:00:00 | 01:51:29 | 08:30:00 | |
| OE5HKT-10 | 2026-08-31 12:20:49 | 48.62715 | 12.75968 | 25° | 16km/h | 29257m | 4.5m/s | -45.0°C | 2.9% | 13.6hPa | 2.7V | 00:00:00 | 00:00:00 | 00:00:00 | |
| DG1MFX-10 | 2026-08-31 12:20:47 | 48.62712 | 12.75965 | 49° | 13km/h | 29251m | 5.7m/s | -45.0°C | 0.8% | 13.7hPa | 2.6V | 00:00:00 | 00:00:00 | 00:00:00 | |
| OE5WHR-10 | 2026-08-31 12:20:46 | 48.62708 | 12.75953 | 76° | 20km/h | 29239m | 5.9m/s | -44.9°C | 2.9% | 13.7hPa | 2.6V | 00:00:00 | 00:00:00 | 00:00:00 | |
| OE5MMP-10 | 2026-08-31 12:20:41 | 48.62703 | 12.75926 | 5° | 22km/h | 29210m | 5.9m/s | -44.7°C | 2.8% | 13.7hPa | 2.7V | 00:00:00 | 01:51:19 | 00:00:00 | |
| OE5DXL-15 | 2026-08-31 12:20:39 | 48.62688 | 12.75929 | 347° | 22km/h | 29191m | 5.3m/s | -44.7°C | 2.7% | 13.8hPa | 2.7V | 00:00:00 | 00:00:00 | 00:00:00 | |
| DO3MHA-11 | 2026-08-31 12:20:34 | 48.62662 | 12.75939 | 6° | 18km/h | 29169m | 5.1m/s | -45.0°C | 2.9% | 13.8hPa | 2.6V | 00:00:00 | 01:51:12 | 08:30:00 | |
| DK5PH-5 | 2026-08-31 12:20:33 | 48.62657 | 12.75936 | 29° | 16km/h | 29163m | 7.1m/s | -45.0°C | 2.9% | 13.8hPa | 2.7V | 00:00:00 | 01:51:11 | 00:00:00 | |
| OE8JPQ-2 | 2026-08-31 12:20:32 | 48.62653 | 12.75931 | 55° | 22km/h | 29156m | 6.6m/s | -45.0°C | 2.9% | 13.8hPa | 2.7V | 00:00:00 | 00:00:00 | 00:00:00 | |
| OE5MMP-10 | 2026-08-31 12:20:31 | 48.62651 | 12.75923 | 73° | 20km/h | 29150m | 5.9m/s | -45.0°C | 2.9% | 13.8hPa | 2.7V | 00:00:00 | 01:51:09 | 00:00:00 | |
| OE5HKT-10 | 2026-08-31 12:20:27 | 48.62648 | 12.75896 | 61° | 22km/h | 29127m | 5.8m/s | -45.1°C | 2.9% | 13.9hPa | 2.7V | 00:00:00 | 00:00:00 | 00:00:00 | |
| DG1MFX-10 | 2026-08-31 12:20:26 | 48.62648 | 12.75896 | 61° | 13km/h | 29127m | 5.9m/s | -45.2°C | 0.8% | 13.9hPa | 2.7V | 00:00:00 | 00:00:00 | 00:00:00 | |
| DO3MHA-11 | 2026-08-31 12:20:24 | 48.62636 | 12.75891 | 353° | 26km/h | 29108m | 6.3m/s | -45.2°C | 2.9% | 13.9hPa | 2.7V | 00:00:00 | 01:51:02 | 00:00:00 | |
| OE5WHR-10 | 2026-08-31 12:20:23 | 48.62630 | 12.75893 | 347° | 15km/h | 29102m | 6.8m/s | -45.0°C | 2.9% | 13.9hPa | 2.7V | 00:00:00 | 00:00:00 | 00:00:00 | |
| OE5MMP-10 | 2026-08-31 12:20:21 | 48.62618 | 12.75896 | 2° | 22km/h | 29092m | 3.6m/s | -44.9°C | 2.9% | 13.9hPa | 2.7V | 00:00:00 | 01:50:59 | 00:00:00 | |
| DO3MHA-11 | 2026-08-31 12:20:14 | 48.62604 | 12.75840 | 99° | 22km/h | 29051m | 4.6m/s | -44.9°C | 2.8% | 14.0hPa | 2.7V | 00:00:00 | 01:50:52 | 00:00:00 | |
| OE8JPQ-2 | 2026-08-31 12:20:12 | 48.62603 | 12.75831 | 43° | 22km/h | 29042m | 5.3m/s | -45.1°C | 2.8% | 14.1hPa | 2.7V | 00:00:00 | 01:50:50 | 00:00:00 | |
| OE5MMP-10 | 2026-08-31 12:20:11 | 48.62599 | 12.75828 | 19° | 24km/h | 29036m | 7.0m/s | -45.1°C | 2.9% | 14.1hPa | 2.7V | 00:00:00 | 01:50:49 | 00:00:00 | |
| OE5DXL-15 | 2026-08-31 12:20:08 | 48.62579 | 12.75825 | 1° | 20km/h | 29018m | 4.8m/s | -45.1°C | 2.8% | 14.1hPa | 2.7V | 00:00:00 | 00:00:00 | 00:00:00 | |
| OE5HKT-10 | 2026-08-31 12:20:06 | 48.62565 | 12.75825 | 2° | 22km/h | 29008m | 5.3m/s | -45.1°C | 2.8% | 14.1hPa | 2.7V | 00:00:00 | 01:50:44 | 00:00:00 | |
| DO3MHA-11 | 2026-08-31 12:20:04 | 48.62558 | 12.75821 | 55° | 22km/h | 28997m | 5.2m/s | -45.2°C | 2.9% | 14.2hPa | 2.7V | 00:00:00 | 01:50:42 | 00:00:00 | |
| OE5MMP-10 | 2026-08-31 12:20:01 | 48.62553 | 12.75795 | 81° | 22km/h | 28978m | 5.3m/s | -45.1°C | 2.9% | 14.2hPa | 2.7V | 00:00:00 | 01:50:39 | 00:00:00 | |
| OE5REO-15 | 2026-08-31 12:19:56 | 48.62547 | 12.75754 | 66° | 16km/h | 28957m | 6.3m/s | -45.1°C | 0.8% | 14.3hPa | 2.7V | 00:00:00 | 00:00:00 | 00:00:00 | |
| DO3MHA-11 | 2026-08-31 12:19:54 | 48.62538 | 12.75745 | 18° | 18km/h | 28940m | 6.3m/s | -44.9°C | 2.8% | 14.3hPa | 2.7V | 00:00:00 | 01:50:32 | 00:00:00 | |
| OE8JPQ-2 | 2026-08-31 12:19:52 | 48.62528 | 12.75739 | 25° | 16km/h | 28928m | 5.1m/s | -44.9°C | 2.8% | 14.3hPa | 2.7V | 00:00:00 | 00:00:00 | 00:00:00 | |
| OE5MMP-10 | 2026-08-31 12:19:51 | 48.62522 | 12.75734 | 29° | 16km/h | 28923m | 4.6m/s | -44.9°C | 2.8% | 14.3hPa | 2.7V | 00:00:00 | 01:50:29 | 00:00:00 | |
| OE5HKT-10 | 2026-08-31 12:19:45 | 48.62504 | 12.75709 | 57° | 11km/h | 28888m | 6.4m/s | -45.0°C | 2.8% | 14.4hPa | 2.7V | 00:00:00 | 00:00:00 | 00:00:00 | |
| DO3MHA-11 | 2026-08-31 12:19:44 | 48.62501 | 12.75704 | 51° | 16km/h | 28882m | 5.0m/s | -45.0°C | 2.9% | 14.4hPa | 2.6V | 00:00:00 | 01:50:22 | 00:00:00 | |
| OE5MMP-10 | 2026-08-31 12:19:41 | 48.62491 | 12.75694 | 4° | 15km/h | 28866m | 6.6m/s | -45.0°C | 2.8% | 14.5hPa | 2.6V | 00:00:00 | 01:50:19 | 00:00:00 | |
| OE5DXL-15 | 2026-08-31 12:19:38 | 48.62480 | 12.75698 | 349° | 13km/h | 28848m | 6.5m/s | -45.0°C | 2.9% | 14.5hPa | 2.6V | 00:00:00 | 00:00:00 | 00:00:00 | |
| DO3MHA-11 | 2026-08-31 12:19:34 | 48.62464 | 12.75699 | 358° | 13km/h | 28825m | 6.2m/s | -45.2°C | 2.9% | 14.5hPa | 2.6V | 00:00:00 | 01:50:12 | 00:00:00 | |
| OE8JPQ-2 | 2026-08-31 12:19:33 | 48.62459 | 12.75698 | 21° | 11km/h | 28814m | 5.0m/s | -45.2°C | 2.8% | 14.6hPa | 2.7V | 00:00:00 | 00:00:00 | 00:00:00 | |
| OE5MMP-10 | 2026-08-31 12:19:31 | 48.62457 | 12.75697 | 35° | 15km/h | 28808m | 6.6m/s | -45.2°C | 2.9% | 14.6hPa | 2.7V | 00:00:00 | 01:50:09 | 08:30:00 | |
| OE5REO-15 | 2026-08-31 12:19:25 | 48.62440 | 12.75685 | 2° | 15km/h | 28778m | 5.9m/s | -45.5°C | 0.8% | 14.7hPa | 2.7V | 00:00:00 | 00:00:00 | 00:00:00 | |
| DO3MHA-11 | 2026-08-31 12:19:24 | 48.62432 | 12.75684 | 10° | 9km/h | 28766m | 6.5m/s | -45.5°C | 2.9% | 14.7hPa | 2.7V | 00:00:00 | 01:50:02 | 00:00:00 | |
| OE5FHM-15 | 2026-08-31 12:19:21 | 48.62421 | 12.75680 | 17° | 13km/h | 28749m | 6.6m/s | -45.5°C | 2.9% | 14.7hPa | 2.7V | 00:00:00 | 01:49:59 | 00:00:00 | |
| OE5HKT-10 | 2026-08-31 12:19:16 | 48.62415 | 12.75678 | 18° | 11km/h | 28720m | 5.1m/s | -45.6°C | 2.9% | 14.8hPa | 2.6V | 00:00:00 | 00:00:00 | 00:00:00 | |
| DO3MHA-11 | 2026-08-31 12:19:14 | 48.62410 | 12.75677 | 352° | 15km/h | 28709m | 6.7m/s | -45.8°C | 2.9% | 14.8hPa | 2.6V | 00:00:00 | 01:49:52 | 00:00:00 | |
| OE8JPQ-2 | 2026-08-31 12:19:12 | 48.62402 | 12.75680 | 344° | 15km/h | 28697m | 5.1m/s | -45.9°C | 2.9% | 14.8hPa | 2.6V | 00:00:00 | 01:49:50 | 00:00:00 | |
| OE5MMP-10 | 2026-08-31 12:19:11 | 48.62397 | 12.75682 | 354° | 13km/h | 28691m | 5.4m/s | -45.9°C | 3.0% | 14.9hPa | 2.6V | 00:00:00 | 01:49:49 | 00:00:00 | |
| DL6DJ-15 | 2026-08-31 12:19:10 | 48.62392 | 12.75682 | 6° | 20km/h | 28685m | 6.6m/s | -45.9°C | 0.8% | 14.9hPa | 2.6V | 00:00:00 | 00:00:00 | 00:00:00 | |
| OE5REO-15 | 2026-08-31 12:19:09 | 48.62392 | 12.75682 | 8° | 22km/h | 28685m | 6.6m/s | -45.9°C | 0.8% | 14.9hPa | 2.6V | 00:00:00 | 00:00:00 | 00:00:00 | |
| OE5DXL-15 | 2026-08-31 12:19:08 | 48.62383 | 12.75676 | 36° | 11km/h | 28675m | 4.4m/s | -45.8°C | 2.9% | 14.9hPa | 2.6V | 00:00:00 | 00:00:00 | 08:30:00 | |
| BAUMI2-15 | 2026-08-31 12:19:05 | 48.62377 | 12.75667 | 95° | 7km/h | 28657m | 5.8m/s | -45.8°C | 3.0% | 14.9hPa | 2.7V | 00:00:00 | 01:49:43 | 08:30:00 | |
| DO3MHA-11 | 2026-08-31 12:19:04 | 48.62378 | 12.75666 | 150° | 11km/h | 28652m | 4.9m/s | -45.8°C | 3.0% | 15.0hPa | 2.7V | 00:00:00 | 01:49:42 | 08:30:00 | |
| OE5MMP-10 | 2026-08-31 12:19:01 | 48.62379 | 12.75661 | 71° | 16km/h | 28635m | 5.3m/s | -45.7°C | 2.9% | 15.0hPa | 2.6V | 00:00:00 | 01:49:39 | 00:00:00 | |
| BAUMI2-15 | 2026-08-31 12:18:58 | 48.62373 | 12.75653 | 23° | 18km/h | 28617m | 6.3m/s | -45.6°C | 3.0% | 15.0hPa | 2.6V | 00:00:00 | 01:49:36 | 00:00:00 | |
| DO3MHA-11 | 2026-08-31 12:18:54 | 48.62356 | 12.75643 | 32° | 13km/h | 28595m | 5.7m/s | -45.7°C | 2.9% | 15.1hPa | 2.6V | 00:00:00 | 01:49:32 | 00:00:00 | |
| BAUMI2-15 | 2026-08-31 12:18:53 | 48.62351 | 12.75638 | 39° | 13km/h | 28589m | 4.4m/s | -45.8°C | 3.0% | 15.1hPa | 2.6V | 00:00:00 | 01:49:31 | 00:00:00 | |
| OE8JPQ-2 | 2026-08-31 12:18:52 | 48.62347 | 12.75633 | 45° | 11km/h | 28585m | 4.8m/s | -45.8°C | 3.0% | 15.1hPa | 2.6V | 00:00:00 | 00:00:00 | 08:30:00 | |
| OE5FHM-15 | 2026-08-31 12:18:51 | 48.62345 | 12.75629 | 54° | 9km/h | 28579m | 6.5m/s | -45.8°C | 3.0% | 15.1hPa | 2.7V | 00:00:00 | 01:49:29 | 00:00:00 | |
| BAUMI2-15 | 2026-08-31 12:18:45 | 48.62350 | 12.75615 | 74° | 11km/h | 28545m | 4.1m/s | -45.7°C | 2.9% | 15.2hPa | 2.7V | 00:00:00 | 01:49:23 | 00:00:00 | |
| DO3MHA-11 | 2026-08-31 12:18:44 | 48.62349 | 12.75612 | 49° | 11km/h | 28541m | 5.5m/s | -45.8°C | 2.9% | 15.2hPa | 2.6V | 00:00:00 | 01:49:22 | 00:00:00 | |
| OE5HKT-10 | 2026-08-31 12:18:43 | 48.62347 | 12.75610 | 28° | 9km/h | 28535m | 6.1m/s | -45.8°C | 2.9% | 15.2hPa | 2.6V | 00:00:00 | 01:49:21 | 00:00:00 | |
| OE5MMP-10 | 2026-08-31 12:18:41 | 48.62341 | 12.75607 | 17° | 9km/h | 28523m | 5.0m/s | -46.1°C | 2.9% | 15.3hPa | 2.6V | 00:00:00 | 01:49:19 | 00:00:00 | |
| BAUMI2-15 | 2026-08-31 12:18:40 | 48.62338 | 12.75605 | 28° | 11km/h | 28518m | 6.1m/s | -46.1°C | 2.9% | 15.3hPa | 2.6V | 00:00:00 | 01:49:18 | 00:00:00 | |
| DL6DJ-15 | 2026-08-31 12:18:39 | 48.62336 | 12.75602 | 43° | 15km/h | 28511m | 6.3m/s | -46.2°C | 0.8% | 15.3hPa | 2.6V | 00:00:00 | 00:00:00 | 00:00:00 | |
| OE5DXL-15 | 2026-08-31 12:18:38 | 48.62333 | 12.75598 | 55° | 9km/h | 28506m | 5.0m/s | -46.1°C | 2.9% | 15.3hPa | 2.6V | 00:00:00 | 00:00:00 | 00:00:00 | |
| OE5REO-15 | 2026-08-31 12:18:37 | 48.62333 | 12.75598 | 55° | 15km/h | 28506m | 5.0m/s | -46.2°C | 0.8% | 15.3hPa | 2.6V | 00:00:00 | 00:00:00 | 00:00:00 | |
| DO3MHA-11 | 2026-08-31 12:18:34 | 48.62327 | 12.75588 | 17° | 9km/h | 28482m | 5.4m/s | -46.0°C | 2.9% | 15.4hPa | 2.6V | 00:00:00 | 01:49:12 | 00:00:00 | |
| OE8JPQ-2 | 2026-08-31 12:18:32 | 48.62323 | 12.75586 | 22° | 9km/h | 28464m | 5.0m/s | -46.3°C | 2.9% | 15.4hPa | 2.6V | 00:00:00 | 00:00:00 | 00:00:00 | |
| OE5MMP-10 | 2026-08-31 12:18:31 | 48.62323 | 12.75586 | 22° | 9km/h | 28464m | 5.0m/s | -46.3°C | 2.9% | 15.4hPa | 2.6V | 00:00:00 | 01:49:09 | 00:00:00 | |
| BAUMI2-15 | 2026-08-31 12:18:29 | 48.62319 | 12.75585 | 353° | 11km/h | 28452m | 6.8m/s | -46.5°C | 3.0% | 15.4hPa | 2.7V | 00:00:00 | 01:49:07 | 00:00:00 | |
| DO3MHA-11 | 2026-08-31 12:18:24 | 48.62308 | 12.75579 | 73° | 13km/h | 28424m | 5.1m/s | -46.6°C | 3.0% | 15.5hPa | 2.7V | 00:00:00 | 01:49:02 | 00:00:00 | |
| DG1MFX-10 | 2026-08-31 12:18:23 | 48.62308 | 12.75579 | 74° | 9km/h | 28424m | 5.2m/s | -46.6°C | 0.9% | 15.5hPa | 2.7V | 00:00:00 | 00:00:00 | 00:00:00 | |
| PETON7-10 | 2026-08-31 12:18:22 | 48.62308 | 12.75572 | 112° | 11km/h | 28411m | 6.0m/s | -46.6°C | 3.1% | 15.5hPa | 2.7V | 00:00:00 | 01:49:00 | 00:00:00 | |
| OE5FHM-15 | 2026-08-31 12:18:21 | 48.62309 | 12.75570 | 124° | 11km/h | 28406m | 5.1m/s | -46.6°C | 3.1% | 15.6hPa | 2.7V | 00:00:00 | 01:48:59 | 00:00:00 | |
| BAUMI2-15 | 2026-08-31 12:18:19 | 48.62311 | 12.75563 | 111° | 9km/h | 28394m | 5.9m/s | -46.7°C | 3.1% | 15.6hPa | 2.7V | 00:00:00 | 01:48:57 | 00:00:00 | |
| OE5HKT-10 | 2026-08-31 12:18:18 | 48.62312 | 12.75559 | 99° | 13km/h | 28389m | 4.6m/s | -46.8°C | 3.1% | 15.6hPa | 2.7V | 00:00:00 | 00:00:00 | 08:30:00 | |
| BAUMI2-15 | 2026-08-31 12:18:14 | 48.62308 | 12.75552 | 3° | 9km/h | 28366m | 5.1m/s | -46.7°C | 3.1% | 15.6hPa | 2.6V | 00:00:00 | 01:48:52 | 08:30:00 | |
| OE5MMP-10 | 2026-08-31 12:18:11 | 48.62303 | 12.75546 | 66° | 13km/h | 28349m | 5.4m/s | -46.7°C | 3.1% | 15.7hPa | 2.7V | 00:00:00 | 01:48:49 | 00:00:00 | |
| BAUMI2-15 | 2026-08-31 12:18:09 | 48.62302 | 12.75540 | 106° | 11km/h | 28337m | 6.5m/s | -46.7°C | 3.1% | 15.7hPa | 2.7V | 00:00:00 | 01:48:47 | 00:00:00 | |
| DL6DJ-15 | 2026-08-31 12:18:08 | 48.62303 | 12.75537 | 129° | 7km/h | 28331m | 5.7m/s | -46.7°C | 0.9% | 15.8hPa | 2.7V | 00:00:00 | 00:00:00 | 00:00:00 | |
| OE5REO-15 | 2026-08-31 12:18:06 | 48.62305 | 12.75534 | 139° | 11km/h | 28325m | 4.8m/s | -46.7°C | 0.8% | 15.8hPa | 2.7V | 00:00:00 | 00:00:00 | 00:00:00 | |
| OE5WHR-10 | 2026-08-31 12:18:05 | 48.62309 | 12.75527 | 123° | 11km/h | 28314m | 6.7m/s | -46.7°C | 3.1% | 15.8hPa | 2.7V | 00:00:00 | 01:48:43 | 00:00:00 | |
| BAUMI2-15 | 2026-08-31 12:18:04 | 48.62311 | 12.75521 | 113° | 15km/h | 28308m | 5.5m/s | -46.6°C | 3.1% | 15.8hPa | 2.7V | 00:00:00 | 01:48:42 | 00:00:00 | |
| DG1MFX-10 | 2026-08-31 12:18:03 | 48.62311 | 12.75521 | 114° | 18km/h | 28308m | 5.5m/s | -46.7°C | 0.9% | 15.8hPa | 2.7V | 00:00:00 | 00:00:00 | 00:00:00 | |
| OE5MMP-10 | 2026-08-31 12:18:01 | 48.62313 | 12.75504 | 74° | 13km/h | 28291m | 5.7m/s | -46.5°C | 3.1% | 15.8hPa | 2.7V | 00:00:00 | 01:48:39 | 08:30:00 | |
| DO3MHA-11 | 2026-08-31 12:17:59 | 48.62310 | 12.75497 | 51° | 11km/h | 28281m | 4.9m/s | -46.5°C | 3.1% | 15.8hPa | 2.6V | 00:00:00 | 01:48:37 | 00:00:00 | |
| BAUMI2-15 | 2026-08-31 12:17:54 | 48.62307 | 12.75471 | 116° | 9km/h | 28253m | 6.6m/s | -46.7°C | 3.1% | 15.9hPa | 2.6V | 00:00:00 | 01:48:32 | 00:00:00 | |
| OE5HKT-10 | 2026-08-31 12:17:53 | 48.62308 | 12.75469 | 144° | 11km/h | 28246m | 6.4m/s | -46.7°C | 3.1% | 15.9hPa | 2.6V | 00:00:00 | 00:00:00 | 00:00:00 | |
| OE5MMP-10 | 2026-08-31 12:17:51 | 48.62312 | 12.75466 | 162° | 13km/h | 28235m | 5.0m/s | -46.5°C | 3.0% | 16.0hPa | 2.6V | 00:00:00 | 01:48:29 | 00:00:00 | |
| OE5REO-15 | 2026-08-31 12:17:50 | 48.62312 | 12.75466 | 162° | 7km/h | 28235m | 5.0m/s | -46.6°C | 0.8% | 16.0hPa | 2.6V | 00:00:00 | 00:00:00 | 00:00:00 | |
| DO3MHA-11 | 2026-08-31 12:17:49 | 48.62315 | 12.75462 | 106° | 13km/h | 28223m | 5.7m/s | -46.4°C | 3.0% | 16.0hPa | 2.6V | 00:00:00 | 01:48:27 | 00:00:00 | |
| BAUMI2-15 | 2026-08-31 12:17:43 | 48.62305 | 12.75438 | 54° | 15km/h | 28188m | 6.7m/s | -46.7°C | 3.0% | 16.1hPa | 2.6V | 00:00:00 | 01:48:21 | 00:00:00 | |
| DG1MFX-10 | 2026-08-31 12:17:42 | 48.62305 | 12.75438 | 54° | 16km/h | 28188m | 6.8m/s | -46.8°C | 0.8% | 16.1hPa | 2.6V | 00:00:00 | 00:00:00 | 00:00:00 | |
| OE5MMP-10 | 2026-08-31 12:17:41 | 48.62301 | 12.75427 | 66° | 7km/h | 28177m | 4.6m/s | -46.8°C | 3.0% | 16.1hPa | 2.6V | 00:00:00 | 01:48:19 | 00:00:00 | |
| DO3MHA-11 | 2026-08-31 12:17:39 | 48.62299 | 12.75419 | 69° | 7km/h | 28166m | 6.9m/s | -46.7°C | 3.1% | 16.1hPa | 2.6V | 00:00:00 | 01:48:17 | 00:00:00 | |
| BAUMI2-15 | 2026-08-31 12:17:38 | 48.62299 | 12.75417 | 76° | 5km/h | 28159m | 6.0m/s | -46.6°C | 3.1% | 16.1hPa | 2.6V | 00:00:00 | 01:48:16 | 00:00:00 | |
| DL6DJ-15 | 2026-08-31 12:17:37 | 48.62299 | 12.75417 | 214° | 0km/h | 28153m | 5.0m/s | -46.7°C | 0.8% | 16.2hPa | 2.6V | 00:00:00 | 00:00:00 | 00:00:00 | |
| OE5DXL-15 | 2026-08-31 12:17:35 | 48.62299 | 12.75417 | 103° | 11km/h | 28142m | 6.0m/s | -46.6°C | 3.0% | 16.2hPa | 2.6V | 00:00:00 | 00:00:00 | 00:00:00 | |
| OE5REO-15 | 2026-08-31 12:17:34 | 48.62300 | 12.75417 | 104° | 4km/h | 28142m | 6.0m/s | -46.7°C | 0.8% | 16.2hPa | 2.7V | 00:00:00 | 00:00:00 | 00:00:00 | |
| BAUMI2-15 | 2026-08-31 12:17:32 | 48.62298 | 12.75408 | 62° | 15km/h | 28125m | 6.5m/s | -46.7°C | 3.1% | 16.2hPa | 2.7V | 00:00:00 | 01:48:10 | 00:00:00 | |
| OE5WHR-10 | 2026-08-31 12:17:30 | 48.62292 | 12.75395 | 52° | 13km/h | 28108m | 6.7m/s | -46.9°C | 3.1% | 16.3hPa | 2.7V | 00:00:00 | 00:00:00 | 00:00:00 | |
| DO3MHA-11 | 2026-08-31 12:17:29 | 48.62292 | 12.75395 | 52° | 11km/h | 28108m | 6.7m/s | -46.9°C | 3.1% | 16.3hPa | 2.6V | 00:00:00 | 01:48:07 | 00:00:00 | |
| BAUMI2-15 | 2026-08-31 12:17:27 | 48.62285 | 12.75383 | 53° | 9km/h | 28096m | 4.5m/s | -46.8°C | 3.1% | 16.3hPa | 2.6V | 00:00:00 | 01:48:05 | 08:30:00 | |
| OE5HKT-10 | 2026-08-31 12:17:26 | 48.62282 | 12.75377 | 48° | 7km/h | 28091m | 5.6m/s | -46.9°C | 3.1% | 16.3hPa | 2.7V | 00:00:00 | 01:48:04 | 00:00:00 | |
| DG1MFX-10 | 2026-08-31 12:17:22 | 48.62277 | 12.75372 | 348° | 4km/h | 28072m | 5.6m/s | -47.2°C | 0.9% | 16.4hPa | 2.7V | 00:00:00 | 00:00:00 | 00:00:00 | |
| DO3MHA-11 | 2026-08-31 12:17:19 | 48.62274 | 12.75368 | 47° | 15km/h | 28049m | 6.8m/s | -47.2°C | 3.1% | 16.4hPa | 2.7V | 00:00:00 | 01:47:57 | 08:30:00 | |
| OE5REO-15 | 2026-08-31 12:17:18 | 48.62274 | 12.75368 | 48° | 5km/h | 28049m | 6.8m/s | -47.2°C | 0.8% | 16.5hPa | 2.7V | 00:00:00 | 00:00:00 | 00:00:00 | |
| BAUMI2-15 | 2026-08-31 12:17:16 | 48.62269 | 12.75360 | 51° | 20km/h | 28031m | 6.6m/s | -47.3°C | 3.1% | 16.5hPa | 2.7V | 00:00:00 | 01:47:54 | 00:00:00 | |
| OE5MMP-10 | 2026-08-31 12:17:11 | 48.62253 | 12.75332 | 36° | 4km/h | 28002m | 5.5m/s | -47.1°C | 3.1% | 16.6hPa | 2.7V | 00:00:00 | 01:47:49 | 00:00:00 | |
| DO3MHA-11 | 2026-08-31 12:17:09 | 48.62251 | 12.75330 | 80° | 5km/h | 27991m | 6.0m/s | -47.1°C | 3.1% | 16.6hPa | 2.7V | 00:00:00 | 01:47:47 | 00:00:00 | |
| OE5WHR-10 | 2026-08-31 12:17:08 | 48.62251 | 12.75329 | 121° | 9km/h | 27985m | 6.1m/s | -47.1°C | 3.1% | 16.6hPa | 2.7V | 00:00:00 | 00:00:00 | 00:00:00 | |
| DL6DJ-15 | 2026-08-31 12:17:06 | 48.62253 | 12.75326 | 128° | 4km/h | 27974m | 4.9m/s | -47.2°C | 0.8% | 16.7hPa | 2.7V | 00:00:00 | 00:00:00 | 00:00:00 | |
| OE5HKT-10 | 2026-08-31 12:17:05 | 48.62254 | 12.75325 | 138° | 9km/h | 27968m | 5.9m/s | -47.2°C | 3.1% | 16.6hPa | 2.7V | 00:00:00 | 00:00:00 | 00:00:00 | |
| DG1MFX-10 | 2026-08-31 12:17:02 | 48.62256 | 12.75323 | 132° | 4km/h | 27952m | 4.6m/s | -47.3°C | 0.8% | 16.7hPa | 2.6V | 00:00:00 | 00:00:00 | 00:00:00 | |
| OE5MMP-10 | 2026-08-31 12:17:01 | 48.62256 | 12.75321 | 113° | 13km/h | 27947m | 6.4m/s | -47.3°C | 3.1% | 16.7hPa | 2.6V | 00:00:00 | 01:47:39 | 00:00:00 | |
| DO3MHA-11 | 2026-08-31 12:16:59 | 48.62257 | 12.75312 | 92° | 13km/h | 27934m | 5.6m/s | -47.4°C | 3.1% | 16.7hPa | 2.7V | 00:00:00 | 01:47:37 | 00:00:00 | |
| OE5FHM-15 | 2026-08-31 12:16:51 | 48.62247 | 12.75278 | 54° | 15km/h | 27888m | 5.8m/s | -47.7°C | 3.2% | 16.8hPa | 2.7V | 00:00:00 | 01:47:29 | 00:00:00 | |
| DO3MHA-11 | 2026-08-31 12:16:49 | 48.62244 | 12.75274 | 25° | 11km/h | 27875m | 5.5m/s | -47.7°C | 3.2% | 16.9hPa | 2.7V | 00:00:00 | 01:47:27 | 00:00:00 | |
| OE5WHR-10 | 2026-08-31 12:16:47 | 48.62242 | 12.75271 | 69° | 13km/h | 27865m | 6.4m/s | -47.8°C | 3.2% | 16.9hPa | 2.6V | 00:00:00 | 01:47:25 | 00:00:00 | |
| OE5REO-15 | 2026-08-31 12:16:46 | 48.62242 | 12.75271 | 70° | 7km/h | 27865m | 6.4m/s | -47.9°C | 0.9% | 17.0hPa | 2.6V | 00:00:00 | 00:00:00 | 00:00:00 | |
| OE5HKT-10 | 2026-08-31 12:16:44 | 48.62241 | 12.75258 | 79° | 16km/h | 27848m | 5.9m/s | -48.0°C | 3.2% | 17.0hPa | 2.6V | 00:00:00 | 00:00:00 | 00:00:00 | |
| OE5MMP-10 | 2026-08-31 12:16:41 | 48.62235 | 12.75247 | 34° | 11km/h | 27831m | 5.1m/s | -47.8°C | 3.1% | 17.0hPa | 2.6V | 00:00:00 | 01:47:19 | 00:00:00 | |
| DO3MHA-11 | 2026-08-31 12:16:39 | 48.62229 | 12.75240 | 47° | 11km/h | 27820m | 6.2m/s | -47.9°C | 3.1% | 17.0hPa | 2.6V | 00:00:00 | 01:47:17 | 00:00:00 | |
| OE5DXL-15 | 2026-08-31 12:16:35 | 48.62222 | 12.75226 | 32° | 20km/h | 27796m | 6.2m/s | -48.1°C | 3.2% | 17.1hPa | 2.6V | 00:00:00 | 00:00:00 | 00:00:00 | |
| OE5MMP-10 | 2026-08-31 12:16:31 | 48.62214 | 12.75218 | 44° | 20km/h | 27773m | 5.2m/s | -48.1°C | 3.2% | 17.1hPa | 2.6V | 00:00:00 | 01:47:09 | 08:30:00 | |
| OE5REO-15 | 2026-08-31 12:16:30 | 48.62214 | 12.75218 | 44° | 15km/h | 27773m | 5.2m/s | -48.2°C | 0.9% | 17.2hPa | 2.7V | 00:00:00 | 00:00:00 | 00:00:00 | |
| DO3MHA-11 | 2026-08-31 12:16:29 | 48.62207 | 12.75210 | 25° | 20km/h | 27762m | 6.6m/s | -48.1°C | 3.2% | 17.2hPa | 2.7V | 00:00:00 | 01:47:07 | 00:00:00 | |
| OE8JPQ-2 | 2026-08-31 12:16:27 | 48.62197 | 12.75205 | 20° | 22km/h | 27751m | 4.5m/s | 0°C | 0% | 0hPa | 2.7V | 00:00:00 | 00:00:00 | 00:00:00 | |
| OE5WHR-10 | 2026-08-31 12:16:26 | 48.62192 | 12.75201 | 26° | 22km/h | 27745m | 6.6m/s | -48.2°C | 3.3% | 17.2hPa | 2.7V | 00:00:00 | 00:00:00 | 08:30:00 | |
| OE5MMP-10 | 2026-08-31 12:16:21 | 48.62167 | 12.75186 | 3° | 22km/h | 27716m | 4.9m/s | -48.2°C | 3.2% | 17.3hPa | 2.6V | 00:00:00 | 01:46:59 | 00:00:00 | |
| DG1MFX-10 | 2026-08-31 12:16:20 | 48.62167 | 12.75186 | 3° | 18km/h | 27716m | 5.0m/s | -48.3°C | 0.9% | 17.4hPa | 2.6V | 00:00:00 | 00:00:00 | 00:00:00 | |
| DO3MHA-11 | 2026-08-31 12:16:19 | 48.62158 | 12.75185 | 9° | 24km/h | 27706m | 5.9m/s | -48.2°C | 3.2% | 17.3hPa | 2.6V | 00:00:00 | 01:46:57 | 00:00:00 | |
| DK5PH-5 | 2026-08-31 12:16:15 | 48.62141 | 12.75173 | 24° | 22km/h | 27683m | 6.2m/s | -48.3°C | 3.2% | 17.4hPa | 2.6V | 00:00:00 | 01:46:53 | 00:00:00 | |
| OE5REO-15 | 2026-08-31 12:16:14 | 48.62141 | 12.75173 | 24° | 24km/h | 27683m | 6.3m/s | -48.3°C | 0.9% | 17.4hPa | 2.6V | 00:00:00 | 00:00:00 | 00:00:00 | |
| OE5MMP-10 | 2026-08-31 12:16:11 | 48.62112 | 12.75164 | 10° | 20km/h | 27660m | 6.2m/s | -48.6°C | 3.2% | 17.5hPa | 2.6V | 00:00:00 | 01:46:49 | 00:00:00 | |
| DO3MHA-11 | 2026-08-31 12:16:09 | 48.62099 | 12.75160 | 14° | 20km/h | 27649m | 4.8m/s | -48.6°C | 3.3% | 17.5hPa | 2.6V | 00:00:00 | 01:46:47 | 00:00:00 | |
| OE8JPQ-2 | 2026-08-31 12:16:07 | 48.62088 | 12.75158 | 2° | 22km/h | 27637m | 6.1m/s | 0°C | 0% | 0hPa | 2.6V | 00:00:00 | 01:46:45 | 00:00:00 | |
| OE5WHR-10 | 2026-08-31 12:16:05 | 48.62080 | 12.75157 | 9° | 24km/h | 27626m | 5.9m/s | -48.6°C | 3.3% | 17.6hPa | 2.6V | 00:00:00 | 00:00:00 | 00:00:00 | |
| DL6DJ-15 | 2026-08-31 12:16:04 | 48.62076 | 12.75156 | 21° | 15km/h | 27620m | 6.0m/s | -48.7°C | 0.9% | 17.6hPa | 2.6V | 00:00:00 | 00:00:00 | 00:00:00 | |
| OE5MMP-10 | 2026-08-31 12:16:01 | 48.62062 | 12.75148 | 14° | 27km/h | 27605m | 6.2m/s | -48.8°C | 3.3% | 17.6hPa | 2.6V | 00:00:00 | 01:46:39 | 00:00:00 | |
| DO3MHA-11 | 2026-08-31 12:15:59 | 48.62047 | 12.75146 | 359° | 26km/h | 27592m | 6.0m/s | -48.9°C | 3.3% | 17.6hPa | 2.6V | 00:00:00 | 01:46:37 | 00:00:00 | |
| OE5REO-15 | 2026-08-31 12:15:58 | 48.62047 | 12.75146 | 360° | 35km/h | 27592m | 6.0m/s | -49.0°C | 0.9% | 17.7hPa | 2.6V | 00:00:00 | 00:00:00 | 00:00:00 | |
| OE5HKT-10 | 2026-08-31 12:15:55 | 48.62012 | 12.75145 | 10° | 20km/h | 27571m | 4.8m/s | -48.8°C | 3.3% | 17.7hPa | 2.6V | 00:00:00 | 00:00:00 | 00:00:00 | |
| OE5MMP-10 | 2026-08-31 12:15:51 | 48.61992 | 12.75143 | 348° | 24km/h | 27549m | 5.3m/s | -49.0°C | 3.4% | 17.8hPa | 2.6V | 00:00:00 | 01:46:29 | 00:00:00 | |
| DO3MHA-11 | 2026-08-31 12:15:49 | 48.61985 | 12.75145 | 359° | 24km/h | 27538m | 6.4m/s | -49.1°C | 3.4% | 17.8hPa | 2.6V | 00:00:00 | 01:46:27 | 08:30:00 | |
| OE8JPQ-2 | 2026-08-31 12:15:46 | 48.61968 | 12.75145 | 356° | 26km/h | 27521m | 6.3m/s | 0°C | 0% | 0hPa | 2.6V | 00:00:00 | 00:00:00 | 08:30:00 | |
| OE5WHR-10 | 2026-08-31 12:15:44 | 48.61954 | 12.75149 | 346° | 20km/h | 27509m | 5.5m/s | -48.8°C | 3.3% | 17.9hPa | 2.6V | 00:00:00 | 01:46:22 | 00:00:00 | |
| DK5PH-5 | 2026-08-31 12:15:42 | 48.61939 | 12.75154 | 352° | 18km/h | 27498m | 6.1m/s | -49.0°C | 3.4% | 17.9hPa | 2.6V | 00:00:00 | 01:46:20 | 00:00:00 | |
| OE5MMP-10 | 2026-08-31 12:15:41 | 48.61933 | 12.75155 | 356° | 16km/h | 27492m | 5.0m/s | -49.0°C | 3.4% | 17.9hPa | 2.6V | 00:00:00 | 01:46:19 | 00:00:00 | |
| DO3MHA-11 | 2026-08-31 12:15:39 | 48.61924 | 12.75157 | 346° | 18km/h | 27481m | 6.6m/s | -49.1°C | 3.4% | 18.0hPa | 2.6V | 00:00:00 | 01:46:17 | 00:00:00 | |
| DG1MFX-10 | 2026-08-31 12:15:38 | 48.61924 | 12.75157 | 347° | 15km/h | 27481m | 6.7m/s | -49.2°C | 0.9% | 18.0hPa | 2.6V | 00:00:00 | 00:00:00 | 00:00:00 | |
| OE5DXL-15 | 2026-08-31 12:15:35 | 48.61913 | 12.75163 | 352° | 18km/h | 27457m | 5.0m/s | -49.1°C | 3.4% | 18.0hPa | 2.6V | 00:00:00 | 00:00:00 | 00:00:00 | |
| OE5HKT-10 | 2026-08-31 12:15:34 | 48.61910 | 12.75164 | 349° | 20km/h | 27452m | 4.6m/s | -49.2°C | 3.4% | 18.0hPa | 2.6V | 00:00:00 | 00:00:00 | 00:00:00 | |
| DL6DJ-15 | 2026-08-31 12:15:33 | 48.61901 | 12.75169 | 334° | 22km/h | 27440m | 6.7m/s | -49.3°C | 1.0% | 18.1hPa | 2.6V | 00:00:00 | 00:00:00 | 00:00:00 | |
| OE5MMP-10 | 2026-08-31 12:15:31 | 48.61895 | 12.75173 | 334° | 20km/h | 27434m | 5.5m/s | -49.2°C | 3.4% | 18.1hPa | 2.6V | 00:00:00 | 01:46:09 | 00:00:00 | |
| DO3MHA-11 | 2026-08-31 12:15:29 | 48.61882 | 12.75181 | 343° | 15km/h | 27423m | 6.3m/s | -49.2°C | 3.3% | 18.1hPa | 2.7V | 00:00:00 | 01:46:07 | 00:00:00 | |
| OE5REO-15 | 2026-08-31 12:15:27 | 48.61875 | 12.75184 | 349° | 26km/h | 27417m | 4.7m/s | -49.4°C | 0.9% | 18.2hPa | 2.7V | 00:00:00 | 00:00:00 | 00:00:00 | |
| OE8JPQ-2 | 2026-08-31 12:15:26 | 48.61865 | 12.75188 | 339° | 20km/h | 27407m | 6.1m/s | 0°C | 0% | 0hPa | 2.7V | 00:00:00 | 00:00:00 | 00:00:00 | |
| PETON7-10 | 2026-08-31 12:15:24 | 48.61859 | 12.75195 | 306° | 15km/h | 27395m | 5.3m/s | -49.2°C | 3.4% | 18.2hPa | 2.7V | 00:00:00 | 01:46:02 | 00:00:00 | |
| OE5WHR-10 | 2026-08-31 12:15:23 | 48.61857 | 12.75198 | 294° | 16km/h | 27389m | 5.9m/s | -49.3°C | 3.4% | 18.2hPa | 2.7V | 00:00:00 | 00:00:00 | 00:00:00 | |
| OE5FHM-15 | 2026-08-31 12:15:21 | 48.61857 | 12.75203 | 270° | 16km/h | 27377m | 5.3m/s | -49.1°C | 3.4% | 18.2hPa | 2.6V | 00:00:00 | 01:45:59 | 00:00:00 | |
| DO3MHA-11 | 2026-08-31 12:15:19 | 48.61856 | 12.75207 | 301° | 20km/h | 27368m | 4.3m/s | -49.2°C | 3.4% | 18.3hPa | 2.6V | 00:00:00 | 01:45:57 | 00:00:00 | |
| DG1MFX-10 | 2026-08-31 12:15:18 | 48.61856 | 12.75207 | 301° | 9km/h | 27368m | 4.3m/s | -49.2°C | 1.0% | 18.3hPa | 2.6V | 00:00:00 | 00:00:00 | 00:00:00 | |
| DK5PH-5 | 2026-08-31 12:15:11 | 48.61816 | 12.75242 | 340° | 13km/h | 27327m | 4.4m/s | -49.6°C | 3.4% | 18.4hPa | 2.6V | 00:00:00 | 01:45:49 | 00:00:00 | |
| DO3MHA-11 | 2026-08-31 12:15:09 | 48.61813 | 12.75248 | 254° | 18km/h | 27315m | 6.3m/s | -49.7°C | 3.4% | 18.4hPa | 2.6V | 00:00:00 | 01:45:47 | 00:00:00 | |
| OE5DXL-15 | 2026-08-31 12:15:05 | 48.61828 | 12.75270 | 211° | 11km/h | 27291m | 4.8m/s | -49.6°C | 3.5% | 18.5hPa | 2.6V | 00:00:00 | 00:00:00 | 00:00:00 | |
| DL6DJ-15 | 2026-08-31 12:15:02 | 48.61834 | 12.75286 | 307° | 15km/h | 27270m | 5.8m/s | -49.4°C | 0.9% | 18.6hPa | 2.6V | 00:00:00 | 00:00:00 | 00:00:00 | |
| OE5MMP-10 | 2026-08-31 12:15:01 | 48.61834 | 12.75286 | 308° | 13km/h | 27270m | 5.8m/s | -49.4°C | 3.4% | 18.6hPa | 2.6V | 00:00:00 | 01:45:39 | 08:30:00 | |
| DO3MHA-11 | 2026-08-31 12:14:59 | 48.61827 | 12.75294 | 339° | 13km/h | 27259m | 6.4m/s | -49.5°C | 3.4% | 18.6hPa | 2.6V | 00:00:00 | 01:45:37 | 00:00:00 | |
| DG1MFX-10 | 2026-08-31 12:14:58 | 48.61827 | 12.75294 | 339° | 18km/h | 27259m | 6.4m/s | -49.5°C | 1.0% | 18.7hPa | 2.6V | 00:00:00 | 00:00:00 | 00:00:00 | |
| BAUMI2-15 | 2026-08-31 12:14:56 | 48.61817 | 12.75297 | 337° | 11km/h | 27244m | 4.8m/s | -49.5°C | 3.4% | 18.6hPa | 2.6V | 00:00:00 | 01:45:34 | 00:00:00 | |
| OE5MMP-10 | 2026-08-31 12:14:52 | 48.61820 | 12.75314 | 217° | 9km/h | 27214m | 5.6m/s | -49.8°C | 3.5% | 18.7hPa | 2.6V | 00:00:00 | 01:45:29 | 00:00:00 | |
| OE5FHM-15 | 2026-08-31 12:14:51 | 48.61820 | 12.75314 | 217° | 7km/h | 27214m | 5.6m/s | -49.8°C | 3.5% | 18.7hPa | 2.6V | 00:00:00 | 01:45:29 | 00:00:00 | |
| BAUMI2-15 | 2026-08-31 12:14:50 | 48.61823 | 12.75317 | 216° | 13km/h | 27209m | 4.3m/s | -49.8°C | 3.5% | 18.7hPa | 2.6V | 00:00:00 | 01:45:28 | 00:00:00 | |
| DO3MHA-11 | 2026-08-31 12:14:49 | 48.61826 | 12.75320 | 223° | 7km/h | 27204m | 5.8m/s | -49.8°C | 3.5% | 18.8hPa | 2.6V | 00:00:00 | 01:45:27 | 00:00:00 | |
| PETON7-10 | 2026-08-31 12:14:45 | 48.61832 | 12.75337 | 248° | 9km/h | 27182m | 6.7m/s | -49.9°C | 3.5% | 18.8hPa | 2.6V | 00:00:00 | 00:00:00 | 00:00:00 | |
| DK5PH-5 | 2026-08-31 12:14:41 | 48.61831 | 12.75339 | 327° | 7km/h | 27158m | 5.6m/s | -49.7°C | 3.4% | 18.9hPa | 2.6V | 00:00:00 | 01:45:19 | 00:00:00 | |
| BAUMI2-15 | 2026-08-31 12:14:40 | 48.61830 | 12.75340 | 313° | 5km/h | 27152m | 5.6m/s | -49.7°C | 3.5% | 18.9hPa | 2.6V | 00:00:00 | 01:45:18 | 00:00:00 | |
| DO3MHA-11 | 2026-08-31 12:14:39 | 48.61830 | 12.75340 | 187° | 7km/h | 27146m | 6.6m/s | -49.7°C | 3.4% | 18.9hPa | 2.6V | 00:00:00 | 01:45:17 | 00:00:00 | |
| DG1MFX-10 | 2026-08-31 12:14:38 | 48.61831 | 12.75340 | 174° | 5km/h | 27140m | 5.2m/s | -49.7°C | 1.0% | 19.0hPa | 2.6V | 00:00:00 | 00:00:00 | 00:00:00 | |
| BAUMI2-15 | 2026-08-31 12:14:35 | 48.61837 | 12.75344 | 223° | 9km/h | 27123m | 6.5m/s | -49.9°C | 3.5% | 19.0hPa | 2.6V | 00:00:00 | 01:45:13 | 08:30:00 | |
| DL6DJ-15 | 2026-08-31 12:14:31 | 48.61843 | 12.75352 | 51° | 5km/h | 27094m | 5.5m/s | -49.8°C | 1.0% | 19.1hPa | 2.6V | 00:00:00 | 00:00:00 | 00:00:00 | |
| BAUMI2-15 | 2026-08-31 12:14:30 | 48.61843 | 12.75351 | 52° | 7km/h | 27094m | 5.4m/s | -49.7°C | 3.5% | 19.1hPa | 2.6V | 00:00:00 | 01:45:08 | 00:00:00 | |
| DO3MHA-11 | 2026-08-31 12:14:29 | 48.61842 | 12.75350 | 36° | 7km/h | 27088m | 6.6m/s | -49.7°C | 3.5% | 19.1hPa | 2.6V | 00:00:00 | 01:45:07 | 00:00:00 | |
| OE5HKT-10 | 2026-08-31 12:14:26 | 48.61837 | 12.75345 | 46° | 9km/h | 27071m | 5.8m/s | -49.7°C | 3.5% | 19.1hPa | 2.6V | 00:00:00 | 00:00:00 | 00:00:00 | |
| BAUMI2-15 | 2026-08-31 12:14:25 | 48.61836 | 12.75342 | 70° | 7km/h | 27065m | 6.0m/s | -49.7°C | 3.5% | 19.2hPa | 2.6V | 00:00:00 | 01:45:03 | 00:00:00 | |
| OE8JPQ-2 | 2026-08-31 12:14:23 | 48.61836 | 12.75337 | 115° | 5km/h | 27055m | 5.3m/s | 0°C | 0% | 0hPa | 2.6V | 00:00:00 | 00:00:00 | 00:00:00 | |
| OE5MMP-10 | 2026-08-31 12:14:21 | 48.61837 | 12.75336 | 229° | 11km/h | 27043m | 4.9m/s | -49.7°C | 3.5% | 19.2hPa | 2.6V | 00:00:00 | 01:44:59 | 00:00:00 | |
| DO3MHA-11 | 2026-08-31 12:14:19 | 48.61837 | 12.75339 | 335° | 11km/h | 27034m | 5.1m/s | -49.7°C | 3.5% | 19.3hPa | 2.6V | 00:00:00 | 01:44:57 | 08:30:00 | |
| DG1MFX-10 | 2026-08-31 12:14:16 | 48.61835 | 12.75336 | 55° | 11km/h | 27022m | 5.8m/s | -49.6°C | 1.0% | 19.3hPa | 2.6V | 00:00:00 | 00:00:00 | 00:00:00 | |
| BAUMI2-15 | 2026-08-31 12:14:15 | 48.61830 | 12.75327 | 44° | 15km/h | 27012m | 5.2m/s | -49.7°C | 3.4% | 19.3hPa | 2.6V | 00:00:00 | 01:44:53 | 00:00:00 | |
| DK5PH-5 | 2026-08-31 12:14:11 | 48.61817 | 12.75319 | 2° | 7km/h | 26989m | 5.4m/s | -49.7°C | 3.5% | 19.4hPa | 2.6V | 00:00:00 | 01:44:49 | 00:00:00 | |
| BAUMI2-15 | 2026-08-31 12:14:10 | 48.61814 | 12.75319 | 8° | 5km/h | 26984m | 6.0m/s | -49.8°C | 3.5% | 19.4hPa | 2.7V | 00:00:00 | 01:44:48 | 00:00:00 | |
| DO3MHA-11 | 2026-08-31 12:14:09 | 48.61813 | 12.75319 | 4° | 5km/h | 26978m | 5.2m/s | -49.9°C | 3.5% | 19.5hPa | 2.7V | 00:00:00 | 01:44:47 | 00:00:00 | |
| OE5HKT-10 | 2026-08-31 12:14:05 | 48.61809 | 12.75323 | 319° | 7km/h | 26956m | 5.1m/s | -49.9°C | 3.6% | 19.5hPa | 2.7V | 00:00:00 | 01:44:43 | 00:00:00 | |
| DL6DJ-15 | 2026-08-31 12:14:00 | 48.61803 | 12.75319 | 337° | 9km/h | 26921m | 5.9m/s | -49.9°C | 1.0% | 19.7hPa | 2.7V | 00:00:00 | 00:00:00 | 00:00:00 | |
| OE5WHR-10 | 2026-08-31 12:13:59 | 48.61803 | 12.75319 | 338° | 9km/h | 26921m | 5.9m/s | -49.8°C | 3.5% | 19.6hPa | 2.7V | 00:00:00 | 00:00:00 | 00:00:00 | |
| DG1MFX-10 | 2026-08-31 12:13:56 | 48.61798 | 12.75323 | 333° | 13km/h | 26910m | 6.7m/s | -49.9°C | 1.0% | 19.7hPa | 2.7V | 00:00:00 | 00:00:00 | 00:00:00 | |
| BAUMI2-15 | 2026-08-31 12:13:55 | 48.61793 | 12.75327 | 337° | 11km/h | 26898m | 5.0m/s | -49.9°C | 3.5% | 19.7hPa | 2.7V | 00:00:00 | 01:44:33 | 00:00:00 | |
| OE5REO-15 | 2026-08-31 12:13:54 | 48.61793 | 12.75327 | 337° | 9km/h | 26898m | 5.0m/s | -50.0°C | 1.0% | 19.8hPa | 2.7V | 00:00:00 | 00:00:00 | 00:00:00 | |
| OE5MMP-10 | 2026-08-31 12:13:51 | 48.61785 | 12.75337 | 297° | 15km/h | 26875m | 4.8m/s | -49.8°C | 3.5% | 19.8hPa | 2.7V | 00:00:00 | 01:44:29 | 00:00:00 | |
| BAUMI2-15 | 2026-08-31 12:13:50 | 48.61785 | 12.75340 | 283° | 5km/h | 26869m | 6.6m/s | -49.8°C | 3.5% | 19.8hPa | 2.7V | 00:00:00 | 01:44:28 | 08:30:00 | |
| DO3MHA-11 | 2026-08-31 12:13:49 | 48.61785 | 12.75342 | 242° | 7km/h | 26863m | 5.8m/s | -49.7°C | 3.5% | 19.8hPa | 2.6V | 00:00:00 | 01:44:27 | 00:00:00 | |
| BAUMI2-15 | 2026-08-31 12:13:45 | 48.61786 | 12.75349 | 290° | 9km/h | 26840m | 4.9m/s | -49.8°C | 3.5% | 19.9hPa | 2.7V | 00:00:00 | 01:44:23 | 00:00:00 | |
| DK5PH-5 | 2026-08-31 12:13:41 | 48.61779 | 12.75353 | 19° | 24km/h | 26818m | 4.8m/s | -49.9°C | 3.4% | 19.9hPa | 2.7V | 00:00:00 | 01:44:19 | 00:00:00 | |
| BAUMI2-15 | 2026-08-31 12:13:40 | 48.61775 | 12.75352 | 15° | 15km/h | 26813m | 4.6m/s | -49.9°C | 3.4% | 20.0hPa | 2.7V | 00:00:00 | 01:44:18 | 00:00:00 | |
| DO3MHA-11 | 2026-08-31 12:13:39 | 48.61771 | 12.75351 | 8° | 13km/h | 26808m | 6.2m/s | -49.8°C | 3.4% | 20.0hPa | 2.7V | 00:00:00 | 01:44:17 | 00:00:00 | |
| OE5WHR-10 | 2026-08-31 12:13:38 | 48.61767 | 12.75350 | 358° | 18km/h | 26802m | 6.1m/s | -49.8°C | 3.4% | 20.0hPa | 2.7V | 00:00:00 | 01:44:16 | 00:00:00 | |
| OE5MMP-10 | 2026-08-31 12:13:37 | 48.61763 | 12.75351 | 352° | 22km/h | 26796m | 5.3m/s | -49.8°C | 3.4% | 20.0hPa | 2.7V | 00:00:00 | 01:44:15 | 00:00:00 | |
| BAUMI2-15 | 2026-08-31 12:13:35 | 48.61758 | 12.75353 | 339° | 9km/h | 26784m | 6.1m/s | -49.9°C | 3.5% | 20.0hPa | 2.7V | 00:00:00 | 01:44:13 | 00:00:00 | |
| BAUMI2-15 | 2026-08-31 12:13:30 | 48.61746 | 12.75356 | 6° | 24km/h | 26755m | 5.2m/s | -49.9°C | 3.6% | 20.1hPa | 2.7V | 00:00:00 | 01:44:08 | 00:00:00 | |
| DL6DJ-15 | 2026-08-31 12:13:28 | 48.61736 | 12.75352 | 21° | 22km/h | 26743m | 5.7m/s | -49.9°C | 1.0% | 20.2hPa | 2.7V | 00:00:00 | 00:00:00 | 00:00:00 | |
| BAUMI2-15 | 2026-08-31 12:13:25 | 48.61717 | 12.75342 | 14° | 24km/h | 26726m | 6.9m/s | -49.9°C | 3.5% | 20.2hPa | 2.7V | 00:00:00 | 01:44:03 | 00:00:00 | |
| OE5MMP-10 | 2026-08-31 12:13:24 | 48.61709 | 12.75340 | 8° | 26km/h | 26720m | 5.8m/s | -49.9°C | 3.5% | 20.2hPa | 2.7V | 00:00:00 | 01:44:02 | 08:30:00 | |
| OE5REO-15 | 2026-08-31 12:13:22 | 48.61702 | 12.75338 | 5° | 26km/h | 26714m | 5.1m/s | -50.0°C | 1.0% | 20.3hPa | 2.6V | 00:00:00 | 00:00:00 | 00:00:00 | |
| OE5FHM-15 | 2026-08-31 12:13:21 | 48.61692 | 12.75337 | 10° | 26km/h | 26702m | 5.7m/s | -50.1°C | 3.5% | 20.3hPa | 2.6V | 00:00:00 | 01:43:59 | 00:00:00 | |
| BAUMI2-15 | 2026-08-31 12:13:20 | 48.61688 | 12.75336 | 18° | 18km/h | 26697m | 5.0m/s | -50.1°C | 3.5% | 20.3hPa | 2.7V | 00:00:00 | 01:43:58 | 00:00:00 | |
| DO3MHA-11 | 2026-08-31 12:13:19 | 48.61684 | 12.75334 | 20° | 24km/h | 26691m | 6.4m/s | -50.1°C | 3.5% | 20.3hPa | 2.7V | 00:00:00 | 01:43:57 | 00:00:00 | |
| OE5WHR-10 | 2026-08-31 12:13:17 | 48.61677 | 12.75329 | 25° | 26km/h | 26679m | 5.6m/s | -50.0°C | 3.5% | 20.4hPa | 2.6V | 00:00:00 | 00:00:00 | 08:30:00 | |
| OE5HKT-10 | 2026-08-31 12:13:16 | 48.61672 | 12.75326 | 30° | 15km/h | 26673m | 5.6m/s | -50.0°C | 3.4% | 20.4hPa | 2.7V | 00:00:00 | 00:00:00 | 00:00:00 | |
| BAUMI2-15 | 2026-08-31 12:13:15 | 48.61667 | 12.75321 | 36° | 27km/h | 26667m | 6.5m/s | -50.0°C | 3.4% | 20.4hPa | 2.7V | 00:00:00 | 01:43:53 | 00:00:00 | |
| OE5MMP-10 | 2026-08-31 12:13:14 | 48.61662 | 12.75315 | 36° | 27km/h | 26661m | 4.5m/s | -50.1°C | 3.4% | 20.4hPa | 2.7V | 00:00:00 | 01:43:52 | 00:00:00 | |
| BAUMI2-15 | 2026-08-31 12:13:10 | 48.61634 | 12.75302 | 3° | 18km/h | 26640m | 4.8m/s | -50.4°C | 3.6% | 20.5hPa | 2.7V | 00:00:00 | 01:43:48 | 00:00:00 | |
| DO3MHA-11 | 2026-08-31 12:13:09 | 48.61626 | 12.75301 | 1° | 26km/h | 26635m | 5.0m/s | -50.3°C | 3.6% | 20.5hPa | 2.7V | 00:00:00 | 01:43:47 | 00:00:00 | |
| DK5PH-5 | 2026-08-31 12:13:08 | 48.61619 | 12.75301 | 5° | 24km/h | 26629m | 6.4m/s | -50.3°C | 3.6% | 20.5hPa | 2.7V | 00:00:00 | 01:43:46 | 00:00:00 | |
| OE5REO-15 | 2026-08-31 12:13:06 | 48.61612 | 12.75299 | 15° | 26km/h | 26622m | 6.1m/s | -50.3°C | 1.0% | 20.6hPa | 2.7V | 00:00:00 | 00:00:00 | 00:00:00 | |
| OE5DXL-15 | 2026-08-31 12:13:05 | 48.61601 | 12.75293 | 25° | 24km/h | 26612m | 5.1m/s | -50.4°C | 3.6% | 20.6hPa | 2.7V | 00:00:00 | 00:00:00 | 00:00:00 | |
| OE8JPQ-2 | 2026-08-31 12:13:04 | 48.61595 | 12.75290 | 22° | 24km/h | 26606m | 6.7m/s | 0°C | 0% | 0hPa | 2.7V | 00:00:00 | 00:00:00 | 00:00:00 | |
| OE5MMP-10 | 2026-08-31 12:13:03 | 48.61590 | 12.75286 | 19° | 27km/h | 26600m | 5.4m/s | -50.3°C | 3.5% | 20.6hPa | 2.7V | 00:00:00 | 01:43:41 | 00:00:00 | |
| DL6DJ-15 | 2026-08-31 12:12:57 | 48.61555 | 12.75260 | 20° | 26km/h | 26568m | 5.4m/s | -50.6°C | 1.0% | 20.8hPa | 2.7V | 00:00:00 | 00:00:00 | 00:00:00 | |
| OE5WHR-10 | 2026-08-31 12:12:56 | 48.61549 | 12.75258 | 9° | 22km/h | 26562m | 6.5m/s | -50.6°C | 3.6% | 20.8hPa | 2.7V | 00:00:00 | 00:00:00 | 00:00:00 | |
| DG1MFX-10 | 2026-08-31 12:12:54 | 48.61542 | 12.75257 | 361° | 29km/h | 26556m | 6.0m/s | -50.6°C | 1.0% | 20.8hPa | 2.7V | 00:00:00 | 00:00:00 | 00:00:00 | |
| OE5FHM-15 | 2026-08-31 12:12:51 | 48.61511 | 12.75257 | 4° | 20km/h | 26533m | 5.2m/s | -50.6°C | 3.6% | 20.8hPa | 2.7V | 00:00:00 | 01:43:29 | 00:00:00 | |
| OE5MMP-10 | 2026-08-31 12:12:50 | 48.61505 | 12.75256 | 2° | 24km/h | 26528m | 6.8m/s | -50.5°C | 3.6% | 20.9hPa | 2.7V | 00:00:00 | 01:43:28 | 00:00:00 | |
| DO3MHA-11 | 2026-08-31 12:12:49 | 48.61499 | 12.75256 | 2° | 18km/h | 26521m | 6.1m/s | -50.5°C | 3.6% | 20.9hPa | 2.7V | 00:00:00 | 01:43:27 | 08:30:00 | |
| OE8JPQ-2 | 2026-08-31 12:12:41 | 48.61468 | 12.75241 | 3° | 22km/h | 26474m | 6.6m/s | 0°C | 0% | 0hPa | 2.6V | 00:00:00 | 01:43:19 | 00:00:00 | |
| DO3MHA-11 | 2026-08-31 12:12:39 | 48.61455 | 12.75242 | 353° | 18km/h | 26463m | 4.4m/s | -50.7°C | 3.6% | 21.1hPa | 2.6V | 00:00:00 | 01:43:17 | 00:00:00 | |
| OE5MMP-10 | 2026-08-31 12:12:38 | 48.61449 | 12.75244 | 344° | 26km/h | 26458m | 6.1m/s | -50.6°C | 3.6% | 21.1hPa | 2.6V | 00:00:00 | 01:43:16 | 00:00:00 | |
| DK5PH-5 | 2026-08-31 12:12:36 | 48.61438 | 12.75252 | 323° | 20km/h | 26446m | 5.6m/s | -50.5°C | 3.6% | 21.1hPa | 2.6V | 00:00:00 | 01:43:14 | 08:30:00 | |
| OE5WHR-10 | 2026-08-31 12:12:35 | 48.61435 | 12.75257 | 321° | 16km/h | 26440m | 4.7m/s | -50.5°C | 3.6% | 21.2hPa | 2.7V | 00:00:00 | 01:43:13 | 00:00:00 | |
| DG1MFX-10 | 2026-08-31 12:12:34 | 48.61434 | 12.75257 | 321° | 16km/h | 26440m | 4.8m/s | -50.5°C | 1.0% | 21.2hPa | 2.7V | 00:00:00 | 00:00:00 | 00:00:00 | |
| DO3MHA-11 | 2026-08-31 12:12:29 | 48.61416 | 12.75256 | 1° | 22km/h | 26405m | 5.6m/s | -50.6°C | 3.5% | 21.3hPa | 2.7V | 00:00:00 | 01:43:07 | 00:00:00 | |
| DL6DJ-15 | 2026-08-31 12:12:27 | 48.61399 | 12.75258 | 349° | 26km/h | 26388m | 4.4m/s | -51.0°C | 1.0% | 21.4hPa | 2.7V | 00:00:00 | 00:00:00 | 00:00:00 | |
| PETON7-10 | 2026-08-31 12:12:23 | 48.61381 | 12.75272 | 311° | 15km/h | 26371m | 5.5m/s | -51.0°C | 3.7% | 21.4hPa | 2.7V | 00:00:00 | 01:43:01 | 00:00:00 | |
| OE5MMP-10 | 2026-08-31 12:12:22 | 48.61378 | 12.75279 | 299° | 11km/h | 26366m | 4.5m/s | -51.0°C | 3.7% | 21.4hPa | 2.7V | 00:00:00 | 01:43:00 | 00:00:00 | |
| OE5FHM-15 | 2026-08-31 12:12:21 | 48.61376 | 12.75286 | 293° | 13km/h | 26361m | 5.6m/s | -51.0°C | 3.6% | 21.4hPa | 2.7V | 00:00:00 | 01:42:59 | 00:00:00 | |
| OE5REO-15 | 2026-08-31 12:12:20 | 48.61376 | 12.75286 | 293° | 16km/h | 26361m | 5.6m/s | -51.1°C | 1.0% | 21.5hPa | 2.7V | 00:00:00 | 00:00:00 | 00:00:00 | |
| DO3MHA-11 | 2026-08-31 12:12:19 | 48.61373 | 12.75293 | 334° | 13km/h | 26349m | 5.6m/s | -51.1°C | 3.7% | 21.5hPa | 2.7V | 00:00:00 | 01:42:57 | 00:00:00 | |
| OE5WHR-10 | 2026-08-31 12:12:14 | 48.61364 | 12.75292 | 342° | 15km/h | 26322m | 5.2m/s | -51.2°C | 3.6% | 21.6hPa | 2.6V | 00:00:00 | 00:00:00 | 00:00:00 | |
| DG1MFX-10 | 2026-08-31 12:12:13 | 48.61364 | 12.75292 | 343° | 16km/h | 26322m | 5.2m/s | -51.3°C | 1.0% | 21.6hPa | 2.6V | 00:00:00 | 00:00:00 | 00:00:00 | |
| OE5MMP-10 | 2026-08-31 12:12:12 | 48.61355 | 12.75296 | 342° | 16km/h | 26310m | 5.6m/s | -51.3°C | 3.7% | 21.6hPa | 2.6V | 00:00:00 | 01:42:50 | 00:00:00 | |
| OE8JPQ-2 | 2026-08-31 12:12:11 | 48.61351 | 12.75299 | 335° | 11km/h | 26305m | 4.6m/s | 0°C | 0% | 0hPa | 2.6V | 00:00:00 | 00:00:00 | 00:00:00 | |
| DO3MHA-11 | 2026-08-31 12:12:09 | 48.61344 | 12.75308 | 309° | 18km/h | 26294m | 7.0m/s | -51.3°C | 3.7% | 21.7hPa | 2.6V | 00:00:00 | 01:42:47 | 00:00:00 | |
| PETON7-10 | 2026-08-31 12:12:08 | 48.61342 | 12.75313 | 299° | 13km/h | 26287m | 5.2m/s | -51.3°C | 3.7% | 21.7hPa | 2.6V | 00:00:00 | 00:00:00 | 00:00:00 | |
| OE5REO-15 | 2026-08-31 12:12:05 | 48.61338 | 12.75323 | 316° | 13km/h | 26278m | 5.4m/s | -51.5°C | 1.1% | 21.8hPa | 2.7V | 00:00:00 | 00:00:00 | 00:00:00 | |
| OE5DXL-15 | 2026-08-31 12:12:04 | 48.61327 | 12.75321 | 29° | 11km/h | 26262m | 4.3m/s | -51.6°C | 3.7% | 21.8hPa | 2.7V | 00:00:00 | 00:00:00 | 00:00:00 | |
| DK5PH-5 | 2026-08-31 12:12:03 | 48.61327 | 12.75321 | 29° | 13km/h | 26262m | 4.3m/s | -51.6°C | 3.7% | 21.8hPa | 2.7V | 00:00:00 | 01:42:41 | 00:00:00 | |
| OE5MMP-10 | 2026-08-31 12:12:02 | 48.61323 | 12.75317 | 26° | 15km/h | 26256m | 6.2m/s | -51.7°C | 3.7% | 21.8hPa | 2.7V | 00:00:00 | 01:42:40 | 00:00:00 | |
| DL6DJ-15 | 2026-08-31 12:11:55 | 48.61301 | 12.75321 | 288° | 7km/h | 26216m | 5.1m/s | -51.6°C | 1.1% | 22.0hPa | 2.7V | 00:00:00 | 00:00:00 | 00:00:00 | |
| OE5WHR-10 | 2026-08-31 12:11:53 | 48.61299 | 12.75327 | 290° | 9km/h | 26205m | 5.0m/s | -51.6°C | 3.8% | 22.0hPa | 2.7V | 00:00:00 | 00:00:00 | 00:00:00 | |
| DG1MFX-10 | 2026-08-31 12:11:52 | 48.61299 | 12.75327 | 291° | 9km/h | 26205m | 5.0m/s | -51.6°C | 1.1% | 22.0hPa | 2.7V | 00:00:00 | 00:00:00 | 00:00:00 | |
| PETON7-10 | 2026-08-31 12:11:51 | 48.61298 | 12.75330 | 163° | 7km/h | 26195m | 5.8m/s | -51.6°C | 3.8% | 22.0hPa | 2.7V | 00:00:00 | 00:00:00 | 00:00:00 | |
| OE5REO-15 | 2026-08-31 12:11:50 | 48.61298 | 12.75330 | 0° | 0km/h | 26195m | 5.8m/s | -51.7°C | 1.1% | 22.1hPa | 2.7V | 00:00:00 | 00:00:00 | 00:00:00 | |
| DO3MHA-11 | 2026-08-31 12:11:49 | 48.61300 | 12.75326 | 110° | 11km/h | 26183m | 5.4m/s | -51.6°C | 3.8% | 22.0hPa | 2.7V | 00:00:00 | 01:42:27 | 00:00:00 | |
| DO3MHA-11 | 2026-08-31 12:11:39 | 48.61297 | 12.75291 | 69° | 9km/h | 26128m | 6.0m/s | -51.4°C | 3.7% | 22.2hPa | 2.6V | 00:00:00 | 01:42:17 | 00:00:00 | |
| PETON7-10 | 2026-08-31 12:11:36 | 48.61299 | 12.75286 | 125° | 11km/h | 26111m | 6.5m/s | -51.4°C | 3.8% | 22.3hPa | 2.6V | 00:00:00 | 01:42:14 | 00:00:00 | |
| OE5DXL-15 | 2026-08-31 12:11:34 | 48.61303 | 12.75272 | 103° | 9km/h | 26094m | 6.2m/s | -51.5°C | 3.8% | 22.4hPa | 2.6V | 00:00:00 | 00:00:00 | 00:00:00 | |
| OE5WHR-10 | 2026-08-31 12:11:32 | 48.61303 | 12.75267 | 88° | 11km/h | 26088m | 5.6m/s | -51.5°C | 3.8% | 22.4hPa | 2.7V | 00:00:00 | 01:42:10 | 00:00:00 | |
| DO3MHA-11 | 2026-08-31 12:11:29 | 48.61303 | 12.75253 | 84° | 9km/h | 26071m | 4.9m/s | -51.6°C | 3.8% | 22.4hPa | 2.7V | 00:00:00 | 01:42:07 | 00:00:00 | |
| DL6DJ-15 | 2026-08-31 12:11:24 | 48.61298 | 12.75239 | 71° | 5km/h | 26043m | 5.9m/s | -51.4°C | 1.1% | 22.6hPa | 2.7V | 00:00:00 | 00:00:00 | 00:00:00 | |
| OE5FHM-15 | 2026-08-31 12:11:21 | 48.61299 | 12.75227 | 103° | 9km/h | 26027m | 5.7m/s | -51.3°C | 3.8% | 22.6hPa | 2.7V | 00:00:00 | 01:41:59 | 00:00:00 | |
| DO3MHA-11 | 2026-08-31 12:11:19 | 48.61300 | 12.75218 | 91° | 9km/h | 26015m | 5.3m/s | -51.3°C | 3.8% | 22.7hPa | 2.7V | 00:00:00 | 01:41:57 | 08:30:00 | |
| OE5REO-15 | 2026-08-31 12:11:18 | 48.61300 | 12.75218 | 91° | 11km/h | 26015m | 5.4m/s | -51.3°C | 1.0% | 22.7hPa | 2.7V | 00:00:00 | 00:00:00 | 00:00:00 | |
| OE5WHR-10 | 2026-08-31 12:11:11 | 48.61293 | 12.75195 | 32° | 7km/h | 25971m | 6.1m/s | -51.3°C | 3.7% | 22.8hPa | 2.7V | 00:00:00 | 00:00:00 | 00:00:00 | |
| DO3MHA-11 | 2026-08-31 12:11:09 | 48.61290 | 12.75189 | 68° | 7km/h | 25960m | 4.9m/s | -51.2°C | 3.7% | 22.8hPa | 2.7V | 00:00:00 | 01:41:47 | 00:00:00 | |
| DK5PH-5 | 2026-08-31 12:11:08 | 48.61289 | 12.75186 | 67° | 9km/h | 25954m | 6.0m/s | -51.2°C | 3.7% | 22.8hPa | 2.7V | 00:00:00 | 01:41:46 | 00:00:00 | |
| PETON7-10 | 2026-08-31 12:11:06 | 48.61288 | 12.75182 | 53° | 7km/h | 25942m | 5.3m/s | -51.2°C | 3.7% | 22.9hPa | 2.7V | 00:00:00 | 00:00:00 | 00:00:00 | |
| OE5REO-15 | 2026-08-31 12:11:03 | 48.61286 | 12.75178 | 71° | 7km/h | 25931m | 5.6m/s | -51.1°C | 1.0% | 23.0hPa | 2.7V | 00:00:00 | 00:00:00 | 00:00:00 | |
| DL6DJ-15 | 2026-08-31 12:10:53 | 48.61267 | 12.75181 | 337° | 9km/h | 25870m | 5.0m/s | -51.2°C | 1.0% | 23.2hPa | 2.7V | 00:00:00 | 00:00:00 | 00:00:00 | |
| OE5FHM-15 | 2026-08-31 12:10:51 | 48.61262 | 12.75182 | 11° | 16km/h | 25858m | 5.1m/s | -51.1°C | 3.6% | 23.2hPa | 2.7V | 00:00:00 | 01:41:29 | 00:00:00 | |
| OE5WHR-10 | 2026-08-31 12:10:50 | 48.61261 | 12.75182 | 6° | 15km/h | 25854m | 4.3m/s | -51.0°C | 3.6% | 23.2hPa | 2.7V | 00:00:00 | 00:00:00 | 00:00:00 | |
| DO3MHA-11 | 2026-08-31 12:10:49 | 48.61260 | 12.75182 | 340° | 13km/h | 25849m | 5.6m/s | -51.0°C | 3.6% | 23.2hPa | 2.7V | 00:00:00 | 01:41:27 | 00:00:00 | |
| OE5REO-15 | 2026-08-31 12:10:47 | 48.61258 | 12.75184 | 311° | 9km/h | 25843m | 6.3m/s | -51.0°C | 1.0% | 23.3hPa | 2.6V | 00:00:00 | 00:00:00 | 00:00:00 | |
| BAUMI2-15 | 2026-08-31 12:10:46 | 48.61255 | 12.75191 | 290° | 13km/h | 25831m | 5.3m/s | -50.9°C | 3.6% | 23.3hPa | 2.6V | 00:00:00 | 01:41:24 | 00:00:00 | |
| BAUMI2-15 | 2026-08-31 12:10:41 | 48.61251 | 12.75215 | 294° | 18km/h | 25804m | 6.4m/s | -51.3°C | 3.8% | 23.4hPa | 2.6V | 00:00:00 | 01:41:19 | 00:00:00 | |
| DO3MHA-11 | 2026-08-31 12:10:39 | 48.61246 | 12.75227 | 310° | 18km/h | 25792m | 6.1m/s | -51.3°C | 3.7% | 23.4hPa | 2.6V | 00:00:00 | 01:41:17 | 00:00:00 | |
| PETON7-10 | 2026-08-31 12:10:36 | 48.61236 | 12.75239 | 327° | 18km/h | 25777m | 4.9m/s | -51.3°C | 3.7% | 23.5hPa | 2.6V | 00:00:00 | 00:00:00 | 00:00:00 | |
| OE5DXL-15 | 2026-08-31 12:10:34 | 48.61224 | 12.75263 | 296° | 15km/h | 25756m | 4.8m/s | -51.2°C | 3.6% | 23.6hPa | 2.6V | 00:00:00 | 00:00:00 | 00:00:00 | |
| BAUMI2-15 | 2026-08-31 12:10:31 | 48.61221 | 12.75270 | 293° | 20km/h | 25750m | 5.9m/s | -51.2°C | 3.6% | 23.6hPa | 2.6V | 00:00:00 | 01:41:09 | 00:00:00 | |
| DG1MFX-10 | 2026-08-31 12:10:30 | 48.61222 | 12.75270 | 294° | 20km/h | 25750m | 6.0m/s | -51.3°C | 1.1% | 23.7hPa | 2.7V | 00:00:00 | 00:00:00 | 00:00:00 | |
| OE5WHR-10 | 2026-08-31 12:10:29 | 48.61218 | 12.75282 | 293° | 16km/h | 25739m | 4.6m/s | -51.4°C | 3.7% | 23.6hPa | 2.7V | 00:00:00 | 01:41:07 | 00:00:00 | |
| BAUMI2-15 | 2026-08-31 12:10:25 | 48.61210 | 12.75310 | 295° | 16km/h | 25718m | 4.9m/s | -51.3°C | 3.7% | 23.7hPa | 2.7V | 00:00:00 | 01:41:03 | 00:00:00 | |
| DL6DJ-15 | 2026-08-31 12:10:22 | 48.61206 | 12.75328 | 282° | 13km/h | 25701m | 4.7m/s | -51.3°C | 1.0% | 23.8hPa | 2.7V | 00:00:00 | 00:00:00 | 00:00:00 | |
| PETON7-10 | 2026-08-31 12:10:21 | 48.61205 | 12.75333 | 279° | 13km/h | 25696m | 5.8m/s | -51.4°C | 3.8% | 23.8hPa | 2.7V | 00:00:00 | 00:00:00 | 00:00:00 | |
| BAUMI2-15 | 2026-08-31 12:10:20 | 48.61205 | 12.75339 | 278° | 13km/h | 25690m | 5.7m/s | -51.4°C | 3.9% | 23.8hPa | 2.7V | 00:00:00 | 01:40:58 | 00:00:00 | |
| DO3MHA-11 | 2026-08-31 12:10:19 | 48.61204 | 12.75345 | 277° | 15km/h | 25685m | 4.8m/s | -51.4°C | 3.8% | 23.8hPa | 2.7V | 00:00:00 | 01:40:57 | 00:00:00 | |
| BAUMI2-15 | 2026-08-31 12:10:15 | 48.61200 | 12.75362 | 319° | 15km/h | 25664m | 4.7m/s | -51.2°C | 3.7% | 23.9hPa | 2.6V | 00:00:00 | 01:40:53 | 08:30:00 | |
| BAUMI2-15 | 2026-08-31 12:10:10 | 48.61189 | 12.75386 | 284° | 11km/h | 25637m | 6.3m/s | -51.4°C | 3.8% | 24.0hPa | 2.7V | 00:00:00 | 01:40:48 | 00:00:00 | |
| DO3MHA-11 | 2026-08-31 12:10:09 | 48.61189 | 12.75390 | 265° | 9km/h | 25631m | 5.3m/s | -51.4°C | 3.8% | 24.0hPa | 2.7V | 00:00:00 | 01:40:47 | 00:00:00 | |
| OE5WHR-10 | 2026-08-31 12:10:08 | 48.61189 | 12.75394 | 253° | 7km/h | 25626m | 4.6m/s | -51.4°C | 3.9% | 24.1hPa | 2.7V | 00:00:00 | 00:00:00 | 08:30:00 | |
| DK5PH-5 | 2026-08-31 12:10:06 | 48.61191 | 12.75402 | 266° | 5km/h | 25615m | 5.5m/s | -51.3°C | 3.8% | 24.1hPa | 2.7V | 00:00:00 | 01:40:44 | 00:00:00 | |
| BAUMI2-15 | 2026-08-31 12:10:04 | 48.61190 | 12.75409 | 306° | 7km/h | 25606m | 4.8m/s | -51.2°C | 3.8% | 24.2hPa | 2.7V | 00:00:00 | 01:40:42 | 00:00:00 | |
| DO3MHA-11 | 2026-08-31 12:09:59 | 48.61183 | 12.75415 | 303° | 7km/h | 25579m | 5.9m/s | -51.2°C | 3.7% | 24.2hPa | 2.7V | 00:00:00 | 01:40:37 | 00:00:00 | |
| BAUMI2-15 | 2026-08-31 12:09:54 | 48.61183 | 12.75435 | 226° | 4km/h | 25552m | 5.2m/s | -51.1°C | 3.8% | 24.3hPa | 2.7V | 00:00:00 | 01:40:32 | 00:00:00 | |
| PETON7-10 | 2026-08-31 12:09:51 | 48.61185 | 12.75439 | 317° | 5km/h | 25535m | 5.4m/s | -51.0°C | 3.8% | 24.4hPa | 2.7V | 00:00:00 | 00:00:00 | 00:00:00 | |
| DO3MHA-11 | 2026-08-31 12:09:49 | 48.61183 | 12.75438 | 50° | 5km/h | 25523m | 6.1m/s | -51.2°C | 3.8% | 24.5hPa | 2.6V | 00:00:00 | 01:40:27 | 08:30:00 | |
| OE5WHR-10 | 2026-08-31 12:09:47 | 48.61181 | 12.75434 | 40° | 5km/h | 25512m | 5.8m/s | -51.1°C | 3.7% | 24.5hPa | 2.6V | 00:00:00 | 00:00:00 | 00:00:00 | |
| BAUMI2-15 | 2026-08-31 12:09:44 | 48.61177 | 12.75433 | 335° | 4km/h | 25496m | 5.4m/s | -51.1°C | 3.7% | 24.6hPa | 2.6V | 00:00:00 | 01:40:22 | 00:00:00 | |
| OE5REO-15 | 2026-08-31 12:09:43 | 48.61177 | 12.75433 | 335° | 2km/h | 25496m | 5.4m/s | -51.1°C | 1.1% | 24.6hPa | 2.7V | 00:00:00 | 00:00:00 | 00:00:00 | |
| DO3MHA-11 | 2026-08-31 12:09:39 | 48.61181 | 12.75438 | 269° | 5km/h | 25470m | 5.3m/s | -51.0°C | 3.7% | 24.7hPa | 2.7V | 00:00:00 | 01:40:17 | 00:00:00 | |
| OE5HKT-10 | 2026-08-31 12:09:37 | 48.61179 | 12.75440 | 360° | 9km/h | 25459m | 4.3m/s | -50.8°C | 3.7% | 24.7hPa | 2.7V | 00:00:00 | 01:40:15 | 00:00:00 | |
| DK5PH-5 | 2026-08-31 12:09:36 | 48.61178 | 12.75439 | 42° | 9km/h | 25454m | 6.4m/s | -50.8°C | 3.8% | 24.7hPa | 2.7V | 00:00:00 | 01:40:14 | 00:00:00 | |
| OE5DXL-15 | 2026-08-31 12:09:34 | 48.61176 | 12.75430 | 64° | 11km/h | 25432m | 5.1m/s | -51.0°C | 3.7% | 24.8hPa | 2.7V | 00:00:00 | 00:00:00 | 00:00:00 | |
| OE5MMP-10 | 2026-08-31 12:09:32 | 48.61176 | 12.75430 | 64° | 11km/h | 25432m | 5.1m/s | -51.0°C | 3.7% | 24.8hPa | 2.7V | 00:00:00 | 01:40:10 | 00:00:00 | |
| BAUMI2-15 | 2026-08-31 12:09:30 | 48.61177 | 12.75430 | 195° | 7km/h | 25421m | 6.2m/s | -50.9°C | 3.6% | 24.8hPa | 2.7V | 00:00:00 | 01:40:08 | 00:00:00 | |
| DG1MFX-10 | 2026-08-31 12:09:29 | 48.61177 | 12.75430 | 196° | 5km/h | 25421m | 6.3m/s | -51.0°C | 1.1% | 24.9hPa | 2.7V | 00:00:00 | 00:00:00 | 00:00:00 | |
| DO3MHA-11 | 2026-08-31 12:09:28 | 48.61181 | 12.75431 | 196° | 13km/h | 25410m | 4.3m/s | -50.9°C | 3.6% | 24.9hPa | 2.7V | 00:00:00 | 01:40:06 | 00:00:00 | |
| OE5REO-15 | 2026-08-31 12:09:27 | 48.61181 | 12.75431 | 197° | 9km/h | 25410m | 4.4m/s | -50.9°C | 1.0% | 24.9hPa | 2.7V | 00:00:00 | 00:00:00 | 00:00:00 | |
| OE5WHR-10 | 2026-08-31 12:09:26 | 48.61184 | 12.75434 | 237° | 11km/h | 25399m | 5.9m/s | -50.9°C | 3.7% | 24.9hPa | 2.7V | 00:00:00 | 01:40:04 | 00:00:00 | |
| BAUMI2-15 | 2026-08-31 12:09:25 | 48.61185 | 12.75435 | 316° | 9km/h | 25394m | 4.9m/s | -50.8°C | 3.8% | 25.0hPa | 2.7V | 00:00:00 | 01:40:03 | 08:30:00 | |
| OE5FHM-15 | 2026-08-31 12:09:21 | 48.61180 | 12.75425 | 57° | 13km/h | 25372m | 6.3m/s | -50.7°C | 3.7% | 25.1hPa | 2.7V | 00:00:00 | 01:39:59 | 00:00:00 | |
| BAUMI2-15 | 2026-08-31 12:09:20 | 48.61178 | 12.75421 | 50° | 13km/h | 25365m | 5.9m/s | -50.8°C | 3.7% | 25.1hPa | 2.7V | 00:00:00 | 01:39:58 | 00:00:00 | |
| DF7PN | 2026-08-31 12:09:19 | 48.61174 | 12.75404 | 113° | 11km/h | 25344m | 4.8m/s | 0°C | -1.0% | -1.0hPa | 2.7V | 00:00:00 | 00:00:00 | 00:00:00 | |
| OE5MMP-10 | 2026-08-31 12:09:16 | 48.61174 | 12.75404 | 114° | 13km/h | 25344m | 4.7m/s | -50.9°C | 3.7% | 25.2hPa | 2.7V | 00:00:00 | 01:39:54 | 08:30:00 | |
| BAUMI2-15 | 2026-08-31 12:09:15 | 48.61175 | 12.75400 | 126° | 7km/h | 25339m | 4.7m/s | -50.8°C | 3.8% | 25.2hPa | 2.7V | 00:00:00 | 01:39:53 | 00:00:00 | |
| OE5DRO-10 | 2026-08-31 12:09:12 | 48.61178 | 12.75393 | 73° | 13km/h | 25323m | 4.7m/s | -50.8°C | 3.7% | 25.3hPa | 2.7V | 00:00:00 | 00:00:00 | 00:00:00 | |
| BAUMI2-15 | 2026-08-31 12:09:10 | 48.61177 | 12.75387 | 74° | 13km/h | 25314m | 5.4m/s | -50.7°C | 3.7% | 25.3hPa | 2.7V | 00:00:00 | 01:39:48 | 00:00:00 | |
| DG1MFX-10 | 2026-08-31 12:09:08 | 48.61176 | 12.75382 | 83° | 15km/h | 25308m | 5.8m/s | -50.7°C | 1.1% | 25.4hPa | 2.6V | 00:00:00 | 00:00:00 | 00:00:00 | |
| DO3MHA-11 | 2026-08-31 12:09:07 | 48.61175 | 12.75371 | 86° | 15km/h | 25297m | 6.0m/s | -50.6°C | 3.7% | 25.4hPa | 2.6V | 00:00:00 | 01:39:45 | 00:00:00 | |
| DK5PH-5 | 2026-08-31 12:09:06 | 48.61175 | 12.75366 | 86° | 15km/h | 25291m | 5.9m/s | -50.5°C | 3.7% | 25.4hPa | 2.7V | 00:00:00 | 01:39:44 | 00:00:00 | |
| OE5WHR-10 | 2026-08-31 12:09:05 | 48.61175 | 12.75361 | 88° | 13km/h | 25286m | 5.0m/s | -50.5°C | 3.7% | 25.4hPa | 2.7V | 00:00:00 | 00:00:00 | 00:00:00 | |
| OE5MMP-10 | 2026-08-31 12:09:04 | 48.61175 | 12.75356 | 95° | 16km/h | 25280m | 5.3m/s | -50.5°C | 3.7% | 25.4hPa | 2.7V | 00:00:00 | 01:39:42 | 00:00:00 | |
| DL6DJ-15 | 2026-08-31 12:08:49 | 48.61164 | 12.75276 | 117° | 7km/h | 25197m | 4.5m/s | -50.3°C | 1.0% | 25.8hPa | 2.7V | 00:00:00 | 00:00:00 | 00:00:00 | |
| DG1MFX-10 | 2026-08-31 12:08:48 | 48.61164 | 12.75276 | 119° | 9km/h | 25197m | 4.5m/s | -50.3°C | 1.1% | 25.8hPa | 2.7V | 00:00:00 | 00:00:00 | 00:00:00 | |
| DO3MHA-11 | 2026-08-31 12:08:47 | 48.61166 | 12.75271 | 88° | 16km/h | 25185m | 5.7m/s | -50.3°C | 3.6% | 25.8hPa | 2.7V | 00:00:00 | 01:39:25 | 00:00:00 | |
| OE5HKT-10 | 2026-08-31 12:08:44 | 48.61162 | 12.75259 | 70° | 13km/h | 25168m | 5.8m/s | -50.2°C | 3.6% | 25.9hPa | 2.7V | 00:00:00 | 00:00:00 | 00:00:00 | |
| OE5MMP-10 | 2026-08-31 12:08:43 | 48.61161 | 12.75252 | 69° | 15km/h | 25163m | 4.7m/s | -50.2°C | 3.7% | 25.9hPa | 2.6V | 00:00:00 | 01:39:21 | 00:00:00 | |
| OE5REO-15 | 2026-08-31 12:08:40 | 48.61156 | 12.75237 | 57° | 22km/h | 25152m | 6.5m/s | -50.3°C | 1.0% | 26.0hPa | 2.6V | 00:00:00 | 00:00:00 | 00:00:00 | |
| DO3MHA-11 | 2026-08-31 12:08:37 | 48.61147 | 12.75214 | 80° | 7km/h | 25130m | 5.2m/s | -50.2°C | 3.6% | 26.0hPa | 2.6V | 00:00:00 | 01:39:15 | 00:00:00 | |
| PETON7-10 | 2026-08-31 12:08:36 | 48.61146 | 12.75210 | 90° | 9km/h | 25125m | 4.9m/s | -50.1°C | 3.6% | 26.1hPa | 2.6V | 00:00:00 | 01:39:14 | 00:00:00 | |
| OE5DXL-15 | 2026-08-31 12:08:33 | 48.61148 | 12.75201 | 97° | 5km/h | 25095m | 4.9m/s | -50.0°C | 3.6% | 26.2hPa | 2.6V | 00:00:00 | 00:00:00 | 00:00:00 | |
| DO3MHA-11 | 2026-08-31 12:08:27 | 48.61144 | 12.75188 | 40° | 7km/h | 25074m | 4.1m/s | -49.8°C | 3.5% | 26.3hPa | 2.6V | 00:00:00 | 01:39:05 | 00:00:00 | |
| OE5REO-15 | 2026-08-31 12:08:24 | 48.61140 | 12.75182 | 58° | 13km/h | 25063m | 5.8m/s | -49.9°C | 1.0% | 26.3hPa | 2.6V | 00:00:00 | 00:00:00 | 00:00:00 | |
| OE5WHR-10 | 2026-08-31 12:08:23 | 48.61137 | 12.75174 | 63° | 5km/h | 25053m | 4.7m/s | -50.0°C | 3.6% | 26.3hPa | 2.6V | 00:00:00 | 01:39:01 | 00:00:00 | |
| OE5MMP-10 | 2026-08-31 12:08:21 | 48.61134 | 12.75169 | 35° | 5km/h | 25041m | 5.3m/s | -49.9°C | 3.5% | 26.4hPa | 2.6V | 00:00:00 | 01:38:59 | 00:00:00 | |
| DL6DJ-15 | 2026-08-31 12:08:18 | 48.61133 | 12.75165 | 89° | 2km/h | 25018m | 5.8m/s | -50.1°C | 1.0% | 26.5hPa | 2.6V | 00:00:00 | 00:00:00 | 00:00:00 | |
| DO3MHA-11 | 2026-08-31 12:08:17 | 48.61133 | 12.75165 | 90° | 5km/h | 25018m | 5.7m/s | -50.0°C | 3.6% | 26.5hPa | 2.6V | 00:00:00 | 01:38:55 | 00:00:00 | |
| OE5HKT-10 | 2026-08-31 12:08:14 | 48.61131 | 12.75160 | 60° | 4km/h | 25002m | 5.6m/s | -50.0°C | 3.5% | 26.6hPa | 2.6V | 00:00:00 | 00:00:00 | 00:00:00 | |
| OE5MMP-10 | 2026-08-31 12:08:11 | 48.61130 | 12.75150 | 92° | 4km/h | 24985m | 5.1m/s | -50.2°C | 3.5% | 26.6hPa | 2.6V | 00:00:00 | 01:38:49 | 00:00:00 | |
| OE5REO-15 | 2026-08-31 12:08:08 | 48.61130 | 12.75147 | 0° | 0km/h | 24973m | 5.7m/s | -50.3°C | 1.0% | 26.7hPa | 2.7V | 00:00:00 | 00:00:00 | 00:00:00 | |
| DO3MHA-11 | 2026-08-31 12:08:07 | 48.61130 | 12.75150 | 265° | 5km/h | 24962m | 6.3m/s | -50.2°C | 3.6% | 26.7hPa | 2.7V | 00:00:00 | 01:38:45 | 08:30:00 | |
| PETON7-10 | 2026-08-31 12:08:06 | 48.61130 | 12.75151 | 238° | 5km/h | 24956m | 5.6m/s | -50.1°C | 3.6% | 26.7hPa | 2.7V | 00:00:00 | 00:00:00 | 00:00:00 | |
| OE5WHR-10 | 2026-08-31 12:08:02 | 48.61131 | 12.75156 | 265° | 7km/h | 24934m | 5.2m/s | -50.1°C | 3.5% | 26.9hPa | 2.7V | 00:00:00 | 00:00:00 | 00:00:00 | |
| DL6DJ-15 | 2026-08-31 12:07:47 | 48.61125 | 12.75164 | 73° | 7km/h | 24842m | 4.8m/s | -50.1°C | 1.0% | 27.3hPa | 2.7V | 00:00:00 | 00:00:00 | 00:00:00 | |
| OE5WHR-10 | 2026-08-31 12:07:41 | 48.61122 | 12.75157 | 239° | 4km/h | 24815m | 5.8m/s | -50.3°C | 3.5% | 27.3hPa | 2.7V | 00:00:00 | 00:00:00 | 00:00:00 | |
| DO3MHA-11 | 2026-08-31 12:07:37 | 48.61124 | 12.75163 | 276° | 4km/h | 24792m | 6.0m/s | -50.2°C | 3.6% | 27.5hPa | 2.7V | 00:00:00 | 01:38:15 | 00:00:00 | |
| DK5PH-5 | 2026-08-31 12:07:36 | 48.61124 | 12.75165 | 301° | 7km/h | 24787m | 4.7m/s | -50.1°C | 3.5% | 27.5hPa | 2.7V | 00:00:00 | 01:38:14 | 08:30:00 | |
| OE5DXL-15 | 2026-08-31 12:07:33 | 48.61123 | 12.75160 | 87° | 9km/h | 24759m | 6.1m/s | -50.3°C | 3.5% | 27.6hPa | 2.6V | 00:00:00 | 00:00:00 | 00:00:00 | |
| OE5HKT-10 | 2026-08-31 12:07:29 | 48.61122 | 12.75158 | 11° | 9km/h | 24748m | 5.3m/s | -50.4°C | 3.5% | 27.6hPa | 2.6V | 00:00:00 | 00:00:00 | 08:30:00 | |
| DO3MHA-11 | 2026-08-31 12:07:27 | 48.61122 | 12.75158 | 207° | 7km/h | 24736m | 6.1m/s | -50.6°C | 3.5% | 27.7hPa | 2.7V | 00:00:00 | 01:38:05 | 00:00:00 | |
| DG1MFX-10 | 2026-08-31 12:07:26 | 48.61123 | 12.75158 | 208° | 2km/h | 24736m | 6.2m/s | -50.7°C | 1.0% | 27.7hPa | 2.7V | 00:00:00 | 00:00:00 | 00:00:00 | |
| OE5REO-15 | 2026-08-31 12:07:22 | 48.61123 | 12.75162 | 330° | 5km/h | 24714m | 5.0m/s | -50.6°C | 1.0% | 27.8hPa | 2.7V | 00:00:00 | 00:00:00 | 00:00:00 | |
| OE5FHM-15 | 2026-08-31 12:07:21 | 48.61120 | 12.75161 | 45° | 13km/h | 24703m | 6.7m/s | -50.7°C | 3.6% | 27.8hPa | 2.7V | 00:00:00 | 01:37:59 | 08:30:00 | |
| OE5WHR-10 | 2026-08-31 12:07:20 | 48.61119 | 12.75158 | 70° | 13km/h | 24697m | 5.8m/s | -50.8°C | 3.6% | 27.8hPa | 2.6V | 00:00:00 | 01:37:58 | 00:00:00 | |
| OE5MMP-10 | 2026-08-31 12:07:19 | 48.61118 | 12.75153 | 75° | 13km/h | 24692m | 4.9m/s | -50.8°C | 3.7% | 27.9hPa | 2.6V | 00:00:00 | 01:37:57 | 00:00:00 | |
| DO3MHA-11 | 2026-08-31 12:07:17 | 48.61115 | 12.75141 | 61° | 11km/h | 24681m | 6.3m/s | -50.8°C | 3.7% | 27.9hPa | 2.6V | 00:00:00 | 01:37:55 | 00:00:00 | |
| DL6DJ-15 | 2026-08-31 12:07:16 | 48.61111 | 12.75133 | 39° | 9km/h | 24669m | 5.3m/s | -50.8°C | 1.1% | 28.0hPa | 2.6V | 00:00:00 | 00:00:00 | 00:00:00 | |
| OE5MMP-10 | 2026-08-31 12:07:09 | 48.61099 | 12.75143 | 317° | 13km/h | 24635m | 4.5m/s | -50.9°C | 3.7% | 28.1hPa | 2.6V | 00:00:00 | 01:37:47 | 00:00:00 | |
| OE5HKT-10 | 2026-08-31 12:07:08 | 48.61097 | 12.75147 | 320° | 15km/h | 24630m | 6.0m/s | -50.9°C | 3.7% | 28.2hPa | 2.6V | 00:00:00 | 00:00:00 | 00:00:00 | |
| DO3MHA-11 | 2026-08-31 12:07:07 | 48.61094 | 12.75149 | 341° | 15km/h | 24624m | 5.0m/s | -50.8°C | 3.6% | 28.2hPa | 2.6V | 00:00:00 | 01:37:45 | 00:00:00 | |
| PETON7-10 | 2026-08-31 12:07:06 | 48.61092 | 12.75149 | 9° | 15km/h | 24619m | 4.7m/s | -50.8°C | 3.7% | 28.2hPa | 2.6V | 00:00:00 | 01:37:44 | 00:00:00 | |
| BAUMI2-15 | 2026-08-31 12:07:04 | 48.61087 | 12.75146 | 24° | 16km/h | 24607m | 6.2m/s | -50.8°C | 3.6% | 28.3hPa | 2.6V | 00:00:00 | 01:37:42 | 00:00:00 | |
| OE5DXL-15 | 2026-08-31 12:07:03 | 48.61080 | 12.75140 | 38° | 18km/h | 24596m | 6.3m/s | -50.8°C | 3.6% | 28.3hPa | 2.6V | 00:00:00 | 00:00:00 | 00:00:00 | |
| DL6DJ-15 | 2026-08-31 12:06:45 | 48.61010 | 12.75113 | 353° | 18km/h | 24494m | 5.4m/s | -51.0°C | 1.0% | 28.8hPa | 2.7V | 00:00:00 | 00:00:00 | 00:00:00 | |
| BAUMI2-15 | 2026-08-31 12:06:44 | 48.61010 | 12.75113 | 354° | 16km/h | 24494m | 5.4m/s | -50.9°C | 3.7% | 28.7hPa | 2.7V | 00:00:00 | 01:37:22 | 00:00:00 | |
| OE5MMP-10 | 2026-08-31 12:06:39 | 48.60991 | 12.75123 | 338° | 20km/h | 24464m | 5.7m/s | -50.8°C | 3.7% | 28.9hPa | 2.7V | 00:00:00 | 01:37:17 | 00:00:00 | |
| OE5WHR-10 | 2026-08-31 12:06:38 | 48.60987 | 12.75125 | 345° | 20km/h | 24459m | 4.9m/s | -50.8°C | 3.6% | 28.9hPa | 2.6V | 00:00:00 | 00:00:00 | 00:00:00 | |
| DO3MHA-11 | 2026-08-31 12:06:37 | 48.60983 | 12.75127 | 356° | 20km/h | 24453m | 6.4m/s | -50.8°C | 3.6% | 28.9hPa | 2.6V | 00:00:00 | 01:37:15 | 08:30:00 | |
| PETON7-10 | 2026-08-31 12:06:36 | 48.60980 | 12.75126 | 10° | 20km/h | 24448m | 4.8m/s | -50.8°C | 3.6% | 29.0hPa | 2.6V | 00:00:00 | 00:00:00 | 00:00:00 | |
| BAUMI2-15 | 2026-08-31 12:06:34 | 48.60970 | 12.75123 | 15° | 24km/h | 24437m | 6.4m/s | -51.0°C | 3.6% | 29.0hPa | 2.6V | 00:00:00 | 01:37:12 | 00:00:00 | |
| OE5DXL-15 | 2026-08-31 12:06:33 | 48.60952 | 12.75119 | 5° | 20km/h | 24421m | 6.2m/s | -50.9°C | 3.6% | 29.1hPa | 2.6V | 00:00:00 | 00:00:00 | 00:00:00 | |
| OE5MMP-10 | 2026-08-31 12:06:29 | 48.60941 | 12.75119 | 348° | 20km/h | 24410m | 4.7m/s | -50.9°C | 3.7% | 29.1hPa | 2.6V | 00:00:00 | 01:37:07 | 00:00:00 | |
| DO3MHA-11 | 2026-08-31 12:06:25 | 48.60923 | 12.75134 | 327° | 18km/h | 24388m | 4.9m/s | -50.9°C | 3.7% | 29.2hPa | 2.6V | 00:00:00 | 01:37:03 | 00:00:00 | |
| BAUMI2-15 | 2026-08-31 12:06:24 | 48.60918 | 12.75138 | 326° | 20km/h | 24382m | 6.2m/s | -50.9°C | 3.7% | 29.2hPa | 2.6V | 00:00:00 | 01:37:02 | 00:00:00 | |
| PETON7-10 | 2026-08-31 12:06:21 | 48.60905 | 12.75147 | 347° | 18km/h | 24366m | 6.6m/s | -51.1°C | 3.6% | 29.3hPa | 2.7V | 00:00:00 | 01:36:59 | 00:00:00 | |
| OE5HKT-10 | 2026-08-31 12:06:20 | 48.60900 | 12.75149 | 356° | 22km/h | 24360m | 5.3m/s | -51.1°C | 3.6% | 29.4hPa | 2.7V | 00:00:00 | 00:00:00 | 00:00:00 | |
| BAUMI2-15 | 2026-08-31 12:06:19 | 48.60894 | 12.75149 | 3° | 20km/h | 24355m | 4.5m/s | -51.1°C | 3.7% | 29.4hPa | 2.7V | 00:00:00 | 01:36:57 | 00:00:00 | |
| OE5WHR-10 | 2026-08-31 12:06:17 | 48.60883 | 12.75146 | 16° | 18km/h | 24344m | 6.2m/s | -51.1°C | 3.7% | 29.4hPa | 2.7V | 00:00:00 | 01:36:55 | 00:00:00 | |
| BAUMI2-15 | 2026-08-31 12:06:14 | 48.60871 | 12.75142 | 8° | 13km/h | 24327m | 5.8m/s | -51.1°C | 3.7% | 29.5hPa | 2.7V | 00:00:00 | 01:36:52 | 00:00:00 | |
| DL6DJ-15 | 2026-08-31 12:06:13 | 48.60868 | 12.75142 | 356° | 15km/h | 24322m | 4.9m/s | -51.1°C | 1.1% | 29.6hPa | 2.7V | 00:00:00 | 00:00:00 | 00:00:00 | |
| DO3MHA-11 | 2026-08-31 12:06:10 | 48.60858 | 12.75145 | 338° | 20km/h | 24305m | 4.8m/s | -51.1°C | 3.8% | 29.6hPa | 2.7V | 00:00:00 | 01:36:48 | 00:00:00 | |
| BAUMI2-15 | 2026-08-31 12:06:09 | 48.60855 | 12.75147 | 340° | 22km/h | 24300m | 5.2m/s | -51.1°C | 3.7% | 29.6hPa | 2.7V | 00:00:00 | 01:36:47 | 00:00:00 | |
| OE5MMP-10 | 2026-08-31 12:06:08 | 48.60851 | 12.75149 | 341° | 20km/h | 24295m | 6.3m/s | -51.2°C | 3.7% | 29.7hPa | 2.6V | 00:00:00 | 01:36:46 | 08:30:00 | |
| DK5PH-5 | 2026-08-31 12:06:06 | 48.60839 | 12.75155 | 343° | 22km/h | 24284m | 4.1m/s | -51.3°C | 3.7% | 29.7hPa | 2.6V | 00:00:00 | 01:36:44 | 00:00:00 | |
| OE5REO-15 | 2026-08-31 12:06:05 | 48.60839 | 12.75155 | 343° | 26km/h | 24284m | 4.2m/s | -51.3°C | 1.0% | 29.7hPa | 2.7V | 00:00:00 | 00:00:00 | 00:00:00 | |
| BAUMI2-15 | 2026-08-31 12:06:04 | 48.60827 | 12.75161 | 343° | 22km/h | 24273m | 5.3m/s | -51.1°C | 3.7% | 29.8hPa | 2.7V | 00:00:00 | 01:36:42 | 00:00:00 | |
| OE5DXL-15 | 2026-08-31 12:06:03 | 48.60817 | 12.75165 | 347° | 26km/h | 24263m | 5.4m/s | -51.2°C | 3.7% | 29.8hPa | 2.7V | 00:00:00 | 00:00:00 | 00:00:00 | |
| OE5HKT-10 | 2026-08-31 12:05:59 | 48.60801 | 12.75168 | 1° | 24km/h | 24248m | 5.4m/s | -51.1°C | 3.7% | 29.9hPa | 2.7V | 00:00:00 | 00:00:00 | 00:00:00 | |
| DO3MHA-11 | 2026-08-31 12:05:58 | 48.60797 | 12.75168 | 5° | 18km/h | 24242m | 5.9m/s | -51.1°C | 3.8% | 29.9hPa | 2.7V | 00:00:00 | 01:36:36 | 00:00:00 | |
| OE5WHR-10 | 2026-08-31 12:05:56 | 48.60789 | 12.75168 | 353° | 26km/h | 24232m | 4.6m/s | -51.1°C | 3.8% | 29.9hPa | 2.6V | 00:00:00 | 00:00:00 | 00:00:00 | |
| BAUMI2-15 | 2026-08-31 12:05:55 | 48.60779 | 12.75173 | 335° | 29km/h | 24221m | 5.7m/s | -51.1°C | 3.7% | 30.0hPa | 2.7V | 00:00:00 | 01:36:32 | 08:30:00 | |
| PETON7-10 | 2026-08-31 12:05:51 | 48.60761 | 12.75192 | 321° | 31km/h | 24204m | 4.4m/s | -51.2°C | 3.7% | 30.1hPa | 2.6V | 00:00:00 | 00:00:00 | 00:00:00 | |
| BAUMI2-15 | 2026-08-31 12:05:49 | 48.60749 | 12.75205 | 328° | 22km/h | 24194m | 6.4m/s | -51.2°C | 3.7% | 30.1hPa | 2.6V | 00:00:00 | 01:36:27 | 00:00:00 | |
| DO3MHA-11 | 2026-08-31 12:05:44 | 48.60725 | 12.75222 | 340° | 27km/h | 24167m | 3.6m/s | -50.9°C | 3.6% | 30.3hPa | 2.6V | 00:00:00 | 01:36:22 | 00:00:00 | |
| DG1MFX-10 | 2026-08-31 12:05:43 | 48.60725 | 12.75222 | 340° | 11km/h | 24167m | 3.6m/s | -50.9°C | 1.1% | 30.3hPa | 2.6V | 00:00:00 | 00:00:00 | 00:00:00 | |
| DL6DJ-15 | 2026-08-31 12:05:42 | 48.60718 | 12.75226 | 339° | 16km/h | 24158m | 5.6m/s | -50.9°C | 1.0% | 30.4hPa | 2.6V | 00:00:00 | 00:00:00 | 00:00:00 | |
| BAUMI2-15 | 2026-08-31 12:05:39 | 48.60701 | 12.75242 | 317° | 35km/h | 24142m | 6.0m/s | -51.0°C | 3.7% | 30.4hPa | 2.6V | 00:00:00 | 01:36:17 | 00:00:00 | |
| OE5HKT-10 | 2026-08-31 12:05:37 | 48.60690 | 12.75262 | 310° | 31km/h | 24132m | 3.7m/s | -50.8°C | 3.6% | 30.4hPa | 2.7V | 00:00:00 | 01:36:15 | 00:00:00 | |
| DK5PH-5 | 2026-08-31 12:05:36 | 48.60684 | 12.75272 | 314° | 27km/h | 24128m | 4.6m/s | -50.9°C | 3.6% | 30.4hPa | 2.7V | 00:00:00 | 01:36:14 | 00:00:00 | |
| OE5WHR-10 | 2026-08-31 12:05:35 | 48.60678 | 12.75281 | 319° | 27km/h | 24123m | 5.5m/s | -51.0°C | 3.7% | 30.5hPa | 2.7V | 00:00:00 | 00:00:00 | 00:00:00 | |
| BAUMI2-15 | 2026-08-31 12:05:34 | 48.60671 | 12.75288 | 325° | 26km/h | 24118m | 5.0m/s | -51.0°C | 3.7% | 30.5hPa | 2.7V | 00:00:00 | 01:36:12 | 00:00:00 | |
| OE5DXL-15 | 2026-08-31 12:05:33 | 48.60660 | 12.75301 | 325° | 27km/h | 24107m | 6.0m/s | -51.0°C | 3.6% | 30.6hPa | 2.7V | 00:00:00 | 00:00:00 | 08:30:00 | |
| PETON7-10 | 2026-08-31 12:05:32 | 48.60660 | 12.75301 | 325° | 27km/h | 24107m | 6.0m/s | -51.0°C | 3.6% | 30.6hPa | 2.6V | 00:00:00 | 01:36:10 | 00:00:00 | |
| BAUMI2-15 | 2026-08-31 12:05:29 | 48.60646 | 12.75317 | 321° | 26km/h | 24091m | 6.0m/s | -50.9°C | 3.6% | 30.6hPa | 2.6V | 00:00:00 | 01:36:07 | 00:00:00 | |
| DO3MHA-11 | 2026-08-31 12:05:24 | 48.60621 | 12.75353 | 316° | 27km/h | 24065m | 5.0m/s | -51.1°C | 3.6% | 30.8hPa | 2.6V | 00:00:00 | 01:36:02 | 00:00:00 | |
| OE5DRO-10 | 2026-08-31 12:05:23 | 48.60614 | 12.75362 | 320° | 29km/h | 24059m | 5.9m/s | -51.1°C | 3.6% | 30.8hPa | 2.7V | 00:00:00 | 00:00:00 | 00:00:00 | |
| DG1MFX-10 | 2026-08-31 12:05:22 | 48.60614 | 12.75362 | 321° | 38km/h | 24059m | 6.0m/s | -51.1°C | 1.1% | 30.8hPa | 2.7V | 00:00:00 | 00:00:00 | 00:00:00 | |
| OE5FHM-15 | 2026-08-31 12:05:21 | 48.60600 | 12.75379 | 323° | 26km/h | 24050m | 4.4m/s | -51.1°C | 3.6% | 30.8hPa | 2.7V | 00:00:00 | 01:35:59 | 00:00:00 | |
| BAUMI2-15 | 2026-08-31 12:05:19 | 48.60588 | 12.75394 | 316° | 18km/h | 24039m | 5.0m/s | -51.3°C | 3.7% | 30.9hPa | 2.7V | 00:00:00 | 01:35:57 | 00:00:00 | |
| OE5REO-15 | 2026-08-31 12:05:18 | 48.60588 | 12.75394 | 316° | 26km/h | 24039m | 5.0m/s | -51.3°C | 1.1% | 30.9hPa | 2.7V | 00:00:00 | 00:00:00 | 00:00:00 | |
| OE5HKT-10 | 2026-08-31 12:05:16 | 48.60577 | 12.75409 | 330° | 26km/h | 24023m | 6.5m/s | -51.4°C | 3.8% | 30.9hPa | 2.7V | 00:00:00 | 00:00:00 | 00:00:00 | |
| OE5WHR-10 | 2026-08-31 12:05:14 | 48.60571 | 12.75412 | 344° | 27km/h | 24013m | 3.7m/s | -51.4°C | 3.8% | 31.0hPa | 2.7V | 00:00:00 | 01:35:52 | 00:00:00 | |
| DL6DJ-15 | 2026-08-31 12:05:11 | 48.60560 | 12.75425 | 312° | 27km/h | 23998m | 5.1m/s | -51.6°C | 1.1% | 31.1hPa | 2.7V | 00:00:00 | 00:00:00 | 00:00:00 | |
| BAUMI2-15 | 2026-08-31 12:05:09 | 48.60548 | 12.75442 | 318° | 35km/h | 23987m | 5.9m/s | -51.5°C | 3.7% | 31.1hPa | 2.7V | 00:00:00 | 01:35:47 | 08:30:00 | |
| OE5MMP-10 | 2026-08-31 12:05:07 | 48.60534 | 12.75459 | 326° | 26km/h | 23977m | 4.7m/s | -51.5°C | 3.7% | 31.2hPa | 2.6V | 00:00:00 | 01:35:45 | 00:00:00 | |
| DK5PH-5 | 2026-08-31 12:05:06 | 48.60527 | 12.75466 | 327° | 24km/h | 23972m | 6.0m/s | -51.5°C | 3.7% | 31.2hPa | 2.6V | 00:00:00 | 01:35:44 | 00:00:00 | |
| OE5DXL-15 | 2026-08-31 12:05:03 | 48.60502 | 12.75482 | 1° | 24km/h | 23951m | 5.2m/s | -51.4°C | 3.6% | 31.3hPa | 2.6V | 00:00:00 | 00:00:00 | 00:00:00 | |
| DO3MHA-11 | 2026-08-31 12:05:02 | 48.60502 | 12.75482 | 1° | 26km/h | 23951m | 5.2m/s | -51.4°C | 3.6% | 31.3hPa | 2.6V | 00:00:00 | 01:35:40 | 00:00:00 | |
| DG1MFX-10 | 2026-08-31 12:05:01 | 48.60502 | 12.75482 | 2° | 24km/h | 23951m | 5.2m/s | -51.4°C | 1.1% | 31.3hPa | 2.6V | 00:00:00 | 00:00:00 | 00:00:00 | |
| PETON7-10 | 2026-08-31 12:04:59 | 48.60487 | 12.75482 | 344° | 24km/h | 23937m | 5.5m/s | -51.5°C | 3.7% | 31.4hPa | 2.6V | 00:00:00 | 00:00:00 | 00:00:00 | |
| OE5MMP-10 | 2026-08-31 12:04:56 | 48.60471 | 12.75498 | 324° | 24km/h | 23922m | 5.3m/s | -51.8°C | 3.8% | 31.4hPa | 2.6V | 00:00:00 | 01:35:34 | 00:00:00 | |
| OE5HKT-10 | 2026-08-31 12:04:55 | 48.60464 | 12.75505 | 328° | 26km/h | 23916m | 5.1m/s | -51.7°C | 3.8% | 31.5hPa | 2.7V | 00:00:00 | 00:00:00 | 00:00:00 | |
| OE5WHR-10 | 2026-08-31 12:04:53 | 48.60449 | 12.75518 | 334° | 24km/h | 23907m | 4.3m/s | -51.8°C | 3.8% | 31.6hPa | 2.7V | 00:00:00 | 00:00:00 | 00:00:00 | |
| DO3MHA-11 | 2026-08-31 12:04:52 | 48.60442 | 12.75523 | 335° | 18km/h | 23902m | 5.3m/s | -51.9°C | 3.8% | 31.6hPa | 2.6V | 00:00:00 | 01:35:30 | 08:30:00 | |
| OE5FHM-15 | 2026-08-31 12:04:51 | 48.60436 | 12.75527 | 336° | 24km/h | 23897m | 5.2m/s | -51.9°C | 3.8% | 31.6hPa | 2.6V | 00:00:00 | 01:35:29 | 00:00:00 | |
| OE5REO-15 | 2026-08-31 12:04:47 | 48.60423 | 12.75532 | 4° | 18km/h | 23881m | 5.6m/s | -52.1°C | 1.1% | 31.7hPa | 2.6V | 00:00:00 | 00:00:00 | 00:00:00 | |
| OE5MMP-10 | 2026-08-31 12:04:46 | 48.60414 | 12.75531 | 1° | 26km/h | 23871m | 5.0m/s | -52.0°C | 3.7% | 31.7hPa | 2.6V | 00:00:00 | 01:35:24 | 00:00:00 | |
| PETON7-10 | 2026-08-31 12:04:44 | 48.60406 | 12.75533 | 341° | 24km/h | 23860m | 5.2m/s | -52.1°C | 3.8% | 31.8hPa | 2.6V | 00:00:00 | 01:35:22 | 00:00:00 | |
| DO3MHA-11 | 2026-08-31 12:04:42 | 48.60397 | 12.75538 | 334° | 26km/h | 23849m | 5.8m/s | -52.2°C | 3.9% | 31.8hPa | 2.6V | 00:00:00 | 01:35:20 | 00:00:00 | |
| DG1MFX-10 | 2026-08-31 12:04:41 | 48.60398 | 12.75538 | 335° | 22km/h | 23849m | 5.8m/s | -52.3°C | 1.1% | 31.9hPa | 2.6V | 00:00:00 | 00:00:00 | 00:00:00 | |
| DL6DJ-15 | 2026-08-31 12:04:40 | 48.60387 | 12.75548 | 323° | 26km/h | 23839m | 5.4m/s | -52.4°C | 1.2% | 31.9hPa | 2.6V | 00:00:00 | 00:00:00 | 00:00:00 | |
| PG1ADW-2 | 2026-08-31 12:04:39 | 48.60382 | 12.75555 | 317° | 27km/h | 23834m | 6.0m/s | -52.4°C | 4.0% | 31.9hPa | 2.6V | 00:00:00 | 01:35:17 | 00:00:00 | |
| OE5DRO-10 | 2026-08-31 12:04:36 | 48.60360 | 12.75584 | 330° | 26km/h | 23813m | 4.7m/s | -52.4°C | 3.9% | 32.0hPa | 2.6V | 00:00:00 | 00:00:00 | 00:00:00 | |
| OE5MMP-10 | 2026-08-31 12:04:34 | 48.60354 | 12.75589 | 338° | 27km/h | 23808m | 4.4m/s | -52.4°C | 3.9% | 32.0hPa | 2.6V | 00:00:00 | 01:35:12 | 00:00:00 | |
| OE5WHR-10 | 2026-08-31 12:04:32 | 48.60342 | 12.75595 | 344° | 24km/h | 23797m | 5.8m/s | -52.4°C | 3.9% | 32.1hPa | 2.6V | 00:00:00 | 00:00:00 | 00:00:00 | |
| DO3MHA-11 | 2026-08-31 12:04:29 | 48.60329 | 12.75603 | 336° | 22km/h | 23781m | 5.7m/s | -52.4°C | 3.9% | 32.2hPa | 2.6V | 00:00:00 | 01:35:07 | 00:00:00 | |
| OE5FHM-15 | 2026-08-31 12:04:21 | 48.60289 | 12.75665 | 321° | 22km/h | 23739m | 4.5m/s | -52.6°C | 4.0% | 32.4hPa | 2.6V | 00:00:00 | 01:34:59 | 00:00:00 | |
| DG1MFX-10 | 2026-08-31 12:04:20 | 48.60289 | 12.75665 | 321° | 26km/h | 23739m | 4.6m/s | -52.7°C | 1.2% | 32.4hPa | 2.7V | 00:00:00 | 00:00:00 | 00:00:00 | |
| OE5MMP-10 | 2026-08-31 12:04:19 | 48.60280 | 12.75676 | 319° | 22km/h | 23728m | 4.9m/s | -52.5°C | 3.9% | 32.4hPa | 2.7V | 00:00:00 | 01:34:57 | 00:00:00 | |
| OE5REO-15 | 2026-08-31 12:04:16 | 48.60274 | 12.75684 | 326° | 18km/h | 23718m | 6.2m/s | -52.6°C | 1.2% | 32.5hPa | 2.6V | 00:00:00 | 00:00:00 | 00:00:00 | |
| DO3MHA-11 | 2026-08-31 12:04:15 | 48.60266 | 12.75694 | 312° | 24km/h | 23708m | 4.1m/s | -52.4°C | 3.9% | 32.5hPa | 2.6V | 00:00:00 | 01:34:53 | 00:00:00 | |
| PETON7-10 | 2026-08-31 12:04:14 | 48.60262 | 12.75701 | 302° | 24km/h | 23703m | 5.6m/s | -52.4°C | 3.9% | 32.6hPa | 2.7V | 00:00:00 | 00:00:00 | 00:00:00 | |
| OE5WHR-10 | 2026-08-31 12:04:11 | 48.60257 | 12.75729 | 279° | 22km/h | 23688m | 4.0m/s | -52.4°C | 3.9% | 32.6hPa | 2.7V | 00:00:00 | 01:34:49 | 00:00:00 | |
| DL6DJ-15 | 2026-08-31 12:04:09 | 48.60254 | 12.75748 | 292° | 24km/h | 23677m | 5.7m/s | -52.4°C | 1.1% | 32.7hPa | 2.7V | 00:00:00 | 00:00:00 | 00:00:00 | |
| OE5MMP-10 | 2026-08-31 12:04:07 | 48.60247 | 12.75764 | 309° | 22km/h | 23668m | 4.2m/s | -52.3°C | 3.9% | 32.7hPa | 2.7V | 00:00:00 | 01:34:45 | 00:00:00 | |
| DK5PH-5 | 2026-08-31 12:04:06 | 48.60244 | 12.75770 | 308° | 20km/h | 23663m | 5.5m/s | -52.3°C | 3.9% | 32.8hPa | 2.7V | 00:00:00 | 01:34:44 | 00:00:00 | |
| DO3MHA-11 | 2026-08-31 12:04:05 | 48.60242 | 12.75776 | 301° | 22km/h | 23658m | 5.2m/s | -52.3°C | 3.9% | 32.8hPa | 2.7V | 00:00:00 | 01:34:43 | 00:00:00 | |
| OE5DXL-15 | 2026-08-31 12:04:03 | 48.60234 | 12.75798 | 298° | 18km/h | 23642m | 5.3m/s | -52.5°C | 3.9% | 32.8hPa | 2.7V | 00:00:00 | 00:00:00 | 00:00:00 | |
| OE5REO-15 | 2026-08-31 12:04:01 | 48.60234 | 12.75798 | 299° | 26km/h | 23642m | 5.3m/s | -52.5°C | 1.2% | 32.9hPa | 2.6V | 00:00:00 | 00:00:00 | 00:00:00 | |
| PETON7-10 | 2026-08-31 12:03:59 | 48.60223 | 12.75824 | 309° | 20km/h | 23628m | 5.9m/s | -52.3°C | 3.9% | 32.9hPa | 2.6V | 00:00:00 | 01:34:37 | 00:00:00 | |
| OE5MMP-10 | 2026-08-31 12:03:56 | 48.60213 | 12.75840 | 316° | 20km/h | 23612m | 4.6m/s | -52.4°C | 3.8% | 33.0hPa | 2.6V | 00:00:00 | 01:34:34 | 00:00:00 | |
| DO3MHA-11 | 2026-08-31 12:03:55 | 48.60210 | 12.75844 | 313° | 16km/h | 23606m | 6.2m/s | -52.5°C | 3.9% | 33.1hPa | 2.6V | 00:00:00 | 01:34:33 | 00:00:00 | |
| OE5FHM-15 | 2026-08-31 12:03:51 | 48.60199 | 12.75869 | 299° | 16km/h | 23585m | 5.4m/s | -52.6°C | 3.9% | 33.2hPa | 2.6V | 00:00:00 | 01:34:29 | 00:00:00 | |
| OE5WHR-10 | 2026-08-31 12:03:50 | 48.60196 | 12.75876 | 300° | 16km/h | 23579m | 5.2m/s | -52.7°C | 4.0% | 33.2hPa | 2.6V | 00:00:00 | 00:00:00 | 08:30:00 | |
| OE5MMP-10 | 2026-08-31 12:03:46 | 48.60183 | 12.75900 | 328° | 16km/h | 23557m | 5.9m/s | -52.6°C | 4.0% | 33.3hPa | 2.7V | 00:00:00 | 01:34:24 | 08:30:00 | |
| OE5REO-15 | 2026-08-31 12:03:45 | 48.60183 | 12.75900 | 329° | 18km/h | 23557m | 6.0m/s | -52.7°C | 1.2% | 33.4hPa | 2.6V | 00:00:00 | 00:00:00 | 00:00:00 | |
| PETON7-10 | 2026-08-31 12:03:44 | 48.60175 | 12.75906 | 340° | 16km/h | 23547m | 5.7m/s | -52.6°C | 4.0% | 33.4hPa | 2.6V | 00:00:00 | 00:00:00 | 00:00:00 | |
| DG1MFX-10 | 2026-08-31 12:03:39 | 48.60158 | 12.75917 | 331° | 13km/h | 23526m | 6.0m/s | -52.7°C | 1.2% | 33.5hPa | 2.6V | 00:00:00 | 00:00:00 | 00:00:00 | |
| DL6DJ-15 | 2026-08-31 12:03:38 | 48.60155 | 12.75923 | 284° | 11km/h | 23515m | 4.9m/s | -52.7°C | 1.1% | 33.6hPa | 2.6V | 00:00:00 | 00:00:00 | 00:00:00 | |
| DO3MHA-11 | 2026-08-31 12:03:37 | 48.60154 | 12.75929 | 276° | 16km/h | 23510m | 6.4m/s | -52.7°C | 3.9% | 33.6hPa | 2.6V | 00:00:00 | 01:34:15 | 00:00:00 | |
| OE5MMP-10 | 2026-08-31 12:03:36 | 48.60154 | 12.75936 | 271° | 15km/h | 23504m | 4.8m/s | -52.8°C | 4.0% | 33.6hPa | 2.6V | 00:00:00 | 01:34:14 | 00:00:00 | |
| PG1ADW-2 | 2026-08-31 12:03:35 | 48.60154 | 12.75943 | 268° | 15km/h | 23499m | 4.1m/s | -52.8°C | 4.0% | 33.6hPa | 2.6V | 00:00:00 | 00:00:00 | 00:00:00 | |
| OE5DXL-15 | 2026-08-31 12:03:33 | 48.60154 | 12.75961 | 292° | 15km/h | 23484m | 4.9m/s | -52.7°C | 4.0% | 33.7hPa | 2.6V | 00:00:00 | 00:00:00 | 00:00:00 | |
| PETON7-10 | 2026-08-31 12:03:29 | 48.60146 | 12.75966 | 353° | 15km/h | 23467m | 4.6m/s | -52.6°C | 3.9% | 33.8hPa | 2.6V | 00:00:00 | 00:00:00 | 00:00:00 | |
| DO3MHA-11 | 2026-08-31 12:03:27 | 48.60137 | 12.75968 | 351° | 13km/h | 23458m | 5.4m/s | -52.7°C | 3.9% | 33.8hPa | 2.6V | 00:00:00 | 01:34:05 | 00:00:00 | |
| OE5HKT-10 | 2026-08-31 12:03:24 | 48.60131 | 12.75972 | 276° | 15km/h | 23442m | 4.7m/s | -52.9°C | 4.0% | 33.9hPa | 2.6V | 00:00:00 | 01:34:02 | 00:00:00 | |
| OE5FHM-15 | 2026-08-31 12:03:21 | 48.60131 | 12.75986 | 273° | 16km/h | 23425m | 5.1m/s | -52.9°C | 4.1% | 34.0hPa | 2.6V | 00:00:00 | 01:33:59 | 00:00:00 | |
| OE5DRO-10 | 2026-08-31 12:03:18 | 48.60128 | 12.76009 | 306° | 18km/h | 23404m | 6.2m/s | -52.9°C | 4.0% | 34.1hPa | 2.6V | 00:00:00 | 00:00:00 | 00:00:00 | |
| DO3MHA-11 | 2026-08-31 12:03:17 | 48.60128 | 12.76009 | 306° | 16km/h | 23404m | 6.2m/s | -52.9°C | 4.0% | 34.1hPa | 2.6V | 00:00:00 | 01:33:55 | 00:00:00 | |
| PG1ADW-2 | 2026-08-31 12:03:15 | 48.60121 | 12.76018 | 332° | 18km/h | 23392m | 4.5m/s | -52.9°C | 3.9% | 34.2hPa | 2.6V | 00:00:00 | 01:33:53 | 00:00:00 | |
| OE5WHR-10 | 2026-08-31 12:03:08 | 48.60100 | 12.76045 | 282° | 16km/h | 23355m | 6.3m/s | -52.9°C | 4.1% | 34.4hPa | 2.7V | 00:00:00 | 01:33:46 | 00:00:00 | |
| DO3MHA-11 | 2026-08-31 12:03:07 | 48.60099 | 12.76051 | 274° | 18km/h | 23349m | 5.6m/s | -52.8°C | 4.0% | 34.4hPa | 2.7V | 00:00:00 | 01:33:45 | 08:30:00 | |
| DK5PH-5 | 2026-08-31 12:03:06 | 48.60099 | 12.76056 | 281° | 15km/h | 23344m | 4.5m/s | -52.9°C | 4.0% | 34.5hPa | 2.6V | 00:00:00 | 01:33:44 | 08:30:00 | |
| BAUMI2-15 | 2026-08-31 12:03:05 | 48.60098 | 12.76061 | 296° | 18km/h | 23338m | 6.2m/s | -52.9°C | 4.0% | 34.5hPa | 2.7V | 00:00:00 | 01:33:43 | 00:00:00 | |
| OE5MMP-10 | 2026-08-31 12:03:04 | 48.60095 | 12.76066 | 315° | 18km/h | 23332m | 5.6m/s | -52.9°C | 4.0% | 34.6hPa | 2.7V | 00:00:00 | 01:33:42 | 00:00:00 | |
| OE5HKT-10 | 2026-08-31 12:03:03 | 48.60092 | 12.76070 | 327° | 18km/h | 23327m | 5.3m/s | -52.9°C | 3.9% | 34.6hPa | 2.7V | 00:00:00 | 00:00:00 | 00:00:00 | |
| BAUMI2-15 | 2026-08-31 12:03:00 | 48.60079 | 12.76079 | 337° | 20km/h | 23310m | 5.2m/s | -53.0°C | 3.9% | 34.6hPa | 2.6V | 00:00:00 | 01:33:38 | 00:00:00 | |
| PETON7-10 | 2026-08-31 12:02:59 | 48.60074 | 12.76083 | 332° | 16km/h | 23305m | 5.7m/s | -53.0°C | 3.9% | 34.6hPa | 2.6V | 00:00:00 | 00:00:00 | 00:00:00 | |
| OE5DRO-10 | 2026-08-31 12:02:58 | 48.60066 | 12.76093 | 309° | 15km/h | 23295m | 5.4m/s | -53.0°C | 3.9% | 34.7hPa | 2.7V | 00:00:00 | 00:00:00 | 08:30:00 | |
| DO3MHA-11 | 2026-08-31 12:02:57 | 48.60066 | 12.76093 | 309° | 13km/h | 23295m | 5.4m/s | -53.0°C | 3.9% | 34.7hPa | 2.7V | 00:00:00 | 01:33:35 | 00:00:00 | |
| PG1ADW-2 | 2026-08-31 12:02:55 | 48.60063 | 12.76103 | 267° | 13km/h | 23283m | 5.5m/s | -53.2°C | 4.1% | 34.8hPa | 2.7V | 00:00:00 | 00:00:00 | 00:00:00 | |
| OE5MMP-10 | 2026-08-31 12:02:54 | 48.60064 | 12.76108 | 256° | 15km/h | 23277m | 5.6m/s | -53.2°C | 4.1% | 34.8hPa | 2.7V | 00:00:00 | 01:33:32 | 00:00:00 | |
| OE5FHM-15 | 2026-08-31 12:02:51 | 48.60064 | 12.76124 | 289° | 11km/h | 23262m | 4.7m/s | -53.2°C | 4.2% | 34.9hPa | 2.7V | 00:00:00 | 01:33:29 | 08:30:00 | |
| BAUMI2-15 | 2026-08-31 12:02:50 | 48.60063 | 12.76127 | 312° | 15km/h | 23256m | 6.8m/s | -53.2°C | 4.1% | 34.9hPa | 2.6V | 00:00:00 | 01:33:28 | 00:00:00 | |
| OE5WHR-10 | 2026-08-31 12:02:47 | 48.60054 | 12.76131 | 351° | 11km/h | 23238m | 6.2m/s | -53.4°C | 4.0% | 35.1hPa | 2.6V | 00:00:00 | 00:00:00 | 00:00:00 | |
| BAUMI2-15 | 2026-08-31 12:02:45 | 48.60045 | 12.76135 | 340° | 13km/h | 23228m | 4.4m/s | -53.2°C | 4.0% | 35.1hPa | 2.7V | 00:00:00 | 01:33:23 | 00:00:00 | |
| PETON7-10 | 2026-08-31 12:02:44 | 48.60041 | 12.76137 | 336° | 11km/h | 23222m | 6.0m/s | -53.2°C | 4.0% | 35.1hPa | 2.7V | 00:00:00 | 00:00:00 | 00:00:00 | |
| OE5HKT-10 | 2026-08-31 12:02:42 | 48.60036 | 12.76142 | 302° | 9km/h | 23211m | 4.6m/s | -53.2°C | 4.1% | 35.2hPa | 2.7V | 00:00:00 | 00:00:00 | 00:00:00 | |
| OE5REO-15 | 2026-08-31 12:02:41 | 48.60036 | 12.76142 | 302° | 9km/h | 23211m | 4.6m/s | -53.3°C | 1.2% | 35.2hPa | 2.7V | 00:00:00 | 00:00:00 | 00:00:00 | |
| BAUMI2-15 | 2026-08-31 12:02:40 | 48.60035 | 12.76151 | 279° | 11km/h | 23200m | 5.1m/s | -53.2°C | 4.2% | 35.2hPa | 2.7V | 00:00:00 | 01:33:18 | 00:00:00 | |
| DO3MHA-11 | 2026-08-31 12:02:37 | 48.60035 | 12.76165 | 253° | 9km/h | 23183m | 5.8m/s | -53.2°C | 4.1% | 35.4hPa | 2.6V | 00:00:00 | 01:33:15 | 00:00:00 | |
| DK5PH-5 | 2026-08-31 12:02:36 | 48.60036 | 12.76168 | 258° | 11km/h | 23178m | 5.0m/s | -53.2°C | 4.1% | 35.3hPa | 2.6V | 00:00:00 | 01:33:14 | 00:00:00 | |
| BAUMI2-15 | 2026-08-31 12:02:35 | 48.60036 | 12.76172 | 277° | 9km/h | 23172m | 6.3m/s | -53.3°C | 4.0% | 35.4hPa | 2.6V | 00:00:00 | 01:33:13 | 00:00:00 | |
| OE5MMP-10 | 2026-08-31 12:02:34 | 48.60035 | 12.76175 | 297° | 9km/h | 23166m | 5.1m/s | -53.3°C | 4.1% | 35.4hPa | 2.6V | 00:00:00 | 01:33:12 | 00:00:00 | |
| OE5DXL-15 | 2026-08-31 12:02:33 | 48.60031 | 12.76183 | 328° | 13km/h | 23150m | 5.5m/s | -53.3°C | 4.0% | 35.5hPa | 2.6V | 00:00:00 | 00:00:00 | 00:00:00 | |
| BAUMI2-15 | 2026-08-31 12:02:30 | 48.60030 | 12.76184 | 322° | 7km/h | 23144m | 5.1m/s | -53.3°C | 4.0% | 35.5hPa | 2.6V | 00:00:00 | 01:33:08 | 00:00:00 | |
| PETON7-10 | 2026-08-31 12:02:29 | 48.60029 | 12.76186 | 308° | 11km/h | 23139m | 6.1m/s | -53.3°C | 4.1% | 35.6hPa | 2.6V | 00:00:00 | 01:33:07 | 00:00:00 | |
| DO3MHA-11 | 2026-08-31 12:02:27 | 48.60028 | 12.76191 | 258° | 13km/h | 23128m | 4.8m/s | -53.2°C | 4.1% | 35.7hPa | 2.6V | 00:00:00 | 01:33:05 | 00:00:00 | |
| OE5WHR-10 | 2026-08-31 12:02:26 | 48.60029 | 12.76195 | 235° | 13km/h | 23122m | 6.6m/s | -53.3°C | 4.2% | 35.7hPa | 2.6V | 00:00:00 | 00:00:00 | 00:00:00 | |
| BAUMI2-15 | 2026-08-31 12:02:25 | 48.60031 | 12.76198 | 216° | 15km/h | 23116m | 6.0m/s | -53.3°C | 4.1% | 35.7hPa | 2.6V | 00:00:00 | 01:33:03 | 08:30:00 | |
| OE5MMP-10 | 2026-08-31 12:02:24 | 48.60034 | 12.76201 | 213° | 11km/h | 23111m | 5.1m/s | -53.2°C | 4.1% | 35.7hPa | 2.6V | 00:00:00 | 01:33:02 | 00:00:00 | |
| OE5HKT-10 | 2026-08-31 12:02:21 | 48.60043 | 12.76212 | 220° | 13km/h | 23095m | 4.6m/s | -53.2°C | 4.2% | 35.8hPa | 2.6V | 00:00:00 | 01:32:59 | 00:00:00 | |
| BAUMI2-15 | 2026-08-31 12:02:20 | 48.60045 | 12.76214 | 211° | 7km/h | 23090m | 6.4m/s | -53.2°C | 4.1% | 35.9hPa | 2.6V | 00:00:00 | 01:32:58 | 00:00:00 | |
| DO3MHA-11 | 2026-08-31 12:02:17 | 48.60051 | 12.76218 | 225° | 11km/h | 23073m | 6.1m/s | -53.2°C | 4.1% | 35.9hPa | 2.6V | 00:00:00 | 01:32:55 | 00:00:00 | |
| DG1MFX-10 | 2026-08-31 12:02:16 | 48.60051 | 12.76218 | 225° | 5km/h | 23073m | 6.1m/s | -53.3°C | 1.2% | 36.0hPa | 2.6V | 00:00:00 | 00:00:00 | 00:00:00 | |
| BAUMI2-15 | 2026-08-31 12:02:15 | 48.60051 | 12.76222 | 291° | 7km/h | 23061m | 4.6m/s | -53.1°C | 4.1% | 36.0hPa | 2.6V | 00:00:00 | 01:32:53 | 00:00:00 | |
| OE5MMP-10 | 2026-08-31 12:02:14 | 48.60051 | 12.76225 | 289° | 15km/h | 23056m | 6.0m/s | -53.0°C | 4.0% | 36.1hPa | 2.6V | 00:00:00 | 01:32:52 | 08:30:00 | |
| BAUMI2-15 | 2026-08-31 12:02:10 | 48.60054 | 12.76236 | 238° | 20km/h | 23035m | 6.1m/s | -53.0°C | 4.0% | 36.2hPa | 2.6V | 00:00:00 | 01:32:48 | 00:00:00 | |
| OE5REO-15 | 2026-08-31 12:02:09 | 48.60053 | 12.76236 | 238° | 15km/h | 23035m | 6.1m/s | -53.1°C | 1.2% | 36.2hPa | 2.7V | 00:00:00 | 00:00:00 | 00:00:00 | |
| DO3MHA-11 | 2026-08-31 12:02:07 | 48.60063 | 12.76253 | 220° | 13km/h | 23018m | 6.4m/s | -53.2°C | 4.2% | 36.3hPa | 2.7V | 00:00:00 | 01:32:45 | 00:00:00 | |
| DK5PH-5 | 2026-08-31 12:02:06 | 48.60068 | 12.76258 | 209° | 13km/h | 23012m | 5.6m/s | -53.0°C | 4.1% | 36.3hPa | 2.7V | 00:00:00 | 01:32:44 | 00:00:00 | |
| OE5WHR-10 | 2026-08-31 12:02:05 | 48.60073 | 12.76262 | 204° | 13km/h | 23007m | 5.0m/s | -53.0°C | 4.1% | 36.3hPa | 2.7V | 00:00:00 | 01:32:43 | 00:00:00 | |
| OE5MMP-10 | 2026-08-31 12:02:04 | 48.60077 | 12.76264 | 205° | 13km/h | 23001m | 6.4m/s | -52.9°C | 4.1% | 36.4hPa | 2.7V | 00:00:00 | 01:32:42 | 00:00:00 | |
| OE5DRO-10 | 2026-08-31 12:02:01 | 48.60084 | 12.76269 | 195° | 13km/h | 22985m | 5.6m/s | -52.8°C | 4.0% | 36.5hPa | 2.7V | 00:00:00 | 00:00:00 | 00:00:00 | |
| BAUMI2-15 | 2026-08-31 12:02:00 | 48.60085 | 12.76270 | 181° | 11km/h | 22979m | 5.6m/s | -52.9°C | 4.0% | 36.5hPa | 2.7V | 00:00:00 | 01:32:38 | 00:00:00 | |
| PETON7-10 | 2026-08-31 12:01:59 | 48.60087 | 12.76270 | 185° | 13km/h | 22974m | 5.2m/s | -53.0°C | 4.0% | 36.5hPa | 2.7V | 00:00:00 | 00:00:00 | 00:00:00 | |
| DO3MHA-11 | 2026-08-31 12:01:57 | 48.60092 | 12.76274 | 222° | 15km/h | 22963m | 6.4m/s | -52.9°C | 4.0% | 36.6hPa | 2.7V | 00:00:00 | 01:32:35 | 00:00:00 | |
| OE5HKT-10 | 2026-08-31 12:01:56 | 48.60095 | 12.76278 | 230° | 11km/h | 22958m | 4.9m/s | -52.9°C | 4.0% | 36.6hPa | 2.7V | 00:00:00 | 00:00:00 | 00:00:00 | |
| BAUMI2-15 | 2026-08-31 12:01:55 | 48.60098 | 12.76284 | 226° | 20km/h | 22953m | 5.1m/s | -52.9°C | 4.1% | 36.7hPa | 2.7V | 00:00:00 | 01:32:33 | 00:00:00 | |
| OE5MMP-10 | 2026-08-31 12:01:54 | 48.60102 | 12.76290 | 221° | 13km/h | 22947m | 6.2m/s | -52.8°C | 4.1% | 36.7hPa | 2.7V | 00:00:00 | 01:32:32 | 00:00:00 | |
| OE5REO-15 | 2026-08-31 12:01:53 | 48.60102 | 12.76290 | 221° | 24km/h | 22947m | 6.3m/s | -52.9°C | 1.2% | 36.7hPa | 2.7V | 00:00:00 | 00:00:00 | 00:00:00 | |
| OE5FHM-15 | 2026-08-31 12:01:51 | 48.60115 | 12.76302 | 210° | 13km/h | 22932m | 5.7m/s | -52.7°C | 4.0% | 36.8hPa | 2.7V | 00:00:00 | 01:32:29 | 00:00:00 | |
| BAUMI2-15 | 2026-08-31 12:01:50 | 48.60118 | 12.76304 | 213° | 7km/h | 22926m | 5.4m/s | -52.7°C | 4.0% | 36.8hPa | 2.7V | 00:00:00 | 01:32:28 | 00:00:00 | |
| DO3MHA-11 | 2026-08-31 12:01:46 | 48.60123 | 12.76304 | 155° | 13km/h | 22904m | 5.0m/s | -52.9°C | 4.0% | 36.9hPa | 2.7V | 00:00:00 | 01:32:24 | 00:00:00 | |
| PETON7-10 | 2026-08-31 12:01:45 | 48.60127 | 12.76303 | 189° | 13km/h | 22893m | 5.4m/s | -52.8°C | 4.0% | 37.0hPa | 2.7V | 00:00:00 | 01:32:22 | 00:00:00 | |
| OE5WHR-10 | 2026-08-31 12:01:44 | 48.60127 | 12.76303 | 189° | 15km/h | 22893m | 5.4m/s | -52.8°C | 4.0% | 37.0hPa | 2.7V | 00:00:00 | 00:00:00 | 00:00:00 | |
| OE5DRO-10 | 2026-08-31 12:01:42 | 48.60132 | 12.76306 | 200° | 15km/h | 22882m | 6.3m/s | -52.7°C | 4.0% | 37.0hPa | 2.6V | 00:00:00 | 00:00:00 | 00:00:00 | |
| BAUMI2-15 | 2026-08-31 12:01:40 | 48.60139 | 12.76309 | 198° | 15km/h | 22871m | 5.1m/s | -52.6°C | 3.9% | 37.1hPa | 2.7V | 00:00:00 | 01:32:18 | 08:30:00 | |
| OE5REO-15 | 2026-08-31 12:01:38 | 48.60143 | 12.76311 | 203° | 16km/h | 22865m | 6.6m/s | -52.7°C | 1.2% | 37.2hPa | 2.6V | 00:00:00 | 00:00:00 | 00:00:00 | |
| DK5PH-5 | 2026-08-31 12:01:36 | 48.60153 | 12.76317 | 185° | 16km/h | 22849m | 6.2m/s | -52.6°C | 4.0% | 37.2hPa | 2.6V | 00:00:00 | 01:32:14 | 00:00:00 | |
| BAUMI2-15 | 2026-08-31 12:01:35 | 48.60156 | 12.76316 | 165° | 13km/h | 22843m | 5.9m/s | -52.6°C | 4.0% | 37.3hPa | 2.7V | 00:00:00 | 01:32:13 | 00:00:00 | |
| OE5MMP-10 | 2026-08-31 12:01:34 | 48.60159 | 12.76314 | 152° | 15km/h | 22837m | 4.9m/s | -52.6°C | 4.0% | 37.3hPa | 2.7V | 00:00:00 | 01:32:12 | 00:00:00 | |
| PETON7-10 | 2026-08-31 12:01:29 | 48.60172 | 12.76302 | 156° | 16km/h | 22810m | 5.9m/s | -52.7°C | 4.0% | 37.5hPa | 2.7V | 00:00:00 | 00:00:00 | 00:00:00 | |
| DO3MHA-11 | 2026-08-31 12:01:26 | 48.60185 | 12.76299 | 186° | 16km/h | 22793m | 5.4m/s | -52.5°C | 4.0% | 37.6hPa | 2.6V | 00:00:00 | 01:32:04 | 00:00:00 | |
| BAUMI2-15 | 2026-08-31 12:01:25 | 48.60190 | 12.76300 | 185° | 18km/h | 22788m | 4.0m/s | -52.4°C | 3.9% | 37.6hPa | 2.6V | 00:00:00 | 01:32:03 | 00:00:00 | |
| OE5MMP-10 | 2026-08-31 12:01:24 | 48.60194 | 12.76300 | 179° | 16km/h | 22783m | 5.8m/s | -52.4°C | 4.0% | 37.6hPa | 2.6V | 00:00:00 | 01:32:02 | 00:00:00 | |
| OE5WHR-10 | 2026-08-31 12:01:23 | 48.60199 | 12.76299 | 170° | 18km/h | 22777m | 5.6m/s | -52.4°C | 3.9% | 37.7hPa | 2.6V | 00:00:00 | 00:00:00 | 00:00:00 | |
| OE5FHM-15 | 2026-08-31 12:01:21 | 48.60207 | 12.76296 | 159° | 18km/h | 22767m | 6.1m/s | -52.4°C | 3.9% | 37.7hPa | 2.6V | 00:00:00 | 01:31:59 | 00:00:00 | |
| BAUMI2-15 | 2026-08-31 12:01:20 | 48.60210 | 12.76293 | 153° | 16km/h | 22761m | 5.4m/s | -52.3°C | 3.9% | 37.7hPa | 2.6V | 00:00:00 | 01:31:58 | 00:00:00 | |
| DO3MHA-11 | 2026-08-31 12:01:16 | 48.60223 | 12.76280 | 151° | 20km/h | 22740m | 4.8m/s | -52.3°C | 3.9% | 37.9hPa | 2.6V | 00:00:00 | 01:31:54 | 00:00:00 | |
| BAUMI2-15 | 2026-08-31 12:01:15 | 48.60227 | 12.76277 | 161° | 20km/h | 22734m | 5.9m/s | -52.3°C | 3.9% | 37.9hPa | 2.6V | 00:00:00 | 01:31:53 | 00:00:00 | |
| OE5MMP-10 | 2026-08-31 12:01:14 | 48.60231 | 12.76275 | 169° | 20km/h | 22729m | 5.0m/s | -52.3°C | 3.9% | 38.0hPa | 2.6V | 00:00:00 | 01:31:52 | 00:00:00 | |
| OE5HKT-10 | 2026-08-31 12:01:13 | 48.60236 | 12.76273 | 170° | 18km/h | 22723m | 5.7m/s | -52.4°C | 3.9% | 38.0hPa | 2.6V | 00:00:00 | 01:31:51 | 00:00:00 | |
| BAUMI2-15 | 2026-08-31 12:01:09 | 48.60257 | 12.76268 | 175° | 15km/h | 22701m | 4.9m/s | -52.3°C | 4.0% | 38.1hPa | 2.6V | 00:00:00 | 01:31:47 | 00:00:00 | |
| OE5REO-15 | 2026-08-31 12:01:07 | 48.60262 | 12.76267 | 167° | 18km/h | 22697m | 4.3m/s | -52.2°C | 1.2% | 38.2hPa | 2.7V | 00:00:00 | 00:00:00 | 00:00:00 | |
| DO3MHA-11 | 2026-08-31 12:01:06 | 48.60270 | 12.76261 | 140° | 16km/h | 22685m | 5.7m/s | -52.2°C | 3.9% | 38.2hPa | 2.7V | 00:00:00 | 01:31:44 | 00:00:00 | |
| OE5MMP-10 | 2026-08-31 12:01:04 | 48.60275 | 12.76252 | 127° | 18km/h | 22675m | 6.0m/s | -52.2°C | 3.9% | 38.3hPa | 2.6V | 00:00:00 | 01:31:42 | 00:00:00 | |
| DL6DJ-15 | 2026-08-31 12:01:03 | 48.60278 | 12.76247 | 127° | 13km/h | 22669m | 4.6m/s | -52.3°C | 1.2% | 38.4hPa | 2.6V | 00:00:00 | 00:00:00 | 00:00:00 | |
| OE5WHR-10 | 2026-08-31 12:01:02 | 48.60280 | 12.76243 | 130° | 16km/h | 22664m | 5.4m/s | -52.2°C | 3.9% | 38.4hPa | 2.6V | 00:00:00 | 01:31:40 | 00:00:00 | |
| OE5DXL-15 | 2026-08-31 12:01:00 | 48.60289 | 12.76231 | 156° | 16km/h | 22647m | 6.3m/s | -52.1°C | 3.9% | 38.5hPa | 2.6V | 00:00:00 | 00:00:00 | 08:30:00 | |
| PETON7-10 | 2026-08-31 12:00:59 | 48.60289 | 12.76231 | 156° | 18km/h | 22647m | 6.3m/s | -52.1°C | 3.9% | 38.5hPa | 2.6V | 00:00:00 | 01:31:37 | 00:00:00 | |
| DO3MHA-11 | 2026-08-31 12:00:56 | 48.60304 | 12.76225 | 164° | 18km/h | 22632m | 6.1m/s | -52.0°C | 3.9% | 38.5hPa | 2.6V | 00:00:00 | 01:31:34 | 00:00:00 | |
| OE5MMP-10 | 2026-08-31 12:00:54 | 48.60314 | 12.76219 | 156° | 16km/h | 22621m | 5.2m/s | -52.0°C | 3.8% | 38.6hPa | 2.6V | 00:00:00 | 01:31:32 | 00:00:00 | |
| OE5HKT-10 | 2026-08-31 12:00:52 | 48.60320 | 12.76213 | 132° | 15km/h | 22611m | 4.8m/s | -52.0°C | 3.8% | 38.7hPa | 2.6V | 00:00:00 | 00:00:00 | 08:30:00 | |
| OE5FHM-15 | 2026-08-31 12:00:51 | 48.60322 | 12.76209 | 116° | 15km/h | 22605m | 5.8m/s | -52.0°C | 3.7% | 38.7hPa | 2.7V | 00:00:00 | 01:31:29 | 00:00:00 | |
| DO3MHA-11 | 2026-08-31 12:00:46 | 48.60327 | 12.76178 | 117° | 16km/h | 22580m | 4.9m/s | -52.1°C | 3.8% | 38.9hPa | 2.7V | 00:00:00 | 01:31:24 | 00:00:00 | |
| PETON7-10 | 2026-08-31 12:00:44 | 48.60332 | 12.76169 | 135° | 15km/h | 22569m | 4.6m/s | -52.2°C | 3.8% | 38.9hPa | 2.7V | 00:00:00 | 00:00:00 | 00:00:00 | |
| OE5WHR-10 | 2026-08-31 12:00:41 | 48.60342 | 12.76159 | 163° | 13km/h | 22554m | 5.5m/s | -52.4°C | 4.0% | 39.0hPa | 2.6V | 00:00:00 | 00:00:00 | 08:30:00 | |
| OE5REO-15 | 2026-08-31 12:00:37 | 48.60349 | 12.76154 | 131° | 11km/h | 22539m | 5.6m/s | -52.6°C | 1.2% | 39.1hPa | 2.6V | 00:00:00 | 00:00:00 | 00:00:00 | |
| DO3MHA-11 | 2026-08-31 12:00:36 | 48.60351 | 12.76144 | 92° | 18km/h | 22528m | 5.7m/s | -52.6°C | 4.0% | 39.2hPa | 2.6V | 00:00:00 | 01:31:14 | 00:00:00 | |
| OE5MMP-10 | 2026-08-31 12:00:34 | 48.60349 | 12.76132 | 72° | 15km/h | 22517m | 4.5m/s | -52.7°C | 3.9% | 39.2hPa | 2.6V | 00:00:00 | 01:31:12 | 00:00:00 | |
| OE5DRO-10 | 2026-08-31 12:00:32 | 48.60347 | 12.76119 | 87° | 16km/h | 22508m | 5.8m/s | -52.9°C | 4.0% | 39.3hPa | 2.6V | 00:00:00 | 00:00:00 | 00:00:00 | |
| OE5HKT-10 | 2026-08-31 12:00:31 | 48.60348 | 12.76112 | 99° | 15km/h | 22502m | 4.7m/s | -52.8°C | 4.0% | 39.3hPa | 2.6V | 00:00:00 | 00:00:00 | 00:00:00 | |
| PETON7-10 | 2026-08-31 12:00:29 | 48.60350 | 12.76102 | 118° | 15km/h | 22491m | 5.5m/s | -52.6°C | 4.0% | 39.4hPa | 2.6V | 00:00:00 | 00:00:00 | 00:00:00 | |
| OE5MMP-10 | 2026-08-31 12:00:24 | 48.60359 | 12.76086 | 115° | 16km/h | 22465m | 6.0m/s | -52.6°C | 4.0% | 39.6hPa | 2.6V | 00:00:00 | 01:31:02 | 00:00:00 | |
| OE5REO-15 | 2026-08-31 12:00:21 | 48.60360 | 12.76077 | 87° | 15km/h | 22455m | 4.6m/s | -52.8°C | 1.2% | 39.7hPa | 2.6V | 00:00:00 | 00:00:00 | 00:00:00 | |
| OE5WHR-10 | 2026-08-31 12:00:20 | 48.60359 | 12.76064 | 92° | 18km/h | 22444m | 5.0m/s | -52.6°C | 4.0% | 39.7hPa | 2.6V | 00:00:00 | 00:00:00 | 00:00:00 | |
| PETON7-10 | 2026-08-31 12:00:14 | 48.60365 | 12.76024 | 119° | 18km/h | 22413m | 5.1m/s | -52.4°C | 3.9% | 39.9hPa | 2.6V | 00:00:00 | 01:30:52 | 00:00:00 | |
| OE5DRO-10 | 2026-08-31 12:00:13 | 48.60367 | 12.76018 | 118° | 18km/h | 22409m | 4.4m/s | -52.4°C | 3.9% | 39.9hPa | 2.6V | 00:00:00 | 00:00:00 | 00:00:00 | |
| OE5HKT-10 | 2026-08-31 12:00:10 | 48.60371 | 12.76001 | 99° | 16km/h | 22393m | 4.7m/s | -52.3°C | 3.9% | 40.0hPa | 2.7V | 00:00:00 | 01:30:48 | 00:00:00 | |
| DK5PH-5 | 2026-08-31 12:00:06 | 48.60373 | 12.75970 | 96° | 16km/h | 22372m | 5.7m/s | -52.3°C | 3.9% | 40.1hPa | 2.7V | 00:00:00 | 01:30:44 | 00:00:00 | |
| OE5MMP-10 | 2026-08-31 12:00:04 | 48.60374 | 12.75955 | 101° | 20km/h | 22362m | 5.5m/s | -52.3°C | 3.9% | 40.2hPa | 2.6V | 00:00:00 | 01:30:42 | 00:00:00 | |
| DL6DJ-15 | 2026-08-31 12:00:01 | 48.60378 | 12.75925 | 91° | 16km/h | 22340m | 5.1m/s | -52.4°C | 1.2% | 40.4hPa | 2.6V | 00:00:00 | 00:00:00 | 00:00:00 | |
| OE5WHR-10 | 2026-08-31 11:59:59 | 48.60378 | 12.75918 | 89° | 15km/h | 22336m | 4.2m/s | -52.4°C | 4.0% | 40.4hPa | 2.6V | 00:00:00 | 01:30:37 | 00:00:00 | |
| OE5MMP-10 | 2026-08-31 11:59:54 | 48.60379 | 12.75882 | 93° | 15km/h | 22311m | 5.9m/s | -52.3°C | 3.9% | 40.5hPa | 2.6V | 00:00:00 | 01:30:32 | 00:00:00 | |
| DG1MFX-10 | 2026-08-31 11:59:53 | 48.60379 | 12.75882 | 94° | 18km/h | 22311m | 5.9m/s | -52.3°C | 1.2% | 40.6hPa | 2.6V | 00:00:00 | 00:00:00 | 00:00:00 | |
| OE5FHM-15 | 2026-08-31 11:59:51 | 48.60380 | 12.75864 | 100° | 15km/h | 22295m | 6.0m/s | -52.2°C | 3.9% | 40.6hPa | 2.6V | 00:00:00 | 01:30:29 | 00:00:00 | |
| OE5REO-15 | 2026-08-31 11:59:50 | 48.60380 | 12.75864 | 101° | 15km/h | 22295m | 6.0m/s | -52.3°C | 1.1% | 40.7hPa | 2.7V | 00:00:00 | 00:00:00 | 00:00:00 | |
| OE5MMP-10 | 2026-08-31 11:59:44 | 48.60388 | 12.75831 | 112° | 16km/h | 22260m | 4.7m/s | -52.4°C | 3.9% | 40.9hPa | 2.7V | 00:00:00 | 01:30:22 | 00:00:00 | |
| OE5HKT-10 | 2026-08-31 11:59:40 | 48.60387 | 12.75811 | 69° | 15km/h | 22239m | 5.6m/s | -52.4°C | 3.9% | 41.0hPa | 2.6V | 00:00:00 | 00:00:00 | 00:00:00 | |
| OE5WHR-10 | 2026-08-31 11:59:38 | 48.60384 | 12.75799 | 66° | 15km/h | 22228m | 4.5m/s | -52.5°C | 4.0% | 41.1hPa | 2.7V | 00:00:00 | 00:00:00 | 00:00:00 | |
| DK5PH-5 | 2026-08-31 11:59:36 | 48.60379 | 12.75787 | 52° | 13km/h | 22218m | 4.8m/s | -52.4°C | 4.0% | 41.1hPa | 2.7V | 00:00:00 | 01:30:14 | 00:00:00 | |
| OE5DRO-10 | 2026-08-31 11:59:35 | 48.60377 | 12.75782 | 55° | 15km/h | 22213m | 4.8m/s | -52.4°C | 4.0% | 41.2hPa | 2.7V | 00:00:00 | 00:00:00 | 00:00:00 | |
| OE5MMP-10 | 2026-08-31 11:59:34 | 48.60374 | 12.75776 | 63° | 15km/h | 22207m | 5.8m/s | -52.4°C | 4.0% | 41.2hPa | 2.7V | 00:00:00 | 01:30:12 | 00:00:00 | |
| DG1MFX-10 | 2026-08-31 11:59:32 | 48.60373 | 12.75770 | 72° | 16km/h | 22202m | 4.6m/s | -52.5°C | 1.3% | 41.3hPa | 2.7V | 00:00:00 | 00:00:00 | 00:00:00 | |
| DL6DJ-15 | 2026-08-31 11:59:30 | 48.60367 | 12.75751 | 68° | 11km/h | 22182m | 4.9m/s | -52.4°C | 1.1% | 41.4hPa | 2.7V | 00:00:00 | 00:00:00 | 00:00:00 | |
| PETON7-10 | 2026-08-31 11:59:29 | 48.60367 | 12.75751 | 69° | 13km/h | 22182m | 4.8m/s | -52.4°C | 3.9% | 41.4hPa | 2.7V | 00:00:00 | 01:30:07 | 00:00:00 | |
| OE5MMP-10 | 2026-08-31 11:59:24 | 48.60364 | 12.75727 | 61° | 13km/h | 22156m | 5.0m/s | -52.3°C | 3.9% | 41.5hPa | 2.7V | 00:00:00 | 01:30:02 | 00:00:00 | |
| OE5FHM-15 | 2026-08-31 11:59:21 | 48.60360 | 12.75715 | 65° | 9km/h | 22141m | 4.1m/s | -52.2°C | 3.9% | 41.6hPa | 2.7V | 00:00:00 | 01:29:59 | 00:00:00 | |
| OE5HKT-10 | 2026-08-31 11:59:19 | 48.60356 | 12.75706 | 48° | 9km/h | 22130m | 5.0m/s | -52.2°C | 3.9% | 41.7hPa | 2.7V | 00:00:00 | 00:00:00 | 00:00:00 | |
| OE5REO-15 | 2026-08-31 11:59:18 | 48.60356 | 12.75706 | 49° | 15km/h | 22130m | 5.1m/s | -52.3°C | 1.1% | 41.8hPa | 2.7V | 00:00:00 | 00:00:00 | 00:00:00 | |
| OE5WHR-10 | 2026-08-31 11:59:17 | 48.60351 | 12.75698 | 61° | 9km/h | 22120m | 5.9m/s | -52.3°C | 3.9% | 41.8hPa | 2.7V | 00:00:00 | 00:00:00 | 00:00:00 | |
| OE5DRO-10 | 2026-08-31 11:59:16 | 48.60350 | 12.75693 | 75° | 9km/h | 22115m | 5.1m/s | -52.3°C | 3.8% | 41.8hPa | 2.7V | 00:00:00 | 00:00:00 | 08:30:00 | |
| OE5MMP-10 | 2026-08-31 11:59:14 | 48.60349 | 12.75685 | 75° | 7km/h | 22105m | 5.8m/s | -52.4°C | 3.8% | 41.9hPa | 2.6V | 00:00:00 | 01:29:52 | 08:30:00 | |
| PG1ADW-2 | 2026-08-31 11:59:13 | 48.60348 | 12.75683 | 71° | 7km/h | 22100m | 4.8m/s | -52.4°C | 3.8% | 41.9hPa | 2.6V | 00:00:00 | 01:29:51 | 08:30:00 | |
| DG1MFX-10 | 2026-08-31 11:59:12 | 48.60348 | 12.75683 | 72° | 5km/h | 22100m | 4.9m/s | -52.5°C | 1.2% | 42.0hPa | 2.7V | 00:00:00 | 00:00:00 | 00:00:00 | |
| DK5PH-5 | 2026-08-31 11:59:06 | 48.60346 | 12.75666 | 46° | 7km/h | 22064m | 4.6m/s | -52.4°C | 4.0% | 42.1hPa | 2.7V | 00:00:00 | 01:29:44 | 00:00:00 | |
| OE5MMP-10 | 2026-08-31 11:59:04 | 48.60342 | 12.75659 | 50° | 9km/h | 22054m | 4.6m/s | -52.4°C | 4.0% | 42.2hPa | 2.7V | 00:00:00 | 01:29:42 | 00:00:00 | |
| OE5REO-15 | 2026-08-31 11:59:03 | 48.60342 | 12.75659 | 50° | 13km/h | 22054m | 4.7m/s | -52.5°C | 1.2% | 42.3hPa | 2.7V | 00:00:00 | 00:00:00 | 00:00:00 | |
| DL6DJ-15 | 2026-08-31 11:58:59 | 48.60328 | 12.75657 | 301° | 4km/h | 22024m | 4.7m/s | -52.7°C | 1.2% | 42.5hPa | 2.7V | 00:00:00 | 00:00:00 | 00:00:00 | |
| OE5HKT-10 | 2026-08-31 11:58:58 | 48.60328 | 12.75657 | 302° | 5km/h | 22024m | 4.6m/s | -52.6°C | 4.0% | 42.4hPa | 2.7V | 00:00:00 | 01:29:36 | 00:00:00 | |
| OE5DRO-10 | 2026-08-31 11:58:57 | 48.60328 | 12.75658 | 284° | 5km/h | 22019m | 4.5m/s | -52.6°C | 3.9% | 42.5hPa | 2.7V | 00:00:00 | 00:00:00 | 00:00:00 | |
| OE5WHR-10 | 2026-08-31 11:58:56 | 48.60327 | 12.75660 | 301° | 7km/h | 22014m | 5.1m/s | -52.6°C | 3.9% | 42.5hPa | 2.7V | 00:00:00 | 01:29:34 | 00:00:00 | |
| BAUMI2-15 | 2026-08-31 11:58:55 | 48.60327 | 12.75661 | 317° | 4km/h | 22009m | 4.8m/s | -52.7°C | 3.9% | 42.5hPa | 2.7V | 00:00:00 | 01:29:33 | 00:00:00 | |
| OE5MMP-10 | 2026-08-31 11:58:54 | 48.60325 | 12.75663 | 320° | 5km/h | 22005m | 4.0m/s | -52.6°C | 3.9% | 42.5hPa | 2.7V | 00:00:00 | 01:29:32 | 00:00:00 | |
| PG1ADW-2 | 2026-08-31 11:58:53 | 48.60324 | 12.75664 | 320° | 7km/h | 22000m | 5.6m/s | -52.6°C | 3.9% | 42.6hPa | 2.7V | 00:00:00 | 00:00:00 | 00:00:00 | |
| OE5FHM-15 | 2026-08-31 11:58:51 | 48.60323 | 12.75665 | 31° | 7km/h | 21989m | 4.8m/s | -52.6°C | 4.0% | 42.6hPa | 2.7V | 00:00:00 | 01:29:29 | 00:00:00 | |
| BAUMI2-15 | 2026-08-31 11:58:50 | 48.60322 | 12.75664 | 33° | 7km/h | 21984m | 5.8m/s | -52.5°C | 4.0% | 42.7hPa | 2.7V | 00:00:00 | 01:29:28 | 08:30:00 | |
| OE5REO-15 | 2026-08-31 11:58:47 | 48.60319 | 12.75661 | 42° | 7km/h | 21974m | 4.0m/s | -52.6°C | 1.2% | 42.8hPa | 2.7V | 00:00:00 | 00:00:00 | 00:00:00 | |
| BAUMI2-15 | 2026-08-31 11:58:45 | 48.60318 | 12.75653 | 96° | 5km/h | 21959m | 4.5m/s | -52.5°C | 4.0% | 42.8hPa | 2.7V | 00:00:00 | 01:29:23 | 00:00:00 | |
| OE5MMP-10 | 2026-08-31 11:58:44 | 48.60318 | 12.75651 | 87° | 7km/h | 21954m | 5.9m/s | -52.6°C | 4.0% | 42.9hPa | 2.7V | 00:00:00 | 01:29:22 | 00:00:00 | |
| BAUMI2-15 | 2026-08-31 11:58:40 | 48.60317 | 12.75642 | 90° | 9km/h | 21932m | 4.7m/s | -52.6°C | 4.0% | 43.0hPa | 2.7V | 00:00:00 | 01:29:18 | 00:00:00 | |
| OE5DRO-10 | 2026-08-31 11:58:38 | 48.60316 | 12.75636 | 50° | 7km/h | 21922m | 5.5m/s | -52.6°C | 3.9% | 43.1hPa | 2.7V | 00:00:00 | 00:00:00 | 00:00:00 | |
| OE5HKT-10 | 2026-08-31 11:58:37 | 48.60314 | 12.75634 | 46° | 5km/h | 21917m | 4.3m/s | -52.5°C | 3.9% | 43.1hPa | 2.7V | 00:00:00 | 00:00:00 | 00:00:00 | |
| DK5PH-5 | 2026-08-31 11:58:36 | 48.60312 | 12.75630 | 50° | 7km/h | 21912m | 5.3m/s | -52.5°C | 3.9% | 43.2hPa | 2.6V | 00:00:00 | 01:29:14 | 08:30:00 | |
| OE5WHR-10 | 2026-08-31 11:58:35 | 48.60310 | 12.75627 | 64° | 5km/h | 21907m | 5.5m/s | -52.4°C | 3.9% | 43.2hPa | 2.6V | 00:00:00 | 00:00:00 | 00:00:00 | |
| OE5MMP-10 | 2026-08-31 11:58:34 | 48.60310 | 12.75624 | 78° | 5km/h | 21902m | 4.3m/s | -52.4°C | 4.0% | 43.2hPa | 2.6V | 00:00:00 | 01:29:12 | 00:00:00 | |
| PG1ADW-2 | 2026-08-31 11:58:33 | 48.60309 | 12.75621 | 85° | 5km/h | 21897m | 4.7m/s | -52.4°C | 4.0% | 43.3hPa | 2.6V | 00:00:00 | 00:00:00 | 00:00:00 | |
| DG1MFX-10 | 2026-08-31 11:58:31 | 48.60308 | 12.75618 | 26° | 4km/h | 21887m | 4.8m/s | -52.5°C | 1.3% | 43.4hPa | 2.6V | 00:00:00 | 00:00:00 | 00:00:00 | |
| BAUMI2-15 | 2026-08-31 11:58:30 | 48.60308 | 12.75618 | 6° | 4km/h | 21882m | 4.3m/s | -52.4°C | 4.0% | 43.4hPa | 2.6V | 00:00:00 | 01:29:08 | 00:00:00 | |
| PETON7-10 | 2026-08-31 11:58:29 | 48.60307 | 12.75618 | 43° | 5km/h | 21877m | 5.9m/s | -52.4°C | 4.0% | 43.4hPa | 2.6V | 00:00:00 | 00:00:00 | 00:00:00 | |
| DL6DJ-15 | 2026-08-31 11:58:28 | 48.60307 | 12.75616 | 59° | 4km/h | 21867m | 4.5m/s | -52.3°C | 1.2% | 43.5hPa | 2.7V | 00:00:00 | 00:00:00 | 00:00:00 | |
| BAUMI2-15 | 2026-08-31 11:58:25 | 48.60304 | 12.75613 | 23° | 7km/h | 21857m | 4.4m/s | -52.2°C | 4.0% | 43.6hPa | 2.7V | 00:00:00 | 01:29:03 | 00:00:00 | |
| OE5MMP-10 | 2026-08-31 11:58:24 | 48.60302 | 12.75612 | 24° | 7km/h | 21852m | 4.1m/s | -52.2°C | 4.0% | 43.6hPa | 2.7V | 00:00:00 | 01:29:02 | 00:00:00 | |
| OE5FHM-15 | 2026-08-31 11:58:21 | 48.60298 | 12.75605 | 75° | 9km/h | 21836m | 4.4m/s | -52.2°C | 4.0% | 43.7hPa | 2.7V | 00:00:00 | 01:28:59 | 08:30:00 | |
| BAUMI2-15 | 2026-08-31 11:58:20 | 48.60298 | 12.75603 | 71° | 5km/h | 21832m | 4.3m/s | -52.1°C | 3.9% | 43.7hPa | 2.6V | 00:00:00 | 01:28:58 | 00:00:00 | |
| OE5DRO-10 | 2026-08-31 11:58:19 | 48.60297 | 12.75601 | 49° | 7km/h | 21827m | 5.5m/s | -52.1°C | 3.9% | 43.7hPa | 2.6V | 00:00:00 | 00:00:00 | 00:00:00 | |
| OE5HKT-10 | 2026-08-31 11:58:16 | 48.60293 | 12.75598 | 31° | 7km/h | 21813m | 4.5m/s | -52.2°C | 3.8% | 43.8hPa | 2.6V | 00:00:00 | 00:00:00 | 00:00:00 | |
| BAUMI2-15 | 2026-08-31 11:58:15 | 48.60292 | 12.75597 | 64° | 5km/h | 21807m | 6.1m/s | -52.1°C | 3.9% | 43.9hPa | 2.6V | 00:00:00 | 01:28:53 | 00:00:00 | |
| OE5WHR-10 | 2026-08-31 11:58:14 | 48.60292 | 12.75595 | 102° | 9km/h | 21802m | 5.0m/s | -52.0°C | 3.9% | 43.9hPa | 2.6V | 00:00:00 | 00:00:00 | 00:00:00 | |
| PG1ADW-2 | 2026-08-31 11:58:13 | 48.60292 | 12.75593 | 111° | 9km/h | 21797m | 5.2m/s | -52.0°C | 3.8% | 43.9hPa | 2.6V | 00:00:00 | 00:00:00 | 00:00:00 | |
| BAUMI2-15 | 2026-08-31 11:58:10 | 48.60294 | 12.75586 | 111° | 9km/h | 21781m | 5.8m/s | -52.0°C | 3.8% | 44.1hPa | 2.7V | 00:00:00 | 01:28:48 | 00:00:00 | |
| DK5PH-5 | 2026-08-31 11:58:06 | 48.60295 | 12.75573 | 68° | 9km/h | 21759m | 4.6m/s | -52.0°C | 3.9% | 44.2hPa | 2.7V | 00:00:00 | 01:28:44 | 00:00:00 | |
| BAUMI2-15 | 2026-08-31 11:58:05 | 48.60294 | 12.75570 | 64° | 9km/h | 21755m | 4.8m/s | -51.9°C | 3.8% | 44.2hPa | 2.7V | 00:00:00 | 01:28:43 | 08:30:00 | |
| OE5MMP-10 | 2026-08-31 11:58:04 | 48.60293 | 12.75567 | 75° | 9km/h | 21749m | 6.0m/s | -51.9°C | 3.8% | 44.3hPa | 2.6V | 00:00:00 | 01:28:42 | 00:00:00 | |
| DL6DJ-15 | 2026-08-31 11:57:57 | 48.60295 | 12.75540 | 125° | 13km/h | 21708m | 4.1m/s | -52.1°C | 1.2% | 44.6hPa | 2.6V | 00:00:00 | 00:00:00 | 00:00:00 | |
| BAUMI2-15 | 2026-08-31 11:57:55 | 48.60297 | 12.75536 | 122° | 11km/h | 21703m | 5.7m/s | -52.0°C | 3.9% | 44.6hPa | 2.6V | 00:00:00 | 01:28:33 | 00:00:00 | |
| OE5MMP-10 | 2026-08-31 11:57:54 | 48.60298 | 12.75532 | 112° | 9km/h | 21698m | 4.2m/s | -52.0°C | 3.9% | 44.6hPa | 2.6V | 00:00:00 | 01:28:32 | 00:00:00 | |
| OE5WHR-10 | 2026-08-31 11:57:53 | 48.60298 | 12.75529 | 104° | 13km/h | 21694m | 4.7m/s | -52.0°C | 3.9% | 44.7hPa | 2.6V | 00:00:00 | 01:28:31 | 00:00:00 | |
| OE5FHM-15 | 2026-08-31 11:57:51 | 48.60299 | 12.75520 | 95° | 13km/h | 21683m | 4.9m/s | -52.1°C | 3.9% | 44.7hPa | 2.6V | 00:00:00 | 01:28:29 | 00:00:00 | |
| BAUMI2-15 | 2026-08-31 11:57:50 | 48.60299 | 12.75516 | 87° | 9km/h | 21678m | 5.2m/s | -52.1°C | 3.9% | 44.8hPa | 2.6V | 00:00:00 | 01:28:28 | 00:00:00 | |
| DG1MFX-10 | 2026-08-31 11:57:49 | 48.60299 | 12.75516 | 88° | 11km/h | 21678m | 5.3m/s | -52.2°C | 1.2% | 44.8hPa | 2.7V | 00:00:00 | 00:00:00 | 00:00:00 | |
| BAUMI2-15 | 2026-08-31 11:57:45 | 48.60299 | 12.75499 | 113° | 7km/h | 21652m | 5.0m/s | -51.9°C | 3.8% | 45.0hPa | 2.7V | 00:00:00 | 01:28:23 | 00:00:00 | |
| PETON7-10 | 2026-08-31 11:57:44 | 48.60300 | 12.75495 | 130° | 13km/h | 21648m | 4.7m/s | -51.9°C | 3.8% | 45.0hPa | 2.7V | 00:00:00 | 00:00:00 | 08:30:00 | |
| OE5DRO-10 | 2026-08-31 11:57:41 | 48.60303 | 12.75490 | 114° | 15km/h | 21633m | 5.2m/s | -51.8°C | 3.9% | 45.1hPa | 2.6V | 00:00:00 | 00:00:00 | 00:00:00 | |
| BAUMI2-15 | 2026-08-31 11:57:40 | 48.60304 | 12.75487 | 93° | 15km/h | 21627m | 5.4m/s | -51.8°C | 3.9% | 45.1hPa | 2.6V | 00:00:00 | 01:28:18 | 00:00:00 | |
| DK5PH-5 | 2026-08-31 11:57:36 | 48.60297 | 12.75469 | 55° | 15km/h | 21607m | 5.0m/s | -51.8°C | 3.9% | 45.3hPa | 2.6V | 00:00:00 | 01:28:14 | 00:00:00 | |
| BAUMI2-15 | 2026-08-31 11:57:35 | 48.60295 | 12.75462 | 60° | 18km/h | 21601m | 6.0m/s | -51.8°C | 3.9% | 45.3hPa | 2.6V | 00:00:00 | 01:28:13 | 00:00:00 | |
| PG1ADW-2 | 2026-08-31 11:57:33 | 48.60290 | 12.75447 | 65° | 15km/h | 21591m | 5.0m/s | -51.8°C | 3.9% | 45.4hPa | 2.7V | 00:00:00 | 00:00:00 | 00:00:00 | |
| OE5WHR-10 | 2026-08-31 11:57:32 | 48.60288 | 12.75441 | 64° | 15km/h | 21586m | 5.4m/s | -51.8°C | 3.9% | 45.4hPa | 2.7V | 00:00:00 | 00:00:00 | 08:30:00 | |
| OE5REO-15 | 2026-08-31 11:57:31 | 48.60285 | 12.75432 | 68° | 13km/h | 21576m | 5.2m/s | -51.8°C | 1.2% | 45.6hPa | 2.7V | 00:00:00 | 00:00:00 | 00:00:00 | |
| PETON7-10 | 2026-08-31 11:57:29 | 48.60284 | 12.75427 | 70° | 15km/h | 21571m | 5.3m/s | -51.7°C | 3.9% | 45.5hPa | 2.7V | 00:00:00 | 00:00:00 | 00:00:00 | |
| BAUMI2-15 | 2026-08-31 11:57:25 | 48.60277 | 12.75414 | 35° | 15km/h | 21550m | 4.3m/s | -51.7°C | 3.8% | 45.7hPa | 2.7V | 00:00:00 | 01:28:03 | 00:00:00 | |
| OE5MMP-10 | 2026-08-31 11:57:24 | 48.60274 | 12.75411 | 40° | 16km/h | 21545m | 5.7m/s | -51.7°C | 3.8% | 45.7hPa | 2.7V | 00:00:00 | 01:28:02 | 00:00:00 | |
| OE5DRO-10 | 2026-08-31 11:57:22 | 48.60269 | 12.75402 | 55° | 15km/h | 21534m | 4.7m/s | -51.6°C | 3.7% | 45.8hPa | 2.7V | 00:00:00 | 00:00:00 | 00:00:00 | |
| OE5FHM-15 | 2026-08-31 11:57:21 | 48.60266 | 12.75396 | 55° | 15km/h | 21530m | 5.3m/s | -51.6°C | 3.8% | 45.8hPa | 2.7V | 00:00:00 | 01:27:59 | 00:00:00 | |
| BAUMI2-15 | 2026-08-31 11:57:20 | 48.60264 | 12.75391 | 53° | 16km/h | 21524m | 5.7m/s | -51.7°C | 3.8% | 45.9hPa | 2.7V | 00:00:00 | 01:27:58 | 08:30:00 | |
| BAUMI2-15 | 2026-08-31 11:57:15 | 48.60253 | 12.75366 | 62° | 13km/h | 21498m | 5.8m/s | -51.5°C | 3.8% | 46.1hPa | 2.6V | 00:00:00 | 01:27:53 | 00:00:00 | |
| PETON7-10 | 2026-08-31 11:57:14 | 48.60252 | 12.75362 | 62° | 15km/h | 21493m | 4.2m/s | -51.4°C | 3.8% | 46.1hPa | 2.6V | 00:00:00 | 01:27:52 | 00:00:00 | |
| PG1ADW-2 | 2026-08-31 11:57:13 | 48.60251 | 12.75358 | 63° | 15km/h | 21488m | 5.8m/s | -51.5°C | 3.8% | 46.1hPa | 2.6V | 00:00:00 | 00:00:00 | 00:00:00 | |
| OE5HKT-10 | 2026-08-31 11:57:12 | 48.60249 | 12.75354 | 64° | 15km/h | 21483m | 4.7m/s | -51.4°C | 3.8% | 46.2hPa | 2.6V | 00:00:00 | 00:00:00 | 00:00:00 | |
| OE5WHR-10 | 2026-08-31 11:57:11 | 48.60248 | 12.75349 | 59° | 15km/h | 21478m | 3.7m/s | -51.4°C | 3.8% | 46.2hPa | 2.6V | 00:00:00 | 00:00:00 | 00:00:00 | |
| BAUMI2-15 | 2026-08-31 11:57:10 | 48.60246 | 12.75345 | 53° | 13km/h | 21474m | 5.4m/s | -51.5°C | 3.8% | 46.2hPa | 2.6V | 00:00:00 | 01:27:48 | 00:00:00 | |
| DG1MFX-10 | 2026-08-31 11:57:08 | 48.60244 | 12.75342 | 45° | 13km/h | 21469m | 4.9m/s | -51.5°C | 1.2% | 46.3hPa | 2.6V | 00:00:00 | 00:00:00 | 00:00:00 | |
| DK5PH-5 | 2026-08-31 11:57:06 | 48.60237 | 12.75330 | 57° | 18km/h | 21454m | 4.7m/s | -51.4°C | 3.7% | 46.4hPa | 2.6V | 00:00:00 | 01:27:44 | 00:00:00 | |
| OE5MMP-10 | 2026-08-31 11:57:04 | 48.60232 | 12.75319 | 60° | 15km/h | 21444m | 5.8m/s | -51.5°C | 3.7% | 46.4hPa | 2.6V | 00:00:00 | 01:27:42 | 00:00:00 | |
| OE5DRO-10 | 2026-08-31 11:57:03 | 48.60230 | 12.75314 | 55° | 16km/h | 21439m | 4.9m/s | -51.5°C | 3.7% | 46.5hPa | 2.6V | 00:00:00 | 00:00:00 | 00:00:00 | |
| OE5REO-15 | 2026-08-31 11:56:59 | 48.60221 | 12.75297 | 45° | 16km/h | 21418m | 3.8m/s | -51.6°C | 1.2% | 46.7hPa | 2.6V | 00:00:00 | 00:00:00 | 00:00:00 | |
| OE5MMP-10 | 2026-08-31 11:56:54 | 48.60206 | 12.75278 | 51° | 18km/h | 21394m | 4.9m/s | -51.7°C | 3.8% | 46.8hPa | 2.6V | 00:00:00 | 01:27:32 | 00:00:00 | |
| PG1ADW-2 | 2026-08-31 11:56:53 | 48.60203 | 12.75272 | 54° | 20km/h | 21390m | 3.6m/s | -51.7°C | 3.8% | 46.8hPa | 2.6V | 00:00:00 | 00:00:00 | 00:00:00 | |
| OE5HKT-10 | 2026-08-31 11:56:51 | 48.60198 | 12.75262 | 52° | 18km/h | 21380m | 4.5m/s | -51.8°C | 3.8% | 46.9hPa | 2.6V | 00:00:00 | 01:27:29 | 00:00:00 | |
| OE5WHR-10 | 2026-08-31 11:56:50 | 48.60195 | 12.75257 | 54° | 22km/h | 21375m | 5.1m/s | -51.8°C | 3.8% | 47.0hPa | 2.6V | 00:00:00 | 01:27:28 | 00:00:00 | |
| DG1MFX-10 | 2026-08-31 11:56:47 | 48.60190 | 12.75245 | 57° | 20km/h | 21364m | 5.2m/s | -51.8°C | 1.2% | 47.1hPa | 2.6V | 00:00:00 | 00:00:00 | 00:00:00 | |
| OE5MMP-10 | 2026-08-31 11:56:44 | 48.60178 | 12.75223 | 54° | 22km/h | 21345m | 5.3m/s | -51.9°C | 3.8% | 47.2hPa | 2.6V | 00:00:00 | 01:27:22 | 00:00:00 | |
| OE5REO-15 | 2026-08-31 11:56:43 | 48.60178 | 12.75223 | 55° | 18km/h | 21345m | 5.3m/s | -52.0°C | 1.1% | 47.2hPa | 2.6V | 00:00:00 | 00:00:00 | 00:00:00 | |
| DK5PH-5 | 2026-08-31 11:56:36 | 48.60158 | 12.75169 | 57° | 20km/h | 21306m | 5.1m/s | -51.9°C | 3.9% | 47.5hPa | 2.6V | 00:00:00 | 01:27:14 | 00:00:00 | |
| OE5MMP-10 | 2026-08-31 11:56:34 | 48.60149 | 12.75151 | 52° | 22km/h | 21296m | 5.7m/s | -51.9°C | 3.9% | 47.5hPa | 2.6V | 00:00:00 | 01:27:12 | 00:00:00 | |
| PG1ADW-2 | 2026-08-31 11:56:33 | 48.60145 | 12.75143 | 47° | 18km/h | 21291m | 5.1m/s | -51.9°C | 3.8% | 47.5hPa | 2.6V | 00:00:00 | 01:27:11 | 00:00:00 | |
| OE5HKT-10 | 2026-08-31 11:56:30 | 48.60130 | 12.75120 | 48° | 18km/h | 21276m | 5.0m/s | -51.9°C | 3.8% | 47.7hPa | 2.6V | 00:00:00 | 00:00:00 | 00:00:00 | |
| OE5WHR-10 | 2026-08-31 11:56:29 | 48.60126 | 12.75113 | 47° | 16km/h | 21271m | 4.1m/s | -51.9°C | 3.7% | 47.7hPa | 2.6V | 00:00:00 | 00:00:00 | 00:00:00 | |
| OE5REO-15 | 2026-08-31 11:56:28 | 48.60122 | 12.75107 | 45° | 20km/h | 21267m | 5.6m/s | -52.1°C | 1.1% | 47.8hPa | 2.7V | 00:00:00 | 00:00:00 | 00:00:00 | |
| DG1MFX-10 | 2026-08-31 11:56:27 | 48.60122 | 12.75107 | 45° | 20km/h | 21267m | 5.6m/s | -52.1°C | 1.2% | 47.8hPa | 2.7V | 00:00:00 | 00:00:00 | 00:00:00 | |
| DL6DJ-15 | 2026-08-31 11:56:24 | 48.60111 | 12.75092 | 52° | 15km/h | 21242m | 4.3m/s | -52.0°C | 1.1% | 48.0hPa | 2.7V | 00:00:00 | 00:00:00 | 00:00:00 | |
| OE5FHM-15 | 2026-08-31 11:56:21 | 48.60105 | 12.75082 | 40° | 16km/h | 21233m | 5.1m/s | -52.1°C | 3.8% | 48.0hPa | 2.7V | 00:00:00 | 01:26:59 | 00:00:00 | |
| OE5MMP-10 | 2026-08-31 11:56:14 | 48.60075 | 12.75062 | 18° | 18km/h | 21198m | 5.6m/s | -52.2°C | 3.9% | 48.2hPa | 2.7V | 00:00:00 | 01:26:52 | 08:30:00 | |
| PG1ADW-2 | 2026-08-31 11:56:13 | 48.60071 | 12.75060 | 11° | 16km/h | 21193m | 4.6m/s | -52.2°C | 3.9% | 48.3hPa | 2.7V | 00:00:00 | 00:00:00 | 08:30:00 | |
| OE5REO-15 | 2026-08-31 11:56:11 | 48.60068 | 12.75060 | 11° | 15km/h | 21188m | 4.8m/s | -52.3°C | 1.2% | 48.4hPa | 2.6V | 00:00:00 | 00:00:00 | 00:00:00 | |
| OE5WHR-10 | 2026-08-31 11:56:08 | 48.60051 | 12.75056 | 357° | 16km/h | 21169m | 5.6m/s | -52.5°C | 3.8% | 48.5hPa | 2.6V | 00:00:00 | 00:00:00 | 00:00:00 | |
| OE5HKT-10 | 2026-08-31 11:56:07 | 48.60045 | 12.75056 | 353° | 20km/h | 21163m | 4.4m/s | -52.5°C | 3.8% | 48.6hPa | 2.6V | 00:00:00 | 00:00:00 | 00:00:00 | |
| DG1MFX-10 | 2026-08-31 11:56:06 | 48.60040 | 12.75058 | 354° | 22km/h | 21159m | 5.6m/s | -52.6°C | 1.2% | 48.6hPa | 2.6V | 00:00:00 | 00:00:00 | 00:00:00 | |
| OE5MMP-10 | 2026-08-31 11:56:04 | 48.60030 | 12.75060 | 349° | 16km/h | 21149m | 4.5m/s | -52.5°C | 3.9% | 48.6hPa | 2.6V | 00:00:00 | 01:26:42 | 00:00:00 | |
| DL6DJ-15 | 2026-08-31 11:55:52 | 48.59984 | 12.75068 | 2° | 16km/h | 21086m | 6.2m/s | -52.7°C | 1.2% | 49.1hPa | 2.6V | 00:00:00 | 00:00:00 | 00:00:00 | |
| OE5FHM-15 | 2026-08-31 11:55:51 | 48.59979 | 12.75069 | 353° | 15km/h | 21081m | 5.2m/s | -52.7°C | 3.9% | 49.1hPa | 2.6V | 00:00:00 | 01:26:29 | 00:00:00 | |
| OE5WHR-10 | 2026-08-31 11:55:47 | 48.59963 | 12.75078 | 323° | 15km/h | 21061m | 4.0m/s | -52.8°C | 4.0% | 49.3hPa | 2.6V | 00:00:00 | 01:26:25 | 00:00:00 | |
| OE5HKT-10 | 2026-08-31 11:55:46 | 48.59960 | 12.75082 | 318° | 15km/h | 21056m | 5.5m/s | -52.7°C | 4.0% | 49.3hPa | 2.6V | 00:00:00 | 01:26:24 | 00:00:00 | |
| OE5MMP-10 | 2026-08-31 11:55:44 | 48.59954 | 12.75089 | 329° | 15km/h | 21046m | 3.7m/s | -52.6°C | 4.0% | 49.4hPa | 2.6V | 00:00:00 | 01:26:22 | 00:00:00 | |
| DO3MHA-11 | 2026-08-31 11:55:43 | 48.59951 | 12.75091 | 340° | 15km/h | 21042m | 4.9m/s | -52.6°C | 4.0% | 49.5hPa | 2.6V | 00:00:00 | 01:26:21 | 08:30:00 | |
| OE5REO-15 | 2026-08-31 11:55:40 | 48.59946 | 12.75091 | 19° | 11km/h | 21032m | 4.1m/s | -52.5°C | 1.2% | 49.6hPa | 2.7V | 00:00:00 | 00:00:00 | 00:00:00 | |
| DK5PH-5 | 2026-08-31 11:55:36 | 48.59927 | 12.75083 | 8° | 16km/h | 21006m | 5.2m/s | -52.5°C | 3.9% | 49.7hPa | 2.7V | 00:00:00 | 01:26:14 | 00:00:00 | |
| OE5MMP-10 | 2026-08-31 11:55:34 | 48.59920 | 12.75084 | 341° | 15km/h | 20996m | 6.1m/s | -52.5°C | 3.9% | 49.8hPa | 2.7V | 00:00:00 | 01:26:12 | 00:00:00 | |
| DO3MHA-11 | 2026-08-31 11:55:33 | 48.59917 | 12.75086 | 334° | 15km/h | 20990m | 4.5m/s | -52.5°C | 3.9% | 49.9hPa | 2.7V | 00:00:00 | 01:26:11 | 00:00:00 | |
| PETON7-10 | 2026-08-31 11:55:29 | 48.59905 | 12.75093 | 360° | 15km/h | 20971m | 5.4m/s | -52.8°C | 4.0% | 50.0hPa | 2.7V | 00:00:00 | 00:00:00 | 08:30:00 | |
| DG1MFX-10 | 2026-08-31 11:55:25 | 48.59890 | 12.75084 | 37° | 16km/h | 20951m | 4.8m/s | -52.9°C | 1.3% | 50.2hPa | 2.6V | 00:00:00 | 00:00:00 | 00:00:00 | |
| OE5MMP-10 | 2026-08-31 11:55:24 | 48.59886 | 12.75081 | 34° | 15km/h | 20946m | 4.9m/s | -52.9°C | 4.1% | 50.2hPa | 2.6V | 00:00:00 | 01:26:02 | 00:00:00 | |
| DO3MHA-11 | 2026-08-31 11:55:23 | 48.59883 | 12.75078 | 24° | 15km/h | 20940m | 5.6m/s | -52.8°C | 4.2% | 50.3hPa | 2.6V | 00:00:00 | 01:26:01 | 00:00:00 | |
| OE5FHM-15 | 2026-08-31 11:55:21 | 48.59875 | 12.75075 | 8° | 15km/h | 20931m | 5.0m/s | -52.7°C | 4.1% | 50.3hPa | 2.6V | 00:00:00 | 01:25:59 | 00:00:00 | |
| PETON7-10 | 2026-08-31 11:55:14 | 48.59853 | 12.75064 | 46° | 16km/h | 20895m | 5.2m/s | -52.7°C | 3.9% | 50.6hPa | 2.6V | 00:00:00 | 00:00:00 | 00:00:00 | |
| DO3MHA-11 | 2026-08-31 11:55:13 | 48.59849 | 12.75058 | 45° | 18km/h | 20890m | 4.9m/s | -52.7°C | 3.9% | 50.6hPa | 2.6V | 00:00:00 | 01:25:51 | 00:00:00 | |
| OE5REO-15 | 2026-08-31 11:55:09 | 48.59838 | 12.75043 | 43° | 20km/h | 20874m | 6.0m/s | -52.9°C | 1.3% | 50.8hPa | 2.7V | 00:00:00 | 00:00:00 | 00:00:00 | |
| DK5PH-5 | 2026-08-31 11:55:06 | 48.59823 | 12.75029 | 15° | 15km/h | 20853m | 4.9m/s | -52.7°C | 4.0% | 51.0hPa | 2.7V | 00:00:00 | 01:25:44 | 00:00:00 | |
| OE5WHR-10 | 2026-08-31 11:55:05 | 48.59818 | 12.75027 | 11° | 15km/h | 20848m | 4.8m/s | -52.7°C | 4.0% | 51.0hPa | 2.7V | 00:00:00 | 00:00:00 | 00:00:00 | |
| OE5MMP-10 | 2026-08-31 11:55:04 | 48.59814 | 12.75026 | 15° | 13km/h | 20843m | 5.7m/s | -52.6°C | 4.0% | 51.0hPa | 2.7V | 00:00:00 | 01:25:42 | 00:00:00 | |
| DO3MHA-11 | 2026-08-31 11:55:03 | 48.59810 | 12.75024 | 18° | 13km/h | 20838m | 4.7m/s | -52.6°C | 3.9% | 51.0hPa | 2.7V | 00:00:00 | 01:25:41 | 00:00:00 | |
| DL6DJ-15 | 2026-08-31 11:54:50 | 48.59774 | 12.74986 | 9° | 18km/h | 20772m | 5.6m/s | -52.8°C | 1.2% | 51.6hPa | 2.7V | 00:00:00 | 00:00:00 | 00:00:00 | |
| BAUMI2-15 | 2026-08-31 11:54:49 | 48.59768 | 12.74985 | 3° | 16km/h | 20768m | 4.3m/s | -52.8°C | 3.9% | 51.6hPa | 2.7V | 00:00:00 | 01:25:27 | 00:00:00 | |
| OE5WHR-10 | 2026-08-31 11:54:44 | 48.59750 | 12.74973 | 42° | 15km/h | 20743m | 5.7m/s | -52.8°C | 4.0% | 51.8hPa | 2.7V | 00:00:00 | 01:25:22 | 00:00:00 | |
| DO3MHA-11 | 2026-08-31 11:54:43 | 48.59748 | 12.74971 | 46° | 20km/h | 20737m | 4.4m/s | -52.8°C | 4.0% | 51.9hPa | 2.7V | 00:00:00 | 01:25:21 | 00:00:00 | |
| BAUMI2-15 | 2026-08-31 11:54:38 | 48.59738 | 12.74959 | 1° | 20km/h | 20713m | 5.6m/s | -52.8°C | 3.9% | 52.1hPa | 2.7V | 00:00:00 | 01:25:16 | 00:00:00 | |
| DK5PH-5 | 2026-08-31 11:54:36 | 48.59729 | 12.74961 | 354° | 16km/h | 20703m | 4.8m/s | -52.9°C | 3.9% | 52.2hPa | 2.7V | 00:00:00 | 01:25:14 | 00:00:00 | |
| OE5MMP-10 | 2026-08-31 11:54:34 | 48.59718 | 12.74960 | 9° | 15km/h | 20693m | 4.6m/s | -52.9°C | 3.8% | 52.2hPa | 2.7V | 00:00:00 | 01:25:12 | 00:00:00 | |
| BAUMI2-15 | 2026-08-31 11:54:33 | 48.59713 | 12.74959 | 16° | 13km/h | 20688m | 4.6m/s | -53.0°C | 3.9% | 52.3hPa | 2.7V | 00:00:00 | 01:25:11 | 08:30:00 | |
| PETON7-10 | 2026-08-31 11:54:29 | 48.59702 | 12.74949 | 60° | 16km/h | 20668m | 4.5m/s | -53.0°C | 4.0% | 52.4hPa | 2.7V | 00:00:00 | 00:00:00 | 00:00:00 | |
| BAUMI2-15 | 2026-08-31 11:54:28 | 48.59701 | 12.74945 | 65° | 16km/h | 20663m | 6.0m/s | -53.0°C | 4.0% | 52.5hPa | 2.7V | 00:00:00 | 01:25:06 | 00:00:00 | |
| OE5HKT-10 | 2026-08-31 11:54:27 | 48.59699 | 12.74939 | 62° | 16km/h | 20658m | 4.4m/s | -53.0°C | 4.0% | 52.5hPa | 2.7V | 00:00:00 | 00:00:00 | 00:00:00 | |
| OE5DXL-15 | 2026-08-31 11:54:26 | 48.59689 | 12.74928 | 14° | 16km/h | 20643m | 5.0m/s | -53.1°C | 4.0% | 52.6hPa | 2.7V | 00:00:00 | 00:00:00 | 00:00:00 | |
| OE5MMP-10 | 2026-08-31 11:54:24 | 48.59689 | 12.74928 | 14° | 18km/h | 20643m | 5.0m/s | -53.1°C | 4.0% | 52.6hPa | 2.7V | 00:00:00 | 01:25:02 | 00:00:00 | |
| DG1MFX-10 | 2026-08-31 11:54:23 | 48.59683 | 12.74926 | 9° | 24km/h | 20637m | 6.1m/s | -53.2°C | 1.3% | 52.7hPa | 2.7V | 00:00:00 | 00:00:00 | 00:00:00 | |
| OE5FHM-15 | 2026-08-31 11:54:21 | 48.59671 | 12.74925 | 3° | 16km/h | 20626m | 4.1m/s | -53.0°C | 4.0% | 52.8hPa | 2.7V | 00:00:00 | 01:24:59 | 00:00:00 | |
| DL6DJ-15 | 2026-08-31 11:54:19 | 48.59659 | 12.74925 | 356° | 18km/h | 20616m | 4.4m/s | -53.2°C | 1.2% | 52.9hPa | 2.7V | 00:00:00 | 00:00:00 | 00:00:00 | |
| DO3MHA-11 | 2026-08-31 11:54:18 | 48.59655 | 12.74925 | 7° | 13km/h | 20612m | 4.6m/s | -53.1°C | 4.0% | 52.9hPa | 2.7V | 00:00:00 | 01:24:56 | 00:00:00 | |
| OE5DRO-10 | 2026-08-31 11:54:15 | 48.59650 | 12.74918 | 90° | 13km/h | 20596m | 5.6m/s | -53.2°C | 4.0% | 53.0hPa | 2.7V | 00:00:00 | 00:00:00 | 08:30:00 | |
| PETON7-10 | 2026-08-31 11:54:14 | 48.59651 | 12.74914 | 98° | 13km/h | 20590m | 4.5m/s | -53.2°C | 4.0% | 53.1hPa | 2.6V | 00:00:00 | 01:24:52 | 00:00:00 | |
| BAUMI2-15 | 2026-08-31 11:54:13 | 48.59650 | 12.74911 | 75° | 15km/h | 20586m | 3.5m/s | -53.3°C | 4.0% | 53.1hPa | 2.6V | 00:00:00 | 01:24:51 | 00:00:00 | |
| DO3MHA-11 | 2026-08-31 11:54:08 | 48.59633 | 12.74897 | 4° | 11km/h | 20562m | 5.8m/s | -53.3°C | 4.0% | 53.3hPa | 2.6V | 00:00:00 | 01:24:46 | 00:00:00 | |
| DK5PH-5 | 2026-08-31 11:54:06 | 48.59622 | 12.74898 | 352° | 11km/h | 20552m | 4.9m/s | -53.3°C | 4.0% | 53.4hPa | 2.6V | 00:00:00 | 01:24:44 | 08:30:00 | |
| OE5MMP-10 | 2026-08-31 11:54:04 | 48.59614 | 12.74899 | 1° | 9km/h | 20542m | 4.2m/s | -53.4°C | 4.1% | 53.5hPa | 2.7V | 00:00:00 | 01:24:42 | 00:00:00 | |
| BAUMI2-15 | 2026-08-31 11:54:03 | 48.59611 | 12.74899 | 6° | 5km/h | 20537m | 5.7m/s | -53.5°C | 4.1% | 53.5hPa | 2.7V | 00:00:00 | 01:24:41 | 00:00:00 | |
| OE5WHR-10 | 2026-08-31 11:54:02 | 48.59610 | 12.74899 | 5° | 11km/h | 20531m | 5.5m/s | -53.5°C | 4.1% | 53.6hPa | 2.7V | 00:00:00 | 00:00:00 | 00:00:00 | |
| DG1MFX-10 | 2026-08-31 11:54:01 | 48.59610 | 12.74899 | 6° | 4km/h | 20531m | 5.6m/s | -53.6°C | 1.3% | 53.6hPa | 2.7V | 00:00:00 | 00:00:00 | 00:00:00 | |
| PETON7-10 | 2026-08-31 11:53:59 | 48.59608 | 12.74896 | 60° | 13km/h | 20517m | 5.5m/s | -53.4°C | 4.1% | 53.7hPa | 2.7V | 00:00:00 | 00:00:00 | 00:00:00 | |
| BAUMI2-15 | 2026-08-31 11:53:58 | 48.59607 | 12.74893 | 42° | 16km/h | 20512m | 4.4m/s | -53.3°C | 4.0% | 53.7hPa | 2.6V | 00:00:00 | 01:24:36 | 00:00:00 | |
| OE5DRO-10 | 2026-08-31 11:53:56 | 48.59600 | 12.74889 | 10° | 11km/h | 20503m | 5.4m/s | -53.3°C | 4.0% | 53.8hPa | 2.6V | 00:00:00 | 00:00:00 | 00:00:00 | |
| OE5MMP-10 | 2026-08-31 11:53:54 | 48.59591 | 12.74889 | 353° | 11km/h | 20493m | 4.5m/s | -53.4°C | 4.0% | 53.9hPa | 2.6V | 00:00:00 | 01:24:32 | 00:00:00 | |
| BAUMI2-15 | 2026-08-31 11:53:53 | 48.59587 | 12.74890 | 355° | 15km/h | 20488m | 5.5m/s | -53.4°C | 4.0% | 53.9hPa | 2.6V | 00:00:00 | 01:24:31 | 00:00:00 | |
| OE5REO-15 | 2026-08-31 11:53:52 | 48.59582 | 12.74890 | 3° | 16km/h | 20483m | 5.2m/s | -53.4°C | 1.2% | 54.0hPa | 2.6V | 00:00:00 | 00:00:00 | 00:00:00 | |
| OE5FHM-15 | 2026-08-31 11:53:51 | 48.59579 | 12.74889 | 11° | 11km/h | 20477m | 4.6m/s | -53.5°C | 4.1% | 54.0hPa | 2.6V | 00:00:00 | 01:24:29 | 08:30:00 | |
| BAUMI2-15 | 2026-08-31 11:53:48 | 48.59571 | 12.74887 | 11° | 7km/h | 20462m | 4.2m/s | -53.5°C | 4.1% | 54.2hPa | 2.7V | 00:00:00 | 01:24:26 | 08:30:00 | |
| OE5MMP-10 | 2026-08-31 11:53:44 | 48.59567 | 12.74880 | 52° | 9km/h | 20442m | 5.6m/s | -53.5°C | 4.1% | 54.3hPa | 2.6V | 00:00:00 | 01:24:22 | 00:00:00 | |
| BAUMI2-15 | 2026-08-31 11:53:43 | 48.59566 | 12.74878 | 36° | 9km/h | 20436m | 5.3m/s | -53.4°C | 4.1% | 54.4hPa | 2.6V | 00:00:00 | 01:24:21 | 00:00:00 | |
| OE5WHR-10 | 2026-08-31 11:53:41 | 48.59562 | 12.74875 | 27° | 13km/h | 20425m | 5.9m/s | -53.5°C | 4.2% | 54.5hPa | 2.6V | 00:00:00 | 01:24:19 | 00:00:00 | |
| DO3MHA-11 | 2026-08-31 11:53:38 | 48.59556 | 12.74869 | 19° | 11km/h | 20410m | 5.4m/s | -53.4°C | 4.1% | 54.6hPa | 2.6V | 00:00:00 | 01:24:16 | 00:00:00 | |
| OE5DRO-10 | 2026-08-31 11:53:37 | 48.59554 | 12.74869 | 9° | 13km/h | 20405m | 4.4m/s | -53.5°C | 4.2% | 54.6hPa | 2.6V | 00:00:00 | 00:00:00 | 00:00:00 | |
| DK5PH-5 | 2026-08-31 11:53:36 | 48.59552 | 12.74868 | 24° | 11km/h | 20401m | 4.4m/s | -53.5°C | 4.2% | 54.7hPa | 2.6V | 00:00:00 | 01:24:14 | 00:00:00 | |
| BAUMI2-15 | 2026-08-31 11:53:34 | 48.59546 | 12.74859 | 52° | 13km/h | 20386m | 4.9m/s | -53.5°C | 4.2% | 54.8hPa | 2.6V | 00:00:00 | 01:24:11 | 00:00:00 | |
| PETON7-10 | 2026-08-31 11:53:29 | 48.59540 | 12.74841 | 80° | 13km/h | 20365m | 6.2m/s | -53.4°C | 4.1% | 55.0hPa | 2.6V | 00:00:00 | 01:24:07 | 00:00:00 | |
| DO3MHA-11 | 2026-08-31 11:53:28 | 48.59540 | 12.74835 | 86° | 13km/h | 20359m | 4.7m/s | -53.3°C | 4.1% | 55.0hPa | 2.6V | 00:00:00 | 01:24:06 | 00:00:00 | |
| OE5DXL-15 | 2026-08-31 11:53:25 | 48.59538 | 12.74815 | 68° | 9km/h | 20339m | 5.5m/s | -53.2°C | 4.1% | 55.2hPa | 2.7V | 00:00:00 | 00:00:00 | 00:00:00 | |
| OE5MMP-10 | 2026-08-31 11:53:24 | 48.59538 | 12.74815 | 68° | 11km/h | 20339m | 5.5m/s | -53.2°C | 4.1% | 55.2hPa | 2.6V | 00:00:00 | 01:24:02 | 00:00:00 | |
| BAUMI2-15 | 2026-08-31 11:53:23 | 48.59537 | 12.74811 | 57° | 11km/h | 20334m | 5.4m/s | -53.2°C | 4.0% | 55.3hPa | 2.6V | 00:00:00 | 01:24:01 | 00:00:00 | |
| OE5FHM-15 | 2026-08-31 11:53:21 | 48.59533 | 12.74803 | 50° | 9km/h | 20323m | 6.0m/s | -53.1°C | 4.0% | 55.4hPa | 2.6V | 00:00:00 | 01:23:59 | 00:00:00 | |
| OE5WHR-10 | 2026-08-31 11:53:20 | 48.59531 | 12.74800 | 50° | 9km/h | 20318m | 4.8m/s | -53.1°C | 4.0% | 55.4hPa | 2.6V | 00:00:00 | 00:00:00 | 00:00:00 | |
| BAUMI2-15 | 2026-08-31 11:53:19 | 48.59528 | 12.74794 | 58° | 11km/h | 20308m | 5.7m/s | -53.0°C | 4.0% | 55.5hPa | 2.7V | 00:00:00 | 01:23:56 | 00:00:00 | |
| DO3MHA-11 | 2026-08-31 11:53:18 | 48.59528 | 12.74794 | 58° | 11km/h | 20308m | 5.7m/s | -53.0°C | 4.0% | 55.5hPa | 2.7V | 00:00:00 | 01:23:56 | 00:00:00 | |
| DL6DJ-15 | 2026-08-31 11:53:17 | 48.59526 | 12.74790 | 69° | 11km/h | 20302m | 4.9m/s | -53.1°C | 1.2% | 55.6hPa | 2.7V | 00:00:00 | 00:00:00 | 00:00:00 | |
| PETON7-10 | 2026-08-31 11:53:14 | 48.59527 | 12.74777 | 110° | 7km/h | 20287m | 3.7m/s | -53.1°C | 4.0% | 55.7hPa | 2.7V | 00:00:00 | 00:00:00 | 08:30:00 | |
| BAUMI2-15 | 2026-08-31 11:53:13 | 48.59527 | 12.74772 | 106° | 11km/h | 20283m | 4.8m/s | -53.1°C | 4.0% | 55.7hPa | 2.6V | 00:00:00 | 01:23:51 | 00:00:00 | |
| DK5PH-5 | 2026-08-31 11:53:06 | 48.59521 | 12.74754 | 11° | 15km/h | 20249m | 4.7m/s | -53.3°C | 4.1% | 56.0hPa | 2.6V | 00:00:00 | 01:23:44 | 00:00:00 | |
| OE5REO-15 | 2026-08-31 11:53:05 | 48.59521 | 12.74754 | 11° | 2km/h | 20249m | 4.8m/s | -53.4°C | 1.3% | 56.0hPa | 2.6V | 00:00:00 | 00:00:00 | 00:00:00 | |
| OE5MMP-10 | 2026-08-31 11:53:04 | 48.59520 | 12.74753 | 70° | 9km/h | 20239m | 4.7m/s | -53.3°C | 4.1% | 56.1hPa | 2.6V | 00:00:00 | 01:23:42 | 00:00:00 | |
| DL6DJ-15 | 2026-08-31 11:52:46 | 48.59523 | 12.74666 | 81° | 24km/h | 20147m | 4.7m/s | -53.3°C | 1.2% | 57.0hPa | 2.6V | 00:00:00 | 00:00:00 | 00:00:00 | |
| PETON7-10 | 2026-08-31 11:52:44 | 48.59521 | 12.74649 | 74° | 20km/h | 20137m | 5.8m/s | -53.1°C | 4.0% | 57.0hPa | 2.6V | 00:00:00 | 01:23:22 | 00:00:00 | |
| PG1ADW-2 | 2026-08-31 11:52:40 | 48.59515 | 12.74627 | 71° | 22km/h | 20117m | 5.0m/s | -53.1°C | 4.0% | 57.2hPa | 2.6V | 00:00:00 | 00:00:00 | 00:00:00 | |
| DO3MHA-11 | 2026-08-31 11:52:38 | 48.59513 | 12.74614 | 84° | 24km/h | 20107m | 5.6m/s | -53.2°C | 4.0% | 57.3hPa | 2.6V | 00:00:00 | 01:23:16 | 00:00:00 | |
| DK5PH-5 | 2026-08-31 11:52:36 | 48.59512 | 12.74599 | 90° | 24km/h | 20098m | 4.7m/s | -53.1°C | 4.0% | 57.4hPa | 2.6V | 00:00:00 | 01:23:14 | 00:00:00 | |
| OE5REO-15 | 2026-08-31 11:52:35 | 48.59512 | 12.74590 | 90° | 27km/h | 20092m | 6.1m/s | -53.1°C | 1.2% | 57.4hPa | 2.6V | 00:00:00 | 00:00:00 | 00:00:00 | |
| OE5MMP-10 | 2026-08-31 11:52:34 | 48.59512 | 12.74579 | 88° | 22km/h | 20087m | 4.3m/s | -53.0°C | 3.9% | 57.4hPa | 2.6V | 00:00:00 | 01:23:12 | 00:00:00 | |
| PETON7-10 | 2026-08-31 11:52:29 | 48.59505 | 12.74536 | 61° | 24km/h | 20063m | 5.2m/s | -53.1°C | 3.9% | 57.6hPa | 2.6V | 00:00:00 | 00:00:00 | 00:00:00 | |
| DO3MHA-11 | 2026-08-31 11:52:28 | 48.59503 | 12.74529 | 60° | 22km/h | 20058m | 5.0m/s | -53.2°C | 3.9% | 57.7hPa | 2.7V | 00:00:00 | 01:23:06 | 08:30:00 | |
| OE5DXL-15 | 2026-08-31 11:52:25 | 48.59495 | 12.74503 | 68° | 24km/h | 20039m | 5.1m/s | -53.2°C | 3.9% | 57.9hPa | 2.7V | 00:00:00 | 00:00:00 | 00:00:00 | |
| OE5MMP-10 | 2026-08-31 11:52:24 | 48.59495 | 12.74503 | 68° | 26km/h | 20039m | 5.1m/s | -53.2°C | 3.9% | 57.9hPa | 2.7V | 00:00:00 | 01:23:02 | 00:00:00 | |
| OE5FHM-15 | 2026-08-31 11:52:21 | 48.59486 | 12.74479 | 62° | 24km/h | 20024m | 5.0m/s | -53.3°C | 4.0% | 58.0hPa | 2.7V | 00:00:00 | 01:22:59 | 00:00:00 | |
| PG1ADW-2 | 2026-08-31 11:52:20 | 48.59483 | 12.74470 | 62° | 24km/h | 20018m | 5.5m/s | -53.3°C | 4.0% | 58.1hPa | 2.6V | 00:00:00 | 01:22:58 | 00:00:00 | |
| DG1MFX-10 | 2026-08-31 11:52:19 | 48.59480 | 12.74461 | 64° | 26km/h | 20013m | 4.2m/s | -53.3°C | 1.2% | 58.2hPa | 2.6V | 00:00:00 | 00:00:00 | 00:00:00 | |
| DO3MHA-11 | 2026-08-31 11:52:18 | 48.59477 | 12.74452 | 65° | 24km/h | 20009m | 4.5m/s | -53.4°C | 4.0% | 58.2hPa | 2.6V | 00:00:00 | 01:22:56 | 00:00:00 | |
| OE5WHR-10 | 2026-08-31 11:52:17 | 48.59474 | 12.74443 | 65° | 24km/h | 20004m | 6.0m/s | -53.5°C | 4.0% | 58.2hPa | 2.6V | 00:00:00 | 00:00:00 | 00:00:00 | |
| DL6DJ-15 | 2026-08-31 11:52:16 | 48.59468 | 12.74425 | 62° | 24km/h | 19993m | 5.4m/s | -53.7°C | 1.3% | 58.4hPa | 2.6V | 00:00:00 | 00:00:00 | 00:00:00 | |
| PETON7-10 | 2026-08-31 11:52:14 | 48.59465 | 12.74418 | 57° | 24km/h | 19988m | 5.5m/s | -53.6°C | 4.2% | 58.3hPa | 2.6V | 00:00:00 | 00:00:00 | 00:00:00 | |
| DO3MHA-11 | 2026-08-31 11:52:08 | 48.59443 | 12.74381 | 54° | 24km/h | 19959m | 5.0m/s | -53.5°C | 4.1% | 58.6hPa | 2.6V | 00:00:00 | 01:22:46 | 00:00:00 | |
| DK5PH-5 | 2026-08-31 11:52:06 | 48.59437 | 12.74367 | 56° | 22km/h | 19949m | 5.8m/s | -53.6°C | 4.1% | 58.7hPa | 2.6V | 00:00:00 | 01:22:44 | 00:00:00 | |
| OE5MMP-10 | 2026-08-31 11:52:04 | 48.59428 | 12.74351 | 49° | 22km/h | 19939m | 4.2m/s | -53.7°C | 4.1% | 58.8hPa | 2.6V | 00:00:00 | 01:22:42 | 00:00:00 | |
| PG1ADW-2 | 2026-08-31 11:52:00 | 48.59410 | 12.74327 | 32° | 22km/h | 19920m | 5.6m/s | -53.6°C | 4.1% | 59.0hPa | 2.6V | 00:00:00 | 00:00:00 | 00:00:00 | |
| PETON7-10 | 2026-08-31 11:51:59 | 48.59405 | 12.74323 | 30° | 22km/h | 19915m | 4.7m/s | -53.6°C | 4.0% | 59.0hPa | 2.7V | 00:00:00 | 01:22:37 | 00:00:00 | |
| DO3MHA-11 | 2026-08-31 11:51:58 | 48.59399 | 12.74319 | 30° | 20km/h | 19910m | 4.7m/s | -53.6°C | 4.1% | 59.1hPa | 2.7V | 00:00:00 | 01:22:36 | 00:00:00 | |
| DG1MFX-10 | 2026-08-31 11:51:57 | 48.59399 | 12.74319 | 31° | 24km/h | 19910m | 4.8m/s | -53.7°C | 1.3% | 59.1hPa | 2.6V | 00:00:00 | 00:00:00 | 00:00:00 | |
| OE5WHR-10 | 2026-08-31 11:51:56 | 48.59390 | 12.74310 | 34° | 20km/h | 19900m | 4.6m/s | -53.6°C | 4.2% | 59.1hPa | 2.6V | 00:00:00 | 00:00:00 | 00:00:00 | |
| OE5DRO-10 | 2026-08-31 11:51:55 | 48.59386 | 12.74306 | 36° | 20km/h | 19895m | 4.0m/s | -53.6°C | 4.2% | 59.2hPa | 2.6V | 00:00:00 | 00:00:00 | 00:00:00 | |
| OE5MMP-10 | 2026-08-31 11:51:54 | 48.59383 | 12.74302 | 37° | 22km/h | 19891m | 5.4m/s | -53.6°C | 4.2% | 59.3hPa | 2.6V | 00:00:00 | 01:22:32 | 00:00:00 | |
| OE5REO-15 | 2026-08-31 11:51:49 | 48.59360 | 12.74281 | 22° | 20km/h | 19866m | 4.7m/s | -53.8°C | 1.3% | 59.5hPa | 2.6V | 00:00:00 | 00:00:00 | 00:00:00 | |
| DO3MHA-11 | 2026-08-31 11:51:48 | 48.59355 | 12.74279 | 16° | 20km/h | 19861m | 5.6m/s | -53.7°C | 4.1% | 59.5hPa | 2.6V | 00:00:00 | 01:22:26 | 00:00:00 | |
| DL6DJ-15 | 2026-08-31 11:51:44 | 48.59327 | 12.74270 | 17° | 18km/h | 19836m | 5.5m/s | -53.6°C | 1.3% | 59.8hPa | 2.6V | 00:00:00 | 00:00:00 | 00:00:00 | |
| OE5HKT-10 | 2026-08-31 11:51:42 | 48.59322 | 12.74267 | 26° | 27km/h | 19831m | 5.1m/s | -53.4°C | 4.0% | 59.8hPa | 2.6V | 00:00:00 | 01:22:20 | 00:00:00 | |
| PG1ADW-2 | 2026-08-31 11:51:40 | 48.59314 | 12.74259 | 44° | 20km/h | 19821m | 5.9m/s | -53.4°C | 4.1% | 59.9hPa | 2.6V | 00:00:00 | 00:00:00 | 00:00:00 | |
| DO3MHA-11 | 2026-08-31 11:51:38 | 48.59308 | 12.74249 | 53° | 22km/h | 19810m | 5.1m/s | -53.4°C | 4.1% | 60.0hPa | 2.6V | 00:00:00 | 01:22:16 | 00:00:00 | |
| DK5PH-5 | 2026-08-31 11:51:36 | 48.59302 | 12.74238 | 47° | 24km/h | 19800m | 3.8m/s | -53.4°C | 4.1% | 60.1hPa | 2.6V | 00:00:00 | 01:22:14 | 00:00:00 | |
| OE5WHR-10 | 2026-08-31 11:51:35 | 48.59298 | 12.74232 | 44° | 24km/h | 19796m | 5.5m/s | -53.3°C | 4.1% | 60.1hPa | 2.6V | 00:00:00 | 01:22:13 | 00:00:00 | |
| OE5MMP-10 | 2026-08-31 11:51:34 | 48.59295 | 12.74227 | 40° | 24km/h | 19791m | 4.1m/s | -53.3°C | 4.0% | 60.2hPa | 2.6V | 00:00:00 | 01:22:12 | 00:00:00 | |
| OE5REO-15 | 2026-08-31 11:51:33 | 48.59295 | 12.74227 | 41° | 20km/h | 19791m | 4.2m/s | -53.4°C | 1.2% | 60.2hPa | 2.6V | 00:00:00 | 00:00:00 | 00:00:00 | |
| PETON7-10 | 2026-08-31 11:51:29 | 48.59270 | 12.74200 | 37° | 24km/h | 19767m | 5.1m/s | -53.1°C | 4.0% | 60.4hPa | 2.6V | 00:00:00 | 00:00:00 | 00:00:00 | |
| DO3MHA-11 | 2026-08-31 11:51:26 | 48.59257 | 12.74184 | 44° | 22km/h | 19753m | 5.4m/s | -53.1°C | 3.9% | 60.5hPa | 2.6V | 00:00:00 | 01:22:04 | 00:00:00 | |
| OE5MMP-10 | 2026-08-31 11:51:24 | 48.59248 | 12.74172 | 41° | 24km/h | 19743m | 4.3m/s | -53.3°C | 4.0% | 60.6hPa | 2.7V | 00:00:00 | 01:22:02 | 00:00:00 | |
| OE5FHM-15 | 2026-08-31 11:51:21 | 48.59236 | 12.74159 | 29° | 26km/h | 19729m | 3.5m/s | -53.3°C | 3.9% | 60.8hPa | 2.7V | 00:00:00 | 01:21:59 | 00:00:00 | |
| PG1ADW-2 | 2026-08-31 11:51:20 | 48.59232 | 12.74156 | 30° | 26km/h | 19725m | 4.0m/s | -53.4°C | 3.9% | 60.8hPa | 2.7V | 00:00:00 | 00:00:00 | 00:00:00 | |
| OE5DRO-10 | 2026-08-31 11:51:17 | 48.59217 | 12.74138 | 48° | 26km/h | 19711m | 3.8m/s | -53.6°C | 4.0% | 60.9hPa | 2.7V | 00:00:00 | 00:00:00 | 00:00:00 | |
| DO3MHA-11 | 2026-08-31 11:51:16 | 48.59213 | 12.74130 | 52° | 24km/h | 19707m | 5.4m/s | -53.6°C | 4.0% | 61.0hPa | 2.7V | 00:00:00 | 01:21:54 | 00:00:00 | |
| OE5WHR-10 | 2026-08-31 11:51:14 | 48.59205 | 12.74114 | 59° | 26km/h | 19697m | 5.0m/s | -53.6°C | 4.1% | 61.1hPa | 2.7V | 00:00:00 | 00:00:00 | 08:30:00 | |
| DL6DJ-15 | 2026-08-31 11:51:13 | 48.59198 | 12.74098 | 54° | 24km/h | 19686m | 4.1m/s | -53.6°C | 1.3% | 61.2hPa | 2.7V | 00:00:00 | 00:00:00 | 00:00:00 | |
| DO3MHA-11 | 2026-08-31 11:51:06 | 48.59177 | 12.74058 | 53° | 31km/h | 19657m | 5.1m/s | -53.6°C | 4.1% | 61.5hPa | 2.7V | 00:00:00 | 01:21:44 | 00:00:00 | |
| OE5MMP-10 | 2026-08-31 11:51:04 | 48.59169 | 12.74039 | 66° | 29km/h | 19648m | 4.7m/s | -53.6°C | 4.1% | 61.5hPa | 2.7V | 00:00:00 | 01:21:42 | 00:00:00 | |
| OE5REO-15 | 2026-08-31 11:51:03 | 48.59166 | 12.74028 | 69° | 33km/h | 19643m | 6.0m/s | -53.6°C | 1.3% | 61.6hPa | 2.7V | 00:00:00 | 00:00:00 | 00:00:00 | |
| BAUMI2-15 | 2026-08-31 11:51:02 | 48.59163 | 12.74016 | 69° | 31km/h | 19637m | 4.8m/s | -53.5°C | 4.2% | 61.7hPa | 2.7V | 00:00:00 | 01:21:40 | 08:30:00 | |
| PG1ADW-2 | 2026-08-31 11:51:00 | 48.59157 | 12.73992 | 70° | 27km/h | 19628m | 5.4m/s | -53.6°C | 4.1% | 61.7hPa | 2.6V | 00:00:00 | 01:21:38 | 00:00:00 | |
| PETON7-10 | 2026-08-31 11:50:59 | 48.59154 | 12.73982 | 68° | 29km/h | 19623m | 4.3m/s | -53.6°C | 4.2% | 61.8hPa | 2.6V | 00:00:00 | 00:00:00 | 08:30:00 | |
| OE5DRO-10 | 2026-08-31 11:50:58 | 48.59151 | 12.73972 | 64° | 29km/h | 19618m | 4.9m/s | -53.7°C | 4.2% | 61.8hPa | 2.6V | 00:00:00 | 00:00:00 | 08:30:00 | |
| BAUMI2-15 | 2026-08-31 11:50:57 | 48.59148 | 12.73964 | 58° | 24km/h | 19613m | 5.6m/s | -53.5°C | 4.1% | 61.9hPa | 2.7V | 00:00:00 | 01:21:35 | 00:00:00 | |
| DO3MHA-11 | 2026-08-31 11:50:56 | 48.59144 | 12.73956 | 53° | 27km/h | 19608m | 4.4m/s | -53.5°C | 4.0% | 62.0hPa | 2.7V | 00:00:00 | 01:21:34 | 08:30:00 | |
| OE5MMP-10 | 2026-08-31 11:50:54 | 48.59137 | 12.73943 | 51° | 29km/h | 19598m | 3.7m/s | -53.4°C | 4.0% | 62.0hPa | 2.6V | 00:00:00 | 01:21:32 | 00:00:00 | |
| OE5WHR-10 | 2026-08-31 11:50:53 | 48.59134 | 12.73936 | 51° | 31km/h | 19595m | 3.6m/s | -53.5°C | 4.0% | 62.1hPa | 2.6V | 00:00:00 | 00:00:00 | 00:00:00 | |
| BAUMI2-15 | 2026-08-31 11:50:52 | 48.59130 | 12.73929 | 52° | 31km/h | 19590m | 5.3m/s | -53.6°C | 4.0% | 62.1hPa | 2.6V | 00:00:00 | 01:21:30 | 00:00:00 | |
| OE5FHM-15 | 2026-08-31 11:50:51 | 48.59125 | 12.73920 | 55° | 31km/h | 19585m | 5.0m/s | -53.6°C | 4.0% | 62.2hPa | 2.6V | 00:00:00 | 01:21:29 | 00:00:00 | |
| OE5HKT-10 | 2026-08-31 11:50:49 | 48.59117 | 12.73900 | 61° | 27km/h | 19575m | 5.0m/s | -53.5°C | 4.0% | 62.3hPa | 2.7V | 00:00:00 | 00:00:00 | 08:30:00 | |
| BAUMI2-15 | 2026-08-31 11:50:47 | 48.59109 | 12.73878 | 61° | 31km/h | 19566m | 5.6m/s | -53.4°C | 4.0% | 62.3hPa | 2.6V | 00:00:00 | 01:21:25 | 00:00:00 | |
| DO3MHA-11 | 2026-08-31 11:50:46 | 48.59104 | 12.73866 | 59° | 31km/h | 19561m | 4.7m/s | -53.4°C | 4.0% | 62.4hPa | 2.7V | 00:00:00 | 01:21:24 | 00:00:00 | |
| OE5MMP-10 | 2026-08-31 11:50:44 | 48.59095 | 12.73845 | 59° | 29km/h | 19552m | 5.6m/s | -53.7°C | 4.1% | 62.5hPa | 2.7V | 00:00:00 | 01:21:22 | 00:00:00 | |
| BAUMI2-15 | 2026-08-31 11:50:37 | 48.59068 | 12.73781 | 64° | 33km/h | 19519m | 4.8m/s | -53.7°C | 4.2% | 62.8hPa | 2.7V | 00:00:00 | 01:21:15 | 00:00:00 | |
| DO3MHA-11 | 2026-08-31 11:50:36 | 48.59064 | 12.73770 | 64° | 31km/h | 19515m | 3.9m/s | -53.7°C | 4.2% | 62.8hPa | 2.7V | 00:00:00 | 01:21:14 | 00:00:00 | |
| OE5MMP-10 | 2026-08-31 11:50:34 | 48.59056 | 12.73748 | 58° | 31km/h | 19505m | 5.5m/s | -53.6°C | 4.2% | 62.9hPa | 2.7V | 00:00:00 | 01:21:12 | 00:00:00 | |
| OE5REO-15 | 2026-08-31 11:50:32 | 48.59046 | 12.73728 | 55° | 31km/h | 19496m | 4.5m/s | -53.6°C | 1.3% | 63.1hPa | 2.7V | 00:00:00 | 00:00:00 | 00:00:00 | |
| PETON7-10 | 2026-08-31 11:50:29 | 48.59034 | 12.73700 | 59° | 31km/h | 19483m | 4.4m/s | -53.5°C | 4.0% | 63.1hPa | 2.7V | 00:00:00 | 01:21:07 | 00:00:00 | |
| DO3MHA-11 | 2026-08-31 11:50:26 | 48.59020 | 12.73672 | 48° | 31km/h | 19468m | 4.5m/s | -53.5°C | 4.0% | 63.3hPa | 2.7V | 00:00:00 | 01:21:04 | 00:00:00 | |
| OE5DXL-15 | 2026-08-31 11:50:24 | 48.58999 | 12.73640 | 43° | 29km/h | 19450m | 5.4m/s | -53.5°C | 4.0% | 63.5hPa | 2.6V | 00:00:00 | 00:00:00 | 00:00:00 | |
| OE5FHM-15 | 2026-08-31 11:50:21 | 48.58993 | 12.73632 | 44° | 29km/h | 19445m | 4.4m/s | -53.5°C | 4.1% | 63.5hPa | 2.7V | 00:00:00 | 01:20:59 | 00:00:00 | |
| PG1ADW-2 | 2026-08-31 11:50:20 | 48.58987 | 12.73623 | 44° | 29km/h | 19440m | 5.5m/s | -53.5°C | 4.1% | 63.6hPa | 2.7V | 00:00:00 | 00:00:00 | 00:00:00 | |
| OE5DRO-10 | 2026-08-31 11:50:18 | 48.58977 | 12.73607 | 48° | 31km/h | 19431m | 4.1m/s | -53.6°C | 4.2% | 63.7hPa | 2.7V | 00:00:00 | 00:00:00 | 00:00:00 | |
| DO3MHA-11 | 2026-08-31 11:50:16 | 48.58966 | 12.73590 | 46° | 29km/h | 19420m | 4.6m/s | -53.6°C | 4.2% | 63.8hPa | 2.7V | 00:00:00 | 01:20:54 | 00:00:00 | |
| BAUMI2-15 | 2026-08-31 11:50:15 | 48.58960 | 12.73582 | 45° | 31km/h | 19416m | 4.4m/s | -53.6°C | 4.1% | 63.9hPa | 2.7V | 00:00:00 | 01:20:53 | 08:30:00 | |
| PETON7-10 | 2026-08-31 11:50:14 | 48.58955 | 12.73574 | 42° | 29km/h | 19411m | 5.6m/s | -53.6°C | 4.1% | 63.9hPa | 2.7V | 00:00:00 | 00:00:00 | 00:00:00 | |
| DL6DJ-15 | 2026-08-31 11:50:11 | 48.58930 | 12.73547 | 33° | 31km/h | 19391m | 3.8m/s | -53.7°C | 1.3% | 64.1hPa | 2.6V | 00:00:00 | 00:00:00 | 00:00:00 | |
| BAUMI2-15 | 2026-08-31 11:50:10 | 48.58930 | 12.73547 | 34° | 29km/h | 19392m | 3.7m/s | -53.7°C | 4.1% | 64.1hPa | 2.6V | 00:00:00 | 01:20:48 | 00:00:00 | |
| DO3MHA-11 | 2026-08-31 11:50:06 | 48.58906 | 12.73522 | 39° | 27km/h | 19371m | 5.6m/s | -53.6°C | 4.1% | 64.3hPa | 2.6V | 00:00:00 | 01:20:44 | 00:00:00 | |
| BAUMI2-15 | 2026-08-31 11:50:05 | 48.58900 | 12.73515 | 39° | 27km/h | 19366m | 3.9m/s | -53.5°C | 4.1% | 64.3hPa | 2.6V | 00:00:00 | 01:20:43 | 00:00:00 | |
| OE5MMP-10 | 2026-08-31 11:50:04 | 48.58895 | 12.73508 | 40° | 27km/h | 19362m | 5.1m/s | -53.5°C | 4.0% | 64.4hPa | 2.6V | 00:00:00 | 01:20:42 | 00:00:00 | |
| OE5REO-15 | 2026-08-31 11:50:01 | 48.58878 | 12.73489 | 37° | 29km/h | 19347m | 5.4m/s | -53.5°C | 1.3% | 64.6hPa | 2.6V | 00:00:00 | 00:00:00 | 00:00:00 | |
| PG1ADW-2 | 2026-08-31 11:50:00 | 48.58872 | 12.73483 | 34° | 27km/h | 19343m | 4.3m/s | -53.5°C | 4.1% | 64.5hPa | 2.6V | 00:00:00 | 00:00:00 | 08:30:00 | |
| PETON7-10 | 2026-08-31 11:49:59 | 48.58866 | 12.73477 | 32° | 27km/h | 19338m | 4.8m/s | -53.5°C | 4.0% | 64.6hPa | 2.6V | 00:00:00 | 00:00:00 | 00:00:00 | |
| DO3MHA-11 | 2026-08-31 11:49:56 | 48.58847 | 12.73462 | 25° | 27km/h | 19324m | 5.3m/s | -53.6°C | 4.1% | 64.8hPa | 2.6V | 00:00:00 | 01:20:34 | 00:00:00 | |
| BAUMI2-15 | 2026-08-31 11:49:55 | 48.58840 | 12.73458 | 26° | 27km/h | 19318m | 5.1m/s | -53.6°C | 4.0% | 64.8hPa | 2.7V | 00:00:00 | 01:20:33 | 00:00:00 | |
| OE5MMP-10 | 2026-08-31 11:49:54 | 48.58834 | 12.73453 | 25° | 27km/h | 19314m | 4.5m/s | -53.6°C | 4.0% | 64.9hPa | 2.7V | 00:00:00 | 01:20:32 | 00:00:00 | |
| OE5FHM-15 | 2026-08-31 11:49:51 | 48.58814 | 12.73442 | 18° | 26km/h | 19298m | 4.7m/s | -53.6°C | 4.0% | 65.0hPa | 2.7V | 00:00:00 | 01:20:29 | 00:00:00 | |
| BAUMI2-15 | 2026-08-31 11:49:50 | 48.58808 | 12.73439 | 21° | 27km/h | 19293m | 5.9m/s | -53.7°C | 4.0% | 65.1hPa | 2.7V | 00:00:00 | 01:20:28 | 00:00:00 | |
| BAUMI2-15 | 2026-08-31 11:49:45 | 48.58776 | 12.73422 | 17° | 26km/h | 19268m | 5.4m/s | -53.8°C | 4.2% | 65.3hPa | 2.7V | 00:00:00 | 01:20:23 | 00:00:00 | |
| OE5MMP-10 | 2026-08-31 11:49:44 | 48.58770 | 12.73419 | 17° | 26km/h | 19262m | 5.0m/s | -53.7°C | 4.2% | 65.4hPa | 2.6V | 00:00:00 | 01:20:22 | 00:00:00 | |
| DO3MHA-11 | 2026-08-31 11:49:42 | 48.58757 | 12.73415 | 8° | 26km/h | 19254m | 5.5m/s | -53.7°C | 4.1% | 65.5hPa | 2.7V | 00:00:00 | 01:20:20 | 00:00:00 | |
| BAUMI2-15 | 2026-08-31 11:49:40 | 48.58744 | 12.73414 | 1° | 26km/h | 19244m | 4.2m/s | -53.7°C | 4.0% | 65.6hPa | 2.7V | 00:00:00 | 01:20:18 | 00:00:00 | |
| DL6DJ-15 | 2026-08-31 11:49:39 | 48.58738 | 12.73414 | 1° | 24km/h | 19239m | 5.6m/s | -53.7°C | 1.3% | 65.7hPa | 2.7V | 00:00:00 | 00:00:00 | 00:00:00 | |
| DK5PH-5 | 2026-08-31 11:49:36 | 48.58719 | 12.73414 | 354° | 26km/h | 19224m | 5.8m/s | -54.0°C | 4.1% | 65.8hPa | 2.7V | 00:00:00 | 01:20:14 | 08:30:00 | |
| DG1MFX-10 | 2026-08-31 11:49:35 | 48.58719 | 12.73414 | 354° | 27km/h | 19224m | 5.8m/s | -54.0°C | 1.3% | 65.8hPa | 2.7V | 00:00:00 | 00:00:00 | 00:00:00 | |
| BAUMI2-15 | 2026-08-31 11:49:34 | 48.58705 | 12.73417 | 355° | 29km/h | 19214m | 4.9m/s | -53.9°C | 4.1% | 65.9hPa | 2.7V | 00:00:00 | 01:20:12 | 00:00:00 | |
| BAUMI2-15 | 2026-08-31 11:49:30 | 48.58668 | 12.73414 | 11° | 26km/h | 19190m | 4.5m/s | -53.9°C | 4.1% | 66.1hPa | 2.7V | 00:00:00 | 01:20:07 | 08:30:00 | |
| OE5DRO-10 | 2026-08-31 11:49:26 | 48.58648 | 12.73406 | 14° | 22km/h | 19175m | 5.7m/s | -54.1°C | 4.2% | 66.3hPa | 2.6V | 00:00:00 | 00:00:00 | 00:00:00 | |
| OE5MMP-10 | 2026-08-31 11:49:24 | 48.58636 | 12.73404 | 1° | 24km/h | 19164m | 4.6m/s | -54.0°C | 4.2% | 66.4hPa | 2.6V | 00:00:00 | 01:20:02 | 00:00:00 | |
| OE5FHM-15 | 2026-08-31 11:49:21 | 48.58620 | 12.73404 | 1° | 22km/h | 19149m | 4.3m/s | -54.1°C | 4.3% | 66.5hPa | 2.6V | 00:00:00 | 01:19:59 | 08:30:00 | |
| PG1ADW-2 | 2026-08-31 11:49:20 | 48.58614 | 12.73404 | 357° | 24km/h | 19144m | 5.9m/s | -54.0°C | 4.3% | 66.6hPa | 2.7V | 00:00:00 | 00:00:00 | 00:00:00 | |
| OE5DXL-15 | 2026-08-31 11:49:19 | 48.58594 | 12.73405 | 5° | 20km/h | 19129m | 5.5m/s | -54.0°C | 4.2% | 66.8hPa | 2.7V | 00:00:00 | 00:00:00 | 00:00:00 | |
| DG1MFX-10 | 2026-08-31 11:49:15 | 48.58587 | 12.73404 | 7° | 27km/h | 19124m | 3.9m/s | -54.0°C | 1.4% | 66.9hPa | 2.7V | 00:00:00 | 00:00:00 | 00:00:00 | |
| OE5MMP-10 | 2026-08-31 11:49:14 | 48.58575 | 12.73403 | 1° | 24km/h | 19114m | 5.0m/s | -54.0°C | 4.3% | 66.9hPa | 2.7V | 00:00:00 | 01:19:52 | 00:00:00 | |
| OE5REO-15 | 2026-08-31 11:49:13 | 48.58575 | 12.73403 | 2° | 22km/h | 19114m | 5.0m/s | -54.0°C | 1.3% | 67.0hPa | 2.6V | 00:00:00 | 00:00:00 | 00:00:00 | |
| BAUMI2-15 | 2026-08-31 11:49:09 | 48.58548 | 12.73399 | 5° | 26km/h | 19091m | 4.9m/s | -53.9°C | 4.2% | 67.2hPa | 2.6V | 00:00:00 | 01:19:47 | 00:00:00 | |
| OE5WHR-10 | 2026-08-31 11:49:08 | 48.58542 | 12.73399 | 357° | 18km/h | 19086m | 5.1m/s | -54.0°C | 4.3% | 67.2hPa | 2.6V | 00:00:00 | 00:00:00 | 00:00:00 | |
| DK5PH-5 | 2026-08-31 11:49:06 | 48.58529 | 12.73401 | 355° | 18km/h | 19077m | 4.7m/s | -53.8°C | 4.2% | 67.3hPa | 2.7V | 00:00:00 | 01:19:44 | 00:00:00 | |
| OE5MMP-10 | 2026-08-31 11:49:04 | 48.58516 | 12.73402 | 4° | 16km/h | 19067m | 3.9m/s | -53.8°C | 4.4% | 67.4hPa | 2.7V | 00:00:00 | 01:19:42 | 00:00:00 | |
| OE5HKT-10 | 2026-08-31 11:49:02 | 48.58506 | 12.73401 | 1° | 18km/h | 19059m | 5.4m/s | -53.6°C | 4.2% | 67.5hPa | 2.7V | 00:00:00 | 00:00:00 | 00:00:00 | |
| PG1ADW-2 | 2026-08-31 11:49:00 | 48.58499 | 12.73403 | 338° | 16km/h | 19050m | 3.3m/s | -53.5°C | 4.2% | 67.6hPa | 2.7V | 00:00:00 | 00:00:00 | 00:00:00 | |
| OE5REO-15 | 2026-08-31 11:48:57 | 48.58489 | 12.73407 | 355° | 18km/h | 19035m | 4.7m/s | -53.5°C | 1.3% | 67.8hPa | 2.7V | 00:00:00 | 00:00:00 | 00:00:00 | |
| OE5MMP-10 | 2026-08-31 11:48:54 | 48.58474 | 12.73411 | 343° | 16km/h | 19021m | 4.9m/s | -53.3°C | 4.0% | 67.9hPa | 2.7V | 00:00:00 | 01:19:32 | 00:00:00 | |
| OE5FHM-15 | 2026-08-31 11:48:51 | 48.58460 | 12.73416 | 354° | 16km/h | 19006m | 4.7m/s | -53.2°C | 4.0% | 68.1hPa | 2.7V | 00:00:00 | 01:19:29 | 00:00:00 | |
| OE5DXL-15 | 2026-08-31 11:48:49 | 48.58451 | 12.73417 | 354° | 16km/h | 18997m | 5.8m/s | -53.1°C | 4.0% | 68.2hPa | 2.7V | 00:00:00 | 00:00:00 | 00:00:00 | |
| OE5WHR-10 | 2026-08-31 11:48:47 | 48.58445 | 12.73418 | 353° | 16km/h | 18987m | 4.1m/s | -53.2°C | 4.1% | 68.3hPa | 2.7V | 00:00:00 | 00:00:00 | 00:00:00 | |
| PETON7-10 | 2026-08-31 11:48:44 | 48.58434 | 12.73419 | 1° | 16km/h | 18971m | 5.4m/s | -53.2°C | 4.0% | 68.4hPa | 2.7V | 00:00:00 | 00:00:00 | 08:30:00 | |
| OE5DRO-10 | 2026-08-31 11:48:40 | 48.58417 | 12.73424 | 346° | 18km/h | 18950m | 4.8m/s | -53.4°C | 3.9% | 68.7hPa | 2.6V | 00:00:00 | 00:00:00 | 00:00:00 | |
| OE5HKT-10 | 2026-08-31 11:48:37 | 48.58401 | 12.73433 | 339° | 15km/h | 18935m | 4.1m/s | -53.4°C | 3.9% | 68.8hPa | 2.6V | 00:00:00 | 01:19:15 | 00:00:00 | |
| DK5PH-5 | 2026-08-31 11:48:36 | 48.58395 | 12.73436 | 346° | 15km/h | 18930m | 5.5m/s | -53.4°C | 3.9% | 68.9hPa | 2.6V | 00:00:00 | 01:19:14 | 00:00:00 | |
| OE5MMP-10 | 2026-08-31 11:48:34 | 48.58387 | 12.73435 | 23° | 15km/h | 18921m | 4.0m/s | -53.2°C | 3.9% | 69.0hPa | 2.6V | 00:00:00 | 01:19:12 | 00:00:00 | |
| PETON7-10 | 2026-08-31 11:48:29 | 48.58376 | 12.73416 | 43° | 15km/h | 18896m | 4.3m/s | -53.9°C | 4.1% | 69.3hPa | 2.6V | 00:00:00 | 00:00:00 | 00:00:00 | |
| OE5WHR-10 | 2026-08-31 11:48:26 | 48.58365 | 12.73406 | 17° | 16km/h | 18882m | 4.5m/s | -53.9°C | 4.0% | 69.4hPa | 2.6V | 00:00:00 | 01:19:04 | 00:00:00 | |
| OE5REO-15 | 2026-08-31 11:48:25 | 48.58365 | 12.73406 | 18° | 16km/h | 18882m | 4.5m/s | -53.9°C | 1.3% | 69.5hPa | 2.6V | 00:00:00 | 00:00:00 | 00:00:00 | |
| OE5MMP-10 | 2026-08-31 11:48:24 | 48.58356 | 12.73403 | 7° | 13km/h | 18872m | 4.1m/s | -54.0°C | 4.0% | 69.5hPa | 2.6V | 00:00:00 | 01:19:02 | 00:00:00 | |
| OE5FHM-15 | 2026-08-31 11:48:21 | 48.58345 | 12.73401 | 15° | 16km/h | 18858m | 3.8m/s | -54.1°C | 4.0% | 69.7hPa | 2.6V | 00:00:00 | 01:18:59 | 00:00:00 | |
| PG1ADW-2 | 2026-08-31 11:48:20 | 48.58343 | 12.73400 | 29° | 16km/h | 18854m | 4.1m/s | -54.3°C | 4.1% | 69.7hPa | 2.6V | 00:00:00 | 01:18:58 | 00:00:00 | |
| OE5DXL-15 | 2026-08-31 11:48:19 | 48.58341 | 12.73398 | 36° | 16km/h | 18849m | 5.2m/s | -54.5°C | 4.2% | 69.8hPa | 2.6V | 00:00:00 | 00:00:00 | 00:00:00 | |
| OE5HKT-10 | 2026-08-31 11:48:14 | 48.58329 | 12.73383 | 34° | 16km/h | 18825m | 5.2m/s | -54.5°C | 4.3% | 70.0hPa | 2.6V | 00:00:00 | 00:00:00 | 00:00:00 | |
| OE5REO-15 | 2026-08-31 11:48:10 | 48.58312 | 12.73374 | 13° | 18km/h | 18805m | 5.0m/s | -54.6°C | 1.4% | 70.3hPa | 2.6V | 00:00:00 | 00:00:00 | 00:00:00 | |
| DK5PH-5 | 2026-08-31 11:48:06 | 48.58293 | 12.73364 | 27° | 18km/h | 18785m | 4.6m/s | -54.5°C | 4.2% | 70.5hPa | 2.6V | 00:00:00 | 01:18:44 | 00:00:00 | |
| OE5WHR-10 | 2026-08-31 11:48:05 | 48.58289 | 12.73361 | 33° | 18km/h | 18780m | 5.8m/s | -54.6°C | 4.2% | 70.5hPa | 2.7V | 00:00:00 | 00:00:00 | 08:30:00 | |
| OE5MMP-10 | 2026-08-31 11:48:04 | 48.58285 | 12.73357 | 36° | 16km/h | 18775m | 4.2m/s | -54.7°C | 4.3% | 70.6hPa | 2.6V | 00:00:00 | 01:18:42 | 00:00:00 | |
| OE5DRO-10 | 2026-08-31 11:48:01 | 48.58273 | 12.73345 | 29° | 20km/h | 18760m | 4.7m/s | -54.9°C | 4.4% | 70.8hPa | 2.6V | 00:00:00 | 00:00:00 | 00:00:00 | |
| PG1ADW-2 | 2026-08-31 11:48:00 | 48.58269 | 12.73342 | 27° | 18km/h | 18754m | 5.8m/s | -54.8°C | 4.4% | 70.8hPa | 2.6V | 00:00:00 | 00:00:00 | 00:00:00 | |
| PETON7-10 | 2026-08-31 11:47:59 | 48.58266 | 12.73340 | 22° | 16km/h | 18749m | 4.4m/s | -54.8°C | 4.4% | 70.9hPa | 2.7V | 00:00:00 | 00:00:00 | 00:00:00 | |
| OE5MMP-10 | 2026-08-31 11:47:54 | 48.58250 | 12.73330 | 44° | 18km/h | 18725m | 5.0m/s | -54.6°C | 4.4% | 71.1hPa | 2.6V | 00:00:00 | 01:18:32 | 00:00:00 | |
| OE5HKT-10 | 2026-08-31 11:47:53 | 48.58247 | 12.73325 | 50° | 20km/h | 18720m | 5.2m/s | -54.6°C | 4.4% | 71.2hPa | 2.6V | 00:00:00 | 00:00:00 | 00:00:00 | |
| OE5FHM-15 | 2026-08-31 11:47:51 | 48.58241 | 12.73314 | 56° | 20km/h | 18710m | 3.5m/s | -54.7°C | 4.4% | 71.3hPa | 2.6V | 00:00:00 | 01:18:29 | 00:00:00 | |
| OE5DXL-15 | 2026-08-31 11:47:49 | 48.58236 | 12.73301 | 62° | 18km/h | 18701m | 4.3m/s | -54.7°C | 4.4% | 71.4hPa | 2.6V | 00:00:00 | 00:00:00 | 00:00:00 | |
| PETON7-10 | 2026-08-31 11:47:44 | 48.58217 | 12.73277 | 23° | 20km/h | 18676m | 4.7m/s | -54.5°C | 4.3% | 71.7hPa | 2.6V | 00:00:00 | 00:00:00 | 00:00:00 | |
| PG1ADW-2 | 2026-08-31 11:47:40 | 48.58196 | 12.73264 | 30° | 18km/h | 18656m | 4.8m/s | -54.4°C | 4.2% | 71.9hPa | 2.6V | 00:00:00 | 00:00:00 | 00:00:00 | |
| OE5REO-15 | 2026-08-31 11:47:39 | 48.58191 | 12.73260 | 36° | 20km/h | 18651m | 5.4m/s | -54.4°C | 1.4% | 72.0hPa | 2.6V | 00:00:00 | 00:00:00 | 00:00:00 | |
| OE5DRO-10 | 2026-08-31 11:47:38 | 48.58188 | 12.73255 | 43° | 18km/h | 18646m | 3.8m/s | -54.3°C | 4.3% | 72.1hPa | 2.6V | 00:00:00 | 00:00:00 | 08:30:00 | |
| DK5PH-5 | 2026-08-31 11:47:36 | 48.58181 | 12.73245 | 47° | 18km/h | 18636m | 5.0m/s | -54.3°C | 4.4% | 72.2hPa | 2.6V | 00:00:00 | 01:18:14 | 00:00:00 | |
| DL6DJ-15 | 2026-08-31 11:47:35 | 48.58178 | 12.73240 | 43° | 18km/h | 18631m | 4.6m/s | -54.3°C | 1.4% | 72.3hPa | 2.6V | 00:00:00 | 00:00:00 | 00:00:00 | |
| DG1MFX-10 | 2026-08-31 11:47:34 | 48.58174 | 12.73236 | 42° | 18km/h | 18627m | 4.7m/s | -54.3°C | 1.4% | 72.3hPa | 2.6V | 00:00:00 | 00:00:00 | 00:00:00 | |
| PETON7-10 | 2026-08-31 11:47:29 | 48.58156 | 12.73215 | 34° | 18km/h | 18603m | 4.2m/s | -54.2°C | 4.2% | 72.5hPa | 2.6V | 00:00:00 | 01:18:07 | 00:00:00 | |
| DO3MHA-11 | 2026-08-31 11:47:27 | 48.58147 | 12.73206 | 37° | 22km/h | 18592m | 4.6m/s | -54.2°C | 4.1% | 72.6hPa | 2.6V | 00:00:00 | 01:18:05 | 08:30:00 | |
| OE5MMP-10 | 2026-08-31 11:47:24 | 48.58134 | 12.73191 | 41° | 16km/h | 18578m | 3.8m/s | -54.2°C | 4.1% | 72.8hPa | 2.7V | 00:00:00 | 01:18:02 | 00:00:00 | |
| OE5WHR-10 | 2026-08-31 11:47:23 | 48.58130 | 12.73186 | 40° | 18km/h | 18573m | 5.4m/s | -54.1°C | 4.1% | 72.9hPa | 2.7V | 00:00:00 | 01:18:01 | 00:00:00 | |
| OE5REO-15 | 2026-08-31 11:47:22 | 48.58130 | 12.73186 | 41° | 16km/h | 18573m | 5.5m/s | -54.2°C | 1.3% | 72.9hPa | 2.7V | 00:00:00 | 00:00:00 | 00:00:00 | |
| OE5FHM-15 | 2026-08-31 11:47:21 | 48.58125 | 12.73180 | 47° | 24km/h | 18563m | 3.9m/s | -54.2°C | 4.1% | 72.9hPa | 2.7V | 00:00:00 | 01:17:59 | 00:00:00 | |
| PG1ADW-2 | 2026-08-31 11:47:20 | 48.58124 | 12.73177 | 51° | 20km/h | 18558m | 5.2m/s | -54.2°C | 4.1% | 73.0hPa | 2.7V | 00:00:00 | 00:00:00 | 00:00:00 | |
| OE5DXL-15 | 2026-08-31 11:47:19 | 48.58122 | 12.73173 | 54° | 24km/h | 18553m | 5.1m/s | -54.2°C | 4.1% | 73.1hPa | 2.7V | 00:00:00 | 00:00:00 | 08:30:00 | |
| OE5MMP-10 | 2026-08-31 11:47:14 | 48.58110 | 12.73143 | 61° | 22km/h | 18530m | 4.2m/s | -54.4°C | 4.2% | 73.4hPa | 2.7V | 00:00:00 | 01:17:52 | 08:30:00 | |
| DG1MFX-10 | 2026-08-31 11:47:12 | 48.58107 | 12.73136 | 58° | 22km/h | 18526m | 5.3m/s | -54.6°C | 1.4% | 73.5hPa | 2.7V | 00:00:00 | 00:00:00 | 00:00:00 | |
| OE5REO-15 | 2026-08-31 11:47:08 | 48.58090 | 12.73101 | 58° | 20km/h | 18502m | 4.2m/s | -54.9°C | 1.4% | 73.7hPa | 2.7V | 00:00:00 | 00:00:00 | 00:00:00 | |
| DK5PH-5 | 2026-08-31 11:47:06 | 48.58084 | 12.73089 | 52° | 27km/h | 18492m | 4.5m/s | -54.9°C | 4.3% | 73.8hPa | 2.7V | 00:00:00 | 01:17:44 | 00:00:00 | |
| OE5MMP-10 | 2026-08-31 11:47:04 | 48.58080 | 12.73077 | 64° | 29km/h | 18483m | 3.9m/s | -55.0°C | 4.4% | 73.9hPa | 2.7V | 00:00:00 | 01:17:42 | 00:00:00 | |
| OE5WHR-10 | 2026-08-31 11:47:02 | 48.58076 | 12.73063 | 71° | 31km/h | 18475m | 4.0m/s | -54.9°C | 4.4% | 74.0hPa | 2.7V | 00:00:00 | 00:00:00 | 00:00:00 | |
| BAUMI2-15 | 2026-08-31 11:47:00 | 48.58064 | 12.73032 | 54° | 33km/h | 18461m | 4.2m/s | -54.8°C | 4.4% | 74.1hPa | 2.7V | 00:00:00 | 01:17:37 | 00:00:00 | |
| OE5MMP-10 | 2026-08-31 11:46:54 | 48.58036 | 12.72989 | 36° | 31km/h | 18437m | 4.9m/s | -54.7°C | 4.4% | 74.5hPa | 2.7V | 00:00:00 | 01:17:32 | 00:00:00 | |
| OE5FHM-15 | 2026-08-31 11:46:51 | 48.58020 | 12.72968 | 48° | 27km/h | 18423m | 4.3m/s | -54.7°C | 4.4% | 74.6hPa | 2.7V | 00:00:00 | 01:17:29 | 00:00:00 | |
| OE5DXL-15 | 2026-08-31 11:46:49 | 48.58010 | 12.72951 | 48° | 27km/h | 18413m | 5.7m/s | -54.7°C | 4.3% | 74.7hPa | 2.7V | 00:00:00 | 00:00:00 | 00:00:00 | |
| OE5HKT-10 | 2026-08-31 11:46:47 | 48.57999 | 12.72934 | 45° | 27km/h | 18403m | 5.0m/s | -54.6°C | 4.3% | 74.8hPa | 2.7V | 00:00:00 | 00:00:00 | 00:00:00 | |
| PETON7-10 | 2026-08-31 11:46:44 | 48.57981 | 12.72910 | 38° | 27km/h | 18389m | 5.5m/s | -54.6°C | 4.3% | 75.0hPa | 2.7V | 00:00:00 | 01:17:22 | 00:00:00 | |
| OE5WHR-10 | 2026-08-31 11:46:41 | 48.57962 | 12.72890 | 36° | 26km/h | 18374m | 5.6m/s | -54.5°C | 4.3% | 75.2hPa | 2.7V | 00:00:00 | 00:00:00 | 00:00:00 | |
| PG1ADW-2 | 2026-08-31 11:46:40 | 48.57957 | 12.72884 | 37° | 26km/h | 18369m | 4.2m/s | -54.5°C | 4.3% | 75.3hPa | 2.7V | 00:00:00 | 00:00:00 | 00:00:00 | |
| BAUMI2-15 | 2026-08-31 11:46:39 | 48.57952 | 12.72879 | 36° | 24km/h | 18364m | 4.7m/s | -54.5°C | 4.3% | 75.3hPa | 2.7V | 00:00:00 | 01:17:17 | 08:30:00 | |
| OE5REO-15 | 2026-08-31 11:46:36 | 48.57937 | 12.72862 | 39° | 24km/h | 18350m | 5.7m/s | -54.7°C | 1.4% | 75.5hPa | 2.7V | 00:00:00 | 00:00:00 | 00:00:00 | |
| OE5MMP-10 | 2026-08-31 11:46:34 | 48.57928 | 12.72851 | 38° | 31km/h | 18340m | 5.1m/s | -54.6°C | 4.3% | 75.6hPa | 2.7V | 00:00:00 | 01:17:12 | 00:00:00 | |
| DL6DJ-15 | 2026-08-31 11:46:33 | 48.57923 | 12.72846 | 33° | 26km/h | 18334m | 5.3m/s | -54.6°C | 1.4% | 75.7hPa | 2.7V | 00:00:00 | 00:00:00 | 00:00:00 | |
| DG1MFX-10 | 2026-08-31 11:46:31 | 48.57910 | 12.72834 | 34° | 31km/h | 18325m | 5.5m/s | -54.6°C | 1.4% | 75.8hPa | 2.7V | 00:00:00 | 00:00:00 | 00:00:00 | |
| PETON7-10 | 2026-08-31 11:46:29 | 48.57897 | 12.72822 | 29° | 24km/h | 18316m | 3.4m/s | -54.7°C | 4.3% | 75.9hPa | 2.7V | 00:00:00 | 00:00:00 | 08:30:00 | |
| DO3MHA-11 | 2026-08-31 11:46:27 | 48.57881 | 12.72811 | 22° | 24km/h | 18307m | 4.3m/s | -54.9°C | 4.4% | 76.0hPa | 2.7V | 00:00:00 | 01:17:05 | 00:00:00 | |
| BAUMI2-15 | 2026-08-31 11:46:24 | 48.57860 | 12.72800 | 17° | 16km/h | 18293m | 4.8m/s | -54.6°C | 4.4% | 76.2hPa | 2.7V | 00:00:00 | 01:17:02 | 00:00:00 | |
| OE5DRO-10 | 2026-08-31 11:46:22 | 48.57851 | 12.72797 | 16° | 22km/h | 18283m | 5.6m/s | -54.6°C | 4.4% | 76.3hPa | 2.6V | 00:00:00 | 00:00:00 | 00:00:00 | |
| OE5FHM-15 | 2026-08-31 11:46:21 | 48.57847 | 12.72795 | 17° | 26km/h | 18278m | 4.6m/s | -54.5°C | 4.4% | 76.3hPa | 2.6V | 00:00:00 | 01:16:59 | 00:00:00 | |
| OE5WHR-10 | 2026-08-31 11:46:20 | 48.57844 | 12.72793 | 20° | 24km/h | 18273m | 4.6m/s | -54.5°C | 4.4% | 76.4hPa | 2.6V | 00:00:00 | 01:16:58 | 00:00:00 | |
| BAUMI2-15 | 2026-08-31 11:46:19 | 48.57841 | 12.72792 | 20° | 24km/h | 18269m | 4.5m/s | -54.5°C | 4.4% | 76.4hPa | 2.6V | 00:00:00 | 01:16:57 | 00:00:00 | |
| PETON7-10 | 2026-08-31 11:46:14 | 48.57808 | 12.72781 | 13° | 26km/h | 18247m | 4.5m/s | -54.5°C | 4.3% | 76.7hPa | 2.6V | 00:00:00 | 00:00:00 | 00:00:00 | |
| DG1MFX-10 | 2026-08-31 11:46:11 | 48.57788 | 12.72768 | 35° | 26km/h | 18231m | 4.7m/s | -54.3°C | 1.4% | 76.9hPa | 2.6V | 00:00:00 | 00:00:00 | 00:00:00 | |
| BAUMI2-15 | 2026-08-31 11:46:09 | 48.57778 | 12.72757 | 41° | 18km/h | 18220m | 5.6m/s | -54.3°C | 4.4% | 77.0hPa | 2.6V | 00:00:00 | 01:16:47 | 00:00:00 | |
| DK5PH-5 | 2026-08-31 11:46:06 | 48.57768 | 12.72742 | 46° | 27km/h | 18204m | 5.3m/s | -54.1°C | 4.3% | 77.2hPa | 2.6V | 00:00:00 | 01:16:44 | 00:00:00 | |
| OE5REO-15 | 2026-08-31 11:46:05 | 48.57765 | 12.72738 | 44° | 16km/h | 18200m | 3.2m/s | -54.0°C | 1.4% | 77.3hPa | 2.6V | 00:00:00 | 00:00:00 | 00:00:00 | |
| OE5MMP-10 | 2026-08-31 11:46:04 | 48.57762 | 12.72734 | 39° | 31km/h | 18195m | 4.8m/s | -54.0°C | 4.3% | 77.3hPa | 2.6V | 00:00:00 | 01:16:42 | 00:00:00 | |
| OE5DRO-10 | 2026-08-31 11:46:03 | 48.57757 | 12.72729 | 36° | 27km/h | 18190m | 5.6m/s | -54.0°C | 4.3% | 77.4hPa | 2.6V | 00:00:00 | 00:00:00 | 00:00:00 | |
| DL6DJ-15 | 2026-08-31 11:46:02 | 48.57752 | 12.72724 | 33° | 27km/h | 18185m | 4.7m/s | -54.0°C | 1.3% | 77.5hPa | 2.6V | 00:00:00 | 00:00:00 | 00:00:00 | |
| PG1ADW-2 | 2026-08-31 11:46:00 | 48.57738 | 12.72711 | 34° | 27km/h | 18175m | 4.4m/s | -53.8°C | 4.2% | 77.6hPa | 2.6V | 00:00:00 | 00:00:00 | 00:00:00 | |
| OE5WHR-10 | 2026-08-31 11:45:59 | 48.57731 | 12.72703 | 35° | 27km/h | 18170m | 4.9m/s | -53.8°C | 4.1% | 77.6hPa | 2.6V | 00:00:00 | 00:00:00 | 00:00:00 | |
| OE5MMP-10 | 2026-08-31 11:45:54 | 48.57700 | 12.72665 | 52° | 24km/h | 18144m | 4.7m/s | -53.7°C | 4.1% | 77.9hPa | 2.6V | 00:00:00 | 01:16:32 | 00:00:00 | |
| OE5FHM-15 | 2026-08-31 11:45:51 | 48.57693 | 12.72645 | 67° | 31km/h | 18128m | 3.7m/s | -53.8°C | 4.2% | 78.1hPa | 2.6V | 00:00:00 | 01:16:29 | 00:00:00 | |
| DG1MFX-10 | 2026-08-31 11:45:50 | 48.57693 | 12.72645 | 67° | 20km/h | 18128m | 3.8m/s | -53.9°C | 1.4% | 78.2hPa | 2.6V | 00:00:00 | 00:00:00 | 00:00:00 | |
| OE5DXL-15 | 2026-08-31 11:45:49 | 48.57688 | 12.72631 | 51° | 31km/h | 18118m | 4.7m/s | -53.7°C | 4.2% | 78.2hPa | 2.6V | 00:00:00 | 00:00:00 | 00:00:00 | |
| OE5HKT-10 | 2026-08-31 11:45:43 | 48.57658 | 12.72579 | 48° | 31km/h | 18090m | 5.2m/s | -54.1°C | 4.2% | 78.6hPa | 2.6V | 00:00:00 | 01:16:21 | 00:00:00 | |
| DO3MHA-11 | 2026-08-31 11:45:41 | 48.57649 | 12.72562 | 54° | 37km/h | 18080m | 5.4m/s | -54.0°C | 4.1% | 78.7hPa | 2.6V | 00:00:00 | 01:16:19 | 00:00:00 | |
| PG1ADW-2 | 2026-08-31 11:45:40 | 48.57645 | 12.72553 | 63° | 33km/h | 18075m | 5.9m/s | -54.0°C | 4.1% | 78.8hPa | 2.7V | 00:00:00 | 01:16:18 | 00:00:00 | |
| BAUMI2-15 | 2026-08-31 11:45:39 | 48.57642 | 12.72545 | 68° | 29km/h | 18069m | 4.5m/s | -54.0°C | 4.2% | 78.9hPa | 2.7V | 00:00:00 | 01:16:17 | 00:00:00 | |
| OE5WHR-10 | 2026-08-31 11:45:38 | 48.57640 | 12.72536 | 68° | 35km/h | 18065m | 4.8m/s | -54.0°C | 4.3% | 78.9hPa | 2.7V | 00:00:00 | 00:00:00 | 00:00:00 | |
| DK5PH-5 | 2026-08-31 11:45:36 | 48.57633 | 12.72517 | 61° | 37km/h | 18055m | 4.2m/s | -53.9°C | 4.3% | 79.0hPa | 2.7V | 00:00:00 | 01:16:14 | 00:00:00 | |
| BAUMI2-15 | 2026-08-31 11:45:34 | 48.57625 | 12.72493 | 61° | 40km/h | 18046m | 4.6m/s | -53.8°C | 4.2% | 79.2hPa | 2.7V | 00:00:00 | 01:16:12 | 00:00:00 | |
| DL6DJ-15 | 2026-08-31 11:45:31 | 48.57608 | 12.72456 | 50° | 40km/h | 18032m | 4.3m/s | -53.8°C | 1.4% | 79.4hPa | 2.7V | 00:00:00 | 00:00:00 | 00:00:00 | |
| DG1MFX-10 | 2026-08-31 11:45:30 | 48.57608 | 12.72456 | 52° | 40km/h | 18032m | 4.3m/s | -53.8°C | 1.4% | 79.4hPa | 2.7V | 00:00:00 | 00:00:00 | 00:00:00 | |
| BAUMI2-15 | 2026-08-31 11:45:29 | 48.57595 | 12.72432 | 55° | 33km/h | 18024m | 4.9m/s | -53.8°C | 4.1% | 79.4hPa | 2.7V | 00:00:00 | 01:16:07 | 00:00:00 | |
| DO3MHA-11 | 2026-08-31 11:45:28 | 48.57590 | 12.72420 | 61° | 35km/h | 18019m | 4.8m/s | -53.9°C | 4.1% | 79.5hPa | 2.7V | 00:00:00 | 01:16:06 | 00:00:00 | |
| OE5DRO-10 | 2026-08-31 11:45:25 | 48.57580 | 12.72387 | 69° | 35km/h | 18005m | 4.5m/s | -53.9°C | 4.2% | 79.7hPa | 2.7V | 00:00:00 | 00:00:00 | 00:00:00 | |
| OE5MMP-10 | 2026-08-31 11:45:24 | 48.57578 | 12.72377 | 75° | 38km/h | 18000m | 5.0m/s | -53.9°C | 4.2% | 79.7hPa | 2.7V | 00:00:00 | 01:16:02 | 00:00:00 | |
| OE5HKT-10 | 2026-08-31 11:45:22 | 48.57574 | 12.72356 | 74° | 35km/h | 17991m | 3.8m/s | -53.8°C | 4.2% | 79.8hPa | 2.7V | 00:00:00 | 00:00:00 | 08:30:00 | |
| OE5FHM-15 | 2026-08-31 11:45:21 | 48.57572 | 12.72344 | 68° | 40km/h | 17986m | 5.5m/s | -53.8°C | 4.2% | 79.9hPa | 2.6V | 00:00:00 | 01:15:59 | 00:00:00 | |
| OE5REO-15 | 2026-08-31 11:45:20 | 48.57568 | 12.72332 | 61° | 38km/h | 17981m | 4.3m/s | -53.8°C | 1.4% | 80.0hPa | 2.6V | 00:00:00 | 00:00:00 | 00:00:00 | |
| BAUMI2-15 | 2026-08-31 11:45:19 | 48.57562 | 12.72319 | 57° | 44km/h | 17977m | 4.1m/s | -53.8°C | 4.2% | 80.0hPa | 2.6V | 00:00:00 | 01:15:57 | 00:00:00 | |
| DO3MHA-11 | 2026-08-31 11:45:18 | 48.57550 | 12.72291 | 59° | 35km/h | 17967m | 4.7m/s | -53.7°C | 4.2% | 80.1hPa | 2.6V | 00:00:00 | 01:15:55 | 00:00:00 | |
| OE5MMP-10 | 2026-08-31 11:45:14 | 48.57533 | 12.72249 | 59° | 35km/h | 17953m | 4.5m/s | -53.7°C | 4.1% | 80.3hPa | 2.6V | 00:00:00 | 01:15:52 | 00:00:00 | |
| BAUMI2-15 | 2026-08-31 11:45:09 | 48.57518 | 12.72194 | 70° | 35km/h | 17930m | 3.9m/s | -53.9°C | 4.1% | 80.6hPa | 2.6V | 00:00:00 | 01:15:47 | 08:30:00 | |
| DO3MHA-11 | 2026-08-31 11:45:07 | 48.57512 | 12.72170 | 72° | 46km/h | 17922m | 5.4m/s | -53.8°C | 4.1% | 80.7hPa | 2.6V | 00:00:00 | 01:15:45 | 00:00:00 | |
| DK5PH-5 | 2026-08-31 11:45:06 | 48.57509 | 12.72155 | 73° | 44km/h | 17916m | 4.8m/s | -53.8°C | 4.1% | 80.8hPa | 2.7V | 00:00:00 | 01:15:44 | 08:30:00 | |
| PG1ADW-2 | 2026-08-31 11:45:00 | 48.57480 | 12.72054 | 62° | 42km/h | 17888m | 3.9m/s | -53.8°C | 4.1% | 81.1hPa | 2.7V | 00:00:00 | 00:00:00 | 00:00:00 | |
| OE5HKT-10 | 2026-08-31 11:44:59 | 48.57474 | 12.72040 | 58° | 40km/h | 17884m | 5.5m/s | -53.8°C | 4.2% | 81.2hPa | 2.6V | 00:00:00 | 00:00:00 | 00:00:00 | |
| DO3MHA-11 | 2026-08-31 11:44:57 | 48.57461 | 12.72014 | 51° | 40km/h | 17874m | 3.7m/s | -53.7°C | 4.1% | 81.3hPa | 2.6V | 00:00:00 | 01:15:35 | 00:00:00 | |
| OE5WHR-10 | 2026-08-31 11:44:56 | 48.57455 | 12.72002 | 52° | 42km/h | 17870m | 5.3m/s | -53.7°C | 4.1% | 81.4hPa | 2.6V | 00:00:00 | 00:00:00 | 08:30:00 | |
| OE5MMP-10 | 2026-08-31 11:44:54 | 48.57444 | 12.71978 | 59° | 42km/h | 17861m | 3.2m/s | -53.6°C | 4.1% | 81.5hPa | 2.6V | 00:00:00 | 01:15:32 | 00:00:00 | |
| OE5FHM-15 | 2026-08-31 11:44:51 | 48.57427 | 12.71939 | 55° | 47km/h | 17848m | 4.9m/s | -53.8°C | 4.1% | 81.7hPa | 2.6V | 00:00:00 | 01:15:29 | 08:30:00 | |
| OE5DXL-15 | 2026-08-31 11:44:49 | 48.57415 | 12.71913 | 58° | 47km/h | 17838m | 5.5m/s | -53.8°C | 4.1% | 81.8hPa | 2.6V | 00:00:00 | 00:00:00 | 00:00:00 | |
| OE5REO-15 | 2026-08-31 11:44:48 | 48.57415 | 12.71913 | 59° | 44km/h | 17838m | 5.6m/s | -53.9°C | 1.4% | 81.8hPa | 2.6V | 00:00:00 | 00:00:00 | 00:00:00 | |
| DO3MHA-11 | 2026-08-31 11:44:47 | 48.57404 | 12.71884 | 60° | 44km/h | 17829m | 4.5m/s | -53.9°C | 4.2% | 81.9hPa | 2.6V | 00:00:00 | 01:15:25 | 00:00:00 | |
| OE5DRO-10 | 2026-08-31 11:44:46 | 48.57398 | 12.71870 | 56° | 46km/h | 17824m | 5.0m/s | -53.9°C | 4.2% | 82.0hPa | 2.6V | 00:00:00 | 00:00:00 | 08:30:00 | |
| PETON7-10 | 2026-08-31 11:44:44 | 48.57384 | 12.71843 | 52° | 46km/h | 17815m | 4.4m/s | -53.9°C | 4.2% | 82.1hPa | 2.7V | 00:00:00 | 00:00:00 | 00:00:00 | |
| PG1ADW-2 | 2026-08-31 11:44:40 | 48.57355 | 12.71790 | 47° | 49km/h | 17795m | 4.5m/s | -54.1°C | 4.2% | 82.3hPa | 2.7V | 00:00:00 | 00:00:00 | 00:00:00 | |
| DO3MHA-11 | 2026-08-31 11:44:37 | 48.57336 | 12.71754 | 57° | 51km/h | 17782m | 3.5m/s | -54.3°C | 4.2% | 82.5hPa | 2.7V | 00:00:00 | 01:15:15 | 08:30:00 | |
| OE5HKT-10 | 2026-08-31 11:44:36 | 48.57330 | 12.71742 | 56° | 51km/h | 17778m | 4.8m/s | -54.2°C | 4.2% | 82.5hPa | 2.7V | 00:00:00 | 01:15:14 | 00:00:00 | |
| OE5WHR-10 | 2026-08-31 11:44:35 | 48.57325 | 12.71730 | 54° | 53km/h | 17773m | 4.3m/s | -54.2°C | 4.3% | 82.6hPa | 2.7V | 00:00:00 | 00:00:00 | 00:00:00 | |
| OE5MMP-10 | 2026-08-31 11:44:34 | 48.57318 | 12.71718 | 52° | 55km/h | 17769m | 3.6m/s | -54.2°C | 4.3% | 82.7hPa | 2.7V | 00:00:00 | 01:15:12 | 00:00:00 | |
| OE5REO-15 | 2026-08-31 11:44:33 | 48.57311 | 12.71704 | 52° | 47km/h | 17765m | 4.6m/s | -54.3°C | 1.4% | 82.8hPa | 2.7V | 00:00:00 | 00:00:00 | 00:00:00 | |
| DO3MHA-11 | 2026-08-31 11:44:27 | 48.57255 | 12.71606 | 44° | 53km/h | 17738m | 4.1m/s | -54.0°C | 4.3% | 83.1hPa | 2.7V | 00:00:00 | 01:15:05 | 00:00:00 | |
| OE5MMP-10 | 2026-08-31 11:44:24 | 48.57227 | 12.71564 | 47° | 53km/h | 17725m | 4.2m/s | -54.1°C | 4.3% | 83.2hPa | 2.7V | 00:00:00 | 01:15:02 | 00:00:00 | |
| PG1ADW-2 | 2026-08-31 11:44:20 | 48.57190 | 12.71506 | 50° | 49km/h | 17706m | 4.2m/s | -54.0°C | 4.3% | 83.5hPa | 2.7V | 00:00:00 | 01:14:58 | 00:00:00 | |
| OE5DXL-15 | 2026-08-31 11:44:19 | 48.57182 | 12.71491 | 49° | 47km/h | 17702m | 3.6m/s | -53.9°C | 4.3% | 83.5hPa | 2.7V | 00:00:00 | 00:00:00 | 00:00:00 | |
| DO3MHA-11 | 2026-08-31 11:44:17 | 48.57164 | 12.71462 | 45° | 49km/h | 17692m | 4.4m/s | -53.8°C | 4.3% | 83.7hPa | 2.7V | 00:00:00 | 01:14:55 | 00:00:00 | |
| OE5HKT-10 | 2026-08-31 11:44:15 | 48.57145 | 12.71434 | 47° | 46km/h | 17683m | 4.6m/s | -53.8°C | 4.3% | 83.8hPa | 2.7V | 00:00:00 | 00:00:00 | 00:00:00 | |
| OE5WHR-10 | 2026-08-31 11:44:14 | 48.57136 | 12.71419 | 47° | 47km/h | 17679m | 3.7m/s | -53.8°C | 4.3% | 83.9hPa | 2.6V | 00:00:00 | 01:14:52 | 00:00:00 | |
| DO3MHA-11 | 2026-08-31 11:44:07 | 48.57077 | 12.71331 | 43° | 47km/h | 17645m | 4.9m/s | -53.5°C | 4.2% | 84.3hPa | 2.6V | 00:00:00 | 01:14:45 | 00:00:00 | |
| DK5PH-5 | 2026-08-31 11:44:06 | 48.57069 | 12.71319 | 44° | 46km/h | 17640m | 3.8m/s | -53.4°C | 4.2% | 84.4hPa | 2.7V | 00:00:00 | 01:14:44 | 00:00:00 | |
| OE5MMP-10 | 2026-08-31 11:44:04 | 48.57053 | 12.71295 | 48° | 49km/h | 17631m | 4.7m/s | -53.4°C | 4.2% | 84.5hPa | 2.7V | 00:00:00 | 01:14:42 | 00:00:00 | |
| DL6DJ-15 | 2026-08-31 11:43:58 | 48.56998 | 12.71214 | 43° | 51km/h | 17603m | 3.5m/s | -53.3°C | 1.3% | 84.9hPa | 2.7V | 00:00:00 | 00:00:00 | 00:00:00 | |
| DO3MHA-11 | 2026-08-31 11:43:57 | 48.56989 | 12.71201 | 43° | 44km/h | 17599m | 5.1m/s | -53.2°C | 4.2% | 84.9hPa | 2.7V | 00:00:00 | 01:14:35 | 00:00:00 | |
| OE5MMP-10 | 2026-08-31 11:43:54 | 48.56962 | 12.71167 | 43° | 44km/h | 17584m | 5.5m/s | -53.1°C | 4.1% | 85.1hPa | 2.7V | 00:00:00 | 01:14:32 | 00:00:00 | |
| OE5WHR-10 | 2026-08-31 11:43:53 | 48.56955 | 12.71156 | 45° | 46km/h | 17579m | 4.2m/s | -53.1°C | 4.1% | 85.2hPa | 2.7V | 00:00:00 | 00:00:00 | 00:00:00 | |
| OE5FHM-15 | 2026-08-31 11:43:51 | 48.56940 | 12.71135 | 42° | 46km/h | 17570m | 4.7m/s | -53.0°C | 4.0% | 85.3hPa | 2.6V | 00:00:00 | 01:14:29 | 00:00:00 | |
| OE5DXL-15 | 2026-08-31 11:43:50 | 48.56924 | 12.71113 | 45° | 46km/h | 17560m | 5.1m/s | -53.0°C | 4.0% | 85.4hPa | 2.6V | 00:00:00 | 00:00:00 | 00:00:00 | |
| DO3MHA-11 | 2026-08-31 11:43:47 | 48.56908 | 12.71088 | 45° | 44km/h | 17552m | 3.9m/s | -52.9°C | 4.0% | 85.5hPa | 2.6V | 00:00:00 | 01:14:25 | 00:00:00 | |
| OE5REO-15 | 2026-08-31 11:43:46 | 48.56908 | 12.71088 | 45° | 47km/h | 17552m | 4.0m/s | -53.0°C | 1.3% | 85.6hPa | 2.6V | 00:00:00 | 00:00:00 | 00:00:00 | |
| PETON7-10 | 2026-08-31 11:43:44 | 48.56881 | 12.71056 | 34° | 47km/h | 17539m | 3.7m/s | -52.9°C | 4.0% | 85.7hPa | 2.6V | 00:00:00 | 01:14:22 | 00:00:00 | |
| PG1ADW-2 | 2026-08-31 11:43:40 | 48.56845 | 12.71020 | 31° | 47km/h | 17521m | 5.6m/s | -52.7°C | 4.0% | 85.9hPa | 2.6V | 00:00:00 | 00:00:00 | 00:00:00 | |
| DO3MHA-11 | 2026-08-31 11:43:37 | 48.56814 | 12.70993 | 33° | 47km/h | 17507m | 5.3m/s | -52.7°C | 4.0% | 86.1hPa | 2.6V | 00:00:00 | 01:14:15 | 00:00:00 | |
| DK5PH-5 | 2026-08-31 11:43:36 | 48.56803 | 12.70983 | 35° | 42km/h | 17502m | 4.2m/s | -52.8°C | 4.0% | 86.2hPa | 2.7V | 00:00:00 | 01:14:14 | 00:00:00 | |
| OE5MMP-10 | 2026-08-31 11:43:34 | 48.56782 | 12.70961 | 34° | 46km/h | 17493m | 5.5m/s | -52.7°C | 4.0% | 86.3hPa | 2.7V | 00:00:00 | 01:14:12 | 00:00:00 | |
| OE5REO-15 | 2026-08-31 11:43:32 | 48.56761 | 12.70940 | 36° | 47km/h | 17484m | 5.1m/s | -52.7°C | 1.4% | 86.5hPa | 2.7V | 00:00:00 | 00:00:00 | 00:00:00 | |
| PETON7-10 | 2026-08-31 11:43:29 | 48.56734 | 12.70910 | 34° | 44km/h | 17471m | 5.1m/s | -52.7°C | 4.0% | 86.6hPa | 2.7V | 00:00:00 | 00:00:00 | 00:00:00 | |
| DO3MHA-11 | 2026-08-31 11:43:27 | 48.56715 | 12.70892 | 32° | 44km/h | 17461m | 4.2m/s | -52.7°C | 4.0% | 86.8hPa | 2.7V | 00:00:00 | 01:14:05 | 00:00:00 | |
| OE5MMP-10 | 2026-08-31 11:43:24 | 48.56686 | 12.70864 | 31° | 42km/h | 17447m | 5.6m/s | -52.6°C | 3.8% | 87.0hPa | 2.7V | 00:00:00 | 01:14:02 | 00:00:00 | |
| OE5DRO-10 | 2026-08-31 11:43:22 | 48.56665 | 12.70847 | 31° | 37km/h | 17438m | 4.2m/s | -52.6°C | 3.8% | 87.1hPa | 2.7V | 00:00:00 | 00:00:00 | 00:00:00 | |
| PG1ADW-2 | 2026-08-31 11:43:20 | 48.56647 | 12.70829 | 36° | 37km/h | 17428m | 4.6m/s | -52.6°C | 3.8% | 87.2hPa | 2.7V | 00:00:00 | 00:00:00 | 00:00:00 | |
| OE5DXL-15 | 2026-08-31 11:43:19 | 48.56638 | 12.70819 | 36° | 40km/h | 17424m | 5.1m/s | -52.6°C | 3.8% | 87.3hPa | 2.7V | 00:00:00 | 00:00:00 | 00:00:00 | |
| DO3MHA-11 | 2026-08-31 11:43:17 | 48.56621 | 12.70801 | 35° | 38km/h | 17414m | 4.0m/s | -52.5°C | 3.7% | 87.4hPa | 2.7V | 00:00:00 | 01:13:55 | 00:00:00 | |
| OE5REO-15 | 2026-08-31 11:43:15 | 48.56614 | 12.70793 | 39° | 38km/h | 17410m | 4.8m/s | -52.5°C | 1.2% | 87.5hPa | 2.7V | 00:00:00 | 00:00:00 | 00:00:00 | |
| PETON7-10 | 2026-08-31 11:43:14 | 48.56599 | 12.70773 | 44° | 35km/h | 17400m | 4.4m/s | -52.5°C | 3.7% | 87.6hPa | 2.7V | 00:00:00 | 00:00:00 | 00:00:00 | |
| OE5WHR-10 | 2026-08-31 11:43:11 | 48.56577 | 12.70746 | 34° | 38km/h | 17385m | 4.2m/s | -53.0°C | 3.8% | 87.8hPa | 2.7V | 00:00:00 | 01:13:49 | 00:00:00 | |
| DO3MHA-11 | 2026-08-31 11:43:07 | 48.56545 | 12.70716 | 30° | 35km/h | 17366m | 5.3m/s | -53.8°C | 4.1% | 88.0hPa | 2.7V | 00:00:00 | 01:13:45 | 08:30:00 | |
| DK5PH-5 | 2026-08-31 11:43:06 | 48.56538 | 12.70709 | 31° | 44km/h | 17361m | 4.3m/s | -53.8°C | 4.0% | 88.1hPa | 2.7V | 00:00:00 | 01:13:44 | 00:00:00 | |
| OE5MMP-10 | 2026-08-31 11:43:04 | 48.56524 | 12.70694 | 44° | 38km/h | 17351m | 4.1m/s | -53.9°C | 4.0% | 88.3hPa | 2.7V | 00:00:00 | 01:13:42 | 00:00:00 | |
| OE5DRO-10 | 2026-08-31 11:43:03 | 48.56518 | 12.70685 | 48° | 44km/h | 17348m | 3.5m/s | -53.9°C | 4.0% | 88.3hPa | 2.7V | 00:00:00 | 00:00:00 | 00:00:00 | |
| DL6DJ-15 | 2026-08-31 11:42:56 | 48.56469 | 12.70620 | 37° | 42km/h | 17316m | 5.7m/s | -54.2°C | 1.4% | 88.8hPa | 2.7V | 00:00:00 | 00:00:00 | 00:00:00 | |
| OE5MMP-10 | 2026-08-31 11:42:54 | 48.56451 | 12.70599 | 40° | 47km/h | 17307m | 4.3m/s | -54.2°C | 4.2% | 88.9hPa | 2.7V | 00:00:00 | 01:13:32 | 00:00:00 | |
| BAUMI2-15 | 2026-08-31 11:42:52 | 48.56433 | 12.70574 | 46° | 49km/h | 17297m | 4.4m/s | -54.1°C | 4.2% | 89.0hPa | 2.7V | 00:00:00 | 01:13:30 | 00:00:00 | |
| OE5FHM-15 | 2026-08-31 11:42:51 | 48.56424 | 12.70560 | 46° | 46km/h | 17293m | 4.1m/s | -54.1°C | 4.2% | 89.1hPa | 2.6V | 00:00:00 | 01:13:29 | 00:00:00 | |
| OE5WHR-10 | 2026-08-31 11:42:50 | 48.56415 | 12.70547 | 45° | 47km/h | 17288m | 5.5m/s | -54.1°C | 4.1% | 89.1hPa | 2.6V | 00:00:00 | 00:00:00 | 00:00:00 | |
| OE5DXL-15 | 2026-08-31 11:42:49 | 48.56407 | 12.70534 | 45° | 44km/h | 17283m | 4.5m/s | -54.1°C | 4.1% | 89.2hPa | 2.6V | 00:00:00 | 00:00:00 | 08:30:00 | |
| DO3MHA-11 | 2026-08-31 11:42:47 | 48.56390 | 12.70509 | 46° | 49km/h | 17272m | 4.4m/s | -54.2°C | 4.2% | 89.3hPa | 2.6V | 00:00:00 | 01:13:25 | 00:00:00 | |
| DG1MFX-10 | 2026-08-31 11:42:46 | 48.56381 | 12.70496 | 45° | 47km/h | 17268m | 4.5m/s | -54.3°C | 1.5% | 89.4hPa | 2.6V | 00:00:00 | 00:00:00 | 00:00:00 | |
| PETON7-10 | 2026-08-31 11:42:44 | 48.56363 | 12.70472 | 39° | 47km/h | 17259m | 3.3m/s | -54.4°C | 4.2% | 89.5hPa | 2.6V | 00:00:00 | 00:00:00 | 00:00:00 | |
| BAUMI2-15 | 2026-08-31 11:42:42 | 48.56343 | 12.70449 | 39° | 51km/h | 17250m | 4.5m/s | -54.6°C | 4.2% | 89.6hPa | 2.6V | 00:00:00 | 01:13:20 | 00:00:00 | |
| PG1ADW-2 | 2026-08-31 11:42:40 | 48.56323 | 12.70426 | 35° | 44km/h | 17241m | 5.4m/s | -54.7°C | 4.3% | 89.8hPa | 2.6V | 00:00:00 | 00:00:00 | 00:00:00 | |
| DO3MHA-11 | 2026-08-31 11:42:37 | 48.56291 | 12.70394 | 38° | 46km/h | 17227m | 4.9m/s | -54.8°C | 4.4% | 90.0hPa | 2.6V | 00:00:00 | 01:13:15 | 00:00:00 | |
| DK5PH-5 | 2026-08-31 11:42:36 | 48.56282 | 12.70382 | 41° | 37km/h | 17223m | 4.0m/s | -54.8°C | 4.5% | 90.0hPa | 2.6V | 00:00:00 | 01:13:14 | 00:00:00 | |
| OE5MMP-10 | 2026-08-31 11:42:34 | 48.56263 | 12.70359 | 40° | 42km/h | 17213m | 5.1m/s | -54.9°C | 4.5% | 90.2hPa | 2.6V | 00:00:00 | 01:13:12 | 00:00:00 | |
| BAUMI2-15 | 2026-08-31 11:42:32 | 48.56246 | 12.70337 | 41° | 42km/h | 17204m | 5.1m/s | -55.0°C | 4.5% | 90.3hPa | 2.6V | 00:00:00 | 01:13:10 | 00:00:00 | |
| OE5WHR-10 | 2026-08-31 11:42:29 | 48.56221 | 12.70306 | 35° | 35km/h | 17190m | 5.2m/s | -55.1°C | 4.5% | 90.5hPa | 2.6V | 00:00:00 | 00:00:00 | 00:00:00 | |
| OE5REO-15 | 2026-08-31 11:42:28 | 48.56221 | 12.70306 | 36° | 42km/h | 17190m | 5.2m/s | -55.1°C | 1.5% | 90.6hPa | 2.6V | 00:00:00 | 00:00:00 | 00:00:00 | |
| BAUMI2-15 | 2026-08-31 11:42:27 | 48.56203 | 12.70290 | 30° | 40km/h | 17182m | 3.7m/s | -55.0°C | 4.3% | 90.6hPa | 2.6V | 00:00:00 | 01:13:05 | 00:00:00 | |
| DG1MFX-10 | 2026-08-31 11:42:26 | 48.56195 | 12.70282 | 32° | 40km/h | 17177m | 5.2m/s | -55.1°C | 1.5% | 90.7hPa | 2.6V | 00:00:00 | 00:00:00 | 00:00:00 | |
| DL6DJ-15 | 2026-08-31 11:42:25 | 48.56178 | 12.70265 | 38° | 38km/h | 17168m | 4.0m/s | -55.0°C | 1.5% | 90.9hPa | 2.6V | 00:00:00 | 00:00:00 | 00:00:00 | |
| OE5MMP-10 | 2026-08-31 11:42:24 | 48.56178 | 12.70265 | 39° | 33km/h | 17168m | 3.9m/s | -54.9°C | 4.3% | 90.8hPa | 2.6V | 00:00:00 | 01:13:02 | 00:00:00 | |
| BAUMI2-15 | 2026-08-31 11:42:22 | 48.56163 | 12.70246 | 43° | 33km/h | 17159m | 4.6m/s | -54.9°C | 4.4% | 90.9hPa | 2.6V | 00:00:00 | 01:13:00 | 08:30:00 | |
| OE5FHM-15 | 2026-08-31 11:42:21 | 48.56157 | 12.70237 | 46° | 29km/h | 17154m | 4.6m/s | -54.9°C | 4.5% | 91.0hPa | 2.7V | 00:00:00 | 01:12:59 | 00:00:00 | |
| PG1ADW-2 | 2026-08-31 11:42:20 | 48.56151 | 12.70227 | 49° | 29km/h | 17150m | 5.3m/s | -54.8°C | 4.5% | 91.1hPa | 2.7V | 00:00:00 | 00:00:00 | 00:00:00 | |
| OE5DXL-15 | 2026-08-31 11:42:19 | 48.56145 | 12.70218 | 52° | 29km/h | 17145m | 3.9m/s | -54.8°C | 4.6% | 91.2hPa | 2.7V | 00:00:00 | 00:00:00 | 00:00:00 | |
| BAUMI2-15 | 2026-08-31 11:42:17 | 48.56137 | 12.70199 | 58° | 29km/h | 17135m | 3.7m/s | -54.7°C | 4.5% | 91.3hPa | 2.7V | 00:00:00 | 01:12:55 | 00:00:00 | |
| PETON7-10 | 2026-08-31 11:42:14 | 48.56125 | 12.70170 | 56° | 29km/h | 17122m | 3.6m/s | -54.7°C | 4.4% | 91.5hPa | 2.7V | 00:00:00 | 01:12:52 | 00:00:00 | |
| BAUMI2-15 | 2026-08-31 11:42:12 | 48.56116 | 12.70152 | 48° | 31km/h | 17112m | 5.0m/s | -54.7°C | 4.3% | 91.6hPa | 2.7V | 00:00:00 | 01:12:50 | 00:00:00 | |
| OE5WHR-10 | 2026-08-31 11:42:08 | 48.56093 | 12.70117 | 48° | 29km/h | 17093m | 4.8m/s | -54.6°C | 4.3% | 91.9hPa | 2.7V | 00:00:00 | 01:12:46 | 00:00:00 | |
| DO3MHA-11 | 2026-08-31 11:42:07 | 48.56088 | 12.70108 | 53° | 27km/h | 17089m | 4.7m/s | -54.5°C | 4.4% | 91.9hPa | 2.7V | 00:00:00 | 01:12:45 | 00:00:00 | |
| DK5PH-5 | 2026-08-31 11:42:06 | 48.56084 | 12.70099 | 60° | 29km/h | 17084m | 4.3m/s | -54.5°C | 4.4% | 92.0hPa | 2.6V | 00:00:00 | 01:12:44 | 00:00:00 | |
| DG1MFX-10 | 2026-08-31 11:42:05 | 48.56081 | 12.70090 | 67° | 29km/h | 17079m | 5.2m/s | -54.5°C | 1.5% | 92.2hPa | 2.7V | 00:00:00 | 00:00:00 | 00:00:00 | |
| OE5MMP-10 | 2026-08-31 11:42:04 | 48.56079 | 12.70080 | 71° | 27km/h | 17075m | 3.8m/s | -54.4°C | 4.3% | 92.2hPa | 2.7V | 00:00:00 | 01:12:42 | 00:00:00 | |
| DL6DJ-15 | 2026-08-31 11:41:54 | 48.56046 | 12.69974 | 70° | 27km/h | 17022m | 4.8m/s | -54.3°C | 1.5% | 93.0hPa | 2.7V | 00:00:00 | 00:00:00 | 00:00:00 | |
| BAUMI2-15 | 2026-08-31 11:41:52 | 48.56044 | 12.69964 | 74° | 29km/h | 17018m | 5.1m/s | -54.3°C | 4.3% | 93.0hPa | 2.7V | 00:00:00 | 01:12:30 | 00:00:00 | |
| OE5FHM-15 | 2026-08-31 11:41:49 | 48.56038 | 12.69932 | 73° | 35km/h | 17004m | 4.6m/s | -54.2°C | 4.2% | 93.2hPa | 2.6V | 00:00:00 | 01:12:27 | 00:00:00 | |
| BAUMI2-15 | 2026-08-31 11:41:47 | 48.56033 | 12.69910 | 70° | 29km/h | 16995m | 5.5m/s | -54.3°C | 4.2% | 93.3hPa | 2.6V | 00:00:00 | 01:12:25 | 00:00:00 | |
| OE5MMP-10 | 2026-08-31 11:41:44 | 48.56026 | 12.69880 | 72° | 35km/h | 16982m | 4.7m/s | -54.1°C | 4.1% | 93.5hPa | 2.6V | 00:00:00 | 01:12:22 | 00:00:00 | |
| BAUMI2-15 | 2026-08-31 11:41:42 | 48.56022 | 12.69857 | 77° | 35km/h | 16972m | 4.2m/s | -54.1°C | 4.1% | 93.7hPa | 2.6V | 00:00:00 | 01:12:20 | 00:00:00 | |
| OE5REO-15 | 2026-08-31 11:41:41 | 48.56022 | 12.69857 | 78° | 33km/h | 16972m | 4.3m/s | -54.1°C | 1.5% | 93.7hPa | 2.6V | 00:00:00 | 00:00:00 | 00:00:00 | |
| DO3MHA-11 | 2026-08-31 11:41:37 | 48.56016 | 12.69792 | 85° | 33km/h | 16948m | 5.0m/s | -54.2°C | 4.2% | 94.0hPa | 2.6V | 00:00:00 | 01:12:15 | 08:30:00 | |
| DK5PH-5 | 2026-08-31 11:41:36 | 48.56015 | 12.69777 | 86° | 42km/h | 16944m | 4.4m/s | -54.2°C | 4.2% | 94.1hPa | 2.6V | 00:00:00 | 01:12:14 | 00:00:00 | |
| OE5MMP-10 | 2026-08-31 11:41:34 | 48.56014 | 12.69750 | 87° | 33km/h | 16934m | 3.8m/s | -54.7°C | 4.3% | 94.2hPa | 2.6V | 00:00:00 | 01:12:12 | 00:00:00 | |
| PETON7-10 | 2026-08-31 11:41:29 | 48.56010 | 12.69690 | 84° | 40km/h | 16910m | 5.5m/s | -55.1°C | 4.5% | 94.6hPa | 2.6V | 00:00:00 | 01:12:07 | 00:00:00 | |
| OE5DRO-10 | 2026-08-31 11:41:28 | 48.56009 | 12.69678 | 85° | 42km/h | 16906m | 3.4m/s | -55.1°C | 4.4% | 94.7hPa | 2.6V | 00:00:00 | 00:00:00 | 00:00:00 | |
| DO3MHA-11 | 2026-08-31 11:41:27 | 48.56008 | 12.69666 | 83° | 40km/h | 16901m | 5.4m/s | -55.1°C | 4.4% | 94.7hPa | 2.6V | 00:00:00 | 01:12:05 | 00:00:00 | |
| OE5WHR-10 | 2026-08-31 11:41:26 | 48.56007 | 12.69653 | 81° | 46km/h | 16896m | 5.0m/s | -55.1°C | 4.4% | 94.8hPa | 2.6V | 00:00:00 | 00:00:00 | 00:00:00 | |
| OE5MMP-10 | 2026-08-31 11:41:24 | 48.56004 | 12.69625 | 83° | 44km/h | 16886m | 5.2m/s | -55.4°C | 4.6% | 94.9hPa | 2.6V | 00:00:00 | 01:12:02 | 00:00:00 | |
| DL6DJ-15 | 2026-08-31 11:41:23 | 48.56002 | 12.69595 | 83° | 40km/h | 16877m | 5.1m/s | -55.5°C | 1.6% | 95.2hPa | 2.6V | 00:00:00 | 00:00:00 | 00:00:00 | |
| OE5FHM-15 | 2026-08-31 11:41:19 | 48.55997 | 12.69545 | 82° | 49km/h | 16862m | 4.7m/s | -55.4°C | 4.6% | 95.3hPa | 2.6V | 00:00:00 | 01:11:57 | 00:00:00 | |
| DO3MHA-11 | 2026-08-31 11:41:17 | 48.55994 | 12.69512 | 83° | 49km/h | 16853m | 4.2m/s | -55.3°C | 4.6% | 95.5hPa | 2.6V | 00:00:00 | 01:11:55 | 00:00:00 | |
| PETON7-10 | 2026-08-31 11:41:14 | 48.55987 | 12.69461 | 76° | 51km/h | 16838m | 3.5m/s | -55.2°C | 4.7% | 95.7hPa | 2.6V | 00:00:00 | 00:00:00 | 00:00:00 | |
| OE5DRO-10 | 2026-08-31 11:41:09 | 48.55973 | 12.69370 | 76° | 55km/h | 16815m | 4.7m/s | -55.0°C | 4.6% | 96.0hPa | 2.6V | 00:00:00 | 00:00:00 | 08:30:00 | |
| OE5REO-15 | 2026-08-31 11:41:08 | 48.55974 | 12.69370 | 77° | 53km/h | 16815m | 4.8m/s | -55.0°C | 1.7% | 96.1hPa | 2.7V | 00:00:00 | 00:00:00 | 00:00:00 | |
| DO3MHA-11 | 2026-08-31 11:41:07 | 48.55967 | 12.69330 | 76° | 51km/h | 16806m | 4.5m/s | -55.0°C | 4.6% | 96.2hPa | 2.7V | 00:00:00 | 01:11:45 | 00:00:00 | |
| DK5PH-5 | 2026-08-31 11:41:06 | 48.55964 | 12.69310 | 78° | 57km/h | 16801m | 5.0m/s | -55.0°C | 4.5% | 96.2hPa | 2.6V | 00:00:00 | 01:11:44 | 00:00:00 | |
| OE5WHR-10 | 2026-08-31 11:41:05 | 48.55961 | 12.69291 | 79° | 55km/h | 16797m | 4.2m/s | -55.0°C | 4.5% | 96.3hPa | 2.6V | 00:00:00 | 01:11:43 | 00:00:00 | |
| OE5MMP-10 | 2026-08-31 11:41:04 | 48.55958 | 12.69272 | 79° | 53km/h | 16792m | 5.2m/s | -54.9°C | 4.5% | 96.4hPa | 2.6V | 00:00:00 | 01:11:42 | 00:00:00 | |
| DG1MFX-10 | 2026-08-31 11:41:03 | 48.55958 | 12.69272 | 80° | 51km/h | 16792m | 5.3m/s | -55.0°C | 1.7% | 96.4hPa | 2.6V | 00:00:00 | 00:00:00 | 00:00:00 | |
| DL6DJ-15 | 2026-08-31 11:40:51 | 48.55924 | 12.69005 | 78° | 58km/h | 16730m | 4.9m/s | -54.6°C | 1.6% | 97.3hPa | 2.6V | 00:00:00 | 00:00:00 | 00:00:00 | |
| OE5DRO-10 | 2026-08-31 11:40:50 | 48.55921 | 12.68983 | 79° | 60km/h | 16726m | 3.3m/s | -54.5°C | 4.3% | 97.4hPa | 2.6V | 00:00:00 | 00:00:00 | 00:00:00 | |
| OE5FHM-15 | 2026-08-31 11:40:49 | 48.55918 | 12.68962 | 78° | 77km/h | 16722m | 4.6m/s | -54.5°C | 4.3% | 97.5hPa | 2.6V | 00:00:00 | 01:11:27 | 00:00:00 | |
| DO3MHA-11 | 2026-08-31 11:40:47 | 48.55911 | 12.68922 | 73° | 57km/h | 16712m | 5.0m/s | -54.6°C | 4.2% | 97.6hPa | 2.6V | 00:00:00 | 01:11:25 | 00:00:00 | |
| PETON7-10 | 2026-08-31 11:40:44 | 48.55900 | 12.68863 | 77° | 62km/h | 16698m | 4.0m/s | -54.7°C | 4.2% | 97.8hPa | 2.6V | 00:00:00 | 01:11:22 | 00:00:00 | |
| DG1MFX-10 | 2026-08-31 11:40:43 | 48.55900 | 12.68863 | 78° | 55km/h | 16698m | 4.0m/s | -54.7°C | 1.6% | 97.9hPa | 2.6V | 00:00:00 | 00:00:00 | 00:00:00 | |
| DO3MHA-11 | 2026-08-31 11:40:37 | 48.55871 | 12.68711 | 78° | 64km/h | 16663m | 3.8m/s | -55.4°C | 4.6% | 98.3hPa | 2.6V | 00:00:00 | 01:11:15 | 00:00:00 | |
| DK5PH-5 | 2026-08-31 11:40:36 | 48.55867 | 12.68686 | 78° | 77km/h | 16659m | 4.0m/s | -55.5°C | 4.6% | 98.4hPa | 2.7V | 00:00:00 | 01:11:14 | 08:30:00 | |
| OE5MMP-10 | 2026-08-31 11:40:34 | 48.55858 | 12.68636 | 75° | 68km/h | 16649m | 4.3m/s | -55.8°C | 4.6% | 98.6hPa | 2.7V | 00:00:00 | 01:11:12 | 00:00:00 | |
| OE5DRO-10 | 2026-08-31 11:40:31 | 48.55846 | 12.68566 | 76° | 78km/h | 16635m | 3.7m/s | -55.6°C | 4.5% | 98.8hPa | 2.7V | 00:00:00 | 00:00:00 | 00:00:00 | |
| DO3MHA-11 | 2026-08-31 11:40:27 | 48.55830 | 12.68472 | 78° | 80km/h | 16618m | 5.5m/s | -56.0°C | 0% | 99.1hPa | 2.7V | 00:00:00 | 01:11:05 | 00:00:00 | |
| DG1MFX-10 | 2026-08-31 11:40:24 | 48.55817 | 12.68385 | 77° | 84km/h | 16603m | 4.2m/s | -56.8°C | 1.9% | 99.3hPa | 2.7V | 00:00:00 | 00:00:00 | 00:00:00 | |
| OE5WHR-10 | 2026-08-31 11:40:23 | 48.55812 | 12.68354 | 75° | 84km/h | 16598m | 6.7m/s | -56.9°C | 5.0% | 99.3hPa | 2.7V | 00:00:00 | 00:00:00 | 00:00:00 | |
| OE5REO-15 | 2026-08-31 11:40:22 | 48.55812 | 12.68354 | 75° | 84km/h | 16598m | 6.8m/s | -56.9°C | 1.9% | 99.4hPa | 2.7V | 00:00:00 | 00:00:00 | 00:00:00 | |
| DL6DJ-15 | 2026-08-31 11:40:20 | 48.55791 | 12.68265 | 68° | 80km/h | 16581m | 6.0m/s | -57.1°C | 1.9% | 99.7hPa | 2.7V | 00:00:00 | 00:00:00 | 00:00:00 | |
| OE5DXL-15 | 2026-08-31 11:40:19 | 48.55783 | 12.68236 | 68° | 82km/h | 16576m | 4.0m/s | -57.2°C | 5.2% | 99.7hPa | 2.7V | 00:00:00 | 00:00:00 | 00:00:00 | |
| DO3MHA-11 | 2026-08-31 11:40:17 | 48.55767 | 12.68180 | 66° | 86km/h | 16566m | 6.8m/s | -57.1°C | 5.1% | 99.9hPa | 2.7V | 00:00:00 | 01:10:55 | 00:00:00 | |
| OE5MMP-10 | 2026-08-31 11:40:14 | 48.55738 | 12.68091 | 65° | 84km/h | 16550m | 5.2m/s | -57.5°C | 5.3% | 100.1hPa | 2.7V | 00:00:00 | 01:10:52 | 00:00:00 | |
| OE5HKT-10 | 2026-08-31 11:40:13 | 48.55729 | 12.68061 | 66° | 82km/h | 16545m | 4.1m/s | -57.5°C | 5.4% | 100.2hPa | 2.6V | 00:00:00 | 00:00:00 | 00:00:00 | |
| OE5DRO-10 | 2026-08-31 11:40:12 | 48.55720 | 12.68031 | 66° | 82km/h | 16542m | 3.2m/s | -57.5°C | 5.3% | 100.2hPa | 2.6V | 00:00:00 | 00:00:00 | 00:00:00 | |
| OE5FHM-15 | 2026-08-31 11:40:11 | 48.55711 | 12.68002 | 65° | 80km/h | 16538m | 5.6m/s | -57.5°C | 5.3% | 100.3hPa | 2.6V | 00:00:00 | 01:10:49 | 08:30:00 | |
| DO3MHA-11 | 2026-08-31 11:40:07 | 48.55671 | 12.67886 | 61° | 80km/h | 16521m | 5.5m/s | -57.4°C | 5.3% | 100.6hPa | 2.6V | 00:00:00 | 01:10:45 | 08:30:00 | |
| DK5PH-5 | 2026-08-31 11:40:06 | 48.55660 | 12.67859 | 60° | 80km/h | 16516m | 4.4m/s | -57.4°C | 5.2% | 100.7hPa | 2.6V | 00:00:00 | 01:10:44 | 00:00:00 | |
| OE5REO-15 | 2026-08-31 11:40:05 | 48.55660 | 12.67859 | 61° | 80km/h | 16516m | 4.5m/s | -57.4°C | 2.0% | 100.7hPa | 2.6V | 00:00:00 | 00:00:00 | 00:00:00 | |
| DG1MFX-10 | 2026-08-31 11:40:04 | 48.55639 | 12.67807 | 58° | 80km/h | 16506m | 4.9m/s | -57.4°C | 2.0% | 100.9hPa | 2.6V | 00:00:00 | 00:00:00 | 00:00:00 | |
| OE5WHR-10 | 2026-08-31 11:40:02 | 48.55617 | 12.67756 | 57° | 78km/h | 16497m | 5.5m/s | -57.3°C | 5.3% | 101.0hPa | 2.6V | 00:00:00 | 01:10:40 | 00:00:00 | |
| PETON7-10 | 2026-08-31 11:39:59 | 48.55584 | 12.67683 | 57° | 78km/h | 16484m | 5.3m/s | -57.3°C | 5.2% | 101.2hPa | 2.6V | 00:00:00 | 01:10:37 | 00:00:00 | |
| DO3MHA-11 | 2026-08-31 11:39:57 | 48.55562 | 12.67632 | 57° | 78km/h | 16474m | 5.2m/s | -57.2°C | 5.3% | 101.3hPa | 2.6V | 00:00:00 | 01:10:35 | 00:00:00 | |
| OE5MMP-10 | 2026-08-31 11:39:54 | 48.55527 | 12.67557 | 55° | 77km/h | 16461m | 5.1m/s | -57.2°C | 5.3% | 101.5hPa | 2.6V | 00:00:00 | 01:10:32 | 00:00:00 | |
| OE5DRO-10 | 2026-08-31 11:39:53 | 48.55515 | 12.67531 | 55° | 78km/h | 16457m | 4.0m/s | -57.1°C | 5.3% | 101.6hPa | 2.6V | 00:00:00 | 00:00:00 | 00:00:00 | |
| OE5HKT-10 | 2026-08-31 11:39:52 | 48.55503 | 12.67506 | 55° | 77km/h | 16452m | 5.1m/s | -57.1°C | 5.4% | 101.7hPa | 2.6V | 00:00:00 | 01:10:30 | 00:00:00 | |
| OE5REO-15 | 2026-08-31 11:39:50 | 48.55492 | 12.67482 | 55° | 77km/h | 16447m | 4.2m/s | -57.2°C | 2.1% | 101.8hPa | 2.6V | 00:00:00 | 00:00:00 | 00:00:00 | |
| OE5DXL-15 | 2026-08-31 11:39:49 | 48.55469 | 12.67435 | 53° | 78km/h | 16438m | 5.0m/s | -57.1°C | 5.4% | 101.9hPa | 2.6V | 00:00:00 | 00:00:00 | 00:00:00 | |
| DO3MHA-11 | 2026-08-31 11:39:47 | 48.55445 | 12.67389 | 53° | 80km/h | 16429m | 5.2m/s | -57.1°C | 5.4% | 102.1hPa | 2.7V | 00:00:00 | 01:10:25 | 00:00:00 | |
| PETON7-10 | 2026-08-31 11:39:44 | 48.55410 | 12.67320 | 53° | 78km/h | 16415m | 4.7m/s | -57.1°C | 5.2% | 102.3hPa | 2.7V | 00:00:00 | 00:00:00 | 08:30:00 | |
| DG1MFX-10 | 2026-08-31 11:39:42 | 48.55398 | 12.67296 | 54° | 80km/h | 16411m | 3.7m/s | -57.1°C | 2.0% | 102.4hPa | 2.6V | 00:00:00 | 00:00:00 | 00:00:00 | |
| OE5WHR-10 | 2026-08-31 11:39:41 | 48.55374 | 12.67246 | 55° | 78km/h | 16402m | 3.8m/s | -57.1°C | 5.1% | 102.5hPa | 2.6V | 00:00:00 | 00:00:00 | 00:00:00 | |
| DO3MHA-11 | 2026-08-31 11:39:37 | 48.55321 | 12.67146 | 49° | 75km/h | 16385m | 5.2m/s | -56.9°C | 5.2% | 102.8hPa | 2.7V | 00:00:00 | 01:10:15 | 00:00:00 | |
| DK5PH-5 | 2026-08-31 11:39:36 | 48.55308 | 12.67124 | 48° | 77km/h | 16380m | 4.5m/s | -56.9°C | 5.2% | 102.9hPa | 2.6V | 00:00:00 | 01:10:14 | 00:00:00 | |
| OE5REO-15 | 2026-08-31 11:39:35 | 48.55308 | 12.67124 | 49° | 77km/h | 16380m | 4.5m/s | -56.9°C | 2.0% | 102.9hPa | 2.6V | 00:00:00 | 00:00:00 | 00:00:00 | |
| OE5MMP-10 | 2026-08-31 11:39:34 | 48.55282 | 12.67083 | 45° | 75km/h | 16371m | 5.3m/s | -56.9°C | 5.3% | 103.0hPa | 2.6V | 00:00:00 | 01:10:12 | 00:00:00 | |
| OE5HKT-10 | 2026-08-31 11:39:30 | 48.55232 | 12.67004 | 50° | 77km/h | 16353m | 3.3m/s | -56.9°C | 5.4% | 103.3hPa | 2.6V | 00:00:00 | 00:00:00 | 08:30:00 | |
| PETON7-10 | 2026-08-31 11:39:29 | 48.55219 | 12.66983 | 49° | 77km/h | 16349m | 4.2m/s | -56.8°C | 5.3% | 103.4hPa | 2.7V | 00:00:00 | 00:00:00 | 00:00:00 | |
| DO3MHA-11 | 2026-08-31 11:39:27 | 48.55193 | 12.66940 | 46° | 78km/h | 16340m | 4.3m/s | -56.8°C | 5.3% | 103.5hPa | 2.7V | 00:00:00 | 01:10:05 | 00:00:00 | |
| PG1ADW-2 | 2026-08-31 11:39:25 | 48.55164 | 12.66897 | 45° | 78km/h | 16332m | 4.8m/s | -56.9°C | 5.3% | 103.6hPa | 2.7V | 00:00:00 | 01:10:03 | 00:00:00 | |
| OE5MMP-10 | 2026-08-31 11:39:24 | 48.55149 | 12.66876 | 45° | 77km/h | 16328m | 4.4m/s | -56.8°C | 5.3% | 103.7hPa | 2.7V | 00:00:00 | 01:10:02 | 00:00:00 | |
| OE5WHR-10 | 2026-08-31 11:39:20 | 48.55093 | 12.66789 | 47° | 75km/h | 16310m | 3.9m/s | -56.8°C | 5.2% | 104.0hPa | 2.7V | 00:00:00 | 00:00:00 | 00:00:00 | |
| OM5KV | 2026-08-31 11:39:19 | 48.55079 | 12.66768 | 48° | 78km/h | 16306m | 4.6m/s | -56.8°C | 2.1% | 104.1hPa | 2.7V | 00:00:00 | 00:00:00 | 00:00:00 | |
| DL6DJ-15 | 2026-08-31 11:39:18 | 48.55066 | 12.66746 | 48° | 73km/h | 16301m | 4.6m/s | -56.8°C | 2.1% | 104.2hPa | 2.7V | 00:00:00 | 00:00:00 | 00:00:00 | |
| DO3MHA-11 | 2026-08-31 11:39:17 | 48.55054 | 12.66725 | 49° | 77km/h | 16298m | 2.9m/s | -56.7°C | 5.3% | 104.2hPa | 2.7V | 00:00:00 | 01:09:55 | 00:00:00 | |
| OM5KV | 2026-08-31 11:39:16 | 48.55054 | 12.66725 | 49° | 73km/h | 16298m | 3.0m/s | -56.7°C | 2.1% | 104.3hPa | 2.7V | 00:00:00 | 00:00:00 | 00:00:00 | |
| OE5DRO-10 | 2026-08-31 11:39:15 | 48.55029 | 12.66685 | 44° | 77km/h | 16290m | 4.9m/s | -56.7°C | 5.3% | 104.4hPa | 2.7V | 00:00:00 | 00:00:00 | 00:00:00 | |
| OE5MMP-10 | 2026-08-31 11:39:14 | 48.55014 | 12.66666 | 40° | 77km/h | 16285m | 3.8m/s | -56.6°C | 5.3% | 104.4hPa | 2.7V | 00:00:00 | 01:09:52 | 00:00:00 | |
| OM5KV | 2026-08-31 11:39:13 | 48.55014 | 12.66666 | 40° | 77km/h | 16285m | 3.8m/s | -56.7°C | 2.1% | 104.5hPa | 2.7V | 00:00:00 | 00:00:00 | 00:00:00 | |
| OE5FHM-15 | 2026-08-31 11:39:11 | 48.54967 | 12.66614 | 35° | 77km/h | 16273m | 3.7m/s | -56.5°C | 5.2% | 104.7hPa | 2.7V | 00:00:00 | 01:09:49 | 00:00:00 | |
| OE5HKT-10 | 2026-08-31 11:39:09 | 48.54934 | 12.66579 | 36° | 77km/h | 16264m | 4.5m/s | -56.6°C | 5.2% | 104.8hPa | 2.7V | 00:00:00 | 00:00:00 | 00:00:00 | |
| DO3MHA-11 | 2026-08-31 11:39:07 | 48.54902 | 12.66543 | 39° | 75km/h | 16257m | 4.9m/s | -56.5°C | 5.1% | 104.9hPa | 2.7V | 00:00:00 | 01:09:45 | 00:00:00 | |
| DK5PH-5 | 2026-08-31 11:39:06 | 48.54888 | 12.66525 | 41° | 77km/h | 16252m | 4.0m/s | -56.5°C | 5.1% | 105.0hPa | 2.6V | 00:00:00 | 01:09:44 | 00:00:00 | |
| OM5KV | 2026-08-31 11:39:05 | 48.54874 | 12.66507 | 42° | 71km/h | 16249m | 3.2m/s | -56.5°C | 2.0% | 105.1hPa | 2.7V | 00:00:00 | 00:00:00 | 00:00:00 | |
| OE5MMP-10 | 2026-08-31 11:39:04 | 48.54860 | 12.66490 | 42° | 77km/h | 16245m | 4.3m/s | -56.4°C | 5.1% | 105.1hPa | 2.7V | 00:00:00 | 01:09:42 | 00:00:00 | |
| OM5KV | 2026-08-31 11:39:03 | 48.54861 | 12.66490 | 42° | 71km/h | 16245m | 4.4m/s | -56.5°C | 2.1% | 105.2hPa | 2.7V | 00:00:00 | 00:00:00 | 00:00:00 | |
| DG1MFX-10 | 2026-08-31 11:39:02 | 48.54832 | 12.66453 | 40° | 75km/h | 16236m | 3.7m/s | -56.5°C | 2.1% | 105.3hPa | 2.7V | 00:00:00 | 00:00:00 | 00:00:00 | |
| BAUMI2-15 | 2026-08-31 11:39:01 | 48.54818 | 12.66436 | 37° | 77km/h | 16232m | 3.7m/s | -56.5°C | 5.2% | 105.3hPa | 2.7V | 00:00:00 | 01:09:39 | 00:00:00 | |
| OE5WHR-10 | 2026-08-31 11:38:59 | 48.54786 | 12.66403 | 34° | 78km/h | 16224m | 3.5m/s | -56.4°C | 5.2% | 105.5hPa | 2.7V | 00:00:00 | 01:09:37 | 00:00:00 | |
| DO3MHA-11 | 2026-08-31 11:38:57 | 48.54754 | 12.66371 | 35° | 78km/h | 16216m | 5.0m/s | -56.5°C | 5.2% | 105.6hPa | 2.7V | 00:00:00 | 01:09:35 | 00:00:00 | |
| BAUMI2-15 | 2026-08-31 11:38:56 | 48.54737 | 12.66354 | 36° | 78km/h | 16212m | 3.9m/s | -56.6°C | 5.2% | 105.7hPa | 2.7V | 00:00:00 | 01:09:34 | 00:00:00 | |
| OE5MMP-10 | 2026-08-31 11:38:54 | 48.54705 | 12.66318 | 37° | 77km/h | 16204m | 4.8m/s | -56.8°C | 5.3% | 105.8hPa | 2.7V | 00:00:00 | 01:09:32 | 00:00:00 | |
| BAUMI2-15 | 2026-08-31 11:38:51 | 48.54659 | 12.66265 | 39° | 77km/h | 16191m | 5.0m/s | -57.1°C | 5.5% | 106.1hPa | 2.7V | 00:00:00 | 01:09:29 | 00:00:00 | |
| OE5DXL-15 | 2026-08-31 11:38:49 | 48.54628 | 12.66229 | 36° | 73km/h | 16183m | 3.8m/s | -57.1°C | 5.6% | 106.1hPa | 2.7V | 00:00:00 | 00:00:00 | 00:00:00 | |
| OE5HKT-10 | 2026-08-31 11:38:48 | 48.54612 | 12.66212 | 35° | 73km/h | 16178m | 5.5m/s | -57.1°C | 5.7% | 106.2hPa | 2.7V | 00:00:00 | 01:09:26 | 00:00:00 | |
| DO3MHA-11 | 2026-08-31 11:38:47 | 48.54596 | 12.66197 | 32° | 78km/h | 16174m | 3.3m/s | -57.1°C | 5.6% | 106.3hPa | 2.7V | 00:00:00 | 01:09:25 | 00:00:00 | |
| BAUMI2-15 | 2026-08-31 11:38:46 | 48.54579 | 12.66182 | 30° | 77km/h | 16170m | 4.9m/s | -57.1°C | 5.6% | 106.4hPa | 2.7V | 00:00:00 | 01:09:24 | 08:30:00 | |
| PG1ADW-2 | 2026-08-31 11:38:45 | 48.54562 | 12.66168 | 29° | 73km/h | 16165m | 3.9m/s | -57.1°C | 5.6% | 106.5hPa | 2.7V | 00:00:00 | 00:00:00 | 08:30:00 | |
| OE5MMP-10 | 2026-08-31 11:38:44 | 48.54545 | 12.66154 | 27° | 77km/h | 16162m | 3.2m/s | -57.0°C | 5.5% | 106.5hPa | 2.7V | 00:00:00 | 01:09:22 | 00:00:00 | |
| OM5KV | 2026-08-31 11:38:41 | 48.54492 | 12.66114 | 30° | 78km/h | 16150m | 3.8m/s | -57.2°C | 2.2% | 106.8hPa | 2.7V | 00:00:00 | 00:00:00 | 00:00:00 | |
| BAUMI2-15 | 2026-08-31 11:38:40 | 48.54475 | 12.66099 | 32° | 77km/h | 16145m | 5.1m/s | -57.0°C | 5.5% | 106.8hPa | 2.7V | 00:00:00 | 01:09:18 | 00:00:00 | |
| OE5WHR-10 | 2026-08-31 11:38:38 | 48.54441 | 12.66067 | 32° | 69km/h | 16136m | 5.8m/s | -56.9°C | 5.5% | 107.0hPa | 2.7V | 00:00:00 | 00:00:00 | 08:30:00 | |
| DO3MHA-11 | 2026-08-31 11:38:37 | 48.54424 | 12.66052 | 30° | 68km/h | 16130m | 4.9m/s | -56.9°C | 5.5% | 107.1hPa | 2.7V | 00:00:00 | 01:09:15 | 08:30:00 | |
| DK5PH-5 | 2026-08-31 11:38:36 | 48.54407 | 12.66038 | 29° | 68km/h | 16126m | 3.3m/s | -56.9°C | 5.5% | 107.2hPa | 2.7V | 00:00:00 | 01:09:14 | 00:00:00 | |
| OM5KV | 2026-08-31 11:38:35 | 48.54391 | 12.66026 | 29° | 71km/h | 16122m | 4.7m/s | -57.0°C | 2.3% | 107.3hPa | 2.7V | 00:00:00 | 00:00:00 | 00:00:00 | |
| OE5REO-15 | 2026-08-31 11:38:34 | 48.54376 | 12.66013 | 29° | 68km/h | 16117m | 5.5m/s | -57.0°C | 2.3% | 107.3hPa | 2.7V | 00:00:00 | 00:00:00 | 00:00:00 | |
| BAUMI2-15 | 2026-08-31 11:38:30 | 48.54317 | 12.65968 | 28° | 66km/h | 16100m | 2.8m/s | -56.9°C | 5.5% | 107.6hPa | 2.7V | 00:00:00 | 01:09:08 | 00:00:00 | |
| PETON7-10 | 2026-08-31 11:38:29 | 48.54303 | 12.65956 | 31° | 68km/h | 16096m | 5.1m/s | -56.9°C | 5.5% | 107.7hPa | 2.7V | 00:00:00 | 01:09:07 | 00:00:00 | |
| OM5KV | 2026-08-31 11:38:28 | 48.54303 | 12.65956 | 32° | 64km/h | 16096m | 5.2m/s | -57.0°C | 2.3% | 107.7hPa | 2.7V | 00:00:00 | 00:00:00 | 00:00:00 | |
| DO3MHA-11 | 2026-08-31 11:38:27 | 48.54275 | 12.65928 | 37° | 69km/h | 16086m | 3.7m/s | -56.8°C | 5.5% | 107.8hPa | 2.7V | 00:00:00 | 01:09:05 | 00:00:00 | |
| BAUMI2-15 | 2026-08-31 11:38:25 | 48.54247 | 12.65896 | 36° | 71km/h | 16078m | 3.7m/s | -56.7°C | 5.5% | 108.0hPa | 2.7V | 00:00:00 | 01:09:03 | 00:00:00 | |
| OE5MMP-10 | 2026-08-31 11:38:24 | 48.54232 | 12.65880 | 36° | 68km/h | 16074m | 4.1m/s | -56.7°C | 5.5% | 108.0hPa | 2.7V | 00:00:00 | 01:09:02 | 00:00:00 | |
| OM5KV | 2026-08-31 11:38:23 | 48.54232 | 12.65880 | 36° | 73km/h | 16074m | 4.2m/s | -56.7°C | 2.3% | 108.1hPa | 2.7V | 00:00:00 | 00:00:00 | 00:00:00 | |
| DG1MFX-10 | 2026-08-31 11:38:21 | 48.54202 | 12.65849 | 34° | 71km/h | 16066m | 2.6m/s | -56.7°C | 2.4% | 108.2hPa | 2.7V | 00:00:00 | 00:00:00 | 00:00:00 | |
| BAUMI2-15 | 2026-08-31 11:38:20 | 48.54171 | 12.65822 | 29° | 66km/h | 16057m | 3.6m/s | -56.6°C | 5.5% | 108.3hPa | 2.7V | 00:00:00 | 01:08:58 | 00:00:00 | |
| OE5DXL-15 | 2026-08-31 11:38:19 | 48.54156 | 12.65810 | 28° | 64km/h | 16054m | 4.0m/s | -56.7°C | 5.5% | 108.4hPa | 2.7V | 00:00:00 | 00:00:00 | 08:30:00 | |
| OE5DRO-10 | 2026-08-31 11:38:18 | 48.54142 | 12.65799 | 28° | 66km/h | 16050m | 4.3m/s | -56.8°C | 5.6% | 108.4hPa | 2.6V | 00:00:00 | 00:00:00 | 08:30:00 | |
| DO3MHA-11 | 2026-08-31 11:38:17 | 48.54127 | 12.65787 | 30° | 66km/h | 16046m | 3.7m/s | -56.8°C | 5.6% | 108.5hPa | 2.7V | 00:00:00 | 01:08:55 | 00:00:00 | |
| DL6DJ-15 | 2026-08-31 11:38:16 | 48.54113 | 12.65775 | 29° | 64km/h | 16041m | 4.6m/s | -56.7°C | 2.4% | 108.6hPa | 2.7V | 00:00:00 | 00:00:00 | 00:00:00 | |
| BAUMI2-15 | 2026-08-31 11:38:15 | 48.54099 | 12.65763 | 32° | 64km/h | 16037m | 3.0m/s | -56.6°C | 5.6% | 108.6hPa | 2.7V | 00:00:00 | 01:08:53 | 00:00:00 | |
| OE5MMP-10 | 2026-08-31 11:38:14 | 48.54086 | 12.65749 | 35° | 66km/h | 16033m | 4.8m/s | -56.6°C | 5.6% | 108.7hPa | 2.7V | 00:00:00 | 01:08:52 | 08:30:00 | |
| OM5KV | 2026-08-31 11:38:13 | 48.54086 | 12.65749 | 35° | 64km/h | 16033m | 4.8m/s | -56.6°C | 2.4% | 108.8hPa | 2.6V | 00:00:00 | 00:00:00 | 00:00:00 | |
| OE5FHM-15 | 2026-08-31 11:38:11 | 48.54046 | 12.65706 | 35° | 60km/h | 16020m | 5.5m/s | -56.6°C | 5.5% | 108.9hPa | 2.6V | 00:00:00 | 01:08:49 | 00:00:00 | |
| BAUMI2-15 | 2026-08-31 11:38:10 | 48.54032 | 12.65692 | 33° | 69km/h | 16015m | 3.6m/s | -56.6°C | 5.6% | 109.1hPa | 2.6V | 00:00:00 | 01:08:48 | 00:00:00 | |
| OM5KV | 2026-08-31 11:38:07 | 48.53985 | 12.65653 | 29° | 69km/h | 16004m | 6.4m/s | -56.6°C | 2.4% | 109.3hPa | 2.6V | 00:00:00 | 00:00:00 | 00:00:00 | |
| OE5HKT-10 | 2026-08-31 11:38:06 | 48.53970 | 12.65641 | 29° | 51km/h | 15998m | 5.4m/s | -56.6°C | 5.6% | 109.4hPa | 2.6V | 00:00:00 | 00:00:00 | 00:00:00 | |
| BAUMI2-15 | 2026-08-31 11:38:05 | 48.53956 | 12.65629 | 30° | 62km/h | 15993m | 4.4m/s | -56.5°C | 5.5% | 109.4hPa | 2.6V | 00:00:00 | 01:08:43 | 00:00:00 | |
| OE5MMP-10 | 2026-08-31 11:38:04 | 48.53943 | 12.65617 | 33° | 64km/h | 15988m | 5.3m/s | -56.5°C | 5.5% | 109.5hPa | 2.6V | 00:00:00 | 01:08:42 | 00:00:00 | |
| OM5KV | 2026-08-31 11:38:02 | 48.53917 | 12.65592 | 34° | 62km/h | 15978m | 6.2m/s | -56.6°C | 2.4% | 109.7hPa | 2.6V | 00:00:00 | 00:00:00 | 00:00:00 | |
| BAUMI2-15 | 2026-08-31 11:38:00 | 48.53890 | 12.65566 | 32° | 66km/h | 15967m | 3.7m/s | -56.7°C | 5.4% | 109.9hPa | 2.6V | 00:00:00 | 01:08:38 | 08:30:00 | |
| PETON7-10 | 2026-08-31 11:37:59 | 48.53876 | 12.65553 | 34° | 58km/h | 15962m | 4.4m/s | -57.1°C | 5.5% | 109.9hPa | 2.7V | 00:00:00 | 00:00:00 | 00:00:00 | |
| DO3MHA-11 | 2026-08-31 11:37:57 | 48.53849 | 12.65523 | 41° | 57km/h | 15952m | 4.9m/s | -57.3°C | 5.7% | 110.1hPa | 2.7V | 00:00:00 | 01:08:35 | 00:00:00 | |
| OE5WHR-10 | 2026-08-31 11:37:56 | 48.53837 | 12.65506 | 43° | 55km/h | 15947m | 4.6m/s | -57.5°C | 5.8% | 110.2hPa | 2.7V | 00:00:00 | 01:08:34 | 00:00:00 | |
| BAUMI2-15 | 2026-08-31 11:37:55 | 48.53825 | 12.65490 | 43° | 57km/h | 15942m | 5.1m/s | -57.5°C | 5.9% | 110.3hPa | 2.7V | 00:00:00 | 01:08:33 | 00:00:00 | |
| OE5MMP-10 | 2026-08-31 11:37:54 | 48.53813 | 12.65474 | 42° | 53km/h | 15937m | 4.4m/s | -57.5°C | 5.9% | 110.4hPa | 2.7V | 00:00:00 | 01:08:32 | 00:00:00 | |
| BAUMI2-15 | 2026-08-31 11:37:50 | 48.53773 | 12.65417 | 49° | 53km/h | 15917m | 5.3m/s | -57.4°C | 6.0% | 110.8hPa | 2.7V | 00:00:00 | 01:08:28 | 00:00:00 | |
| OE5DXL-15 | 2026-08-31 11:37:49 | 48.53765 | 12.65403 | 49° | 51km/h | 15912m | 4.5m/s | -57.3°C | 5.9% | 110.8hPa | 2.7V | 00:00:00 | 01:08:27 | 00:00:00 | |
| DO3MHA-11 | 2026-08-31 11:37:47 | 48.53747 | 12.65373 | 48° | 57km/h | 15903m | 4.0m/s | -57.5°C | 5.9% | 111.0hPa | 2.7V | 00:00:00 | 01:08:25 | 00:00:00 | |
| PG1ADW-2 | 2026-08-31 11:37:45 | 48.53729 | 12.65342 | 51° | 51km/h | 15894m | 4.2m/s | -57.7°C | 6.0% | 111.1hPa | 2.7V | 00:00:00 | 00:00:00 | 00:00:00 | |
| PETON7-10 | 2026-08-31 11:37:44 | 48.53720 | 12.65326 | 50° | 51km/h | 15890m | 4.1m/s | -57.6°C | 6.0% | 111.2hPa | 2.6V | 00:00:00 | 01:08:22 | 00:00:00 | |
| OE5FHM-15 | 2026-08-31 11:37:41 | 48.53691 | 12.65276 | 51° | 47km/h | 15877m | 4.9m/s | -57.6°C | 5.9% | 111.4hPa | 2.6V | 00:00:00 | 01:08:19 | 00:00:00 | |
| BAUMI2-15 | 2026-08-31 11:37:40 | 48.53682 | 12.65260 | 51° | 53km/h | 15873m | 3.5m/s | -57.5°C | 5.9% | 111.5hPa | 2.6V | 00:00:00 | 01:08:18 | 00:00:00 | |
| OM5KV | 2026-08-31 11:37:38 | 48.53673 | 12.65243 | 50° | 55km/h | 15869m | 5.0m/s | -57.5°C | 2.6% | 111.6hPa | 2.6V | 00:00:00 | 00:00:00 | 00:00:00 | |
| DO3MHA-11 | 2026-08-31 11:37:37 | 48.53655 | 12.65213 | 49° | 46km/h | 15861m | 3.6m/s | -57.5°C | 6.0% | 111.7hPa | 2.6V | 00:00:00 | 01:08:15 | 00:00:00 | |
| DK5PH-5 | 2026-08-31 11:37:36 | 48.53647 | 12.65199 | 50° | 46km/h | 15857m | 4.7m/s | -57.4°C | 5.9% | 111.8hPa | 2.7V | 00:00:00 | 01:08:14 | 00:00:00 | |
| OE5WHR-10 | 2026-08-31 11:37:35 | 48.53639 | 12.65185 | 52° | 47km/h | 15852m | 4.2m/s | -57.4°C | 5.9% | 111.9hPa | 2.7V | 00:00:00 | 00:00:00 | 00:00:00 | |
| OE5MMP-10 | 2026-08-31 11:37:34 | 48.53632 | 12.65172 | 50° | 47km/h | 15848m | 4.9m/s | -57.4°C | 5.9% | 112.0hPa | 2.7V | 00:00:00 | 01:08:12 | 00:00:00 | |
| OM5KV | 2026-08-31 11:37:33 | 48.53625 | 12.65160 | 48° | 44km/h | 15843m | 5.0m/s | -57.5°C | 2.7% | 112.1hPa | 2.7V | 00:00:00 | 00:00:00 | 00:00:00 | |
| OE5REO-15 | 2026-08-31 11:37:30 | 48.53602 | 12.65123 | 49° | 46km/h | 15829m | 4.3m/s | -57.5°C | 2.7% | 112.4hPa | 2.7V | 00:00:00 | 00:00:00 | 00:00:00 | |
| PETON7-10 | 2026-08-31 11:37:29 | 48.53594 | 12.65110 | 49° | 47km/h | 15825m | 3.6m/s | -57.5°C | 6.0% | 112.4hPa | 2.7V | 00:00:00 | 00:00:00 | 08:30:00 | |
| DO3MHA-11 | 2026-08-31 11:37:27 | 48.53577 | 12.65084 | 44° | 49km/h | 15816m | 4.1m/s | -57.7°C | 6.0% | 112.6hPa | 2.7V | 00:00:00 | 01:08:05 | 00:00:00 | |
| OM5KV | 2026-08-31 11:37:26 | 48.53577 | 12.65084 | 44° | 49km/h | 15816m | 4.1m/s | -57.7°C | 2.7% | 112.6hPa | 2.7V | 00:00:00 | 00:00:00 | 00:00:00 | |
| BAUMI2-15 | 2026-08-31 11:37:25 | 48.53558 | 12.65057 | 44° | 51km/h | 15807m | 5.6m/s | -57.7°C | 6.0% | 112.7hPa | 2.7V | 00:00:00 | 01:08:03 | 00:00:00 | |
| OE5MMP-10 | 2026-08-31 11:37:24 | 48.53549 | 12.65043 | 46° | 47km/h | 15802m | 4.1m/s | -57.6°C | 5.9% | 112.8hPa | 2.7V | 00:00:00 | 01:08:02 | 00:00:00 | |
| OM5KV | 2026-08-31 11:37:22 | 48.53540 | 12.65029 | 47° | 51km/h | 15798m | 3.9m/s | -57.7°C | 2.6% | 112.9hPa | 2.7V | 00:00:00 | 00:00:00 | 00:00:00 | |
| BAUMI2-15 | 2026-08-31 11:37:20 | 48.53513 | 12.64989 | 44° | 44km/h | 15784m | 4.3m/s | -57.8°C | 5.9% | 113.1hPa | 2.7V | 00:00:00 | 01:07:58 | 00:00:00 | |
| OE5DXL-15 | 2026-08-31 11:37:19 | 48.53505 | 12.64977 | 46° | 42km/h | 15779m | 6.0m/s | -57.8°C | 5.9% | 113.2hPa | 2.7V | 00:00:00 | 00:00:00 | 00:00:00 | |
| DO3MHA-11 | 2026-08-31 11:37:17 | 48.53490 | 12.64953 | 47° | 44km/h | 15768m | 5.5m/s | -57.9°C | 5.8% | 113.4hPa | 2.7V | 00:00:00 | 01:07:55 | 00:00:00 | |
| OE5HKT-10 | 2026-08-31 11:37:16 | 48.53482 | 12.64941 | 46° | 42km/h | 15763m | 5.0m/s | -57.9°C | 5.8% | 113.5hPa | 2.7V | 00:00:00 | 01:07:54 | 00:00:00 | |
| BAUMI2-15 | 2026-08-31 11:37:15 | 48.53474 | 12.64929 | 48° | 44km/h | 15758m | 4.6m/s | -57.9°C | 5.8% | 113.6hPa | 2.7V | 00:00:00 | 01:07:53 | 08:30:00 | |
| OE5REO-15 | 2026-08-31 11:37:14 | 48.53467 | 12.64916 | 52° | 44km/h | 15753m | 5.7m/s | -58.0°C | 2.5% | 113.7hPa | 2.6V | 00:00:00 | 00:00:00 | 00:00:00 | |
| OE5FHM-15 | 2026-08-31 11:37:11 | 48.53448 | 12.64874 | 58° | 40km/h | 15739m | 5.0m/s | -58.4°C | 6.3% | 113.9hPa | 2.6V | 00:00:00 | 01:07:49 | 00:00:00 | |
| BAUMI2-15 | 2026-08-31 11:37:10 | 48.53442 | 12.64859 | 60° | 47km/h | 15734m | 3.9m/s | -58.3°C | 6.2% | 114.0hPa | 2.7V | 00:00:00 | 01:07:48 | 00:00:00 | |
| DO3MHA-11 | 2026-08-31 11:37:07 | 48.53427 | 12.64816 | 62° | 40km/h | 15720m | 5.0m/s | -58.2°C | 6.3% | 114.3hPa | 2.7V | 00:00:00 | 01:07:45 | 08:30:00 | |
| DK5PH-5 | 2026-08-31 11:37:06 | 48.53421 | 12.64803 | 58° | 40km/h | 15715m | 4.1m/s | -58.2°C | 6.4% | 114.4hPa | 2.7V | 00:00:00 | 01:07:44 | 00:00:00 | |
| OM5KV | 2026-08-31 11:37:05 | 48.53416 | 12.64790 | 57° | 38km/h | 15711m | 4.6m/s | -58.3°C | 2.8% | 114.5hPa | 2.7V | 00:00:00 | 00:00:00 | 00:00:00 | |
| OE5MMP-10 | 2026-08-31 11:37:04 | 48.53411 | 12.64779 | 57° | 40km/h | 15706m | 5.2m/s | -58.2°C | 6.3% | 114.5hPa | 2.7V | 00:00:00 | 01:07:42 | 00:00:00 | |
| OE5DRO-10 | 2026-08-31 11:37:01 | 48.53395 | 12.64742 | 53° | 40km/h | 15692m | 5.2m/s | -57.9°C | 6.2% | 114.8hPa | 2.7V | 00:00:00 | 00:00:00 | 00:00:00 | |
| PETON7-10 | 2026-08-31 11:36:59 | 48.53382 | 12.64716 | 54° | 40km/h | 15683m | 4.6m/s | -57.9°C | 6.1% | 114.9hPa | 2.7V | 00:00:00 | 01:07:37 | 00:00:00 | |
| OM5KV | 2026-08-31 11:36:58 | 48.53375 | 12.64703 | 58° | 44km/h | 15678m | 4.9m/s | -57.9°C | 2.7% | 115.1hPa | 2.7V | 00:00:00 | 00:00:00 | 00:00:00 | |
| DO3MHA-11 | 2026-08-31 11:36:57 | 48.53370 | 12.64689 | 60° | 38km/h | 15674m | 4.5m/s | -57.8°C | 6.1% | 115.1hPa | 2.7V | 00:00:00 | 01:07:35 | 00:00:00 | |
| OE5HKT-10 | 2026-08-31 11:36:55 | 48.53359 | 12.64662 | 57° | 40km/h | 15664m | 4.7m/s | -57.8°C | 6.1% | 115.3hPa | 2.7V | 00:00:00 | 00:00:00 | 00:00:00 | |
| OE5MMP-10 | 2026-08-31 11:36:54 | 48.53353 | 12.64649 | 58° | 38km/h | 15659m | 4.4m/s | -57.8°C | 6.1% | 115.4hPa | 2.6V | 00:00:00 | 01:07:32 | 00:00:00 | |
| OE5WHR-10 | 2026-08-31 11:36:53 | 48.53348 | 12.64637 | 58° | 40km/h | 15655m | 5.4m/s | -57.7°C | 6.1% | 115.5hPa | 2.6V | 00:00:00 | 01:07:31 | 00:00:00 | |
| OM5KV | 2026-08-31 11:36:51 | 48.53343 | 12.64626 | 58° | 37km/h | 15650m | 4.5m/s | -57.6°C | 2.6% | 115.6hPa | 2.6V | 00:00:00 | 00:00:00 | 00:00:00 | |
| OE5DXL-15 | 2026-08-31 11:36:49 | 48.53327 | 12.64592 | 53° | 40km/h | 15635m | 4.7m/s | -57.4°C | 5.9% | 115.8hPa | 2.6V | 00:00:00 | 00:00:00 | 00:00:00 | |
| DO3MHA-11 | 2026-08-31 11:36:47 | 48.53315 | 12.64568 | 56° | 40km/h | 15625m | 3.9m/s | -57.4°C | 6.0% | 116.0hPa | 2.7V | 00:00:00 | 01:07:25 | 00:00:00 | |
| PG1ADW-2 | 2026-08-31 11:36:45 | 48.53303 | 12.64542 | 54° | 40km/h | 15616m | 4.4m/s | -57.3°C | 5.9% | 116.2hPa | 2.7V | 00:00:00 | 01:07:23 | 00:00:00 | |
| OE5MMP-10 | 2026-08-31 11:36:44 | 48.53296 | 12.64528 | 56° | 40km/h | 15611m | 5.5m/s | -57.3°C | 5.8% | 116.3hPa | 2.7V | 00:00:00 | 01:07:22 | 08:30:00 | |
| DL6DJ-15 | 2026-08-31 11:36:43 | 48.53291 | 12.64515 | 57° | 40km/h | 15605m | 4.4m/s | -57.3°C | 2.6% | 116.4hPa | 2.7V | 00:00:00 | 00:00:00 | 00:00:00 | |
| OE5DRO-10 | 2026-08-31 11:36:42 | 48.53285 | 12.64502 | 56° | 40km/h | 15601m | 5.2m/s | -57.2°C | 5.9% | 116.5hPa | 2.7V | 00:00:00 | 00:00:00 | 00:00:00 | |
| OE5FHM-15 | 2026-08-31 11:36:41 | 48.53279 | 12.64490 | 55° | 42km/h | 15596m | 4.7m/s | -57.3°C | 5.9% | 116.5hPa | 2.7V | 00:00:00 | 01:07:19 | 00:00:00 | |
| OM5KV | 2026-08-31 11:36:39 | 48.53273 | 12.64478 | 56° | 38km/h | 15591m | 4.5m/s | -57.3°C | 0% | 116.7hPa | 2.7V | 00:00:00 | 00:00:00 | 00:00:00 | |
| DO3MHA-11 | 2026-08-31 11:36:37 | 48.53258 | 12.64442 | 56° | 40km/h | 15578m | 5.3m/s | -57.0°C | 5.7% | 116.9hPa | 2.7V | 00:00:00 | 01:07:15 | 00:00:00 | |
| DK5PH-5 | 2026-08-31 11:36:36 | 48.53252 | 12.64429 | 54° | 42km/h | 15573m | 4.5m/s | -57.1°C | 5.8% | 117.0hPa | 2.7V | 00:00:00 | 01:07:14 | 00:00:00 | |
| OE5MMP-10 | 2026-08-31 11:36:34 | 48.53240 | 12.64404 | 55° | 40km/h | 15564m | 5.1m/s | -57.0°C | 5.7% | 117.1hPa | 2.7V | 00:00:00 | 01:07:12 | 00:00:00 | |
| OM5KV | 2026-08-31 11:36:33 | 48.53240 | 12.64404 | 55° | 40km/h | 15564m | 5.2m/s | -57.1°C | 0% | 117.2hPa | 2.7V | 00:00:00 | 00:00:00 | 00:00:00 | |
| OE5WHR-10 | 2026-08-31 11:36:32 | 48.53229 | 12.64380 | 57° | 42km/h | 15555m | 4.3m/s | -56.9°C | 5.7% | 117.3hPa | 2.7V | 00:00:00 | 00:00:00 | 00:00:00 | |
| PETON7-10 | 2026-08-31 11:36:29 | 48.53211 | 12.64344 | 54° | 42km/h | 15540m | 4.4m/s | -56.9°C | 5.8% | 117.6hPa | 2.7V | 00:00:00 | 00:00:00 | 00:00:00 | |
| DO3MHA-11 | 2026-08-31 11:36:28 | 48.53200 | 12.64319 | 58° | 42km/h | 15530m | 4.3m/s | -56.9°C | 5.8% | 117.8hPa | 2.7V | 00:00:00 | 01:07:05 | 00:00:00 | |
| PG1ADW-2 | 2026-08-31 11:36:25 | 48.53188 | 12.64293 | 57° | 46km/h | 15521m | 5.1m/s | -56.8°C | 5.7% | 117.9hPa | 2.7V | 00:00:00 | 00:00:00 | 00:00:00 | |
| OE5MMP-10 | 2026-08-31 11:36:24 | 48.53183 | 12.64280 | 58° | 44km/h | 15516m | 4.9m/s | -56.8°C | 5.8% | 118.0hPa | 2.7V | 00:00:00 | 01:07:02 | 00:00:00 | |
| OE5DRO-10 | 2026-08-31 11:36:23 | 48.53177 | 12.64267 | 61° | 46km/h | 15511m | 5.6m/s | -56.8°C | 5.8% | 118.1hPa | 2.7V | 00:00:00 | 00:00:00 | 00:00:00 | |
| OM5KV | 2026-08-31 11:36:21 | 48.53172 | 12.64253 | 64° | 42km/h | 15506m | 4.2m/s | -56.9°C | 0% | 118.3hPa | 2.7V | 00:00:00 | 00:00:00 | 00:00:00 | |
| OE5DXL-15 | 2026-08-31 11:36:19 | 48.53157 | 12.64209 | 62° | 51km/h | 15491m | 4.7m/s | -57.0°C | 5.8% | 118.5hPa | 2.7V | 00:00:00 | 00:00:00 | 00:00:00 | |
| DO3MHA-11 | 2026-08-31 11:36:17 | 48.53146 | 12.64179 | 61° | 46km/h | 15480m | 4.0m/s | -57.2°C | 5.8% | 118.7hPa | 2.7V | 00:00:00 | 01:06:55 | 00:00:00 | |
| OM5KV | 2026-08-31 11:36:15 | 48.53140 | 12.64165 | 60° | 42km/h | 15476m | 5.3m/s | -57.2°C | 0% | 0hPa | 2.7V | 00:00:00 | 00:00:00 | 00:00:00 | |
| PETON7-10 | 2026-08-31 11:36:14 | 48.53129 | 12.64137 | 59° | 51km/h | 15466m | 3.5m/s | -57.1°C | 5.7% | 119.0hPa | 2.7V | 00:00:00 | 01:06:52 | 00:00:00 | |
| OE5HKT-10 | 2026-08-31 11:36:13 | 48.53123 | 12.64122 | 61° | 51km/h | 15461m | 6.4m/s | -57.1°C | 5.7% | 119.1hPa | 2.7V | 00:00:00 | 01:06:51 | 00:00:00 | |
| DL6DJ-15 | 2026-08-31 11:36:12 | 48.53114 | 12.64092 | 64° | 44km/h | 15450m | 5.7m/s | -56.9°C | 2.5% | 119.3hPa | 2.7V | 00:00:00 | 00:00:00 | 00:00:00 | |
| OE5WHR-10 | 2026-08-31 11:36:11 | 48.53114 | 12.64092 | 65° | 53km/h | 15450m | 5.7m/s | -56.9°C | 5.8% | 119.3hPa | 2.7V | 00:00:00 | 00:00:00 | 00:00:00 | |
| OM5KV | 2026-08-31 11:36:08 | 48.53103 | 12.64060 | 67° | 49km/h | 15439m | 4.2m/s | -56.9°C | 2.5% | 119.6hPa | 2.7V | 00:00:00 | 00:00:00 | 00:00:00 | |
| PG1ADW-2 | 2026-08-31 11:36:05 | 48.53085 | 12.63985 | 71° | 53km/h | 15419m | 4.7m/s | -56.8°C | 5.9% | 119.9hPa | 2.7V | 00:00:00 | 00:00:00 | 00:00:00 | |
| OE5MMP-10 | 2026-08-31 11:36:04 | 48.53081 | 12.63965 | 71° | 55km/h | 15415m | 3.7m/s | -56.7°C | 5.8% | 120.0hPa | 2.7V | 00:00:00 | 01:06:42 | 00:00:00 | |
| OM5KV | 2026-08-31 11:36:02 | 48.53076 | 12.63945 | 72° | 57km/h | 15411m | 5.0m/s | -56.8°C | 0% | 0hPa | 2.7V | 00:00:00 | 00:00:00 | 00:00:00 | |
| PETON7-10 | 2026-08-31 11:35:59 | 48.53057 | 12.63867 | 66° | 53km/h | 15392m | 4.9m/s | -56.7°C | 5.7% | 120.4hPa | 2.7V | 00:00:00 | 00:00:00 | 00:00:00 | |
| DO3MHA-11 | 2026-08-31 11:35:56 | 48.53040 | 12.63812 | 67° | 53km/h | 15379m | 4.5m/s | -56.7°C | 5.7% | 120.7hPa | 2.7V | 00:00:00 | 01:06:34 | 00:00:00 | |
| OE5MMP-10 | 2026-08-31 11:35:54 | 48.53030 | 12.63776 | 68° | 53km/h | 15371m | 4.7m/s | -56.7°C | 5.8% | 120.8hPa | 2.7V | 00:00:00 | 01:06:32 | 00:00:00 | |
| OE5HKT-10 | 2026-08-31 11:35:52 | 48.53019 | 12.63738 | 69° | 55km/h | 15362m | 3.4m/s | -56.6°C | 5.7% | 121.0hPa | 2.7V | 00:00:00 | 00:00:00 | 08:30:00 | |
| OM5KV | 2026-08-31 11:35:51 | 48.53019 | 12.63738 | 69° | 55km/h | 15362m | 3.4m/s | -56.6°C | 0% | 0hPa | 2.7V | 00:00:00 | 00:00:00 | 00:00:00 | |
| OE5WHR-10 | 2026-08-31 11:35:50 | 48.53010 | 12.63700 | 71° | 55km/h | 15353m | 4.5m/s | -56.7°C | 5.8% | 121.1hPa | 2.7V | 00:00:00 | 01:06:28 | 00:00:00 | |
| OE5DXL-15 | 2026-08-31 11:35:49 | 48.53006 | 12.63681 | 70° | 57km/h | 15349m | 4.1m/s | -56.7°C | 5.9% | 121.2hPa | 2.7V | 00:00:00 | 00:00:00 | 00:00:00 | |
| DO3MHA-11 | 2026-08-31 11:35:46 | 48.52991 | 12.63624 | 70° | 57km/h | 15336m | 5.0m/s | -56.6°C | 5.9% | 121.5hPa | 2.7V | 00:00:00 | 01:06:24 | 00:00:00 | |
| OM5KV | 2026-08-31 11:35:45 | 48.52991 | 12.63624 | 71° | 55km/h | 15336m | 5.1m/s | 0°C | 0% | 0hPa | 2.7V | 00:00:00 | 00:00:00 | 00:00:00 | |
| OE5MMP-10 | 2026-08-31 11:35:44 | 48.52982 | 12.63585 | 70° | 57km/h | 15327m | 4.4m/s | -56.7°C | 6.0% | 121.7hPa | 2.7V | 00:00:00 | 01:06:22 | 00:00:00 | |
| OM5KV | 2026-08-31 11:35:43 | 48.52982 | 12.63585 | 71° | 55km/h | 15327m | 4.4m/s | -56.8°C | 2.7% | 121.7hPa | 2.7V | 00:00:00 | 00:00:00 | 00:00:00 | |
| OE5FHM-15 | 2026-08-31 11:35:41 | 48.52966 | 12.63525 | 69° | 60km/h | 15313m | 5.1m/s | -56.7°C | 6.0% | 121.9hPa | 2.7V | 00:00:00 | 01:06:19 | 08:30:00 | |
| OM5KV | 2026-08-31 11:35:40 | 48.52966 | 12.63525 | 69° | 57km/h | 15313m | 5.1m/s | 0°C | 0% | 0hPa | 2.7V | 00:00:00 | 00:00:00 | 00:00:00 | |
| OM5KV | 2026-08-31 11:35:38 | 48.52956 | 12.63485 | 69° | 55km/h | 15304m | 4.3m/s | -56.8°C | 2.8% | 122.2hPa | 2.7V | 00:00:00 | 00:00:00 | 00:00:00 | |
| DK5PH-5 | 2026-08-31 11:35:36 | 48.52939 | 12.63426 | 68° | 60km/h | 15290m | 5.0m/s | -56.7°C | 6.0% | 122.3hPa | 2.7V | 00:00:00 | 01:06:14 | 00:00:00 | |
| OE5MMP-10 | 2026-08-31 11:35:34 | 48.52929 | 12.63386 | 71° | 57km/h | 15282m | 3.8m/s | -56.7°C | 6.0% | 122.5hPa | 2.7V | 00:00:00 | 01:06:12 | 00:00:00 | |
| OM5KV | 2026-08-31 11:35:32 | 48.52924 | 12.63366 | 71° | 58km/h | 15277m | 4.6m/s | -56.8°C | 0% | 122.6hPa | 2.7V | 00:00:00 | 00:00:00 | 00:00:00 | |
| OE5HKT-10 | 2026-08-31 11:35:31 | 48.52914 | 12.63324 | 72° | 60km/h | 15269m | 4.7m/s | -56.7°C | 6.0% | 122.7hPa | 2.7V | 00:00:00 | 00:00:00 | 00:00:00 | |
| PETON7-10 | 2026-08-31 11:35:29 | 48.52905 | 12.63284 | 72° | 60km/h | 15260m | 4.1m/s | -56.7°C | 6.0% | 122.9hPa | 2.7V | 00:00:00 | 01:06:07 | 00:00:00 | |
| OM5KV | 2026-08-31 11:35:27 | 48.52901 | 12.63263 | 72° | 57km/h | 15255m | 5.3m/s | -56.8°C | 0% | 0hPa | 2.7V | 00:00:00 | 00:00:00 | 00:00:00 | |
| DO3MHA-11 | 2026-08-31 11:35:26 | 48.52892 | 12.63221 | 73° | 62km/h | 15246m | 5.2m/s | -56.8°C | 6.1% | 123.2hPa | 2.7V | 00:00:00 | 01:06:04 | 00:00:00 | |
| PG1ADW-2 | 2026-08-31 11:35:25 | 48.52887 | 12.63200 | 74° | 64km/h | 15241m | 4.2m/s | -56.7°C | 6.1% | 123.3hPa | 2.7V | 00:00:00 | 01:06:03 | 00:00:00 | |
| OE5MMP-10 | 2026-08-31 11:35:24 | 48.52882 | 12.63178 | 73° | 62km/h | 15237m | 4.6m/s | -56.7°C | 6.2% | 123.4hPa | 2.7V | 00:00:00 | 01:06:02 | 00:00:00 | |
| OM5KV | 2026-08-31 11:35:21 | 48.52872 | 12.63132 | 71° | 66km/h | 15228m | 3.7m/s | -56.6°C | 0% | 0hPa | 2.7V | 00:00:00 | 00:00:00 | 00:00:00 | |
| OE5DXL-15 | 2026-08-31 11:35:19 | 48.52856 | 12.63064 | 69° | 62km/h | 15214m | 4.7m/s | -56.5°C | 6.1% | 123.8hPa | 2.7V | 00:00:00 | 00:00:00 | 00:00:00 | |
| OM5KV | 2026-08-31 11:35:17 | 48.52843 | 12.63019 | 68° | 62km/h | 15206m | 3.5m/s | -56.4°C | 0% | 0hPa | 2.7V | 00:00:00 | 00:00:00 | 00:00:00 | |
| DO3MHA-11 | 2026-08-31 11:35:16 | 48.52838 | 12.62997 | 69° | 62km/h | 15202m | 5.1m/s | -56.4°C | 6.0% | 124.1hPa | 2.7V | 00:00:00 | 01:05:54 | 00:00:00 | |
| OE5MMP-10 | 2026-08-31 11:35:14 | 48.52827 | 12.62954 | 71° | 64km/h | 15193m | 5.0m/s | -56.4°C | 6.0% | 124.2hPa | 2.7V | 00:00:00 | 01:05:52 | 08:30:00 | |
| OE5FHM-15 | 2026-08-31 11:35:11 | 48.52812 | 12.62887 | 72° | 62km/h | 15178m | 4.5m/s | -56.2°C | 6.0% | 124.5hPa | 2.7V | 00:00:00 | 01:05:49 | 00:00:00 | |
| DL6DJ-15 | 2026-08-31 11:35:10 | 48.52801 | 12.62842 | 69° | 66km/h | 15170m | 4.8m/s | -56.3°C | 2.8% | 124.8hPa | 2.7V | 00:00:00 | 00:00:00 | 00:00:00 | |
| OE5WHR-10 | 2026-08-31 11:35:08 | 48.52795 | 12.62818 | 70° | 62km/h | 15166m | 3.1m/s | -56.2°C | 6.1% | 124.8hPa | 2.7V | 00:00:00 | 00:00:00 | 00:00:00 | |
| OE5DRO-10 | 2026-08-31 11:35:07 | 48.52789 | 12.62794 | 70° | 62km/h | 15162m | 5.3m/s | -56.2°C | 6.1% | 124.9hPa | 2.7V | 00:00:00 | 00:00:00 | 00:00:00 | |
| PG1ADW-2 | 2026-08-31 11:35:05 | 48.52778 | 12.62749 | 70° | 62km/h | 15153m | 4.0m/s | -56.1°C | 6.0% | 125.0hPa | 2.7V | 00:00:00 | 00:00:00 | 00:00:00 | |
| OE5MMP-10 | 2026-08-31 11:35:04 | 48.52772 | 12.62727 | 70° | 60km/h | 15148m | 5.1m/s | -56.1°C | 6.1% | 125.1hPa | 2.7V | 00:00:00 | 01:05:42 | 00:00:00 | |
| PETON7-10 | 2026-08-31 11:34:59 | 48.52743 | 12.62622 | 67° | 62km/h | 15126m | 3.5m/s | -55.9°C | 5.9% | 125.6hPa | 2.7V | 00:00:00 | 00:00:00 | 00:00:00 | |
| BAUMI2-15 | 2026-08-31 11:34:58 | 48.52737 | 12.62602 | 66° | 60km/h | 15122m | 4.9m/s | -55.9°C | 6.0% | 125.6hPa | 2.7V | 00:00:00 | 01:05:36 | 00:00:00 | |
| DO3MHA-11 | 2026-08-31 11:34:56 | 48.52725 | 12.62560 | 67° | 62km/h | 15114m | 3.3m/s | -55.9°C | 5.9% | 125.8hPa | 2.7V | 00:00:00 | 01:05:34 | 00:00:00 | |
| OE5MMP-10 | 2026-08-31 11:34:54 | 48.52713 | 12.62517 | 71° | 64km/h | 15105m | 4.5m/s | -55.9°C | 5.9% | 126.0hPa | 2.7V | 00:00:00 | 01:05:32 | 00:00:00 | |
| BAUMI2-15 | 2026-08-31 11:34:53 | 48.52708 | 12.62495 | 73° | 62km/h | 15100m | 4.9m/s | -55.8°C | 5.9% | 126.1hPa | 2.7V | 00:00:00 | 01:05:31 | 00:00:00 | |
| OM5KV | 2026-08-31 11:34:52 | 48.52708 | 12.62495 | 73° | 60km/h | 15100m | 4.9m/s | 0°C | 0% | 0hPa | 2.7V | 00:00:00 | 00:00:00 | 00:00:00 | |
| OE5HKT-10 | 2026-08-31 11:34:49 | 48.52688 | 12.62403 | 72° | 64km/h | 15081m | 4.9m/s | -55.6°C | 5.9% | 126.5hPa | 2.7V | 00:00:00 | 00:00:00 | 00:00:00 | |
| BAUMI2-15 | 2026-08-31 11:34:48 | 48.52683 | 12.62380 | 72° | 66km/h | 15077m | 4.1m/s | -55.6°C | 5.8% | 126.5hPa | 2.7V | 00:00:00 | 01:05:26 | 00:00:00 | |
| OE5WHR-10 | 2026-08-31 11:34:47 | 48.52677 | 12.62357 | 70° | 64km/h | 15072m | 5.5m/s | -55.6°C | 5.8% | 126.7hPa | 2.7V | 00:00:00 | 01:05:25 | 00:00:00 | |
| DO3MHA-11 | 2026-08-31 11:34:46 | 48.52671 | 12.62334 | 70° | 64km/h | 15067m | 4.0m/s | -55.5°C | 5.7% | 126.8hPa | 2.7V | 00:00:00 | 01:05:24 | 00:00:00 | |
| PG1ADW-2 | 2026-08-31 11:34:45 | 48.52666 | 12.62310 | 70° | 64km/h | 15062m | 4.8m/s | -55.5°C | 5.7% | 126.8hPa | 2.7V | 00:00:00 | 00:00:00 | 00:00:00 | |
| PETON7-10 | 2026-08-31 11:34:44 | 48.52660 | 12.62286 | 71° | 64km/h | 15057m | 4.8m/s | -55.4°C | 5.7% | 127.0hPa | 2.7V | 00:00:00 | 01:05:22 | 00:00:00 | |
| BAUMI2-15 | 2026-08-31 11:34:43 | 48.52655 | 12.62263 | 71° | 64km/h | 15053m | 3.9m/s | -55.4°C | 5.7% | 127.0hPa | 2.7V | 00:00:00 | 01:05:21 | 00:00:00 | |
| OE5FHM-15 | 2026-08-31 11:34:41 | 48.52643 | 12.62217 | 70° | 66km/h | 15044m | 3.8m/s | -55.4°C | 5.7% | 127.2hPa | 2.7V | 00:00:00 | 01:05:19 | 00:00:00 | |
| DL6DJ-15 | 2026-08-31 11:34:39 | 48.52628 | 12.62150 | 71° | 60km/h | 15030m | 4.0m/s | -55.4°C | 2.7% | 127.5hPa | 2.7V | 00:00:00 | 00:00:00 | 00:00:00 | |
| BAUMI2-15 | 2026-08-31 11:34:38 | 48.52628 | 12.62150 | 72° | 64km/h | 15031m | 3.9m/s | -55.3°C | 5.8% | 127.5hPa | 2.7V | 00:00:00 | 01:05:16 | 00:00:00 | |
| DO3MHA-11 | 2026-08-31 11:34:36 | 48.52618 | 12.62104 | 72° | 66km/h | 15022m | 3.8m/s | -55.3°C | 5.8% | 127.7hPa | 2.7V | 00:00:00 | 01:05:14 | 00:00:00 | |
| OE5MMP-10 | 2026-08-31 11:34:34 | 48.52607 | 12.62056 | 74° | 66km/h | 15013m | 4.7m/s | -55.2°C | 5.7% | 127.8hPa | 2.7V | 00:00:00 | 01:05:12 | 00:00:00 | |
| BAUMI2-15 | 2026-08-31 11:34:33 | 48.52603 | 12.62032 | 75° | 66km/h | 15008m | 4.8m/s | -55.2°C | 5.7% | 127.9hPa | 2.7V | 00:00:00 | 01:05:11 | 00:00:00 | |
| PETON7-10 | 2026-08-31 11:34:29 | 48.52582 | 12.61938 | 70° | 68km/h | 14990m | 5.1m/s | -55.3°C | 5.9% | 128.3hPa | 2.7V | 00:00:00 | 00:00:00 | 00:00:00 | |
| OE5HKT-10 | 2026-08-31 11:34:28 | 48.52577 | 12.61915 | 71° | 68km/h | 14985m | 4.0m/s | -55.3°C | 5.8% | 128.4hPa | 2.7V | 00:00:00 | 00:00:00 | 00:00:00 | |
| DO3MHA-11 | 2026-08-31 11:34:26 | 48.52566 | 12.61869 | 71° | 69km/h | 14976m | 5.6m/s | -55.2°C | 5.9% | 128.6hPa | 2.7V | 00:00:00 | 01:05:04 | 00:00:00 | |
| PG1ADW-2 | 2026-08-31 11:34:25 | 48.52560 | 12.61845 | 72° | 69km/h | 14971m | 3.6m/s | -55.2°C | 5.9% | 128.6hPa | 2.7V | 00:00:00 | 00:00:00 | 00:00:00 | |
| OE5MMP-10 | 2026-08-31 11:34:24 | 48.52555 | 12.61820 | 75° | 69km/h | 14967m | 5.4m/s | -55.2°C | 5.8% | 128.7hPa | 2.7V | 00:00:00 | 01:05:02 | 00:00:00 | |
| BAUMI2-15 | 2026-08-31 11:34:23 | 48.52551 | 12.61794 | 79° | 71km/h | 14962m | 4.8m/s | -55.1°C | 5.8% | 128.9hPa | 2.7V | 00:00:00 | 01:05:01 | 00:00:00 | |
| OE5DXL-15 | 2026-08-31 11:34:19 | 48.52539 | 12.61686 | 82° | 71km/h | 14944m | 4.2m/s | -55.0°C | 5.7% | 129.2hPa | 2.7V | 00:00:00 | 00:00:00 | 00:00:00 | |
| BAUMI2-15 | 2026-08-31 11:34:18 | 48.52536 | 12.61660 | 81° | 68km/h | 14939m | 5.6m/s | -55.0°C | 5.7% | 129.3hPa | 2.7V | 00:00:00 | 01:04:56 | 00:00:00 | |
| DO3MHA-11 | 2026-08-31 11:34:16 | 48.52528 | 12.61610 | 72° | 68km/h | 14929m | 5.1m/s | -54.9°C | 5.6% | 129.5hPa | 2.7V | 00:00:00 | 01:04:54 | 00:00:00 | |
| PETON7-10 | 2026-08-31 11:34:14 | 48.52516 | 12.61562 | 66° | 71km/h | 14918m | 5.5m/s | -54.8°C | 5.7% | 129.8hPa | 2.7V | 00:00:00 | 00:00:00 | 00:00:00 | |
| BAUMI2-15 | 2026-08-31 11:34:13 | 48.52508 | 12.61537 | 66° | 68km/h | 14913m | 4.3m/s | -54.8°C | 5.7% | 129.9hPa | 2.7V | 00:00:00 | 01:04:51 | 00:00:00 | |
| OE5FHM-15 | 2026-08-31 11:34:10 | 48.52488 | 12.61467 | 66° | 73km/h | 14898m | 5.9m/s | -54.7°C | 5.5% | 130.1hPa | 2.7V | 00:00:00 | 01:04:48 | 00:00:00 | |
| DL6DJ-15 | 2026-08-31 11:34:08 | 48.52466 | 12.61398 | 64° | 68km/h | 14882m | 5.5m/s | -54.5°C | 2.6% | 130.5hPa | 2.7V | 00:00:00 | 00:00:00 | 00:00:00 | |
| OE5HKT-10 | 2026-08-31 11:34:07 | 48.52466 | 12.61398 | 65° | 73km/h | 14882m | 5.5m/s | -54.5°C | 5.6% | 130.5hPa | 2.7V | 00:00:00 | 01:04:45 | 00:00:00 | |
| DK5PH-5 | 2026-08-31 11:34:06 | 48.52459 | 12.61374 | 68° | 73km/h | 14876m | 5.7m/s | -54.3°C | 5.5% | 130.6hPa | 2.7V | 00:00:00 | 01:04:44 | 00:00:00 | |
| OE5WHR-10 | 2026-08-31 11:34:05 | 48.52453 | 12.61349 | 71° | 75km/h | 14871m | 4.2m/s | -54.3°C | 5.5% | 130.7hPa | 2.7V | 00:00:00 | 00:00:00 | 00:00:00 | |
| OE5MMP-10 | 2026-08-31 11:34:04 | 48.52446 | 12.61323 | 71° | 73km/h | 14866m | 5.3m/s | -54.3°C | 5.4% | 130.8hPa | 2.7V | 00:00:00 | 01:04:42 | 00:00:00 | |
| BAUMI2-15 | 2026-08-31 11:34:03 | 48.52440 | 12.61296 | 71° | 77km/h | 14861m | 5.4m/s | -54.3°C | 5.4% | 130.9hPa | 2.7V | 00:00:00 | 01:04:41 | 00:00:00 | |
| PETON7-10 | 2026-08-31 11:33:59 | 48.52417 | 12.61186 | 75° | 73km/h | 14842m | 3.6m/s | -54.0°C | 5.3% | 131.3hPa | 2.7V | 00:00:00 | 01:04:37 | 00:00:00 | |
| BAUMI2-15 | 2026-08-31 11:33:58 | 48.52412 | 12.61159 | 73° | 71km/h | 14838m | 5.2m/s | -54.0°C | 5.3% | 131.4hPa | 2.7V | 00:00:00 | 01:04:36 | 00:00:00 | |
| DO3MHA-11 | 2026-08-31 11:33:56 | 48.52399 | 12.61107 | 70° | 73km/h | 14829m | 4.7m/s | -53.9°C | 5.3% | 131.6hPa | 2.7V | 00:00:00 | 01:04:34 | 00:00:00 | |
| OE5MMP-10 | 2026-08-31 11:33:54 | 48.52386 | 12.61058 | 67° | 75km/h | 14819m | 3.9m/s | -53.9°C | 5.3% | 131.8hPa | 2.7V | 00:00:00 | 01:04:32 | 00:00:00 | |
| BAUMI2-15 | 2026-08-31 11:33:53 | 48.52380 | 12.61035 | 65° | 73km/h | 14814m | 5.4m/s | 0°C | 0% | 0hPa | 2.7V | 00:00:00 | 01:04:31 | 00:00:00 | |
| OE5DRO-10 | 2026-08-31 11:33:51 | 48.52364 | 12.60986 | 66° | 75km/h | 14805m | 4.5m/s | -53.7°C | 5.2% | 132.0hPa | 2.7V | 00:00:00 | 00:00:00 | 00:00:00 | |
| OE5DXL-15 | 2026-08-31 11:33:49 | 48.52349 | 12.60932 | 71° | 75km/h | 14796m | 3.7m/s | -53.6°C | 5.1% | 132.3hPa | 2.7V | 00:00:00 | 00:00:00 | 08:30:00 | |
| BAUMI2-15 | 2026-08-31 11:33:48 | 48.52342 | 12.60904 | 71° | 77km/h | 14792m | 4.3m/s | 0°C | 0% | 0hPa | 2.7V | 00:00:00 | 01:04:26 | 00:00:00 | |
| DO3MHA-11 | 2026-08-31 11:33:46 | 48.52329 | 12.60849 | 70° | 73km/h | 14783m | 3.5m/s | -53.5°C | 5.1% | 132.6hPa | 2.7V | 00:00:00 | 01:04:24 | 00:00:00 | |
| PG1ADW-2 | 2026-08-31 11:33:45 | 48.52322 | 12.60821 | 71° | 73km/h | 14779m | 5.0m/s | -53.5°C | 5.2% | 132.6hPa | 2.7V | 00:00:00 | 00:00:00 | 00:00:00 | |
| OE5WHR-10 | 2026-08-31 11:33:44 | 48.52316 | 12.60795 | 71° | 73km/h | 14774m | 4.2m/s | -53.4°C | 5.2% | 132.7hPa | 2.7V | 00:00:00 | 01:04:22 | 00:00:00 | |
| BAUMI2-15 | 2026-08-31 11:33:43 | 48.52310 | 12.60769 | 70° | 73km/h | 14770m | 4.0m/s | 0°C | 0% | 0hPa | 2.7V | 00:00:00 | 01:04:21 | 08:30:00 | |
| BAUMI2-15 | 2026-08-31 11:33:38 | 48.52274 | 12.60643 | 66° | 75km/h | 14747m | 3.9m/s | 0°C | 0% | 0hPa | 2.7V | 00:00:00 | 01:04:16 | 00:00:00 | |
| DL6DJ-15 | 2026-08-31 11:33:37 | 48.52259 | 12.60592 | 66° | 75km/h | 14738m | 4.2m/s | -53.2°C | 2.3% | 133.5hPa | 2.7V | 00:00:00 | 00:00:00 | 00:00:00 | |
| DK5PH-5 | 2026-08-31 11:33:36 | 48.52259 | 12.60592 | 67° | 73km/h | 14738m | 4.1m/s | -53.2°C | 5.0% | 133.5hPa | 2.7V | 00:00:00 | 01:04:14 | 00:00:00 | |
| OE5REO-15 | 2026-08-31 11:33:35 | 48.52259 | 12.60592 | 68° | 77km/h | 14738m | 4.2m/s | -53.2°C | 2.3% | 133.5hPa | 2.7V | 00:00:00 | 00:00:00 | 00:00:00 | |
| DH7VM-15 | 2026-08-31 11:33:34 | 48.52251 | 12.60565 | 69° | 77km/h | 14733m | 5.2m/s | 0°C | 0% | 0hPa | 2.7V | 00:00:00 | 00:00:00 | 00:00:00 | |
| BAUMI2-15 | 2026-08-31 11:33:33 | 48.52238 | 12.60511 | 70° | 75km/h | 14724m | 4.9m/s | 0°C | 0% | 0hPa | 2.7V | 00:00:00 | 01:04:11 | 00:00:00 | |
| OE5DRO-10 | 2026-08-31 11:33:32 | 48.52231 | 12.60484 | 69° | 73km/h | 14719m | 5.3m/s | -53.2°C | 4.9% | 133.8hPa | 2.7V | 00:00:00 | 00:00:00 | 00:00:00 | |
| PETON7-10 | 2026-08-31 11:33:29 | 48.52208 | 12.60407 | 65° | 73km/h | 14705m | 4.0m/s | -53.2°C | 4.9% | 134.2hPa | 2.7V | 00:00:00 | 00:00:00 | 00:00:00 | |
| BAUMI2-15 | 2026-08-31 11:33:28 | 48.52200 | 12.60383 | 63° | 71km/h | 14700m | 4.9m/s | 0°C | 0% | 0hPa | 2.7V | 00:00:00 | 01:04:06 | 00:00:00 | |
| DO3MHA-11 | 2026-08-31 11:33:25 | 48.52175 | 12.60312 | 64° | 75km/h | 14686m | 5.3m/s | -53.1°C | 4.8% | 134.6hPa | 2.7V | 00:00:00 | 01:04:03 | 00:00:00 | |
| BAUMI2-15 | 2026-08-31 11:33:23 | 48.52160 | 12.60263 | 66° | 77km/h | 14677m | 5.7m/s | 0°C | 0% | 0hPa | 2.7V | 00:00:00 | 01:04:01 | 00:00:00 | |
| DG1MFX-10 | 2026-08-31 11:33:22 | 48.52160 | 12.60263 | 66° | 73km/h | 14677m | 5.8m/s | -53.2°C | 2.1% | 134.8hPa | 2.7V | 00:00:00 | 00:00:00 | 00:00:00 | |
| OE5DXL-15 | 2026-08-31 11:33:19 | 48.52131 | 12.60154 | 71° | 75km/h | 14657m | 3.9m/s | -53.2°C | 4.8% | 135.2hPa | 2.7V | 00:00:00 | 00:00:00 | 00:00:00 | |
| BAUMI2-15 | 2026-08-31 11:33:18 | 48.52125 | 12.60127 | 70° | 75km/h | 14653m | 4.2m/s | 0°C | 0% | 0hPa | 2.7V | 00:00:00 | 01:03:56 | 00:00:00 | |
| DO3MHA-11 | 2026-08-31 11:33:15 | 48.52102 | 12.60047 | 66° | 71km/h | 14639m | 5.4m/s | -53.3°C | 4.7% | 135.5hPa | 2.7V | 00:00:00 | 01:03:53 | 00:00:00 | |
| PETON7-10 | 2026-08-31 11:33:14 | 48.52094 | 12.60023 | 64° | 75km/h | 14635m | 4.0m/s | -53.4°C | 4.8% | 135.7hPa | 2.7V | 00:00:00 | 01:03:52 | 00:00:00 | |
| BAUMI2-15 | 2026-08-31 11:33:13 | 48.52086 | 12.59999 | 62° | 71km/h | 14631m | 4.0m/s | 0°C | 0% | 0hPa | 2.7V | 00:00:00 | 01:03:51 | 00:00:00 | |
| BAUMI2-15 | 2026-08-31 11:33:08 | 48.52042 | 12.59882 | 64° | 86km/h | 14609m | 3.5m/s | 0°C | 0% | 0hPa | 2.7V | 00:00:00 | 01:03:46 | 00:00:00 | |
| OE5FHM-15 | 2026-08-31 11:33:06 | 48.52026 | 12.59831 | 67° | 73km/h | 14600m | 4.7m/s | -53.3°C | 4.7% | 136.4hPa | 2.7V | 00:00:00 | 01:03:44 | 00:00:00 | |
| DO3MHA-11 | 2026-08-31 11:33:05 | 48.52018 | 12.59804 | 67° | 78km/h | 14596m | 4.7m/s | -53.3°C | 4.7% | 136.5hPa | 2.7V | 00:00:00 | 01:03:43 | 00:00:00 | |
| OE5MMP-10 | 2026-08-31 11:33:04 | 48.52010 | 12.59775 | 68° | 78km/h | 14591m | 4.2m/s | -53.3°C | 4.6% | 136.6hPa | 2.7V | 00:00:00 | 01:03:42 | 00:00:00 | |
| OE5REO-15 | 2026-08-31 11:33:03 | 48.52010 | 12.59775 | 69° | 80km/h | 14591m | 4.3m/s | -53.4°C | 2.0% | 136.7hPa | 2.7V | 00:00:00 | 00:00:00 | 00:00:00 | |
| OE5WHR-10 | 2026-08-31 11:33:02 | 48.51995 | 12.59718 | 70° | 73km/h | 14582m | 3.7m/s | -53.3°C | 4.6% | 136.7hPa | 2.7V | 00:00:00 | 00:00:00 | 00:00:00 | |
| DG1MFX-10 | 2026-08-31 11:33:00 | 48.51988 | 12.59689 | 70° | 82km/h | 14578m | 4.8m/s | -53.3°C | 2.0% | 136.9hPa | 2.7V | 00:00:00 | 00:00:00 | 00:00:00 | |
| PETON7-10 | 2026-08-31 11:32:59 | 48.51973 | 12.59632 | 68° | 73km/h | 14569m | 3.3m/s | -53.2°C | 4.7% | 137.0hPa | 2.7V | 00:00:00 | 00:00:00 | 08:30:00 | |
| OE5DRO-10 | 2026-08-31 11:32:55 | 48.51935 | 12.59505 | 64° | 71km/h | 14544m | 4.4m/s | -53.1°C | 4.6% | 137.6hPa | 2.7V | 00:00:00 | 00:00:00 | 00:00:00 | |
| OE5MMP-10 | 2026-08-31 11:32:54 | 48.51935 | 12.59505 | 64° | 73km/h | 14544m | 4.4m/s | -53.1°C | 4.6% | 137.6hPa | 2.7V | 00:00:00 | 01:03:32 | 00:00:00 | |
| OE5DXL-15 | 2026-08-31 11:32:49 | 48.51893 | 12.59382 | 62° | 71km/h | 14521m | 3.9m/s | -53.3°C | 4.7% | 138.1hPa | 2.7V | 00:00:00 | 00:00:00 | 00:00:00 | |
| OE5MMP-10 | 2026-08-31 11:32:45 | 48.51846 | 12.59260 | 59° | 68km/h | 14499m | 4.2m/s | -53.2°C | 4.6% | 138.6hPa | 2.7V | 00:00:00 | 01:03:22 | 00:00:00 | |
| PETON7-10 | 2026-08-31 11:32:44 | 48.51846 | 12.59260 | 59° | 71km/h | 14499m | 4.2m/s | -53.2°C | 4.6% | 138.6hPa | 2.7V | 00:00:00 | 00:00:00 | 00:00:00 | |
| OE5HKT-10 | 2026-08-31 11:32:43 | 48.51837 | 12.59239 | 60° | 71km/h | 14494m | 5.2m/s | -53.2°C | 4.6% | 138.6hPa | 2.7V | 00:00:00 | 00:00:00 | 08:30:00 | |
| OE5WHR-10 | 2026-08-31 11:32:41 | 48.51820 | 12.59196 | 59° | 71km/h | 14486m | 3.3m/s | -53.1°C | 4.6% | 138.8hPa | 2.7V | 00:00:00 | 01:03:19 | 00:00:00 | |
| DG1MFX-10 | 2026-08-31 11:32:39 | 48.51811 | 12.59175 | 58° | 66km/h | 14481m | 5.3m/s | -53.2°C | 2.0% | 139.0hPa | 2.7V | 00:00:00 | 00:00:00 | 00:00:00 | |
| OE5FHM-15 | 2026-08-31 11:32:36 | 48.51772 | 12.59090 | 58° | 75km/h | 14463m | 4.5m/s | -53.0°C | 4.7% | 139.4hPa | 2.7V | 00:00:00 | 01:03:14 | 00:00:00 | |
| DO3MHA-11 | 2026-08-31 11:32:35 | 48.51762 | 12.59067 | 59° | 75km/h | 14458m | 4.9m/s | -53.0°C | 4.7% | 139.4hPa | 2.7V | 00:00:00 | 01:03:13 | 08:30:00 | |
| OE5MMP-10 | 2026-08-31 11:32:34 | 48.51753 | 12.59043 | 59° | 73km/h | 14453m | 5.1m/s | -53.0°C | 4.8% | 139.6hPa | 2.7V | 00:00:00 | 01:03:12 | 00:00:00 | |
| PETON7-10 | 2026-08-31 11:32:29 | 48.51710 | 12.58914 | 67° | 71km/h | 14430m | 5.6m/s | -53.0°C | 4.7% | 140.0hPa | 2.7V | 00:00:00 | 01:03:07 | 00:00:00 | |
| DO3MHA-11 | 2026-08-31 11:32:25 | 48.51678 | 12.58820 | 61° | 69km/h | 14411m | 4.8m/s | -53.0°C | 4.7% | 140.5hPa | 2.7V | 00:00:00 | 01:03:03 | 00:00:00 | |
| OE5MMP-10 | 2026-08-31 11:32:24 | 48.51669 | 12.58795 | 61° | 71km/h | 14406m | 4.4m/s | -52.9°C | 4.7% | 140.6hPa | 2.7V | 00:00:00 | 01:03:02 | 00:00:00 | |
| OE5HKT-10 | 2026-08-31 11:32:22 | 48.51651 | 12.58746 | 63° | 77km/h | 14397m | 4.3m/s | -52.8°C | 4.6% | 140.8hPa | 2.7V | 00:00:00 | 00:00:00 | 00:00:00 | |
| OE5WHR-10 | 2026-08-31 11:32:20 | 48.51636 | 12.58699 | 67° | 78km/h | 14387m | 3.8m/s | -52.8°C | 4.6% | 141.0hPa | 2.7V | 00:00:00 | 00:00:00 | 08:30:00 | |
| OE5DXL-15 | 2026-08-31 11:32:19 | 48.51630 | 12.58677 | 67° | 82km/h | 14382m | 5.5m/s | -52.8°C | 4.6% | 141.1hPa | 2.7V | 00:00:00 | 00:00:00 | 00:00:00 | |
| OE5DRO-10 | 2026-08-31 11:32:16 | 48.51610 | 12.58603 | 70° | 82km/h | 14365m | 5.9m/s | -52.8°C | 4.7% | 141.4hPa | 2.7V | 00:00:00 | 00:00:00 | 00:00:00 | |
| DO3MHA-11 | 2026-08-31 11:32:15 | 48.51603 | 12.58576 | 71° | 82km/h | 14359m | 5.7m/s | -52.8°C | 4.6% | 141.6hPa | 2.7V | 00:00:00 | 01:02:53 | 00:00:00 | |
| OE5MMP-10 | 2026-08-31 11:32:14 | 48.51596 | 12.58547 | 70° | 82km/h | 14354m | 4.5m/s | -52.7°C | 4.6% | 141.7hPa | 2.7V | 00:00:00 | 01:02:52 | 08:30:00 | |
| OE5FHM-15 | 2026-08-31 11:32:06 | 48.51534 | 12.58315 | 71° | 89km/h | 14316m | 3.9m/s | -52.6°C | 4.6% | 142.6hPa | 2.7V | 00:00:00 | 01:02:44 | 00:00:00 | |
| DO3MHA-11 | 2026-08-31 11:32:05 | 48.51527 | 12.58286 | 71° | 84km/h | 14311m | 5.5m/s | -52.6°C | 4.6% | 142.6hPa | 2.7V | 00:00:00 | 01:02:43 | 00:00:00 | |
| OE5MMP-10 | 2026-08-31 11:32:04 | 48.51521 | 12.58257 | 72° | 84km/h | 14305m | 5.3m/s | -52.6°C | 4.6% | 142.8hPa | 2.7V | 00:00:00 | 01:02:42 | 00:00:00 | |
| DL6DJ-15 | 2026-08-31 11:32:03 | 48.51515 | 12.58228 | 72° | 80km/h | 14301m | 3.8m/s | -52.6°C | 2.1% | 143.0hPa | 2.7V | 00:00:00 | 00:00:00 | 00:00:00 | |
| OE5HKT-10 | 2026-08-31 11:32:01 | 48.51502 | 12.58169 | 73° | 89km/h | 14291m | 4.7m/s | -52.5°C | 4.6% | 143.1hPa | 2.7V | 00:00:00 | 01:02:39 | 00:00:00 | |
| OE5WHR-10 | 2026-08-31 11:31:59 | 48.51490 | 12.58110 | 74° | 91km/h | 14282m | 5.4m/s | -52.5°C | 4.7% | 143.3hPa | 2.7V | 00:00:00 | 00:00:00 | 00:00:00 | |
| OE5DRO-10 | 2026-08-31 11:31:57 | 48.51478 | 12.58046 | 75° | 91km/h | 14273m | 4.8m/s | -52.6°C | 4.7% | 143.5hPa | 2.7V | 00:00:00 | 00:00:00 | 00:00:00 | |
| DO3MHA-11 | 2026-08-31 11:31:55 | 48.51466 | 12.57982 | 76° | 89km/h | 14263m | 4.6m/s | -52.5°C | 4.6% | 143.8hPa | 2.7V | 00:00:00 | 01:02:33 | 00:00:00 | |
| OE5MMP-10 | 2026-08-31 11:31:54 | 48.51461 | 12.57949 | 76° | 89km/h | 14258m | 4.7m/s | -52.5°C | 4.7% | 143.8hPa | 2.7V | 00:00:00 | 01:02:32 | 00:00:00 | |
| OE5DXL-15 | 2026-08-31 11:31:49 | 48.51434 | 12.57785 | 79° | 100km/h | 14233m | 3.7m/s | -52.6°C | 4.7% | 144.4hPa | 2.7V | 00:00:00 | 00:00:00 | 00:00:00 | |
| OE5REO-15 | 2026-08-31 11:31:46 | 48.51426 | 12.57720 | 80° | 89km/h | 14223m | 5.5m/s | -52.6°C | 2.2% | 144.7hPa | 2.7V | 00:00:00 | 00:00:00 | 00:00:00 | |
| DO3MHA-11 | 2026-08-31 11:31:45 | 48.51417 | 12.57651 | 79° | 97km/h | 14214m | 4.2m/s | -52.5°C | 4.7% | 144.8hPa | 2.7V | 00:00:00 | 01:02:23 | 00:00:00 | |
| OE5MMP-10 | 2026-08-31 11:31:44 | 48.51412 | 12.57616 | 79° | 99km/h | 14209m | 5.4m/s | -52.6°C | 4.7% | 144.9hPa | 2.7V | 00:00:00 | 01:02:22 | 00:00:00 | |
| OE5HKT-10 | 2026-08-31 11:31:40 | 48.51393 | 12.57472 | 79° | 102km/h | 14189m | 4.9m/s | -52.5°C | 4.7% | 145.4hPa | 2.7V | 00:00:00 | 00:00:00 | 00:00:00 | |
| DG1MFX-10 | 2026-08-31 11:31:39 | 48.51393 | 12.57472 | 80° | 100km/h | 14189m | 5.0m/s | -52.5°C | 2.2% | 145.5hPa | 2.7V | 00:00:00 | 00:00:00 | 00:00:00 | |
| OE5WHR-10 | 2026-08-31 11:31:38 | 48.51383 | 12.57398 | 79° | 104km/h | 14179m | 4.5m/s | -52.6°C | 4.7% | 145.6hPa | 2.7V | 00:00:00 | 01:02:16 | 00:00:00 | |
| OE5FHM-15 | 2026-08-31 11:31:36 | 48.51373 | 12.57324 | 80° | 104km/h | 14168m | 5.0m/s | -52.6°C | 4.7% | 145.8hPa | 2.7V | 00:00:00 | 01:02:14 | 00:00:00 | |
| DO3MHA-11 | 2026-08-31 11:31:35 | 48.51369 | 12.57287 | 81° | 106km/h | 14163m | 5.4m/s | -52.6°C | 4.7% | 146.0hPa | 2.7V | 00:00:00 | 01:02:13 | 00:00:00 | |
| OE5MMP-10 | 2026-08-31 11:31:34 | 48.51365 | 12.57249 | 81° | 104km/h | 14157m | 4.9m/s | -52.7°C | 4.8% | 146.1hPa | 2.7V | 00:00:00 | 01:02:12 | 00:00:00 | |
| DL6DJ-15 | 2026-08-31 11:31:32 | 48.51356 | 12.57174 | 80° | 102km/h | 14148m | 5.7m/s | -52.8°C | 2.2% | 146.3hPa | 2.7V | 00:00:00 | 00:00:00 | 00:00:00 | |
| OE5REO-15 | 2026-08-31 11:31:30 | 48.51352 | 12.57135 | 81° | 104km/h | 14142m | 5.0m/s | -52.8°C | 2.2% | 146.5hPa | 2.7V | 00:00:00 | 00:00:00 | 00:00:00 | |
| PETON7-10 | 2026-08-31 11:31:29 | 48.51342 | 12.57058 | 79° | 106km/h | 14132m | 4.1m/s | -52.7°C | 4.8% | 146.7hPa | 2.7V | 00:00:00 | 00:00:00 | 00:00:00 | |
| PG1ADW-2 | 2026-08-31 11:31:25 | 48.51320 | 12.56899 | 78° | 106km/h | 14111m | 5.2m/s | -52.9°C | 4.9% | 147.1hPa | 2.7V | 00:00:00 | 01:02:03 | 00:00:00 | |
| OE5MMP-10 | 2026-08-31 11:31:24 | 48.51314 | 12.56859 | 77° | 106km/h | 14107m | 4.2m/s | -52.9°C | 4.8% | 147.2hPa | 2.7V | 00:00:00 | 01:02:02 | 00:00:00 | |
| DO3MHA-11 | 2026-08-31 11:31:23 | 48.51308 | 12.56819 | 77° | 106km/h | 14102m | 5.8m/s | -53.0°C | 4.9% | 147.4hPa | 2.7V | 00:00:00 | 01:02:01 | 00:00:00 | |
| OE5DXL-15 | 2026-08-31 11:31:19 | 48.51283 | 12.56665 | 77° | 104km/h | 14081m | 5.4m/s | -53.0°C | 4.9% | 147.8hPa | 2.7V | 00:00:00 | 00:00:00 | 00:00:00 | |
| OE5WHR-10 | 2026-08-31 11:31:17 | 48.51271 | 12.56587 | 78° | 104km/h | 14072m | 3.6m/s | -53.0°C | 5.0% | 148.0hPa | 2.7V | 00:00:00 | 00:00:00 | 00:00:00 | |
| OE5MMP-10 | 2026-08-31 11:31:14 | 48.51254 | 12.56468 | 79° | 104km/h | 14059m | 5.3m/s | -53.1°C | 5.0% | 148.3hPa | 2.7V | 00:00:00 | 01:01:52 | 00:00:00 | |
| DO3MHA-11 | 2026-08-31 11:31:13 | 48.51249 | 12.56428 | 79° | 104km/h | 14053m | 4.6m/s | -53.1°C | 5.0% | 148.5hPa | 2.7V | 00:00:00 | 01:01:51 | 00:00:00 | |
| OE5FHM-15 | 2026-08-31 11:31:06 | 48.51209 | 12.56158 | 78° | 108km/h | 14022m | 4.3m/s | -53.5°C | 5.3% | 149.2hPa | 2.7V | 00:00:00 | 01:01:44 | 08:30:00 | |
| PG1ADW-2 | 2026-08-31 11:31:05 | 48.51203 | 12.56119 | 77° | 106km/h | 14017m | 5.1m/s | -53.4°C | 5.3% | 149.3hPa | 2.7V | 00:00:00 | 00:00:00 | 00:00:00 | |
| OE5MMP-10 | 2026-08-31 11:31:04 | 48.51197 | 12.56080 | 76° | 104km/h | 14013m | 4.0m/s | -53.4°C | 5.3% | 149.4hPa | 2.7V | 00:00:00 | 01:01:42 | 00:00:00 | |
| DO3MHA-11 | 2026-08-31 11:31:03 | 48.51190 | 12.56041 | 77° | 104km/h | 14008m | 5.1m/s | -53.4°C | 5.3% | 149.5hPa | 2.7V | 00:00:00 | 01:01:41 | 08:30:00 | |
| DL6DJ-15 | 2026-08-31 11:31:01 | 48.51178 | 12.55964 | 76° | 104km/h | 13998m | 4.3m/s | -53.4°C | 2.5% | 149.8hPa | 2.7V | 00:00:00 | 00:00:00 | 00:00:00 | |
| OE5DRO-10 | 2026-08-31 11:31:00 | 48.51172 | 12.55925 | 77° | 108km/h | 13993m | 5.2m/s | -53.4°C | 5.2% | 149.8hPa | 2.7V | 00:00:00 | 00:00:00 | 00:00:00 | |
| PETON7-10 | 2026-08-31 11:30:59 | 48.51166 | 12.55887 | 77° | 108km/h | 13988m | 4.4m/s | -53.4°C | 5.2% | 150.0hPa | 2.7V | 00:00:00 | 01:01:37 | 00:00:00 | |
| OE5HKT-10 | 2026-08-31 11:30:58 | 48.51160 | 12.55848 | 78° | 108km/h | 13983m | 5.7m/s | -53.3°C | 5.2% | 150.1hPa | 2.7V | 00:00:00 | 01:01:36 | 00:00:00 | |
| BAUMI2-15 | 2026-08-31 11:30:57 | 48.51155 | 12.55810 | 79° | 110km/h | 13978m | 4.4m/s | 0°C | 0% | 0hPa | 2.7V | 00:00:00 | 01:01:35 | 00:00:00 | |
| OE5MMP-10 | 2026-08-31 11:30:54 | 48.51139 | 12.55694 | 79° | 110km/h | 13964m | 5.2m/s | -53.2°C | 5.2% | 150.5hPa | 2.7V | 00:00:00 | 01:01:32 | 00:00:00 | |
| DO3MHA-11 | 2026-08-31 11:30:53 | 48.51134 | 12.55656 | 80° | 110km/h | 13959m | 4.6m/s | -53.2°C | 5.2% | 150.7hPa | 2.7V | 00:00:00 | 01:01:31 | 00:00:00 | |
| OE5DXL-15 | 2026-08-31 11:30:49 | 48.51114 | 12.55495 | 80° | 115km/h | 13940m | 5.0m/s | -53.0°C | 5.2% | 151.1hPa | 2.7V | 00:00:00 | 00:00:00 | 00:00:00 | |
| PG1ADW-2 | 2026-08-31 11:30:45 | 48.51093 | 12.55326 | 79° | 113km/h | 13920m | 4.6m/s | -52.9°C | 5.1% | 151.6hPa | 2.7V | 00:00:00 | 00:00:00 | 00:00:00 | |
| OE5MMP-10 | 2026-08-31 11:30:44 | 48.51088 | 12.55284 | 79° | 111km/h | 13915m | 4.6m/s | -52.9°C | 5.0% | 151.7hPa | 2.7V | 00:00:00 | 01:01:22 | 08:30:00 | |
| DO3MHA-11 | 2026-08-31 11:30:43 | 48.51082 | 12.55243 | 80° | 113km/h | 13910m | 5.5m/s | -52.9°C | 5.1% | 151.8hPa | 2.7V | 00:00:00 | 01:01:21 | 00:00:00 | |
| OE5DRO-10 | 2026-08-31 11:30:41 | 48.51071 | 12.55162 | 79° | 115km/h | 13900m | 5.4m/s | -52.8°C | 5.1% | 152.1hPa | 2.7V | 00:00:00 | 00:00:00 | 00:00:00 | |
| OE5HKT-10 | 2026-08-31 11:30:37 | 48.51047 | 12.54997 | 79° | 117km/h | 13882m | 4.0m/s | -52.7°C | 5.2% | 152.5hPa | 2.7V | 00:00:00 | 00:00:00 | 00:00:00 | |
| OE5FHM-15 | 2026-08-31 11:30:36 | 48.51041 | 12.54954 | 78° | 119km/h | 13877m | 4.7m/s | -52.7°C | 5.2% | 152.6hPa | 2.7V | 00:00:00 | 01:01:14 | 00:00:00 | |
| OE5WHR-10 | 2026-08-31 11:30:35 | 48.51034 | 12.54910 | 77° | 117km/h | 13872m | 5.4m/s | -52.7°C | 5.2% | 152.7hPa | 2.7V | 00:00:00 | 01:01:13 | 00:00:00 | |
| OE5MMP-10 | 2026-08-31 11:30:34 | 48.51028 | 12.54867 | 77° | 115km/h | 13867m | 4.6m/s | -52.7°C | 5.2% | 152.8hPa | 2.7V | 00:00:00 | 01:01:12 | 00:00:00 | |
| DO3MHA-11 | 2026-08-31 11:30:33 | 48.51021 | 12.54824 | 78° | 117km/h | 13862m | 6.2m/s | -52.8°C | 5.2% | 152.9hPa | 2.7V | 00:00:00 | 01:01:11 | 00:00:00 | |
| DG1MFX-10 | 2026-08-31 11:30:32 | 48.51021 | 12.54824 | 78° | 115km/h | 13862m | 6.2m/s | -52.8°C | 2.7% | 153.0hPa | 2.7V | 00:00:00 | 00:00:00 | 00:00:00 | |
| DL6DJ-15 | 2026-08-31 11:30:30 | 48.51001 | 12.54698 | 75° | 113km/h | 13847m | 4.9m/s | -52.9°C | 2.7% | 153.3hPa | 2.7V | 00:00:00 | 00:00:00 | 00:00:00 | |
| PETON7-10 | 2026-08-31 11:30:29 | 48.50993 | 12.54656 | 76° | 119km/h | 13843m | 3.6m/s | -52.8°C | 5.2% | 153.4hPa | 2.7V | 00:00:00 | 00:00:00 | 00:00:00 | |
| PG1ADW-2 | 2026-08-31 11:30:25 | 48.50965 | 12.54483 | 76° | 119km/h | 13824m | 4.2m/s | -53.0°C | 5.2% | 153.8hPa | 2.7V | 00:00:00 | 00:00:00 | 00:00:00 | |
| OE5MMP-10 | 2026-08-31 11:30:24 | 48.50957 | 12.54439 | 76° | 119km/h | 13820m | 4.6m/s | -53.0°C | 5.3% | 153.9hPa | 2.7V | 00:00:00 | 01:01:02 | 00:00:00 | |
| DO3MHA-11 | 2026-08-31 11:30:23 | 48.50949 | 12.54394 | 76° | 119km/h | 13815m | 4.8m/s | -53.1°C | 5.3% | 154.1hPa | 2.7V | 00:00:00 | 01:01:01 | 00:00:00 | |
| OE5DRO-10 | 2026-08-31 11:30:22 | 48.50942 | 12.54349 | 76° | 120km/h | 13810m | 3.6m/s | -53.1°C | 5.3% | 154.1hPa | 2.7V | 00:00:00 | 00:00:00 | 00:00:00 | |
| OE5DXL-15 | 2026-08-31 11:30:19 | 48.50917 | 12.54218 | 74° | 120km/h | 13797m | 5.1m/s | -53.1°C | 5.3% | 154.5hPa | 2.7V | 00:00:00 | 00:00:00 | 00:00:00 | |
| OE5HKT-10 | 2026-08-31 11:30:16 | 48.50891 | 12.54092 | 72° | 124km/h | 13785m | 4.9m/s | -53.4°C | 5.5% | 154.8hPa | 2.7V | 00:00:00 | 00:00:00 | 00:00:00 | |
| PETON7-10 | 2026-08-31 11:30:14 | 48.50871 | 12.54008 | 71° | 120km/h | 13777m | 4.1m/s | -53.5°C | 5.6% | 155.0hPa | 2.7V | 00:00:00 | 01:00:52 | 00:00:00 | |
| DO3MHA-11 | 2026-08-31 11:30:13 | 48.50862 | 12.53965 | 72° | 122km/h | 13773m | 4.0m/s | -53.5°C | 5.6% | 155.1hPa | 2.7V | 00:00:00 | 01:00:51 | 00:00:00 | |
| OE3JTB-15 | 2026-08-31 11:30:11 | 48.50843 | 12.53877 | 73° | 120km/h | 13764m | 4.8m/s | -53.5°C | 5.6% | 155.3hPa | 2.7V | 00:00:00 | 00:00:00 | 00:00:00 | |
| OE5FHM-15 | 2026-08-31 11:30:06 | 48.50797 | 12.53652 | 72° | 120km/h | 13744m | 4.7m/s | -54.0°C | 5.6% | 155.8hPa | 2.7V | 00:00:00 | 01:00:44 | 00:00:00 | |
| PG1ADW-2 | 2026-08-31 11:30:05 | 48.50787 | 12.53609 | 71° | 119km/h | 13740m | 3.9m/s | -54.2°C | 5.7% | 155.9hPa | 2.7V | 00:00:00 | 01:00:43 | 00:00:00 | |
| OE5MMP-10 | 2026-08-31 11:30:04 | 48.50777 | 12.53566 | 71° | 119km/h | 13736m | 3.7m/s | -54.3°C | 5.8% | 156.0hPa | 2.7V | 00:00:00 | 01:00:42 | 00:00:00 | |
| OE5DRO-10 | 2026-08-31 11:30:03 | 48.50768 | 12.53523 | 72° | 120km/h | 13732m | 4.9m/s | -54.4°C | 5.9% | 156.1hPa | 2.7V | 00:00:00 | 00:00:00 | 00:00:00 | |
| PETON7-10 | 2026-08-31 11:29:59 | 48.50729 | 12.53352 | 71° | 120km/h | 13715m | 4.2m/s | -54.7°C | 6.0% | 156.5hPa | 2.7V | 00:00:00 | 00:00:00 | 00:00:00 | |
| OE5REO-15 | 2026-08-31 11:29:58 | 48.50729 | 12.53352 | 71° | 119km/h | 13715m | 4.3m/s | -54.7°C | 3.2% | 156.5hPa | 2.7V | 00:00:00 | 00:00:00 | 00:00:00 | |
| OE5MMP-10 | 2026-08-31 11:29:54 | 48.50681 | 12.53139 | 72° | 120km/h | 13695m | 4.9m/s | -55.0°C | 6.3% | 157.0hPa | 2.7V | 00:00:00 | 01:00:32 | 00:00:00 | |
| DO3MHA-11 | 2026-08-31 11:29:53 | 48.50671 | 12.53096 | 72° | 120km/h | 13691m | 4.0m/s | -55.0°C | 6.3% | 157.1hPa | 2.7V | 00:00:00 | 01:00:31 | 00:00:00 | |
| OE5DXL-15 | 2026-08-31 11:29:49 | 48.50631 | 12.52921 | 72° | 126km/h | 13675m | 4.2m/s | -55.3°C | 6.4% | 157.5hPa | 2.7V | 00:00:00 | 00:00:00 | 00:00:00 | |
| PG1ADW-2 | 2026-08-31 11:29:45 | 48.50593 | 12.52745 | 72° | 124km/h | 13660m | 3.4m/s | -55.3°C | 6.5% | 157.8hPa | 2.7V | 00:00:00 | 00:00:00 | 08:30:00 | |
| OE5MMP-10 | 2026-08-31 11:29:44 | 48.50584 | 12.52702 | 73° | 122km/h | 13656m | 4.3m/s | -55.3°C | 6.6% | 157.9hPa | 2.7V | 00:00:00 | 01:00:22 | 00:00:00 | |
| DO3MHA-11 | 2026-08-31 11:29:43 | 48.50575 | 12.52658 | 75° | 124km/h | 13652m | 3.8m/s | -55.3°C | 6.7% | 158.1hPa | 2.7V | 00:00:00 | 01:00:21 | 00:00:00 | |
| DG1MFX-10 | 2026-08-31 11:29:42 | 48.50575 | 12.52658 | 75° | 119km/h | 13652m | 3.9m/s | -55.3°C | 3.6% | 158.1hPa | 2.7V | 00:00:00 | 00:00:00 | 00:00:00 | |
| OE5REO-15 | 2026-08-31 11:29:41 | 48.50568 | 12.52615 | 76° | 119km/h | 13648m | 3.2m/s | -55.3°C | 3.7% | 158.2hPa | 2.7V | 00:00:00 | 00:00:00 | 00:00:00 | |
| OE3JTB-15 | 2026-08-31 11:29:39 | 48.50542 | 12.52481 | 74° | 128km/h | 13637m | 4.2m/s | -55.1°C | 6.6% | 158.4hPa | 2.7V | 00:00:00 | 00:00:00 | 00:00:00 | |
| DK5PH-5 | 2026-08-31 11:29:36 | 48.50517 | 12.52345 | 75° | 130km/h | 13625m | 4.6m/s | -55.2°C | 6.6% | 158.7hPa | 2.7V | 00:00:00 | 01:00:14 | 00:00:00 | |
| OE5MMP-10 | 2026-08-31 11:29:34 | 48.50499 | 12.52251 | 74° | 128km/h | 13617m | 5.0m/s | -55.2°C | 6.5% | 158.9hPa | 2.7V | 00:00:00 | 01:00:12 | 00:00:00 | |
| DO3MHA-11 | 2026-08-31 11:29:33 | 48.50490 | 12.52204 | 73° | 128km/h | 13612m | 4.3m/s | -55.2°C | 6.6% | 159.0hPa | 2.7V | 00:00:00 | 01:00:11 | 08:30:00 | |
| OE5WHR-10 | 2026-08-31 11:29:32 | 48.50480 | 12.52158 | 73° | 130km/h | 13608m | 3.4m/s | -55.2°C | 6.5% | 159.1hPa | 2.7V | 00:00:00 | 01:00:10 | 00:00:00 | |
| PETON7-10 | 2026-08-31 11:29:29 | 48.50451 | 12.52017 | 74° | 128km/h | 13597m | 4.4m/s | -55.2°C | 6.8% | 159.4hPa | 2.7V | 00:00:00 | 01:00:07 | 00:00:00 | |
| DL6DJ-15 | 2026-08-31 11:29:28 | 48.50442 | 12.51971 | 73° | 126km/h | 13593m | 4.0m/s | -55.2°C | 3.8% | 159.6hPa | 2.7V | 00:00:00 | 00:00:00 | 00:00:00 | |
| OE5MMP-10 | 2026-08-31 11:29:25 | 48.50408 | 12.51783 | 76° | 130km/h | 13578m | 3.9m/s | -55.4°C | 7.1% | 159.9hPa | 2.7V | 00:00:00 | 01:00:02 | 00:00:00 | |
| DO3MHA-11 | 2026-08-31 11:29:22 | 48.50393 | 12.51688 | 77° | 130km/h | 13570m | 3.9m/s | -55.5°C | 7.3% | 160.1hPa | 2.7V | 00:00:00 | 01:00:00 | 00:00:00 | |
| DG1MFX-10 | 2026-08-31 11:29:21 | 48.50392 | 12.51688 | 77° | 130km/h | 13570m | 4.0m/s | -55.5°C | 4.2% | 160.2hPa | 2.7V | 00:00:00 | 00:00:00 | 00:00:00 | |
| OE5DXL-15 | 2026-08-31 11:29:19 | 48.50370 | 12.51543 | 77° | 137km/h | 13558m | 3.5m/s | -55.5°C | 7.3% | 160.4hPa | 2.7V | 00:00:00 | 00:00:00 | 08:30:00 | |
| PETON7-10 | 2026-08-31 11:29:14 | 48.50332 | 12.51306 | 78° | 137km/h | 13540m | 3.9m/s | -55.6°C | 7.5% | 160.8hPa | 2.7V | 00:00:00 | 00:00:00 | 00:00:00 | |
| DO3MHA-11 | 2026-08-31 11:29:12 | 48.50317 | 12.51209 | 77° | 139km/h | 13531m | 5.3m/s | -55.6°C | 7.6% | 161.1hPa | 2.7V | 00:00:00 | 00:59:50 | 00:00:00 | |
| OE5WHR-10 | 2026-08-31 11:29:11 | 48.50308 | 12.51160 | 76° | 141km/h | 13526m | 3.4m/s | -55.6°C | 7.6% | 161.2hPa | 2.7V | 00:00:00 | 00:00:00 | 08:30:00 | |
| OE3JTB-15 | 2026-08-31 11:29:10 | 48.50300 | 12.51112 | 76° | 146km/h | 13522m | 4.1m/s | -55.6°C | 7.7% | 161.3hPa | 2.7V | 00:00:00 | 00:59:48 | 00:00:00 | |
| OE5REO-15 | 2026-08-31 11:29:09 | 48.50300 | 12.51112 | 77° | 133km/h | 13522m | 4.1m/s | -55.7°C | 4.5% | 161.4hPa | 2.7V | 00:00:00 | 00:00:00 | 00:00:00 | |
| OE5FHM-15 | 2026-08-31 11:29:06 | 48.50266 | 12.50907 | 75° | 144km/h | 13507m | 3.4m/s | -55.6°C | 7.8% | 161.7hPa | 2.7V | 00:00:00 | 00:59:44 | 00:00:00 | |
| OE5MMP-10 | 2026-08-31 11:29:04 | 48.50247 | 12.50802 | 75° | 141km/h | 13498m | 4.1m/s | -55.6°C | 7.9% | 161.9hPa | 2.7V | 00:00:00 | 00:59:42 | 00:00:00 | |
| DL6DJ-15 | 2026-08-31 11:28:57 | 48.50179 | 12.50440 | 74° | 141km/h | 13473m | 3.4m/s | -55.5°C | 5.1% | 162.6hPa | 2.7V | 00:00:00 | 00:00:00 | 00:00:00 | |
| OE5MMP-10 | 2026-08-31 11:28:54 | 48.50149 | 12.50285 | 74° | 142km/h | 13462m | 3.7m/s | -55.5°C | 8.6% | 162.9hPa | 2.7V | 00:00:00 | 00:59:32 | 00:00:00 | |
| OE5REO-15 | 2026-08-31 11:28:53 | 48.50149 | 12.50285 | 74° | 142km/h | 13462m | 3.7m/s | -55.5°C | 5.3% | 162.9hPa | 2.7V | 00:00:00 | 00:00:00 | 00:00:00 | |
| DO3MHA-11 | 2026-08-31 11:28:52 | 48.50129 | 12.50181 | 74° | 144km/h | 13455m | 3.4m/s | -55.5°C | 8.8% | 163.0hPa | 2.7V | 00:00:00 | 00:59:30 | 00:00:00 | |
| OE5WHR-10 | 2026-08-31 11:28:50 | 48.50108 | 12.50077 | 73° | 148km/h | 13447m | 3.6m/s | -55.6°C | 8.9% | 163.2hPa | 2.7V | 00:00:00 | 00:00:00 | 00:00:00 | |
| OE5DXL-15 | 2026-08-31 11:28:49 | 48.50097 | 12.50026 | 73° | 150km/h | 13443m | 3.7m/s | -55.6°C | 8.8% | 163.4hPa | 2.7V | 00:00:00 | 00:00:00 | 00:00:00 | |
| OE5DRO-10 | 2026-08-31 11:28:47 | 48.50075 | 12.49922 | 73° | 150km/h | 13435m | 2.8m/s | -55.6°C | 8.7% | 163.6hPa | 2.7V | 00:00:00 | 00:00:00 | 00:00:00 | |
| OE5MMP-10 | 2026-08-31 11:28:44 | 48.50041 | 12.49766 | 73° | 150km/h | 13424m | 4.0m/s | -55.8°C | 8.5% | 163.9hPa | 2.7V | 00:00:00 | 00:59:22 | 00:00:00 | |
| DO3MHA-11 | 2026-08-31 11:28:42 | 48.50020 | 12.49659 | 75° | 151km/h | 13415m | 3.7m/s | -55.8°C | 8.4% | 164.1hPa | 2.7V | 00:00:00 | 00:59:20 | 00:00:00 | |
| DG1MFX-10 | 2026-08-31 11:28:39 | 48.49999 | 12.49550 | 75° | 148km/h | 13407m | 3.0m/s | -55.7°C | 5.0% | 164.3hPa | 2.7V | 00:00:00 | 00:00:00 | 00:00:00 | |
| OE5REO-15 | 2026-08-31 11:28:38 | 48.49988 | 12.49495 | 74° | 150km/h | 13404m | 4.1m/s | -55.7°C | 4.9% | 164.4hPa | 2.7V | 00:00:00 | 00:00:00 | 00:00:00 | |
| OE5HKT-10 | 2026-08-31 11:28:36 | 48.49954 | 12.49329 | 72° | 150km/h | 13390m | 4.9m/s | -55.7°C | 8.2% | 164.8hPa | 2.7V | 00:00:00 | 00:00:00 | 08:30:00 | |
| OE5MMP-10 | 2026-08-31 11:28:34 | 48.49928 | 12.49218 | 71° | 151km/h | 13381m | 4.0m/s | -55.7°C | 8.2% | 165.0hPa | 2.7V | 00:00:00 | 00:59:12 | 00:00:00 | |
| DO3MHA-11 | 2026-08-31 11:28:32 | 48.49902 | 12.49108 | 71° | 151km/h | 13373m | 3.6m/s | -55.6°C | 8.2% | 165.2hPa | 2.7V | 00:00:00 | 00:59:10 | 00:00:00 | |
| OE5WHR-10 | 2026-08-31 11:28:29 | 48.49863 | 12.48946 | 71° | 150km/h | 13361m | 4.8m/s | -55.7°C | 8.1% | 165.5hPa | 2.7V | 00:00:00 | 00:59:07 | 00:00:00 | |
| OE5DRO-10 | 2026-08-31 11:28:28 | 48.49850 | 12.48892 | 71° | 148km/h | 13357m | 3.3m/s | -55.8°C | 8.1% | 165.6hPa | 2.7V | 00:00:00 | 00:00:00 | 00:00:00 | |
| DL6DJ-15 | 2026-08-31 11:28:26 | 48.49812 | 12.48732 | 70° | 150km/h | 13345m | 4.8m/s | -55.8°C | 4.8% | 165.9hPa | 2.7V | 00:00:00 | 00:00:00 | 00:00:00 | |
| OE5MMP-10 | 2026-08-31 11:28:24 | 48.49799 | 12.48678 | 71° | 148km/h | 13340m | 3.9m/s | -55.8°C | 8.0% | 166.0hPa | 2.7V | 00:00:00 | 00:59:02 | 00:00:00 | |
| OE5REO-15 | 2026-08-31 11:28:23 | 48.49799 | 12.48678 | 72° | 151km/h | 13340m | 4.0m/s | -55.8°C | 4.8% | 166.1hPa | 2.7V | 00:00:00 | 00:00:00 | 00:00:00 | |
| DO3MHA-11 | 2026-08-31 11:28:22 | 48.49774 | 12.48569 | 71° | 150km/h | 13333m | 4.8m/s | -56.0°C | 8.1% | 166.2hPa | 2.7V | 00:00:00 | 00:59:00 | 00:00:00 | |
| OE5DXL-15 | 2026-08-31 11:28:19 | 48.49735 | 12.48410 | 70° | 148km/h | 13320m | 4.5m/s | -55.9°C | 8.1% | 166.5hPa | 2.7V | 00:00:00 | 00:00:00 | 00:00:00 | |
| DG1MFX-10 | 2026-08-31 11:28:18 | 48.49735 | 12.48410 | 70° | 148km/h | 13320m | 4.5m/s | -56.0°C | 4.8% | 166.6hPa | 2.7V | 00:00:00 | 00:00:00 | 00:00:00 | |
| OE5HKT-10 | 2026-08-31 11:28:15 | 48.49683 | 12.48203 | 69° | 148km/h | 13304m | 4.3m/s | -55.9°C | 8.1% | 167.0hPa | 2.7V | 00:00:00 | 00:00:00 | 00:00:00 | |
| OE5MMP-10 | 2026-08-31 11:28:14 | 48.49669 | 12.48151 | 69° | 150km/h | 13300m | 4.2m/s | -55.9°C | 8.2% | 167.1hPa | 2.7V | 00:00:00 | 00:58:52 | 00:00:00 | |
| OE5DRO-10 | 2026-08-31 11:28:09 | 48.49600 | 12.47886 | 69° | 148km/h | 13279m | 3.9m/s | -55.8°C | 8.3% | 167.7hPa | 2.7V | 00:00:00 | 00:00:00 | 00:00:00 | |
| OE5WHR-10 | 2026-08-31 11:28:08 | 48.49586 | 12.47833 | 69° | 148km/h | 13275m | 3.7m/s | -55.8°C | 8.2% | 167.7hPa | 2.7V | 00:00:00 | 00:00:00 | 00:00:00 | |
| OE5REO-15 | 2026-08-31 11:28:07 | 48.49586 | 12.47833 | 69° | 151km/h | 13275m | 3.7m/s | -55.8°C | 4.9% | 167.8hPa | 2.7V | 00:00:00 | 00:00:00 | 00:00:00 | |
| OE5FHM-15 | 2026-08-31 11:28:06 | 48.49558 | 12.47727 | 69° | 146km/h | 13267m | 3.3m/s | -55.7°C | 8.1% | 168.0hPa | 2.7V | 00:00:00 | 00:58:44 | 00:00:00 | |
| DO3MHA-11 | 2026-08-31 11:28:05 | 48.49544 | 12.47674 | 69° | 148km/h | 13263m | 4.0m/s | -55.7°C | 8.1% | 168.1hPa | 2.7V | 00:00:00 | 00:58:43 | 00:00:00 | |
| OE5MMP-10 | 2026-08-31 11:28:04 | 48.49530 | 12.47621 | 69° | 148km/h | 13259m | 4.4m/s | -55.8°C | 8.2% | 168.2hPa | 2.7V | 00:00:00 | 00:58:42 | 00:00:00 | |
| DL6DJ-15 | 2026-08-31 11:27:55 | 48.49399 | 12.47094 | 67° | 146km/h | 13217m | 4.0m/s | -55.5°C | 5.3% | 169.3hPa | 2.7V | 00:00:00 | 00:00:00 | 00:00:00 | |
| OE5MMP-10 | 2026-08-31 11:27:54 | 48.49399 | 12.47094 | 68° | 148km/h | 13218m | 4.0m/s | -55.5°C | 8.5% | 169.3hPa | 2.7V | 00:00:00 | 00:58:32 | 00:00:00 | |
| OE5REO-15 | 2026-08-31 11:27:52 | 48.49385 | 12.47043 | 68° | 146km/h | 13213m | 4.8m/s | -55.5°C | 5.3% | 169.5hPa | 2.7V | 00:00:00 | 00:00:00 | 00:00:00 | |
| OE5DRO-10 | 2026-08-31 11:27:50 | 48.49341 | 12.46889 | 68° | 146km/h | 13200m | 3.8m/s | -55.5°C | 8.8% | 169.7hPa | 2.7V | 00:00:00 | 00:00:00 | 00:00:00 | |
| OE5DXL-15 | 2026-08-31 11:27:49 | 48.49327 | 12.46836 | 68° | 146km/h | 13195m | 4.8m/s | -55.6°C | 9.0% | 169.8hPa | 2.7V | 00:00:00 | 00:00:00 | 00:00:00 | |
| OE5WHR-10 | 2026-08-31 11:27:47 | 48.49299 | 12.46732 | 70° | 144km/h | 13187m | 3.2m/s | -55.5°C | 9.2% | 170.1hPa | 2.7V | 00:00:00 | 00:00:00 | 00:00:00 | |
| DO3MHA-11 | 2026-08-31 11:27:45 | 48.49273 | 12.46627 | 70° | 144km/h | 13179m | 3.7m/s | -55.6°C | 9.4% | 170.3hPa | 2.7V | 00:00:00 | 00:58:23 | 00:00:00 | |
| OE5MMP-10 | 2026-08-31 11:27:44 | 48.49260 | 12.46574 | 71° | 144km/h | 13175m | 4.2m/s | -55.6°C | 9.5% | 170.4hPa | 2.7V | 00:00:00 | 00:58:22 | 08:30:00 | |
| S52SK | 2026-08-31 11:27:41 | 48.49235 | 12.46471 | 70° | 144km/h | 13167m | 3.9m/s | -55.8°C | 0% | 0hPa | 2.7V | 00:00:00 | 00:00:00 | 00:00:00 | |
| DG1MFX-10 | 2026-08-31 11:27:37 | 48.49180 | 12.46269 | 68° | 142km/h | 13149m | 3.6m/s | -55.7°C | 6.6% | 171.2hPa | 2.7V | 00:00:00 | 00:00:00 | 00:00:00 | |
| DK5PH-5 | 2026-08-31 11:27:36 | 48.49152 | 12.46168 | 68° | 148km/h | 13141m | 4.6m/s | -55.7°C | 10.3% | 171.3hPa | 2.7V | 00:00:00 | 00:58:14 | 00:00:00 | |
| DO3MHA-11 | 2026-08-31 11:27:35 | 48.49138 | 12.46117 | 68° | 146km/h | 13136m | 4.2m/s | -55.6°C | 10.4% | 171.5hPa | 2.7V | 00:00:00 | 00:58:13 | 00:00:00 | |
| OE5MMP-10 | 2026-08-31 11:27:34 | 48.49124 | 12.46066 | 68° | 146km/h | 13132m | 4.5m/s | -55.6°C | 10.4% | 171.6hPa | 2.7V | 00:00:00 | 00:58:12 | 00:00:00 | |
| OE5HKT-10 | 2026-08-31 11:27:33 | 48.49110 | 12.46014 | 69° | 148km/h | 13128m | 3.6m/s | -55.6°C | 10.5% | 171.7hPa | 2.7V | 00:00:00 | 00:00:00 | 00:00:00 | |
| OE5DRO-10 | 2026-08-31 11:27:31 | 48.49082 | 12.45911 | 69° | 148km/h | 13119m | 3.8m/s | -55.8°C | 11.0% | 171.9hPa | 2.7V | 00:00:00 | 00:00:00 | 00:00:00 | |
| PETON7-10 | 2026-08-31 11:27:29 | 48.49056 | 12.45808 | 70° | 146km/h | 13110m | 3.3m/s | 0°C | 0% | 0hPa | 2.7V | 00:00:00 | 00:00:00 | 00:00:00 | |
| OE5WHR-10 | 2026-08-31 11:27:26 | 48.49017 | 12.45654 | 70° | 150km/h | 13098m | 4.1m/s | -56.0°C | 12.1% | 172.5hPa | 2.7V | 00:00:00 | 00:58:04 | 00:00:00 | |
| DO3MHA-11 | 2026-08-31 11:27:25 | 48.49004 | 12.45601 | 70° | 148km/h | 13093m | 5.0m/s | -56.1°C | 12.4% | 172.6hPa | 2.7V | 00:00:00 | 00:58:03 | 00:00:00 | |
| DL6DJ-15 | 2026-08-31 11:27:24 | 48.48979 | 12.45497 | 69° | 144km/h | 13084m | 2.9m/s | -56.1°C | 9.0% | 172.9hPa | 2.7V | 00:00:00 | 00:00:00 | 00:00:00 | |
| OE5REO-15 | 2026-08-31 11:27:22 | 48.48965 | 12.45445 | 70° | 146km/h | 13080m | 4.8m/s | -56.1°C | 9.1% | 173.1hPa | 2.7V | 00:00:00 | 00:00:00 | 00:00:00 | |
| OE5DXL-15 | 2026-08-31 11:27:19 | 48.48925 | 12.45287 | 70° | 151km/h | 13067m | 4.7m/s | -56.2°C | 13.3% | 173.3hPa | 2.7V | 00:00:00 | 00:00:00 | 00:00:00 | |
| DG1MFX-10 | 2026-08-31 11:27:16 | 48.48899 | 12.45181 | 71° | 148km/h | 13058m | 4.7m/s | -56.3°C | 9.5% | 173.6hPa | 2.7V | 00:00:00 | 00:00:00 | 00:00:00 | |
| DO3MHA-11 | 2026-08-31 11:27:15 | 48.48872 | 12.45076 | 69° | 151km/h | 13048m | 4.0m/s | -56.3°C | 13.8% | 173.8hPa | 2.7V | 00:00:00 | 00:57:53 | 00:00:00 | |
| PETON7-10 | 2026-08-31 11:27:14 | 48.48858 | 12.45023 | 69° | 151km/h | 13044m | 4.4m/s | 0°C | 0% | 0hPa | 2.7V | 00:00:00 | 00:57:52 | 00:00:00 | |
| OE5HKT-10 | 2026-08-31 11:27:12 | 48.48831 | 12.44916 | 70° | 153km/h | 13035m | 4.0m/s | 0°C | 0% | 0hPa | 2.7V | 00:00:00 | 00:00:00 | 00:00:00 | |
| OE5FHM-15 | 2026-08-31 11:27:06 | 48.48751 | 12.44589 | 71° | 155km/h | 13008m | 4.7m/s | -56.1°C | 15.3% | 175.0hPa | 2.7V | 00:00:00 | 00:57:44 | 00:00:00 | |
| DO3MHA-11 | 2026-08-31 11:27:05 | 48.48739 | 12.44535 | 72° | 151km/h | 13004m | 4.2m/s | -56.1°C | 15.4% | 175.1hPa | 2.7V | 00:00:00 | 00:57:43 | 00:00:00 | |
| OE5MMP-10 | 2026-08-31 11:27:04 | 48.48727 | 12.44481 | 73° | 153km/h | 12999m | 4.3m/s | -56.1°C | 15.8% | 175.2hPa | 2.7V | 00:00:00 | 00:57:42 | 00:00:00 | |
| OE3JTB-15 | 2026-08-31 11:27:03 | 48.48716 | 12.44427 | 73° | 159km/h | 12996m | 3.5m/s | -56.1°C | 16.0% | 175.3hPa | 2.7V | 00:00:00 | 00:00:00 | 00:00:00 | |
| DL6DJ-15 | 2026-08-31 11:26:53 | 48.48570 | 12.43820 | 69° | 153km/h | 12946m | 4.6m/s | -56.3°C | 12.2% | 176.7hPa | 2.7V | 00:00:00 | 00:00:00 | 00:00:00 | |
| OE5HKT-10 | 2026-08-31 11:26:51 | 48.48557 | 12.43765 | 71° | 161km/h | 12942m | 3.9m/s | 0°C | 0% | 0hPa | 2.7V | 00:00:00 | 00:57:29 | 00:00:00 | |
| OE5REO-15 | 2026-08-31 11:26:50 | 48.48557 | 12.43765 | 72° | 155km/h | 12942m | 4.0m/s | -56.2°C | 12.3% | 176.9hPa | 2.7V | 00:00:00 | 00:00:00 | 00:00:00 | |
| OE5DXL-15 | 2026-08-31 11:26:49 | 48.48532 | 12.43652 | 73° | 162km/h | 12934m | 3.5m/s | -56.2°C | 16.5% | 177.1hPa | 2.7V | 00:00:00 | 00:00:00 | 00:00:00 | |
| DO3MHA-11 | 2026-08-31 11:26:45 | 48.48480 | 12.43429 | 70° | 161km/h | 12917m | 4.4m/s | -56.2°C | 16.6% | 177.5hPa | 2.7V | 00:00:00 | 00:57:23 | 00:00:00 | |
| PETON7-10 | 2026-08-31 11:26:44 | 48.48466 | 12.43372 | 70° | 162km/h | 12913m | 4.7m/s | 0°C | 0% | 0hPa | 2.7V | 00:00:00 | 00:00:00 | 00:00:00 | |
| OE5FHM-15 | 2026-08-31 11:26:36 | 48.48357 | 12.42911 | 73° | 164km/h | 12877m | 5.2m/s | -56.3°C | 17.3% | 178.7hPa | 2.7V | 00:00:00 | 00:57:14 | 08:30:00 | |
| DO3MHA-11 | 2026-08-31 11:26:35 | 48.48345 | 12.42853 | 74° | 164km/h | 12873m | 3.4m/s | -56.3°C | 17.2% | 178.8hPa | 2.7V | 00:00:00 | 00:57:13 | 00:00:00 | |
| OE5MMP-10 | 2026-08-31 11:26:34 | 48.48333 | 12.42794 | 74° | 164km/h | 12869m | 4.4m/s | -56.2°C | 17.0% | 178.8hPa | 2.7V | 00:00:00 | 00:57:12 | 00:00:00 | |
| OE5HKT-10 | 2026-08-31 11:26:30 | 48.48285 | 12.42553 | 74° | 164km/h | 12853m | 4.4m/s | 0°C | 0% | 0hPa | 2.7V | 00:00:00 | 00:00:00 | 00:00:00 | |
| DO3MHA-11 | 2026-08-31 11:26:25 | 48.48221 | 12.42259 | 70° | 164km/h | 12830m | 5.0m/s | -55.9°C | 17.8% | 180.0hPa | 2.7V | 00:00:00 | 00:57:03 | 08:30:00 | |
| OE5MMP-10 | 2026-08-31 11:26:24 | 48.48206 | 12.42201 | 69° | 164km/h | 12826m | 3.7m/s | -55.9°C | 17.9% | 180.1hPa | 2.7V | 00:00:00 | 00:57:02 | 00:00:00 | |
| OE5WHR-10 | 2026-08-31 11:26:23 | 48.48190 | 12.42143 | 68° | 164km/h | 12821m | 5.2m/s | -55.9°C | 17.9% | 180.2hPa | 2.7V | 00:00:00 | 00:57:01 | 00:00:00 | |
| DL6DJ-15 | 2026-08-31 11:26:22 | 48.48159 | 12.42026 | 68° | 166km/h | 12813m | 3.4m/s | -55.9°C | 13.2% | 180.5hPa | 2.7V | 00:00:00 | 00:00:00 | 00:00:00 | |
| OE5REO-15 | 2026-08-31 11:26:20 | 48.48143 | 12.41967 | 69° | 166km/h | 12809m | 4.6m/s | -55.9°C | 13.3% | 180.6hPa | 2.7V | 00:00:00 | 00:00:00 | 00:00:00 | |
| OE5DXL-15 | 2026-08-31 11:26:19 | 48.48128 | 12.41908 | 70° | 164km/h | 12805m | 4.0m/s | -55.8°C | 17.5% | 180.7hPa | 2.7V | 00:00:00 | 00:00:00 | 00:00:00 | |
| S52SK | 2026-08-31 11:26:17 | 48.48113 | 12.41851 | 71° | 162km/h | 12801m | 3.8m/s | -55.9°C | 0% | 0hPa | 2.7V | 00:00:00 | 00:00:00 | 00:00:00 | |
| DO3MHA-11 | 2026-08-31 11:26:15 | 48.48070 | 12.41676 | 70° | 166km/h | 12786m | 5.8m/s | -55.8°C | 17.2% | 181.2hPa | 2.7V | 00:00:00 | 00:56:53 | 00:00:00 | |
| OE5MMP-10 | 2026-08-31 11:26:14 | 48.48056 | 12.41618 | 69° | 166km/h | 12781m | 4.5m/s | -55.8°C | 17.3% | 181.4hPa | 2.7V | 00:00:00 | 00:56:52 | 08:30:00 | |
| OE5HKT-10 | 2026-08-31 11:26:09 | 48.47977 | 12.41322 | 67° | 166km/h | 12756m | 4.6m/s | 0°C | 0% | 0hPa | 2.7V | 00:00:00 | 00:00:00 | 00:00:00 | |
| OE5FHM-15 | 2026-08-31 11:26:06 | 48.47927 | 12.41147 | 67° | 164km/h | 12742m | 3.4m/s | -55.6°C | 17.5% | 182.5hPa | 2.7V | 00:00:00 | 00:56:44 | 00:00:00 | |
| DO3MHA-11 | 2026-08-31 11:26:05 | 48.47910 | 12.41090 | 66° | 164km/h | 12739m | 5.0m/s | -55.7°C | 17.8% | 182.6hPa | 2.7V | 00:00:00 | 00:56:43 | 00:00:00 | |
| OE5MMP-10 | 2026-08-31 11:26:04 | 48.47893 | 12.41034 | 66° | 166km/h | 12734m | 4.2m/s | -55.7°C | 18.1% | 182.8hPa | 2.7V | 00:00:00 | 00:56:42 | 00:00:00 | |
| OE5REO-15 | 2026-08-31 11:26:03 | 48.47893 | 12.41034 | 66° | 161km/h | 12734m | 4.2m/s | -55.7°C | 13.6% | 182.8hPa | 2.7V | 00:00:00 | 00:00:00 | 00:00:00 | |
| DL6DJ-15 | 2026-08-31 11:25:50 | 48.47660 | 12.40231 | 66° | 157km/h | 12674m | 3.6m/s | -55.7°C | 13.0% | 184.6hPa | 2.7V | 00:00:00 | 00:00:00 | 00:00:00 | |
| OE5DXL-15 | 2026-08-31 11:25:49 | 48.47644 | 12.40176 | 67° | 164km/h | 12670m | 4.5m/s | -55.6°C | 17.6% | 184.6hPa | 2.7V | 00:00:00 | 00:00:00 | 00:00:00 | |
| OE5REO-15 | 2026-08-31 11:25:47 | 48.47628 | 12.40121 | 68° | 159km/h | 12665m | 4.4m/s | -55.6°C | 13.3% | 184.8hPa | 2.7V | 00:00:00 | 00:00:00 | 00:00:00 | |
| DO3MHA-11 | 2026-08-31 11:25:45 | 48.47581 | 12.39949 | 68° | 166km/h | 12652m | 4.2m/s | -55.4°C | 17.7% | 185.1hPa | 2.7V | 00:00:00 | 00:56:23 | 00:00:00 | |
| OE5MMP-10 | 2026-08-31 11:25:44 | 48.47564 | 12.39890 | 68° | 166km/h | 12649m | 3.4m/s | -55.4°C | 17.7% | 185.2hPa | 2.7V | 00:00:00 | 00:56:22 | 00:00:00 | |
| OE5WHR-10 | 2026-08-31 11:25:41 | 48.47518 | 12.39713 | 69° | 164km/h | 12636m | 3.6m/s | -55.4°C | 18.0% | 185.6hPa | 2.7V | 00:00:00 | 00:00:00 | 00:00:00 | |
| OE5HKT-10 | 2026-08-31 11:25:40 | 48.47502 | 12.39655 | 68° | 166km/h | 12632m | 4.2m/s | 0°C | 0% | 0hPa | 2.7V | 00:00:00 | 00:56:18 | 00:00:00 | |
| OE5DRO-10 | 2026-08-31 11:25:37 | 48.47454 | 12.39480 | 69° | 164km/h | 12619m | 4.0m/s | -55.4°C | 18.1% | 186.1hPa | 2.7V | 00:00:00 | 00:00:00 | 00:00:00 | |
| DK5PH-5 | 2026-08-31 11:25:36 | 48.47439 | 12.39422 | 68° | 166km/h | 12614m | 5.1m/s | -55.4°C | 18.1% | 186.2hPa | 2.7V | 00:00:00 | 00:56:14 | 00:00:00 | |
| DO3MHA-11 | 2026-08-31 11:25:35 | 48.47423 | 12.39364 | 69° | 166km/h | 12610m | 4.0m/s | -55.4°C | 18.1% | 186.3hPa | 2.7V | 00:00:00 | 00:56:13 | 00:00:00 | |
| OE5MMP-10 | 2026-08-31 11:25:34 | 48.47408 | 12.39305 | 69° | 166km/h | 12606m | 4.3m/s | -55.4°C | 18.2% | 186.4hPa | 2.7V | 00:00:00 | 00:56:12 | 00:00:00 | |
| S52SK | 2026-08-31 11:25:31 | 48.47378 | 12.39187 | 70° | 166km/h | 12597m | 4.7m/s | 0°C | 0% | 0hPa | 2.7V | 00:00:00 | 00:00:00 | 00:00:00 | |
| PETON7-10 | 2026-08-31 11:25:30 | 48.47348 | 12.39069 | 70° | 164km/h | 12588m | 3.9m/s | 0°C | 0% | 0hPa | 2.7V | 00:00:00 | 00:00:00 | 00:00:00 | |
| DO3MHA-11 | 2026-08-31 11:25:25 | 48.47273 | 12.38776 | 69° | 166km/h | 12567m | 4.2m/s | -55.2°C | 17.6% | 187.6hPa | 2.7V | 00:00:00 | 00:56:03 | 00:00:00 | |
| OE5MMP-10 | 2026-08-31 11:25:24 | 48.47257 | 12.38718 | 69° | 166km/h | 12563m | 4.0m/s | -55.1°C | 17.5% | 187.7hPa | 2.7V | 00:00:00 | 00:56:02 | 00:00:00 | |
| OE5WHR-10 | 2026-08-31 11:25:20 | 48.47195 | 12.38487 | 69° | 166km/h | 12546m | 4.9m/s | -55.1°C | 17.7% | 188.2hPa | 2.7V | 00:00:00 | 00:55:58 | 00:00:00 | |
| OE5DXL-15 | 2026-08-31 11:25:19 | 48.47180 | 12.38428 | 70° | 166km/h | 12542m | 3.7m/s | -55.1°C | 17.7% | 188.3hPa | 2.7V | 00:00:00 | 00:00:00 | 00:00:00 | |
| OE5DRO-10 | 2026-08-31 11:25:18 | 48.47166 | 12.38369 | 70° | 166km/h | 12537m | 5.3m/s | -55.1°C | 17.5% | 188.5hPa | 2.7V | 00:00:00 | 00:00:00 | 00:00:00 | |
| DO3MHA-11 | 2026-08-31 11:25:15 | 48.47121 | 12.38188 | 70° | 164km/h | 12524m | 4.3m/s | -55.0°C | 17.8% | 188.8hPa | 2.7V | 00:00:00 | 00:55:53 | 00:00:00 | |
| OE5MMP-10 | 2026-08-31 11:25:14 | 48.47106 | 12.38129 | 70° | 164km/h | 12521m | 3.1m/s | -55.0°C | 17.8% | 188.9hPa | 2.7V | 00:00:00 | 00:55:52 | 00:00:00 | |
| DG1MFX-10 | 2026-08-31 11:25:10 | 48.47060 | 12.37954 | 69° | 164km/h | 12508m | 4.7m/s | -55.1°C | 14.0% | 189.4hPa | 2.7V | 00:00:00 | 00:00:00 | 00:00:00 | |
| OE5FHM-15 | 2026-08-31 11:25:06 | 48.46986 | 12.37664 | 70° | 168km/h | 12487m | 4.7m/s | -55.0°C | 18.5% | 190.0hPa | 2.7V | 00:00:00 | 00:55:44 | 00:00:00 | |
| DO3MHA-11 | 2026-08-31 11:25:05 | 48.46971 | 12.37606 | 70° | 166km/h | 12483m | 3.4m/s | -54.9°C | 18.6% | 190.1hPa | 2.7V | 00:00:00 | 00:55:43 | 00:00:00 | |
| OE5MMP-10 | 2026-08-31 11:25:04 | 48.46957 | 12.37547 | 70° | 166km/h | 12479m | 4.3m/s | -55.0°C | 18.5% | 190.2hPa | 2.7V | 00:00:00 | 00:55:42 | 00:00:00 | |
| DL6DJ-15 | 2026-08-31 11:24:48 | 48.46723 | 12.36598 | 67° | 170km/h | 12411m | 5.7m/s | -54.8°C | 14.2% | 192.3hPa | 2.7V | 00:00:00 | 00:00:00 | 00:00:00 | |
| OE5REO-15 | 2026-08-31 11:24:46 | 48.46706 | 12.36538 | 68° | 170km/h | 12406m | 3.8m/s | -54.8°C | 14.4% | 192.4hPa | 2.7V | 00:00:00 | 00:00:00 | 00:00:00 | |
| DO3MHA-11 | 2026-08-31 11:24:45 | 48.46673 | 12.36418 | 69° | 170km/h | 12398m | 4.2m/s | -54.8°C | 18.8% | 192.7hPa | 2.7V | 00:00:00 | 00:55:23 | 00:00:00 | |
| PG1ADW-2 | 2026-08-31 11:24:44 | 48.46658 | 12.36358 | 69° | 170km/h | 12394m | 3.6m/s | -54.7°C | 18.7% | 192.8hPa | 2.7V | 00:00:00 | 00:55:22 | 00:00:00 | |
| OE5DRO-10 | 2026-08-31 11:24:40 | 48.46595 | 12.36115 | 70° | 168km/h | 12377m | 4.2m/s | -54.6°C | 19.0% | 193.3hPa | 2.7V | 00:00:00 | 00:00:00 | 00:00:00 | |
| OE5WHR-10 | 2026-08-31 11:24:38 | 48.46566 | 12.35995 | 69° | 168km/h | 12369m | 4.6m/s | -54.6°C | 18.8% | 193.5hPa | 2.7V | 00:00:00 | 00:00:00 | 00:00:00 | |
| OE5FHM-15 | 2026-08-31 11:24:36 | 48.46533 | 12.35876 | 68° | 168km/h | 12361m | 4.3m/s | -54.4°C | 18.8% | 193.8hPa | 2.7V | 00:00:00 | 00:55:14 | 00:00:00 | |
| DO3MHA-11 | 2026-08-31 11:24:35 | 48.46517 | 12.35817 | 68° | 170km/h | 12356m | 4.9m/s | -54.4°C | 18.7% | 193.9hPa | 2.7V | 00:00:00 | 00:55:13 | 00:00:00 | |
| OE5MMP-10 | 2026-08-31 11:24:34 | 48.46501 | 12.35759 | 68° | 170km/h | 12352m | 3.7m/s | -54.4°C | 18.9% | 194.0hPa | 2.7V | 00:00:00 | 00:55:12 | 00:00:00 | |
| OE3JTB-15 | 2026-08-31 11:24:33 | 48.46484 | 12.35700 | 68° | 168km/h | 12347m | 4.7m/s | -54.4°C | 18.8% | 194.2hPa | 2.7V | 00:00:00 | 00:00:00 | 00:00:00 | |
| OE5REO-15 | 2026-08-31 11:24:30 | 48.46452 | 12.35582 | 69° | 170km/h | 12339m | 3.9m/s | -54.4°C | 14.4% | 194.5hPa | 2.7V | 00:00:00 | 00:00:00 | 00:00:00 | |
| DO3MHA-11 | 2026-08-31 11:24:25 | 48.46358 | 12.35220 | 68° | 166km/h | 12314m | 4.8m/s | -54.3°C | 19.2% | 195.2hPa | 2.7V | 00:00:00 | 00:55:03 | 00:00:00 | |
| OE5MMP-10 | 2026-08-31 11:24:24 | 48.46341 | 12.35161 | 68° | 166km/h | 12310m | 4.0m/s | -54.2°C | 19.4% | 195.3hPa | 2.7V | 00:00:00 | 00:55:02 | 00:00:00 | |
| OE5DRO-10 | 2026-08-31 11:24:21 | 48.46292 | 12.34986 | 68° | 166km/h | 12296m | 4.2m/s | -54.2°C | 19.3% | 195.7hPa | 2.7V | 00:00:00 | 00:00:00 | 00:00:00 | |
| OE5DXL-15 | 2026-08-31 11:24:19 | 48.46260 | 12.34870 | 69° | 166km/h | 12287m | 3.6m/s | -54.1°C | 19.3% | 196.0hPa | 2.7V | 00:00:00 | 00:00:00 | 00:00:00 | |
| OE5WHR-10 | 2026-08-31 11:24:17 | 48.46229 | 12.34753 | 69° | 166km/h | 12278m | 4.5m/s | -54.1°C | 19.5% | 196.3hPa | 2.7V | 00:00:00 | 00:54:55 | 00:00:00 | |
| DO3MHA-11 | 2026-08-31 11:24:15 | 48.46198 | 12.34636 | 69° | 166km/h | 12270m | 4.7m/s | -54.0°C | 19.6% | 196.5hPa | 2.7V | 00:00:00 | 00:54:53 | 00:00:00 | |
| OE5MMP-10 | 2026-08-31 11:24:13 | 48.46167 | 12.34520 | 69° | 166km/h | 12262m | 4.9m/s | -53.9°C | 19.4% | 196.8hPa | 2.7V | 00:00:00 | 00:54:51 | 00:00:00 | |
| OE5REO-15 | 2026-08-31 11:24:11 | 48.46152 | 12.34460 | 70° | 168km/h | 12257m | 4.3m/s | -53.9°C | 15.2% | 196.9hPa | 2.7V | 00:00:00 | 00:00:00 | 00:00:00 | |
| S52SK | 2026-08-31 11:24:10 | 48.46137 | 12.34401 | 70° | 168km/h | 12253m | 4.5m/s | 0°C | 0% | 0hPa | 2.7V | 00:00:00 | 00:00:00 | 00:00:00 | |
| OE5FHM-15 | 2026-08-31 11:24:06 | 48.46057 | 12.34107 | 67° | 164km/h | 12230m | 5.1m/s | -53.7°C | 19.7% | 197.7hPa | 2.7V | 00:00:00 | 00:54:44 | 00:00:00 | |
| DO3MHA-11 | 2026-08-31 11:24:05 | 48.46040 | 12.34050 | 67° | 166km/h | 12226m | 3.7m/s | -53.7°C | 19.6% | 197.9hPa | 2.7V | 00:00:00 | 00:54:43 | 00:00:00 | |
| PG1ADW-2 | 2026-08-31 11:24:04 | 48.46024 | 12.33992 | 67° | 164km/h | 12221m | 5.5m/s | -53.7°C | 19.8% | 198.0hPa | 2.7V | 00:00:00 | 00:00:00 | 00:00:00 | |
| OE5MMP-10 | 2026-08-31 11:24:03 | 48.46007 | 12.33934 | 67° | 166km/h | 12216m | 4.2m/s | -53.8°C | 20.1% | 198.2hPa | 2.7V | 00:00:00 | 00:54:41 | 00:00:00 | |
| DL6DJ-15 | 2026-08-31 11:23:47 | 48.45738 | 12.32952 | 66° | 161km/h | 12142m | 3.8m/s | -53.5°C | 16.8% | 200.6hPa | 2.7V | 00:00:00 | 00:00:00 | 00:00:00 | |
| DO3MHA-11 | 2026-08-31 11:23:45 | 48.45721 | 12.32895 | 68° | 164km/h | 12138m | 4.9m/s | -53.4°C | 21.3% | 200.6hPa | 2.7V | 00:00:00 | 00:54:23 | 00:00:00 | |
| OE5MMP-10 | 2026-08-31 11:23:43 | 48.45689 | 12.32780 | 67° | 162km/h | 12130m | 4.5m/s | -53.5°C | 21.8% | 200.9hPa | 2.7V | 00:00:00 | 00:54:21 | 00:00:00 | |
| OE5REO-15 | 2026-08-31 11:23:41 | 48.45672 | 12.32723 | 67° | 164km/h | 12125m | 4.8m/s | -53.6°C | 17.9% | 201.1hPa | 2.7V | 00:00:00 | 00:00:00 | 00:00:00 | |
| DK5PH-5 | 2026-08-31 11:23:36 | 48.45572 | 12.32383 | 65° | 164km/h | 12101m | 4.0m/s | -53.5°C | 22.8% | 201.8hPa | 2.7V | 00:00:00 | 00:54:14 | 00:00:00 | |
| OE5WHR-10 | 2026-08-31 11:23:35 | 48.45554 | 12.32327 | 65° | 164km/h | 12097m | 3.6m/s | -53.4°C | 22.6% | 201.9hPa | 2.7V | 00:00:00 | 00:00:00 | 00:00:00 | |
| OE5MMP-10 | 2026-08-31 11:23:34 | 48.45520 | 12.32216 | 67° | 164km/h | 12088m | 4.7m/s | -53.6°C | 22.8% | 202.2hPa | 2.7V | 00:00:00 | 00:54:11 | 00:00:00 | |
| OE5DRO-10 | 2026-08-31 11:23:31 | 48.45376 | 12.31701 | 68° | 164km/h | 12048m | 5.4m/s | -53.5°C | 24.8% | 203.5hPa | 2.7V | 00:00:00 | 00:00:00 | 00:00:00 | |
| PG1ADW-2 | 2026-08-31 11:23:29 | 48.45376 | 12.31701 | 68° | 164km/h | 12048m | 5.4m/s | -53.5°C | 24.8% | 203.5hPa | 2.7V | 00:00:00 | 00:54:02 | 00:00:00 | |
| OE5REO-15 | 2026-08-31 11:23:27 | 48.45376 | 12.31701 | 68° | 166km/h | 12048m | 5.5m/s | -53.5°C | 20.2% | 203.5hPa | 2.7V | 00:00:00 | 00:00:00 | 00:00:00 | |
| OE5MMP-10 | 2026-08-31 11:23:23 | 48.45360 | 12.31642 | 68° | 164km/h | 12043m | 3.9m/s | -53.5°C | 24.9% | 203.6hPa | 2.7V | 00:00:00 | 00:54:01 | 00:00:00 | |
| OE5DXL-15 | 2026-08-31 11:23:19 | 48.45293 | 12.31411 | 67° | 166km/h | 12026m | 5.0m/s | -53.8°C | 26.5% | 204.2hPa | 2.7V | 00:00:00 | 00:00:00 | 00:00:00 | |
| DO3MHA-11 | 2026-08-31 11:23:15 | 48.45228 | 12.31182 | 67° | 164km/h | 12009m | 4.1m/s | -53.8°C | 27.0% | 204.7hPa | 2.7V | 00:00:00 | 00:53:53 | 00:00:00 | |
| OE5WHR-10 | 2026-08-31 11:23:14 | 48.45212 | 12.31124 | 68° | 166km/h | 12005m | 4.7m/s | -53.8°C | 27.2% | 204.9hPa | 2.7V | 00:00:00 | 00:53:52 | 00:00:00 | |
| OE5MMP-10 | 2026-08-31 11:23:13 | 48.45195 | 12.31067 | 68° | 164km/h | 12000m | 4.1m/s | -53.9°C | 27.2% | 205.0hPa | 2.7V | 00:00:00 | 00:53:51 | 08:30:00 | |
| OE5REO-15 | 2026-08-31 11:23:07 | 48.45114 | 12.30780 | 69° | 164km/h | 11978m | 4.1m/s | -53.8°C | 22.4% | 205.8hPa | 2.7V | 00:00:00 | 00:00:00 | 00:00:00 | |
| DK5PH-5 | 2026-08-31 11:23:06 | 48.45082 | 12.30665 | 68° | 168km/h | 11970m | 2.8m/s | -53.8°C | 27.3% | 206.0hPa | 2.7V | 00:00:00 | 00:53:44 | 00:00:00 | |
| DO3MHA-11 | 2026-08-31 11:23:05 | 48.45067 | 12.30606 | 68° | 168km/h | 11966m | 5.3m/s | -53.8°C | 27.6% | 206.1hPa | 2.7V | 00:00:00 | 00:53:43 | 00:00:00 | |
| PG1ADW-2 | 2026-08-31 11:23:04 | 48.45050 | 12.30548 | 68° | 168km/h | 11961m | 4.2m/s | -53.9°C | 27.8% | 206.3hPa | 2.7V | 00:00:00 | 00:00:00 | 00:00:00 | |
| OE5MMP-10 | 2026-08-31 11:23:03 | 48.45034 | 12.30489 | 67° | 168km/h | 11956m | 5.1m/s | -53.8°C | 28.0% | 206.4hPa | 2.7V | 00:00:00 | 00:53:41 | 00:00:00 | |
| DG1MFX-10 | 2026-08-31 11:22:59 | 48.44982 | 12.30313 | 68° | 170km/h | 11943m | 4.5m/s | -53.8°C | 23.4% | 206.9hPa | 2.7V | 00:00:00 | 00:00:00 | 00:00:00 | |
| DO3MHA-11 | 2026-08-31 11:22:55 | 48.44897 | 12.30020 | 67° | 166km/h | 11922m | 4.2m/s | -53.6°C | 28.9% | 207.6hPa | 2.7V | 00:00:00 | 00:53:33 | 00:00:00 | |
| OE3JTB-15 | 2026-08-31 11:22:54 | 48.44880 | 12.29962 | 67° | 168km/h | 11918m | 2.9m/s | -53.6°C | 29.0% | 207.7hPa | 2.7V | 00:00:00 | 00:00:00 | 00:00:00 | |
| OE5WHR-10 | 2026-08-31 11:22:53 | 48.44863 | 12.29904 | 67° | 168km/h | 11914m | 4.8m/s | -53.5°C | 28.9% | 207.8hPa | 2.7V | 00:00:00 | 00:00:00 | 08:30:00 | |
| OE5REO-15 | 2026-08-31 11:22:52 | 48.44863 | 12.29904 | 67° | 166km/h | 11914m | 4.8m/s | -53.6°C | 23.9% | 207.8hPa | 2.7V | 00:00:00 | 00:00:00 | 00:00:00 | |
| OE5HKT-10 | 2026-08-31 11:22:51 | 48.44829 | 12.29789 | 67° | 166km/h | 11906m | 5.1m/s | 0°C | 0% | 0hPa | 2.7V | 00:00:00 | 00:00:00 | 00:00:00 | |
| OE5DXL-15 | 2026-08-31 11:22:49 | 48.44796 | 12.29673 | 68° | 168km/h | 11897m | 4.7m/s | -53.5°C | 29.5% | 208.3hPa | 2.7V | 00:00:00 | 00:00:00 | 00:00:00 | |
| OE5DRO-10 | 2026-08-31 11:22:46 | 48.44746 | 12.29498 | 67° | 168km/h | 11884m | 4.4m/s | -53.4°C | 29.0% | 208.8hPa | 2.7V | 00:00:00 | 00:00:00 | 00:00:00 | |
| DO3MHA-11 | 2026-08-31 11:22:45 | 48.44728 | 12.29440 | 66° | 168km/h | 11880m | 4.1m/s | -53.5°C | 28.8% | 208.9hPa | 2.7V | 00:00:00 | 00:53:23 | 00:00:00 | |
| PG1ADW-2 | 2026-08-31 11:22:44 | 48.44710 | 12.29382 | 65° | 168km/h | 11876m | 4.5m/s | -53.4°C | 28.6% | 209.1hPa | 2.7V | 00:00:00 | 00:00:00 | 00:00:00 | |
| OE5MMP-10 | 2026-08-31 11:22:43 | 48.44692 | 12.29324 | 65° | 168km/h | 11871m | 3.9m/s | -53.4°C | 28.3% | 209.2hPa | 2.7V | 00:00:00 | 00:53:21 | 00:00:00 | |
| DG1MFX-10 | 2026-08-31 11:22:38 | 48.44619 | 12.29092 | 66° | 168km/h | 11854m | 3.0m/s | -53.4°C | 24.7% | 209.8hPa | 2.7V | 00:00:00 | 00:00:00 | 00:00:00 | |
| OE5FHM-15 | 2026-08-31 11:22:36 | 48.44567 | 12.28916 | 67° | 168km/h | 11841m | 4.1m/s | -53.3°C | 29.8% | 210.2hPa | 2.7V | 00:00:00 | 00:53:14 | 00:00:00 | |
| DO3MHA-11 | 2026-08-31 11:22:35 | 48.44551 | 12.28857 | 67° | 168km/h | 11837m | 4.8m/s | -53.3°C | 30.1% | 210.3hPa | 2.7V | 00:00:00 | 00:53:13 | 00:00:00 | |
| OE5MMP-10 | 2026-08-31 11:22:33 | 48.44517 | 12.28741 | 67° | 168km/h | 11829m | 4.5m/s | -53.3°C | 30.0% | 210.6hPa | 2.7V | 00:00:00 | 00:53:11 | 00:00:00 | |
| OE5WHR-10 | 2026-08-31 11:22:32 | 48.44500 | 12.28682 | 67° | 168km/h | 11824m | 4.5m/s | -53.2°C | 30.2% | 210.7hPa | 2.7V | 00:00:00 | 00:00:00 | 00:00:00 | |
| OE5DRO-10 | 2026-08-31 11:22:27 | 48.44412 | 12.28392 | 66° | 168km/h | 11804m | 3.8m/s | -53.0°C | 30.9% | 211.4hPa | 2.7V | 00:00:00 | 00:00:00 | 00:00:00 | |
| DO3MHA-11 | 2026-08-31 11:22:25 | 48.44378 | 12.28275 | 67° | 166km/h | 11796m | 3.8m/s | -52.9°C | 31.4% | 211.6hPa | 2.7V | 00:00:00 | 00:53:03 | 00:00:00 | |
| PG1ADW-2 | 2026-08-31 11:22:24 | 48.44361 | 12.28216 | 68° | 168km/h | 11792m | 3.2m/s | -52.9°C | 31.2% | 211.8hPa | 2.7V | 00:00:00 | 00:00:00 | 00:00:00 | |
| OE5MMP-10 | 2026-08-31 11:22:23 | 48.44345 | 12.28157 | 68° | 166km/h | 11788m | 4.8m/s | -53.0°C | 31.6% | 211.9hPa | 2.7V | 00:00:00 | 00:53:01 | 00:00:00 | |
| OE5REO-15 | 2026-08-31 11:22:21 | 48.44329 | 12.28098 | 69° | 170km/h | 11784m | 4.4m/s | -53.0°C | 0% | 0hPa | 2.7V | 00:00:00 | 00:00:00 | 00:00:00 | |
| OE5DXL-15 | 2026-08-31 11:22:19 | 48.44284 | 12.27919 | 70° | 168km/h | 11770m | 4.3m/s | -53.0°C | 31.7% | 212.5hPa | 2.7V | 00:00:00 | 00:00:00 | 00:00:00 | |
| DG1MFX-10 | 2026-08-31 11:22:18 | 48.44270 | 12.27860 | 71° | 166km/h | 11765m | 5.1m/s | -53.0°C | 26.7% | 212.7hPa | 2.7V | 00:00:00 | 00:00:00 | 00:00:00 | |
| DO3MHA-11 | 2026-08-31 11:22:15 | 48.44225 | 12.27685 | 69° | 168km/h | 11753m | 3.2m/s | -52.9°C | 32.6% | 213.1hPa | 2.7V | 00:00:00 | 00:52:53 | 00:00:00 | |
| DL6DJ-15 | 2026-08-31 11:22:13 | 48.44193 | 12.27567 | 67° | 168km/h | 11744m | 4.1m/s | -53.0°C | 28.1% | 213.4hPa | 2.7V | 00:00:00 | 00:00:00 | 00:00:00 | |
| OE5MMP-10 | 2026-08-31 11:22:12 | 48.44177 | 12.27508 | 68° | 170km/h | 11741m | 3.2m/s | -52.9°C | 33.4% | 213.5hPa | 2.7V | 00:00:00 | 00:52:50 | 00:00:00 | |
| OE5WHR-10 | 2026-08-31 11:22:11 | 48.44160 | 12.27449 | 68° | 170km/h | 11737m | 4.6m/s | -52.9°C | 33.6% | 213.7hPa | 2.7V | 00:00:00 | 00:52:49 | 00:00:00 | |
| OE5DRO-10 | 2026-08-31 11:22:08 | 48.44112 | 12.27270 | 69° | 170km/h | 11725m | 4.8m/s | -53.0°C | 34.8% | 214.0hPa | 2.7V | 00:00:00 | 00:00:00 | 00:00:00 | |
| OE5FHM-15 | 2026-08-31 11:22:06 | 48.44080 | 12.27149 | 70° | 170km/h | 11717m | 3.8m/s | -52.9°C | 35.0% | 214.3hPa | 2.7V | 00:00:00 | 00:52:44 | 08:30:00 | |
| DO3MHA-11 | 2026-08-31 11:22:05 | 48.44065 | 12.27089 | 69° | 170km/h | 11713m | 4.0m/s | -52.9°C | 35.2% | 214.4hPa | 2.7V | 00:00:00 | 00:52:43 | 00:00:00 | |
| PG1ADW-2 | 2026-08-31 11:22:04 | 48.44049 | 12.27030 | 69° | 170km/h | 11709m | 3.9m/s | -52.9°C | 35.7% | 214.6hPa | 2.7V | 00:00:00 | 00:52:42 | 00:00:00 | |
| OE5MMP-10 | 2026-08-31 11:22:02 | 48.44017 | 12.26910 | 68° | 168km/h | 11700m | 3.4m/s | -52.9°C | 36.0% | 214.8hPa | 2.7V | 00:00:00 | 00:52:40 | 00:00:00 | |
| DG1MFX-10 | 2026-08-31 11:21:57 | 48.43949 | 12.26674 | 68° | 170km/h | 11683m | 3.9m/s | 0°C | 0% | 215.5hPa | 2.7V | 00:00:00 | 00:00:00 | 00:00:00 | |
| DO3MHA-11 | 2026-08-31 11:21:55 | 48.43900 | 12.26497 | 68° | 170km/h | 11671m | 3.5m/s | -53.0°C | 38.2% | 215.8hPa | 2.7V | 00:00:00 | 00:52:33 | 08:30:00 | |
| OE5MMP-10 | 2026-08-31 11:21:52 | 48.43851 | 12.26319 | 68° | 172km/h | 11660m | 3.3m/s | -52.9°C | 38.4% | 216.1hPa | 2.7V | 00:00:00 | 00:52:30 | 00:00:00 | |
| OE5WHR-10 | 2026-08-31 11:21:50 | 48.43817 | 12.26198 | 67° | 172km/h | 11652m | 4.0m/s | -52.8°C | 38.6% | 216.5hPa | 2.7V | 00:00:00 | 00:00:00 | 00:00:00 | |
| OE5DXL-15 | 2026-08-31 11:21:49 | 48.43800 | 12.26138 | 68° | 172km/h | 11647m | 4.9m/s | -52.8°C | 38.8% | 216.6hPa | 2.7V | 00:00:00 | 00:00:00 | 00:00:00 | |
| OE5REO-15 | 2026-08-31 11:21:48 | 48.43800 | 12.26138 | 69° | 172km/h | 11647m | 4.9m/s | -52.9°C | 0% | 0hPa | 2.7V | 00:00:00 | 00:00:00 | 00:00:00 | |
| DO3MHA-11 | 2026-08-31 11:21:45 | 48.43736 | 12.25899 | 68° | 173km/h | 11632m | 3.7m/s | -52.8°C | 39.6% | 217.1hPa | 2.7V | 00:00:00 | 00:52:23 | 00:00:00 | |
| PG1ADW-2 | 2026-08-31 11:21:44 | 48.43719 | 12.25839 | 68° | 172km/h | 11628m | 4.5m/s | -52.8°C | 40.1% | 217.2hPa | 2.7V | 00:00:00 | 00:00:00 | 00:00:00 | |
| OE5MMP-10 | 2026-08-31 11:21:42 | 48.43685 | 12.25719 | 67° | 173km/h | 11620m | 4.9m/s | -52.8°C | 40.3% | 217.5hPa | 2.7V | 00:00:00 | 00:52:20 | 08:30:00 | |
| DG1MFX-10 | 2026-08-31 11:21:37 | 48.43614 | 12.25476 | 68° | 175km/h | 11604m | 3.3m/s | 0°C | 0% | 0hPa | 2.7V | 00:00:00 | 00:00:00 | 00:00:00 | |
| DK5PH-5 | 2026-08-31 11:21:36 | 48.43579 | 12.25354 | 67° | 170km/h | 11596m | 3.2m/s | -52.7°C | 43.0% | 218.3hPa | 2.7V | 00:00:00 | 00:52:14 | 00:00:00 | |
| DO3MHA-11 | 2026-08-31 11:21:35 | 48.43562 | 12.25294 | 68° | 172km/h | 11592m | 4.2m/s | -52.7°C | 42.9% | 218.4hPa | 2.7V | 00:00:00 | 00:52:13 | 00:00:00 | |
| OE5REO-15 | 2026-08-31 11:21:33 | 48.43545 | 12.25232 | 70° | 173km/h | 11588m | 3.6m/s | -52.8°C | 0% | 0hPa | 2.7V | 00:00:00 | 00:00:00 | 00:00:00 | |
| OE5MMP-10 | 2026-08-31 11:21:32 | 48.43514 | 12.25112 | 69° | 170km/h | 11581m | 4.5m/s | -52.8°C | 44.5% | 218.8hPa | 2.7V | 00:00:00 | 00:52:10 | 00:00:00 | |
| OE5DRO-10 | 2026-08-31 11:21:30 | 48.43482 | 12.24992 | 68° | 170km/h | 11574m | 4.7m/s | -52.8°C | 45.3% | 219.1hPa | 2.7V | 00:00:00 | 00:00:00 | 00:00:00 | |
| OE5WHR-10 | 2026-08-31 11:21:29 | 48.43466 | 12.24932 | 68° | 170km/h | 11569m | 3.8m/s | -52.8°C | 45.4% | 219.2hPa | 2.7V | 00:00:00 | 00:00:00 | 00:00:00 | |
| DO3MHA-11 | 2026-08-31 11:21:25 | 48.43398 | 12.24693 | 67° | 170km/h | 11553m | 4.9m/s | -52.9°C | 46.4% | 219.8hPa | 2.7V | 00:00:00 | 00:52:03 | 00:00:00 | |
| PG1ADW-2 | 2026-08-31 11:21:24 | 48.43381 | 12.24633 | 68° | 170km/h | 11549m | 3.4m/s | -52.9°C | 46.7% | 219.9hPa | 2.7V | 00:00:00 | 00:00:00 | 00:00:00 | |
| OE5MMP-10 | 2026-08-31 11:21:22 | 48.43347 | 12.24513 | 68° | 170km/h | 11541m | 4.3m/s | -52.9°C | 46.8% | 220.2hPa | 2.7V | 00:00:00 | 00:52:00 | 00:00:00 | |
| OE5DXL-15 | 2026-08-31 11:21:19 | 48.43298 | 12.24332 | 69° | 170km/h | 11529m | 2.7m/s | -52.8°C | 47.5% | 220.6hPa | 2.7V | 00:00:00 | 00:00:00 | 00:00:00 | |
| OE5REO-15 | 2026-08-31 11:21:17 | 48.43282 | 12.24273 | 69° | 170km/h | 11525m | 4.5m/s | -52.9°C | 0% | 0hPa | 2.7V | 00:00:00 | 00:00:00 | 00:00:00 | |
| DG1MFX-10 | 2026-08-31 11:21:16 | 48.43266 | 12.24213 | 68° | 168km/h | 11522m | 3.3m/s | 0°C | 0% | 0hPa | 2.7V | 00:00:00 | 00:00:00 | 00:00:00 | |
| DO3MHA-11 | 2026-08-31 11:21:15 | 48.43233 | 12.24095 | 68° | 170km/h | 11514m | 3.5m/s | -52.8°C | 48.4% | 221.1hPa | 2.7V | 00:00:00 | 00:51:53 | 00:00:00 | |
| OE5MMP-10 | 2026-08-31 11:21:11 | 48.43165 | 12.23861 | 67° | 172km/h | 11499m | 4.3m/s | -52.7°C | 48.7% | 221.7hPa | 2.7V | 00:00:00 | 00:51:49 | 00:00:00 | |
| OE5WHR-10 | 2026-08-31 11:21:08 | 48.43112 | 12.23683 | 66° | 172km/h | 11487m | 4.0m/s | -52.7°C | 48.2% | 222.0hPa | 2.7V | 00:00:00 | 00:51:46 | 00:00:00 | |
| OE5FHM-15 | 2026-08-31 11:21:06 | 48.43075 | 12.23564 | 66° | 172km/h | 11479m | 4.7m/s | -52.6°C | 48.0% | 222.3hPa | 2.7V | 00:00:00 | 00:51:44 | 00:00:00 | |
| DO3MHA-11 | 2026-08-31 11:21:05 | 48.43058 | 12.23503 | 67° | 172km/h | 11475m | 3.2m/s | -52.6°C | 48.1% | 222.4hPa | 2.7V | 00:00:00 | 00:51:43 | 00:00:00 | |
| PG1ADW-2 | 2026-08-31 11:21:04 | 48.43040 | 12.23443 | 66° | 172km/h | 11471m | 4.4m/s | -52.6°C | 48.3% | 222.5hPa | 2.7V | 00:00:00 | 00:00:00 | 00:00:00 | |
| OE5MMP-10 | 2026-08-31 11:21:01 | 48.42986 | 12.23265 | 66° | 172km/h | 11460m | 3.6m/s | -52.5°C | 47.9% | 223.0hPa | 2.7V | 00:00:00 | 00:51:39 | 00:00:00 | |
| DO3MHA-11 | 2026-08-31 11:20:55 | 48.42877 | 12.22910 | 66° | 172km/h | 11437m | 3.8m/s | -52.3°C | 46.6% | 223.7hPa | 2.7V | 00:00:00 | 00:51:33 | 00:00:00 | |
| DG1MFX-10 | 2026-08-31 11:20:54 | 48.42877 | 12.22910 | 67° | 172km/h | 11437m | 3.9m/s | 0°C | 0% | 0hPa | 2.7V | 00:00:00 | 00:00:00 | 00:00:00 | |
| OE3JTB-15 | 2026-08-31 11:20:53 | 48.42842 | 12.22791 | 66° | 170km/h | 11428m | 4.3m/s | -52.3°C | 46.7% | 224.1hPa | 2.7V | 00:00:00 | 00:51:31 | 00:00:00 | |
| OE5DRO-10 | 2026-08-31 11:20:52 | 48.42824 | 12.22732 | 67° | 172km/h | 11424m | 4.3m/s | -52.3°C | 46.7% | 224.2hPa | 2.7V | 00:00:00 | 00:00:00 | 00:00:00 | |
| OE5MMP-10 | 2026-08-31 11:20:51 | 48.42806 | 12.22673 | 66° | 172km/h | 11420m | 3.2m/s | -52.2°C | 46.2% | 224.4hPa | 2.7V | 00:00:00 | 00:51:29 | 00:00:00 | |
| OE5DXL-15 | 2026-08-31 11:20:49 | 48.42771 | 12.22556 | 65° | 170km/h | 11412m | 3.7m/s | -52.1°C | 45.5% | 224.6hPa | 2.7V | 00:00:00 | 00:00:00 | 00:00:00 | |
| OE5WHR-10 | 2026-08-31 11:20:47 | 48.42734 | 12.22438 | 65° | 170km/h | 11404m | 2.3m/s | -52.0°C | 44.3% | 224.9hPa | 2.7V | 00:00:00 | 00:00:00 | 00:00:00 | |
| PG1ADW-2 | 2026-08-31 11:20:44 | 48.42676 | 12.22263 | 64° | 170km/h | 11392m | 4.2m/s | -51.9°C | 42.6% | 225.3hPa | 2.9V | 00:00:00 | 00:51:22 | 08:30:00 | |
| OE5MMP-10 | 2026-08-31 11:20:41 | 48.42619 | 12.22085 | 65° | 170km/h | 11381m | 5.1m/s | -52.0°C | 41.1% | 225.7hPa | 2.7V | 00:00:00 | 00:51:19 | 00:00:00 | |
| OE5FHM-15 | 2026-08-31 11:20:36 | 48.42532 | 12.21790 | 66° | 168km/h | 11360m | 3.9m/s | -51.7°C | 40.6% | 226.4hPa | 2.7V | 00:00:00 | 00:51:14 | 00:00:00 | |
| DO3MHA-11 | 2026-08-31 11:20:35 | 48.42514 | 12.21732 | 66° | 168km/h | 11357m | 2.8m/s | -51.6°C | 40.3% | 226.5hPa | 2.7V | 00:00:00 | 00:51:13 | 00:00:00 | |
| OE5DRO-10 | 2026-08-31 11:20:33 | 48.42477 | 12.21615 | 65° | 170km/h | 11350m | 3.7m/s | -51.7°C | 39.9% | 226.8hPa | 2.7V | 00:00:00 | 00:00:00 | 00:00:00 | |
| OE5MMP-10 | 2026-08-31 11:20:31 | 48.42440 | 12.21498 | 65° | 166km/h | 11343m | 4.3m/s | -51.5°C | 39.3% | 227.0hPa | 2.7V | 00:00:00 | 00:51:09 | 00:00:00 | |
| OE5WHR-10 | 2026-08-31 11:20:26 | 48.42349 | 12.21210 | 66° | 168km/h | 11322m | 3.1m/s | -51.4°C | 37.9% | 227.8hPa | 2.7V | 00:00:00 | 00:00:00 | 00:00:00 | |
| DO3MHA-11 | 2026-08-31 11:20:25 | 48.42332 | 12.21153 | 66° | 168km/h | 11318m | 4.4m/s | -51.3°C | 37.5% | 227.9hPa | 2.7V | 00:00:00 | 00:51:03 | 08:30:00 | |
| PG1ADW-2 | 2026-08-31 11:20:24 | 48.42314 | 12.21096 | 66° | 168km/h | 11314m | 3.6m/s | -51.3°C | 37.7% | 228.0hPa | 2.9V | 00:00:00 | 00:00:00 | 00:00:00 | |
| OE3JTB-15 | 2026-08-31 11:20:22 | 48.42279 | 12.20981 | 66° | 168km/h | 11307m | 4.3m/s | -51.3°C | 37.9% | 228.3hPa | 2.9V | 00:00:00 | 00:00:00 | 00:00:00 | |
| OE5MMP-10 | 2026-08-31 11:20:21 | 48.42261 | 12.20924 | 65° | 170km/h | 11303m | 3.2m/s | -51.2°C | 37.6% | 228.5hPa | 2.7V | 00:00:00 | 00:50:59 | 00:00:00 | |
| OE5DXL-15 | 2026-08-31 11:20:19 | 48.42225 | 12.20808 | 65° | 168km/h | 11295m | 3.3m/s | -51.1°C | 37.2% | 228.7hPa | 2.7V | 00:00:00 | 00:00:00 | 08:30:00 | |
| DO3MHA-11 | 2026-08-31 11:20:15 | 48.42153 | 12.20574 | 66° | 168km/h | 11279m | 3.8m/s | -51.0°C | 36.6% | 229.3hPa | 2.7V | 00:00:00 | 00:50:53 | 00:00:00 | |
| OE5DRO-10 | 2026-08-31 11:20:12 | 48.42099 | 12.20399 | 66° | 166km/h | 11266m | 3.2m/s | -51.0°C | 36.9% | 229.7hPa | 2.7V | 00:00:00 | 00:00:00 | 00:00:00 | |
| OE5MMP-10 | 2026-08-31 11:20:11 | 48.42081 | 12.20342 | 65° | 166km/h | 11262m | 4.6m/s | -51.0°C | 37.0% | 229.8hPa | 2.9V | 00:00:00 | 00:50:49 | 08:30:00 | |
| DL6DJ-15 | 2026-08-31 11:20:09 | 48.42045 | 12.20227 | 64° | 166km/h | 11254m | 4.6m/s | -51.0°C | 32.4% | 230.2hPa | 2.7V | 00:00:00 | 00:00:00 | 00:00:00 | |
| OE5FHM-15 | 2026-08-31 11:20:06 | 48.41991 | 12.20055 | 66° | 166km/h | 11243m | 4.0m/s | -50.7°C | 37.0% | 230.6hPa | 2.7V | 00:00:00 | 00:50:44 | 00:00:00 | |
| DO3MHA-11 | 2026-08-31 11:20:05 | 48.41973 | 12.19997 | 66° | 168km/h | 11239m | 3.5m/s | -50.7°C | 36.7% | 230.7hPa | 2.7V | 00:00:00 | 00:50:43 | 00:00:00 | |
| PG1ADW-2 | 2026-08-31 11:20:04 | 48.41956 | 12.19939 | 67° | 166km/h | 11235m | 4.2m/s | -50.7°C | 36.4% | 230.8hPa | 2.7V | 00:00:00 | 00:00:00 | 00:00:00 | |
| OE5MMP-10 | 2026-08-31 11:20:01 | 48.41906 | 12.19765 | 67° | 166km/h | 11224m | 3.9m/s | -50.6°C | 35.8% | 231.3hPa | 2.7V | 00:00:00 | 00:50:39 | 00:00:00 | |
| OE5REO-15 | 2026-08-31 11:19:59 | 48.41889 | 12.19706 | 67° | 170km/h | 11220m | 3.2m/s | -50.6°C | 0% | 0hPa | 2.7V | 00:00:00 | 00:00:00 | 00:00:00 | |
| DO3MHA-11 | 2026-08-31 11:19:55 | 48.41804 | 12.19416 | 66° | 166km/h | 11200m | 3.7m/s | -50.4°C | 37.3% | 232.1hPa | 2.7V | 00:00:00 | 00:50:33 | 00:00:00 | |
| OE5DRO-10 | 2026-08-31 11:19:53 | 48.41770 | 12.19303 | 66° | 166km/h | 11192m | 3.0m/s | -50.3°C | 37.6% | 232.3hPa | 2.7V | 00:00:00 | 00:00:00 | 00:00:00 | |
| OE5MMP-10 | 2026-08-31 11:19:51 | 48.41735 | 12.19189 | 66° | 168km/h | 11184m | 3.7m/s | -50.3°C | 37.4% | 232.6hPa | 2.7V | 00:00:00 | 00:50:29 | 00:00:00 | |
| OE5DXL-15 | 2026-08-31 11:19:49 | 48.41701 | 12.19074 | 66° | 166km/h | 11177m | 4.2m/s | -50.3°C | 36.6% | 232.9hPa | 2.7V | 00:00:00 | 00:00:00 | 00:00:00 | |
| DO3MHA-11 | 2026-08-31 11:19:45 | 48.41634 | 12.18840 | 67° | 164km/h | 11161m | 3.4m/s | -50.2°C | 36.2% | 233.4hPa | 2.7V | 00:00:00 | 00:50:23 | 00:00:00 | |
| OE5WHR-10 | 2026-08-31 11:19:44 | 48.41617 | 12.18781 | 67° | 164km/h | 11158m | 4.1m/s | -50.1°C | 36.1% | 233.6hPa | 2.7V | 00:00:00 | 00:00:00 | 08:30:00 | |
| OE5REO-15 | 2026-08-31 11:19:43 | 48.41616 | 12.18781 | 67° | 168km/h | 11158m | 4.2m/s | -50.2°C | 0% | 0hPa | 2.9V | 00:00:00 | 00:00:00 | 00:00:00 | |
| OE5MMP-10 | 2026-08-31 11:19:41 | 48.41564 | 12.18608 | 65° | 164km/h | 11146m | 5.0m/s | -50.1°C | 36.3% | 234.0hPa | 2.9V | 00:00:00 | 00:50:19 | 00:00:00 | |
| DL6DJ-15 | 2026-08-31 11:19:38 | 48.41510 | 12.18441 | 64° | 161km/h | 11133m | 3.0m/s | -50.0°C | 32.0% | 234.5hPa | 2.9V | 00:00:00 | 00:00:00 | 00:00:00 | |
| OE5FHM-15 | 2026-08-31 11:19:36 | 48.41474 | 12.18330 | 65° | 166km/h | 11126m | 4.2m/s | -49.9°C | 37.0% | 234.7hPa | 2.9V | 00:00:00 | 00:50:14 | 00:00:00 | |
| DO3MHA-11 | 2026-08-31 11:19:35 | 48.41456 | 12.18273 | 65° | 164km/h | 11123m | 3.2m/s | -49.8°C | 37.1% | 234.9hPa | 2.9V | 00:00:00 | 00:50:13 | 00:00:00 | |
| OE5DRO-10 | 2026-08-31 11:19:34 | 48.41438 | 12.18216 | 65° | 164km/h | 11119m | 4.1m/s | -49.8°C | 36.9% | 234.9hPa | 2.9V | 00:00:00 | 00:00:00 | 00:00:00 | |
| OE5MMP-10 | 2026-08-31 11:19:31 | 48.41386 | 12.18046 | 66° | 166km/h | 11108m | 4.3m/s | -49.8°C | 37.2% | 235.4hPa | 2.9V | 00:00:00 | 00:50:09 | 00:00:00 | |
| OE5REO-15 | 2026-08-31 11:19:28 | 48.41333 | 12.17875 | 66° | 164km/h | 11096m | 4.2m/s | 0°C | 0% | 0hPa | 2.9V | 00:00:00 | 00:00:00 | 00:00:00 | |
| DO3MHA-11 | 2026-08-31 11:19:25 | 48.41280 | 12.17705 | 65° | 164km/h | 11083m | 3.6m/s | -49.6°C | 37.8% | 236.2hPa | 2.9V | 00:00:00 | 00:50:03 | 00:00:00 | |
| OE3JTB-15 | 2026-08-31 11:19:24 | 48.41262 | 12.17648 | 65° | 164km/h | 11079m | 4.5m/s | -49.6°C | 37.9% | 236.4hPa | 2.7V | 00:00:00 | 00:50:02 | 00:00:00 | |
| OE5WHR-10 | 2026-08-31 11:19:23 | 48.41245 | 12.17591 | 66° | 164km/h | 11075m | 4.0m/s | -49.6°C | 38.1% | 236.5hPa | 2.7V | 00:00:00 | 00:00:00 | 00:00:00 | |
| OE5MMP-10 | 2026-08-31 11:19:21 | 48.41209 | 12.17477 | 65° | 164km/h | 11067m | 4.4m/s | -49.6°C | 38.0% | 236.8hPa | 2.7V | 00:00:00 | 00:49:59 | 00:00:00 | |
| OE5DXL-15 | 2026-08-31 11:19:20 | 48.41174 | 12.17363 | 65° | 164km/h | 11059m | 4.8m/s | -49.5°C | 38.2% | 237.1hPa | 2.7V | 00:00:00 | 00:00:00 | 00:00:00 | |
| DO3MHA-11 | 2026-08-31 11:19:15 | 48.41102 | 12.17138 | 65° | 166km/h | 11042m | 4.0m/s | -49.4°C | 38.4% | 237.8hPa | 2.7V | 00:00:00 | 00:49:53 | 00:00:00 | |
| OE5MMP-10 | 2026-08-31 11:19:11 | 48.41028 | 12.16911 | 64° | 164km/h | 11025m | 3.9m/s | -49.4°C | 38.4% | 238.3hPa | 2.7V | 00:00:00 | 00:49:49 | 00:00:00 | |
| DL6DJ-15 | 2026-08-31 11:19:07 | 48.40935 | 12.16628 | 62° | 162km/h | 11004m | 4.5m/s | -49.5°C | 34.4% | 239.1hPa | 2.7V | 00:00:00 | 00:00:00 | 00:00:00 | |
| OE5FHM-15 | 2026-08-31 11:19:06 | 48.40935 | 12.16627 | 63° | 164km/h | 11004m | 4.4m/s | -49.4°C | 39.3% | 239.1hPa | 2.7V | 00:00:00 | 00:49:44 | 00:00:00 | |
| DO3MHA-11 | 2026-08-31 11:19:05 | 48.40917 | 12.16572 | 64° | 164km/h | 11000m | 4.0m/s | -49.4°C | 39.5% | 239.2hPa | 2.7V | 00:00:00 | 00:49:43 | 00:00:00 | |
| PG1ADW-2 | 2026-08-31 11:19:04 | 48.40898 | 12.16518 | 63° | 164km/h | 10996m | 3.8m/s | -49.3°C | 39.5% | 239.4hPa | 2.7V | 00:00:00 | 00:00:00 | 00:00:00 | |
| OE5WHR-10 | 2026-08-31 11:19:02 | 48.40860 | 12.16408 | 63° | 164km/h | 10987m | 3.2m/s | -49.3°C | 39.7% | 239.7hPa | 2.7V | 00:00:00 | 00:49:40 | 00:00:00 | |
| OE5MMP-10 | 2026-08-31 11:19:01 | 48.40840 | 12.16353 | 63° | 164km/h | 10984m | 4.4m/s | -49.2°C | 40.0% | 239.8hPa | 2.7V | 00:00:00 | 00:49:39 | 00:00:00 | |
| DB0UT-7 | 2026-08-31 11:18:59 | 48.40802 | 12.16243 | 63° | 164km/h | 10976m | 4.8m/s | 0°C | 0% | 0hPa | 2.7V | 00:00:00 | 00:49:37 | 00:00:00 | |
| OE5DRO-10 | 2026-08-31 11:18:56 | 48.40745 | 12.16075 | 64° | 164km/h | 10963m | 3.9m/s | -49.2°C | 40.8% | 240.6hPa | 2.7V | 00:00:00 | 00:00:00 | 00:00:00 | |
| DO3MHA-11 | 2026-08-31 11:18:55 | 48.40726 | 12.16020 | 64° | 164km/h | 10960m | 3.2m/s | -49.1°C | 40.6% | 240.7hPa | 2.7V | 00:00:00 | 00:49:33 | 08:30:00 | |
| OE5MMP-10 | 2026-08-31 11:18:51 | 48.40650 | 12.15798 | 64° | 166km/h | 10943m | 3.9m/s | -49.1°C | 41.5% | 241.4hPa | 2.7V | 00:00:00 | 00:49:29 | 00:00:00 | |
| OE5DXL-15 | 2026-08-31 11:18:49 | 48.40613 | 12.15687 | 64° | 164km/h | 10936m | 4.1m/s | -49.0°C | 41.6% | 241.6hPa | 2.7V | 00:00:00 | 00:00:00 | 00:00:00 | |
| DO3MHA-11 | 2026-08-31 11:18:45 | 48.40538 | 12.15461 | 64° | 164km/h | 10919m | 4.7m/s | -48.9°C | 42.3% | 242.2hPa | 2.7V | 00:00:00 | 00:49:23 | 00:00:00 | |
| PG1ADW-2 | 2026-08-31 11:18:44 | 48.40519 | 12.15404 | 63° | 162km/h | 10915m | 4.1m/s | -48.9°C | 42.9% | 242.4hPa | 2.7V | 00:00:00 | 00:00:00 | 00:00:00 | |
| OE5MMP-10 | 2026-08-31 11:18:41 | 48.40461 | 12.15236 | 64° | 164km/h | 10903m | 3.3m/s | -48.8°C | 43.4% | 242.9hPa | 2.9V | 00:00:00 | 00:49:19 | 08:30:00 | |
| OE5DRO-10 | 2026-08-31 11:18:37 | 48.40387 | 12.15016 | 64° | 162km/h | 10886m | 4.1m/s | -48.7°C | 42.1% | 243.5hPa | 2.9V | 00:00:00 | 00:00:00 | 00:00:00 | |
| OE5FHM-15 | 2026-08-31 11:18:36 | 48.40369 | 12.14960 | 64° | 162km/h | 10882m | 4.3m/s | -48.7°C | 41.0% | 243.6hPa | 2.9V | 00:00:00 | 00:49:14 | 00:00:00 | |
| DO3MHA-11 | 2026-08-31 11:18:35 | 48.40350 | 12.14905 | 64° | 162km/h | 10877m | 5.2m/s | -48.7°C | 40.2% | 243.8hPa | 2.9V | 00:00:00 | 00:49:13 | 00:00:00 | |
| DF3TZ-5 | 2026-08-31 11:18:34 | 48.40313 | 12.14793 | 63° | 164km/h | 10867m | 4.6m/s | -48.7°C | 34.7% | 244.2hPa | 2.9V | 00:00:00 | 00:00:00 | 00:00:00 | |
| OE5MMP-10 | 2026-08-31 11:18:31 | 48.40276 | 12.14680 | 65° | 161km/h | 10860m | 5.1m/s | -48.5°C | 38.8% | 244.5hPa | 2.9V | 00:00:00 | 00:49:09 | 00:00:00 | |
| OE3JTB-15 | 2026-08-31 11:18:26 | 48.40191 | 12.14401 | 66° | 162km/h | 10838m | 4.0m/s | -48.2°C | 38.6% | 245.3hPa | 2.9V | 00:00:00 | 00:00:00 | 00:00:00 | |
| DO3MHA-11 | 2026-08-31 11:18:25 | 48.40174 | 12.14346 | 65° | 162km/h | 10834m | 4.4m/s | -48.2°C | 38.9% | 245.5hPa | 2.9V | 00:00:00 | 00:49:03 | 00:00:00 | |
| DB0UT-7 | 2026-08-31 11:18:24 | 48.40156 | 12.14292 | 65° | 161km/h | 10830m | 3.3m/s | 0°C | 0% | 0hPa | 2.9V | 00:00:00 | 00:00:00 | 00:00:00 | |
| OE5MMP-10 | 2026-08-31 11:18:21 | 48.40104 | 12.14125 | 66° | 162km/h | 10818m | 3.8m/s | -48.1°C | 38.0% | 246.1hPa | 2.9V | 00:00:00 | 00:48:59 | 00:00:00 | |
| OE5WHR-10 | 2026-08-31 11:18:20 | 48.40087 | 12.14068 | 66° | 162km/h | 10814m | 4.1m/s | -48.1°C | 37.8% | 246.2hPa | 2.9V | 00:00:00 | 00:00:00 | 00:00:00 | |
| OE5DXL-15 | 2026-08-31 11:18:19 | 48.40070 | 12.14012 | 66° | 162km/h | 10810m | 4.1m/s | -48.0°C | 37.6% | 246.3hPa | 2.9V | 00:00:00 | 00:00:00 | 00:00:00 | |
| OE5DRO-10 | 2026-08-31 11:18:18 | 48.40053 | 12.13957 | 66° | 162km/h | 10806m | 4.0m/s | -48.0°C | 37.9% | 246.5hPa | 2.9V | 00:00:00 | 00:00:00 | 08:30:00 | |
| OE5MMP-10 | 2026-08-31 11:18:11 | 48.39933 | 12.13563 | 67° | 162km/h | 10778m | 4.3m/s | -47.8°C | 41.5% | 247.5hPa | 2.7V | 00:00:00 | 00:48:49 | 00:00:00 | |
| OE5FHM-15 | 2026-08-31 11:18:06 | 48.39850 | 12.13284 | 66° | 161km/h | 10758m | 3.2m/s | -48.0°C | 42.5% | 248.3hPa | 2.9V | 00:00:00 | 00:48:44 | 00:00:00 | |
| DO3MHA-11 | 2026-08-31 11:18:05 | 48.39832 | 12.13228 | 65° | 164km/h | 10754m | 4.6m/s | -47.9°C | 42.4% | 248.4hPa | 2.9V | 00:00:00 | 00:48:43 | 00:00:00 | |
| PG1ADW-2 | 2026-08-31 11:18:04 | 48.39815 | 12.13173 | 65° | 162km/h | 10750m | 3.2m/s | -47.9°C | 42.4% | 248.6hPa | 2.9V | 00:00:00 | 00:48:42 | 00:00:00 | |
| DF3TZ-5 | 2026-08-31 11:18:03 | 48.39780 | 12.13059 | 65° | 164km/h | 10742m | 3.2m/s | -47.8°C | 36.7% | 249.0hPa | 2.9V | 00:00:00 | 00:00:00 | 00:00:00 | |
| OE5MMP-10 | 2026-08-31 11:18:01 | 48.39763 | 12.13002 | 66° | 162km/h | 10738m | 4.6m/s | -47.8°C | 41.5% | 249.0hPa | 2.9V | 00:00:00 | 00:48:39 | 00:00:00 | |
| OE5WHR-10 | 2026-08-31 11:17:59 | 48.39729 | 12.12889 | 66° | 161km/h | 10729m | 4.5m/s | -47.7°C | 40.6% | 249.4hPa | 2.9V | 00:00:00 | 00:48:37 | 00:00:00 | |
| OE3JTB-15 | 2026-08-31 11:17:57 | 48.39695 | 12.12775 | 67° | 159km/h | 10721m | 3.7m/s | -47.7°C | 40.8% | 249.7hPa | 2.9V | 00:00:00 | 00:48:35 | 00:00:00 | |
| DO3MHA-11 | 2026-08-31 11:17:55 | 48.39662 | 12.12663 | 66° | 161km/h | 10713m | 3.3m/s | -47.6°C | 40.3% | 250.0hPa | 2.9V | 00:00:00 | 00:48:33 | 00:00:00 | |
| OE5MMP-10 | 2026-08-31 11:17:51 | 48.39594 | 12.12441 | 66° | 161km/h | 10696m | 3.7m/s | -47.5°C | 41.1% | 250.6hPa | 2.9V | 00:00:00 | 00:48:29 | 00:00:00 | |
| OE5DXL-15 | 2026-08-31 11:17:49 | 48.39561 | 12.12331 | 67° | 159km/h | 10688m | 4.3m/s | -47.4°C | 41.6% | 251.0hPa | 2.9V | 00:00:00 | 00:00:00 | 00:00:00 | |
| DO3MHA-11 | 2026-08-31 11:17:45 | 48.39497 | 12.12108 | 67° | 157km/h | 10672m | 4.9m/s | -47.4°C | 42.9% | 251.6hPa | 2.9V | 00:00:00 | 00:48:23 | 00:00:00 | |
| PG1ADW-2 | 2026-08-31 11:17:44 | 48.39481 | 12.12051 | 67° | 159km/h | 10667m | 3.6m/s | -47.4°C | 43.3% | 251.7hPa | 2.9V | 00:00:00 | 00:00:00 | 08:30:00 | |
| OE5MMP-10 | 2026-08-31 11:17:41 | 48.39430 | 12.11887 | 64° | 157km/h | 10656m | 3.5m/s | -47.5°C | 43.6% | 252.2hPa | 2.9V | 00:00:00 | 00:48:19 | 00:00:00 | |
| OE5DRO-10 | 2026-08-31 11:17:40 | 48.39413 | 12.11834 | 64° | 159km/h | 10652m | 4.4m/s | -47.5°C | 44.1% | 252.3hPa | 2.9V | 00:00:00 | 00:00:00 | 00:00:00 | |
| OE5WHR-10 | 2026-08-31 11:17:38 | 48.39377 | 12.11729 | 63° | 159km/h | 10644m | 3.4m/s | -47.5°C | 44.3% | 252.6hPa | 2.9V | 00:00:00 | 00:00:00 | 00:00:00 | |
| OE5FHM-15 | 2026-08-31 11:17:36 | 48.39342 | 12.11623 | 65° | 159km/h | 10636m | 4.0m/s | -47.3°C | 44.7% | 252.9hPa | 2.7V | 00:00:00 | 00:48:14 | 08:30:00 | |
| DO3MHA-11 | 2026-08-31 11:17:35 | 48.39325 | 12.11570 | 66° | 161km/h | 10633m | 3.2m/s | -47.2°C | 44.4% | 253.1hPa | 2.7V | 00:00:00 | 00:48:13 | 00:00:00 | |
| DL6DJ-15 | 2026-08-31 11:17:34 | 48.39292 | 12.11460 | 66° | 161km/h | 10626m | 4.0m/s | -47.2°C | 38.7% | 253.4hPa | 2.7V | 00:00:00 | 00:00:00 | 00:00:00 | |
| OE5MMP-10 | 2026-08-31 11:17:31 | 48.39258 | 12.11346 | 66° | 161km/h | 10618m | 4.1m/s | -47.2°C | 43.2% | 253.6hPa | 2.7V | 00:00:00 | 00:48:09 | 00:00:00 | |
| DO3MHA-11 | 2026-08-31 11:17:25 | 48.39155 | 12.11012 | 64° | 159km/h | 10594m | 3.3m/s | -47.0°C | 42.2% | 254.5hPa | 2.7V | 00:00:00 | 00:48:03 | 08:30:00 | |
| PG1ADW-2 | 2026-08-31 11:17:24 | 48.39138 | 12.10958 | 65° | 157km/h | 10590m | 4.1m/s | -47.0°C | 41.9% | 254.7hPa | 2.7V | 00:00:00 | 00:00:00 | 00:00:00 | |
| OE5MMP-10 | 2026-08-31 11:17:21 | 48.39087 | 12.10797 | 65° | 159km/h | 10578m | 4.8m/s | -46.8°C | 41.6% | 255.2hPa | 2.7V | 00:00:00 | 00:47:59 | 00:00:00 | |
| OE5DXL-15 | 2026-08-31 11:17:19 | 48.39053 | 12.10688 | 66° | 157km/h | 10570m | 4.7m/s | -46.7°C | 41.4% | 255.5hPa | 2.7V | 00:00:00 | 00:00:00 | 00:00:00 | |
| OE5WHR-10 | 2026-08-31 11:17:17 | 48.39020 | 12.10577 | 67° | 157km/h | 10562m | 3.6m/s | -46.7°C | 41.1% | 255.7hPa | 2.9V | 00:00:00 | 00:00:00 | 00:00:00 | |
| DO3MHA-11 | 2026-08-31 11:17:15 | 48.38986 | 12.10464 | 66° | 157km/h | 10555m | 2.9m/s | -46.6°C | 41.3% | 256.0hPa | 2.9V | 00:00:00 | 00:47:53 | 00:00:00 | |
| OE5MMP-10 | 2026-08-31 11:17:11 | 48.38921 | 12.10245 | 66° | 157km/h | 10539m | 4.8m/s | -46.5°C | 41.4% | 256.7hPa | 2.9V | 00:00:00 | 00:47:49 | 08:30:00 | |
| OE5FHM-15 | 2026-08-31 11:17:06 | 48.38837 | 12.09979 | 64° | 155km/h | 10519m | 3.8m/s | -46.4°C | 39.9% | 257.4hPa | 2.7V | 00:00:00 | 00:47:44 | 00:00:00 | |
| DO3MHA-11 | 2026-08-31 11:17:05 | 48.38819 | 12.09925 | 64° | 157km/h | 10515m | 3.8m/s | -46.4°C | 39.8% | 257.5hPa | 2.7V | 00:00:00 | 00:47:43 | 00:00:00 | |
| PG1ADW-2 | 2026-08-31 11:17:04 | 48.38802 | 12.09870 | 65° | 157km/h | 10511m | 3.4m/s | -46.4°C | 39.9% | 257.7hPa | 2.7V | 00:00:00 | 00:00:00 | 00:00:00 | |
| DL6DJ-15 | 2026-08-31 11:17:03 | 48.38767 | 12.09760 | 64° | 159km/h | 10504m | 4.3m/s | -46.4°C | 35.3% | 258.0hPa | 2.7V | 00:00:00 | 00:00:00 | 00:00:00 | |
| DF3TZ-5 | 2026-08-31 11:17:01 | 48.38700 | 12.09543 | 65° | 153km/h | 10488m | 4.4m/s | -46.4°C | 35.0% | 258.6hPa | 2.7V | 00:00:00 | 00:00:00 | 00:00:00 | |
| DH7VM-15 | 2026-08-31 11:16:58 | 48.38700 | 12.09543 | 66° | 155km/h | 10488m | 4.4m/s | 0°C | 0% | 0hPa | 2.7V | 00:00:00 | 00:00:00 | 00:00:00 | |
| OE5WHR-10 | 2026-08-31 11:16:56 | 48.38667 | 12.09437 | 65° | 155km/h | 10480m | 4.3m/s | -46.2°C | 38.3% | 258.9hPa | 2.7V | 00:00:00 | 00:47:34 | 00:00:00 | |
| DO3MHA-11 | 2026-08-31 11:16:55 | 48.38650 | 12.09384 | 65° | 155km/h | 10476m | 3.4m/s | -46.2°C | 37.3% | 259.1hPa | 2.7V | 00:00:00 | 00:47:33 | 00:00:00 | |
| OE5MMP-10 | 2026-08-31 11:16:51 | 48.38579 | 12.09172 | 64° | 155km/h | 10460m | 3.6m/s | -46.1°C | 35.7% | 259.7hPa | 2.9V | 00:00:00 | 00:47:29 | 00:00:00 | |
| OE3JTB-15 | 2026-08-31 11:16:50 | 48.38562 | 12.09118 | 65° | 153km/h | 10456m | 3.3m/s | -46.1°C | 35.5% | 259.8hPa | 2.9V | 00:00:00 | 00:00:00 | 00:00:00 | |
| OE5DXL-15 | 2026-08-31 11:16:49 | 48.38545 | 12.09065 | 65° | 151km/h | 10453m | 4.7m/s | -46.1°C | 35.8% | 260.0hPa | 2.9V | 00:00:00 | 00:00:00 | 00:00:00 | |
| DO3MHA-11 | 2026-08-31 11:16:45 | 48.38480 | 12.08851 | 67° | 153km/h | 10437m | 2.8m/s | -45.9°C | 37.2% | 260.6hPa | 2.9V | 00:00:00 | 00:47:23 | 00:00:00 | |
| PG1ADW-2 | 2026-08-31 11:16:44 | 48.38464 | 12.08797 | 67° | 151km/h | 10434m | 3.7m/s | -45.9°C | 37.0% | 260.7hPa | 2.9V | 00:00:00 | 00:47:22 | 00:00:00 | |
| OE5DRO-10 | 2026-08-31 11:16:43 | 48.38448 | 12.08743 | 66° | 151km/h | 10430m | 4.7m/s | -45.9°C | 37.0% | 260.9hPa | 2.9V | 00:00:00 | 00:00:00 | 00:00:00 | |
| OE5MMP-10 | 2026-08-31 11:16:41 | 48.38414 | 12.08637 | 64° | 151km/h | 10423m | 3.4m/s | -45.9°C | 36.4% | 261.2hPa | 2.9V | 00:00:00 | 00:47:19 | 00:00:00 | |
| OE5FHM-15 | 2026-08-31 11:16:36 | 48.38327 | 12.08377 | 63° | 150km/h | 10399m | 4.4m/s | -45.7°C | 35.6% | 262.1hPa | 2.9V | 00:00:00 | 00:47:14 | 00:00:00 | |
| DO3MHA-11 | 2026-08-31 11:16:35 | 48.38310 | 12.08326 | 63° | 150km/h | 10394m | 6.0m/s | -45.7°C | 35.7% | 262.2hPa | 2.9V | 00:00:00 | 00:47:13 | 00:00:00 | |
| DL6DJ-15 | 2026-08-31 11:16:31 | 48.38241 | 12.08121 | 65° | 148km/h | 10375m | 5.5m/s | -45.7°C | 31.8% | 263.1hPa | 2.9V | 00:00:00 | 00:00:00 | 00:00:00 | |
| OE5MMP-10 | 2026-08-31 11:16:30 | 48.38227 | 12.08069 | 68° | 150km/h | 10370m | 5.1m/s | -45.5°C | 35.5% | 263.2hPa | 2.9V | 00:00:00 | 00:47:08 | 00:00:00 | |
| DO3MHA-11 | 2026-08-31 11:16:25 | 48.38156 | 12.07809 | 68° | 151km/h | 10343m | 4.5m/s | -45.4°C | 36.2% | 264.2hPa | 2.9V | 00:00:00 | 00:47:03 | 00:00:00 | |
| PG1ADW-2 | 2026-08-31 11:16:24 | 48.38141 | 12.07756 | 68° | 151km/h | 10337m | 8.0m/s | -45.4°C | 36.5% | 264.5hPa | 2.9V | 00:00:00 | 00:00:00 | 00:00:00 | |
| OE3JTB-15 | 2026-08-31 11:16:21 | 48.38097 | 12.07592 | 70° | 151km/h | 10322m | 5.6m/s | -45.3°C | 36.9% | 265.1hPa | 2.9V | 00:00:00 | 00:46:59 | 00:00:00 | |
| OE5MMP-10 | 2026-08-31 11:16:20 | 48.38083 | 12.07538 | 71° | 151km/h | 10316m | 6.7m/s | -45.2°C | 37.1% | 265.3hPa | 2.9V | 00:00:00 | 00:46:58 | 00:00:00 | |
| OE5DXL-15 | 2026-08-31 11:16:19 | 48.38071 | 12.07485 | 71° | 151km/h | 10310m | 4.4m/s | -45.2°C | 37.7% | 265.5hPa | 2.9V | 00:00:00 | 00:00:00 | 00:00:00 | |
| DO3MHA-11 | 2026-08-31 11:16:15 | 48.38015 | 12.07278 | 66° | 151km/h | 10292m | 5.4m/s | -45.1°C | 37.6% | 266.3hPa | 2.9V | 00:00:00 | 00:46:53 | 00:00:00 | |
| OE5WHR-10 | 2026-08-31 11:16:13 | 48.37982 | 12.07171 | 65° | 151km/h | 10282m | 6.9m/s | -45.0°C | 37.0% | 266.7hPa | 2.9V | 00:00:00 | 00:00:00 | 00:00:00 | |
| OE5MMP-10 | 2026-08-31 11:16:10 | 48.37932 | 12.07011 | 65° | 153km/h | 10266m | 6.4m/s | -44.8°C | 37.4% | 267.4hPa | 2.9V | 00:00:00 | 00:46:48 | 00:00:00 | |
| OE5FHM-15 | 2026-08-31 11:16:06 | 48.37875 | 12.06803 | 70° | 151km/h | 10241m | 6.2m/s | -44.7°C | 36.9% | 268.3hPa | 2.9V | 00:00:00 | 00:46:44 | 00:00:00 | |
| DO3MHA-11 | 2026-08-31 11:16:05 | 48.37862 | 12.06748 | 71° | 155km/h | 10237m | 2.5m/s | -44.6°C | 36.9% | 268.5hPa | 2.9V | 00:00:00 | 00:46:43 | 00:00:00 | |
| PG1ADW-2 | 2026-08-31 11:16:04 | 48.37849 | 12.06692 | 71° | 151km/h | 10232m | 7.7m/s | -44.6°C | 37.0% | 268.7hPa | 2.9V | 00:00:00 | 00:00:00 | 00:00:00 | |
| OE5MMP-10 | 2026-08-31 11:16:00 | 48.37788 | 12.06470 | 66° | 148km/h | 10210m | 5.7m/s | -44.3°C | 38.0% | 269.6hPa | 2.9V | 00:00:00 | 00:46:38 | 00:00:00 | |
| DO3MHA-11 | 2026-08-31 11:15:55 | 48.37711 | 12.06208 | 69° | 150km/h | 10185m | 4.7m/s | -44.2°C | 39.6% | 270.5hPa | 2.9V | 00:00:00 | 00:46:33 | 08:30:00 | |
| OE5WHR-10 | 2026-08-31 11:15:52 | 48.37670 | 12.06055 | 69° | 151km/h | 10170m | 3.8m/s | -44.1°C | 40.8% | 271.1hPa | 2.9V | 00:00:00 | 00:46:30 | 00:00:00 | |
| OE5MMP-10 | 2026-08-31 11:15:50 | 48.37643 | 12.05950 | 70° | 151km/h | 10162m | 5.6m/s | -44.0°C | 40.5% | 271.4hPa | 2.9V | 00:00:00 | 00:46:28 | 00:00:00 | |
| OE5DXL-15 | 2026-08-31 11:15:49 | 48.37630 | 12.05896 | 70° | 151km/h | 10158m | 3.6m/s | -44.0°C | 40.3% | 271.6hPa | 2.9V | 00:00:00 | 00:46:27 | 08:30:00 | |
| OE5DRO-10 | 2026-08-31 11:15:46 | 48.37587 | 12.05730 | 68° | 151km/h | 10143m | 7.9m/s | -43.9°C | 39.8% | 272.2hPa | 2.9V | 00:00:00 | 00:00:00 | 00:00:00 | |
| DO3MHA-11 | 2026-08-31 11:15:45 | 48.37572 | 12.05677 | 66° | 150km/h | 10136m | 5.1m/s | -43.9°C | 39.0% | 272.4hPa | 2.9V | 00:00:00 | 00:46:23 | 00:00:00 | |
| PG1ADW-2 | 2026-08-31 11:15:44 | 48.37555 | 12.05626 | 64° | 151km/h | 10131m | 4.5m/s | -43.8°C | 38.9% | 272.7hPa | 2.9V | 00:00:00 | 00:00:00 | 00:00:00 | |
| OE5MMP-10 | 2026-08-31 11:15:40 | 48.37488 | 12.05427 | 65° | 151km/h | 10111m | 2.4m/s | -43.6°C | 40.1% | 273.4hPa | 2.7V | 00:00:00 | 00:46:18 | 08:30:00 | |
| DK5PH-5 | 2026-08-31 11:15:36 | 48.37427 | 12.05214 | 69° | 150km/h | 10090m | 8.0m/s | -43.5°C | 40.3% | 274.3hPa | 2.9V | 00:00:00 | 00:46:14 | 00:00:00 | |
| DO3MHA-11 | 2026-08-31 11:15:35 | 48.37413 | 12.05160 | 70° | 151km/h | 10084m | 5.0m/s | -43.5°C | 40.8% | 274.6hPa | 2.9V | 00:00:00 | 00:46:13 | 00:00:00 | |
| OE5WHR-10 | 2026-08-31 11:15:31 | 48.37360 | 12.04942 | 70° | 150km/h | 10064m | 3.9m/s | -43.4°C | 41.0% | 275.5hPa | 2.9V | 00:00:00 | 00:00:00 | 00:00:00 | |
| OE5MMP-10 | 2026-08-31 11:15:30 | 48.37347 | 12.04888 | 69° | 148km/h | 10058m | 8.3m/s | 0°C | 0% | 0hPa | 2.7V | 00:00:00 | 00:46:08 | 00:00:00 | |
| DL6DJ-15 | 2026-08-31 11:15:29 | 48.37332 | 12.04834 | 67° | 151km/h | 10050m | 6.6m/s | -43.3°C | 36.4% | 276.0hPa | 2.7V | 00:00:00 | 00:00:00 | 00:00:00 | |
| OE5DRO-10 | 2026-08-31 11:15:27 | 48.37302 | 12.04728 | 66° | 150km/h | 10040m | 8.8m/s | -43.2°C | 39.5% | 276.4hPa | 2.7V | 00:00:00 | 00:00:00 | 08:30:00 | |
| DO3MHA-11 | 2026-08-31 11:15:25 | 48.37271 | 12.04625 | 66° | 148km/h | 10029m | 3.7m/s | -43.0°C | 39.2% | 277.0hPa | 2.9V | 00:00:00 | 00:46:03 | 00:00:00 | |
| PG1ADW-2 | 2026-08-31 11:15:24 | 48.37256 | 12.04573 | 67° | 150km/h | 10023m | 7.6m/s | -43.0°C | 38.8% | 277.2hPa | 2.9V | 00:00:00 | 00:46:02 | 00:00:00 | |
| OE3JTB-15 | 2026-08-31 11:15:23 | 48.37241 | 12.04523 | 68° | 148km/h | 10017m | 4.1m/s | -42.9°C | 39.1% | 277.5hPa | 2.9V | 00:00:00 | 00:00:00 | 00:00:00 | |
| OE5FHM-15 | 2026-08-31 11:15:21 | 48.37213 | 12.04419 | 69° | 148km/h | 10007m | 8.2m/s | -42.8°C | 39.2% | 277.9hPa | 2.9V | 00:00:00 | 00:45:59 | 00:00:00 | |
| OE5DXL-15 | 2026-08-31 11:15:20 | 48.37186 | 12.04316 | 68° | 148km/h | 9996m | 1.9m/s | -42.6°C | 39.7% | 278.4hPa | 2.9V | 00:00:00 | 00:00:00 | 00:00:00 | |
| DO3MHA-11 | 2026-08-31 11:15:15 | 48.37129 | 12.04103 | 69° | 151km/h | 9975m | 4.5m/s | -42.6°C | 41.1% | 279.2hPa | 2.9V | 00:00:00 | 00:45:53 | 00:00:00 | |
| OE5MMP-10 | 2026-08-31 11:15:10 | 48.37050 | 12.03844 | 64° | 146km/h | 9954m | 5.7m/s | 0°C | 0% | 0hPa | 2.9V | 00:00:00 | 00:45:48 | 00:00:00 | |
| OE5WHR-10 | 2026-08-31 11:15:09 | 48.37033 | 12.03792 | 64° | 146km/h | 9948m | 5.6m/s | -42.5°C | 44.3% | 280.4hPa | 2.9V | 00:00:00 | 00:00:00 | 00:00:00 | |
| OE5DRO-10 | 2026-08-31 11:15:08 | 48.37016 | 12.03740 | 66° | 146km/h | 9944m | 3.7m/s | -42.5°C | 45.1% | 280.5hPa | 2.9V | 00:00:00 | 00:00:00 | 00:00:00 | |
| DK5PH-5 | 2026-08-31 11:15:06 | 48.36984 | 12.03636 | 66° | 148km/h | 9936m | 5.0m/s | 0°C | 0% | 0hPa | 2.9V | 00:00:00 | 00:45:44 | 00:00:00 | |
| DO3MHA-11 | 2026-08-31 11:15:05 | 48.36970 | 12.03585 | 67° | 144km/h | 9930m | 7.5m/s | -42.5°C | 48.5% | 281.1hPa | 2.9V | 00:00:00 | 00:45:43 | 00:00:00 | |
| PG1ADW-2 | 2026-08-31 11:15:04 | 48.36956 | 12.03536 | 68° | 144km/h | 9924m | 3.5m/s | -42.4°C | 48.7% | 281.3hPa | 2.9V | 00:00:00 | 00:00:00 | 00:00:00 | |
| DL6DJ-15 | 2026-08-31 11:14:58 | 48.36869 | 12.03231 | 66° | 148km/h | 9893m | 6.4m/s | -42.2°C | 43.7% | 282.7hPa | 2.9V | 00:00:00 | 00:00:00 | 00:00:00 | |
| DO3MHA-11 | 2026-08-31 11:14:55 | 48.36826 | 12.03079 | 68° | 144km/h | 9876m | 7.7m/s | -42.0°C | 45.8% | 283.3hPa | 2.9V | 00:00:00 | 00:45:33 | 00:00:00 | |
| OE3JTB-15 | 2026-08-31 11:14:54 | 48.36812 | 12.03029 | 68° | 148km/h | 9869m | 5.7m/s | -41.9°C | 45.0% | 283.6hPa | 2.9V | 00:00:00 | 00:45:32 | 00:00:00 | |
| OE5FHM-15 | 2026-08-31 11:14:51 | 48.36771 | 12.02878 | 67° | 148km/h | 9853m | 4.6m/s | -41.8°C | 42.1% | 284.3hPa | 2.9V | 00:00:00 | 00:45:29 | 00:00:00 | |
| OE5MMP-10 | 2026-08-31 11:14:50 | 48.36756 | 12.02828 | 66° | 151km/h | 9848m | 5.7m/s | 0°C | 0% | 0hPa | 2.9V | 00:00:00 | 00:45:28 | 00:00:00 | |
| OE5DXL-15 | 2026-08-31 11:14:49 | 48.36741 | 12.02778 | 66° | 148km/h | 9842m | 5.9m/s | -41.8°C | 39.7% | 284.8hPa | 2.9V | 00:00:00 | 00:00:00 | 00:00:00 | |
| OE5WHR-10 | 2026-08-31 11:14:48 | 48.36726 | 12.02729 | 65° | 148km/h | 9836m | 7.1m/s | -41.7°C | 38.4% | 285.0hPa | 2.9V | 00:00:00 | 00:45:26 | 00:00:00 | |
| DO3MHA-11 | 2026-08-31 11:14:45 | 48.36681 | 12.02575 | 69° | 151km/h | 9820m | 6.3m/s | -41.5°C | 35.5% | 285.8hPa | 2.9V | 00:00:00 | 00:45:23 | 00:00:00 | |
| PG1ADW-2 | 2026-08-31 11:14:44 | 48.36667 | 12.02521 | 69° | 148km/h | 9815m | 4.9m/s | -41.5°C | 34.6% | 285.9hPa | 2.9V | 00:00:00 | 00:00:00 | 08:30:00 | |
| OE5MMP-10 | 2026-08-31 11:14:39 | 48.36590 | 12.02251 | 63° | 142km/h | 9790m | 3.9m/s | 0°C | 0% | 0hPa | 2.9V | 00:00:00 | 00:45:17 | 00:00:00 | |
| DK5PH-5 | 2026-08-31 11:14:36 | 48.36539 | 12.02105 | 63° | 144km/h | 9774m | 5.7m/s | 0°C | 0% | 0hPa | 2.9V | 00:00:00 | 00:45:14 | 00:00:00 | |
| DO3MHA-11 | 2026-08-31 11:14:35 | 48.36523 | 12.02058 | 66° | 146km/h | 9770m | 3.0m/s | -41.1°C | 35.4% | 287.7hPa | 2.9V | 00:00:00 | 00:45:13 | 00:00:00 | |
| OE5DRO-10 | 2026-08-31 11:14:30 | 48.36453 | 12.01807 | 68° | 146km/h | 9745m | 4.0m/s | -40.9°C | 32.3% | 288.8hPa | 2.9V | 00:00:00 | 00:00:00 | 00:00:00 | |
| OE5MMP-10 | 2026-08-31 11:14:29 | 48.36438 | 12.01753 | 68° | 146km/h | 9740m | 7.3m/s | 0°C | 0% | 0hPa | 2.9V | 00:00:00 | 00:45:07 | 00:00:00 | |
| OE5WHR-10 | 2026-08-31 11:14:27 | 48.36408 | 12.01647 | 68° | 144km/h | 9726m | 4.4m/s | -40.8°C | 28.7% | 289.5hPa | 2.9V | 00:00:00 | 00:00:00 | 00:00:00 | |
| DO3MHA-11 | 2026-08-31 11:14:25 | 48.36379 | 12.01542 | 68° | 144km/h | 9713m | 6.3m/s | -40.7°C | 27.4% | 290.1hPa | 2.7V | 00:00:00 | 00:45:03 | 08:30:00 | |
| PG1ADW-2 | 2026-08-31 11:14:24 | 48.36364 | 12.01490 | 68° | 142km/h | 9708m | 4.6m/s | -40.7°C | 26.8% | 290.4hPa | 2.9V | 00:00:00 | 00:00:00 | 00:00:00 | |
| OE5FHM-15 | 2026-08-31 11:14:21 | 48.36323 | 12.01336 | 68° | 144km/h | 9688m | 4.9m/s | -40.4°C | 25.7% | 291.0hPa | 2.9V | 00:00:00 | 00:44:59 | 00:00:00 | |
| OE5DXL-15 | 2026-08-31 11:14:19 | 48.36294 | 12.01236 | 66° | 142km/h | 9679m | 3.4m/s | -40.3°C | 25.3% | 291.6hPa | 2.7V | 00:00:00 | 00:00:00 | 00:00:00 | |
| OE5MMP-10 | 2026-08-31 11:14:18 | 48.36279 | 12.01187 | 65° | 141km/h | 9674m | 6.0m/s | 0°C | 0% | 0hPa | 2.9V | 00:00:00 | 00:44:56 | 00:00:00 | |
| DO3MHA-11 | 2026-08-31 11:14:15 | 48.36233 | 12.01043 | 65° | 142km/h | 9659m | 6.0m/s | -40.2°C | 24.0% | 292.4hPa | 2.9V | 00:00:00 | 00:44:53 | 00:00:00 | |
| DH7VM-15 | 2026-08-31 11:14:13 | 48.36218 | 12.00995 | 67° | 141km/h | 9654m | 5.0m/s | 0°C | 0% | 0hPa | 2.9V | 00:00:00 | 00:00:00 | 00:00:00 | |
| OE5DRO-10 | 2026-08-31 11:14:11 | 48.36177 | 12.00846 | 70° | 146km/h | 9640m | 5.2m/s | -40.1°C | 23.2% | 293.1hPa | 2.9V | 00:00:00 | 00:00:00 | 00:00:00 | |
| OE5MMP-10 | 2026-08-31 11:14:08 | 48.36138 | 12.00694 | 68° | 146km/h | 9623m | 4.6m/s | 0°C | 0% | 0hPa | 2.9V | 00:00:00 | 00:44:46 | 08:30:00 | |
| DK5PH-5 | 2026-08-31 11:14:06 | 48.36110 | 12.00594 | 67° | 141km/h | 9614m | 6.5m/s | 0°C | 0% | 0hPa | 2.9V | 00:00:00 | 00:44:44 | 00:00:00 | |
| DO3MHA-11 | 2026-08-31 11:14:05 | 48.36096 | 12.00545 | 67° | 146km/h | 9606m | 8.4m/s | -39.9°C | 22.4% | 294.5hPa | 2.9V | 00:00:00 | 00:44:43 | 00:00:00 | |
| PG1ADW-2 | 2026-08-31 11:14:04 | 48.36081 | 12.00496 | 65° | 142km/h | 9599m | 6.0m/s | -39.9°C | 22.2% | 294.8hPa | 2.9V | 00:00:00 | 00:44:42 | 00:00:00 | |
| DL6DJ-15 | 2026-08-31 11:13:56 | 48.35957 | 12.00094 | 69° | 150km/h | 9554m | 7.0m/s | -39.8°C | 17.5% | 296.9hPa | 2.9V | 00:00:00 | 00:00:00 | 00:00:00 | |
| DF3TZ-5 | 2026-08-31 11:13:54 | 48.35840 | 11.99651 | 66° | 131km/h | 9499m | 6.2m/s | -39.6°C | 14.6% | 299.2hPa | 2.9V | 00:00:00 | 00:00:00 | 00:00:00 | |
| OE5DRO-10 | 2026-08-31 11:13:52 | 48.35905 | 11.99881 | 69° | 133km/h | 9531m | 3.1m/s | -39.7°C | 19.3% | 297.8hPa | 2.9V | 00:00:00 | 00:00:00 | 00:00:00 | |
| OE5FHM-15 | 2026-08-31 11:13:51 | 48.35892 | 11.99833 | 68° | 130km/h | 9526m | 7.5m/s | -39.7°C | 0% | 298.0hPa | 2.9V | 00:00:00 | 00:44:29 | 00:00:00 | |
| OE5DXL-15 | 2026-08-31 11:13:49 | 48.35867 | 11.99742 | 67° | 130km/h | 9513m | 3.3m/s | -39.5°C | 17.8% | 298.6hPa | 2.9V | 00:00:00 | 00:00:00 | 00:00:00 | |
| DO3MHA-11 | 2026-08-31 11:13:45 | 48.35814 | 11.99556 | 69° | 133km/h | 9487m | 8.5m/s | -39.5°C | 16.1% | 299.7hPa | 2.9V | 00:00:00 | 00:44:23 | 00:00:00 | |
| DB0UT-7 | 2026-08-31 11:13:44 | 48.35801 | 11.99508 | 69° | 126km/h | 9480m | 6.1m/s | 0°C | 0% | 0hPa | 2.9V | 00:00:00 | 00:44:22 | 00:00:00 | |
| DK5PH-5 | 2026-08-31 11:13:36 | 48.35692 | 11.99140 | 70° | 130km/h | 9430m | 5.1m/s | 0°C | 0% | 0hPa | 2.9V | 00:00:00 | 00:44:14 | 00:00:00 | |
| DO3MHA-11 | 2026-08-31 11:13:35 | 48.35682 | 11.99093 | 72° | 128km/h | 9425m | 4.7m/s | -39.1°C | 14.9% | 302.4hPa | 2.9V | 00:00:00 | 00:44:13 | 00:00:00 | |
| OE5DRO-10 | 2026-08-31 11:13:33 | 48.35661 | 11.99001 | 71° | 126km/h | 9413m | 4.7m/s | -39.1°C | 15.3% | 302.9hPa | 2.9V | 00:00:00 | 00:00:00 | 00:00:00 | |
| OE3JTB-15 | 2026-08-31 11:13:27 | 48.35587 | 11.98729 | 67° | 126km/h | 9378m | 6.1m/s | -38.8°C | 15.3% | 304.5hPa | 2.9V | 00:00:00 | 00:44:05 | 00:00:00 | |
| DO3MHA-11 | 2026-08-31 11:13:25 | 48.35563 | 11.98640 | 69° | 124km/h | 9367m | 9.4m/s | -38.7°C | 15.0% | 305.1hPa | 2.9V | 00:00:00 | 00:44:03 | 00:00:00 | |
| PG1ADW-2 | 2026-08-31 11:13:24 | 48.35552 | 11.98597 | 70° | 126km/h | 9359m | 6.2m/s | -38.6°C | 15.0% | 305.4hPa | 2.9V | 00:00:00 | 00:00:00 | 00:00:00 | |
| OE5MMP-10 | 2026-08-31 11:13:23 | 48.35541 | 11.98553 | 71° | 122km/h | 9354m | 2.9m/s | 0°C | 0% | 0hPa | 2.9V | 00:00:00 | 00:44:01 | 00:00:00 | |
| OE5FHM-15 | 2026-08-31 11:13:20 | 48.35510 | 11.98422 | 69° | 126km/h | 9337m | 2.6m/s | 0°C | 0% | 0hPa | 2.9V | 00:00:00 | 00:43:58 | 00:00:00 | |
| OE5DXL-15 | 2026-08-31 11:13:19 | 48.35499 | 11.98378 | 69° | 126km/h | 9332m | 7.6m/s | -38.3°C | 14.9% | 306.8hPa | 2.9V | 00:00:00 | 00:00:00 | 00:00:00 | |
| DO3MHA-11 | 2026-08-31 11:13:15 | 48.35449 | 11.98199 | 67° | 128km/h | 9307m | 6.0m/s | -38.1°C | 14.8% | 307.8hPa | 2.9V | 00:00:00 | 00:43:53 | 00:00:00 | |
| OE5DRO-10 | 2026-08-31 11:13:14 | 48.35435 | 11.98153 | 67° | 128km/h | 9302m | 4.6m/s | -38.1°C | 14.6% | 308.0hPa | 2.9V | 00:00:00 | 00:00:00 | 00:00:00 | |
| OE5MMP-10 | 2026-08-31 11:13:13 | 48.35421 | 11.98106 | 66° | 130km/h | 9297m | 5.2m/s | 0°C | 0% | 0hPa | 2.9V | 00:00:00 | 00:43:51 | 00:00:00 | |
| DO3MHA-11 | 2026-08-31 11:13:05 | 48.35322 | 11.97752 | 71° | 126km/h | 9250m | 8.1m/s | -37.8°C | 13.7% | 310.4hPa | 2.9V | 00:00:00 | 00:43:43 | 00:00:00 | |
| PG1ADW-2 | 2026-08-31 11:13:04 | 48.35312 | 11.97708 | 71° | 126km/h | 9242m | 8.0m/s | -37.8°C | 13.9% | 310.7hPa | 2.9V | 00:00:00 | 00:00:00 | 00:00:00 | |
| OE5MMP-10 | 2026-08-31 11:13:03 | 48.35301 | 11.97664 | 69° | 126km/h | 9236m | 4.7m/s | 0°C | 0% | 0hPa | 2.9V | 00:00:00 | 00:43:41 | 00:00:00 | |
| DL6DJ-15 | 2026-08-31 11:12:54 | 48.35178 | 11.97272 | 67° | 122km/h | 9183m | 8.5m/s | -37.5°C | 13.6% | 313.3hPa | 2.9V | 00:00:00 | 00:00:00 | 00:00:00 | |
| OE5MMP-10 | 2026-08-31 11:12:53 | 48.35167 | 11.97229 | 69° | 124km/h | 9176m | 6.0m/s | 0°C | 0% | 0hPa | 2.9V | 00:00:00 | 00:43:31 | 00:00:00 | |
| OE5FHM-15 | 2026-08-31 11:12:50 | 48.35133 | 11.97101 | 69° | 128km/h | 9159m | 6.8m/s | 0°C | 0% | 0hPa | 2.9V | 00:00:00 | 00:43:28 | 00:00:00 | |
| OE5DXL-15 | 2026-08-31 11:12:49 | 48.35121 | 11.97057 | 68° | 120km/h | 9153m | 4.7m/s | -37.2°C | 15.0% | 314.6hPa | 2.9V | 00:00:00 | 00:00:00 | 00:00:00 | |
| DO3MHA-11 | 2026-08-31 11:12:45 | 48.35069 | 11.96878 | 65° | 119km/h | 9130m | 4.1m/s | -37.0°C | 14.4% | 315.7hPa | 2.7V | 00:00:00 | 00:43:23 | 00:00:00 | |
| PG1ADW-2 | 2026-08-31 11:12:44 | 48.35056 | 11.96836 | 65° | 120km/h | 9126m | 4.3m/s | -37.1°C | 14.2% | 315.9hPa | 2.7V | 00:00:00 | 00:43:22 | 00:00:00 | |
| OE5MMP-10 | 2026-08-31 11:12:43 | 48.35043 | 11.96796 | 64° | 117km/h | 9120m | 6.9m/s | 0°C | 0% | 0hPa | 2.7V | 00:00:00 | 00:43:21 | 00:00:00 | |
| OE5DRO-10 | 2026-08-31 11:12:36 | 48.34956 | 11.96508 | 68° | 119km/h | 9083m | 2.5m/s | -36.7°C | 12.5% | 318.0hPa | 2.7V | 00:00:00 | 00:00:00 | 08:30:00 | |
| DO3MHA-11 | 2026-08-31 11:12:35 | 48.34944 | 11.96466 | 68° | 122km/h | 9078m | 6.9m/s | -36.7°C | 12.3% | 318.2hPa | 2.9V | 00:00:00 | 00:43:13 | 00:00:00 | |
| OE5MMP-10 | 2026-08-31 11:12:33 | 48.34919 | 11.96381 | 66° | 120km/h | 9065m | 5.1m/s | 0°C | 0% | 0hPa | 2.9V | 00:00:00 | 00:43:11 | 00:00:00 | |
| OE3JTB-15 | 2026-08-31 11:12:29 | 48.34867 | 11.96206 | 69° | 117km/h | 9046m | 5.0m/s | -36.5°C | 12.0% | 319.6hPa | 2.9V | 00:00:00 | 00:00:00 | 00:00:00 | |
| DO3MHA-11 | 2026-08-31 11:12:25 | 48.34823 | 11.96040 | 68° | 115km/h | 9028m | 5.6m/s | -36.4°C | 11.1% | 320.4hPa | 2.9V | 00:00:00 | 00:43:03 | 00:00:00 | |
| PG1ADW-2 | 2026-08-31 11:12:24 | 48.34813 | 11.96001 | 68° | 117km/h | 9023m | 5.6m/s | -36.4°C | 10.8% | 320.6hPa | 2.9V | 00:00:00 | 00:00:00 | 00:00:00 | |
| DL6DJ-15 | 2026-08-31 11:12:23 | 48.34802 | 11.95962 | 67° | 111km/h | 9018m | 3.5m/s | -36.3°C | 9.0% | 321.0hPa | 2.9V | 00:00:00 | 00:00:00 | 00:00:00 | |
| OE5DXL-15 | 2026-08-31 11:12:19 | 48.34756 | 11.95802 | 67° | 117km/h | 8997m | 5.4m/s | -36.2°C | 9.2% | 321.9hPa | 2.9V | 00:00:00 | 00:00:00 | 00:00:00 | |
| OE5DRO-10 | 2026-08-31 11:12:17 | 48.34732 | 11.95719 | 68° | 119km/h | 8985m | 6.9m/s | -36.2°C | 8.7% | 322.4hPa | 2.9V | 00:00:00 | 00:00:00 | 00:00:00 | |
| OE5MMP-10 | 2026-08-31 11:12:16 | 48.34721 | 11.95676 | 69° | 122km/h | 8979m | 4.3m/s | 0°C | 0% | 0hPa | 2.9V | 00:00:00 | 00:42:54 | 00:00:00 | |
| DO3MHA-11 | 2026-08-31 11:12:15 | 48.34710 | 11.95633 | 70° | 117km/h | 8973m | 7.1m/s | -36.1°C | 8.4% | 323.0hPa | 2.9V | 00:00:00 | 00:42:53 | 00:00:00 | |
| DB0UT-7 | 2026-08-31 11:12:12 | 48.34677 | 11.95506 | 69° | 102km/h | 8957m | 7.9m/s | 0°C | 0% | 0hPa | 2.9V | 00:00:00 | 00:00:00 | 00:00:00 | |
| DO3MHA-11 | 2026-08-31 11:12:05 | 48.34600 | 11.95222 | 69° | 120km/h | 8916m | 6.3m/s | -35.8°C | 8.3% | 325.7hPa | 2.9V | 00:00:00 | 00:42:43 | 00:00:00 | |
| PG1ADW-2 | 2026-08-31 11:12:04 | 48.34589 | 11.95180 | 69° | 110km/h | 8911m | 5.4m/s | -35.8°C | 8.2% | 326.0hPa | 2.9V | 00:00:00 | 00:00:00 | 00:00:00 | |
| DL6DJ-15 | 2026-08-31 11:11:52 | 48.34456 | 11.94682 | 66° | 108km/h | 8854m | 4.0m/s | -35.5°C | 6.1% | 328.7hPa | 2.9V | 00:00:00 | 00:00:00 | 00:00:00 | |
| DF3TZ-5 | 2026-08-31 11:11:50 | 48.34434 | 11.94607 | 65° | 110km/h | 8844m | 4.8m/s | -35.5°C | 6.1% | 329.2hPa | 2.9V | 00:00:00 | 00:00:00 | 00:00:00 | |
| OE5DXL-15 | 2026-08-31 11:11:49 | 48.34421 | 11.94569 | 65° | 110km/h | 8839m | 5.0m/s | -35.4°C | 7.3% | 329.4hPa | 2.9V | 00:00:00 | 00:00:00 | 00:00:00 | |
| DO3MHA-11 | 2026-08-31 11:11:45 | 48.34376 | 11.94405 | 70° | 108km/h | 8821m | 5.4m/s | -35.3°C | 7.4% | 330.3hPa | 2.9V | 00:00:00 | 00:42:23 | 00:00:00 | |
| OE5MMP-10 | 2026-08-31 11:11:40 | 48.34325 | 11.94215 | 66° | 110km/h | 8796m | 3.8m/s | 0°C | 0% | 0hPa | 2.9V | 00:00:00 | 00:42:18 | 00:00:00 | |
| OE5DRO-10 | 2026-08-31 11:11:39 | 48.34314 | 11.94178 | 67° | 108km/h | 8791m | 5.9m/s | -35.1°C | 7.7% | 331.8hPa | 2.9V | 00:00:00 | 00:00:00 | 00:00:00 | |
| DO3MHA-11 | 2026-08-31 11:11:35 | 48.34267 | 11.94029 | 64° | 108km/h | 8765m | 5.9m/s | -35.1°C | 7.8% | 332.9hPa | 2.9V | 00:00:00 | 00:42:13 | 00:00:00 | |
| OE5MMP-10 | 2026-08-31 11:11:29 | 48.34203 | 11.93804 | 70° | 106km/h | 8736m | 4.3m/s | 0°C | 0% | 0hPa | 2.9V | 00:00:00 | 00:42:07 | 00:00:00 | |
| DO3MHA-11 | 2026-08-31 11:11:25 | 48.34167 | 11.93652 | 70° | 108km/h | 8717m | 2.9m/s | -34.9°C | 9.5% | 335.3hPa | 2.9V | 00:00:00 | 00:42:03 | 08:30:00 | |
| DL6DJ-15 | 2026-08-31 11:11:21 | 48.34112 | 11.93466 | 64° | 108km/h | 8695m | 4.1m/s | -34.8°C | 8.8% | 336.4hPa | 2.7V | 00:00:00 | 00:00:00 | 00:00:00 | |
| OE5DRO-10 | 2026-08-31 11:11:20 | 48.34112 | 11.93466 | 65° | 104km/h | 8695m | 4.1m/s | -34.8°C | 10.2% | 336.3hPa | 2.7V | 00:00:00 | 00:00:00 | 00:00:00 | |
| OE5DXL-15 | 2026-08-31 11:11:19 | 48.34101 | 11.93429 | 66° | 104km/h | 8691m | 4.4m/s | -34.8°C | 10.4% | 336.6hPa | 2.7V | 00:00:00 | 00:00:00 | 08:30:00 | |
| OE5MMP-10 | 2026-08-31 11:11:17 | 48.34079 | 11.93355 | 66° | 106km/h | 8683m | 5.2m/s | 0°C | 0% | 0hPa | 2.9V | 00:00:00 | 00:41:55 | 00:00:00 | |
| PG1ADW-2 | 2026-08-31 11:11:16 | 48.34068 | 11.93318 | 65° | 104km/h | 8677m | 5.5m/s | -34.7°C | 10.8% | 337.2hPa | 2.9V | 00:00:00 | 00:00:00 | 08:30:00 | |
| DO3MHA-11 | 2026-08-31 11:11:15 | 48.34056 | 11.93282 | 65° | 104km/h | 8673m | 3.5m/s | -34.6°C | 10.9% | 337.4hPa | 2.9V | 00:00:00 | 00:41:53 | 00:00:00 | |
| DO3MHA-11 | 2026-08-31 11:11:05 | 48.33945 | 11.92923 | 67° | 104km/h | 8628m | 1.8m/s | -34.3°C | 11.4% | 339.7hPa | 2.9V | 00:00:00 | 00:41:43 | 00:00:00 | |
| DL6DJ-15 | 2026-08-31 11:10:50 | 48.33756 | 11.92360 | 69° | 100km/h | 8533m | 6.6m/s | -33.8°C | 9.8% | 344.1hPa | 2.9V | 00:00:00 | 00:00:00 | 00:00:00 | |
| DF3TZ-5 | 2026-08-31 11:10:48 | 48.33746 | 11.92325 | 68° | 99km/h | 8527m | 5.0m/s | -33.7°C | 9.7% | 344.4hPa | 2.9V | 00:00:00 | 00:00:00 | 00:00:00 | |
| DO3MHA-11 | 2026-08-31 11:10:45 | 48.33718 | 11.92220 | 67° | 99km/h | 8513m | 6.1m/s | -33.6°C | 11.2% | 345.0hPa | 2.9V | 00:00:00 | 00:41:23 | 00:00:00 | |
| OE5DRO-10 | 2026-08-31 11:10:42 | 48.33686 | 11.92114 | 65° | 99km/h | 8500m | 5.0m/s | -33.5°C | 11.3% | 345.7hPa | 2.9V | 00:00:00 | 00:00:00 | 00:00:00 | |
| OE5MMP-10 | 2026-08-31 11:10:41 | 48.33675 | 11.92080 | 65° | 97km/h | 8494m | 8.2m/s | 0°C | 0% | 0hPa | 2.7V | 00:00:00 | 00:41:19 | 00:00:00 | |
| PG1ADW-2 | 2026-08-31 11:10:36 | 48.33623 | 11.91915 | 65° | 100km/h | 8467m | 5.8m/s | -33.2°C | 12.1% | 347.4hPa | 2.7V | 00:00:00 | 00:00:00 | 00:00:00 | |
| DO3MHA-11 | 2026-08-31 11:10:35 | 48.33611 | 11.91879 | 65° | 99km/h | 8462m | 2.6m/s | -33.1°C | 12.0% | 347.6hPa | 2.7V | 00:00:00 | 00:41:13 | 00:00:00 | |
| OE3JTB-15 | 2026-08-31 11:10:31 | 48.33564 | 11.91739 | 62° | 100km/h | 8440m | 4.5m/s | -33.0°C | 11.7% | 348.8hPa | 2.7V | 00:00:00 | 00:41:09 | 00:00:00 | |
| OE5MMP-10 | 2026-08-31 11:10:29 | 48.33541 | 11.91677 | 63° | 102km/h | 8427m | 6.9m/s | 0°C | 0% | 0hPa | 2.7V | 00:00:00 | 00:41:07 | 00:00:00 | |
| DO3MHA-11 | 2026-08-31 11:10:25 | 48.33501 | 11.91543 | 67° | 102km/h | 8406m | 6.0m/s | -32.7°C | 11.7% | 350.3hPa | 2.7V | 00:00:00 | 00:41:03 | 00:00:00 | |
| OE5DRO-10 | 2026-08-31 11:10:23 | 48.33482 | 11.91475 | 67° | 102km/h | 8397m | 6.0m/s | -32.6°C | 11.8% | 350.9hPa | 2.7V | 00:00:00 | 00:00:00 | 00:00:00 | |
| DL6DJ-15 | 2026-08-31 11:10:19 | 48.33431 | 11.91297 | 67° | 106km/h | 8372m | 5.7m/s | -32.4°C | 9.9% | 352.1hPa | 2.7V | 00:00:00 | 00:00:00 | 00:00:00 | |
| PG1ADW-2 | 2026-08-31 11:10:16 | 48.33410 | 11.91224 | 67° | 100km/h | 8362m | 4.0m/s | -32.3°C | 11.4% | 352.5hPa | 2.7V | 00:00:00 | 00:00:00 | 00:00:00 | |
| DO3MHA-11 | 2026-08-31 11:10:15 | 48.33400 | 11.91188 | 67° | 100km/h | 8358m | 4.5m/s | -32.3°C | 11.4% | 352.8hPa | 2.9V | 00:00:00 | 00:40:53 | 00:00:00 | |
| OE5MMP-10 | 2026-08-31 11:10:11 | 48.33360 | 11.91049 | 68° | 100km/h | 8342m | 3.8m/s | 0°C | 0% | 0hPa | 2.9V | 00:00:00 | 00:40:49 | 00:00:00 | |
| OE5DRO-10 | 2026-08-31 11:10:04 | 48.33291 | 11.90802 | 69° | 99km/h | 8314m | 3.4m/s | -31.9°C | 10.8% | 354.9hPa | 2.9V | 00:00:00 | 00:00:00 | 00:00:00 | |
| DL6DJ-15 | 2026-08-31 11:09:48 | 48.33130 | 11.90213 | 66° | 102km/h | 8240m | 5.1m/s | -31.4°C | 8.9% | 358.7hPa | 2.9V | 00:00:00 | 00:00:00 | 00:00:00 | |
| DO3MHA-11 | 2026-08-31 11:09:45 | 48.33108 | 11.90140 | 67° | 100km/h | 8230m | 3.4m/s | -31.2°C | 10.2% | 359.3hPa | 2.9V | 00:00:00 | 00:40:23 | 00:00:00 | |
| PG1ADW-2 | 2026-08-31 11:09:36 | 48.33021 | 11.89824 | 67° | 100km/h | 8178m | 6.4m/s | -30.8°C | 9.9% | 361.8hPa | 2.9V | 00:00:00 | 00:40:14 | 00:00:00 | |
| DO3MHA-11 | 2026-08-31 11:09:35 | 48.33012 | 11.89792 | 68° | 100km/h | 8173m | 3.2m/s | -30.8°C | 9.9% | 362.0hPa | 2.9V | 00:00:00 | 00:40:13 | 00:00:00 | |
| OE3JTB-15 | 2026-08-31 11:09:33 | 48.32994 | 11.89724 | 69° | 102km/h | 8165m | 4.6m/s | -30.7°C | 9.9% | 362.5hPa | 2.9V | 00:00:00 | 00:00:00 | 00:00:00 | |
| OE5DRO-10 | 2026-08-31 11:09:26 | 48.32929 | 11.89468 | 69° | 100km/h | 8131m | 4.3m/s | -30.4°C | 9.6% | 364.2hPa | 2.9V | 00:00:00 | 00:00:00 | 00:00:00 | |
| DO3MHA-11 | 2026-08-31 11:09:25 | 48.32919 | 11.89433 | 66° | 100km/h | 8127m | 3.9m/s | -30.4°C | 9.6% | 364.5hPa | 2.9V | 00:00:00 | 00:40:03 | 00:00:00 | |
| OE5DXL-15 | 2026-08-31 11:09:19 | 48.32857 | 11.89227 | 68° | 102km/h | 8099m | 6.3m/s | -30.2°C | 9.4% | 365.9hPa | 2.7V | 00:00:00 | 00:00:00 | 00:00:00 | |
| PG1ADW-2 | 2026-08-31 11:09:16 | 48.32825 | 11.89121 | 65° | 102km/h | 8081m | 8.1m/s | -30.1°C | 9.7% | 366.8hPa | 2.7V | 00:00:00 | 00:00:00 | 00:00:00 | |
| DO3MHA-11 | 2026-08-31 11:09:15 | 48.32814 | 11.89084 | 65° | 102km/h | 8074m | 6.2m/s | -30.1°C | 9.8% | 367.1hPa | 2.7V | 00:00:00 | 00:39:53 | 00:00:00 | |
| OE5DRO-10 | 2026-08-31 11:09:07 | 48.32726 | 11.88804 | 65° | 100km/h | 8033m | 4.0m/s | -29.9°C | 11.5% | 369.4hPa | 2.7V | 00:00:00 | 00:00:00 | 00:00:00 | |
| DO3MHA-11 | 2026-08-31 11:09:05 | 48.32703 | 11.88732 | 64° | 100km/h | 8020m | 7.2m/s | -29.9°C | 12.1% | 370.0hPa | 2.7V | 00:00:00 | 00:39:43 | 00:00:00 | |
| OE3JTB-15 | 2026-08-31 11:09:04 | 48.32690 | 11.88695 | 64° | 99km/h | 8014m | 5.3m/s | -29.8°C | 12.1% | 370.2hPa | 2.7V | 00:00:00 | 00:39:42 | 00:00:00 | |
| DO3MHA-11 | 2026-08-31 11:08:55 | 48.32593 | 11.88388 | 64° | 99km/h | 7967m | 4.5m/s | -29.7°C | 13.0% | 372.7hPa | 2.7V | 00:00:00 | 00:39:33 | 00:00:00 | |
| OE5DXL-15 | 2026-08-31 11:08:49 | 48.32533 | 11.88178 | 68° | 99km/h | 7938m | 4.0m/s | -29.5°C | 13.3% | 374.3hPa | 2.9V | 00:00:00 | 00:00:00 | 00:00:00 | |
| OE5DRO-10 | 2026-08-31 11:08:48 | 48.32523 | 11.88145 | 66° | 97km/h | 7932m | 6.4m/s | -29.4°C | 13.0% | 374.6hPa | 2.9V | 00:00:00 | 00:00:00 | 00:00:00 | |
| DO3MHA-11 | 2026-08-31 11:08:45 | 48.32491 | 11.88050 | 61° | 99km/h | 7915m | 5.6m/s | -29.3°C | 13.0% | 375.5hPa | 2.9V | 00:00:00 | 00:39:23 | 00:00:00 | |
| DF3TZ-5 | 2026-08-31 11:08:44 | 48.32422 | 11.87854 | 66° | 104km/h | 7879m | 5.6m/s | -29.1°C | 11.8% | 377.4hPa | 2.9V | 00:00:00 | 00:00:00 | 00:00:00 | |
| PG1ADW-2 | 2026-08-31 11:08:36 | 48.32389 | 11.87747 | 63° | 99km/h | 7861m | 7.4m/s | -29.0°C | 13.0% | 378.1hPa | 2.9V | 00:00:00 | 00:00:00 | 00:00:00 | |
| DO3MHA-11 | 2026-08-31 11:08:35 | 48.32377 | 11.87713 | 63° | 100km/h | 7855m | 4.5m/s | -28.9°C | 13.0% | 378.4hPa | 2.9V | 00:00:00 | 00:39:13 | 00:00:00 | |
| OE5DRO-10 | 2026-08-31 11:08:29 | 48.32312 | 11.87515 | 64° | 100km/h | 7825m | 5.6m/s | -28.7°C | 12.6% | 380.1hPa | 2.9V | 00:00:00 | 00:00:00 | 00:00:00 | |
| DO3MHA-11 | 2026-08-31 11:08:25 | 48.32266 | 11.87372 | 65° | 99km/h | 7804m | 4.9m/s | -28.5°C | 12.0% | 381.2hPa | 2.9V | 00:00:00 | 00:39:03 | 08:30:00 | |
| OE5DXL-15 | 2026-08-31 11:08:19 | 48.32199 | 11.87170 | 67° | 99km/h | 7773m | 3.7m/s | -28.3°C | 11.8% | 383.0hPa | 2.9V | 00:00:00 | 00:00:00 | 00:00:00 | |
| PG1ADW-2 | 2026-08-31 11:08:16 | 48.32172 | 11.87069 | 69° | 99km/h | 7753m | 5.8m/s | -28.1°C | 11.7% | 384.0hPa | 2.9V | 00:00:00 | 00:38:54 | 08:30:00 | |
| DO3MHA-11 | 2026-08-31 11:08:15 | 48.32163 | 11.87035 | 69° | 97km/h | 7748m | 4.0m/s | -28.0°C | 11.7% | 384.3hPa | 2.9V | 00:00:00 | 00:38:53 | 00:00:00 | |
| DL6DJ-15 | 2026-08-31 11:08:14 | 48.32154 | 11.87000 | 69° | 99km/h | 7744m | 3.5m/s | -28.0°C | 10.5% | 384.6hPa | 2.9V | 00:00:00 | 00:00:00 | 00:00:00 | |
| DF3TZ-5 | 2026-08-31 11:08:13 | 48.32137 | 11.86929 | 69° | 99km/h | 7730m | 7.8m/s | -28.0°C | 10.4% | 385.2hPa | 2.9V | 00:00:00 | 00:00:00 | 00:00:00 | |
| OE5DRO-10 | 2026-08-31 11:08:10 | 48.32118 | 11.86859 | 67° | 99km/h | 7719m | 3.8m/s | -27.8°C | 11.6% | 385.8hPa | 2.9V | 00:00:00 | 00:00:00 | 00:00:00 | |
| OE3JTB-15 | 2026-08-31 11:08:06 | 48.32076 | 11.86732 | 61° | 97km/h | 7698m | 3.9m/s | -27.7°C | 11.2% | 386.8hPa | 2.9V | 00:00:00 | 00:00:00 | 00:00:00 | |
| DO3MHA-11 | 2026-08-31 11:08:05 | 48.32064 | 11.86701 | 61° | 102km/h | 7694m | 4.4m/s | -27.7°C | 11.0% | 387.1hPa | 2.9V | 00:00:00 | 00:38:43 | 00:00:00 | |
| PG1ADW-2 | 2026-08-31 11:07:56 | 48.31962 | 11.86387 | 66° | 99km/h | 7648m | 6.5m/s | -27.3°C | 10.5% | 389.4hPa | 2.9V | 00:00:00 | 00:00:00 | 00:00:00 | |
| DO3MHA-11 | 2026-08-31 11:07:55 | 48.31952 | 11.86353 | 65° | 97km/h | 7641m | 6.9m/s | -27.3°C | 10.5% | 389.9hPa | 2.9V | 00:00:00 | 00:38:33 | 00:00:00 | |
| OE5DRO-10 | 2026-08-31 11:07:51 | 48.31903 | 11.86224 | 59° | 97km/h | 7618m | 3.3m/s | -27.1°C | 10.9% | 391.3hPa | 2.7V | 00:00:00 | 00:00:00 | 00:00:00 | |
| OE5DXL-15 | 2026-08-31 11:07:49 | 48.31878 | 11.86160 | 62° | 99km/h | 7609m | 4.9m/s | -27.1°C | 11.1% | 391.8hPa | 2.7V | 00:00:00 | 00:00:00 | 00:00:00 | |
| DO3MHA-11 | 2026-08-31 11:07:45 | 48.31838 | 11.86028 | 68° | 99km/h | 7588m | 8.5m/s | -27.0°C | 11.2% | 392.9hPa | 2.7V | 00:00:00 | 00:38:23 | 00:00:00 | |
| DL6DJ-15 | 2026-08-31 11:07:43 | 48.31818 | 11.85957 | 65° | 104km/h | 7574m | 5.5m/s | -27.0°C | 10.2% | 393.6hPa | 2.7V | 00:00:00 | 00:00:00 | 00:00:00 | |
| DF3TZ-5 | 2026-08-31 11:07:42 | 48.31785 | 11.85850 | 62° | 100km/h | 7558m | 6.3m/s | -26.8°C | 10.2% | 394.5hPa | 2.7V | 00:00:00 | 00:00:00 | 00:00:00 | |
| PG1ADW-2 | 2026-08-31 11:07:36 | 48.31739 | 11.85725 | 61° | 95km/h | 7536m | 7.2m/s | -26.6°C | 11.0% | 395.7hPa | 2.7V | 00:00:00 | 00:00:00 | 00:00:00 | |
| DO3MHA-11 | 2026-08-31 11:07:35 | 48.31729 | 11.85697 | 62° | 95km/h | 7530m | 5.2m/s | -26.5°C | 11.0% | 396.0hPa | 2.7V | 00:00:00 | 00:38:13 | 00:00:00 | |
| OE5DRO-10 | 2026-08-31 11:07:31 | 48.31686 | 11.85572 | 65° | 95km/h | 7506m | 5.7m/s | -26.4°C | 11.4% | 397.4hPa | 2.7V | 00:00:00 | 00:00:00 | 00:00:00 | |
| OE3JTB-15 | 2026-08-31 11:07:27 | 48.31645 | 11.85438 | 66° | 93km/h | 7480m | 6.7m/s | -26.2°C | 12.7% | 398.7hPa | 2.7V | 00:00:00 | 00:38:05 | 00:00:00 | |
| DO3MHA-11 | 2026-08-31 11:07:25 | 48.31624 | 11.85366 | 67° | 95km/h | 7469m | 4.0m/s | -26.1°C | 13.6% | 399.4hPa | 2.7V | 00:00:00 | 00:38:03 | 00:00:00 | |
| OE5DXL-15 | 2026-08-31 11:07:19 | 48.31565 | 11.85153 | 69° | 91km/h | 7438m | 3.9m/s | -25.8°C | 15.9% | 401.1hPa | 2.9V | 00:00:00 | 00:00:00 | 00:00:00 | |
| PG1ADW-2 | 2026-08-31 11:07:16 | 48.31538 | 11.85065 | 61° | 91km/h | 7422m | 7.8m/s | -25.7°C | 15.8% | 402.1hPa | 2.9V | 00:00:00 | 00:00:00 | 00:00:00 | |
| DO3MHA-11 | 2026-08-31 11:07:15 | 48.31527 | 11.85037 | 59° | 89km/h | 7415m | 7.1m/s | -25.6°C | 15.8% | 402.4hPa | 2.9V | 00:00:00 | 00:37:53 | 00:00:00 | |
| OE5DRO-10 | 2026-08-31 11:07:12 | 48.31495 | 11.84949 | 66° | 93km/h | 7397m | 4.1m/s | -25.4°C | 15.2% | 403.5hPa | 2.9V | 00:00:00 | 00:00:00 | 00:00:00 | |
| DF3TZ-5 | 2026-08-31 11:07:11 | 48.31456 | 11.84786 | 68° | 89km/h | 7369m | 2.2m/s | -25.2°C | 13.3% | 405.1hPa | 2.9V | 00:00:00 | 00:00:00 | 00:00:00 | |
| DO3MHA-11 | 2026-08-31 11:07:05 | 48.31438 | 11.84723 | 68° | 95km/h | 7359m | 7.6m/s | -25.1°C | 13.3% | 405.6hPa | 2.9V | 00:00:00 | 00:37:43 | 00:00:00 | |
| OE5WHR-10 | 2026-08-31 11:07:01 | 48.31401 | 11.84595 | 68° | 93km/h | 7337m | 7.1m/s | -24.9°C | 12.7% | 406.9hPa | 2.9V | 00:00:00 | 00:37:39 | 00:00:00 | |
| OE3JTB-15 | 2026-08-31 11:06:58 | 48.31374 | 11.84493 | 69° | 91km/h | 7321m | 8.3m/s | -24.7°C | 12.3% | 407.9hPa | 2.9V | 00:00:00 | 00:00:00 | 00:00:00 | |
| PG1ADW-2 | 2026-08-31 11:06:56 | 48.31355 | 11.84425 | 66° | 93km/h | 7307m | 5.0m/s | -24.6°C | 11.7% | 408.5hPa | 2.9V | 00:00:00 | 00:37:34 | 00:00:00 | |
| DO3MHA-11 | 2026-08-31 11:06:55 | 48.31345 | 11.84393 | 65° | 89km/h | 7303m | 4.1m/s | -24.6°C | 11.3% | 408.8hPa | 2.9V | 00:00:00 | 00:37:33 | 08:30:00 | |
| OE5DRO-10 | 2026-08-31 11:06:53 | 48.31325 | 11.84329 | 65° | 91km/h | 7293m | 7.7m/s | -24.5°C | 10.7% | 409.4hPa | 2.9V | 00:00:00 | 00:00:00 | 08:30:00 | |
| OE5DXL-15 | 2026-08-31 11:06:49 | 48.31291 | 11.84204 | 71° | 89km/h | 7271m | 4.8m/s | -24.4°C | 10.3% | 410.7hPa | 2.9V | 00:00:00 | 00:00:00 | 08:30:00 | |
| DO3MHA-11 | 2026-08-31 11:06:45 | 48.31261 | 11.84077 | 71° | 95km/h | 7247m | 4.5m/s | -24.2°C | 10.3% | 411.9hPa | 2.9V | 00:00:00 | 00:37:23 | 00:00:00 | |
| DL6DJ-15 | 2026-08-31 11:06:41 | 48.31222 | 11.83944 | 63° | 99km/h | 7227m | 6.5m/s | -24.2°C | 9.4% | 413.0hPa | 2.9V | 00:00:00 | 00:00:00 | 00:00:00 | |
| DF3TZ-5 | 2026-08-31 11:06:40 | 48.31199 | 11.83878 | 62° | 95km/h | 7218m | 4.9m/s | -24.1°C | 9.9% | 413.7hPa | 2.9V | 00:00:00 | 00:00:00 | 00:00:00 | |
| PG1ADW-2 | 2026-08-31 11:06:36 | 48.31167 | 11.83786 | 63° | 88km/h | 7203m | 6.4m/s | -24.1°C | 12.1% | 414.5hPa | 2.9V | 00:00:00 | 00:00:00 | 00:00:00 | |
| DO3MHA-11 | 2026-08-31 11:06:35 | 48.31156 | 11.83756 | 64° | 88km/h | 7198m | 4.8m/s | -24.0°C | 12.9% | 414.8hPa | 2.9V | 00:00:00 | 00:37:13 | 00:00:00 | |
| OE5DRO-10 | 2026-08-31 11:06:34 | 48.31146 | 11.83725 | 64° | 88km/h | 7194m | 3.5m/s | -24.0°C | 14.1% | 415.1hPa | 2.9V | 00:00:00 | 00:00:00 | 00:00:00 | |
| OE3JTB-15 | 2026-08-31 11:06:29 | 48.31100 | 11.83571 | 69° | 88km/h | 7163m | 4.1m/s | -23.9°C | 16.4% | 416.8hPa | 2.9V | 00:00:00 | 00:00:00 | 00:00:00 | |
| DO3MHA-11 | 2026-08-31 11:06:25 | 48.31069 | 11.83452 | 66° | 89km/h | 7138m | 3.3m/s | -23.7°C | 16.5% | 418.3hPa | 2.9V | 00:00:00 | 00:37:03 | 00:00:00 | |
| OE5WHR-10 | 2026-08-31 11:06:19 | 48.31006 | 11.83269 | 65° | 88km/h | 7108m | 5.7m/s | -23.5°C | 16.8% | 420.0hPa | 2.9V | 00:00:00 | 00:00:00 | 00:00:00 | |
| PG1ADW-2 | 2026-08-31 11:06:16 | 48.30975 | 11.83182 | 60° | 88km/h | 7091m | 8.1m/s | -23.4°C | 16.5% | 421.0hPa | 2.9V | 00:00:00 | 00:00:00 | 00:00:00 | |
| DO3MHA-11 | 2026-08-31 11:06:15 | 48.30964 | 11.83155 | 60° | 86km/h | 7083m | 8.3m/s | -23.4°C | 16.4% | 421.3hPa | 2.9V | 00:00:00 | 00:36:53 | 00:00:00 | |
| DL6DJ-15 | 2026-08-31 11:06:10 | 48.30917 | 11.83017 | 65° | 88km/h | 7053m | 5.8m/s | -23.1°C | 15.1% | 423.1hPa | 2.9V | 00:00:00 | 00:00:00 | 00:00:00 | |
| DF3TZ-5 | 2026-08-31 11:06:09 | 48.30897 | 11.82955 | 63° | 89km/h | 7044m | 5.7m/s | -23.0°C | 14.6% | 423.7hPa | 2.9V | 00:00:00 | 00:00:00 | 00:00:00 | |
| DO3MHA-11 | 2026-08-31 11:06:05 | 48.30867 | 11.82862 | 66° | 89km/h | 7025m | 6.9m/s | -22.9°C | 14.8% | 424.6hPa | 2.9V | 00:00:00 | 00:36:43 | 00:00:00 | |
| OE3JTB-15 | 2026-08-31 11:06:00 | 48.30820 | 11.82700 | 64° | 89km/h | 6995m | 6.9m/s | -22.6°C | 14.5% | 426.4hPa | 2.9V | 00:00:00 | 00:36:38 | 00:00:00 | |
| OE5WHR-10 | 2026-08-31 11:05:57 | 48.30788 | 11.82614 | 61° | 86km/h | 6980m | 4.2m/s | -22.4°C | 14.1% | 427.5hPa | 2.9V | 00:00:00 | 00:36:35 | 00:00:00 | |
| PG1ADW-2 | 2026-08-31 11:05:56 | 48.30778 | 11.82586 | 61° | 89km/h | 6975m | 7.0m/s | -22.4°C | 14.1% | 427.7hPa | 2.9V | 00:00:00 | 00:00:00 | 00:00:00 | |
| DO3MHA-11 | 2026-08-31 11:05:55 | 48.30768 | 11.82558 | 63° | 89km/h | 6969m | 4.6m/s | -22.3°C | 14.3% | 428.1hPa | 2.9V | 00:00:00 | 00:36:33 | 00:00:00 | |
| OE5DXL-15 | 2026-08-31 11:05:49 | 48.30701 | 11.82382 | 61° | 88km/h | 6941m | 4.6m/s | -22.1°C | 14.4% | 429.9hPa | 2.9V | 00:00:00 | 00:00:00 | 00:00:00 | |
| DO3MHA-11 | 2026-08-31 11:05:45 | 48.30662 | 11.82256 | 67° | 89km/h | 6917m | 4.6m/s | -21.9°C | 14.7% | 431.2hPa | 2.9V | 00:00:00 | 00:36:23 | 00:00:00 | |
| DL6DJ-15 | 2026-08-31 11:05:39 | 48.30599 | 11.82073 | 61° | 86km/h | 6884m | 5.5m/s | -21.7°C | 15.1% | 433.3hPa | 2.9V | 00:00:00 | 00:00:00 | 00:00:00 | |
| DF3TZ-5 | 2026-08-31 11:05:38 | 48.30579 | 11.82014 | 63° | 88km/h | 6870m | 6.7m/s | -21.6°C | 14.9% | 434.0hPa | 2.9V | 00:00:00 | 00:00:00 | 00:00:00 | |
| PG1ADW-2 | 2026-08-31 11:05:36 | 48.30568 | 11.81984 | 63° | 84km/h | 6864m | 6.3m/s | -21.5°C | 16.1% | 434.2hPa | 2.9V | 00:00:00 | 00:36:14 | 00:00:00 | |
| DO3MHA-11 | 2026-08-31 11:05:35 | 48.30558 | 11.81953 | 65° | 88km/h | 6860m | 3.4m/s | -21.5°C | 16.7% | 434.5hPa | 2.9V | 00:00:00 | 00:36:13 | 00:00:00 | |
| OE3JTB-15 | 2026-08-31 11:05:31 | 48.30521 | 11.81829 | 66° | 89km/h | 6842m | 6.0m/s | -21.3°C | 16.8% | 435.6hPa | 2.9V | 00:00:00 | 00:00:00 | 08:30:00 | |
| DO3MHA-11 | 2026-08-31 11:05:25 | 48.30460 | 11.81656 | 62° | 80km/h | 6812m | 3.7m/s | -21.0°C | 16.9% | 437.3hPa | 2.9V | 00:00:00 | 00:36:03 | 08:30:00 | |
| OE5DXL-15 | 2026-08-31 11:05:19 | 48.30394 | 11.81498 | 59° | 82km/h | 6780m | 4.0m/s | -20.9°C | 16.7% | 439.2hPa | 2.9V | 00:00:00 | 00:00:00 | 00:00:00 | |
| OE5DRO-10 | 2026-08-31 11:05:17 | 48.30374 | 11.81447 | 64° | 84km/h | 6769m | 5.0m/s | -20.9°C | 17.1% | 439.8hPa | 2.9V | 00:00:00 | 00:00:00 | 00:00:00 | |
| PG1ADW-2 | 2026-08-31 11:05:16 | 48.30365 | 11.81420 | 64° | 84km/h | 6764m | 4.4m/s | -20.8°C | 17.2% | 440.0hPa | 2.9V | 00:00:00 | 00:00:00 | 08:30:00 | |
| DO3MHA-11 | 2026-08-31 11:05:15 | 48.30356 | 11.81392 | 64° | 88km/h | 6760m | 5.1m/s | -20.8°C | 17.6% | 440.4hPa | 2.9V | 00:00:00 | 00:35:53 | 00:00:00 | |
| DL6DJ-15 | 2026-08-31 11:05:08 | 48.30282 | 11.81179 | 60° | 86km/h | 6732m | 5.8m/s | -20.9°C | 17.9% | 442.1hPa | 2.9V | 00:00:00 | 00:00:00 | 00:00:00 | |
| DF3TZ-5 | 2026-08-31 11:05:07 | 48.30263 | 11.81127 | 59° | 71km/h | 6720m | 4.9m/s | -20.8°C | 18.2% | 442.8hPa | 2.9V | 00:00:00 | 00:00:00 | 00:00:00 | |
| DO3MHA-11 | 2026-08-31 11:05:05 | 48.30253 | 11.81103 | 60° | 80km/h | 6715m | 6.2m/s | -20.7°C | 19.1% | 443.1hPa | 2.9V | 00:00:00 | 00:35:43 | 00:00:00 | |
| OE5DRO-10 | 2026-08-31 11:04:58 | 48.30183 | 11.80917 | 63° | 78km/h | 6681m | 3.3m/s | -20.4°C | 19.3% | 445.3hPa | 2.9V | 00:00:00 | 00:00:00 | 00:00:00 | |
| PG1ADW-2 | 2026-08-31 11:04:56 | 48.30166 | 11.80860 | 66° | 78km/h | 6671m | 7.3m/s | -20.3°C | 19.1% | 445.9hPa | 2.9V | 00:00:00 | 00:00:00 | 00:00:00 | |
| DO3MHA-11 | 2026-08-31 11:04:55 | 48.30157 | 11.80833 | 65° | 77km/h | 6664m | 6.3m/s | -20.3°C | 19.2% | 446.3hPa | 2.9V | 00:00:00 | 00:35:33 | 00:00:00 | |
| OE5WHR-10 | 2026-08-31 11:04:53 | 48.30139 | 11.80785 | 57° | 73km/h | 6653m | 5.8m/s | -20.2°C | 19.1% | 446.9hPa | 2.9V | 00:00:00 | 00:00:00 | 00:00:00 | |
| OE3JTB-15 | 2026-08-31 11:04:50 | 48.30104 | 11.80718 | 50° | 73km/h | 6632m | 7.1m/s | -20.0°C | 18.8% | 448.1hPa | 2.9V | 00:00:00 | 00:00:00 | 00:00:00 | |
| OE5DXL-15 | 2026-08-31 11:04:49 | 48.30091 | 11.80695 | 53° | 77km/h | 6626m | 6.0m/s | -20.0°C | 18.9% | 448.4hPa | 2.9V | 00:00:00 | 00:00:00 | 00:00:00 | |
| DO3MHA-11 | 2026-08-31 11:04:45 | 48.30045 | 11.80594 | 58° | 78km/h | 6603m | 7.0m/s | -19.8°C | 18.8% | 449.7hPa | 2.9V | 00:00:00 | 00:35:23 | 00:00:00 | |
| OE5DRO-10 | 2026-08-31 11:04:39 | 48.29983 | 11.80435 | 65° | 75km/h | 6571m | 5.1m/s | -19.6°C | 19.1% | 451.8hPa | 2.9V | 00:00:00 | 00:00:00 | 00:00:00 | |
| DL6DJ-15 | 2026-08-31 11:04:37 | 48.29959 | 11.80356 | 64° | 69km/h | 6557m | 4.4m/s | -19.5°C | 18.3% | 452.7hPa | 2.9V | 00:00:00 | 00:00:00 | 00:00:00 | |
| PG1ADW-2 | 2026-08-31 11:04:36 | 48.29959 | 11.80356 | 65° | 75km/h | 6558m | 4.3m/s | -19.4°C | 19.2% | 452.6hPa | 2.9V | 00:00:00 | 00:00:00 | 00:00:00 | |
| DO3MHA-11 | 2026-08-31 11:04:35 | 48.29951 | 11.80332 | 63° | 73km/h | 6552m | 6.4m/s | -19.4°C | 19.3% | 453.0hPa | 2.9V | 00:00:00 | 00:35:13 | 00:00:00 | |
| DO3MHA-11 | 2026-08-31 11:04:25 | 48.29859 | 11.80089 | 60° | 75km/h | 6500m | 4.8m/s | -19.1°C | 20.3% | 456.3hPa | 2.9V | 00:00:00 | 00:35:03 | 00:00:00 | |
| OE5DRO-10 | 2026-08-31 11:04:20 | 48.29810 | 11.79961 | 62° | 73km/h | 6474m | 4.0m/s | -18.9°C | 20.5% | 457.9hPa | 2.9V | 00:00:00 | 00:00:00 | 00:00:00 | |
| OE5DXL-15 | 2026-08-31 11:04:19 | 48.29801 | 11.79935 | 62° | 71km/h | 6469m | 4.8m/s | -18.9°C | 20.4% | 458.1hPa | 2.9V | 00:00:00 | 00:00:00 | 00:00:00 | |
| PG1ADW-2 | 2026-08-31 11:04:16 | 48.29777 | 11.79866 | 65° | 71km/h | 6457m | 3.2m/s | -18.7°C | 20.3% | 458.9hPa | 2.9V | 00:00:00 | 00:34:54 | 00:00:00 | |
| DO3MHA-11 | 2026-08-31 11:04:15 | 48.29770 | 11.79845 | 63° | 71km/h | 6453m | 4.4m/s | -18.7°C | 20.3% | 459.2hPa | 2.9V | 00:00:00 | 00:34:53 | 00:00:00 | |
| OE3JTB-15 | 2026-08-31 11:04:10 | 48.29728 | 11.79730 | 63° | 71km/h | 6427m | 6.0m/s | -18.5°C | 19.9% | 460.7hPa | 2.9V | 00:00:00 | 00:34:48 | 00:00:00 | |
| DL6DJ-15 | 2026-08-31 11:04:06 | 48.29684 | 11.79604 | 61° | 75km/h | 6404m | 7.7m/s | -18.3°C | 18.7% | 462.1hPa | 2.9V | 00:00:00 | 00:00:00 | 00:00:00 | |
| DO3MHA-11 | 2026-08-31 11:04:05 | 48.29684 | 11.79604 | 62° | 73km/h | 6405m | 7.6m/s | -18.3°C | 19.5% | 462.1hPa | 2.9V | 00:00:00 | 00:34:43 | 00:00:00 | |
| DF3TZ-5 | 2026-08-31 11:04:04 | 48.29675 | 11.79578 | 62° | 78km/h | 6397m | 7.1m/s | -18.2°C | 18.7% | 462.6hPa | 2.9V | 00:00:00 | 00:00:00 | 00:00:00 | |
| OE5DRO-10 | 2026-08-31 11:04:01 | 48.29649 | 11.79501 | 61° | 69km/h | 6382m | 4.5m/s | -18.1°C | 19.5% | 463.4hPa | 2.9V | 00:00:00 | 00:00:00 | 08:30:00 | |
| PG1ADW-2 | 2026-08-31 11:03:56 | 48.29596 | 11.79361 | 68° | 69km/h | 6348m | 8.6m/s | -17.8°C | 18.9% | 465.5hPa | 2.9V | 00:00:00 | 00:00:00 | 00:00:00 | |
| DO3MHA-11 | 2026-08-31 11:03:55 | 48.29596 | 11.79361 | 68° | 71km/h | 6348m | 8.6m/s | -17.8°C | 18.9% | 465.5hPa | 2.9V | 00:00:00 | 00:34:33 | 08:30:00 | |
| OE5DXL-15 | 2026-08-31 11:03:50 | 48.29556 | 11.79211 | 64° | 69km/h | 6317m | 5.6m/s | -17.5°C | 19.0% | 467.5hPa | 2.9V | 00:00:00 | 00:00:00 | 00:00:00 | |
| DO3MHA-11 | 2026-08-31 11:03:45 | 48.29522 | 11.79116 | 60° | 69km/h | 6293m | 7.3m/s | -17.4°C | 18.4% | 468.8hPa | 2.9V | 00:00:00 | 00:34:23 | 00:00:00 | |
| OE5DRO-10 | 2026-08-31 11:03:42 | 48.29497 | 11.79053 | 59° | 69km/h | 6279m | 8.3m/s | -17.2°C | 18.0% | 469.9hPa | 2.9V | 00:00:00 | 00:00:00 | 00:00:00 | |
| OE5WHR-10 | 2026-08-31 11:03:39 | 48.29471 | 11.78987 | 62° | 68km/h | 6261m | 3.5m/s | -17.0°C | 17.8% | 471.0hPa | 2.9V | 00:00:00 | 00:00:00 | 00:00:00 | |
| OE3JTB-15 | 2026-08-31 11:03:38 | 48.29462 | 11.78962 | 63° | 69km/h | 6256m | 6.5m/s | -17.0°C | 17.6% | 471.3hPa | 2.9V | 00:00:00 | 00:00:00 | 00:00:00 | |
| DL6DJ-15 | 2026-08-31 11:03:35 | 48.29432 | 11.78859 | 68° | 71km/h | 6235m | 6.9m/s | -16.9°C | 16.2% | 472.7hPa | 2.9V | 00:00:00 | 00:00:00 | 00:00:00 | |
| DF3TZ-5 | 2026-08-31 11:03:33 | 48.29425 | 11.78834 | 67° | 68km/h | 6228m | 6.1m/s | -16.8°C | 16.0% | 473.1hPa | 2.9V | 00:00:00 | 00:00:00 | 00:00:00 | |
| DO3MHA-11 | 2026-08-31 11:03:25 | 48.29369 | 11.78645 | 61° | 69km/h | 6190m | 4.8m/s | -16.5°C | 16.9% | 475.5hPa | 2.9V | 00:00:00 | 00:34:03 | 00:00:00 | |
| OE5DRO-10 | 2026-08-31 11:03:23 | 48.29352 | 11.78598 | 60° | 68km/h | 6175m | 6.9m/s | -16.5°C | 17.9% | 476.3hPa | 2.9V | 00:00:00 | 00:00:00 | 00:00:00 | |
| OE5DXL-15 | 2026-08-31 11:03:19 | 48.29318 | 11.78505 | 64° | 66km/h | 6152m | 6.1m/s | -16.4°C | 19.2% | 477.8hPa | 2.9V | 00:00:00 | 00:00:00 | 00:00:00 | |
| DO3MHA-11 | 2026-08-31 11:03:15 | 48.29294 | 11.78412 | 71° | 68km/h | 6130m | 7.3m/s | -16.3°C | 19.3% | 479.2hPa | 2.9V | 00:00:00 | 00:33:53 | 00:00:00 | |
| OE3JTB-15 | 2026-08-31 11:03:07 | 48.29241 | 11.78226 | 67° | 69km/h | 6091m | 6.4m/s | -16.0°C | 19.6% | 481.7hPa | 2.9V | 00:00:00 | 00:00:00 | 00:00:00 | |
| DO3MHA-11 | 2026-08-31 11:03:05 | 48.29226 | 11.78177 | 64° | 66km/h | 6078m | 6.1m/s | -15.9°C | 19.4% | 482.4hPa | 2.9V | 00:00:00 | 00:33:43 | 00:00:00 | |
| DL6DJ-15 | 2026-08-31 11:03:04 | 48.29212 | 11.78133 | 63° | 64km/h | 6067m | 4.9m/s | -15.8°C | 18.7% | 483.2hPa | 2.9V | 00:00:00 | 00:00:00 | 00:00:00 | |
| DF3TZ-5 | 2026-08-31 11:03:02 | 48.29204 | 11.78111 | 62° | 64km/h | 6062m | 6.8m/s | -15.8°C | 18.6% | 483.6hPa | 2.9V | 00:00:00 | 00:00:00 | 00:00:00 | |
| PG1ADW-2 | 2026-08-31 11:02:55 | 48.29158 | 11.77951 | 68° | 69km/h | 6024m | 5.6m/s | 0°C | 0% | 0hPa | 2.9V | 00:00:00 | 00:33:33 | 00:00:00 | |
| OE5DXL-15 | 2026-08-31 11:02:49 | 48.29118 | 11.77812 | 61° | 69km/h | 5993m | 4.0m/s | -15.1°C | 19.2% | 487.9hPa | 2.9V | 00:00:00 | 00:00:00 | 00:00:00 | |
| DO3MHA-11 | 2026-08-31 11:02:45 | 48.29079 | 11.77719 | 56° | 71km/h | 5975m | 5.2m/s | -15.0°C | 18.6% | 489.1hPa | 2.9V | 00:00:00 | 00:33:23 | 00:00:00 | |
| OE3JTB-15 | 2026-08-31 11:02:38 | 48.29021 | 11.77550 | 65° | 66km/h | 5939m | 5.0m/s | -14.7°C | 17.9% | 491.5hPa | 2.9V | 00:00:00 | 00:33:16 | 00:00:00 | |
| DO3MHA-11 | 2026-08-31 11:02:35 | 48.28998 | 11.77480 | 63° | 66km/h | 5924m | 6.2m/s | -14.6°C | 17.5% | 492.6hPa | 2.9V | 00:00:00 | 00:33:13 | 00:00:00 | |
| DL6DJ-15 | 2026-08-31 11:02:33 | 48.28974 | 11.77409 | 64° | 68km/h | 5906m | 5.4m/s | -14.5°C | 17.3% | 493.7hPa | 2.9V | 00:00:00 | 00:00:00 | 00:00:00 | |
| DF3TZ-5 | 2026-08-31 11:02:31 | 48.28966 | 11.77387 | 63° | 64km/h | 5901m | 4.4m/s | -14.4°C | -1.0% | 494.1hPa | 2.9V | 00:00:00 | 00:00:00 | 00:00:00 | |
| OE5DRO-10 | 2026-08-31 11:02:26 | 48.28924 | 11.77284 | 56° | 66km/h | 5879m | 5.9m/s | -14.2°C | 18.5% | 495.5hPa | 2.9V | 00:00:00 | 00:00:00 | 00:00:00 | |
| DO3MHA-11 | 2026-08-31 11:02:25 | 48.28915 | 11.77263 | 58° | 68km/h | 5873m | 4.9m/s | -14.1°C | 18.1% | 495.9hPa | 2.9V | 00:00:00 | 00:33:03 | 08:30:00 | |
| OE5DXL-15 | 2026-08-31 11:02:19 | 48.28864 | 11.77129 | 59° | 66km/h | 5847m | 6.2m/s | -13.9°C | 17.3% | 497.6hPa | 2.9V | 00:00:00 | 00:00:00 | 08:30:00 | |
| DO3MHA-11 | 2026-08-31 11:02:15 | 48.28827 | 11.77048 | 52° | 66km/h | 5826m | 5.9m/s | -13.7°C | 15.0% | 499.1hPa | 2.9V | 00:00:00 | 00:32:53 | 00:00:00 | |
| OE3JTB-15 | 2026-08-31 11:02:09 | 48.28775 | 11.76933 | 65° | 69km/h | 5796m | 4.4m/s | -13.4°C | 13.3% | 501.0hPa | 2.9V | 00:00:00 | 00:00:00 | 00:00:00 | |
| OE5WHR-10 | 2026-08-31 11:02:08 | 48.28768 | 11.76910 | 64° | 68km/h | 5790m | 7.3m/s | 0°C | 0% | 0hPa | 2.9V | 00:00:00 | 00:32:46 | 00:00:00 | |
| OE5DRO-10 | 2026-08-31 11:02:07 | 48.28759 | 11.76885 | 61° | 68km/h | 5783m | 6.1m/s | -13.3°C | 13.1% | 501.8hPa | 2.9V | 00:00:00 | 00:00:00 | 00:00:00 | |
| DO3MHA-11 | 2026-08-31 11:02:05 | 48.28740 | 11.76836 | 60° | 66km/h | 5771m | 7.7m/s | -13.2°C | 13.1% | 502.6hPa | 2.9V | 00:00:00 | 00:32:43 | 00:00:00 | |
| DL6DJ-15 | 2026-08-31 11:02:01 | 48.28706 | 11.76742 | 63° | 62km/h | 5747m | 5.7m/s | -13.0°C | 12.4% | 504.2hPa | 2.9V | 00:00:00 | 00:00:00 | 00:00:00 | |
| DF3TZ-5 | 2026-08-31 11:02:00 | 48.28700 | 11.76721 | 64° | 60km/h | 5741m | 5.5m/s | -13.0°C | -1.0% | 504.6hPa | 2.9V | 00:00:00 | 00:00:00 | 00:00:00 | |
| DO3MHA-11 | 2026-08-31 11:01:55 | 48.28659 | 11.76619 | 58° | 68km/h | 5715m | 5.1m/s | -12.7°C | 12.1% | 506.0hPa | 2.9V | 00:00:00 | 00:32:33 | 00:00:00 | |
| OE5DXL-15 | 2026-08-31 11:01:49 | 48.28616 | 11.76474 | 66° | 64km/h | 5688m | 5.4m/s | -12.4°C | 11.7% | 508.0hPa | 2.9V | 00:00:00 | 00:00:00 | 00:00:00 | |
| OE5DRO-10 | 2026-08-31 11:01:48 | 48.28609 | 11.76452 | 64° | 66km/h | 5683m | 5.5m/s | -12.4°C | 11.8% | 508.2hPa | 2.9V | 00:00:00 | 00:00:00 | 00:00:00 | |
| OE5WHR-10 | 2026-08-31 11:01:47 | 48.28601 | 11.76430 | 61° | 68km/h | 5678m | 4.1m/s | 0°C | 0% | 0hPa | 2.9V | 00:00:00 | 00:00:00 | 00:00:00 | |
| DO3MHA-11 | 2026-08-31 11:01:46 | 48.28584 | 11.76385 | 61° | 66km/h | 5667m | 5.3m/s | -12.3°C | 12.2% | 509.4hPa | 2.9V | 00:00:00 | 00:32:23 | 00:00:00 | |
| OE3JTB-15 | 2026-08-31 11:01:40 | 48.28538 | 11.76272 | 58° | 64km/h | 5636m | 4.2m/s | -12.0°C | 12.4% | 511.3hPa | 2.9V | 00:00:00 | 00:00:00 | 00:00:00 | |
| DO3MHA-11 | 2026-08-31 11:01:35 | 48.28500 | 11.76171 | 60° | 66km/h | 5605m | 7.3m/s | -11.8°C | 11.5% | 513.2hPa | 2.9V | 00:00:00 | 00:32:13 | 00:00:00 | |
| DL6DJ-15 | 2026-08-31 11:01:30 | 48.28457 | 11.76069 | 59° | 69km/h | 5580m | 4.4m/s | -11.6°C | 11.3% | 515.3hPa | 2.9V | 00:00:00 | 00:00:00 | 00:00:00 | |
| OE5DRO-10 | 2026-08-31 11:01:29 | 48.28447 | 11.76046 | 59° | 64km/h | 5575m | 6.2m/s | -11.5°C | 11.7% | 515.5hPa | 2.9V | 00:00:00 | 00:00:00 | 00:00:00 | |
| DO3MHA-11 | 2026-08-31 11:01:25 | 48.28417 | 11.75953 | 69° | 60km/h | 5554m | 5.0m/s | -11.4°C | 11.7% | 516.8hPa | 2.9V | 00:00:00 | 00:32:03 | 00:00:00 | |
| DO3MHA-11 | 2026-08-31 11:01:15 | 48.28353 | 11.75748 | 66° | 69km/h | 5503m | 6.1m/s | -10.9°C | 11.4% | 520.3hPa | 2.9V | 00:00:00 | 00:31:53 | 00:00:00 | |
| OE5DRO-10 | 2026-08-31 11:01:10 | 48.28311 | 11.75630 | 61° | 66km/h | 5475m | 4.7m/s | -10.6°C | 11.4% | 522.3hPa | 2.9V | 00:00:00 | 00:00:00 | 08:30:00 | |
| DO3MHA-11 | 2026-08-31 11:01:05 | 48.28277 | 11.75516 | 68° | 64km/h | 5445m | 6.1m/s | -10.4°C | 12.3% | 524.2hPa | 2.9V | 00:00:00 | 00:31:43 | 00:00:00 | |
| DL6DJ-15 | 2026-08-31 11:00:59 | 48.28239 | 11.75384 | 71° | 68km/h | 5411m | 5.3m/s | -10.1°C | 12.1% | 526.7hPa | 2.9V | 00:00:00 | 00:00:00 | 00:00:00 | |
| OE5DRO-10 | 2026-08-31 11:00:56 | 48.28185 | 11.75204 | 63° | 62km/h | 5368m | 7.3m/s | -9.7°C | 12.7% | 529.6hPa | 2.9V | 00:00:00 | 00:00:00 | 00:00:00 | |
| OE5WHR-10 | 2026-08-31 11:00:55 | 48.28121 | 11.74955 | 73° | 58km/h | 5301m | 5.5m/s | 0°C | 0% | 0hPa | 2.9V | 00:00:00 | 00:31:18 | 00:00:00 | |
| DO3MHA-11 | 2026-08-31 11:00:52 | 48.28097 | 11.74854 | 66° | 66km/h | 5275m | 4.4m/s | -8.9°C | 12.4% | 535.8hPa | 2.9V | 00:00:00 | 00:31:13 | 00:00:00 | |
| OE5DRO-10 | 2026-08-31 11:00:51 | 48.28079 | 11.74794 | 65° | 64km/h | 5262m | 4.7m/s | -8.8°C | 12.5% | 536.9hPa | 2.9V | 00:00:00 | 00:00:00 | 00:00:00 | |
| DL6DJ-15 | 2026-08-31 11:00:46 | 48.28048 | 11.74699 | 65° | 71km/h | 5243m | 5.7m/s | -8.7°C | 12.4% | 538.3hPa | 2.9V | 00:00:00 | 00:00:00 | 00:00:00 | |
| DO3MHA-11 | 2026-08-31 11:00:26 | 48.28027 | 11.74625 | 67° | 60km/h | 5224m | 6.4m/s | -8.6°C | 12.9% | 539.3hPa | 2.9V | 00:00:00 | 00:31:03 | 00:00:00 | |
| OE3JTB-15 | 2026-08-31 11:00:24 | 48.28021 | 11.74603 | 66° | 62km/h | 5218m | 5.1m/s | -8.5°C | 12.9% | 539.7hPa | 2.9V | 00:00:00 | 00:00:00 | 08:30:00 | |
| OE5DXL-15 | 2026-08-31 11:00:19 | 48.27994 | 11.74505 | 66° | 64km/h | 5192m | 4.8m/s | -8.3°C | 13.3% | 541.9hPa | 2.9V | 00:00:00 | 00:00:00 | 00:00:00 | |
| DO3MHA-11 | 2026-08-31 11:00:16 | 48.27963 | 11.74422 | 59° | 64km/h | 5168m | 6.7m/s | -8.1°C | 13.3% | 543.4hPa | 2.9V | 00:00:00 | 00:30:53 | 00:00:00 | |
| OE5DRO-10 | 2026-08-31 11:00:13 | 48.27948 | 11.74377 | 70° | 66km/h | 5157m | 4.8m/s | -8.0°C | 13.3% | 544.3hPa | 2.9V | 00:00:00 | 00:00:00 | 00:00:00 | |
| DO3MHA-11 | 2026-08-31 11:00:05 | 48.27915 | 11.74190 | 67° | 62km/h | 5119m | 5.6m/s | -7.7°C | 11.5% | 546.8hPa | 3.0V | 00:00:00 | 00:30:43 | 00:00:00 | |
| DL6DJ-15 | 2026-08-31 10:59:57 | 48.27875 | 11.74012 | 72° | 66km/h | 5076m | 3.3m/s | -7.6°C | 11.8% | 550.0hPa | 3.0V | 00:00:00 | 00:00:00 | 00:00:00 | |
| DO3MHA-11 | 2026-08-31 10:59:55 | 48.27864 | 11.73963 | 68° | 68km/h | 5065m | 6.9m/s | -7.5°C | 11.3% | 550.7hPa | 3.0V | 00:00:00 | 00:30:33 | 00:00:00 | |
| OE5DRO-10 | 2026-08-31 10:59:50 | 48.27827 | 11.73849 | 62° | 64km/h | 5040m | 6.0m/s | -7.3°C | 10.3% | 552.6hPa | 3.0V | 00:00:00 | 00:00:00 | 00:00:00 | |
| OE5DXL-15 | 2026-08-31 10:59:49 | 48.27819 | 11.73827 | 65° | 66km/h | 5034m | 4.6m/s | -7.3°C | 10.5% | 552.9hPa | 3.0V | 00:00:00 | 00:00:00 | 00:00:00 | |
| DO3MHA-11 | 2026-08-31 10:59:45 | 48.27793 | 11.73730 | 74° | 66km/h | 5011m | 6.6m/s | -7.1°C | 10.6% | 554.5hPa | 3.0V | 00:00:00 | 00:30:23 | 00:00:00 | |
| DO3MHA-11 | 2026-08-31 10:59:35 | 48.27745 | 11.73496 | 71° | 64km/h | 4963m | 5.7m/s | -6.8°C | 10.8% | 558.0hPa | 3.0V | 00:00:00 | 00:30:13 | 00:00:00 | |
| OE5DRO-10 | 2026-08-31 10:59:30 | 48.27727 | 11.73382 | 79° | 66km/h | 4938m | 4.6m/s | -6.6°C | 11.0% | 559.7hPa | 3.0V | 00:00:00 | 00:00:00 | 00:00:00 | |
| DL6DJ-15 | 2026-08-31 10:59:26 | 48.27709 | 11.73283 | 71° | 66km/h | 4921m | 3.2m/s | -6.6°C | 11.2% | 561.0hPa | 3.0V | 00:00:00 | 00:00:00 | 00:00:00 | |
| DO3MHA-11 | 2026-08-31 10:59:25 | 48.27704 | 11.73259 | 72° | 66km/h | 4918m | 4.5m/s | -6.6°C | 11.4% | 561.2hPa | 3.0V | 00:00:00 | 00:30:03 | 08:30:00 | |
| OE5WHR-10 | 2026-08-31 10:59:24 | 48.27699 | 11.73235 | 72° | 66km/h | 4913m | 3.9m/s | 0°C | 0% | 0hPa | 3.0V | 00:00:00 | 00:00:00 | 00:00:00 | |
| OE5DXL-15 | 2026-08-31 10:59:19 | 48.27666 | 11.73119 | 68° | 64km/h | 4894m | 4.6m/s | -6.5°C | 12.7% | 562.9hPa | 3.0V | 00:00:00 | 00:00:00 | 00:00:00 | |
| DO3MHA-11 | 2026-08-31 10:59:15 | 48.27649 | 11.73025 | 78° | 66km/h | 4872m | 6.7m/s | -6.4°C | 12.6% | 564.4hPa | 3.0V | 00:00:00 | 00:29:53 | 00:00:00 | |
| OE5DRO-10 | 2026-08-31 10:59:11 | 48.27632 | 11.72932 | 75° | 62km/h | 4849m | 5.2m/s | -6.3°C | 12.4% | 566.1hPa | 3.0V | 00:00:00 | 00:00:00 | 00:00:00 | |
| DO3MHA-11 | 2026-08-31 10:59:05 | 48.27603 | 11.72787 | 69° | 58km/h | 4824m | 3.8m/s | -6.2°C | 13.3% | 568.0hPa | 2.9V | 00:00:00 | 00:29:43 | 00:00:00 | |
| DO3MHA-11 | 2026-08-31 10:58:55 | 48.27547 | 11.72580 | 84° | 66km/h | 4777m | 5.6m/s | -5.8°C | 13.2% | 571.3hPa | 2.9V | 00:00:00 | 00:29:33 | 00:00:00 | |
| NBG1-10 | 2026-08-31 10:58:54 | 48.27545 | 11.72556 | 86° | 60km/h | 4772m | 5.4m/s | 0°C | 0% | 0hPa | 3.0V | 00:00:00 | 00:29:32 | 00:00:00 | |
| OE5DRO-10 | 2026-08-31 10:58:52 | 48.27542 | 11.72508 | 81° | 64km/h | 4760m | 5.2m/s | 0°C | 0% | 0hPa | 3.0V | 00:00:00 | 00:00:00 | 00:00:00 | |
| OE5DXL-15 | 2026-08-31 10:58:49 | 48.27528 | 11.72434 | 72° | 66km/h | 4745m | 5.4m/s | -5.6°C | 11.6% | 573.7hPa | 3.0V | 00:00:00 | 00:00:00 | 00:00:00 | |
| OE3JTB-15 | 2026-08-31 10:58:46 | 48.27517 | 11.72362 | 82° | 66km/h | 4726m | 5.6m/s | -5.5°C | 10.3% | 575.1hPa | 3.0V | 00:00:00 | 00:00:00 | 00:00:00 | |
| DO3MHA-11 | 2026-08-31 10:58:45 | 48.27514 | 11.72339 | 81° | 64km/h | 4720m | 5.2m/s | -5.5°C | 10.1% | 575.4hPa | 3.0V | 00:00:00 | 00:29:23 | 00:00:00 | |
| DO3MHA-11 | 2026-08-31 10:58:35 | 48.27477 | 11.72106 | 80° | 64km/h | 4666m | 6.2m/s | -5.1°C | 9.4% | 579.7hPa | 3.0V | 00:00:00 | 00:29:13 | 00:00:00 | |
| OE5DRO-10 | 2026-08-31 10:58:33 | 48.27471 | 11.72056 | 79° | 66km/h | 4655m | 4.8m/s | 0°C | 0% | 0hPa | 3.0V | 00:00:00 | 00:00:00 | 00:00:00 | |
| DO3MHA-11 | 2026-08-31 10:58:25 | 48.27441 | 11.71867 | 73° | 68km/h | 4617m | 5.6m/s | -4.9°C | 10.3% | 583.1hPa | 3.0V | 00:00:00 | 00:29:03 | 00:00:00 | |
| DL6DJ-15 | 2026-08-31 10:58:24 | 48.27436 | 11.71842 | 70° | 69km/h | 4610m | 5.7m/s | -4.9°C | 10.3% | 583.6hPa | 3.0V | 00:00:00 | 00:00:00 | 00:00:00 | |
| OE5DXL-15 | 2026-08-31 10:58:19 | 48.27412 | 11.71718 | 77° | 68km/h | 4590m | 5.7m/s | -4.7°C | 10.9% | 585.2hPa | 3.0V | 00:00:00 | 00:00:00 | 00:00:00 | |
| OE3JTB-15 | 2026-08-31 10:58:17 | 48.27405 | 11.71667 | 81° | 68km/h | 4578m | 4.3m/s | -4.6°C | 10.8% | 585.9hPa | 3.0V | 00:00:00 | 00:00:00 | 00:00:00 | |
| DO3MHA-11 | 2026-08-31 10:58:15 | 48.27399 | 11.71617 | 79° | 66km/h | 4569m | 5.5m/s | -4.5°C | 10.6% | 586.7hPa | 3.0V | 00:00:00 | 00:28:53 | 00:00:00 | |
| OE5DRO-10 | 2026-08-31 10:58:14 | 48.27395 | 11.71592 | 78° | 66km/h | 4563m | 4.3m/s | 0°C | 0% | 0hPa | 3.0V | 00:00:00 | 00:00:00 | 00:00:00 | |
| DO3MHA-11 | 2026-08-31 10:58:05 | 48.27374 | 11.71368 | 83° | 68km/h | 4527m | 4.8m/s | -4.2°C | 10.5% | 589.9hPa | 3.0V | 00:00:00 | 00:28:43 | 00:00:00 | |
| DL6DJ-15 | 2026-08-31 10:57:53 | 48.27355 | 11.71065 | 81° | 68km/h | 4475m | 3.7m/s | -3.9°C | 10.5% | 593.8hPa | 3.0V | 00:00:00 | 00:00:00 | 00:00:00 | |
| OE5DXL-15 | 2026-08-31 10:57:49 | 48.27348 | 11.70963 | 86° | 66km/h | 4457m | 5.8m/s | -3.7°C | 10.5% | 595.4hPa | 3.0V | 00:00:00 | 00:00:00 | 08:30:00 | |
| DO3MHA-11 | 2026-08-31 10:57:45 | 48.27340 | 11.70862 | 81° | 66km/h | 4431m | 6.9m/s | -3.6°C | 10.4% | 597.1hPa | 3.0V | 00:00:00 | 00:28:23 | 00:00:00 | |
| DO3MHA-11 | 2026-08-31 10:57:35 | 48.27308 | 11.70621 | 82° | 64km/h | 4382m | 4.2m/s | -3.2°C | 10.2% | 600.7hPa | 3.0V | 00:00:00 | 00:28:13 | 00:00:00 | |
| DO3MHA-11 | 2026-08-31 10:57:25 | 48.27278 | 11.70386 | 71° | 62km/h | 4330m | 6.0m/s | -2.7°C | 9.9% | 604.6hPa | 3.0V | 00:00:00 | 00:28:03 | 00:00:00 | |
| DL6DJ-15 | 2026-08-31 10:57:22 | 48.27257 | 11.70289 | 75° | 64km/h | 4308m | 2.9m/s | -2.6°C | 9.7% | 606.3hPa | 3.0V | 00:00:00 | 00:00:00 | 00:00:00 | |
| OE5DXL-15 | 2026-08-31 10:57:19 | 48.27249 | 11.70242 | 77° | 62km/h | 4301m | 3.1m/s | -2.4°C | 9.8% | 606.9hPa | 3.0V | 00:00:00 | 00:00:00 | 00:00:00 | |
| OE3JTB-15 | 2026-08-31 10:57:18 | 48.27246 | 11.70219 | 77° | 64km/h | 4298m | 3.9m/s | -2.4°C | 9.8% | 607.2hPa | 3.0V | 00:00:00 | 00:00:00 | 00:00:00 | |
| DO3MHA-11 | 2026-08-31 10:57:15 | 48.27236 | 11.70159 | 75° | 60km/h | 4286m | 3.7m/s | -2.3°C | 9.6% | 608.0hPa | 3.0V | 00:00:00 | 00:27:53 | 00:00:00 | |
| DO3MHA-11 | 2026-08-31 10:57:05 | 48.27204 | 11.69934 | 73° | 68km/h | 4235m | 4.7m/s | -1.8°C | 9.1% | 612.1hPa | 3.0V | 00:00:00 | 00:27:43 | 00:00:00 | |
| DL6DJ-15 | 2026-08-31 10:56:51 | 48.27139 | 11.69573 | 72° | 53km/h | 4175m | 2.8m/s | -1.4°C | 8.3% | 617.0hPa | 3.0V | 00:00:00 | 00:00:00 | 00:00:00 | |
| OE5DXL-15 | 2026-08-31 10:56:49 | 48.27135 | 11.69553 | 74° | 64km/h | 4171m | 4.7m/s | -1.3°C | 8.3% | 617.2hPa | 3.0V | 00:00:00 | 00:00:00 | 00:00:00 | |
| DO3MHA-11 | 2026-08-31 10:56:45 | 48.27115 | 11.69465 | 70° | 64km/h | 4154m | 4.7m/s | -1.2°C | 8.1% | 618.4hPa | 3.0V | 00:00:00 | 00:27:23 | 00:00:00 | |
| DO3MHA-11 | 2026-08-31 10:56:35 | 48.27071 | 11.69231 | 78° | 66km/h | 4101m | 4.2m/s | -0.9°C | 7.0% | 622.8hPa | 3.0V | 00:00:00 | 00:27:13 | 00:00:00 | |
| DO3MHA-11 | 2026-08-31 10:56:25 | 48.27026 | 11.68991 | 70° | 71km/h | 4056m | 2.7m/s | -0.8°C | 4.6% | 626.5hPa | 3.0V | 00:00:00 | 00:27:03 | 08:30:00 | |
| DL6DJ-15 | 2026-08-31 10:56:20 | 48.26997 | 11.68840 | 80° | 73km/h | 4020m | 5.7m/s | -0.9°C | 6.5% | 629.2hPa | 3.0V | 00:00:00 | 00:00:00 | 00:00:00 | |
| OE5DXL-15 | 2026-08-31 10:56:19 | 48.26997 | 11.68840 | 81° | 73km/h | 4020m | 5.6m/s | -0.9°C | 6.5% | 629.2hPa | 3.0V | 00:00:00 | 00:00:00 | 00:00:00 | |
| DO3MHA-11 | 2026-08-31 10:56:15 | 48.26980 | 11.68733 | 73° | 68km/h | 4001m | 4.7m/s | -1.0°C | 8.5% | 630.8hPa | 3.0V | 00:00:00 | 00:26:53 | 00:00:00 | |
| DO3MHA-11 | 2026-08-31 10:56:05 | 48.26936 | 11.68486 | 82° | 69km/h | 3947m | 3.7m/s | -1.2°C | 16.7% | 635.1hPa | 3.0V | 00:00:00 | 00:26:43 | 00:00:00 | |
| DL6DJ-15 | 2026-08-31 10:55:49 | 48.26892 | 11.68020 | 84° | 73km/h | 3855m | 4.4m/s | -0.5°C | 11.3% | 642.6hPa | 3.0V | 00:00:00 | 00:00:00 | 00:00:00 | |
| OE5DXL-15 | 2026-08-31 10:55:46 | 48.26888 | 11.67965 | 84° | 82km/h | 3845m | 6.5m/s | -0.5°C | 11.1% | 643.4hPa | 3.0V | 00:00:00 | 00:00:00 | 00:00:00 | |
| DO3MHA-11 | 2026-08-31 10:55:45 | 48.26886 | 11.67937 | 82° | 77km/h | 3838m | 7.0m/s | -0.5°C | 11.9% | 644.0hPa | 3.0V | 00:00:00 | 00:26:23 | 00:00:00 | |
| OE3JTB-15 | 2026-08-31 10:55:42 | 48.26873 | 11.67850 | 76° | 84km/h | 3819m | 6.3m/s | 0°C | 0% | 0hPa | 3.0V | 00:00:00 | 00:26:20 | 00:00:00 | |
| DO3MHA-11 | 2026-08-31 10:55:35 | 48.26834 | 11.67654 | 73° | 86km/h | 3787m | 6.5m/s | -0.6°C | 32.4% | 648.1hPa | 3.0V | 00:00:00 | 00:26:13 | 00:00:00 | |
| DO3MHA-11 | 2026-08-31 10:55:25 | 48.26791 | 11.67339 | 81° | 84km/h | 3729m | 4.7m/s | -0.7°C | 65.4% | 652.4hPa | 3.0V | 00:00:00 | 00:26:03 | 00:00:00 | |
| DL6DJ-15 | 2026-08-31 10:55:18 | 48.26740 | 11.67099 | 74° | 93km/h | 3686m | 6.1m/s | -0.4°C | 65.7% | 656.2hPa | 3.0V | 00:00:00 | 00:00:00 | 00:00:00 | |
| OE5DXL-15 | 2026-08-31 10:55:17 | 48.26734 | 11.67064 | 75° | 91km/h | 3680m | 6.1m/s | -0.3°C | 66.8% | 656.6hPa | 3.0V | 00:00:00 | 00:00:00 | 00:00:00 | |
| DO3MHA-11 | 2026-08-31 10:55:15 | 48.26727 | 11.67030 | 73° | 91km/h | 3674m | 5.5m/s | -0.2°C | 66.9% | 657.1hPa | 3.0V | 00:00:00 | 00:25:53 | 00:00:00 | |
| OE3JTB-15 | 2026-08-31 10:55:13 | 48.26712 | 11.66960 | 74° | 91km/h | 3665m | 5.2m/s | 0°C | 0% | 0hPa | 3.0V | 00:00:00 | 00:00:00 | 00:00:00 | |
| DO3MHA-11 | 2026-08-31 10:55:05 | 48.26653 | 11.66705 | 71° | 88km/h | 3627m | 4.3m/s | 0.1°C | 67.1% | 661.1hPa | 3.0V | 00:00:00 | 00:25:43 | 00:00:00 | |
| DO3MHA-11 | 2026-08-31 10:54:55 | 48.26593 | 11.66384 | 78° | 91km/h | 3565m | 7.0m/s | 0.8°C | 63.6% | 666.0hPa | 3.0V | 00:00:00 | 00:25:33 | 08:30:00 | |
| OE5DXL-15 | 2026-08-31 10:54:46 | 48.26534 | 11.66084 | 72° | 84km/h | 3511m | 7.1m/s | 0°C | 0% | 0hPa | 3.0V | 00:00:00 | 00:00:00 | 00:00:00 | |
| DO3MHA-11 | 2026-08-31 10:54:45 | 48.26528 | 11.66055 | 75° | 86km/h | 3504m | 5.7m/s | 1.4°C | 54.5% | 671.0hPa | 3.0V | 00:00:00 | 00:25:23 | 00:00:00 | |
| DO3MHA-11 | 2026-08-31 10:54:35 | 48.26475 | 11.65738 | 78° | 84km/h | 3440m | 6.7m/s | 2.1°C | 30.6% | 676.5hPa | 3.0V | 00:00:00 | 00:25:13 | 00:00:00 | |
| DO3MHA-11 | 2026-08-31 10:54:25 | 48.26423 | 11.65426 | 76° | 84km/h | 3387m | 5.3m/s | 2.6°C | 25.3% | 680.9hPa | 3.0V | 00:00:00 | 00:25:03 | 00:00:00 | |
| DO3MHA-11 | 2026-08-31 10:54:16 | 48.26368 | 11.65123 | 81° | 82km/h | 3341m | 5.1m/s | 2.7°C | 26.5% | 684.8hPa | 3.0V | 00:00:00 | 00:24:53 | 00:00:00 | |
| DO3MHA-11 | 2026-08-31 10:54:05 | 48.26324 | 11.64821 | 82° | 71km/h | 3280m | 5.7m/s | 3.1°C | 20.1% | 689.8hPa | 3.0V | 00:00:00 | 00:24:43 | 00:00:00 | |
| DO3MHA-11 | 2026-08-31 10:53:55 | 48.26259 | 11.64571 | 70° | 75km/h | 3215m | 5.9m/s | 3.5°C | 16.7% | 695.3hPa | 3.0V | 00:00:00 | 00:24:33 | 00:00:00 | |
| DL6DJ-15 | 2026-08-31 10:53:45 | 48.26202 | 11.64276 | 82° | 69km/h | 3157m | 5.3m/s | 3.9°C | 16.5% | 700.5hPa | 3.0V | 00:00:00 | 00:00:00 | 00:00:00 | |
| DO3MHA-11 | 2026-08-31 10:53:35 | 48.26149 | 11.64030 | 71° | 69km/h | 3104m | 6.7m/s | 4.1°C | 17.2% | 705.3hPa | 3.0V | 00:00:00 | 00:24:13 | 00:00:00 | |
| DO3MHA-11 | 2026-08-31 10:53:26 | 48.26110 | 11.63775 | 75° | 69km/h | 3045m | 5.3m/s | 4.4°C | 17.4% | 710.2hPa | 3.0V | 00:00:00 | 00:24:03 | 08:30:00 | |
| DO3MHA-11 | 2026-08-31 10:53:15 | 48.26057 | 11.63524 | 74° | 64km/h | 2985m | 7.4m/s | 4.6°C | 17.9% | 715.3hPa | 3.0V | 00:00:00 | 00:23:53 | 00:00:00 | |
| DL6DJ-15 | 2026-08-31 10:53:13 | 48.26049 | 11.63477 | 75° | 66km/h | 2971m | 5.9m/s | 4.8°C | 18.3% | 716.7hPa | 3.0V | 00:00:00 | 00:00:00 | 00:00:00 | |
| DO3MHA-11 | 2026-08-31 10:53:05 | 48.26024 | 11.63284 | 78° | 62km/h | 2931m | 6.1m/s | 4.9°C | 21.5% | 720.1hPa | 3.0V | 00:00:00 | 00:23:43 | 00:00:00 | |
| DO3MHA-11 | 2026-08-31 10:52:56 | 48.25985 | 11.63058 | 74° | 57km/h | 2875m | 4.5m/s | 5.4°C | 20.9% | 725.0hPa | 3.0V | 00:00:00 | 00:23:33 | 00:00:00 | |
| DO3MHA-11 | 2026-08-31 10:52:45 | 48.25943 | 11.62854 | 69° | 60km/h | 2819m | 3.4m/s | 5.8°C | 19.1% | 729.9hPa | 3.0V | 00:00:00 | 00:23:23 | 00:00:00 | |
| DL6DJ-15 | 2026-08-31 10:52:42 | 48.25930 | 11.62798 | 72° | 58km/h | 2806m | 4.9m/s | 5.9°C | 19.7% | 731.2hPa | 3.0V | 00:00:00 | 00:00:00 | 00:00:00 | |
| DO3MHA-11 | 2026-08-31 10:52:25 | 48.25855 | 11.62433 | 69° | 51km/h | 2711m | 4.3m/s | 6.2°C | 20.8% | 739.8hPa | 3.0V | 00:00:00 | 00:23:03 | 00:00:00 | |
| OE5DXL-15 | 2026-08-31 10:52:23 | 48.25845 | 11.62397 | 67° | 53km/h | 2705m | 2.5m/s | 0°C | 0% | 0hPa | 3.0V | 00:00:00 | 00:23:01 | 00:00:00 | |
| DO3MHA-11 | 2026-08-31 10:52:15 | 48.25815 | 11.62253 | 76° | 57km/h | 2667m | 6.6m/s | 6.5°C | 22.9% | 743.8hPa | 3.0V | 00:00:00 | 00:22:53 | 00:00:00 | |
| DL6DJ-15 | 2026-08-31 10:52:11 | 48.25800 | 11.62171 | 77° | 60km/h | 2650m | 4.1m/s | 6.7°C | 23.0% | 745.3hPa | 3.0V | 00:00:00 | 00:00:00 | 00:00:00 | |
| DO3MHA-11 | 2026-08-31 10:52:05 | 48.25794 | 11.62043 | 83° | 60km/h | 2624m | 3.7m/s | 6.8°C | 22.8% | 747.7hPa | 3.0V | 00:00:00 | 00:22:43 | 00:00:00 | |
| DO3MHA-11 | 2026-08-31 10:51:55 | 48.25756 | 11.61817 | 73° | 51km/h | 2576m | 3.1m/s | 7.1°C | 21.0% | 752.0hPa | 3.0V | 00:00:00 | 00:22:33 | 08:30:00 | |
| DO3MHA-11 | 2026-08-31 10:51:45 | 48.25710 | 11.61640 | 81° | 49km/h | 2540m | 5.1m/s | 7.4°C | 20.2% | 755.5hPa | 3.0V | 00:00:00 | 00:22:23 | 00:00:00 | |
| DL6DJ-15 | 2026-08-31 10:51:40 | 48.25708 | 11.61552 | 84° | 49km/h | 2525m | 3.3m/s | 7.6°C | -1.0% | 757.0hPa | 3.0V | 00:00:00 | 00:00:00 | 00:00:00 | |
| DO3MHA-11 | 2026-08-31 10:51:35 | 48.25688 | 11.61460 | 63° | 46km/h | 2502m | 2.9m/s | 7.7°C | 20.2% | 759.0hPa | 3.0V | 00:00:00 | 00:22:13 | 00:00:00 | |
| DO3MHA-11 | 2026-08-31 10:51:25 | 48.25646 | 11.61293 | 74° | 64km/h | 2466m | 4.6m/s | 8.0°C | 21.7% | 762.3hPa | 3.0V | 00:00:00 | 00:22:03 | 00:00:00 | |
| DO3MHA-11 | 2026-08-31 10:51:15 | 48.25615 | 11.61062 | 65° | 47km/h | 2434m | 2.7m/s | 8.1°C | 23.6% | 765.6hPa | 2.9V | 00:00:00 | 00:21:53 | 00:00:00 | |
| DL6DJ-15 | 2026-08-31 10:51:09 | 48.25592 | 11.60966 | 78° | 42km/h | 2410m | 3.6m/s | 0°C | -1.0% | 767.6hPa | 2.9V | 00:00:00 | 00:00:00 | 00:00:00 | |
| OE5DXL-15 | 2026-08-31 10:51:05 | 48.25580 | 11.60861 | 75° | 69km/h | 2397m | 2.8m/s | 0°C | 0% | 0hPa | 2.9V | 00:00:00 | 00:00:00 | 00:00:00 | |
| DO3MHA-11 | 2026-08-31 10:50:45 | 48.25485 | 11.60416 | 77° | 57km/h | 2355m | 3.3m/s | 6.8°C | 37.1% | 772.6hPa | 2.9V | 00:00:00 | 00:21:23 | 00:00:00 | |
| DO3MHA-11 | 2026-08-31 10:50:35 | 48.25445 | 11.60207 | 78° | 66km/h | 2338m | -0.6m/s | 5.5°C | 54.6% | 774.4hPa | 2.9V | 00:00:00 | 00:21:13 | 00:00:00 | |
| DO3MHA-11 | 2026-08-31 10:50:32 | 48.25429 | 11.60079 | 78° | 75km/h | 2325m | 2.2m/s | 5.8°C | 98.3% | 775.6hPa | 2.9V | 00:00:00 | 00:21:08 | 08:30:00 | |
| DO3MHA-11 | 2026-08-31 10:50:20 | 48.25380 | 11.59806 | 66° | 71km/h | 2295m | 3.8m/s | 6.5°C | 0% | 778.5hPa | 2.9V | 00:00:00 | 00:20:58 | 00:00:00 | |
| DO3MHA-11 | 2026-08-31 10:50:10 | 48.25325 | 11.59551 | 80° | 62km/h | 2248m | 8.1m/s | 6.9°C | 99.6% | 783.0hPa | 2.9V | 00:00:00 | 00:20:48 | 00:00:00 | |
| DO3MHA-11 | 2026-08-31 10:50:00 | 48.25296 | 11.59320 | 75° | 75km/h | 2182m | 6.3m/s | 7.7°C | 99.4% | 789.1hPa | 2.9V | 00:00:00 | 00:20:38 | 00:00:00 | |
| DO3MHA-11 | 2026-08-31 10:49:50 | 48.25272 | 11.59040 | 74° | 62km/h | 2132m | 6.2m/s | 7.6°C | 99.4% | 793.8hPa | 2.9V | 00:00:00 | 00:20:28 | 00:00:00 | |
| DO3MHA-11 | 2026-08-31 10:49:40 | 48.25239 | 11.58813 | 86° | 51km/h | 2084m | 3.3m/s | 7.6°C | 0% | 798.5hPa | 2.9V | 00:00:00 | 00:20:18 | 00:00:00 | |
| DO3MHA-11 | 2026-08-31 10:49:30 | 48.25218 | 11.58623 | 79° | 42km/h | 2041m | 4.5m/s | 8.0°C | 99.8% | 802.7hPa | 2.9V | 00:00:00 | 00:20:08 | 00:00:00 | |
| DO3MHA-11 | 2026-08-31 10:49:20 | 48.25179 | 11.58475 | 59° | 42km/h | 1978m | 7.1m/s | 8.7°C | 92.3% | 809.0hPa | 3.0V | 00:00:00 | 00:19:58 | 00:00:00 | |
| DO3MHA-11 | 2026-08-31 10:49:10 | 48.25121 | 11.58348 | 50° | 42km/h | 1922m | 5.3m/s | 9.5°C | 83.3% | 814.4hPa | 3.0V | 00:00:00 | 00:19:48 | 00:00:00 | |
| DO3MHA-11 | 2026-08-31 10:49:00 | 48.25062 | 11.58213 | 59° | 40km/h | 1872m | 8.0m/s | 9.6°C | 88.1% | 819.3hPa | 3.0V | 00:00:00 | 00:19:38 | 08:30:00 | |
| DO3MHA-11 | 2026-08-31 10:48:50 | 48.25021 | 11.58075 | 71° | 42km/h | 1812m | 5.4m/s | 10.1°C | 84.9% | 825.2hPa | 2.9V | 00:00:00 | 00:19:28 | 00:00:00 | |
| DO3MHA-11 | 2026-08-31 10:48:40 | 48.24967 | 11.57938 | 71° | 42km/h | 1757m | 4.7m/s | 10.3°C | 87.6% | 830.7hPa | 2.9V | 00:00:00 | 00:19:18 | 00:00:00 | |
| DO3MHA-11 | 2026-08-31 10:48:30 | 48.24921 | 11.57795 | 76° | 46km/h | 1707m | 5.7m/s | 10.8°C | 85.6% | 835.8hPa | 2.9V | 00:00:00 | 00:19:08 | 00:00:00 | |
| DO3MHA-11 | 2026-08-31 10:48:20 | 48.24873 | 11.57638 | 74° | 49km/h | 1654m | 4.1m/s | 11.3°C | 84.1% | 841.1hPa | 2.9V | 00:00:00 | 00:18:58 | 00:00:00 | |
| DO3MHA-11 | 2026-08-31 10:48:10 | 48.24816 | 11.57475 | 62° | 38km/h | 1607m | 5.4m/s | 11.6°C | 87.4% | 845.7hPa | 2.9V | 00:00:00 | 00:18:48 | 00:00:00 | |
| DO3MHA-11 | 2026-08-31 10:48:00 | 48.24770 | 11.57348 | 78° | 40km/h | 1545m | 6.1m/s | 12.2°C | 83.3% | 852.0hPa | 2.9V | 00:00:00 | 00:18:38 | 00:00:00 | |
| DO3MHA-11 | 2026-08-31 10:47:50 | 48.24758 | 11.57197 | 90° | 44km/h | 1472m | 5.8m/s | 12.9°C | 80.1% | 859.4hPa | 3.0V | 00:00:00 | 00:18:28 | 00:00:00 | |
| DO3MHA-11 | 2026-08-31 10:47:40 | 48.24742 | 11.57030 | 78° | 37km/h | 1417m | 5.6m/s | 13.4°C | 78.5% | 865.0hPa | 3.0V | 00:00:00 | 00:18:18 | 00:00:00 | |
| DO3MHA-11 | 2026-08-31 10:47:30 | 48.24745 | 11.56894 | 76° | 31km/h | 1364m | 4.8m/s | 13.8°C | 80.2% | 870.4hPa | 3.0V | 00:00:00 | 00:18:08 | 08:30:00 | |
| DO3MHA-11 | 2026-08-31 10:47:20 | 48.24734 | 11.56784 | 75° | 29km/h | 1312m | 4.8m/s | 14.3°C | 78.2% | 875.8hPa | 3.0V | 00:00:00 | 00:17:58 | 00:00:00 | |
| DO3MHA-11 | 2026-08-31 10:47:10 | 48.24738 | 11.56674 | 85° | 26km/h | 1255m | 6.6m/s | 14.9°C | 75.8% | 882.0hPa | 3.0V | 00:00:00 | 00:17:48 | 00:00:00 | |
| DO3MHA-11 | 2026-08-31 10:47:00 | 48.24722 | 11.56582 | 91° | 31km/h | 1197m | 6.4m/s | 15.5°C | 72.9% | 888.1hPa | 3.0V | 00:00:00 | 00:17:38 | 00:00:00 | |
| DO3MHA-11 | 2026-08-31 10:46:50 | 48.24711 | 11.56462 | 68° | 16km/h | 1143m | 5.3m/s | 16.0°C | 71.9% | 893.8hPa | 0V | 00:00:00 | 00:17:28 | 00:00:00 | |
| DO3MHA-11 | 2026-08-31 10:46:40 | 48.24695 | 11.56409 | 103° | 37km/h | 1091m | 7.0m/s | 0°C | 0% | 0hPa | 0V | 00:00:00 | 00:17:18 | 00:00:00 | |
| DO3MHA-11 | 2026-08-31 10:46:30 | 48.24663 | 11.56285 | 79° | 31km/h | 1034m | 6.7m/s | 0°C | 0% | 0hPa | 0V | 00:00:00 | 00:17:08 | 00:00:00 | |
| DO3MHA-11 | 2026-08-31 10:46:20 | 48.24638 | 11.56176 | 69° | 37km/h | 972m | 4.8m/s | 0°C | 0% | 0hPa | 0V | 00:00:00 | 00:16:58 | 00:00:00 | |
| DO3MHA-11 | 2026-08-31 10:46:10 | 48.24610 | 11.56048 | 84° | 31km/h | 904m | 6.5m/s | 0°C | 0% | 0hPa | 0V | 00:00:00 | 00:16:48 | 00:00:00 | |
| DO3MHA-11 | 2026-08-31 10:46:00 | 48.24603 | 11.55934 | 78° | 37km/h | 832m | 6.8m/s | 0°C | 0% | 0hPa | 0V | 00:00:00 | 00:16:38 | 00:00:00 |